<?xml version="1.0" encoding="UTF-8" standalone="no" ?>
<gpx xmlns="http://www.topografix.com/GPX/1/1" xmlns:xsi="http://www.w3.org/2001/XMLSchema-instance" xsi:schemaLocation="http://www.topografix.com/GPX/1/1 http://www.topografix.com/GPX/1/1/gpx.xsd" version="1.1" creator="VisuGPX - https://www.visugpx.com">
  <metadata>
    <name>Camon </name>
  </metadata>
  <trk>
    <name><![CDATA[Camon _1]]></name>
    <trkseg>
      <trkpt lat="49.88831" lon="2.35234">
        <ele>42.9</ele>
        <time>2023-03-25T13:02:05Z</time>
      </trkpt>
      <trkpt lat="49.88801" lon="2.35238">
        <ele>43</ele>
        <time>2023-03-25T13:02:06Z</time>
      </trkpt>
      <trkpt lat="49.88798" lon="2.35238">
        <ele>43</ele>
        <time>2023-03-25T13:02:07Z</time>
      </trkpt>
      <trkpt lat="49.88814" lon="2.35241">
        <ele>43</ele>
        <time>2023-03-25T13:02:08Z</time>
      </trkpt>
      <trkpt lat="49.88822" lon="2.35243">
        <ele>43</ele>
        <time>2023-03-25T13:02:10Z</time>
      </trkpt>
      <trkpt lat="49.88825" lon="2.35244">
        <ele>43</ele>
        <time>2023-03-25T13:02:11Z</time>
      </trkpt>
      <trkpt lat="49.88825" lon="2.35244">
        <ele>43</ele>
        <time>2023-03-25T13:02:12Z</time>
      </trkpt>
      <trkpt lat="49.88825" lon="2.35244">
        <ele>43</ele>
        <time>2023-03-25T13:02:13Z</time>
      </trkpt>
      <trkpt lat="49.88825" lon="2.35244">
        <ele>43</ele>
        <time>2023-03-25T13:02:14Z</time>
      </trkpt>
      <trkpt lat="49.88825" lon="2.35244">
        <ele>43</ele>
        <time>2023-03-25T13:02:15Z</time>
      </trkpt>
      <trkpt lat="49.88825" lon="2.35244">
        <ele>43</ele>
        <time>2023-03-25T13:02:16Z</time>
      </trkpt>
      <trkpt lat="49.88825" lon="2.35244">
        <ele>43</ele>
        <time>2023-03-25T13:02:17Z</time>
      </trkpt>
      <trkpt lat="49.88825" lon="2.35244">
        <ele>43</ele>
        <time>2023-03-25T13:02:19Z</time>
      </trkpt>
      <trkpt lat="49.88825" lon="2.35244">
        <ele>43</ele>
        <time>2023-03-25T13:02:20Z</time>
      </trkpt>
      <trkpt lat="49.88825" lon="2.35244">
        <ele>43</ele>
        <time>2023-03-25T13:02:21Z</time>
      </trkpt>
      <trkpt lat="49.88825" lon="2.35244">
        <ele>43</ele>
        <time>2023-03-25T13:02:22Z</time>
      </trkpt>
      <trkpt lat="49.88825" lon="2.35244">
        <ele>43</ele>
        <time>2023-03-25T13:02:23Z</time>
      </trkpt>
      <trkpt lat="49.88825" lon="2.35244">
        <ele>43</ele>
        <time>2023-03-25T13:02:24Z</time>
      </trkpt>
      <trkpt lat="49.88825" lon="2.35244">
        <ele>43</ele>
        <time>2023-03-25T13:02:25Z</time>
      </trkpt>
      <trkpt lat="49.88825" lon="2.35244">
        <ele>43</ele>
        <time>2023-03-25T13:02:26Z</time>
      </trkpt>
      <trkpt lat="49.88825" lon="2.35244">
        <ele>43</ele>
        <time>2023-03-25T13:02:27Z</time>
      </trkpt>
      <trkpt lat="49.88825" lon="2.35244">
        <ele>43</ele>
        <time>2023-03-25T13:02:28Z</time>
      </trkpt>
      <trkpt lat="49.88825" lon="2.35244">
        <ele>43</ele>
        <time>2023-03-25T13:02:29Z</time>
      </trkpt>
      <trkpt lat="49.88825" lon="2.35244">
        <ele>43</ele>
        <time>2023-03-25T13:02:30Z</time>
      </trkpt>
      <trkpt lat="49.88825" lon="2.35244">
        <ele>43</ele>
        <time>2023-03-25T13:02:31Z</time>
      </trkpt>
      <trkpt lat="49.88825" lon="2.35244">
        <ele>43</ele>
        <time>2023-03-25T13:02:32Z</time>
      </trkpt>
      <trkpt lat="49.88825" lon="2.35244">
        <ele>43</ele>
        <time>2023-03-25T13:02:33Z</time>
      </trkpt>
      <trkpt lat="49.88825" lon="2.35244">
        <ele>43</ele>
        <time>2023-03-25T13:02:34Z</time>
      </trkpt>
      <trkpt lat="49.88825" lon="2.35244">
        <ele>43</ele>
        <time>2023-03-25T13:02:35Z</time>
      </trkpt>
      <trkpt lat="49.88825" lon="2.35244">
        <ele>43</ele>
        <time>2023-03-25T13:02:36Z</time>
      </trkpt>
      <trkpt lat="49.88825" lon="2.35244">
        <ele>43</ele>
        <time>2023-03-25T13:02:37Z</time>
      </trkpt>
      <trkpt lat="49.88825" lon="2.35244">
        <ele>43</ele>
        <time>2023-03-25T13:02:38Z</time>
      </trkpt>
      <trkpt lat="49.88825" lon="2.35244">
        <ele>43</ele>
        <time>2023-03-25T13:02:39Z</time>
      </trkpt>
      <trkpt lat="49.88825" lon="2.35244">
        <ele>43</ele>
        <time>2023-03-25T13:02:40Z</time>
      </trkpt>
      <trkpt lat="49.88825" lon="2.35244">
        <ele>43</ele>
        <time>2023-03-25T13:02:41Z</time>
      </trkpt>
      <trkpt lat="49.88825" lon="2.35244">
        <ele>43</ele>
        <time>2023-03-25T13:02:42Z</time>
      </trkpt>
      <trkpt lat="49.88825" lon="2.35244">
        <ele>43</ele>
        <time>2023-03-25T13:02:43Z</time>
      </trkpt>
      <trkpt lat="49.88825" lon="2.35244">
        <ele>43</ele>
        <time>2023-03-25T13:02:44Z</time>
      </trkpt>
      <trkpt lat="49.88825" lon="2.35244">
        <ele>43</ele>
        <time>2023-03-25T13:02:45Z</time>
      </trkpt>
      <trkpt lat="49.88825" lon="2.35244">
        <ele>43</ele>
        <time>2023-03-25T13:02:46Z</time>
      </trkpt>
      <trkpt lat="49.88825" lon="2.35244">
        <ele>43</ele>
        <time>2023-03-25T13:02:47Z</time>
      </trkpt>
      <trkpt lat="49.88825" lon="2.35244">
        <ele>43</ele>
        <time>2023-03-25T13:02:48Z</time>
      </trkpt>
      <trkpt lat="49.88826" lon="2.35244">
        <ele>43</ele>
        <time>2023-03-25T13:02:49Z</time>
      </trkpt>
      <trkpt lat="49.88826" lon="2.35244">
        <ele>43</ele>
        <time>2023-03-25T13:02:50Z</time>
      </trkpt>
      <trkpt lat="49.88826" lon="2.35244">
        <ele>43</ele>
        <time>2023-03-25T13:02:51Z</time>
      </trkpt>
      <trkpt lat="49.88826" lon="2.35244">
        <ele>43</ele>
        <time>2023-03-25T13:02:53Z</time>
      </trkpt>
      <trkpt lat="49.88826" lon="2.35244">
        <ele>43</ele>
        <time>2023-03-25T13:02:54Z</time>
      </trkpt>
      <trkpt lat="49.88827" lon="2.35243">
        <ele>43</ele>
        <time>2023-03-25T13:02:55Z</time>
      </trkpt>
      <trkpt lat="49.88827" lon="2.35242">
        <ele>43</ele>
        <time>2023-03-25T13:02:57Z</time>
      </trkpt>
      <trkpt lat="49.88827" lon="2.35241">
        <ele>43</ele>
        <time>2023-03-25T13:02:58Z</time>
      </trkpt>
      <trkpt lat="49.88827" lon="2.3524">
        <ele>43</ele>
        <time>2023-03-25T13:03:00Z</time>
      </trkpt>
      <trkpt lat="49.88827" lon="2.35238">
        <ele>43</ele>
        <time>2023-03-25T13:03:01Z</time>
      </trkpt>
      <trkpt lat="49.88827" lon="2.35238">
        <ele>43</ele>
        <time>2023-03-25T13:03:02Z</time>
      </trkpt>
      <trkpt lat="49.88827" lon="2.35238">
        <ele>43</ele>
        <time>2023-03-25T13:03:04Z</time>
      </trkpt>
      <trkpt lat="49.88826" lon="2.35239">
        <ele>43</ele>
        <time>2023-03-25T13:03:05Z</time>
      </trkpt>
      <trkpt lat="49.88826" lon="2.3524">
        <ele>43</ele>
        <time>2023-03-25T13:03:06Z</time>
      </trkpt>
      <trkpt lat="49.88826" lon="2.3524">
        <ele>43</ele>
        <time>2023-03-25T13:03:08Z</time>
      </trkpt>
      <trkpt lat="49.88826" lon="2.3524">
        <ele>43</ele>
        <time>2023-03-25T13:03:09Z</time>
      </trkpt>
      <trkpt lat="49.88826" lon="2.35239">
        <ele>43</ele>
        <time>2023-03-25T13:03:11Z</time>
      </trkpt>
      <trkpt lat="49.88827" lon="2.35239">
        <ele>43</ele>
        <time>2023-03-25T13:03:12Z</time>
      </trkpt>
      <trkpt lat="49.88827" lon="2.35239">
        <ele>43</ele>
        <time>2023-03-25T13:03:14Z</time>
      </trkpt>
      <trkpt lat="49.88827" lon="2.35239">
        <ele>43</ele>
        <time>2023-03-25T13:03:15Z</time>
      </trkpt>
      <trkpt lat="49.88827" lon="2.35239">
        <ele>43</ele>
        <time>2023-03-25T13:03:16Z</time>
      </trkpt>
      <trkpt lat="49.88827" lon="2.3524">
        <ele>43</ele>
        <time>2023-03-25T13:03:18Z</time>
      </trkpt>
      <trkpt lat="49.88827" lon="2.3524">
        <ele>43</ele>
        <time>2023-03-25T13:03:19Z</time>
      </trkpt>
      <trkpt lat="49.88827" lon="2.3524">
        <ele>43</ele>
        <time>2023-03-25T13:03:20Z</time>
      </trkpt>
      <trkpt lat="49.88827" lon="2.35241">
        <ele>43</ele>
        <time>2023-03-25T13:03:22Z</time>
      </trkpt>
      <trkpt lat="49.88827" lon="2.35241">
        <ele>43</ele>
        <time>2023-03-25T13:03:23Z</time>
      </trkpt>
      <trkpt lat="49.88827" lon="2.35241">
        <ele>43</ele>
        <time>2023-03-25T13:03:24Z</time>
      </trkpt>
      <trkpt lat="49.88827" lon="2.35242">
        <ele>43</ele>
        <time>2023-03-25T13:03:25Z</time>
      </trkpt>
      <trkpt lat="49.88828" lon="2.35243">
        <ele>43</ele>
        <time>2023-03-25T13:03:27Z</time>
      </trkpt>
      <trkpt lat="49.88828" lon="2.35243">
        <ele>43</ele>
        <time>2023-03-25T13:03:28Z</time>
      </trkpt>
      <trkpt lat="49.88828" lon="2.35244">
        <ele>43</ele>
        <time>2023-03-25T13:03:29Z</time>
      </trkpt>
      <trkpt lat="49.88829" lon="2.35244">
        <ele>43</ele>
        <time>2023-03-25T13:03:30Z</time>
      </trkpt>
      <trkpt lat="49.88829" lon="2.35244">
        <ele>43</ele>
        <time>2023-03-25T13:03:32Z</time>
      </trkpt>
      <trkpt lat="49.8883" lon="2.35244">
        <ele>43</ele>
        <time>2023-03-25T13:03:33Z</time>
      </trkpt>
      <trkpt lat="49.8883" lon="2.35245">
        <ele>43</ele>
        <time>2023-03-25T13:03:34Z</time>
      </trkpt>
      <trkpt lat="49.88829" lon="2.35245">
        <ele>43</ele>
        <time>2023-03-25T13:03:36Z</time>
      </trkpt>
      <trkpt lat="49.88829" lon="2.35245">
        <ele>43</ele>
        <time>2023-03-25T13:03:37Z</time>
      </trkpt>
      <trkpt lat="49.88829" lon="2.35245">
        <ele>43</ele>
        <time>2023-03-25T13:03:39Z</time>
      </trkpt>
      <trkpt lat="49.88828" lon="2.35245">
        <ele>43</ele>
        <time>2023-03-25T13:03:40Z</time>
      </trkpt>
      <trkpt lat="49.88828" lon="2.35245">
        <ele>43</ele>
        <time>2023-03-25T13:03:42Z</time>
      </trkpt>
      <trkpt lat="49.88828" lon="2.35245">
        <ele>43</ele>
        <time>2023-03-25T13:03:43Z</time>
      </trkpt>
      <trkpt lat="49.88828" lon="2.35246">
        <ele>43</ele>
        <time>2023-03-25T13:03:44Z</time>
      </trkpt>
      <trkpt lat="49.88828" lon="2.35246">
        <ele>43</ele>
        <time>2023-03-25T13:03:45Z</time>
      </trkpt>
      <trkpt lat="49.88828" lon="2.35247">
        <ele>43</ele>
        <time>2023-03-25T13:03:46Z</time>
      </trkpt>
      <trkpt lat="49.88829" lon="2.35248">
        <ele>43</ele>
        <time>2023-03-25T13:03:47Z</time>
      </trkpt>
      <trkpt lat="49.88829" lon="2.35249">
        <ele>43</ele>
        <time>2023-03-25T13:03:48Z</time>
      </trkpt>
      <trkpt lat="49.88829" lon="2.3525">
        <ele>43</ele>
        <time>2023-03-25T13:03:49Z</time>
      </trkpt>
      <trkpt lat="49.8883" lon="2.3525">
        <ele>43</ele>
        <time>2023-03-25T13:03:50Z</time>
      </trkpt>
      <trkpt lat="49.8883" lon="2.35251">
        <ele>43</ele>
        <time>2023-03-25T13:03:52Z</time>
      </trkpt>
      <trkpt lat="49.8883" lon="2.35252">
        <ele>43</ele>
        <time>2023-03-25T13:03:53Z</time>
      </trkpt>
      <trkpt lat="49.8883" lon="2.35253">
        <ele>43</ele>
        <time>2023-03-25T13:03:54Z</time>
      </trkpt>
      <trkpt lat="49.88832" lon="2.35256">
        <ele>43</ele>
        <time>2023-03-25T13:03:55Z</time>
      </trkpt>
      <trkpt lat="49.88831" lon="2.35257">
        <ele>43</ele>
        <time>2023-03-25T13:03:56Z</time>
      </trkpt>
      <trkpt lat="49.88832" lon="2.35258">
        <ele>43</ele>
        <time>2023-03-25T13:03:57Z</time>
      </trkpt>
      <trkpt lat="49.88832" lon="2.3526">
        <ele>43</ele>
        <time>2023-03-25T13:03:59Z</time>
      </trkpt>
      <trkpt lat="49.88833" lon="2.35262">
        <ele>43</ele>
        <time>2023-03-25T13:04:00Z</time>
      </trkpt>
      <trkpt lat="49.88833" lon="2.35263">
        <ele>43</ele>
        <time>2023-03-25T13:04:01Z</time>
      </trkpt>
      <trkpt lat="49.88833" lon="2.35264">
        <ele>43</ele>
        <time>2023-03-25T13:04:02Z</time>
      </trkpt>
      <trkpt lat="49.88833" lon="2.35266">
        <ele>43</ele>
        <time>2023-03-25T13:04:04Z</time>
      </trkpt>
      <trkpt lat="49.88833" lon="2.35267">
        <ele>43</ele>
        <time>2023-03-25T13:04:05Z</time>
      </trkpt>
      <trkpt lat="49.88834" lon="2.35268">
        <ele>43</ele>
        <time>2023-03-25T13:04:06Z</time>
      </trkpt>
      <trkpt lat="49.88835" lon="2.35269">
        <ele>43</ele>
        <time>2023-03-25T13:04:07Z</time>
      </trkpt>
      <trkpt lat="49.88835" lon="2.35271">
        <ele>43</ele>
        <time>2023-03-25T13:04:08Z</time>
      </trkpt>
      <trkpt lat="49.88836" lon="2.35272">
        <ele>43</ele>
        <time>2023-03-25T13:04:09Z</time>
      </trkpt>
      <trkpt lat="49.88839" lon="2.35271">
        <ele>43</ele>
        <time>2023-03-25T13:04:10Z</time>
      </trkpt>
      <trkpt lat="49.8884" lon="2.35272">
        <ele>43</ele>
        <time>2023-03-25T13:04:12Z</time>
      </trkpt>
      <trkpt lat="49.88841" lon="2.35272">
        <ele>43</ele>
        <time>2023-03-25T13:04:13Z</time>
      </trkpt>
      <trkpt lat="49.88842" lon="2.35269">
        <ele>43</ele>
        <time>2023-03-25T13:04:15Z</time>
      </trkpt>
      <trkpt lat="49.88842" lon="2.35269">
        <ele>43</ele>
        <time>2023-03-25T13:04:16Z</time>
      </trkpt>
      <trkpt lat="49.88842" lon="2.35269">
        <ele>43</ele>
        <time>2023-03-25T13:04:17Z</time>
      </trkpt>
      <trkpt lat="49.88842" lon="2.35269">
        <ele>43</ele>
        <time>2023-03-25T13:04:19Z</time>
      </trkpt>
      <trkpt lat="49.88841" lon="2.3527">
        <ele>43</ele>
        <time>2023-03-25T13:04:20Z</time>
      </trkpt>
      <trkpt lat="49.88841" lon="2.3527">
        <ele>43</ele>
        <time>2023-03-25T13:04:21Z</time>
      </trkpt>
      <trkpt lat="49.88841" lon="2.3527">
        <ele>43</ele>
        <time>2023-03-25T13:04:23Z</time>
      </trkpt>
      <trkpt lat="49.88841" lon="2.35271">
        <ele>43</ele>
        <time>2023-03-25T13:04:24Z</time>
      </trkpt>
      <trkpt lat="49.88841" lon="2.35274">
        <ele>43</ele>
        <time>2023-03-25T13:04:25Z</time>
      </trkpt>
      <trkpt lat="49.88841" lon="2.35274">
        <ele>43</ele>
        <time>2023-03-25T13:04:27Z</time>
      </trkpt>
      <trkpt lat="49.88841" lon="2.35274">
        <ele>43</ele>
        <time>2023-03-25T13:04:28Z</time>
      </trkpt>
      <trkpt lat="49.88841" lon="2.35273">
        <ele>43</ele>
        <time>2023-03-25T13:04:30Z</time>
      </trkpt>
      <trkpt lat="49.88841" lon="2.35273">
        <ele>43</ele>
        <time>2023-03-25T13:04:31Z</time>
      </trkpt>
      <trkpt lat="49.88841" lon="2.35273">
        <ele>43</ele>
        <time>2023-03-25T13:04:32Z</time>
      </trkpt>
      <trkpt lat="49.88841" lon="2.35273">
        <ele>43</ele>
        <time>2023-03-25T13:04:33Z</time>
      </trkpt>
      <trkpt lat="49.88841" lon="2.35273">
        <ele>43</ele>
        <time>2023-03-25T13:04:35Z</time>
      </trkpt>
      <trkpt lat="49.88841" lon="2.35274">
        <ele>43</ele>
        <time>2023-03-25T13:04:36Z</time>
      </trkpt>
      <trkpt lat="49.88841" lon="2.35275">
        <ele>43</ele>
        <time>2023-03-25T13:04:37Z</time>
      </trkpt>
      <trkpt lat="49.88842" lon="2.35276">
        <ele>43</ele>
        <time>2023-03-25T13:04:38Z</time>
      </trkpt>
      <trkpt lat="49.88842" lon="2.35278">
        <ele>43</ele>
        <time>2023-03-25T13:04:39Z</time>
      </trkpt>
      <trkpt lat="49.88843" lon="2.35279">
        <ele>43</ele>
        <time>2023-03-25T13:04:40Z</time>
      </trkpt>
      <trkpt lat="49.88844" lon="2.35281">
        <ele>43</ele>
        <time>2023-03-25T13:04:41Z</time>
      </trkpt>
      <trkpt lat="49.88845" lon="2.35283">
        <ele>43</ele>
        <time>2023-03-25T13:04:42Z</time>
      </trkpt>
      <trkpt lat="49.88846" lon="2.35284">
        <ele>43</ele>
        <time>2023-03-25T13:04:44Z</time>
      </trkpt>
      <trkpt lat="49.88847" lon="2.35286">
        <ele>43</ele>
        <time>2023-03-25T13:04:45Z</time>
      </trkpt>
      <trkpt lat="49.88848" lon="2.35288">
        <ele>43</ele>
        <time>2023-03-25T13:04:46Z</time>
      </trkpt>
      <trkpt lat="49.88849" lon="2.3529">
        <ele>43</ele>
        <time>2023-03-25T13:04:47Z</time>
      </trkpt>
      <trkpt lat="49.8885" lon="2.35291">
        <ele>43</ele>
        <time>2023-03-25T13:04:48Z</time>
      </trkpt>
      <trkpt lat="49.8885" lon="2.35292">
        <ele>43</ele>
        <time>2023-03-25T13:04:49Z</time>
      </trkpt>
      <trkpt lat="49.88851" lon="2.35294">
        <ele>43</ele>
        <time>2023-03-25T13:04:50Z</time>
      </trkpt>
      <trkpt lat="49.88852" lon="2.35296">
        <ele>43</ele>
        <time>2023-03-25T13:04:51Z</time>
      </trkpt>
      <trkpt lat="49.88853" lon="2.35297">
        <ele>43</ele>
        <time>2023-03-25T13:04:53Z</time>
      </trkpt>
      <trkpt lat="49.88854" lon="2.35299">
        <ele>43</ele>
        <time>2023-03-25T13:04:54Z</time>
      </trkpt>
      <trkpt lat="49.88856" lon="2.35302">
        <ele>43</ele>
        <time>2023-03-25T13:04:55Z</time>
      </trkpt>
      <trkpt lat="49.88856" lon="2.35304">
        <ele>43</ele>
        <time>2023-03-25T13:04:56Z</time>
      </trkpt>
      <trkpt lat="49.88858" lon="2.35307">
        <ele>43</ele>
        <time>2023-03-25T13:04:57Z</time>
      </trkpt>
      <trkpt lat="49.88858" lon="2.35309">
        <ele>43</ele>
        <time>2023-03-25T13:04:58Z</time>
      </trkpt>
      <trkpt lat="49.88859" lon="2.35311">
        <ele>43</ele>
        <time>2023-03-25T13:05:00Z</time>
      </trkpt>
      <trkpt lat="49.8886" lon="2.35313">
        <ele>43</ele>
        <time>2023-03-25T13:05:01Z</time>
      </trkpt>
      <trkpt lat="49.88862" lon="2.35315">
        <ele>43</ele>
        <time>2023-03-25T13:05:02Z</time>
      </trkpt>
      <trkpt lat="49.88862" lon="2.35316">
        <ele>43</ele>
        <time>2023-03-25T13:05:03Z</time>
      </trkpt>
      <trkpt lat="49.88864" lon="2.35318">
        <ele>43</ele>
        <time>2023-03-25T13:05:04Z</time>
      </trkpt>
      <trkpt lat="49.88864" lon="2.3532">
        <ele>43</ele>
        <time>2023-03-25T13:05:05Z</time>
      </trkpt>
      <trkpt lat="49.88865" lon="2.35321">
        <ele>43</ele>
        <time>2023-03-25T13:05:06Z</time>
      </trkpt>
      <trkpt lat="49.88867" lon="2.35324">
        <ele>43</ele>
        <time>2023-03-25T13:05:08Z</time>
      </trkpt>
      <trkpt lat="49.88867" lon="2.35325">
        <ele>43</ele>
        <time>2023-03-25T13:05:09Z</time>
      </trkpt>
      <trkpt lat="49.88868" lon="2.35327">
        <ele>43</ele>
        <time>2023-03-25T13:05:10Z</time>
      </trkpt>
      <trkpt lat="49.88869" lon="2.35329">
        <ele>43</ele>
        <time>2023-03-25T13:05:11Z</time>
      </trkpt>
      <trkpt lat="49.88869" lon="2.3533">
        <ele>43</ele>
        <time>2023-03-25T13:05:12Z</time>
      </trkpt>
      <trkpt lat="49.8887" lon="2.35332">
        <ele>43</ele>
        <time>2023-03-25T13:05:13Z</time>
      </trkpt>
      <trkpt lat="49.88871" lon="2.35333">
        <ele>43</ele>
        <time>2023-03-25T13:05:14Z</time>
      </trkpt>
      <trkpt lat="49.88871" lon="2.35335">
        <ele>43</ele>
        <time>2023-03-25T13:05:15Z</time>
      </trkpt>
      <trkpt lat="49.88872" lon="2.35338">
        <ele>43</ele>
        <time>2023-03-25T13:05:17Z</time>
      </trkpt>
      <trkpt lat="49.88873" lon="2.3534">
        <ele>43</ele>
        <time>2023-03-25T13:05:18Z</time>
      </trkpt>
      <trkpt lat="49.88874" lon="2.35342">
        <ele>43</ele>
        <time>2023-03-25T13:05:19Z</time>
      </trkpt>
      <trkpt lat="49.88875" lon="2.35343">
        <ele>43</ele>
        <time>2023-03-25T13:05:20Z</time>
      </trkpt>
      <trkpt lat="49.88876" lon="2.35346">
        <ele>43.1</ele>
        <time>2023-03-25T13:05:21Z</time>
      </trkpt>
      <trkpt lat="49.88877" lon="2.35348">
        <ele>43.1</ele>
        <time>2023-03-25T13:05:23Z</time>
      </trkpt>
      <trkpt lat="49.88878" lon="2.35349">
        <ele>43.1</ele>
        <time>2023-03-25T13:05:24Z</time>
      </trkpt>
      <trkpt lat="49.88878" lon="2.3535">
        <ele>43.1</ele>
        <time>2023-03-25T13:05:25Z</time>
      </trkpt>
      <trkpt lat="49.88879" lon="2.35352">
        <ele>43.1</ele>
        <time>2023-03-25T13:05:26Z</time>
      </trkpt>
      <trkpt lat="49.8888" lon="2.35354">
        <ele>43.1</ele>
        <time>2023-03-25T13:05:27Z</time>
      </trkpt>
      <trkpt lat="49.8888" lon="2.35355">
        <ele>43.1</ele>
        <time>2023-03-25T13:05:28Z</time>
      </trkpt>
      <trkpt lat="49.88881" lon="2.35357">
        <ele>43.1</ele>
        <time>2023-03-25T13:05:29Z</time>
      </trkpt>
      <trkpt lat="49.88881" lon="2.35359">
        <ele>43.1</ele>
        <time>2023-03-25T13:05:30Z</time>
      </trkpt>
      <trkpt lat="49.88882" lon="2.35361">
        <ele>43.1</ele>
        <time>2023-03-25T13:05:31Z</time>
      </trkpt>
      <trkpt lat="49.88883" lon="2.35362">
        <ele>43.1</ele>
        <time>2023-03-25T13:05:33Z</time>
      </trkpt>
      <trkpt lat="49.88885" lon="2.35363">
        <ele>43.1</ele>
        <time>2023-03-25T13:05:34Z</time>
      </trkpt>
      <trkpt lat="49.88886" lon="2.35365">
        <ele>43.1</ele>
        <time>2023-03-25T13:05:35Z</time>
      </trkpt>
      <trkpt lat="49.88888" lon="2.35366">
        <ele>43.1</ele>
        <time>2023-03-25T13:05:36Z</time>
      </trkpt>
      <trkpt lat="49.88888" lon="2.35367">
        <ele>43.1</ele>
        <time>2023-03-25T13:05:37Z</time>
      </trkpt>
      <trkpt lat="49.88889" lon="2.35368">
        <ele>43.1</ele>
        <time>2023-03-25T13:05:38Z</time>
      </trkpt>
      <trkpt lat="49.88891" lon="2.3537">
        <ele>43.1</ele>
        <time>2023-03-25T13:05:39Z</time>
      </trkpt>
      <trkpt lat="49.88891" lon="2.35371">
        <ele>43.1</ele>
        <time>2023-03-25T13:05:41Z</time>
      </trkpt>
      <trkpt lat="49.88892" lon="2.35373">
        <ele>43.1</ele>
        <time>2023-03-25T13:05:42Z</time>
      </trkpt>
      <trkpt lat="49.88893" lon="2.35375">
        <ele>43.2</ele>
        <time>2023-03-25T13:05:43Z</time>
      </trkpt>
      <trkpt lat="49.88893" lon="2.35376">
        <ele>43.2</ele>
        <time>2023-03-25T13:05:44Z</time>
      </trkpt>
      <trkpt lat="49.88893" lon="2.35377">
        <ele>43.2</ele>
        <time>2023-03-25T13:05:45Z</time>
      </trkpt>
      <trkpt lat="49.88894" lon="2.35378">
        <ele>43.2</ele>
        <time>2023-03-25T13:05:46Z</time>
      </trkpt>
      <trkpt lat="49.88895" lon="2.35381">
        <ele>43.2</ele>
        <time>2023-03-25T13:05:47Z</time>
      </trkpt>
      <trkpt lat="49.88895" lon="2.35382">
        <ele>43.2</ele>
        <time>2023-03-25T13:05:48Z</time>
      </trkpt>
      <trkpt lat="49.88895" lon="2.35383">
        <ele>43.2</ele>
        <time>2023-03-25T13:05:49Z</time>
      </trkpt>
      <trkpt lat="49.88896" lon="2.35384">
        <ele>43.2</ele>
        <time>2023-03-25T13:05:51Z</time>
      </trkpt>
      <trkpt lat="49.88897" lon="2.35387">
        <ele>43.2</ele>
        <time>2023-03-25T13:05:52Z</time>
      </trkpt>
      <trkpt lat="49.88898" lon="2.35388">
        <ele>43.2</ele>
        <time>2023-03-25T13:05:53Z</time>
      </trkpt>
      <trkpt lat="49.88898" lon="2.35389">
        <ele>43.2</ele>
        <time>2023-03-25T13:05:54Z</time>
      </trkpt>
      <trkpt lat="49.88899" lon="2.35391">
        <ele>43.2</ele>
        <time>2023-03-25T13:05:55Z</time>
      </trkpt>
      <trkpt lat="49.88899" lon="2.35392">
        <ele>43.3</ele>
        <time>2023-03-25T13:05:56Z</time>
      </trkpt>
      <trkpt lat="49.889" lon="2.35394">
        <ele>43.3</ele>
        <time>2023-03-25T13:05:57Z</time>
      </trkpt>
      <trkpt lat="49.88901" lon="2.35395">
        <ele>43.3</ele>
        <time>2023-03-25T13:05:58Z</time>
      </trkpt>
      <trkpt lat="49.88901" lon="2.35397">
        <ele>43.3</ele>
        <time>2023-03-25T13:06:00Z</time>
      </trkpt>
      <trkpt lat="49.88902" lon="2.35399">
        <ele>43.3</ele>
        <time>2023-03-25T13:06:01Z</time>
      </trkpt>
      <trkpt lat="49.88902" lon="2.35402">
        <ele>43.3</ele>
        <time>2023-03-25T13:06:02Z</time>
      </trkpt>
      <trkpt lat="49.88903" lon="2.35403">
        <ele>43.3</ele>
        <time>2023-03-25T13:06:03Z</time>
      </trkpt>
      <trkpt lat="49.88903" lon="2.35405">
        <ele>43.3</ele>
        <time>2023-03-25T13:06:04Z</time>
      </trkpt>
      <trkpt lat="49.88904" lon="2.35406">
        <ele>43.4</ele>
        <time>2023-03-25T13:06:05Z</time>
      </trkpt>
      <trkpt lat="49.88904" lon="2.35407">
        <ele>43.4</ele>
        <time>2023-03-25T13:06:06Z</time>
      </trkpt>
      <trkpt lat="49.88906" lon="2.3541">
        <ele>43.4</ele>
        <time>2023-03-25T13:06:08Z</time>
      </trkpt>
      <trkpt lat="49.88906" lon="2.35411">
        <ele>43.4</ele>
        <time>2023-03-25T13:06:09Z</time>
      </trkpt>
      <trkpt lat="49.88907" lon="2.35412">
        <ele>43.4</ele>
        <time>2023-03-25T13:06:10Z</time>
      </trkpt>
      <trkpt lat="49.88907" lon="2.35413">
        <ele>43.4</ele>
        <time>2023-03-25T13:06:11Z</time>
      </trkpt>
      <trkpt lat="49.88908" lon="2.35416">
        <ele>43.4</ele>
        <time>2023-03-25T13:06:12Z</time>
      </trkpt>
      <trkpt lat="49.88909" lon="2.35417">
        <ele>43.4</ele>
        <time>2023-03-25T13:06:13Z</time>
      </trkpt>
      <trkpt lat="49.88909" lon="2.35418">
        <ele>43.4</ele>
        <time>2023-03-25T13:06:14Z</time>
      </trkpt>
      <trkpt lat="49.8891" lon="2.35419">
        <ele>43.5</ele>
        <time>2023-03-25T13:06:15Z</time>
      </trkpt>
      <trkpt lat="49.88911" lon="2.3542">
        <ele>43.5</ele>
        <time>2023-03-25T13:06:17Z</time>
      </trkpt>
      <trkpt lat="49.88912" lon="2.35423">
        <ele>43.5</ele>
        <time>2023-03-25T13:06:18Z</time>
      </trkpt>
      <trkpt lat="49.88913" lon="2.35424">
        <ele>43.5</ele>
        <time>2023-03-25T13:06:19Z</time>
      </trkpt>
      <trkpt lat="49.88913" lon="2.35425">
        <ele>43.5</ele>
        <time>2023-03-25T13:06:20Z</time>
      </trkpt>
      <trkpt lat="49.88914" lon="2.35426">
        <ele>43.5</ele>
        <time>2023-03-25T13:06:21Z</time>
      </trkpt>
      <trkpt lat="49.88916" lon="2.35428">
        <ele>43.5</ele>
        <time>2023-03-25T13:06:22Z</time>
      </trkpt>
      <trkpt lat="49.88917" lon="2.3543">
        <ele>43.6</ele>
        <time>2023-03-25T13:06:23Z</time>
      </trkpt>
      <trkpt lat="49.88918" lon="2.35431">
        <ele>43.6</ele>
        <time>2023-03-25T13:06:24Z</time>
      </trkpt>
      <trkpt lat="49.88918" lon="2.35432">
        <ele>43.6</ele>
        <time>2023-03-25T13:06:26Z</time>
      </trkpt>
      <trkpt lat="49.88919" lon="2.35433">
        <ele>43.6</ele>
        <time>2023-03-25T13:06:27Z</time>
      </trkpt>
      <trkpt lat="49.88919" lon="2.35435">
        <ele>43.6</ele>
        <time>2023-03-25T13:06:28Z</time>
      </trkpt>
      <trkpt lat="49.8892" lon="2.35436">
        <ele>43.6</ele>
        <time>2023-03-25T13:06:29Z</time>
      </trkpt>
      <trkpt lat="49.88921" lon="2.35437">
        <ele>43.6</ele>
        <time>2023-03-25T13:06:30Z</time>
      </trkpt>
      <trkpt lat="49.88921" lon="2.35437">
        <ele>43.6</ele>
        <time>2023-03-25T13:06:31Z</time>
      </trkpt>
      <trkpt lat="49.88922" lon="2.35439">
        <ele>43.6</ele>
        <time>2023-03-25T13:06:32Z</time>
      </trkpt>
      <trkpt lat="49.88922" lon="2.3544">
        <ele>43.7</ele>
        <time>2023-03-25T13:06:34Z</time>
      </trkpt>
      <trkpt lat="49.88923" lon="2.35441">
        <ele>43.7</ele>
        <time>2023-03-25T13:06:35Z</time>
      </trkpt>
      <trkpt lat="49.88924" lon="2.35442">
        <ele>43.7</ele>
        <time>2023-03-25T13:06:36Z</time>
      </trkpt>
      <trkpt lat="49.88925" lon="2.35444">
        <ele>43.7</ele>
        <time>2023-03-25T13:06:37Z</time>
      </trkpt>
      <trkpt lat="49.88925" lon="2.35445">
        <ele>43.7</ele>
        <time>2023-03-25T13:06:38Z</time>
      </trkpt>
      <trkpt lat="49.88926" lon="2.35446">
        <ele>43.7</ele>
        <time>2023-03-25T13:06:39Z</time>
      </trkpt>
      <trkpt lat="49.88926" lon="2.35447">
        <ele>43.7</ele>
        <time>2023-03-25T13:06:41Z</time>
      </trkpt>
      <trkpt lat="49.88927" lon="2.35449">
        <ele>43.7</ele>
        <time>2023-03-25T13:06:42Z</time>
      </trkpt>
      <trkpt lat="49.88928" lon="2.3545">
        <ele>43.7</ele>
        <time>2023-03-25T13:06:43Z</time>
      </trkpt>
      <trkpt lat="49.88929" lon="2.35451">
        <ele>43.8</ele>
        <time>2023-03-25T13:06:44Z</time>
      </trkpt>
      <trkpt lat="49.8893" lon="2.35453">
        <ele>43.8</ele>
        <time>2023-03-25T13:06:45Z</time>
      </trkpt>
      <trkpt lat="49.88931" lon="2.35454">
        <ele>43.8</ele>
        <time>2023-03-25T13:06:46Z</time>
      </trkpt>
      <trkpt lat="49.88931" lon="2.35455">
        <ele>43.8</ele>
        <time>2023-03-25T13:06:47Z</time>
      </trkpt>
      <trkpt lat="49.88933" lon="2.35457">
        <ele>43.8</ele>
        <time>2023-03-25T13:06:49Z</time>
      </trkpt>
      <trkpt lat="49.88934" lon="2.35458">
        <ele>43.8</ele>
        <time>2023-03-25T13:06:50Z</time>
      </trkpt>
      <trkpt lat="49.88934" lon="2.35458">
        <ele>43.8</ele>
        <time>2023-03-25T13:06:51Z</time>
      </trkpt>
      <trkpt lat="49.88935" lon="2.3546">
        <ele>43.9</ele>
        <time>2023-03-25T13:06:52Z</time>
      </trkpt>
      <trkpt lat="49.88936" lon="2.3546">
        <ele>43.9</ele>
        <time>2023-03-25T13:06:53Z</time>
      </trkpt>
      <trkpt lat="49.88937" lon="2.35462">
        <ele>43.9</ele>
        <time>2023-03-25T13:06:54Z</time>
      </trkpt>
      <trkpt lat="49.88938" lon="2.35464">
        <ele>43.9</ele>
        <time>2023-03-25T13:06:55Z</time>
      </trkpt>
      <trkpt lat="49.88938" lon="2.35466">
        <ele>43.9</ele>
        <time>2023-03-25T13:06:57Z</time>
      </trkpt>
      <trkpt lat="49.88938" lon="2.35467">
        <ele>43.9</ele>
        <time>2023-03-25T13:06:58Z</time>
      </trkpt>
      <trkpt lat="49.88939" lon="2.3547">
        <ele>44</ele>
        <time>2023-03-25T13:06:59Z</time>
      </trkpt>
      <trkpt lat="49.8894" lon="2.35471">
        <ele>44</ele>
        <time>2023-03-25T13:07:00Z</time>
      </trkpt>
      <trkpt lat="49.8894" lon="2.35472">
        <ele>44</ele>
        <time>2023-03-25T13:07:01Z</time>
      </trkpt>
      <trkpt lat="49.8894" lon="2.35473">
        <ele>44</ele>
        <time>2023-03-25T13:07:02Z</time>
      </trkpt>
      <trkpt lat="49.88941" lon="2.35475">
        <ele>44</ele>
        <time>2023-03-25T13:07:03Z</time>
      </trkpt>
      <trkpt lat="49.88942" lon="2.35477">
        <ele>44</ele>
        <time>2023-03-25T13:07:04Z</time>
      </trkpt>
      <trkpt lat="49.88943" lon="2.3548">
        <ele>44</ele>
        <time>2023-03-25T13:07:05Z</time>
      </trkpt>
      <trkpt lat="49.88943" lon="2.35481">
        <ele>44</ele>
        <time>2023-03-25T13:07:07Z</time>
      </trkpt>
      <trkpt lat="49.88944" lon="2.35482">
        <ele>44.1</ele>
        <time>2023-03-25T13:07:08Z</time>
      </trkpt>
      <trkpt lat="49.88944" lon="2.35483">
        <ele>44.1</ele>
        <time>2023-03-25T13:07:09Z</time>
      </trkpt>
      <trkpt lat="49.88945" lon="2.35485">
        <ele>44.1</ele>
        <time>2023-03-25T13:07:10Z</time>
      </trkpt>
      <trkpt lat="49.88945" lon="2.35486">
        <ele>44.1</ele>
        <time>2023-03-25T13:07:11Z</time>
      </trkpt>
      <trkpt lat="49.88947" lon="2.35489">
        <ele>44.1</ele>
        <time>2023-03-25T13:07:12Z</time>
      </trkpt>
      <trkpt lat="49.88947" lon="2.35489">
        <ele>44.1</ele>
        <time>2023-03-25T13:07:13Z</time>
      </trkpt>
      <trkpt lat="49.88947" lon="2.35491">
        <ele>44.1</ele>
        <time>2023-03-25T13:07:15Z</time>
      </trkpt>
      <trkpt lat="49.88948" lon="2.35493">
        <ele>44.1</ele>
        <time>2023-03-25T13:07:16Z</time>
      </trkpt>
      <trkpt lat="49.88949" lon="2.35494">
        <ele>44.1</ele>
        <time>2023-03-25T13:07:17Z</time>
      </trkpt>
      <trkpt lat="49.88949" lon="2.35495">
        <ele>44.2</ele>
        <time>2023-03-25T13:07:18Z</time>
      </trkpt>
      <trkpt lat="49.8895" lon="2.35497">
        <ele>44.2</ele>
        <time>2023-03-25T13:07:19Z</time>
      </trkpt>
      <trkpt lat="49.88951" lon="2.35498">
        <ele>44.2</ele>
        <time>2023-03-25T13:07:20Z</time>
      </trkpt>
      <trkpt lat="49.88952" lon="2.35499">
        <ele>44.2</ele>
        <time>2023-03-25T13:07:21Z</time>
      </trkpt>
      <trkpt lat="49.88954" lon="2.35502">
        <ele>44.2</ele>
        <time>2023-03-25T13:07:22Z</time>
      </trkpt>
      <trkpt lat="49.88954" lon="2.35503">
        <ele>44.2</ele>
        <time>2023-03-25T13:07:24Z</time>
      </trkpt>
      <trkpt lat="49.88954" lon="2.35504">
        <ele>44.2</ele>
        <time>2023-03-25T13:07:25Z</time>
      </trkpt>
      <trkpt lat="49.88955" lon="2.35505">
        <ele>44.2</ele>
        <time>2023-03-25T13:07:26Z</time>
      </trkpt>
      <trkpt lat="49.88956" lon="2.35506">
        <ele>44.3</ele>
        <time>2023-03-25T13:07:27Z</time>
      </trkpt>
      <trkpt lat="49.88956" lon="2.35508">
        <ele>44.3</ele>
        <time>2023-03-25T13:07:28Z</time>
      </trkpt>
      <trkpt lat="49.88957" lon="2.35509">
        <ele>44.3</ele>
        <time>2023-03-25T13:07:29Z</time>
      </trkpt>
      <trkpt lat="49.88958" lon="2.3551">
        <ele>44.3</ele>
        <time>2023-03-25T13:07:30Z</time>
      </trkpt>
      <trkpt lat="49.88959" lon="2.35511">
        <ele>44.3</ele>
        <time>2023-03-25T13:07:32Z</time>
      </trkpt>
      <trkpt lat="49.8896" lon="2.35513">
        <ele>44.3</ele>
        <time>2023-03-25T13:07:33Z</time>
      </trkpt>
      <trkpt lat="49.88961" lon="2.35514">
        <ele>44.3</ele>
        <time>2023-03-25T13:07:34Z</time>
      </trkpt>
      <trkpt lat="49.88961" lon="2.35515">
        <ele>44.3</ele>
        <time>2023-03-25T13:07:35Z</time>
      </trkpt>
      <trkpt lat="49.88962" lon="2.35516">
        <ele>44.3</ele>
        <time>2023-03-25T13:07:36Z</time>
      </trkpt>
      <trkpt lat="49.88963" lon="2.35518">
        <ele>44.4</ele>
        <time>2023-03-25T13:07:37Z</time>
      </trkpt>
      <trkpt lat="49.88963" lon="2.35519">
        <ele>44.4</ele>
        <time>2023-03-25T13:07:38Z</time>
      </trkpt>
      <trkpt lat="49.88964" lon="2.3552">
        <ele>44.4</ele>
        <time>2023-03-25T13:07:39Z</time>
      </trkpt>
      <trkpt lat="49.88965" lon="2.35521">
        <ele>44.4</ele>
        <time>2023-03-25T13:07:41Z</time>
      </trkpt>
      <trkpt lat="49.88965" lon="2.35523">
        <ele>44.4</ele>
        <time>2023-03-25T13:07:42Z</time>
      </trkpt>
      <trkpt lat="49.88965" lon="2.35524">
        <ele>44.4</ele>
        <time>2023-03-25T13:07:43Z</time>
      </trkpt>
      <trkpt lat="49.88966" lon="2.35526">
        <ele>44.4</ele>
        <time>2023-03-25T13:07:44Z</time>
      </trkpt>
      <trkpt lat="49.88966" lon="2.35526">
        <ele>44.4</ele>
        <time>2023-03-25T13:07:45Z</time>
      </trkpt>
      <trkpt lat="49.88967" lon="2.35528">
        <ele>44.4</ele>
        <time>2023-03-25T13:07:47Z</time>
      </trkpt>
      <trkpt lat="49.88967" lon="2.3553">
        <ele>44.4</ele>
        <time>2023-03-25T13:07:48Z</time>
      </trkpt>
      <trkpt lat="49.88967" lon="2.35531">
        <ele>44.5</ele>
        <time>2023-03-25T13:07:49Z</time>
      </trkpt>
      <trkpt lat="49.88967" lon="2.35533">
        <ele>44.5</ele>
        <time>2023-03-25T13:07:51Z</time>
      </trkpt>
      <trkpt lat="49.88968" lon="2.35533">
        <ele>44.5</ele>
        <time>2023-03-25T13:07:52Z</time>
      </trkpt>
      <trkpt lat="49.88968" lon="2.35533">
        <ele>44.5</ele>
        <time>2023-03-25T13:07:53Z</time>
      </trkpt>
      <trkpt lat="49.88968" lon="2.35533">
        <ele>44.5</ele>
        <time>2023-03-25T13:07:55Z</time>
      </trkpt>
      <trkpt lat="49.88967" lon="2.35532">
        <ele>44.5</ele>
        <time>2023-03-25T13:07:56Z</time>
      </trkpt>
      <trkpt lat="49.88967" lon="2.35532">
        <ele>44.5</ele>
        <time>2023-03-25T13:07:57Z</time>
      </trkpt>
      <trkpt lat="49.88967" lon="2.35532">
        <ele>44.5</ele>
        <time>2023-03-25T13:07:59Z</time>
      </trkpt>
      <trkpt lat="49.88967" lon="2.35532">
        <ele>44.5</ele>
        <time>2023-03-25T13:08:00Z</time>
      </trkpt>
      <trkpt lat="49.88967" lon="2.35533">
        <ele>44.5</ele>
        <time>2023-03-25T13:08:02Z</time>
      </trkpt>
      <trkpt lat="49.88967" lon="2.35533">
        <ele>44.5</ele>
        <time>2023-03-25T13:08:03Z</time>
      </trkpt>
      <trkpt lat="49.88967" lon="2.35533">
        <ele>44.5</ele>
        <time>2023-03-25T13:08:05Z</time>
      </trkpt>
      <trkpt lat="49.88967" lon="2.35533">
        <ele>44.5</ele>
        <time>2023-03-25T13:08:06Z</time>
      </trkpt>
      <trkpt lat="49.88967" lon="2.35533">
        <ele>44.5</ele>
        <time>2023-03-25T13:08:07Z</time>
      </trkpt>
      <trkpt lat="49.88967" lon="2.35533">
        <ele>44.5</ele>
        <time>2023-03-25T13:08:09Z</time>
      </trkpt>
      <trkpt lat="49.88967" lon="2.35533">
        <ele>44.5</ele>
        <time>2023-03-25T13:08:10Z</time>
      </trkpt>
      <trkpt lat="49.88967" lon="2.35532">
        <ele>44.5</ele>
        <time>2023-03-25T13:08:11Z</time>
      </trkpt>
      <trkpt lat="49.88967" lon="2.35531">
        <ele>44.5</ele>
        <time>2023-03-25T13:08:12Z</time>
      </trkpt>
      <trkpt lat="49.88967" lon="2.35531">
        <ele>44.5</ele>
        <time>2023-03-25T13:08:13Z</time>
      </trkpt>
      <trkpt lat="49.88967" lon="2.35531">
        <ele>44.5</ele>
        <time>2023-03-25T13:08:14Z</time>
      </trkpt>
      <trkpt lat="49.88967" lon="2.35531">
        <ele>44.5</ele>
        <time>2023-03-25T13:08:15Z</time>
      </trkpt>
      <trkpt lat="49.88967" lon="2.35531">
        <ele>44.5</ele>
        <time>2023-03-25T13:08:16Z</time>
      </trkpt>
      <trkpt lat="49.88967" lon="2.35531">
        <ele>44.5</ele>
        <time>2023-03-25T13:08:17Z</time>
      </trkpt>
      <trkpt lat="49.88967" lon="2.35531">
        <ele>44.5</ele>
        <time>2023-03-25T13:08:18Z</time>
      </trkpt>
      <trkpt lat="49.88967" lon="2.35531">
        <ele>44.5</ele>
        <time>2023-03-25T13:08:19Z</time>
      </trkpt>
      <trkpt lat="49.88967" lon="2.35532">
        <ele>44.5</ele>
        <time>2023-03-25T13:08:21Z</time>
      </trkpt>
      <trkpt lat="49.88967" lon="2.35532">
        <ele>44.5</ele>
        <time>2023-03-25T13:08:22Z</time>
      </trkpt>
      <trkpt lat="49.88968" lon="2.35532">
        <ele>44.5</ele>
        <time>2023-03-25T13:08:23Z</time>
      </trkpt>
      <trkpt lat="49.88968" lon="2.35532">
        <ele>44.5</ele>
        <time>2023-03-25T13:08:24Z</time>
      </trkpt>
      <trkpt lat="49.88969" lon="2.35533">
        <ele>44.5</ele>
        <time>2023-03-25T13:08:25Z</time>
      </trkpt>
      <trkpt lat="49.8897" lon="2.35533">
        <ele>44.5</ele>
        <time>2023-03-25T13:08:27Z</time>
      </trkpt>
      <trkpt lat="49.88971" lon="2.35533">
        <ele>44.6</ele>
        <time>2023-03-25T13:08:28Z</time>
      </trkpt>
      <trkpt lat="49.88972" lon="2.35534">
        <ele>44.6</ele>
        <time>2023-03-25T13:08:29Z</time>
      </trkpt>
      <trkpt lat="49.88973" lon="2.35534">
        <ele>44.6</ele>
        <time>2023-03-25T13:08:30Z</time>
      </trkpt>
      <trkpt lat="49.88974" lon="2.35534">
        <ele>44.6</ele>
        <time>2023-03-25T13:08:31Z</time>
      </trkpt>
      <trkpt lat="49.88975" lon="2.35535">
        <ele>44.6</ele>
        <time>2023-03-25T13:08:32Z</time>
      </trkpt>
      <trkpt lat="49.88976" lon="2.35536">
        <ele>44.6</ele>
        <time>2023-03-25T13:08:33Z</time>
      </trkpt>
      <trkpt lat="49.88977" lon="2.35537">
        <ele>44.6</ele>
        <time>2023-03-25T13:08:35Z</time>
      </trkpt>
      <trkpt lat="49.88978" lon="2.35539">
        <ele>44.6</ele>
        <time>2023-03-25T13:08:36Z</time>
      </trkpt>
      <trkpt lat="49.88979" lon="2.35542">
        <ele>44.7</ele>
        <time>2023-03-25T13:08:37Z</time>
      </trkpt>
      <trkpt lat="49.88979" lon="2.35545">
        <ele>44.7</ele>
        <time>2023-03-25T13:08:38Z</time>
      </trkpt>
      <trkpt lat="49.88981" lon="2.35547">
        <ele>44.7</ele>
        <time>2023-03-25T13:08:39Z</time>
      </trkpt>
      <trkpt lat="49.88981" lon="2.35548">
        <ele>44.7</ele>
        <time>2023-03-25T13:08:40Z</time>
      </trkpt>
      <trkpt lat="49.88982" lon="2.35549">
        <ele>44.8</ele>
        <time>2023-03-25T13:08:42Z</time>
      </trkpt>
      <trkpt lat="49.88983" lon="2.3555">
        <ele>44.8</ele>
        <time>2023-03-25T13:08:43Z</time>
      </trkpt>
      <trkpt lat="49.88984" lon="2.3555">
        <ele>44.8</ele>
        <time>2023-03-25T13:08:44Z</time>
      </trkpt>
      <trkpt lat="49.88985" lon="2.35551">
        <ele>44.8</ele>
        <time>2023-03-25T13:08:45Z</time>
      </trkpt>
      <trkpt lat="49.88986" lon="2.35554">
        <ele>44.8</ele>
        <time>2023-03-25T13:08:46Z</time>
      </trkpt>
      <trkpt lat="49.88987" lon="2.35555">
        <ele>44.9</ele>
        <time>2023-03-25T13:08:47Z</time>
      </trkpt>
      <trkpt lat="49.88988" lon="2.35556">
        <ele>44.9</ele>
        <time>2023-03-25T13:08:48Z</time>
      </trkpt>
      <trkpt lat="49.88989" lon="2.35557">
        <ele>44.9</ele>
        <time>2023-03-25T13:08:50Z</time>
      </trkpt>
      <trkpt lat="49.8899" lon="2.35559">
        <ele>44.9</ele>
        <time>2023-03-25T13:08:51Z</time>
      </trkpt>
      <trkpt lat="49.88991" lon="2.3556">
        <ele>45</ele>
        <time>2023-03-25T13:08:52Z</time>
      </trkpt>
      <trkpt lat="49.88993" lon="2.35562">
        <ele>45</ele>
        <time>2023-03-25T13:08:53Z</time>
      </trkpt>
      <trkpt lat="49.88993" lon="2.35563">
        <ele>45</ele>
        <time>2023-03-25T13:08:54Z</time>
      </trkpt>
      <trkpt lat="49.88994" lon="2.35564">
        <ele>45</ele>
        <time>2023-03-25T13:08:55Z</time>
      </trkpt>
      <trkpt lat="49.88995" lon="2.35566">
        <ele>45.1</ele>
        <time>2023-03-25T13:08:56Z</time>
      </trkpt>
      <trkpt lat="49.88996" lon="2.35567">
        <ele>45.1</ele>
        <time>2023-03-25T13:08:57Z</time>
      </trkpt>
      <trkpt lat="49.88997" lon="2.35569">
        <ele>45.1</ele>
        <time>2023-03-25T13:08:58Z</time>
      </trkpt>
      <trkpt lat="49.88998" lon="2.3557">
        <ele>45.1</ele>
        <time>2023-03-25T13:09:00Z</time>
      </trkpt>
      <trkpt lat="49.88999" lon="2.35572">
        <ele>45.2</ele>
        <time>2023-03-25T13:09:01Z</time>
      </trkpt>
      <trkpt lat="49.88999" lon="2.35573">
        <ele>45.2</ele>
        <time>2023-03-25T13:09:02Z</time>
      </trkpt>
      <trkpt lat="49.89001" lon="2.35575">
        <ele>45.2</ele>
        <time>2023-03-25T13:09:03Z</time>
      </trkpt>
      <trkpt lat="49.89001" lon="2.35576">
        <ele>45.2</ele>
        <time>2023-03-25T13:09:04Z</time>
      </trkpt>
      <trkpt lat="49.89002" lon="2.35577">
        <ele>45.2</ele>
        <time>2023-03-25T13:09:05Z</time>
      </trkpt>
      <trkpt lat="49.89003" lon="2.35579">
        <ele>45.3</ele>
        <time>2023-03-25T13:09:06Z</time>
      </trkpt>
      <trkpt lat="49.89004" lon="2.3558">
        <ele>45.3</ele>
        <time>2023-03-25T13:09:07Z</time>
      </trkpt>
      <trkpt lat="49.89004" lon="2.35581">
        <ele>45.3</ele>
        <time>2023-03-25T13:09:08Z</time>
      </trkpt>
      <trkpt lat="49.89005" lon="2.35582">
        <ele>45.3</ele>
        <time>2023-03-25T13:09:10Z</time>
      </trkpt>
      <trkpt lat="49.89006" lon="2.35584">
        <ele>45.4</ele>
        <time>2023-03-25T13:09:11Z</time>
      </trkpt>
      <trkpt lat="49.89006" lon="2.35585">
        <ele>45.4</ele>
        <time>2023-03-25T13:09:12Z</time>
      </trkpt>
      <trkpt lat="49.89007" lon="2.35588">
        <ele>45.4</ele>
        <time>2023-03-25T13:09:13Z</time>
      </trkpt>
      <trkpt lat="49.89007" lon="2.35588">
        <ele>45.4</ele>
        <time>2023-03-25T13:09:14Z</time>
      </trkpt>
      <trkpt lat="49.89008" lon="2.3559">
        <ele>45.4</ele>
        <time>2023-03-25T13:09:16Z</time>
      </trkpt>
      <trkpt lat="49.89009" lon="2.35591">
        <ele>45.5</ele>
        <time>2023-03-25T13:09:17Z</time>
      </trkpt>
      <trkpt lat="49.89009" lon="2.35593">
        <ele>45.5</ele>
        <time>2023-03-25T13:09:18Z</time>
      </trkpt>
      <trkpt lat="49.8901" lon="2.35594">
        <ele>45.5</ele>
        <time>2023-03-25T13:09:19Z</time>
      </trkpt>
      <trkpt lat="49.8901" lon="2.35595">
        <ele>45.5</ele>
        <time>2023-03-25T13:09:20Z</time>
      </trkpt>
      <trkpt lat="49.89011" lon="2.35597">
        <ele>45.5</ele>
        <time>2023-03-25T13:09:21Z</time>
      </trkpt>
      <trkpt lat="49.89011" lon="2.35598">
        <ele>45.5</ele>
        <time>2023-03-25T13:09:22Z</time>
      </trkpt>
      <trkpt lat="49.89012" lon="2.356">
        <ele>45.6</ele>
        <time>2023-03-25T13:09:23Z</time>
      </trkpt>
      <trkpt lat="49.89012" lon="2.35601">
        <ele>45.6</ele>
        <time>2023-03-25T13:09:24Z</time>
      </trkpt>
      <trkpt lat="49.89013" lon="2.35603">
        <ele>45.6</ele>
        <time>2023-03-25T13:09:26Z</time>
      </trkpt>
      <trkpt lat="49.89014" lon="2.35605">
        <ele>45.6</ele>
        <time>2023-03-25T13:09:27Z</time>
      </trkpt>
      <trkpt lat="49.89014" lon="2.35606">
        <ele>45.6</ele>
        <time>2023-03-25T13:09:28Z</time>
      </trkpt>
      <trkpt lat="49.89015" lon="2.35608">
        <ele>45.6</ele>
        <time>2023-03-25T13:09:29Z</time>
      </trkpt>
      <trkpt lat="49.89015" lon="2.35609">
        <ele>45.6</ele>
        <time>2023-03-25T13:09:30Z</time>
      </trkpt>
      <trkpt lat="49.89016" lon="2.3561">
        <ele>45.7</ele>
        <time>2023-03-25T13:09:31Z</time>
      </trkpt>
      <trkpt lat="49.89017" lon="2.35612">
        <ele>45.7</ele>
        <time>2023-03-25T13:09:32Z</time>
      </trkpt>
      <trkpt lat="49.89018" lon="2.35614">
        <ele>45.7</ele>
        <time>2023-03-25T13:09:33Z</time>
      </trkpt>
      <trkpt lat="49.89019" lon="2.35615">
        <ele>45.7</ele>
        <time>2023-03-25T13:09:34Z</time>
      </trkpt>
      <trkpt lat="49.8902" lon="2.35617">
        <ele>45.7</ele>
        <time>2023-03-25T13:09:36Z</time>
      </trkpt>
      <trkpt lat="49.8902" lon="2.35618">
        <ele>45.8</ele>
        <time>2023-03-25T13:09:37Z</time>
      </trkpt>
      <trkpt lat="49.89021" lon="2.35619">
        <ele>45.8</ele>
        <time>2023-03-25T13:09:38Z</time>
      </trkpt>
      <trkpt lat="49.89022" lon="2.3562">
        <ele>45.8</ele>
        <time>2023-03-25T13:09:39Z</time>
      </trkpt>
      <trkpt lat="49.89022" lon="2.35621">
        <ele>45.8</ele>
        <time>2023-03-25T13:09:40Z</time>
      </trkpt>
      <trkpt lat="49.89023" lon="2.35622">
        <ele>45.8</ele>
        <time>2023-03-25T13:09:41Z</time>
      </trkpt>
      <trkpt lat="49.89024" lon="2.35624">
        <ele>45.8</ele>
        <time>2023-03-25T13:09:43Z</time>
      </trkpt>
      <trkpt lat="49.89025" lon="2.35625">
        <ele>45.9</ele>
        <time>2023-03-25T13:09:44Z</time>
      </trkpt>
      <trkpt lat="49.89026" lon="2.35627">
        <ele>45.9</ele>
        <time>2023-03-25T13:09:45Z</time>
      </trkpt>
      <trkpt lat="49.89028" lon="2.35629">
        <ele>45.9</ele>
        <time>2023-03-25T13:09:46Z</time>
      </trkpt>
      <trkpt lat="49.89029" lon="2.3563">
        <ele>46</ele>
        <time>2023-03-25T13:09:47Z</time>
      </trkpt>
      <trkpt lat="49.8903" lon="2.35631">
        <ele>46</ele>
        <time>2023-03-25T13:09:49Z</time>
      </trkpt>
      <trkpt lat="49.8903" lon="2.35632">
        <ele>46</ele>
        <time>2023-03-25T13:09:50Z</time>
      </trkpt>
      <trkpt lat="49.89031" lon="2.35633">
        <ele>46</ele>
        <time>2023-03-25T13:09:51Z</time>
      </trkpt>
      <trkpt lat="49.89032" lon="2.35634">
        <ele>46</ele>
        <time>2023-03-25T13:09:52Z</time>
      </trkpt>
      <trkpt lat="49.89033" lon="2.35636">
        <ele>46.1</ele>
        <time>2023-03-25T13:09:53Z</time>
      </trkpt>
      <trkpt lat="49.89034" lon="2.35636">
        <ele>46.1</ele>
        <time>2023-03-25T13:09:54Z</time>
      </trkpt>
      <trkpt lat="49.89034" lon="2.35637">
        <ele>46.1</ele>
        <time>2023-03-25T13:09:55Z</time>
      </trkpt>
      <trkpt lat="49.89036" lon="2.35639">
        <ele>46.1</ele>
        <time>2023-03-25T13:09:56Z</time>
      </trkpt>
      <trkpt lat="49.89036" lon="2.35641">
        <ele>46.1</ele>
        <time>2023-03-25T13:09:58Z</time>
      </trkpt>
      <trkpt lat="49.89037" lon="2.35642">
        <ele>46.2</ele>
        <time>2023-03-25T13:09:59Z</time>
      </trkpt>
      <trkpt lat="49.89038" lon="2.35643">
        <ele>46.2</ele>
        <time>2023-03-25T13:10:00Z</time>
      </trkpt>
      <trkpt lat="49.89038" lon="2.35644">
        <ele>46.2</ele>
        <time>2023-03-25T13:10:01Z</time>
      </trkpt>
      <trkpt lat="49.89039" lon="2.35646">
        <ele>46.2</ele>
        <time>2023-03-25T13:10:02Z</time>
      </trkpt>
      <trkpt lat="49.8904" lon="2.35647">
        <ele>46.2</ele>
        <time>2023-03-25T13:10:03Z</time>
      </trkpt>
      <trkpt lat="49.89041" lon="2.35648">
        <ele>46.3</ele>
        <time>2023-03-25T13:10:05Z</time>
      </trkpt>
      <trkpt lat="49.89042" lon="2.3565">
        <ele>46.3</ele>
        <time>2023-03-25T13:10:06Z</time>
      </trkpt>
      <trkpt lat="49.89043" lon="2.35652">
        <ele>46.3</ele>
        <time>2023-03-25T13:10:07Z</time>
      </trkpt>
      <trkpt lat="49.89044" lon="2.35653">
        <ele>46.3</ele>
        <time>2023-03-25T13:10:08Z</time>
      </trkpt>
      <trkpt lat="49.89044" lon="2.35654">
        <ele>46.3</ele>
        <time>2023-03-25T13:10:09Z</time>
      </trkpt>
      <trkpt lat="49.89045" lon="2.35655">
        <ele>46.3</ele>
        <time>2023-03-25T13:10:10Z</time>
      </trkpt>
      <trkpt lat="49.89046" lon="2.35656">
        <ele>46.4</ele>
        <time>2023-03-25T13:10:12Z</time>
      </trkpt>
      <trkpt lat="49.89046" lon="2.35658">
        <ele>46.4</ele>
        <time>2023-03-25T13:10:13Z</time>
      </trkpt>
      <trkpt lat="49.89047" lon="2.3566">
        <ele>46.4</ele>
        <time>2023-03-25T13:10:14Z</time>
      </trkpt>
      <trkpt lat="49.89048" lon="2.3566">
        <ele>46.4</ele>
        <time>2023-03-25T13:10:15Z</time>
      </trkpt>
      <trkpt lat="49.89048" lon="2.35661">
        <ele>46.4</ele>
        <time>2023-03-25T13:10:16Z</time>
      </trkpt>
      <trkpt lat="49.89049" lon="2.35663">
        <ele>46.4</ele>
        <time>2023-03-25T13:10:17Z</time>
      </trkpt>
      <trkpt lat="49.8905" lon="2.35665">
        <ele>46.5</ele>
        <time>2023-03-25T13:10:19Z</time>
      </trkpt>
      <trkpt lat="49.8905" lon="2.35666">
        <ele>46.5</ele>
        <time>2023-03-25T13:10:20Z</time>
      </trkpt>
      <trkpt lat="49.89051" lon="2.35667">
        <ele>46.5</ele>
        <time>2023-03-25T13:10:21Z</time>
      </trkpt>
      <trkpt lat="49.89052" lon="2.35669">
        <ele>46.5</ele>
        <time>2023-03-25T13:10:22Z</time>
      </trkpt>
      <trkpt lat="49.89052" lon="2.3567">
        <ele>46.5</ele>
        <time>2023-03-25T13:10:23Z</time>
      </trkpt>
      <trkpt lat="49.89053" lon="2.35671">
        <ele>46.5</ele>
        <time>2023-03-25T13:10:24Z</time>
      </trkpt>
      <trkpt lat="49.89053" lon="2.35672">
        <ele>46.6</ele>
        <time>2023-03-25T13:10:25Z</time>
      </trkpt>
      <trkpt lat="49.89054" lon="2.35674">
        <ele>46.6</ele>
        <time>2023-03-25T13:10:26Z</time>
      </trkpt>
      <trkpt lat="49.89055" lon="2.35675">
        <ele>46.6</ele>
        <time>2023-03-25T13:10:28Z</time>
      </trkpt>
      <trkpt lat="49.89056" lon="2.35677">
        <ele>46.6</ele>
        <time>2023-03-25T13:10:29Z</time>
      </trkpt>
      <trkpt lat="49.89056" lon="2.35678">
        <ele>46.6</ele>
        <time>2023-03-25T13:10:30Z</time>
      </trkpt>
      <trkpt lat="49.89057" lon="2.3568">
        <ele>46.6</ele>
        <time>2023-03-25T13:10:31Z</time>
      </trkpt>
      <trkpt lat="49.89058" lon="2.35681">
        <ele>46.7</ele>
        <time>2023-03-25T13:10:32Z</time>
      </trkpt>
      <trkpt lat="49.89059" lon="2.35683">
        <ele>46.7</ele>
        <time>2023-03-25T13:10:33Z</time>
      </trkpt>
      <trkpt lat="49.89059" lon="2.35684">
        <ele>46.7</ele>
        <time>2023-03-25T13:10:34Z</time>
      </trkpt>
      <trkpt lat="49.8906" lon="2.35686">
        <ele>46.7</ele>
        <time>2023-03-25T13:10:36Z</time>
      </trkpt>
      <trkpt lat="49.89062" lon="2.35688">
        <ele>46.7</ele>
        <time>2023-03-25T13:10:37Z</time>
      </trkpt>
      <trkpt lat="49.89062" lon="2.35689">
        <ele>46.7</ele>
        <time>2023-03-25T13:10:38Z</time>
      </trkpt>
      <trkpt lat="49.89063" lon="2.3569">
        <ele>46.7</ele>
        <time>2023-03-25T13:10:39Z</time>
      </trkpt>
      <trkpt lat="49.89063" lon="2.35691">
        <ele>46.8</ele>
        <time>2023-03-25T13:10:40Z</time>
      </trkpt>
      <trkpt lat="49.89064" lon="2.35692">
        <ele>46.8</ele>
        <time>2023-03-25T13:10:42Z</time>
      </trkpt>
      <trkpt lat="49.89065" lon="2.35693">
        <ele>46.8</ele>
        <time>2023-03-25T13:10:43Z</time>
      </trkpt>
      <trkpt lat="49.89066" lon="2.35694">
        <ele>46.8</ele>
        <time>2023-03-25T13:10:44Z</time>
      </trkpt>
      <trkpt lat="49.89067" lon="2.35695">
        <ele>46.8</ele>
        <time>2023-03-25T13:10:45Z</time>
      </trkpt>
      <trkpt lat="49.89067" lon="2.35696">
        <ele>46.8</ele>
        <time>2023-03-25T13:10:46Z</time>
      </trkpt>
      <trkpt lat="49.89068" lon="2.35698">
        <ele>46.8</ele>
        <time>2023-03-25T13:10:47Z</time>
      </trkpt>
      <trkpt lat="49.89069" lon="2.35699">
        <ele>46.8</ele>
        <time>2023-03-25T13:10:48Z</time>
      </trkpt>
      <trkpt lat="49.8907" lon="2.357">
        <ele>46.8</ele>
        <time>2023-03-25T13:10:49Z</time>
      </trkpt>
      <trkpt lat="49.89072" lon="2.35702">
        <ele>46.9</ele>
        <time>2023-03-25T13:10:51Z</time>
      </trkpt>
      <trkpt lat="49.89072" lon="2.35703">
        <ele>46.9</ele>
        <time>2023-03-25T13:10:52Z</time>
      </trkpt>
      <trkpt lat="49.89073" lon="2.35704">
        <ele>46.9</ele>
        <time>2023-03-25T13:10:53Z</time>
      </trkpt>
      <trkpt lat="49.89074" lon="2.35705">
        <ele>46.9</ele>
        <time>2023-03-25T13:10:54Z</time>
      </trkpt>
      <trkpt lat="49.89075" lon="2.35706">
        <ele>46.9</ele>
        <time>2023-03-25T13:10:55Z</time>
      </trkpt>
      <trkpt lat="49.89075" lon="2.35707">
        <ele>46.9</ele>
        <time>2023-03-25T13:10:56Z</time>
      </trkpt>
      <trkpt lat="49.89076" lon="2.35708">
        <ele>46.9</ele>
        <time>2023-03-25T13:10:57Z</time>
      </trkpt>
      <trkpt lat="49.89077" lon="2.35709">
        <ele>47</ele>
        <time>2023-03-25T13:10:59Z</time>
      </trkpt>
      <trkpt lat="49.89078" lon="2.3571">
        <ele>47</ele>
        <time>2023-03-25T13:11:00Z</time>
      </trkpt>
      <trkpt lat="49.8908" lon="2.35713">
        <ele>47</ele>
        <time>2023-03-25T13:11:01Z</time>
      </trkpt>
      <trkpt lat="49.8908" lon="2.35713">
        <ele>47</ele>
        <time>2023-03-25T13:11:02Z</time>
      </trkpt>
      <trkpt lat="49.89081" lon="2.35714">
        <ele>47</ele>
        <time>2023-03-25T13:11:03Z</time>
      </trkpt>
      <trkpt lat="49.89083" lon="2.35716">
        <ele>47.1</ele>
        <time>2023-03-25T13:11:05Z</time>
      </trkpt>
      <trkpt lat="49.89083" lon="2.35717">
        <ele>47.1</ele>
        <time>2023-03-25T13:11:06Z</time>
      </trkpt>
      <trkpt lat="49.89084" lon="2.35717">
        <ele>47.1</ele>
        <time>2023-03-25T13:11:07Z</time>
      </trkpt>
      <trkpt lat="49.89086" lon="2.3572">
        <ele>47.1</ele>
        <time>2023-03-25T13:11:08Z</time>
      </trkpt>
      <trkpt lat="49.89087" lon="2.35721">
        <ele>47.1</ele>
        <time>2023-03-25T13:11:09Z</time>
      </trkpt>
      <trkpt lat="49.89088" lon="2.35722">
        <ele>47.2</ele>
        <time>2023-03-25T13:11:10Z</time>
      </trkpt>
      <trkpt lat="49.89088" lon="2.35723">
        <ele>47.2</ele>
        <time>2023-03-25T13:11:12Z</time>
      </trkpt>
      <trkpt lat="49.89089" lon="2.35724">
        <ele>47.2</ele>
        <time>2023-03-25T13:11:13Z</time>
      </trkpt>
      <trkpt lat="49.8909" lon="2.35725">
        <ele>47.2</ele>
        <time>2023-03-25T13:11:14Z</time>
      </trkpt>
      <trkpt lat="49.89091" lon="2.35726">
        <ele>47.2</ele>
        <time>2023-03-25T13:11:15Z</time>
      </trkpt>
      <trkpt lat="49.89092" lon="2.35727">
        <ele>47.2</ele>
        <time>2023-03-25T13:11:16Z</time>
      </trkpt>
      <trkpt lat="49.89093" lon="2.35728">
        <ele>47.3</ele>
        <time>2023-03-25T13:11:17Z</time>
      </trkpt>
      <trkpt lat="49.89094" lon="2.3573">
        <ele>47.3</ele>
        <time>2023-03-25T13:11:19Z</time>
      </trkpt>
      <trkpt lat="49.89095" lon="2.35731">
        <ele>47.3</ele>
        <time>2023-03-25T13:11:20Z</time>
      </trkpt>
      <trkpt lat="49.89096" lon="2.35731">
        <ele>47.3</ele>
        <time>2023-03-25T13:11:21Z</time>
      </trkpt>
      <trkpt lat="49.89096" lon="2.35732">
        <ele>47.3</ele>
        <time>2023-03-25T13:11:22Z</time>
      </trkpt>
      <trkpt lat="49.89097" lon="2.35733">
        <ele>47.4</ele>
        <time>2023-03-25T13:11:23Z</time>
      </trkpt>
      <trkpt lat="49.89098" lon="2.35734">
        <ele>47.4</ele>
        <time>2023-03-25T13:11:25Z</time>
      </trkpt>
      <trkpt lat="49.89099" lon="2.35735">
        <ele>47.4</ele>
        <time>2023-03-25T13:11:26Z</time>
      </trkpt>
      <trkpt lat="49.891" lon="2.35736">
        <ele>47.4</ele>
        <time>2023-03-25T13:11:27Z</time>
      </trkpt>
      <trkpt lat="49.89101" lon="2.35737">
        <ele>47.4</ele>
        <time>2023-03-25T13:11:28Z</time>
      </trkpt>
      <trkpt lat="49.89102" lon="2.35738">
        <ele>47.4</ele>
        <time>2023-03-25T13:11:29Z</time>
      </trkpt>
      <trkpt lat="49.89104" lon="2.3574">
        <ele>47.5</ele>
        <time>2023-03-25T13:11:30Z</time>
      </trkpt>
      <trkpt lat="49.89104" lon="2.35741">
        <ele>47.5</ele>
        <time>2023-03-25T13:11:32Z</time>
      </trkpt>
      <trkpt lat="49.89105" lon="2.35742">
        <ele>47.5</ele>
        <time>2023-03-25T13:11:33Z</time>
      </trkpt>
      <trkpt lat="49.89106" lon="2.35743">
        <ele>47.5</ele>
        <time>2023-03-25T13:11:34Z</time>
      </trkpt>
      <trkpt lat="49.89108" lon="2.35745">
        <ele>47.6</ele>
        <time>2023-03-25T13:11:35Z</time>
      </trkpt>
      <trkpt lat="49.89109" lon="2.35746">
        <ele>47.6</ele>
        <time>2023-03-25T13:11:36Z</time>
      </trkpt>
      <trkpt lat="49.89109" lon="2.35746">
        <ele>47.6</ele>
        <time>2023-03-25T13:11:37Z</time>
      </trkpt>
      <trkpt lat="49.8911" lon="2.35748">
        <ele>47.6</ele>
        <time>2023-03-25T13:11:39Z</time>
      </trkpt>
      <trkpt lat="49.89111" lon="2.35749">
        <ele>47.6</ele>
        <time>2023-03-25T13:11:40Z</time>
      </trkpt>
      <trkpt lat="49.89112" lon="2.35751">
        <ele>47.7</ele>
        <time>2023-03-25T13:11:41Z</time>
      </trkpt>
      <trkpt lat="49.89113" lon="2.35752">
        <ele>47.7</ele>
        <time>2023-03-25T13:11:42Z</time>
      </trkpt>
      <trkpt lat="49.89113" lon="2.35752">
        <ele>47.7</ele>
        <time>2023-03-25T13:11:43Z</time>
      </trkpt>
      <trkpt lat="49.89114" lon="2.35754">
        <ele>47.7</ele>
        <time>2023-03-25T13:11:44Z</time>
      </trkpt>
      <trkpt lat="49.89115" lon="2.35755">
        <ele>47.7</ele>
        <time>2023-03-25T13:11:45Z</time>
      </trkpt>
      <trkpt lat="49.89115" lon="2.35755">
        <ele>47.7</ele>
        <time>2023-03-25T13:11:46Z</time>
      </trkpt>
      <trkpt lat="49.89116" lon="2.35756">
        <ele>47.7</ele>
        <time>2023-03-25T13:11:47Z</time>
      </trkpt>
      <trkpt lat="49.89117" lon="2.35757">
        <ele>47.8</ele>
        <time>2023-03-25T13:11:49Z</time>
      </trkpt>
      <trkpt lat="49.89118" lon="2.35758">
        <ele>47.8</ele>
        <time>2023-03-25T13:11:50Z</time>
      </trkpt>
      <trkpt lat="49.89119" lon="2.35759">
        <ele>47.8</ele>
        <time>2023-03-25T13:11:51Z</time>
      </trkpt>
      <trkpt lat="49.8912" lon="2.3576">
        <ele>47.8</ele>
        <time>2023-03-25T13:11:52Z</time>
      </trkpt>
      <trkpt lat="49.89121" lon="2.35761">
        <ele>47.8</ele>
        <time>2023-03-25T13:11:53Z</time>
      </trkpt>
      <trkpt lat="49.89122" lon="2.35762">
        <ele>47.9</ele>
        <time>2023-03-25T13:11:55Z</time>
      </trkpt>
      <trkpt lat="49.89123" lon="2.35763">
        <ele>47.9</ele>
        <time>2023-03-25T13:11:56Z</time>
      </trkpt>
      <trkpt lat="49.89124" lon="2.35764">
        <ele>47.9</ele>
        <time>2023-03-25T13:11:57Z</time>
      </trkpt>
      <trkpt lat="49.89125" lon="2.35765">
        <ele>47.9</ele>
        <time>2023-03-25T13:11:58Z</time>
      </trkpt>
      <trkpt lat="49.89125" lon="2.35767">
        <ele>47.9</ele>
        <time>2023-03-25T13:11:59Z</time>
      </trkpt>
      <trkpt lat="49.89126" lon="2.35768">
        <ele>48</ele>
        <time>2023-03-25T13:12:00Z</time>
      </trkpt>
      <trkpt lat="49.89127" lon="2.35769">
        <ele>48</ele>
        <time>2023-03-25T13:12:01Z</time>
      </trkpt>
      <trkpt lat="49.89128" lon="2.35771">
        <ele>48</ele>
        <time>2023-03-25T13:12:03Z</time>
      </trkpt>
      <trkpt lat="49.89128" lon="2.35772">
        <ele>48</ele>
        <time>2023-03-25T13:12:04Z</time>
      </trkpt>
      <trkpt lat="49.89129" lon="2.35773">
        <ele>48.1</ele>
        <time>2023-03-25T13:12:05Z</time>
      </trkpt>
      <trkpt lat="49.8913" lon="2.35775">
        <ele>48.1</ele>
        <time>2023-03-25T13:12:06Z</time>
      </trkpt>
      <trkpt lat="49.8913" lon="2.35776">
        <ele>48.1</ele>
        <time>2023-03-25T13:12:07Z</time>
      </trkpt>
      <trkpt lat="49.89131" lon="2.35777">
        <ele>48.1</ele>
        <time>2023-03-25T13:12:08Z</time>
      </trkpt>
      <trkpt lat="49.89132" lon="2.35778">
        <ele>48.1</ele>
        <time>2023-03-25T13:12:09Z</time>
      </trkpt>
      <trkpt lat="49.89133" lon="2.3578">
        <ele>48.2</ele>
        <time>2023-03-25T13:12:10Z</time>
      </trkpt>
      <trkpt lat="49.89133" lon="2.35781">
        <ele>48.2</ele>
        <time>2023-03-25T13:12:12Z</time>
      </trkpt>
      <trkpt lat="49.89134" lon="2.35783">
        <ele>48.2</ele>
        <time>2023-03-25T13:12:13Z</time>
      </trkpt>
      <trkpt lat="49.89134" lon="2.35785">
        <ele>48.3</ele>
        <time>2023-03-25T13:12:14Z</time>
      </trkpt>
      <trkpt lat="49.89135" lon="2.35786">
        <ele>48.3</ele>
        <time>2023-03-25T13:12:15Z</time>
      </trkpt>
      <trkpt lat="49.89135" lon="2.35788">
        <ele>48.3</ele>
        <time>2023-03-25T13:12:16Z</time>
      </trkpt>
      <trkpt lat="49.89136" lon="2.35789">
        <ele>48.3</ele>
        <time>2023-03-25T13:12:17Z</time>
      </trkpt>
      <trkpt lat="49.89137" lon="2.35792">
        <ele>48.4</ele>
        <time>2023-03-25T13:12:18Z</time>
      </trkpt>
      <trkpt lat="49.89138" lon="2.35793">
        <ele>48.4</ele>
        <time>2023-03-25T13:12:20Z</time>
      </trkpt>
      <trkpt lat="49.89138" lon="2.35794">
        <ele>48.4</ele>
        <time>2023-03-25T13:12:21Z</time>
      </trkpt>
      <trkpt lat="49.89139" lon="2.35795">
        <ele>48.4</ele>
        <time>2023-03-25T13:12:22Z</time>
      </trkpt>
      <trkpt lat="49.8914" lon="2.35796">
        <ele>48.4</ele>
        <time>2023-03-25T13:12:23Z</time>
      </trkpt>
      <trkpt lat="49.8914" lon="2.35798">
        <ele>48.5</ele>
        <time>2023-03-25T13:12:24Z</time>
      </trkpt>
      <trkpt lat="49.89141" lon="2.358">
        <ele>48.5</ele>
        <time>2023-03-25T13:12:25Z</time>
      </trkpt>
      <trkpt lat="49.89142" lon="2.35801">
        <ele>48.5</ele>
        <time>2023-03-25T13:12:27Z</time>
      </trkpt>
      <trkpt lat="49.89142" lon="2.35803">
        <ele>48.5</ele>
        <time>2023-03-25T13:12:28Z</time>
      </trkpt>
      <trkpt lat="49.89143" lon="2.35805">
        <ele>48.6</ele>
        <time>2023-03-25T13:12:29Z</time>
      </trkpt>
      <trkpt lat="49.89144" lon="2.35806">
        <ele>48.6</ele>
        <time>2023-03-25T13:12:30Z</time>
      </trkpt>
      <trkpt lat="49.89144" lon="2.35808">
        <ele>48.6</ele>
        <time>2023-03-25T13:12:31Z</time>
      </trkpt>
      <trkpt lat="49.89145" lon="2.35808">
        <ele>48.6</ele>
        <time>2023-03-25T13:12:33Z</time>
      </trkpt>
      <trkpt lat="49.89145" lon="2.3581">
        <ele>48.6</ele>
        <time>2023-03-25T13:12:34Z</time>
      </trkpt>
      <trkpt lat="49.89146" lon="2.35811">
        <ele>48.7</ele>
        <time>2023-03-25T13:12:35Z</time>
      </trkpt>
      <trkpt lat="49.89147" lon="2.35813">
        <ele>48.7</ele>
        <time>2023-03-25T13:12:36Z</time>
      </trkpt>
      <trkpt lat="49.89148" lon="2.35813">
        <ele>48.7</ele>
        <time>2023-03-25T13:12:37Z</time>
      </trkpt>
      <trkpt lat="49.89149" lon="2.35815">
        <ele>48.7</ele>
        <time>2023-03-25T13:12:38Z</time>
      </trkpt>
      <trkpt lat="49.89149" lon="2.35816">
        <ele>48.8</ele>
        <time>2023-03-25T13:12:39Z</time>
      </trkpt>
      <trkpt lat="49.89151" lon="2.35817">
        <ele>48.8</ele>
        <time>2023-03-25T13:12:41Z</time>
      </trkpt>
      <trkpt lat="49.89151" lon="2.35818">
        <ele>48.8</ele>
        <time>2023-03-25T13:12:42Z</time>
      </trkpt>
      <trkpt lat="49.89152" lon="2.3582">
        <ele>48.8</ele>
        <time>2023-03-25T13:12:43Z</time>
      </trkpt>
      <trkpt lat="49.89153" lon="2.35821">
        <ele>48.9</ele>
        <time>2023-03-25T13:12:44Z</time>
      </trkpt>
      <trkpt lat="49.89154" lon="2.35823">
        <ele>48.9</ele>
        <time>2023-03-25T13:12:45Z</time>
      </trkpt>
      <trkpt lat="49.89154" lon="2.35824">
        <ele>48.9</ele>
        <time>2023-03-25T13:12:46Z</time>
      </trkpt>
      <trkpt lat="49.89155" lon="2.35825">
        <ele>48.9</ele>
        <time>2023-03-25T13:12:47Z</time>
      </trkpt>
      <trkpt lat="49.89156" lon="2.35826">
        <ele>49</ele>
        <time>2023-03-25T13:12:49Z</time>
      </trkpt>
      <trkpt lat="49.89156" lon="2.35828">
        <ele>49</ele>
        <time>2023-03-25T13:12:50Z</time>
      </trkpt>
      <trkpt lat="49.89157" lon="2.35829">
        <ele>49</ele>
        <time>2023-03-25T13:12:51Z</time>
      </trkpt>
      <trkpt lat="49.89158" lon="2.3583">
        <ele>49</ele>
        <time>2023-03-25T13:12:52Z</time>
      </trkpt>
      <trkpt lat="49.89158" lon="2.35831">
        <ele>49</ele>
        <time>2023-03-25T13:12:53Z</time>
      </trkpt>
      <trkpt lat="49.89159" lon="2.35832">
        <ele>49.1</ele>
        <time>2023-03-25T13:12:54Z</time>
      </trkpt>
      <trkpt lat="49.8916" lon="2.35834">
        <ele>49.1</ele>
        <time>2023-03-25T13:12:55Z</time>
      </trkpt>
      <trkpt lat="49.8916" lon="2.35835">
        <ele>49.1</ele>
        <time>2023-03-25T13:12:56Z</time>
      </trkpt>
      <trkpt lat="49.89161" lon="2.35836">
        <ele>49.1</ele>
        <time>2023-03-25T13:12:57Z</time>
      </trkpt>
      <trkpt lat="49.89162" lon="2.35838">
        <ele>49.2</ele>
        <time>2023-03-25T13:12:59Z</time>
      </trkpt>
      <trkpt lat="49.89162" lon="2.35839">
        <ele>49.2</ele>
        <time>2023-03-25T13:13:00Z</time>
      </trkpt>
      <trkpt lat="49.89163" lon="2.35841">
        <ele>49.2</ele>
        <time>2023-03-25T13:13:01Z</time>
      </trkpt>
      <trkpt lat="49.89163" lon="2.35842">
        <ele>49.3</ele>
        <time>2023-03-25T13:13:02Z</time>
      </trkpt>
      <trkpt lat="49.89164" lon="2.35844">
        <ele>49.3</ele>
        <time>2023-03-25T13:13:03Z</time>
      </trkpt>
      <trkpt lat="49.89165" lon="2.35845">
        <ele>49.3</ele>
        <time>2023-03-25T13:13:04Z</time>
      </trkpt>
      <trkpt lat="49.89166" lon="2.35847">
        <ele>49.4</ele>
        <time>2023-03-25T13:13:06Z</time>
      </trkpt>
      <trkpt lat="49.89166" lon="2.35848">
        <ele>49.4</ele>
        <time>2023-03-25T13:13:07Z</time>
      </trkpt>
      <trkpt lat="49.89167" lon="2.35849">
        <ele>49.4</ele>
        <time>2023-03-25T13:13:08Z</time>
      </trkpt>
      <trkpt lat="49.89168" lon="2.35852">
        <ele>49.5</ele>
        <time>2023-03-25T13:13:09Z</time>
      </trkpt>
      <trkpt lat="49.89169" lon="2.35853">
        <ele>49.5</ele>
        <time>2023-03-25T13:13:10Z</time>
      </trkpt>
      <trkpt lat="49.89169" lon="2.35854">
        <ele>49.5</ele>
        <time>2023-03-25T13:13:11Z</time>
      </trkpt>
      <trkpt lat="49.8917" lon="2.35855">
        <ele>49.5</ele>
        <time>2023-03-25T13:13:13Z</time>
      </trkpt>
      <trkpt lat="49.89171" lon="2.35857">
        <ele>49.6</ele>
        <time>2023-03-25T13:13:14Z</time>
      </trkpt>
      <trkpt lat="49.89172" lon="2.3586">
        <ele>49.6</ele>
        <time>2023-03-25T13:13:15Z</time>
      </trkpt>
      <trkpt lat="49.89172" lon="2.35861">
        <ele>49.6</ele>
        <time>2023-03-25T13:13:16Z</time>
      </trkpt>
      <trkpt lat="49.89173" lon="2.35862">
        <ele>49.7</ele>
        <time>2023-03-25T13:13:17Z</time>
      </trkpt>
      <trkpt lat="49.89173" lon="2.35863">
        <ele>49.7</ele>
        <time>2023-03-25T13:13:18Z</time>
      </trkpt>
      <trkpt lat="49.89174" lon="2.35865">
        <ele>49.7</ele>
        <time>2023-03-25T13:13:19Z</time>
      </trkpt>
      <trkpt lat="49.89174" lon="2.35866">
        <ele>49.8</ele>
        <time>2023-03-25T13:13:21Z</time>
      </trkpt>
      <trkpt lat="49.89175" lon="2.35868">
        <ele>49.8</ele>
        <time>2023-03-25T13:13:22Z</time>
      </trkpt>
      <trkpt lat="49.89176" lon="2.35869">
        <ele>49.8</ele>
        <time>2023-03-25T13:13:23Z</time>
      </trkpt>
      <trkpt lat="49.89176" lon="2.3587">
        <ele>49.8</ele>
        <time>2023-03-25T13:13:24Z</time>
      </trkpt>
      <trkpt lat="49.89178" lon="2.35873">
        <ele>49.9</ele>
        <time>2023-03-25T13:13:25Z</time>
      </trkpt>
      <trkpt lat="49.89179" lon="2.35874">
        <ele>49.9</ele>
        <time>2023-03-25T13:13:26Z</time>
      </trkpt>
      <trkpt lat="49.89179" lon="2.35875">
        <ele>49.9</ele>
        <time>2023-03-25T13:13:28Z</time>
      </trkpt>
      <trkpt lat="49.8918" lon="2.35876">
        <ele>50</ele>
        <time>2023-03-25T13:13:29Z</time>
      </trkpt>
      <trkpt lat="49.8918" lon="2.35877">
        <ele>50</ele>
        <time>2023-03-25T13:13:30Z</time>
      </trkpt>
      <trkpt lat="49.89181" lon="2.35878">
        <ele>50</ele>
        <time>2023-03-25T13:13:31Z</time>
      </trkpt>
      <trkpt lat="49.89183" lon="2.35881">
        <ele>50.1</ele>
        <time>2023-03-25T13:13:32Z</time>
      </trkpt>
      <trkpt lat="49.89183" lon="2.35882">
        <ele>50.1</ele>
        <time>2023-03-25T13:13:33Z</time>
      </trkpt>
      <trkpt lat="49.89184" lon="2.35883">
        <ele>50.1</ele>
        <time>2023-03-25T13:13:35Z</time>
      </trkpt>
      <trkpt lat="49.89184" lon="2.35884">
        <ele>50.1</ele>
        <time>2023-03-25T13:13:36Z</time>
      </trkpt>
      <trkpt lat="49.89185" lon="2.35885">
        <ele>50.2</ele>
        <time>2023-03-25T13:13:37Z</time>
      </trkpt>
      <trkpt lat="49.89186" lon="2.35886">
        <ele>50.2</ele>
        <time>2023-03-25T13:13:38Z</time>
      </trkpt>
      <trkpt lat="49.89187" lon="2.35889">
        <ele>50.3</ele>
        <time>2023-03-25T13:13:39Z</time>
      </trkpt>
      <trkpt lat="49.89187" lon="2.35889">
        <ele>50.3</ele>
        <time>2023-03-25T13:13:40Z</time>
      </trkpt>
      <trkpt lat="49.89188" lon="2.3589">
        <ele>50.3</ele>
        <time>2023-03-25T13:13:41Z</time>
      </trkpt>
      <trkpt lat="49.89189" lon="2.35893">
        <ele>50.3</ele>
        <time>2023-03-25T13:13:43Z</time>
      </trkpt>
      <trkpt lat="49.89189" lon="2.35894">
        <ele>50.4</ele>
        <time>2023-03-25T13:13:44Z</time>
      </trkpt>
      <trkpt lat="49.8919" lon="2.35895">
        <ele>50.4</ele>
        <time>2023-03-25T13:13:45Z</time>
      </trkpt>
      <trkpt lat="49.8919" lon="2.35897">
        <ele>50.4</ele>
        <time>2023-03-25T13:13:46Z</time>
      </trkpt>
      <trkpt lat="49.89191" lon="2.35898">
        <ele>50.4</ele>
        <time>2023-03-25T13:13:47Z</time>
      </trkpt>
      <trkpt lat="49.89192" lon="2.359">
        <ele>50.5</ele>
        <time>2023-03-25T13:13:48Z</time>
      </trkpt>
      <trkpt lat="49.89192" lon="2.35901">
        <ele>50.5</ele>
        <time>2023-03-25T13:13:49Z</time>
      </trkpt>
      <trkpt lat="49.89193" lon="2.35903">
        <ele>50.5</ele>
        <time>2023-03-25T13:13:51Z</time>
      </trkpt>
      <trkpt lat="49.89193" lon="2.35904">
        <ele>50.6</ele>
        <time>2023-03-25T13:13:52Z</time>
      </trkpt>
      <trkpt lat="49.89195" lon="2.35907">
        <ele>50.6</ele>
        <time>2023-03-25T13:13:53Z</time>
      </trkpt>
      <trkpt lat="49.89195" lon="2.35908">
        <ele>50.6</ele>
        <time>2023-03-25T13:13:54Z</time>
      </trkpt>
      <trkpt lat="49.89196" lon="2.35909">
        <ele>50.7</ele>
        <time>2023-03-25T13:13:55Z</time>
      </trkpt>
      <trkpt lat="49.89196" lon="2.3591">
        <ele>50.7</ele>
        <time>2023-03-25T13:13:56Z</time>
      </trkpt>
      <trkpt lat="49.89197" lon="2.35911">
        <ele>50.7</ele>
        <time>2023-03-25T13:13:58Z</time>
      </trkpt>
      <trkpt lat="49.89197" lon="2.35913">
        <ele>50.7</ele>
        <time>2023-03-25T13:13:59Z</time>
      </trkpt>
      <trkpt lat="49.89198" lon="2.35915">
        <ele>50.8</ele>
        <time>2023-03-25T13:14:00Z</time>
      </trkpt>
      <trkpt lat="49.89199" lon="2.35916">
        <ele>50.8</ele>
        <time>2023-03-25T13:14:01Z</time>
      </trkpt>
      <trkpt lat="49.892" lon="2.35918">
        <ele>50.8</ele>
        <time>2023-03-25T13:14:02Z</time>
      </trkpt>
      <trkpt lat="49.892" lon="2.35919">
        <ele>50.9</ele>
        <time>2023-03-25T13:14:03Z</time>
      </trkpt>
      <trkpt lat="49.89201" lon="2.3592">
        <ele>50.9</ele>
        <time>2023-03-25T13:14:04Z</time>
      </trkpt>
      <trkpt lat="49.89203" lon="2.35923">
        <ele>51</ele>
        <time>2023-03-25T13:14:06Z</time>
      </trkpt>
      <trkpt lat="49.89203" lon="2.35924">
        <ele>51</ele>
        <time>2023-03-25T13:14:07Z</time>
      </trkpt>
      <trkpt lat="49.89204" lon="2.35925">
        <ele>51</ele>
        <time>2023-03-25T13:14:08Z</time>
      </trkpt>
      <trkpt lat="49.89205" lon="2.35926">
        <ele>51.1</ele>
        <time>2023-03-25T13:14:09Z</time>
      </trkpt>
      <trkpt lat="49.89206" lon="2.35928">
        <ele>51.1</ele>
        <time>2023-03-25T13:14:10Z</time>
      </trkpt>
      <trkpt lat="49.89208" lon="2.3593">
        <ele>51.1</ele>
        <time>2023-03-25T13:14:11Z</time>
      </trkpt>
      <trkpt lat="49.89209" lon="2.35931">
        <ele>51.2</ele>
        <time>2023-03-25T13:14:12Z</time>
      </trkpt>
      <trkpt lat="49.89209" lon="2.35932">
        <ele>51.2</ele>
        <time>2023-03-25T13:14:14Z</time>
      </trkpt>
      <trkpt lat="49.8921" lon="2.35933">
        <ele>51.2</ele>
        <time>2023-03-25T13:14:15Z</time>
      </trkpt>
      <trkpt lat="49.89211" lon="2.35934">
        <ele>51.2</ele>
        <time>2023-03-25T13:14:16Z</time>
      </trkpt>
      <trkpt lat="49.89211" lon="2.35935">
        <ele>51.3</ele>
        <time>2023-03-25T13:14:17Z</time>
      </trkpt>
      <trkpt lat="49.89212" lon="2.35936">
        <ele>51.3</ele>
        <time>2023-03-25T13:14:18Z</time>
      </trkpt>
      <trkpt lat="49.89214" lon="2.35938">
        <ele>51.4</ele>
        <time>2023-03-25T13:14:19Z</time>
      </trkpt>
      <trkpt lat="49.89214" lon="2.35938">
        <ele>51.4</ele>
        <time>2023-03-25T13:14:21Z</time>
      </trkpt>
      <trkpt lat="49.89215" lon="2.35939">
        <ele>51.4</ele>
        <time>2023-03-25T13:14:22Z</time>
      </trkpt>
      <trkpt lat="49.89216" lon="2.3594">
        <ele>51.4</ele>
        <time>2023-03-25T13:14:23Z</time>
      </trkpt>
      <trkpt lat="49.89217" lon="2.35941">
        <ele>51.5</ele>
        <time>2023-03-25T13:14:24Z</time>
      </trkpt>
      <trkpt lat="49.89218" lon="2.35943">
        <ele>51.5</ele>
        <time>2023-03-25T13:14:25Z</time>
      </trkpt>
      <trkpt lat="49.89219" lon="2.35944">
        <ele>51.6</ele>
        <time>2023-03-25T13:14:26Z</time>
      </trkpt>
      <trkpt lat="49.8922" lon="2.35945">
        <ele>51.6</ele>
        <time>2023-03-25T13:14:27Z</time>
      </trkpt>
      <trkpt lat="49.89221" lon="2.35946">
        <ele>51.6</ele>
        <time>2023-03-25T13:14:29Z</time>
      </trkpt>
      <trkpt lat="49.89223" lon="2.35948">
        <ele>51.7</ele>
        <time>2023-03-25T13:14:30Z</time>
      </trkpt>
      <trkpt lat="49.89223" lon="2.35948">
        <ele>51.7</ele>
        <time>2023-03-25T13:14:31Z</time>
      </trkpt>
      <trkpt lat="49.89224" lon="2.35949">
        <ele>51.7</ele>
        <time>2023-03-25T13:14:32Z</time>
      </trkpt>
      <trkpt lat="49.89225" lon="2.35951">
        <ele>51.8</ele>
        <time>2023-03-25T13:14:33Z</time>
      </trkpt>
      <trkpt lat="49.89226" lon="2.35952">
        <ele>51.8</ele>
        <time>2023-03-25T13:14:34Z</time>
      </trkpt>
      <trkpt lat="49.89226" lon="2.35954">
        <ele>51.8</ele>
        <time>2023-03-25T13:14:35Z</time>
      </trkpt>
      <trkpt lat="49.89227" lon="2.35955">
        <ele>51.8</ele>
        <time>2023-03-25T13:14:37Z</time>
      </trkpt>
      <trkpt lat="49.89228" lon="2.35956">
        <ele>51.9</ele>
        <time>2023-03-25T13:14:38Z</time>
      </trkpt>
      <trkpt lat="49.89229" lon="2.35957">
        <ele>51.9</ele>
        <time>2023-03-25T13:14:39Z</time>
      </trkpt>
      <trkpt lat="49.89229" lon="2.35959">
        <ele>52</ele>
        <time>2023-03-25T13:14:40Z</time>
      </trkpt>
      <trkpt lat="49.8923" lon="2.3596">
        <ele>52</ele>
        <time>2023-03-25T13:14:41Z</time>
      </trkpt>
      <trkpt lat="49.89231" lon="2.35963">
        <ele>52</ele>
        <time>2023-03-25T13:14:42Z</time>
      </trkpt>
      <trkpt lat="49.89232" lon="2.35964">
        <ele>52</ele>
        <time>2023-03-25T13:14:43Z</time>
      </trkpt>
      <trkpt lat="49.89232" lon="2.35964">
        <ele>52.1</ele>
        <time>2023-03-25T13:14:44Z</time>
      </trkpt>
      <trkpt lat="49.89234" lon="2.35966">
        <ele>52.1</ele>
        <time>2023-03-25T13:14:46Z</time>
      </trkpt>
      <trkpt lat="49.89234" lon="2.35968">
        <ele>52.1</ele>
        <time>2023-03-25T13:14:47Z</time>
      </trkpt>
      <trkpt lat="49.89235" lon="2.35969">
        <ele>52.1</ele>
        <time>2023-03-25T13:14:48Z</time>
      </trkpt>
      <trkpt lat="49.89237" lon="2.35971">
        <ele>52.2</ele>
        <time>2023-03-25T13:14:50Z</time>
      </trkpt>
      <trkpt lat="49.89238" lon="2.35972">
        <ele>52.2</ele>
        <time>2023-03-25T13:14:51Z</time>
      </trkpt>
      <trkpt lat="49.89238" lon="2.35973">
        <ele>52.2</ele>
        <time>2023-03-25T13:14:52Z</time>
      </trkpt>
      <trkpt lat="49.89239" lon="2.35974">
        <ele>52.3</ele>
        <time>2023-03-25T13:14:53Z</time>
      </trkpt>
      <trkpt lat="49.89241" lon="2.35976">
        <ele>52.3</ele>
        <time>2023-03-25T13:14:54Z</time>
      </trkpt>
      <trkpt lat="49.89241" lon="2.35977">
        <ele>52.3</ele>
        <time>2023-03-25T13:14:55Z</time>
      </trkpt>
      <trkpt lat="49.89242" lon="2.35978">
        <ele>52.4</ele>
        <time>2023-03-25T13:14:56Z</time>
      </trkpt>
      <trkpt lat="49.89243" lon="2.3598">
        <ele>52.4</ele>
        <time>2023-03-25T13:14:57Z</time>
      </trkpt>
      <trkpt lat="49.89244" lon="2.35981">
        <ele>52.4</ele>
        <time>2023-03-25T13:14:59Z</time>
      </trkpt>
      <trkpt lat="49.89245" lon="2.35983">
        <ele>52.5</ele>
        <time>2023-03-25T13:15:00Z</time>
      </trkpt>
      <trkpt lat="49.89246" lon="2.35984">
        <ele>52.5</ele>
        <time>2023-03-25T13:15:01Z</time>
      </trkpt>
      <trkpt lat="49.89247" lon="2.35984">
        <ele>52.5</ele>
        <time>2023-03-25T13:15:02Z</time>
      </trkpt>
      <trkpt lat="49.89248" lon="2.35985">
        <ele>52.5</ele>
        <time>2023-03-25T13:15:03Z</time>
      </trkpt>
      <trkpt lat="49.89249" lon="2.35988">
        <ele>52.6</ele>
        <time>2023-03-25T13:15:04Z</time>
      </trkpt>
      <trkpt lat="49.8925" lon="2.35988">
        <ele>52.6</ele>
        <time>2023-03-25T13:15:05Z</time>
      </trkpt>
      <trkpt lat="49.8925" lon="2.35989">
        <ele>52.6</ele>
        <time>2023-03-25T13:15:06Z</time>
      </trkpt>
      <trkpt lat="49.89252" lon="2.3599">
        <ele>52.6</ele>
        <time>2023-03-25T13:15:08Z</time>
      </trkpt>
      <trkpt lat="49.89253" lon="2.35992">
        <ele>52.6</ele>
        <time>2023-03-25T13:15:09Z</time>
      </trkpt>
      <trkpt lat="49.89254" lon="2.35993">
        <ele>52.7</ele>
        <time>2023-03-25T13:15:10Z</time>
      </trkpt>
      <trkpt lat="49.89254" lon="2.35994">
        <ele>52.7</ele>
        <time>2023-03-25T13:15:11Z</time>
      </trkpt>
      <trkpt lat="49.89255" lon="2.35995">
        <ele>52.7</ele>
        <time>2023-03-25T13:15:12Z</time>
      </trkpt>
      <trkpt lat="49.89256" lon="2.35997">
        <ele>52.7</ele>
        <time>2023-03-25T13:15:13Z</time>
      </trkpt>
      <trkpt lat="49.89257" lon="2.35999">
        <ele>52.8</ele>
        <time>2023-03-25T13:15:14Z</time>
      </trkpt>
      <trkpt lat="49.89258" lon="2.36">
        <ele>52.8</ele>
        <time>2023-03-25T13:15:15Z</time>
      </trkpt>
      <trkpt lat="49.89259" lon="2.36001">
        <ele>52.8</ele>
        <time>2023-03-25T13:15:17Z</time>
      </trkpt>
      <trkpt lat="49.8926" lon="2.36004">
        <ele>52.8</ele>
        <time>2023-03-25T13:15:18Z</time>
      </trkpt>
      <trkpt lat="49.8926" lon="2.36005">
        <ele>52.8</ele>
        <time>2023-03-25T13:15:19Z</time>
      </trkpt>
      <trkpt lat="49.89261" lon="2.36006">
        <ele>52.9</ele>
        <time>2023-03-25T13:15:20Z</time>
      </trkpt>
      <trkpt lat="49.89262" lon="2.36008">
        <ele>52.9</ele>
        <time>2023-03-25T13:15:21Z</time>
      </trkpt>
      <trkpt lat="49.89263" lon="2.36009">
        <ele>52.9</ele>
        <time>2023-03-25T13:15:23Z</time>
      </trkpt>
      <trkpt lat="49.89264" lon="2.3601">
        <ele>52.9</ele>
        <time>2023-03-25T13:15:24Z</time>
      </trkpt>
      <trkpt lat="49.89265" lon="2.36012">
        <ele>53</ele>
        <time>2023-03-25T13:15:25Z</time>
      </trkpt>
      <trkpt lat="49.89266" lon="2.36014">
        <ele>53</ele>
        <time>2023-03-25T13:15:26Z</time>
      </trkpt>
      <trkpt lat="49.89266" lon="2.36015">
        <ele>53</ele>
        <time>2023-03-25T13:15:27Z</time>
      </trkpt>
      <trkpt lat="49.89267" lon="2.36017">
        <ele>53</ele>
        <time>2023-03-25T13:15:28Z</time>
      </trkpt>
      <trkpt lat="49.8927" lon="2.3602">
        <ele>53.1</ele>
        <time>2023-03-25T13:15:29Z</time>
      </trkpt>
      <trkpt lat="49.89271" lon="2.36021">
        <ele>53.1</ele>
        <time>2023-03-25T13:15:30Z</time>
      </trkpt>
      <trkpt lat="49.89271" lon="2.36022">
        <ele>53.1</ele>
        <time>2023-03-25T13:15:32Z</time>
      </trkpt>
      <trkpt lat="49.89272" lon="2.36022">
        <ele>53.1</ele>
        <time>2023-03-25T13:15:33Z</time>
      </trkpt>
      <trkpt lat="49.89273" lon="2.36023">
        <ele>53.1</ele>
        <time>2023-03-25T13:15:34Z</time>
      </trkpt>
      <trkpt lat="49.89273" lon="2.36024">
        <ele>53.1</ele>
        <time>2023-03-25T13:15:35Z</time>
      </trkpt>
      <trkpt lat="49.89275" lon="2.36026">
        <ele>53.1</ele>
        <time>2023-03-25T13:15:36Z</time>
      </trkpt>
      <trkpt lat="49.89276" lon="2.36027">
        <ele>53.2</ele>
        <time>2023-03-25T13:15:37Z</time>
      </trkpt>
      <trkpt lat="49.89276" lon="2.36027">
        <ele>53.2</ele>
        <time>2023-03-25T13:15:38Z</time>
      </trkpt>
      <trkpt lat="49.89277" lon="2.36028">
        <ele>53.2</ele>
        <time>2023-03-25T13:15:39Z</time>
      </trkpt>
      <trkpt lat="49.89278" lon="2.36029">
        <ele>53.2</ele>
        <time>2023-03-25T13:15:41Z</time>
      </trkpt>
      <trkpt lat="49.89279" lon="2.3603">
        <ele>53.2</ele>
        <time>2023-03-25T13:15:42Z</time>
      </trkpt>
      <trkpt lat="49.89281" lon="2.36032">
        <ele>53.3</ele>
        <time>2023-03-25T13:15:43Z</time>
      </trkpt>
      <trkpt lat="49.89282" lon="2.36033">
        <ele>53.3</ele>
        <time>2023-03-25T13:15:44Z</time>
      </trkpt>
      <trkpt lat="49.89283" lon="2.36034">
        <ele>53.3</ele>
        <time>2023-03-25T13:15:45Z</time>
      </trkpt>
      <trkpt lat="49.89283" lon="2.36034">
        <ele>53.3</ele>
        <time>2023-03-25T13:15:46Z</time>
      </trkpt>
      <trkpt lat="49.89284" lon="2.36035">
        <ele>53.3</ele>
        <time>2023-03-25T13:15:48Z</time>
      </trkpt>
      <trkpt lat="49.89285" lon="2.36037">
        <ele>53.3</ele>
        <time>2023-03-25T13:15:49Z</time>
      </trkpt>
      <trkpt lat="49.89287" lon="2.3604">
        <ele>53.4</ele>
        <time>2023-03-25T13:15:50Z</time>
      </trkpt>
      <trkpt lat="49.89287" lon="2.3604">
        <ele>53.4</ele>
        <time>2023-03-25T13:15:51Z</time>
      </trkpt>
      <trkpt lat="49.89287" lon="2.36041">
        <ele>53.4</ele>
        <time>2023-03-25T13:15:52Z</time>
      </trkpt>
      <trkpt lat="49.89288" lon="2.36042">
        <ele>53.4</ele>
        <time>2023-03-25T13:15:53Z</time>
      </trkpt>
      <trkpt lat="49.89289" lon="2.36043">
        <ele>53.4</ele>
        <time>2023-03-25T13:15:54Z</time>
      </trkpt>
      <trkpt lat="49.8929" lon="2.36045">
        <ele>53.4</ele>
        <time>2023-03-25T13:15:56Z</time>
      </trkpt>
      <trkpt lat="49.89291" lon="2.36046">
        <ele>53.4</ele>
        <time>2023-03-25T13:15:57Z</time>
      </trkpt>
      <trkpt lat="49.89292" lon="2.36047">
        <ele>53.4</ele>
        <time>2023-03-25T13:15:58Z</time>
      </trkpt>
      <trkpt lat="49.89292" lon="2.36048">
        <ele>53.5</ele>
        <time>2023-03-25T13:15:59Z</time>
      </trkpt>
      <trkpt lat="49.89293" lon="2.36049">
        <ele>53.5</ele>
        <time>2023-03-25T13:16:00Z</time>
      </trkpt>
      <trkpt lat="49.89293" lon="2.3605">
        <ele>53.5</ele>
        <time>2023-03-25T13:16:01Z</time>
      </trkpt>
      <trkpt lat="49.89294" lon="2.36053">
        <ele>53.5</ele>
        <time>2023-03-25T13:16:03Z</time>
      </trkpt>
      <trkpt lat="49.89293" lon="2.36054">
        <ele>53.5</ele>
        <time>2023-03-25T13:16:04Z</time>
      </trkpt>
      <trkpt lat="49.89293" lon="2.36054">
        <ele>53.5</ele>
        <time>2023-03-25T13:16:06Z</time>
      </trkpt>
      <trkpt lat="49.89293" lon="2.36054">
        <ele>53.5</ele>
        <time>2023-03-25T13:16:07Z</time>
      </trkpt>
      <trkpt lat="49.89293" lon="2.36053">
        <ele>53.5</ele>
        <time>2023-03-25T13:16:08Z</time>
      </trkpt>
      <trkpt lat="49.89293" lon="2.36053">
        <ele>53.5</ele>
        <time>2023-03-25T13:16:10Z</time>
      </trkpt>
      <trkpt lat="49.89293" lon="2.36053">
        <ele>53.5</ele>
        <time>2023-03-25T13:16:11Z</time>
      </trkpt>
      <trkpt lat="49.89293" lon="2.36053">
        <ele>53.5</ele>
        <time>2023-03-25T13:16:13Z</time>
      </trkpt>
      <trkpt lat="49.89293" lon="2.36053">
        <ele>53.5</ele>
        <time>2023-03-25T13:16:14Z</time>
      </trkpt>
      <trkpt lat="49.89295" lon="2.36053">
        <ele>53.4</ele>
        <time>2023-03-25T13:16:15Z</time>
      </trkpt>
      <trkpt lat="49.89296" lon="2.36052">
        <ele>53.4</ele>
        <time>2023-03-25T13:16:16Z</time>
      </trkpt>
      <trkpt lat="49.89296" lon="2.36052">
        <ele>53.4</ele>
        <time>2023-03-25T13:16:17Z</time>
      </trkpt>
      <trkpt lat="49.89297" lon="2.36051">
        <ele>53.4</ele>
        <time>2023-03-25T13:16:18Z</time>
      </trkpt>
      <trkpt lat="49.89298" lon="2.3605">
        <ele>53.3</ele>
        <time>2023-03-25T13:16:19Z</time>
      </trkpt>
      <trkpt lat="49.893" lon="2.36047">
        <ele>53.3</ele>
        <time>2023-03-25T13:16:21Z</time>
      </trkpt>
      <trkpt lat="49.89301" lon="2.36044">
        <ele>53.2</ele>
        <time>2023-03-25T13:16:22Z</time>
      </trkpt>
      <trkpt lat="49.89302" lon="2.36042">
        <ele>53.2</ele>
        <time>2023-03-25T13:16:23Z</time>
      </trkpt>
      <trkpt lat="49.89304" lon="2.36038">
        <ele>53</ele>
        <time>2023-03-25T13:16:24Z</time>
      </trkpt>
      <trkpt lat="49.89305" lon="2.36036">
        <ele>53</ele>
        <time>2023-03-25T13:16:25Z</time>
      </trkpt>
      <trkpt lat="49.89306" lon="2.36033">
        <ele>52.9</ele>
        <time>2023-03-25T13:16:26Z</time>
      </trkpt>
      <trkpt lat="49.89307" lon="2.36032">
        <ele>52.9</ele>
        <time>2023-03-25T13:16:28Z</time>
      </trkpt>
      <trkpt lat="49.89308" lon="2.36031">
        <ele>52.8</ele>
        <time>2023-03-25T13:16:29Z</time>
      </trkpt>
      <trkpt lat="49.8931" lon="2.36028">
        <ele>52.8</ele>
        <time>2023-03-25T13:16:30Z</time>
      </trkpt>
      <trkpt lat="49.89311" lon="2.36025">
        <ele>52.7</ele>
        <time>2023-03-25T13:16:31Z</time>
      </trkpt>
      <trkpt lat="49.89311" lon="2.36024">
        <ele>52.7</ele>
        <time>2023-03-25T13:16:32Z</time>
      </trkpt>
      <trkpt lat="49.89312" lon="2.36023">
        <ele>52.6</ele>
        <time>2023-03-25T13:16:33Z</time>
      </trkpt>
      <trkpt lat="49.89314" lon="2.36019">
        <ele>52.5</ele>
        <time>2023-03-25T13:16:34Z</time>
      </trkpt>
      <trkpt lat="49.89314" lon="2.36018">
        <ele>52.5</ele>
        <time>2023-03-25T13:16:35Z</time>
      </trkpt>
      <trkpt lat="49.89315" lon="2.36015">
        <ele>52.4</ele>
        <time>2023-03-25T13:16:36Z</time>
      </trkpt>
      <trkpt lat="49.89316" lon="2.36014">
        <ele>52.4</ele>
        <time>2023-03-25T13:16:38Z</time>
      </trkpt>
      <trkpt lat="49.89317" lon="2.36013">
        <ele>52.4</ele>
        <time>2023-03-25T13:16:39Z</time>
      </trkpt>
      <trkpt lat="49.89318" lon="2.3601">
        <ele>52.3</ele>
        <time>2023-03-25T13:16:40Z</time>
      </trkpt>
      <trkpt lat="49.89319" lon="2.36009">
        <ele>52.3</ele>
        <time>2023-03-25T13:16:41Z</time>
      </trkpt>
      <trkpt lat="49.89319" lon="2.36008">
        <ele>52.3</ele>
        <time>2023-03-25T13:16:42Z</time>
      </trkpt>
      <trkpt lat="49.8932" lon="2.36007">
        <ele>52.2</ele>
        <time>2023-03-25T13:16:43Z</time>
      </trkpt>
      <trkpt lat="49.89321" lon="2.36005">
        <ele>52.1</ele>
        <time>2023-03-25T13:16:44Z</time>
      </trkpt>
      <trkpt lat="49.89322" lon="2.36002">
        <ele>52.1</ele>
        <time>2023-03-25T13:16:45Z</time>
      </trkpt>
      <trkpt lat="49.89323" lon="2.36001">
        <ele>52</ele>
        <time>2023-03-25T13:16:47Z</time>
      </trkpt>
      <trkpt lat="49.89323" lon="2.36">
        <ele>52</ele>
        <time>2023-03-25T13:16:48Z</time>
      </trkpt>
      <trkpt lat="49.89324" lon="2.35998">
        <ele>51.9</ele>
        <time>2023-03-25T13:16:49Z</time>
      </trkpt>
      <trkpt lat="49.89324" lon="2.35997">
        <ele>51.9</ele>
        <time>2023-03-25T13:16:50Z</time>
      </trkpt>
      <trkpt lat="49.89326" lon="2.35995">
        <ele>51.8</ele>
        <time>2023-03-25T13:16:51Z</time>
      </trkpt>
      <trkpt lat="49.89326" lon="2.35993">
        <ele>51.7</ele>
        <time>2023-03-25T13:16:52Z</time>
      </trkpt>
      <trkpt lat="49.89327" lon="2.35992">
        <ele>51.7</ele>
        <time>2023-03-25T13:16:53Z</time>
      </trkpt>
      <trkpt lat="49.89328" lon="2.35991">
        <ele>51.6</ele>
        <time>2023-03-25T13:16:54Z</time>
      </trkpt>
      <trkpt lat="49.89329" lon="2.35989">
        <ele>51.6</ele>
        <time>2023-03-25T13:16:56Z</time>
      </trkpt>
      <trkpt lat="49.8933" lon="2.35988">
        <ele>51.5</ele>
        <time>2023-03-25T13:16:57Z</time>
      </trkpt>
      <trkpt lat="49.8933" lon="2.35987">
        <ele>51.5</ele>
        <time>2023-03-25T13:16:58Z</time>
      </trkpt>
      <trkpt lat="49.89331" lon="2.35985">
        <ele>51.4</ele>
        <time>2023-03-25T13:16:59Z</time>
      </trkpt>
      <trkpt lat="49.89332" lon="2.35984">
        <ele>51.4</ele>
        <time>2023-03-25T13:17:00Z</time>
      </trkpt>
      <trkpt lat="49.89332" lon="2.35983">
        <ele>51.3</ele>
        <time>2023-03-25T13:17:01Z</time>
      </trkpt>
      <trkpt lat="49.89333" lon="2.35981">
        <ele>51.3</ele>
        <time>2023-03-25T13:17:02Z</time>
      </trkpt>
      <trkpt lat="49.89334" lon="2.3598">
        <ele>51.3</ele>
        <time>2023-03-25T13:17:03Z</time>
      </trkpt>
      <trkpt lat="49.89335" lon="2.35978">
        <ele>51.2</ele>
        <time>2023-03-25T13:17:04Z</time>
      </trkpt>
      <trkpt lat="49.89336" lon="2.35976">
        <ele>51.2</ele>
        <time>2023-03-25T13:17:06Z</time>
      </trkpt>
      <trkpt lat="49.89336" lon="2.35975">
        <ele>51.1</ele>
        <time>2023-03-25T13:17:07Z</time>
      </trkpt>
      <trkpt lat="49.89337" lon="2.35974">
        <ele>51.1</ele>
        <time>2023-03-25T13:17:08Z</time>
      </trkpt>
      <trkpt lat="49.89338" lon="2.35973">
        <ele>51.1</ele>
        <time>2023-03-25T13:17:09Z</time>
      </trkpt>
      <trkpt lat="49.89339" lon="2.35972">
        <ele>51</ele>
        <time>2023-03-25T13:17:10Z</time>
      </trkpt>
      <trkpt lat="49.89339" lon="2.3597">
        <ele>51</ele>
        <time>2023-03-25T13:17:11Z</time>
      </trkpt>
      <trkpt lat="49.8934" lon="2.35969">
        <ele>51</ele>
        <time>2023-03-25T13:17:12Z</time>
      </trkpt>
      <trkpt lat="49.89342" lon="2.35967">
        <ele>50.9</ele>
        <time>2023-03-25T13:17:14Z</time>
      </trkpt>
      <trkpt lat="49.89342" lon="2.35966">
        <ele>50.9</ele>
        <time>2023-03-25T13:17:15Z</time>
      </trkpt>
      <trkpt lat="49.89343" lon="2.35964">
        <ele>50.9</ele>
        <time>2023-03-25T13:17:16Z</time>
      </trkpt>
      <trkpt lat="49.89343" lon="2.35963">
        <ele>50.9</ele>
        <time>2023-03-25T13:17:17Z</time>
      </trkpt>
      <trkpt lat="49.89344" lon="2.35962">
        <ele>50.9</ele>
        <time>2023-03-25T13:17:18Z</time>
      </trkpt>
      <trkpt lat="49.89344" lon="2.35961">
        <ele>50.8</ele>
        <time>2023-03-25T13:17:19Z</time>
      </trkpt>
      <trkpt lat="49.89346" lon="2.35958">
        <ele>50.8</ele>
        <time>2023-03-25T13:17:20Z</time>
      </trkpt>
      <trkpt lat="49.89346" lon="2.35957">
        <ele>50.8</ele>
        <time>2023-03-25T13:17:21Z</time>
      </trkpt>
      <trkpt lat="49.89347" lon="2.35956">
        <ele>50.8</ele>
        <time>2023-03-25T13:17:22Z</time>
      </trkpt>
      <trkpt lat="49.89347" lon="2.35954">
        <ele>50.7</ele>
        <time>2023-03-25T13:17:23Z</time>
      </trkpt>
      <trkpt lat="49.89348" lon="2.35953">
        <ele>50.7</ele>
        <time>2023-03-25T13:17:25Z</time>
      </trkpt>
      <trkpt lat="49.89349" lon="2.35949">
        <ele>50.7</ele>
        <time>2023-03-25T13:17:26Z</time>
      </trkpt>
      <trkpt lat="49.8935" lon="2.35949">
        <ele>50.7</ele>
        <time>2023-03-25T13:17:27Z</time>
      </trkpt>
      <trkpt lat="49.8935" lon="2.35948">
        <ele>50.7</ele>
        <time>2023-03-25T13:17:28Z</time>
      </trkpt>
      <trkpt lat="49.89351" lon="2.35945">
        <ele>50.6</ele>
        <time>2023-03-25T13:17:29Z</time>
      </trkpt>
      <trkpt lat="49.89351" lon="2.35944">
        <ele>50.6</ele>
        <time>2023-03-25T13:17:30Z</time>
      </trkpt>
      <trkpt lat="49.89351" lon="2.35942">
        <ele>50.6</ele>
        <time>2023-03-25T13:17:31Z</time>
      </trkpt>
      <trkpt lat="49.89352" lon="2.3594">
        <ele>50.6</ele>
        <time>2023-03-25T13:17:32Z</time>
      </trkpt>
      <trkpt lat="49.89353" lon="2.35939">
        <ele>50.6</ele>
        <time>2023-03-25T13:17:33Z</time>
      </trkpt>
      <trkpt lat="49.89353" lon="2.35937">
        <ele>50.5</ele>
        <time>2023-03-25T13:17:34Z</time>
      </trkpt>
      <trkpt lat="49.89354" lon="2.35935">
        <ele>50.5</ele>
        <time>2023-03-25T13:17:36Z</time>
      </trkpt>
      <trkpt lat="49.89355" lon="2.35934">
        <ele>50.5</ele>
        <time>2023-03-25T13:17:37Z</time>
      </trkpt>
      <trkpt lat="49.89355" lon="2.35931">
        <ele>50.5</ele>
        <time>2023-03-25T13:17:38Z</time>
      </trkpt>
      <trkpt lat="49.89356" lon="2.3593">
        <ele>50.5</ele>
        <time>2023-03-25T13:17:39Z</time>
      </trkpt>
      <trkpt lat="49.89356" lon="2.35929">
        <ele>50.5</ele>
        <time>2023-03-25T13:17:40Z</time>
      </trkpt>
      <trkpt lat="49.89357" lon="2.35927">
        <ele>50.4</ele>
        <time>2023-03-25T13:17:41Z</time>
      </trkpt>
      <trkpt lat="49.89357" lon="2.35926">
        <ele>50.4</ele>
        <time>2023-03-25T13:17:42Z</time>
      </trkpt>
      <trkpt lat="49.89357" lon="2.35924">
        <ele>50.4</ele>
        <time>2023-03-25T13:17:43Z</time>
      </trkpt>
      <trkpt lat="49.89358" lon="2.35921">
        <ele>50.4</ele>
        <time>2023-03-25T13:17:44Z</time>
      </trkpt>
      <trkpt lat="49.89358" lon="2.35919">
        <ele>50.4</ele>
        <time>2023-03-25T13:17:46Z</time>
      </trkpt>
      <trkpt lat="49.89358" lon="2.35918">
        <ele>50.4</ele>
        <time>2023-03-25T13:17:47Z</time>
      </trkpt>
      <trkpt lat="49.89359" lon="2.35915">
        <ele>50.3</ele>
        <time>2023-03-25T13:17:48Z</time>
      </trkpt>
      <trkpt lat="49.8936" lon="2.35914">
        <ele>50.3</ele>
        <time>2023-03-25T13:17:49Z</time>
      </trkpt>
      <trkpt lat="49.8936" lon="2.35913">
        <ele>50.3</ele>
        <time>2023-03-25T13:17:50Z</time>
      </trkpt>
      <trkpt lat="49.89361" lon="2.35912">
        <ele>50.3</ele>
        <time>2023-03-25T13:17:51Z</time>
      </trkpt>
      <trkpt lat="49.89362" lon="2.3591">
        <ele>50.3</ele>
        <time>2023-03-25T13:17:52Z</time>
      </trkpt>
      <trkpt lat="49.89363" lon="2.35909">
        <ele>50.3</ele>
        <time>2023-03-25T13:17:54Z</time>
      </trkpt>
      <trkpt lat="49.89364" lon="2.35908">
        <ele>50.3</ele>
        <time>2023-03-25T13:17:55Z</time>
      </trkpt>
      <trkpt lat="49.89365" lon="2.35906">
        <ele>50.3</ele>
        <time>2023-03-25T13:17:56Z</time>
      </trkpt>
      <trkpt lat="49.89366" lon="2.35905">
        <ele>50.3</ele>
        <time>2023-03-25T13:17:57Z</time>
      </trkpt>
      <trkpt lat="49.89367" lon="2.35904">
        <ele>50.3</ele>
        <time>2023-03-25T13:17:58Z</time>
      </trkpt>
      <trkpt lat="49.89367" lon="2.35903">
        <ele>50.3</ele>
        <time>2023-03-25T13:17:59Z</time>
      </trkpt>
      <trkpt lat="49.89368" lon="2.35903">
        <ele>50.3</ele>
        <time>2023-03-25T13:18:00Z</time>
      </trkpt>
      <trkpt lat="49.89369" lon="2.35901">
        <ele>50.3</ele>
        <time>2023-03-25T13:18:02Z</time>
      </trkpt>
      <trkpt lat="49.89369" lon="2.359">
        <ele>50.3</ele>
        <time>2023-03-25T13:18:03Z</time>
      </trkpt>
      <trkpt lat="49.8937" lon="2.35898">
        <ele>50.3</ele>
        <time>2023-03-25T13:18:04Z</time>
      </trkpt>
      <trkpt lat="49.89371" lon="2.35897">
        <ele>50.3</ele>
        <time>2023-03-25T13:18:05Z</time>
      </trkpt>
      <trkpt lat="49.89372" lon="2.35895">
        <ele>50.3</ele>
        <time>2023-03-25T13:18:06Z</time>
      </trkpt>
      <trkpt lat="49.89373" lon="2.35892">
        <ele>50.3</ele>
        <time>2023-03-25T13:18:07Z</time>
      </trkpt>
      <trkpt lat="49.89373" lon="2.35891">
        <ele>50.3</ele>
        <time>2023-03-25T13:18:08Z</time>
      </trkpt>
      <trkpt lat="49.89374" lon="2.35889">
        <ele>50.3</ele>
        <time>2023-03-25T13:18:10Z</time>
      </trkpt>
      <trkpt lat="49.89374" lon="2.35887">
        <ele>50.3</ele>
        <time>2023-03-25T13:18:11Z</time>
      </trkpt>
      <trkpt lat="49.89375" lon="2.35886">
        <ele>50.3</ele>
        <time>2023-03-25T13:18:12Z</time>
      </trkpt>
      <trkpt lat="49.89375" lon="2.35884">
        <ele>50.3</ele>
        <time>2023-03-25T13:18:13Z</time>
      </trkpt>
      <trkpt lat="49.89375" lon="2.35883">
        <ele>50.3</ele>
        <time>2023-03-25T13:18:14Z</time>
      </trkpt>
      <trkpt lat="49.89376" lon="2.35881">
        <ele>50.3</ele>
        <time>2023-03-25T13:18:15Z</time>
      </trkpt>
      <trkpt lat="49.89376" lon="2.3588">
        <ele>50.2</ele>
        <time>2023-03-25T13:18:16Z</time>
      </trkpt>
      <trkpt lat="49.89377" lon="2.35878">
        <ele>50.2</ele>
        <time>2023-03-25T13:18:17Z</time>
      </trkpt>
      <trkpt lat="49.89377" lon="2.35876">
        <ele>50.2</ele>
        <time>2023-03-25T13:18:18Z</time>
      </trkpt>
      <trkpt lat="49.89378" lon="2.35875">
        <ele>50.2</ele>
        <time>2023-03-25T13:18:19Z</time>
      </trkpt>
      <trkpt lat="49.89378" lon="2.35873">
        <ele>50.2</ele>
        <time>2023-03-25T13:18:21Z</time>
      </trkpt>
      <trkpt lat="49.89379" lon="2.35871">
        <ele>50.2</ele>
        <time>2023-03-25T13:18:22Z</time>
      </trkpt>
      <trkpt lat="49.8938" lon="2.35869">
        <ele>50.2</ele>
        <time>2023-03-25T13:18:23Z</time>
      </trkpt>
      <trkpt lat="49.8938" lon="2.35868">
        <ele>50.2</ele>
        <time>2023-03-25T13:18:24Z</time>
      </trkpt>
      <trkpt lat="49.89381" lon="2.35867">
        <ele>50.2</ele>
        <time>2023-03-25T13:18:25Z</time>
      </trkpt>
      <trkpt lat="49.89382" lon="2.35865">
        <ele>50.2</ele>
        <time>2023-03-25T13:18:26Z</time>
      </trkpt>
      <trkpt lat="49.89383" lon="2.35863">
        <ele>50.1</ele>
        <time>2023-03-25T13:18:27Z</time>
      </trkpt>
      <trkpt lat="49.89383" lon="2.35862">
        <ele>50.1</ele>
        <time>2023-03-25T13:18:28Z</time>
      </trkpt>
      <trkpt lat="49.89384" lon="2.35861">
        <ele>50.1</ele>
        <time>2023-03-25T13:18:29Z</time>
      </trkpt>
      <trkpt lat="49.89385" lon="2.35858">
        <ele>50.1</ele>
        <time>2023-03-25T13:18:31Z</time>
      </trkpt>
      <trkpt lat="49.89385" lon="2.35857">
        <ele>50.1</ele>
        <time>2023-03-25T13:18:32Z</time>
      </trkpt>
      <trkpt lat="49.89385" lon="2.35856">
        <ele>50.1</ele>
        <time>2023-03-25T13:18:33Z</time>
      </trkpt>
      <trkpt lat="49.89386" lon="2.35854">
        <ele>50.1</ele>
        <time>2023-03-25T13:18:34Z</time>
      </trkpt>
      <trkpt lat="49.89387" lon="2.35853">
        <ele>50.1</ele>
        <time>2023-03-25T13:18:35Z</time>
      </trkpt>
      <trkpt lat="49.89387" lon="2.35851">
        <ele>50.1</ele>
        <time>2023-03-25T13:18:36Z</time>
      </trkpt>
      <trkpt lat="49.89388" lon="2.3585">
        <ele>50.1</ele>
        <time>2023-03-25T13:18:37Z</time>
      </trkpt>
      <trkpt lat="49.89388" lon="2.35848">
        <ele>50</ele>
        <time>2023-03-25T13:18:38Z</time>
      </trkpt>
      <trkpt lat="49.89389" lon="2.35846">
        <ele>50</ele>
        <time>2023-03-25T13:18:40Z</time>
      </trkpt>
      <trkpt lat="49.89389" lon="2.35845">
        <ele>50</ele>
        <time>2023-03-25T13:18:41Z</time>
      </trkpt>
      <trkpt lat="49.89389" lon="2.35843">
        <ele>50</ele>
        <time>2023-03-25T13:18:42Z</time>
      </trkpt>
      <trkpt lat="49.89389" lon="2.35842">
        <ele>50</ele>
        <time>2023-03-25T13:18:43Z</time>
      </trkpt>
      <trkpt lat="49.89389" lon="2.35841">
        <ele>50</ele>
        <time>2023-03-25T13:18:44Z</time>
      </trkpt>
      <trkpt lat="49.8939" lon="2.35839">
        <ele>50</ele>
        <time>2023-03-25T13:18:45Z</time>
      </trkpt>
      <trkpt lat="49.8939" lon="2.35837">
        <ele>50</ele>
        <time>2023-03-25T13:18:46Z</time>
      </trkpt>
      <trkpt lat="49.89391" lon="2.35835">
        <ele>50</ele>
        <time>2023-03-25T13:18:48Z</time>
      </trkpt>
      <trkpt lat="49.89392" lon="2.35834">
        <ele>50</ele>
        <time>2023-03-25T13:18:49Z</time>
      </trkpt>
      <trkpt lat="49.89393" lon="2.35831">
        <ele>50</ele>
        <time>2023-03-25T13:18:50Z</time>
      </trkpt>
      <trkpt lat="49.89393" lon="2.3583">
        <ele>50</ele>
        <time>2023-03-25T13:18:51Z</time>
      </trkpt>
      <trkpt lat="49.89394" lon="2.35829">
        <ele>50</ele>
        <time>2023-03-25T13:18:52Z</time>
      </trkpt>
      <trkpt lat="49.89395" lon="2.35828">
        <ele>50</ele>
        <time>2023-03-25T13:18:53Z</time>
      </trkpt>
      <trkpt lat="49.89396" lon="2.35827">
        <ele>50</ele>
        <time>2023-03-25T13:18:54Z</time>
      </trkpt>
      <trkpt lat="49.89396" lon="2.35825">
        <ele>50</ele>
        <time>2023-03-25T13:18:56Z</time>
      </trkpt>
      <trkpt lat="49.89397" lon="2.35823">
        <ele>50</ele>
        <time>2023-03-25T13:18:57Z</time>
      </trkpt>
      <trkpt lat="49.89398" lon="2.35821">
        <ele>50</ele>
        <time>2023-03-25T13:18:58Z</time>
      </trkpt>
      <trkpt lat="49.89398" lon="2.3582">
        <ele>50</ele>
        <time>2023-03-25T13:18:59Z</time>
      </trkpt>
      <trkpt lat="49.89399" lon="2.35818">
        <ele>50</ele>
        <time>2023-03-25T13:19:00Z</time>
      </trkpt>
      <trkpt lat="49.89399" lon="2.35817">
        <ele>50</ele>
        <time>2023-03-25T13:19:01Z</time>
      </trkpt>
      <trkpt lat="49.89401" lon="2.35814">
        <ele>50</ele>
        <time>2023-03-25T13:19:02Z</time>
      </trkpt>
      <trkpt lat="49.89401" lon="2.35813">
        <ele>50</ele>
        <time>2023-03-25T13:19:04Z</time>
      </trkpt>
      <trkpt lat="49.89402" lon="2.35812">
        <ele>50</ele>
        <time>2023-03-25T13:19:05Z</time>
      </trkpt>
      <trkpt lat="49.89403" lon="2.35809">
        <ele>50</ele>
        <time>2023-03-25T13:19:06Z</time>
      </trkpt>
      <trkpt lat="49.89403" lon="2.35808">
        <ele>50</ele>
        <time>2023-03-25T13:19:07Z</time>
      </trkpt>
      <trkpt lat="49.89404" lon="2.35806">
        <ele>50</ele>
        <time>2023-03-25T13:19:08Z</time>
      </trkpt>
      <trkpt lat="49.89404" lon="2.35805">
        <ele>50</ele>
        <time>2023-03-25T13:19:09Z</time>
      </trkpt>
      <trkpt lat="49.89405" lon="2.35803">
        <ele>50</ele>
        <time>2023-03-25T13:19:10Z</time>
      </trkpt>
      <trkpt lat="49.89405" lon="2.35801">
        <ele>50</ele>
        <time>2023-03-25T13:19:12Z</time>
      </trkpt>
      <trkpt lat="49.89406" lon="2.35798">
        <ele>50</ele>
        <time>2023-03-25T13:19:13Z</time>
      </trkpt>
      <trkpt lat="49.89406" lon="2.35797">
        <ele>50</ele>
        <time>2023-03-25T13:19:14Z</time>
      </trkpt>
      <trkpt lat="49.89407" lon="2.35796">
        <ele>50</ele>
        <time>2023-03-25T13:19:15Z</time>
      </trkpt>
      <trkpt lat="49.89408" lon="2.35794">
        <ele>50</ele>
        <time>2023-03-25T13:19:16Z</time>
      </trkpt>
      <trkpt lat="49.89408" lon="2.35792">
        <ele>50</ele>
        <time>2023-03-25T13:19:17Z</time>
      </trkpt>
      <trkpt lat="49.89408" lon="2.35791">
        <ele>50</ele>
        <time>2023-03-25T13:19:18Z</time>
      </trkpt>
      <trkpt lat="49.89409" lon="2.3579">
        <ele>50</ele>
        <time>2023-03-25T13:19:20Z</time>
      </trkpt>
      <trkpt lat="49.89409" lon="2.35789">
        <ele>50</ele>
        <time>2023-03-25T13:19:21Z</time>
      </trkpt>
      <trkpt lat="49.8941" lon="2.35786">
        <ele>50</ele>
        <time>2023-03-25T13:19:22Z</time>
      </trkpt>
      <trkpt lat="49.8941" lon="2.35784">
        <ele>50</ele>
        <time>2023-03-25T13:19:23Z</time>
      </trkpt>
      <trkpt lat="49.8941" lon="2.35784">
        <ele>50</ele>
        <time>2023-03-25T13:19:24Z</time>
      </trkpt>
      <trkpt lat="49.89411" lon="2.35782">
        <ele>50</ele>
        <time>2023-03-25T13:19:25Z</time>
      </trkpt>
      <trkpt lat="49.89412" lon="2.35779">
        <ele>50</ele>
        <time>2023-03-25T13:19:26Z</time>
      </trkpt>
      <trkpt lat="49.89412" lon="2.35778">
        <ele>50</ele>
        <time>2023-03-25T13:19:27Z</time>
      </trkpt>
      <trkpt lat="49.89413" lon="2.35777">
        <ele>50</ele>
        <time>2023-03-25T13:19:28Z</time>
      </trkpt>
      <trkpt lat="49.89414" lon="2.35774">
        <ele>50</ele>
        <time>2023-03-25T13:19:30Z</time>
      </trkpt>
      <trkpt lat="49.89414" lon="2.35772">
        <ele>50</ele>
        <time>2023-03-25T13:19:31Z</time>
      </trkpt>
      <trkpt lat="49.89415" lon="2.35768">
        <ele>50</ele>
        <time>2023-03-25T13:19:32Z</time>
      </trkpt>
      <trkpt lat="49.89416" lon="2.35766">
        <ele>49.9</ele>
        <time>2023-03-25T13:19:33Z</time>
      </trkpt>
      <trkpt lat="49.89416" lon="2.35766">
        <ele>49.9</ele>
        <time>2023-03-25T13:19:34Z</time>
      </trkpt>
      <trkpt lat="49.89416" lon="2.35765">
        <ele>49.9</ele>
        <time>2023-03-25T13:19:35Z</time>
      </trkpt>
      <trkpt lat="49.89417" lon="2.35762">
        <ele>49.9</ele>
        <time>2023-03-25T13:19:37Z</time>
      </trkpt>
      <trkpt lat="49.89418" lon="2.3576">
        <ele>49.9</ele>
        <time>2023-03-25T13:19:38Z</time>
      </trkpt>
      <trkpt lat="49.89418" lon="2.35759">
        <ele>49.9</ele>
        <time>2023-03-25T13:19:39Z</time>
      </trkpt>
      <trkpt lat="49.89419" lon="2.35756">
        <ele>49.9</ele>
        <time>2023-03-25T13:19:41Z</time>
      </trkpt>
      <trkpt lat="49.89419" lon="2.35754">
        <ele>49.9</ele>
        <time>2023-03-25T13:19:42Z</time>
      </trkpt>
      <trkpt lat="49.89421" lon="2.35751">
        <ele>49.9</ele>
        <time>2023-03-25T13:19:43Z</time>
      </trkpt>
      <trkpt lat="49.89421" lon="2.3575">
        <ele>49.9</ele>
        <time>2023-03-25T13:19:44Z</time>
      </trkpt>
      <trkpt lat="49.89421" lon="2.35748">
        <ele>49.9</ele>
        <time>2023-03-25T13:19:45Z</time>
      </trkpt>
      <trkpt lat="49.89422" lon="2.35746">
        <ele>49.9</ele>
        <time>2023-03-25T13:19:46Z</time>
      </trkpt>
      <trkpt lat="49.89422" lon="2.35745">
        <ele>49.9</ele>
        <time>2023-03-25T13:19:47Z</time>
      </trkpt>
      <trkpt lat="49.89423" lon="2.35743">
        <ele>49.8</ele>
        <time>2023-03-25T13:19:48Z</time>
      </trkpt>
      <trkpt lat="49.89423" lon="2.35742">
        <ele>49.8</ele>
        <time>2023-03-25T13:19:50Z</time>
      </trkpt>
      <trkpt lat="49.89423" lon="2.3574">
        <ele>49.8</ele>
        <time>2023-03-25T13:19:51Z</time>
      </trkpt>
      <trkpt lat="49.89424" lon="2.35737">
        <ele>49.8</ele>
        <time>2023-03-25T13:19:52Z</time>
      </trkpt>
      <trkpt lat="49.89425" lon="2.35735">
        <ele>49.8</ele>
        <time>2023-03-25T13:19:53Z</time>
      </trkpt>
      <trkpt lat="49.89425" lon="2.35733">
        <ele>49.8</ele>
        <time>2023-03-25T13:19:54Z</time>
      </trkpt>
      <trkpt lat="49.89426" lon="2.35731">
        <ele>49.8</ele>
        <time>2023-03-25T13:19:56Z</time>
      </trkpt>
      <trkpt lat="49.89426" lon="2.35729">
        <ele>49.8</ele>
        <time>2023-03-25T13:19:57Z</time>
      </trkpt>
      <trkpt lat="49.89427" lon="2.35727">
        <ele>49.9</ele>
        <time>2023-03-25T13:19:58Z</time>
      </trkpt>
      <trkpt lat="49.89427" lon="2.35725">
        <ele>49.9</ele>
        <time>2023-03-25T13:19:59Z</time>
      </trkpt>
      <trkpt lat="49.89428" lon="2.35724">
        <ele>49.9</ele>
        <time>2023-03-25T13:20:00Z</time>
      </trkpt>
      <trkpt lat="49.89428" lon="2.35722">
        <ele>49.9</ele>
        <time>2023-03-25T13:20:01Z</time>
      </trkpt>
      <trkpt lat="49.89428" lon="2.3572">
        <ele>49.9</ele>
        <time>2023-03-25T13:20:02Z</time>
      </trkpt>
      <trkpt lat="49.89429" lon="2.35718">
        <ele>49.9</ele>
        <time>2023-03-25T13:20:04Z</time>
      </trkpt>
      <trkpt lat="49.89429" lon="2.35716">
        <ele>49.9</ele>
        <time>2023-03-25T13:20:05Z</time>
      </trkpt>
      <trkpt lat="49.8943" lon="2.35713">
        <ele>49.9</ele>
        <time>2023-03-25T13:20:06Z</time>
      </trkpt>
      <trkpt lat="49.89431" lon="2.35709">
        <ele>49.9</ele>
        <time>2023-03-25T13:20:07Z</time>
      </trkpt>
      <trkpt lat="49.89431" lon="2.35708">
        <ele>49.9</ele>
        <time>2023-03-25T13:20:08Z</time>
      </trkpt>
      <trkpt lat="49.89432" lon="2.35705">
        <ele>50</ele>
        <time>2023-03-25T13:20:09Z</time>
      </trkpt>
      <trkpt lat="49.89433" lon="2.35704">
        <ele>50</ele>
        <time>2023-03-25T13:20:11Z</time>
      </trkpt>
      <trkpt lat="49.89433" lon="2.35703">
        <ele>50</ele>
        <time>2023-03-25T13:20:12Z</time>
      </trkpt>
      <trkpt lat="49.89434" lon="2.35699">
        <ele>50</ele>
        <time>2023-03-25T13:20:13Z</time>
      </trkpt>
      <trkpt lat="49.89435" lon="2.35699">
        <ele>50</ele>
        <time>2023-03-25T13:20:14Z</time>
      </trkpt>
      <trkpt lat="49.89435" lon="2.35698">
        <ele>50</ele>
        <time>2023-03-25T13:20:15Z</time>
      </trkpt>
      <trkpt lat="49.89436" lon="2.35697">
        <ele>50</ele>
        <time>2023-03-25T13:20:16Z</time>
      </trkpt>
      <trkpt lat="49.89436" lon="2.35696">
        <ele>50</ele>
        <time>2023-03-25T13:20:17Z</time>
      </trkpt>
      <trkpt lat="49.89436" lon="2.35694">
        <ele>50</ele>
        <time>2023-03-25T13:20:19Z</time>
      </trkpt>
      <trkpt lat="49.89437" lon="2.35692">
        <ele>50.1</ele>
        <time>2023-03-25T13:20:20Z</time>
      </trkpt>
      <trkpt lat="49.89438" lon="2.35691">
        <ele>50.1</ele>
        <time>2023-03-25T13:20:21Z</time>
      </trkpt>
      <trkpt lat="49.89438" lon="2.3569">
        <ele>50.1</ele>
        <time>2023-03-25T13:20:22Z</time>
      </trkpt>
      <trkpt lat="49.8944" lon="2.35687">
        <ele>50.1</ele>
        <time>2023-03-25T13:20:23Z</time>
      </trkpt>
      <trkpt lat="49.8944" lon="2.35687">
        <ele>50.1</ele>
        <time>2023-03-25T13:20:24Z</time>
      </trkpt>
      <trkpt lat="49.8944" lon="2.35685">
        <ele>50.1</ele>
        <time>2023-03-25T13:20:25Z</time>
      </trkpt>
      <trkpt lat="49.89442" lon="2.35682">
        <ele>50.1</ele>
        <time>2023-03-25T13:20:27Z</time>
      </trkpt>
      <trkpt lat="49.89442" lon="2.35681">
        <ele>50.1</ele>
        <time>2023-03-25T13:20:28Z</time>
      </trkpt>
      <trkpt lat="49.89443" lon="2.3568">
        <ele>50.1</ele>
        <time>2023-03-25T13:20:29Z</time>
      </trkpt>
      <trkpt lat="49.89444" lon="2.35677">
        <ele>50.1</ele>
        <time>2023-03-25T13:20:30Z</time>
      </trkpt>
      <trkpt lat="49.89444" lon="2.35676">
        <ele>50.2</ele>
        <time>2023-03-25T13:20:31Z</time>
      </trkpt>
      <trkpt lat="49.89445" lon="2.35674">
        <ele>50.2</ele>
        <time>2023-03-25T13:20:32Z</time>
      </trkpt>
      <trkpt lat="49.89445" lon="2.35672">
        <ele>50.2</ele>
        <time>2023-03-25T13:20:34Z</time>
      </trkpt>
      <trkpt lat="49.89446" lon="2.3567">
        <ele>50.2</ele>
        <time>2023-03-25T13:20:35Z</time>
      </trkpt>
      <trkpt lat="49.89447" lon="2.35668">
        <ele>50.2</ele>
        <time>2023-03-25T13:20:36Z</time>
      </trkpt>
      <trkpt lat="49.89447" lon="2.35666">
        <ele>50.2</ele>
        <time>2023-03-25T13:20:37Z</time>
      </trkpt>
      <trkpt lat="49.89448" lon="2.35664">
        <ele>50.2</ele>
        <time>2023-03-25T13:20:38Z</time>
      </trkpt>
      <trkpt lat="49.89449" lon="2.35662">
        <ele>50.1</ele>
        <time>2023-03-25T13:20:39Z</time>
      </trkpt>
      <trkpt lat="49.89449" lon="2.35661">
        <ele>50.1</ele>
        <time>2023-03-25T13:20:40Z</time>
      </trkpt>
      <trkpt lat="49.8945" lon="2.35659">
        <ele>50.1</ele>
        <time>2023-03-25T13:20:41Z</time>
      </trkpt>
      <trkpt lat="49.8945" lon="2.35657">
        <ele>50.1</ele>
        <time>2023-03-25T13:20:42Z</time>
      </trkpt>
      <trkpt lat="49.89451" lon="2.35655">
        <ele>50.1</ele>
        <time>2023-03-25T13:20:44Z</time>
      </trkpt>
      <trkpt lat="49.89451" lon="2.35653">
        <ele>50.1</ele>
        <time>2023-03-25T13:20:45Z</time>
      </trkpt>
      <trkpt lat="49.89452" lon="2.35651">
        <ele>50.1</ele>
        <time>2023-03-25T13:20:46Z</time>
      </trkpt>
      <trkpt lat="49.89452" lon="2.35648">
        <ele>50.1</ele>
        <time>2023-03-25T13:20:47Z</time>
      </trkpt>
      <trkpt lat="49.89453" lon="2.35646">
        <ele>50.1</ele>
        <time>2023-03-25T13:20:48Z</time>
      </trkpt>
      <trkpt lat="49.89453" lon="2.35644">
        <ele>50.1</ele>
        <time>2023-03-25T13:20:49Z</time>
      </trkpt>
      <trkpt lat="49.89454" lon="2.35642">
        <ele>50.1</ele>
        <time>2023-03-25T13:20:50Z</time>
      </trkpt>
      <trkpt lat="49.89454" lon="2.3564">
        <ele>50.1</ele>
        <time>2023-03-25T13:20:51Z</time>
      </trkpt>
      <trkpt lat="49.89455" lon="2.35637">
        <ele>50.1</ele>
        <time>2023-03-25T13:20:53Z</time>
      </trkpt>
      <trkpt lat="49.89456" lon="2.35635">
        <ele>50.1</ele>
        <time>2023-03-25T13:20:54Z</time>
      </trkpt>
      <trkpt lat="49.89457" lon="2.35632">
        <ele>50.1</ele>
        <time>2023-03-25T13:20:55Z</time>
      </trkpt>
      <trkpt lat="49.89458" lon="2.35631">
        <ele>50.1</ele>
        <time>2023-03-25T13:20:56Z</time>
      </trkpt>
      <trkpt lat="49.89458" lon="2.35629">
        <ele>50.1</ele>
        <time>2023-03-25T13:20:57Z</time>
      </trkpt>
      <trkpt lat="49.89459" lon="2.35627">
        <ele>50.1</ele>
        <time>2023-03-25T13:20:58Z</time>
      </trkpt>
      <trkpt lat="49.89459" lon="2.35624">
        <ele>50.1</ele>
        <time>2023-03-25T13:20:59Z</time>
      </trkpt>
      <trkpt lat="49.8946" lon="2.35622">
        <ele>50.1</ele>
        <time>2023-03-25T13:21:00Z</time>
      </trkpt>
      <trkpt lat="49.8946" lon="2.3562">
        <ele>50.1</ele>
        <time>2023-03-25T13:21:01Z</time>
      </trkpt>
      <trkpt lat="49.8946" lon="2.35618">
        <ele>50.1</ele>
        <time>2023-03-25T13:21:02Z</time>
      </trkpt>
      <trkpt lat="49.89462" lon="2.35614">
        <ele>50.1</ele>
        <time>2023-03-25T13:21:03Z</time>
      </trkpt>
      <trkpt lat="49.89462" lon="2.35614">
        <ele>50.1</ele>
        <time>2023-03-25T13:21:04Z</time>
      </trkpt>
      <trkpt lat="49.89463" lon="2.35613">
        <ele>50.1</ele>
        <time>2023-03-25T13:21:05Z</time>
      </trkpt>
      <trkpt lat="49.89463" lon="2.35611">
        <ele>50.1</ele>
        <time>2023-03-25T13:21:06Z</time>
      </trkpt>
      <trkpt lat="49.89463" lon="2.3561">
        <ele>50.1</ele>
        <time>2023-03-25T13:21:08Z</time>
      </trkpt>
      <trkpt lat="49.89466" lon="2.35607">
        <ele>50.1</ele>
        <time>2023-03-25T13:21:09Z</time>
      </trkpt>
      <trkpt lat="49.89466" lon="2.35606">
        <ele>50.1</ele>
        <time>2023-03-25T13:21:10Z</time>
      </trkpt>
      <trkpt lat="49.89466" lon="2.35604">
        <ele>50.1</ele>
        <time>2023-03-25T13:21:11Z</time>
      </trkpt>
      <trkpt lat="49.89467" lon="2.35602">
        <ele>50.1</ele>
        <time>2023-03-25T13:21:12Z</time>
      </trkpt>
      <trkpt lat="49.89467" lon="2.35601">
        <ele>50.1</ele>
        <time>2023-03-25T13:21:13Z</time>
      </trkpt>
      <trkpt lat="49.89468" lon="2.35599">
        <ele>50.1</ele>
        <time>2023-03-25T13:21:14Z</time>
      </trkpt>
      <trkpt lat="49.89469" lon="2.35596">
        <ele>50.1</ele>
        <time>2023-03-25T13:21:15Z</time>
      </trkpt>
      <trkpt lat="49.89469" lon="2.35595">
        <ele>50.1</ele>
        <time>2023-03-25T13:21:16Z</time>
      </trkpt>
      <trkpt lat="49.8947" lon="2.35593">
        <ele>50.1</ele>
        <time>2023-03-25T13:21:18Z</time>
      </trkpt>
      <trkpt lat="49.8947" lon="2.35592">
        <ele>50.1</ele>
        <time>2023-03-25T13:21:19Z</time>
      </trkpt>
      <trkpt lat="49.8947" lon="2.35591">
        <ele>50.1</ele>
        <time>2023-03-25T13:21:20Z</time>
      </trkpt>
      <trkpt lat="49.89471" lon="2.35589">
        <ele>50.1</ele>
        <time>2023-03-25T13:21:21Z</time>
      </trkpt>
      <trkpt lat="49.89471" lon="2.35588">
        <ele>50.1</ele>
        <time>2023-03-25T13:21:22Z</time>
      </trkpt>
      <trkpt lat="49.89472" lon="2.35586">
        <ele>50.2</ele>
        <time>2023-03-25T13:21:23Z</time>
      </trkpt>
      <trkpt lat="49.89473" lon="2.35587">
        <ele>50.2</ele>
        <time>2023-03-25T13:21:24Z</time>
      </trkpt>
      <trkpt lat="49.89473" lon="2.35586">
        <ele>50.2</ele>
        <time>2023-03-25T13:21:25Z</time>
      </trkpt>
      <trkpt lat="49.89474" lon="2.35583">
        <ele>50.2</ele>
        <time>2023-03-25T13:21:27Z</time>
      </trkpt>
      <trkpt lat="49.89474" lon="2.35582">
        <ele>50.2</ele>
        <time>2023-03-25T13:21:28Z</time>
      </trkpt>
      <trkpt lat="49.89475" lon="2.35581">
        <ele>50.2</ele>
        <time>2023-03-25T13:21:29Z</time>
      </trkpt>
      <trkpt lat="49.89475" lon="2.3558">
        <ele>50.2</ele>
        <time>2023-03-25T13:21:30Z</time>
      </trkpt>
      <trkpt lat="49.89476" lon="2.35579">
        <ele>50.2</ele>
        <time>2023-03-25T13:21:31Z</time>
      </trkpt>
      <trkpt lat="49.89476" lon="2.35577">
        <ele>50.2</ele>
        <time>2023-03-25T13:21:32Z</time>
      </trkpt>
      <trkpt lat="49.89478" lon="2.35574">
        <ele>50.1</ele>
        <time>2023-03-25T13:21:33Z</time>
      </trkpt>
      <trkpt lat="49.89479" lon="2.35572">
        <ele>50.1</ele>
        <time>2023-03-25T13:21:34Z</time>
      </trkpt>
      <trkpt lat="49.89481" lon="2.35569">
        <ele>50</ele>
        <time>2023-03-25T13:21:35Z</time>
      </trkpt>
      <trkpt lat="49.89482" lon="2.35568">
        <ele>50</ele>
        <time>2023-03-25T13:21:37Z</time>
      </trkpt>
      <trkpt lat="49.89483" lon="2.35566">
        <ele>50</ele>
        <time>2023-03-25T13:21:38Z</time>
      </trkpt>
      <trkpt lat="49.89484" lon="2.35564">
        <ele>49.9</ele>
        <time>2023-03-25T13:21:39Z</time>
      </trkpt>
      <trkpt lat="49.89484" lon="2.35561">
        <ele>49.9</ele>
        <time>2023-03-25T13:21:40Z</time>
      </trkpt>
      <trkpt lat="49.89484" lon="2.3556">
        <ele>49.9</ele>
        <time>2023-03-25T13:21:41Z</time>
      </trkpt>
      <trkpt lat="49.89484" lon="2.35558">
        <ele>49.9</ele>
        <time>2023-03-25T13:21:42Z</time>
      </trkpt>
      <trkpt lat="49.89484" lon="2.35554">
        <ele>49.8</ele>
        <time>2023-03-25T13:21:44Z</time>
      </trkpt>
      <trkpt lat="49.89484" lon="2.35553">
        <ele>49.8</ele>
        <time>2023-03-25T13:21:45Z</time>
      </trkpt>
      <trkpt lat="49.89484" lon="2.35553">
        <ele>49.8</ele>
        <time>2023-03-25T13:21:46Z</time>
      </trkpt>
      <trkpt lat="49.89484" lon="2.35551">
        <ele>49.7</ele>
        <time>2023-03-25T13:21:47Z</time>
      </trkpt>
      <trkpt lat="49.89484" lon="2.35549">
        <ele>49.7</ele>
        <time>2023-03-25T13:21:48Z</time>
      </trkpt>
      <trkpt lat="49.89485" lon="2.35548">
        <ele>49.7</ele>
        <time>2023-03-25T13:21:49Z</time>
      </trkpt>
      <trkpt lat="49.89485" lon="2.35545">
        <ele>49.6</ele>
        <time>2023-03-25T13:21:50Z</time>
      </trkpt>
      <trkpt lat="49.89485" lon="2.35544">
        <ele>49.6</ele>
        <time>2023-03-25T13:21:52Z</time>
      </trkpt>
      <trkpt lat="49.89485" lon="2.35542">
        <ele>49.5</ele>
        <time>2023-03-25T13:21:53Z</time>
      </trkpt>
      <trkpt lat="49.89486" lon="2.35541">
        <ele>49.5</ele>
        <time>2023-03-25T13:21:54Z</time>
      </trkpt>
      <trkpt lat="49.89487" lon="2.35541">
        <ele>49.5</ele>
        <time>2023-03-25T13:21:55Z</time>
      </trkpt>
      <trkpt lat="49.89487" lon="2.35539">
        <ele>49.5</ele>
        <time>2023-03-25T13:21:56Z</time>
      </trkpt>
      <trkpt lat="49.89488" lon="2.35536">
        <ele>49.4</ele>
        <time>2023-03-25T13:21:57Z</time>
      </trkpt>
      <trkpt lat="49.89489" lon="2.35535">
        <ele>49.3</ele>
        <time>2023-03-25T13:21:58Z</time>
      </trkpt>
      <trkpt lat="49.89489" lon="2.35534">
        <ele>49.3</ele>
        <time>2023-03-25T13:21:59Z</time>
      </trkpt>
      <trkpt lat="49.89489" lon="2.35533">
        <ele>49.3</ele>
        <time>2023-03-25T13:22:01Z</time>
      </trkpt>
      <trkpt lat="49.89489" lon="2.35532">
        <ele>49.3</ele>
        <time>2023-03-25T13:22:02Z</time>
      </trkpt>
      <trkpt lat="49.89489" lon="2.35531">
        <ele>49.3</ele>
        <time>2023-03-25T13:22:03Z</time>
      </trkpt>
      <trkpt lat="49.89489" lon="2.3553">
        <ele>49.2</ele>
        <time>2023-03-25T13:22:04Z</time>
      </trkpt>
      <trkpt lat="49.89489" lon="2.35529">
        <ele>49.2</ele>
        <time>2023-03-25T13:22:05Z</time>
      </trkpt>
      <trkpt lat="49.8949" lon="2.35525">
        <ele>49.1</ele>
        <time>2023-03-25T13:22:06Z</time>
      </trkpt>
      <trkpt lat="49.8949" lon="2.35524">
        <ele>49.1</ele>
        <time>2023-03-25T13:22:08Z</time>
      </trkpt>
      <trkpt lat="49.89491" lon="2.35522">
        <ele>49</ele>
        <time>2023-03-25T13:22:09Z</time>
      </trkpt>
      <trkpt lat="49.89491" lon="2.35521">
        <ele>49</ele>
        <time>2023-03-25T13:22:10Z</time>
      </trkpt>
      <trkpt lat="49.89491" lon="2.3552">
        <ele>49</ele>
        <time>2023-03-25T13:22:11Z</time>
      </trkpt>
      <trkpt lat="49.89491" lon="2.35519">
        <ele>48.9</ele>
        <time>2023-03-25T13:22:12Z</time>
      </trkpt>
      <trkpt lat="49.89491" lon="2.35517">
        <ele>48.9</ele>
        <time>2023-03-25T13:22:13Z</time>
      </trkpt>
      <trkpt lat="49.89491" lon="2.35516">
        <ele>48.9</ele>
        <time>2023-03-25T13:22:14Z</time>
      </trkpt>
      <trkpt lat="49.89491" lon="2.35515">
        <ele>48.8</ele>
        <time>2023-03-25T13:22:16Z</time>
      </trkpt>
      <trkpt lat="49.89491" lon="2.35514">
        <ele>48.8</ele>
        <time>2023-03-25T13:22:17Z</time>
      </trkpt>
      <trkpt lat="49.89491" lon="2.35513">
        <ele>48.8</ele>
        <time>2023-03-25T13:22:18Z</time>
      </trkpt>
      <trkpt lat="49.89492" lon="2.35514">
        <ele>48.8</ele>
        <time>2023-03-25T13:22:20Z</time>
      </trkpt>
      <trkpt lat="49.89492" lon="2.35514">
        <ele>48.8</ele>
        <time>2023-03-25T13:22:21Z</time>
      </trkpt>
      <trkpt lat="49.89492" lon="2.35514">
        <ele>48.8</ele>
        <time>2023-03-25T13:22:22Z</time>
      </trkpt>
      <trkpt lat="49.89492" lon="2.35514">
        <ele>48.8</ele>
        <time>2023-03-25T13:22:24Z</time>
      </trkpt>
      <trkpt lat="49.89492" lon="2.35513">
        <ele>48.8</ele>
        <time>2023-03-25T13:22:25Z</time>
      </trkpt>
      <trkpt lat="49.89493" lon="2.35511">
        <ele>48.7</ele>
        <time>2023-03-25T13:22:26Z</time>
      </trkpt>
      <trkpt lat="49.89493" lon="2.35509">
        <ele>48.7</ele>
        <time>2023-03-25T13:22:27Z</time>
      </trkpt>
      <trkpt lat="49.89493" lon="2.35508">
        <ele>48.6</ele>
        <time>2023-03-25T13:22:28Z</time>
      </trkpt>
      <trkpt lat="49.89494" lon="2.35507">
        <ele>48.6</ele>
        <time>2023-03-25T13:22:29Z</time>
      </trkpt>
      <trkpt lat="49.89494" lon="2.35506">
        <ele>48.6</ele>
        <time>2023-03-25T13:22:30Z</time>
      </trkpt>
      <trkpt lat="49.89494" lon="2.35504">
        <ele>48.5</ele>
        <time>2023-03-25T13:22:31Z</time>
      </trkpt>
      <trkpt lat="49.89495" lon="2.35502">
        <ele>48.5</ele>
        <time>2023-03-25T13:22:33Z</time>
      </trkpt>
      <trkpt lat="49.89495" lon="2.355">
        <ele>48.5</ele>
        <time>2023-03-25T13:22:34Z</time>
      </trkpt>
      <trkpt lat="49.89495" lon="2.35498">
        <ele>48.4</ele>
        <time>2023-03-25T13:22:35Z</time>
      </trkpt>
      <trkpt lat="49.89496" lon="2.35495">
        <ele>48.4</ele>
        <time>2023-03-25T13:22:36Z</time>
      </trkpt>
      <trkpt lat="49.89496" lon="2.35494">
        <ele>48.4</ele>
        <time>2023-03-25T13:22:37Z</time>
      </trkpt>
      <trkpt lat="49.89497" lon="2.35492">
        <ele>48.5</ele>
        <time>2023-03-25T13:22:38Z</time>
      </trkpt>
      <trkpt lat="49.89498" lon="2.35489">
        <ele>48.5</ele>
        <time>2023-03-25T13:22:40Z</time>
      </trkpt>
      <trkpt lat="49.89498" lon="2.35487">
        <ele>48.5</ele>
        <time>2023-03-25T13:22:41Z</time>
      </trkpt>
      <trkpt lat="49.89498" lon="2.35485">
        <ele>48.5</ele>
        <time>2023-03-25T13:22:42Z</time>
      </trkpt>
      <trkpt lat="49.89498" lon="2.35483">
        <ele>48.5</ele>
        <time>2023-03-25T13:22:43Z</time>
      </trkpt>
      <trkpt lat="49.89498" lon="2.35481">
        <ele>48.6</ele>
        <time>2023-03-25T13:22:44Z</time>
      </trkpt>
      <trkpt lat="49.89499" lon="2.3548">
        <ele>48.6</ele>
        <time>2023-03-25T13:22:45Z</time>
      </trkpt>
      <trkpt lat="49.89499" lon="2.35478">
        <ele>48.6</ele>
        <time>2023-03-25T13:22:47Z</time>
      </trkpt>
      <trkpt lat="49.895" lon="2.35475">
        <ele>48.6</ele>
        <time>2023-03-25T13:22:48Z</time>
      </trkpt>
      <trkpt lat="49.89501" lon="2.35474">
        <ele>48.6</ele>
        <time>2023-03-25T13:22:49Z</time>
      </trkpt>
      <trkpt lat="49.89501" lon="2.35473">
        <ele>48.6</ele>
        <time>2023-03-25T13:22:50Z</time>
      </trkpt>
      <trkpt lat="49.89502" lon="2.35472">
        <ele>48.6</ele>
        <time>2023-03-25T13:22:51Z</time>
      </trkpt>
      <trkpt lat="49.89502" lon="2.3547">
        <ele>48.6</ele>
        <time>2023-03-25T13:22:52Z</time>
      </trkpt>
      <trkpt lat="49.89503" lon="2.35469">
        <ele>48.7</ele>
        <time>2023-03-25T13:22:53Z</time>
      </trkpt>
      <trkpt lat="49.89504" lon="2.35467">
        <ele>48.7</ele>
        <time>2023-03-25T13:22:55Z</time>
      </trkpt>
      <trkpt lat="49.89505" lon="2.35465">
        <ele>48.7</ele>
        <time>2023-03-25T13:22:56Z</time>
      </trkpt>
      <trkpt lat="49.89506" lon="2.35464">
        <ele>48.7</ele>
        <time>2023-03-25T13:22:57Z</time>
      </trkpt>
      <trkpt lat="49.89506" lon="2.35463">
        <ele>48.7</ele>
        <time>2023-03-25T13:22:58Z</time>
      </trkpt>
      <trkpt lat="49.89507" lon="2.35461">
        <ele>48.7</ele>
        <time>2023-03-25T13:23:00Z</time>
      </trkpt>
      <trkpt lat="49.89507" lon="2.3546">
        <ele>48.7</ele>
        <time>2023-03-25T13:23:01Z</time>
      </trkpt>
      <trkpt lat="49.89508" lon="2.35458">
        <ele>48.7</ele>
        <time>2023-03-25T13:23:02Z</time>
      </trkpt>
      <trkpt lat="49.89508" lon="2.35456">
        <ele>48.7</ele>
        <time>2023-03-25T13:23:03Z</time>
      </trkpt>
      <trkpt lat="49.89509" lon="2.35453">
        <ele>48.7</ele>
        <time>2023-03-25T13:23:04Z</time>
      </trkpt>
      <trkpt lat="49.89509" lon="2.35453">
        <ele>48.7</ele>
        <time>2023-03-25T13:23:05Z</time>
      </trkpt>
      <trkpt lat="49.89509" lon="2.35451">
        <ele>48.7</ele>
        <time>2023-03-25T13:23:06Z</time>
      </trkpt>
      <trkpt lat="49.89509" lon="2.3545">
        <ele>48.8</ele>
        <time>2023-03-25T13:23:07Z</time>
      </trkpt>
      <trkpt lat="49.8951" lon="2.35449">
        <ele>48.8</ele>
        <time>2023-03-25T13:23:09Z</time>
      </trkpt>
      <trkpt lat="49.8951" lon="2.35447">
        <ele>48.8</ele>
        <time>2023-03-25T13:23:10Z</time>
      </trkpt>
      <trkpt lat="49.89511" lon="2.35445">
        <ele>48.8</ele>
        <time>2023-03-25T13:23:11Z</time>
      </trkpt>
      <trkpt lat="49.89511" lon="2.35443">
        <ele>48.8</ele>
        <time>2023-03-25T13:23:12Z</time>
      </trkpt>
      <trkpt lat="49.89511" lon="2.35442">
        <ele>48.8</ele>
        <time>2023-03-25T13:23:13Z</time>
      </trkpt>
      <trkpt lat="49.89512" lon="2.3544">
        <ele>48.8</ele>
        <time>2023-03-25T13:23:14Z</time>
      </trkpt>
      <trkpt lat="49.89512" lon="2.3544">
        <ele>48.8</ele>
        <time>2023-03-25T13:23:16Z</time>
      </trkpt>
      <trkpt lat="49.89512" lon="2.35439">
        <ele>48.8</ele>
        <time>2023-03-25T13:23:17Z</time>
      </trkpt>
      <trkpt lat="49.89513" lon="2.35439">
        <ele>48.8</ele>
        <time>2023-03-25T13:23:18Z</time>
      </trkpt>
      <trkpt lat="49.89514" lon="2.35438">
        <ele>48.8</ele>
        <time>2023-03-25T13:23:20Z</time>
      </trkpt>
      <trkpt lat="49.89514" lon="2.35437">
        <ele>48.8</ele>
        <time>2023-03-25T13:23:21Z</time>
      </trkpt>
      <trkpt lat="49.89514" lon="2.35437">
        <ele>48.8</ele>
        <time>2023-03-25T13:23:22Z</time>
      </trkpt>
      <trkpt lat="49.89515" lon="2.35437">
        <ele>48.8</ele>
        <time>2023-03-25T13:23:24Z</time>
      </trkpt>
      <trkpt lat="49.89516" lon="2.35437">
        <ele>48.8</ele>
        <time>2023-03-25T13:23:25Z</time>
      </trkpt>
      <trkpt lat="49.89516" lon="2.35436">
        <ele>48.8</ele>
        <time>2023-03-25T13:23:26Z</time>
      </trkpt>
      <trkpt lat="49.89517" lon="2.35436">
        <ele>48.8</ele>
        <time>2023-03-25T13:23:28Z</time>
      </trkpt>
      <trkpt lat="49.89518" lon="2.35435">
        <ele>48.8</ele>
        <time>2023-03-25T13:23:29Z</time>
      </trkpt>
      <trkpt lat="49.89518" lon="2.35433">
        <ele>48.8</ele>
        <time>2023-03-25T13:23:30Z</time>
      </trkpt>
      <trkpt lat="49.89518" lon="2.35432">
        <ele>48.8</ele>
        <time>2023-03-25T13:23:31Z</time>
      </trkpt>
      <trkpt lat="49.89518" lon="2.35431">
        <ele>48.8</ele>
        <time>2023-03-25T13:23:32Z</time>
      </trkpt>
      <trkpt lat="49.89517" lon="2.3543">
        <ele>48.8</ele>
        <time>2023-03-25T13:23:34Z</time>
      </trkpt>
      <trkpt lat="49.89517" lon="2.35428">
        <ele>48.8</ele>
        <time>2023-03-25T13:23:35Z</time>
      </trkpt>
      <trkpt lat="49.89517" lon="2.35427">
        <ele>48.8</ele>
        <time>2023-03-25T13:23:36Z</time>
      </trkpt>
      <trkpt lat="49.89518" lon="2.35426">
        <ele>48.8</ele>
        <time>2023-03-25T13:23:37Z</time>
      </trkpt>
      <trkpt lat="49.89518" lon="2.35425">
        <ele>48.8</ele>
        <time>2023-03-25T13:23:38Z</time>
      </trkpt>
      <trkpt lat="49.89518" lon="2.35424">
        <ele>48.8</ele>
        <time>2023-03-25T13:23:39Z</time>
      </trkpt>
      <trkpt lat="49.89518" lon="2.35422">
        <ele>48.8</ele>
        <time>2023-03-25T13:23:40Z</time>
      </trkpt>
      <trkpt lat="49.89518" lon="2.35421">
        <ele>48.8</ele>
        <time>2023-03-25T13:23:41Z</time>
      </trkpt>
      <trkpt lat="49.89518" lon="2.35419">
        <ele>48.8</ele>
        <time>2023-03-25T13:23:42Z</time>
      </trkpt>
      <trkpt lat="49.89518" lon="2.35417">
        <ele>48.8</ele>
        <time>2023-03-25T13:23:43Z</time>
      </trkpt>
      <trkpt lat="49.89519" lon="2.35415">
        <ele>48.8</ele>
        <time>2023-03-25T13:23:45Z</time>
      </trkpt>
      <trkpt lat="49.89519" lon="2.35413">
        <ele>48.8</ele>
        <time>2023-03-25T13:23:46Z</time>
      </trkpt>
      <trkpt lat="49.8952" lon="2.35412">
        <ele>48.8</ele>
        <time>2023-03-25T13:23:47Z</time>
      </trkpt>
      <trkpt lat="49.8952" lon="2.3541">
        <ele>48.8</ele>
        <time>2023-03-25T13:23:48Z</time>
      </trkpt>
      <trkpt lat="49.89521" lon="2.35407">
        <ele>48.8</ele>
        <time>2023-03-25T13:23:49Z</time>
      </trkpt>
      <trkpt lat="49.89521" lon="2.35407">
        <ele>48.8</ele>
        <time>2023-03-25T13:23:51Z</time>
      </trkpt>
      <trkpt lat="49.89522" lon="2.35405">
        <ele>48.8</ele>
        <time>2023-03-25T13:23:52Z</time>
      </trkpt>
      <trkpt lat="49.89523" lon="2.35404">
        <ele>48.8</ele>
        <time>2023-03-25T13:23:53Z</time>
      </trkpt>
      <trkpt lat="49.89524" lon="2.35402">
        <ele>48.8</ele>
        <time>2023-03-25T13:23:54Z</time>
      </trkpt>
      <trkpt lat="49.89525" lon="2.35399">
        <ele>48.8</ele>
        <time>2023-03-25T13:23:55Z</time>
      </trkpt>
      <trkpt lat="49.89525" lon="2.35397">
        <ele>48.8</ele>
        <time>2023-03-25T13:23:56Z</time>
      </trkpt>
      <trkpt lat="49.89525" lon="2.35396">
        <ele>48.8</ele>
        <time>2023-03-25T13:23:58Z</time>
      </trkpt>
      <trkpt lat="49.89526" lon="2.35395">
        <ele>48.8</ele>
        <time>2023-03-25T13:23:59Z</time>
      </trkpt>
      <trkpt lat="49.89526" lon="2.35393">
        <ele>48.8</ele>
        <time>2023-03-25T13:24:00Z</time>
      </trkpt>
      <trkpt lat="49.89527" lon="2.35392">
        <ele>48.8</ele>
        <time>2023-03-25T13:24:01Z</time>
      </trkpt>
      <trkpt lat="49.89528" lon="2.35389">
        <ele>48.8</ele>
        <time>2023-03-25T13:24:02Z</time>
      </trkpt>
      <trkpt lat="49.89528" lon="2.35388">
        <ele>48.8</ele>
        <time>2023-03-25T13:24:04Z</time>
      </trkpt>
      <trkpt lat="49.89529" lon="2.35387">
        <ele>48.8</ele>
        <time>2023-03-25T13:24:05Z</time>
      </trkpt>
      <trkpt lat="49.89529" lon="2.35386">
        <ele>48.8</ele>
        <time>2023-03-25T13:24:06Z</time>
      </trkpt>
      <trkpt lat="49.8953" lon="2.35384">
        <ele>48.8</ele>
        <time>2023-03-25T13:24:07Z</time>
      </trkpt>
      <trkpt lat="49.8953" lon="2.35383">
        <ele>48.8</ele>
        <time>2023-03-25T13:24:08Z</time>
      </trkpt>
      <trkpt lat="49.89531" lon="2.35381">
        <ele>48.8</ele>
        <time>2023-03-25T13:24:09Z</time>
      </trkpt>
      <trkpt lat="49.89531" lon="2.3538">
        <ele>48.7</ele>
        <time>2023-03-25T13:24:10Z</time>
      </trkpt>
      <trkpt lat="49.89532" lon="2.35378">
        <ele>48.7</ele>
        <time>2023-03-25T13:24:11Z</time>
      </trkpt>
      <trkpt lat="49.89532" lon="2.35375">
        <ele>48.7</ele>
        <time>2023-03-25T13:24:13Z</time>
      </trkpt>
      <trkpt lat="49.89533" lon="2.35374">
        <ele>48.7</ele>
        <time>2023-03-25T13:24:14Z</time>
      </trkpt>
      <trkpt lat="49.89533" lon="2.35373">
        <ele>48.7</ele>
        <time>2023-03-25T13:24:15Z</time>
      </trkpt>
      <trkpt lat="49.89534" lon="2.35371">
        <ele>48.7</ele>
        <time>2023-03-25T13:24:16Z</time>
      </trkpt>
      <trkpt lat="49.89534" lon="2.3537">
        <ele>48.7</ele>
        <time>2023-03-25T13:24:17Z</time>
      </trkpt>
      <trkpt lat="49.89535" lon="2.35369">
        <ele>48.7</ele>
        <time>2023-03-25T13:24:18Z</time>
      </trkpt>
      <trkpt lat="49.89535" lon="2.35367">
        <ele>48.7</ele>
        <time>2023-03-25T13:24:19Z</time>
      </trkpt>
      <trkpt lat="49.89535" lon="2.35366">
        <ele>48.6</ele>
        <time>2023-03-25T13:24:20Z</time>
      </trkpt>
      <trkpt lat="49.89536" lon="2.35364">
        <ele>48.6</ele>
        <time>2023-03-25T13:24:22Z</time>
      </trkpt>
      <trkpt lat="49.89536" lon="2.35362">
        <ele>48.6</ele>
        <time>2023-03-25T13:24:23Z</time>
      </trkpt>
      <trkpt lat="49.89537" lon="2.35359">
        <ele>48.6</ele>
        <time>2023-03-25T13:24:24Z</time>
      </trkpt>
      <trkpt lat="49.89537" lon="2.35358">
        <ele>48.6</ele>
        <time>2023-03-25T13:24:25Z</time>
      </trkpt>
      <trkpt lat="49.89537" lon="2.35356">
        <ele>48.6</ele>
        <time>2023-03-25T13:24:26Z</time>
      </trkpt>
      <trkpt lat="49.89538" lon="2.35354">
        <ele>48.6</ele>
        <time>2023-03-25T13:24:27Z</time>
      </trkpt>
      <trkpt lat="49.89538" lon="2.35353">
        <ele>48.6</ele>
        <time>2023-03-25T13:24:28Z</time>
      </trkpt>
      <trkpt lat="49.89538" lon="2.35351">
        <ele>48.5</ele>
        <time>2023-03-25T13:24:29Z</time>
      </trkpt>
      <trkpt lat="49.89539" lon="2.35349">
        <ele>48.5</ele>
        <time>2023-03-25T13:24:31Z</time>
      </trkpt>
      <trkpt lat="49.8954" lon="2.35347">
        <ele>48.5</ele>
        <time>2023-03-25T13:24:32Z</time>
      </trkpt>
      <trkpt lat="49.8954" lon="2.35345">
        <ele>48.5</ele>
        <time>2023-03-25T13:24:33Z</time>
      </trkpt>
      <trkpt lat="49.89541" lon="2.35343">
        <ele>48.5</ele>
        <time>2023-03-25T13:24:34Z</time>
      </trkpt>
      <trkpt lat="49.89542" lon="2.35341">
        <ele>48.5</ele>
        <time>2023-03-25T13:24:35Z</time>
      </trkpt>
      <trkpt lat="49.89542" lon="2.35339">
        <ele>48.5</ele>
        <time>2023-03-25T13:24:36Z</time>
      </trkpt>
      <trkpt lat="49.89542" lon="2.35338">
        <ele>48.5</ele>
        <time>2023-03-25T13:24:37Z</time>
      </trkpt>
      <trkpt lat="49.89543" lon="2.35336">
        <ele>48.5</ele>
        <time>2023-03-25T13:24:39Z</time>
      </trkpt>
      <trkpt lat="49.89544" lon="2.35333">
        <ele>48.5</ele>
        <time>2023-03-25T13:24:40Z</time>
      </trkpt>
      <trkpt lat="49.89544" lon="2.35332">
        <ele>48.4</ele>
        <time>2023-03-25T13:24:41Z</time>
      </trkpt>
      <trkpt lat="49.89545" lon="2.3533">
        <ele>48.4</ele>
        <time>2023-03-25T13:24:42Z</time>
      </trkpt>
      <trkpt lat="49.89546" lon="2.35329">
        <ele>48.4</ele>
        <time>2023-03-25T13:24:43Z</time>
      </trkpt>
      <trkpt lat="49.89546" lon="2.35328">
        <ele>48.4</ele>
        <time>2023-03-25T13:24:44Z</time>
      </trkpt>
      <trkpt lat="49.89547" lon="2.35326">
        <ele>48.4</ele>
        <time>2023-03-25T13:24:45Z</time>
      </trkpt>
      <trkpt lat="49.89548" lon="2.35325">
        <ele>48.4</ele>
        <time>2023-03-25T13:24:46Z</time>
      </trkpt>
      <trkpt lat="49.89548" lon="2.35324">
        <ele>48.4</ele>
        <time>2023-03-25T13:24:48Z</time>
      </trkpt>
      <trkpt lat="49.89549" lon="2.35322">
        <ele>48.4</ele>
        <time>2023-03-25T13:24:49Z</time>
      </trkpt>
      <trkpt lat="49.8955" lon="2.35319">
        <ele>48.4</ele>
        <time>2023-03-25T13:24:50Z</time>
      </trkpt>
      <trkpt lat="49.89551" lon="2.35318">
        <ele>48.3</ele>
        <time>2023-03-25T13:24:51Z</time>
      </trkpt>
      <trkpt lat="49.89552" lon="2.35316">
        <ele>48.3</ele>
        <time>2023-03-25T13:24:52Z</time>
      </trkpt>
      <trkpt lat="49.89552" lon="2.35315">
        <ele>48.3</ele>
        <time>2023-03-25T13:24:53Z</time>
      </trkpt>
      <trkpt lat="49.89553" lon="2.35314">
        <ele>48.3</ele>
        <time>2023-03-25T13:24:54Z</time>
      </trkpt>
      <trkpt lat="49.89553" lon="2.35313">
        <ele>48.3</ele>
        <time>2023-03-25T13:24:56Z</time>
      </trkpt>
      <trkpt lat="49.89554" lon="2.35312">
        <ele>48.3</ele>
        <time>2023-03-25T13:24:57Z</time>
      </trkpt>
      <trkpt lat="49.89555" lon="2.3531">
        <ele>48.3</ele>
        <time>2023-03-25T13:24:58Z</time>
      </trkpt>
      <trkpt lat="49.89556" lon="2.35309">
        <ele>48.3</ele>
        <time>2023-03-25T13:24:59Z</time>
      </trkpt>
      <trkpt lat="49.89557" lon="2.35307">
        <ele>48.3</ele>
        <time>2023-03-25T13:25:00Z</time>
      </trkpt>
      <trkpt lat="49.89558" lon="2.35305">
        <ele>48.3</ele>
        <time>2023-03-25T13:25:01Z</time>
      </trkpt>
      <trkpt lat="49.89559" lon="2.35304">
        <ele>48.3</ele>
        <time>2023-03-25T13:25:02Z</time>
      </trkpt>
      <trkpt lat="49.89559" lon="2.35303">
        <ele>48.2</ele>
        <time>2023-03-25T13:25:03Z</time>
      </trkpt>
      <trkpt lat="49.8956" lon="2.35301">
        <ele>48.2</ele>
        <time>2023-03-25T13:25:04Z</time>
      </trkpt>
      <trkpt lat="49.8956" lon="2.353">
        <ele>48.2</ele>
        <time>2023-03-25T13:25:05Z</time>
      </trkpt>
      <trkpt lat="49.89561" lon="2.35298">
        <ele>48.2</ele>
        <time>2023-03-25T13:25:06Z</time>
      </trkpt>
      <trkpt lat="49.89562" lon="2.35296">
        <ele>48.2</ele>
        <time>2023-03-25T13:25:08Z</time>
      </trkpt>
      <trkpt lat="49.89562" lon="2.35295">
        <ele>48.2</ele>
        <time>2023-03-25T13:25:09Z</time>
      </trkpt>
      <trkpt lat="49.89563" lon="2.35292">
        <ele>48.1</ele>
        <time>2023-03-25T13:25:10Z</time>
      </trkpt>
      <trkpt lat="49.89564" lon="2.35291">
        <ele>48.1</ele>
        <time>2023-03-25T13:25:11Z</time>
      </trkpt>
      <trkpt lat="49.89565" lon="2.35289">
        <ele>48.1</ele>
        <time>2023-03-25T13:25:12Z</time>
      </trkpt>
      <trkpt lat="49.89565" lon="2.35287">
        <ele>48.1</ele>
        <time>2023-03-25T13:25:13Z</time>
      </trkpt>
      <trkpt lat="49.89566" lon="2.35286">
        <ele>48</ele>
        <time>2023-03-25T13:25:15Z</time>
      </trkpt>
      <trkpt lat="49.89567" lon="2.35284">
        <ele>48</ele>
        <time>2023-03-25T13:25:16Z</time>
      </trkpt>
      <trkpt lat="49.89568" lon="2.35283">
        <ele>48</ele>
        <time>2023-03-25T13:25:17Z</time>
      </trkpt>
      <trkpt lat="49.89569" lon="2.35282">
        <ele>48</ele>
        <time>2023-03-25T13:25:18Z</time>
      </trkpt>
      <trkpt lat="49.89569" lon="2.3528">
        <ele>48</ele>
        <time>2023-03-25T13:25:19Z</time>
      </trkpt>
      <trkpt lat="49.8957" lon="2.35278">
        <ele>47.9</ele>
        <time>2023-03-25T13:25:20Z</time>
      </trkpt>
      <trkpt lat="49.8957" lon="2.35277">
        <ele>47.9</ele>
        <time>2023-03-25T13:25:21Z</time>
      </trkpt>
      <trkpt lat="49.89571" lon="2.35276">
        <ele>47.9</ele>
        <time>2023-03-25T13:25:22Z</time>
      </trkpt>
      <trkpt lat="49.89572" lon="2.35274">
        <ele>47.9</ele>
        <time>2023-03-25T13:25:23Z</time>
      </trkpt>
      <trkpt lat="49.89572" lon="2.35273">
        <ele>47.9</ele>
        <time>2023-03-25T13:25:25Z</time>
      </trkpt>
      <trkpt lat="49.89573" lon="2.35271">
        <ele>47.8</ele>
        <time>2023-03-25T13:25:26Z</time>
      </trkpt>
      <trkpt lat="49.89574" lon="2.3527">
        <ele>47.8</ele>
        <time>2023-03-25T13:25:27Z</time>
      </trkpt>
      <trkpt lat="49.89575" lon="2.35268">
        <ele>47.8</ele>
        <time>2023-03-25T13:25:28Z</time>
      </trkpt>
      <trkpt lat="49.89576" lon="2.35266">
        <ele>47.8</ele>
        <time>2023-03-25T13:25:29Z</time>
      </trkpt>
      <trkpt lat="49.89576" lon="2.35265">
        <ele>47.8</ele>
        <time>2023-03-25T13:25:30Z</time>
      </trkpt>
      <trkpt lat="49.89577" lon="2.35264">
        <ele>47.8</ele>
        <time>2023-03-25T13:25:31Z</time>
      </trkpt>
      <trkpt lat="49.89577" lon="2.35262">
        <ele>47.7</ele>
        <time>2023-03-25T13:25:32Z</time>
      </trkpt>
      <trkpt lat="49.89578" lon="2.35261">
        <ele>47.7</ele>
        <time>2023-03-25T13:25:33Z</time>
      </trkpt>
      <trkpt lat="49.89579" lon="2.35259">
        <ele>47.7</ele>
        <time>2023-03-25T13:25:34Z</time>
      </trkpt>
      <trkpt lat="49.8958" lon="2.35257">
        <ele>47.7</ele>
        <time>2023-03-25T13:25:35Z</time>
      </trkpt>
      <trkpt lat="49.89581" lon="2.35255">
        <ele>47.7</ele>
        <time>2023-03-25T13:25:37Z</time>
      </trkpt>
      <trkpt lat="49.89581" lon="2.35254">
        <ele>47.6</ele>
        <time>2023-03-25T13:25:38Z</time>
      </trkpt>
      <trkpt lat="49.89582" lon="2.35252">
        <ele>47.6</ele>
        <time>2023-03-25T13:25:39Z</time>
      </trkpt>
      <trkpt lat="49.89583" lon="2.35249">
        <ele>47.6</ele>
        <time>2023-03-25T13:25:40Z</time>
      </trkpt>
      <trkpt lat="49.89583" lon="2.35249">
        <ele>47.6</ele>
        <time>2023-03-25T13:25:41Z</time>
      </trkpt>
      <trkpt lat="49.89584" lon="2.35248">
        <ele>47.6</ele>
        <time>2023-03-25T13:25:42Z</time>
      </trkpt>
      <trkpt lat="49.89585" lon="2.35245">
        <ele>47.6</ele>
        <time>2023-03-25T13:25:43Z</time>
      </trkpt>
      <trkpt lat="49.89586" lon="2.35244">
        <ele>47.5</ele>
        <time>2023-03-25T13:25:44Z</time>
      </trkpt>
      <trkpt lat="49.89586" lon="2.35243">
        <ele>47.5</ele>
        <time>2023-03-25T13:25:45Z</time>
      </trkpt>
      <trkpt lat="49.89587" lon="2.35241">
        <ele>47.5</ele>
        <time>2023-03-25T13:25:47Z</time>
      </trkpt>
      <trkpt lat="49.89589" lon="2.3524">
        <ele>47.5</ele>
        <time>2023-03-25T13:25:48Z</time>
      </trkpt>
      <trkpt lat="49.8959" lon="2.35238">
        <ele>47.5</ele>
        <time>2023-03-25T13:25:49Z</time>
      </trkpt>
      <trkpt lat="49.89591" lon="2.35235">
        <ele>47.4</ele>
        <time>2023-03-25T13:25:50Z</time>
      </trkpt>
      <trkpt lat="49.89591" lon="2.35234">
        <ele>47.4</ele>
        <time>2023-03-25T13:25:51Z</time>
      </trkpt>
      <trkpt lat="49.89592" lon="2.35233">
        <ele>47.4</ele>
        <time>2023-03-25T13:25:52Z</time>
      </trkpt>
      <trkpt lat="49.89593" lon="2.35231">
        <ele>47.4</ele>
        <time>2023-03-25T13:25:53Z</time>
      </trkpt>
      <trkpt lat="49.89594" lon="2.35229">
        <ele>47.3</ele>
        <time>2023-03-25T13:25:54Z</time>
      </trkpt>
      <trkpt lat="49.89595" lon="2.35227">
        <ele>47.3</ele>
        <time>2023-03-25T13:25:55Z</time>
      </trkpt>
      <trkpt lat="49.89596" lon="2.35226">
        <ele>47.3</ele>
        <time>2023-03-25T13:25:57Z</time>
      </trkpt>
      <trkpt lat="49.89596" lon="2.35225">
        <ele>47.3</ele>
        <time>2023-03-25T13:25:58Z</time>
      </trkpt>
      <trkpt lat="49.89597" lon="2.35223">
        <ele>47.3</ele>
        <time>2023-03-25T13:25:59Z</time>
      </trkpt>
      <trkpt lat="49.89598" lon="2.35222">
        <ele>47.3</ele>
        <time>2023-03-25T13:26:00Z</time>
      </trkpt>
      <trkpt lat="49.89599" lon="2.3522">
        <ele>47.3</ele>
        <time>2023-03-25T13:26:01Z</time>
      </trkpt>
      <trkpt lat="49.896" lon="2.35219">
        <ele>47.3</ele>
        <time>2023-03-25T13:26:02Z</time>
      </trkpt>
      <trkpt lat="49.896" lon="2.35217">
        <ele>47.3</ele>
        <time>2023-03-25T13:26:03Z</time>
      </trkpt>
      <trkpt lat="49.89602" lon="2.35215">
        <ele>47.2</ele>
        <time>2023-03-25T13:26:04Z</time>
      </trkpt>
      <trkpt lat="49.89603" lon="2.35213">
        <ele>47.2</ele>
        <time>2023-03-25T13:26:05Z</time>
      </trkpt>
      <trkpt lat="49.89603" lon="2.35212">
        <ele>47.2</ele>
        <time>2023-03-25T13:26:07Z</time>
      </trkpt>
      <trkpt lat="49.89604" lon="2.35211">
        <ele>47.2</ele>
        <time>2023-03-25T13:26:08Z</time>
      </trkpt>
      <trkpt lat="49.89605" lon="2.3521">
        <ele>47.2</ele>
        <time>2023-03-25T13:26:09Z</time>
      </trkpt>
      <trkpt lat="49.89606" lon="2.35209">
        <ele>47.2</ele>
        <time>2023-03-25T13:26:10Z</time>
      </trkpt>
      <trkpt lat="49.89606" lon="2.35208">
        <ele>47.2</ele>
        <time>2023-03-25T13:26:11Z</time>
      </trkpt>
      <trkpt lat="49.89607" lon="2.35207">
        <ele>47.2</ele>
        <time>2023-03-25T13:26:12Z</time>
      </trkpt>
      <trkpt lat="49.89607" lon="2.35205">
        <ele>47.2</ele>
        <time>2023-03-25T13:26:13Z</time>
      </trkpt>
      <trkpt lat="49.89608" lon="2.35203">
        <ele>47.2</ele>
        <time>2023-03-25T13:26:15Z</time>
      </trkpt>
      <trkpt lat="49.89609" lon="2.35201">
        <ele>47.1</ele>
        <time>2023-03-25T13:26:16Z</time>
      </trkpt>
      <trkpt lat="49.8961" lon="2.35199">
        <ele>47.1</ele>
        <time>2023-03-25T13:26:17Z</time>
      </trkpt>
      <trkpt lat="49.8961" lon="2.35198">
        <ele>47.1</ele>
        <time>2023-03-25T13:26:18Z</time>
      </trkpt>
      <trkpt lat="49.89611" lon="2.35196">
        <ele>47.1</ele>
        <time>2023-03-25T13:26:20Z</time>
      </trkpt>
      <trkpt lat="49.89612" lon="2.35193">
        <ele>47.1</ele>
        <time>2023-03-25T13:26:21Z</time>
      </trkpt>
      <trkpt lat="49.89612" lon="2.35192">
        <ele>47.1</ele>
        <time>2023-03-25T13:26:22Z</time>
      </trkpt>
      <trkpt lat="49.89613" lon="2.35191">
        <ele>47.1</ele>
        <time>2023-03-25T13:26:23Z</time>
      </trkpt>
      <trkpt lat="49.89614" lon="2.35188">
        <ele>47</ele>
        <time>2023-03-25T13:26:24Z</time>
      </trkpt>
      <trkpt lat="49.89614" lon="2.35187">
        <ele>47</ele>
        <time>2023-03-25T13:26:26Z</time>
      </trkpt>
      <trkpt lat="49.89615" lon="2.35186">
        <ele>47</ele>
        <time>2023-03-25T13:26:27Z</time>
      </trkpt>
      <trkpt lat="49.89616" lon="2.35184">
        <ele>47</ele>
        <time>2023-03-25T13:26:28Z</time>
      </trkpt>
      <trkpt lat="49.89617" lon="2.35182">
        <ele>47</ele>
        <time>2023-03-25T13:26:29Z</time>
      </trkpt>
      <trkpt lat="49.89617" lon="2.35181">
        <ele>47</ele>
        <time>2023-03-25T13:26:30Z</time>
      </trkpt>
      <trkpt lat="49.89618" lon="2.35179">
        <ele>47</ele>
        <time>2023-03-25T13:26:31Z</time>
      </trkpt>
      <trkpt lat="49.89618" lon="2.35177">
        <ele>47</ele>
        <time>2023-03-25T13:26:32Z</time>
      </trkpt>
      <trkpt lat="49.89619" lon="2.35176">
        <ele>47</ele>
        <time>2023-03-25T13:26:33Z</time>
      </trkpt>
      <trkpt lat="49.89619" lon="2.35175">
        <ele>47</ele>
        <time>2023-03-25T13:26:34Z</time>
      </trkpt>
      <trkpt lat="49.8962" lon="2.35173">
        <ele>47</ele>
        <time>2023-03-25T13:26:36Z</time>
      </trkpt>
      <trkpt lat="49.8962" lon="2.35171">
        <ele>47</ele>
        <time>2023-03-25T13:26:37Z</time>
      </trkpt>
      <trkpt lat="49.89621" lon="2.3517">
        <ele>47</ele>
        <time>2023-03-25T13:26:38Z</time>
      </trkpt>
      <trkpt lat="49.89621" lon="2.35168">
        <ele>47</ele>
        <time>2023-03-25T13:26:39Z</time>
      </trkpt>
      <trkpt lat="49.89622" lon="2.35167">
        <ele>47</ele>
        <time>2023-03-25T13:26:40Z</time>
      </trkpt>
      <trkpt lat="49.89623" lon="2.35166">
        <ele>47</ele>
        <time>2023-03-25T13:26:41Z</time>
      </trkpt>
      <trkpt lat="49.89624" lon="2.35164">
        <ele>47</ele>
        <time>2023-03-25T13:26:43Z</time>
      </trkpt>
      <trkpt lat="49.89625" lon="2.35162">
        <ele>47</ele>
        <time>2023-03-25T13:26:44Z</time>
      </trkpt>
      <trkpt lat="49.89626" lon="2.35161">
        <ele>47</ele>
        <time>2023-03-25T13:26:45Z</time>
      </trkpt>
      <trkpt lat="49.89627" lon="2.35158">
        <ele>47</ele>
        <time>2023-03-25T13:26:46Z</time>
      </trkpt>
      <trkpt lat="49.89628" lon="2.35157">
        <ele>47.1</ele>
        <time>2023-03-25T13:26:47Z</time>
      </trkpt>
      <trkpt lat="49.89629" lon="2.35156">
        <ele>47.1</ele>
        <time>2023-03-25T13:26:48Z</time>
      </trkpt>
      <trkpt lat="49.89629" lon="2.35155">
        <ele>47.1</ele>
        <time>2023-03-25T13:26:49Z</time>
      </trkpt>
      <trkpt lat="49.8963" lon="2.35154">
        <ele>47.1</ele>
        <time>2023-03-25T13:26:51Z</time>
      </trkpt>
      <trkpt lat="49.89631" lon="2.35152">
        <ele>47.1</ele>
        <time>2023-03-25T13:26:52Z</time>
      </trkpt>
      <trkpt lat="49.89632" lon="2.35151">
        <ele>47.1</ele>
        <time>2023-03-25T13:26:53Z</time>
      </trkpt>
      <trkpt lat="49.89632" lon="2.3515">
        <ele>47.1</ele>
        <time>2023-03-25T13:26:54Z</time>
      </trkpt>
      <trkpt lat="49.89633" lon="2.35148">
        <ele>47.1</ele>
        <time>2023-03-25T13:26:55Z</time>
      </trkpt>
      <trkpt lat="49.89634" lon="2.35147">
        <ele>47.1</ele>
        <time>2023-03-25T13:26:56Z</time>
      </trkpt>
      <trkpt lat="49.89634" lon="2.35145">
        <ele>47.1</ele>
        <time>2023-03-25T13:26:57Z</time>
      </trkpt>
      <trkpt lat="49.89635" lon="2.35144">
        <ele>47.1</ele>
        <time>2023-03-25T13:26:58Z</time>
      </trkpt>
      <trkpt lat="49.89635" lon="2.35142">
        <ele>47.1</ele>
        <time>2023-03-25T13:26:59Z</time>
      </trkpt>
      <trkpt lat="49.89636" lon="2.3514">
        <ele>47.2</ele>
        <time>2023-03-25T13:27:01Z</time>
      </trkpt>
      <trkpt lat="49.89637" lon="2.35139">
        <ele>47.2</ele>
        <time>2023-03-25T13:27:02Z</time>
      </trkpt>
      <trkpt lat="49.89638" lon="2.35136">
        <ele>47.2</ele>
        <time>2023-03-25T13:27:03Z</time>
      </trkpt>
      <trkpt lat="49.89638" lon="2.35135">
        <ele>47.2</ele>
        <time>2023-03-25T13:27:04Z</time>
      </trkpt>
      <trkpt lat="49.89639" lon="2.35134">
        <ele>47.2</ele>
        <time>2023-03-25T13:27:05Z</time>
      </trkpt>
      <trkpt lat="49.8964" lon="2.35131">
        <ele>47.3</ele>
        <time>2023-03-25T13:27:06Z</time>
      </trkpt>
      <trkpt lat="49.8964" lon="2.3513">
        <ele>47.3</ele>
        <time>2023-03-25T13:27:07Z</time>
      </trkpt>
      <trkpt lat="49.8964" lon="2.35129">
        <ele>47.3</ele>
        <time>2023-03-25T13:27:08Z</time>
      </trkpt>
      <trkpt lat="49.89642" lon="2.35127">
        <ele>47.3</ele>
        <time>2023-03-25T13:27:09Z</time>
      </trkpt>
      <trkpt lat="49.89643" lon="2.35126">
        <ele>47.3</ele>
        <time>2023-03-25T13:27:11Z</time>
      </trkpt>
      <trkpt lat="49.89643" lon="2.35124">
        <ele>47.3</ele>
        <time>2023-03-25T13:27:12Z</time>
      </trkpt>
      <trkpt lat="49.89644" lon="2.35123">
        <ele>47.4</ele>
        <time>2023-03-25T13:27:13Z</time>
      </trkpt>
      <trkpt lat="49.89645" lon="2.35122">
        <ele>47.4</ele>
        <time>2023-03-25T13:27:14Z</time>
      </trkpt>
      <trkpt lat="49.89646" lon="2.35119">
        <ele>47.4</ele>
        <time>2023-03-25T13:27:16Z</time>
      </trkpt>
      <trkpt lat="49.89646" lon="2.35118">
        <ele>47.4</ele>
        <time>2023-03-25T13:27:17Z</time>
      </trkpt>
      <trkpt lat="49.89647" lon="2.35117">
        <ele>47.5</ele>
        <time>2023-03-25T13:27:18Z</time>
      </trkpt>
      <trkpt lat="49.89648" lon="2.35116">
        <ele>47.5</ele>
        <time>2023-03-25T13:27:19Z</time>
      </trkpt>
      <trkpt lat="49.89649" lon="2.35115">
        <ele>47.5</ele>
        <time>2023-03-25T13:27:20Z</time>
      </trkpt>
      <trkpt lat="49.89651" lon="2.35113">
        <ele>47.5</ele>
        <time>2023-03-25T13:27:21Z</time>
      </trkpt>
      <trkpt lat="49.89651" lon="2.35112">
        <ele>47.5</ele>
        <time>2023-03-25T13:27:22Z</time>
      </trkpt>
      <trkpt lat="49.89652" lon="2.35111">
        <ele>47.6</ele>
        <time>2023-03-25T13:27:23Z</time>
      </trkpt>
      <trkpt lat="49.89653" lon="2.3511">
        <ele>47.6</ele>
        <time>2023-03-25T13:27:24Z</time>
      </trkpt>
      <trkpt lat="49.89655" lon="2.35109">
        <ele>47.6</ele>
        <time>2023-03-25T13:27:25Z</time>
      </trkpt>
      <trkpt lat="49.89656" lon="2.35106">
        <ele>47.6</ele>
        <time>2023-03-25T13:27:26Z</time>
      </trkpt>
      <trkpt lat="49.89657" lon="2.35105">
        <ele>47.7</ele>
        <time>2023-03-25T13:27:28Z</time>
      </trkpt>
      <trkpt lat="49.89657" lon="2.35104">
        <ele>47.7</ele>
        <time>2023-03-25T13:27:29Z</time>
      </trkpt>
      <trkpt lat="49.89658" lon="2.35102">
        <ele>47.7</ele>
        <time>2023-03-25T13:27:30Z</time>
      </trkpt>
      <trkpt lat="49.89659" lon="2.351">
        <ele>47.7</ele>
        <time>2023-03-25T13:27:31Z</time>
      </trkpt>
      <trkpt lat="49.89659" lon="2.35099">
        <ele>47.8</ele>
        <time>2023-03-25T13:27:32Z</time>
      </trkpt>
      <trkpt lat="49.8966" lon="2.35098">
        <ele>47.8</ele>
        <time>2023-03-25T13:27:33Z</time>
      </trkpt>
      <trkpt lat="49.89661" lon="2.35096">
        <ele>47.8</ele>
        <time>2023-03-25T13:27:34Z</time>
      </trkpt>
      <trkpt lat="49.89662" lon="2.35095">
        <ele>47.8</ele>
        <time>2023-03-25T13:27:35Z</time>
      </trkpt>
      <trkpt lat="49.89663" lon="2.35093">
        <ele>47.9</ele>
        <time>2023-03-25T13:27:36Z</time>
      </trkpt>
      <trkpt lat="49.89664" lon="2.3509">
        <ele>47.9</ele>
        <time>2023-03-25T13:27:38Z</time>
      </trkpt>
      <trkpt lat="49.89665" lon="2.35089">
        <ele>47.9</ele>
        <time>2023-03-25T13:27:39Z</time>
      </trkpt>
      <trkpt lat="49.89665" lon="2.35088">
        <ele>47.9</ele>
        <time>2023-03-25T13:27:40Z</time>
      </trkpt>
      <trkpt lat="49.89666" lon="2.35087">
        <ele>48</ele>
        <time>2023-03-25T13:27:41Z</time>
      </trkpt>
      <trkpt lat="49.89666" lon="2.35085">
        <ele>48</ele>
        <time>2023-03-25T13:27:42Z</time>
      </trkpt>
      <trkpt lat="49.89667" lon="2.35084">
        <ele>48</ele>
        <time>2023-03-25T13:27:43Z</time>
      </trkpt>
      <trkpt lat="49.89668" lon="2.35081">
        <ele>48.1</ele>
        <time>2023-03-25T13:27:45Z</time>
      </trkpt>
      <trkpt lat="49.89668" lon="2.3508">
        <ele>48.1</ele>
        <time>2023-03-25T13:27:46Z</time>
      </trkpt>
      <trkpt lat="49.89668" lon="2.35078">
        <ele>48.1</ele>
        <time>2023-03-25T13:27:47Z</time>
      </trkpt>
      <trkpt lat="49.89669" lon="2.35076">
        <ele>48.1</ele>
        <time>2023-03-25T13:27:48Z</time>
      </trkpt>
      <trkpt lat="49.8967" lon="2.35074">
        <ele>48.2</ele>
        <time>2023-03-25T13:27:49Z</time>
      </trkpt>
      <trkpt lat="49.8967" lon="2.35073">
        <ele>48.2</ele>
        <time>2023-03-25T13:27:50Z</time>
      </trkpt>
      <trkpt lat="49.89671" lon="2.35071">
        <ele>48.2</ele>
        <time>2023-03-25T13:27:51Z</time>
      </trkpt>
      <trkpt lat="49.89671" lon="2.3507">
        <ele>48.2</ele>
        <time>2023-03-25T13:27:52Z</time>
      </trkpt>
      <trkpt lat="49.89672" lon="2.35068">
        <ele>48.3</ele>
        <time>2023-03-25T13:27:54Z</time>
      </trkpt>
      <trkpt lat="49.89673" lon="2.35067">
        <ele>48.3</ele>
        <time>2023-03-25T13:27:55Z</time>
      </trkpt>
      <trkpt lat="49.89674" lon="2.35064">
        <ele>48.4</ele>
        <time>2023-03-25T13:27:56Z</time>
      </trkpt>
      <trkpt lat="49.89674" lon="2.35063">
        <ele>48.4</ele>
        <time>2023-03-25T13:27:57Z</time>
      </trkpt>
      <trkpt lat="49.89675" lon="2.35062">
        <ele>48.4</ele>
        <time>2023-03-25T13:27:58Z</time>
      </trkpt>
      <trkpt lat="49.89676" lon="2.3506">
        <ele>48.4</ele>
        <time>2023-03-25T13:27:59Z</time>
      </trkpt>
      <trkpt lat="49.89676" lon="2.35059">
        <ele>48.4</ele>
        <time>2023-03-25T13:28:00Z</time>
      </trkpt>
      <trkpt lat="49.89677" lon="2.35057">
        <ele>48.5</ele>
        <time>2023-03-25T13:28:02Z</time>
      </trkpt>
      <trkpt lat="49.89678" lon="2.35056">
        <ele>48.5</ele>
        <time>2023-03-25T13:28:03Z</time>
      </trkpt>
      <trkpt lat="49.89679" lon="2.35053">
        <ele>48.6</ele>
        <time>2023-03-25T13:28:04Z</time>
      </trkpt>
      <trkpt lat="49.89679" lon="2.35052">
        <ele>48.6</ele>
        <time>2023-03-25T13:28:05Z</time>
      </trkpt>
      <trkpt lat="49.8968" lon="2.35051">
        <ele>48.6</ele>
        <time>2023-03-25T13:28:06Z</time>
      </trkpt>
      <trkpt lat="49.8968" lon="2.3505">
        <ele>48.7</ele>
        <time>2023-03-25T13:28:07Z</time>
      </trkpt>
      <trkpt lat="49.89681" lon="2.35048">
        <ele>48.7</ele>
        <time>2023-03-25T13:28:08Z</time>
      </trkpt>
      <trkpt lat="49.89681" lon="2.35047">
        <ele>48.7</ele>
        <time>2023-03-25T13:28:09Z</time>
      </trkpt>
      <trkpt lat="49.89683" lon="2.35044">
        <ele>48.8</ele>
        <time>2023-03-25T13:28:11Z</time>
      </trkpt>
      <trkpt lat="49.89683" lon="2.35044">
        <ele>48.8</ele>
        <time>2023-03-25T13:28:12Z</time>
      </trkpt>
      <trkpt lat="49.89684" lon="2.35043">
        <ele>48.8</ele>
        <time>2023-03-25T13:28:13Z</time>
      </trkpt>
      <trkpt lat="49.89684" lon="2.35042">
        <ele>48.8</ele>
        <time>2023-03-25T13:28:14Z</time>
      </trkpt>
      <trkpt lat="49.89685" lon="2.35041">
        <ele>48.9</ele>
        <time>2023-03-25T13:28:15Z</time>
      </trkpt>
      <trkpt lat="49.89686" lon="2.3504">
        <ele>48.9</ele>
        <time>2023-03-25T13:28:16Z</time>
      </trkpt>
      <trkpt lat="49.89687" lon="2.35038">
        <ele>48.9</ele>
        <time>2023-03-25T13:28:18Z</time>
      </trkpt>
      <trkpt lat="49.89687" lon="2.35037">
        <ele>48.9</ele>
        <time>2023-03-25T13:28:19Z</time>
      </trkpt>
      <trkpt lat="49.89687" lon="2.35036">
        <ele>48.9</ele>
        <time>2023-03-25T13:28:20Z</time>
      </trkpt>
      <trkpt lat="49.89688" lon="2.35035">
        <ele>48.9</ele>
        <time>2023-03-25T13:28:22Z</time>
      </trkpt>
      <trkpt lat="49.89688" lon="2.35034">
        <ele>49</ele>
        <time>2023-03-25T13:28:23Z</time>
      </trkpt>
      <trkpt lat="49.89689" lon="2.35033">
        <ele>49</ele>
        <time>2023-03-25T13:28:25Z</time>
      </trkpt>
      <trkpt lat="49.89689" lon="2.35032">
        <ele>49</ele>
        <time>2023-03-25T13:28:26Z</time>
      </trkpt>
      <trkpt lat="49.89689" lon="2.35033">
        <ele>49</ele>
        <time>2023-03-25T13:28:27Z</time>
      </trkpt>
      <trkpt lat="49.89689" lon="2.35033">
        <ele>49</ele>
        <time>2023-03-25T13:28:29Z</time>
      </trkpt>
      <trkpt lat="49.89688" lon="2.35033">
        <ele>49</ele>
        <time>2023-03-25T13:28:30Z</time>
      </trkpt>
      <trkpt lat="49.89688" lon="2.35034">
        <ele>49</ele>
        <time>2023-03-25T13:28:32Z</time>
      </trkpt>
      <trkpt lat="49.89688" lon="2.35034">
        <ele>49</ele>
        <time>2023-03-25T13:28:33Z</time>
      </trkpt>
      <trkpt lat="49.89687" lon="2.35034">
        <ele>49</ele>
        <time>2023-03-25T13:28:35Z</time>
      </trkpt>
      <trkpt lat="49.89687" lon="2.35035">
        <ele>49</ele>
        <time>2023-03-25T13:28:36Z</time>
      </trkpt>
      <trkpt lat="49.89687" lon="2.35035">
        <ele>49</ele>
        <time>2023-03-25T13:28:37Z</time>
      </trkpt>
      <trkpt lat="49.89686" lon="2.35035">
        <ele>49</ele>
        <time>2023-03-25T13:28:39Z</time>
      </trkpt>
      <trkpt lat="49.89686" lon="2.35035">
        <ele>49</ele>
        <time>2023-03-25T13:28:40Z</time>
      </trkpt>
      <trkpt lat="49.89686" lon="2.35038">
        <ele>49.1</ele>
        <time>2023-03-25T13:28:41Z</time>
      </trkpt>
      <trkpt lat="49.89686" lon="2.35038">
        <ele>49.1</ele>
        <time>2023-03-25T13:28:42Z</time>
      </trkpt>
      <trkpt lat="49.89686" lon="2.35038">
        <ele>49.1</ele>
        <time>2023-03-25T13:28:43Z</time>
      </trkpt>
      <trkpt lat="49.89686" lon="2.35038">
        <ele>49.1</ele>
        <time>2023-03-25T13:28:44Z</time>
      </trkpt>
      <trkpt lat="49.89685" lon="2.35039">
        <ele>49.1</ele>
        <time>2023-03-25T13:28:45Z</time>
      </trkpt>
      <trkpt lat="49.89684" lon="2.35042">
        <ele>49.1</ele>
        <time>2023-03-25T13:28:46Z</time>
      </trkpt>
      <trkpt lat="49.89684" lon="2.35042">
        <ele>49.1</ele>
        <time>2023-03-25T13:28:47Z</time>
      </trkpt>
      <trkpt lat="49.89684" lon="2.35042">
        <ele>49.1</ele>
        <time>2023-03-25T13:28:48Z</time>
      </trkpt>
      <trkpt lat="49.89683" lon="2.35042">
        <ele>49.1</ele>
        <time>2023-03-25T13:28:49Z</time>
      </trkpt>
      <trkpt lat="49.89683" lon="2.35042">
        <ele>49.1</ele>
        <time>2023-03-25T13:28:50Z</time>
      </trkpt>
      <trkpt lat="49.89683" lon="2.35042">
        <ele>49.1</ele>
        <time>2023-03-25T13:28:51Z</time>
      </trkpt>
      <trkpt lat="49.89683" lon="2.35042">
        <ele>49.1</ele>
        <time>2023-03-25T13:28:52Z</time>
      </trkpt>
      <trkpt lat="49.89683" lon="2.35042">
        <ele>49.1</ele>
        <time>2023-03-25T13:28:53Z</time>
      </trkpt>
      <trkpt lat="49.89683" lon="2.35042">
        <ele>49.1</ele>
        <time>2023-03-25T13:28:54Z</time>
      </trkpt>
      <trkpt lat="49.89683" lon="2.35042">
        <ele>49.1</ele>
        <time>2023-03-25T13:28:55Z</time>
      </trkpt>
      <trkpt lat="49.89684" lon="2.3504">
        <ele>49.2</ele>
        <time>2023-03-25T13:28:56Z</time>
      </trkpt>
      <trkpt lat="49.89683" lon="2.35039">
        <ele>49.2</ele>
        <time>2023-03-25T13:28:58Z</time>
      </trkpt>
      <trkpt lat="49.89683" lon="2.35038">
        <ele>49.2</ele>
        <time>2023-03-25T13:28:59Z</time>
      </trkpt>
      <trkpt lat="49.89683" lon="2.35037">
        <ele>49.2</ele>
        <time>2023-03-25T13:29:00Z</time>
      </trkpt>
      <trkpt lat="49.89683" lon="2.35035">
        <ele>49.2</ele>
        <time>2023-03-25T13:29:01Z</time>
      </trkpt>
      <trkpt lat="49.89683" lon="2.35034">
        <ele>49.2</ele>
        <time>2023-03-25T13:29:02Z</time>
      </trkpt>
      <trkpt lat="49.89683" lon="2.35032">
        <ele>49.3</ele>
        <time>2023-03-25T13:29:03Z</time>
      </trkpt>
      <trkpt lat="49.89683" lon="2.35031">
        <ele>49.3</ele>
        <time>2023-03-25T13:29:04Z</time>
      </trkpt>
      <trkpt lat="49.89683" lon="2.35029">
        <ele>49.3</ele>
        <time>2023-03-25T13:29:06Z</time>
      </trkpt>
      <trkpt lat="49.89682" lon="2.35028">
        <ele>49.3</ele>
        <time>2023-03-25T13:29:07Z</time>
      </trkpt>
      <trkpt lat="49.89682" lon="2.35026">
        <ele>49.4</ele>
        <time>2023-03-25T13:29:08Z</time>
      </trkpt>
      <trkpt lat="49.89682" lon="2.35025">
        <ele>49.4</ele>
        <time>2023-03-25T13:29:10Z</time>
      </trkpt>
      <trkpt lat="49.89682" lon="2.35023">
        <ele>49.4</ele>
        <time>2023-03-25T13:29:11Z</time>
      </trkpt>
      <trkpt lat="49.89682" lon="2.35023">
        <ele>49.4</ele>
        <time>2023-03-25T13:29:13Z</time>
      </trkpt>
      <trkpt lat="49.89682" lon="2.35023">
        <ele>49.4</ele>
        <time>2023-03-25T13:29:14Z</time>
      </trkpt>
      <trkpt lat="49.89682" lon="2.35022">
        <ele>49.4</ele>
        <time>2023-03-25T13:29:15Z</time>
      </trkpt>
      <trkpt lat="49.89682" lon="2.35021">
        <ele>49.5</ele>
        <time>2023-03-25T13:29:17Z</time>
      </trkpt>
      <trkpt lat="49.89682" lon="2.3502">
        <ele>49.4</ele>
        <time>2023-03-25T13:29:18Z</time>
      </trkpt>
      <trkpt lat="49.89682" lon="2.35018">
        <ele>49.4</ele>
        <time>2023-03-25T13:29:20Z</time>
      </trkpt>
      <trkpt lat="49.89682" lon="2.35016">
        <ele>49.6</ele>
        <time>2023-03-25T13:29:21Z</time>
      </trkpt>
      <trkpt lat="49.89683" lon="2.35016">
        <ele>49.6</ele>
        <time>2023-03-25T13:29:23Z</time>
      </trkpt>
      <trkpt lat="49.89683" lon="2.35016">
        <ele>49.6</ele>
        <time>2023-03-25T13:29:24Z</time>
      </trkpt>
      <trkpt lat="49.89683" lon="2.35016">
        <ele>49.6</ele>
        <time>2023-03-25T13:29:25Z</time>
      </trkpt>
      <trkpt lat="49.89683" lon="2.35017">
        <ele>49.6</ele>
        <time>2023-03-25T13:29:26Z</time>
      </trkpt>
      <trkpt lat="49.89683" lon="2.35017">
        <ele>49.6</ele>
        <time>2023-03-25T13:29:28Z</time>
      </trkpt>
      <trkpt lat="49.89683" lon="2.35017">
        <ele>49.6</ele>
        <time>2023-03-25T13:29:29Z</time>
      </trkpt>
      <trkpt lat="49.89683" lon="2.35017">
        <ele>49.6</ele>
        <time>2023-03-25T13:29:30Z</time>
      </trkpt>
      <trkpt lat="49.89683" lon="2.35017">
        <ele>49.6</ele>
        <time>2023-03-25T13:29:31Z</time>
      </trkpt>
      <trkpt lat="49.89683" lon="2.35017">
        <ele>49.6</ele>
        <time>2023-03-25T13:29:32Z</time>
      </trkpt>
      <trkpt lat="49.89683" lon="2.35017">
        <ele>49.6</ele>
        <time>2023-03-25T13:29:33Z</time>
      </trkpt>
      <trkpt lat="49.89683" lon="2.35017">
        <ele>49.6</ele>
        <time>2023-03-25T13:29:34Z</time>
      </trkpt>
      <trkpt lat="49.89683" lon="2.35017">
        <ele>49.6</ele>
        <time>2023-03-25T13:29:35Z</time>
      </trkpt>
      <trkpt lat="49.89683" lon="2.35017">
        <ele>49.6</ele>
        <time>2023-03-25T13:29:36Z</time>
      </trkpt>
      <trkpt lat="49.89683" lon="2.35017">
        <ele>49.6</ele>
        <time>2023-03-25T13:29:37Z</time>
      </trkpt>
      <trkpt lat="49.89683" lon="2.35017">
        <ele>49.6</ele>
        <time>2023-03-25T13:29:38Z</time>
      </trkpt>
      <trkpt lat="49.89683" lon="2.35017">
        <ele>49.6</ele>
        <time>2023-03-25T13:29:39Z</time>
      </trkpt>
      <trkpt lat="49.89683" lon="2.35017">
        <ele>49.6</ele>
        <time>2023-03-25T13:29:40Z</time>
      </trkpt>
      <trkpt lat="49.89683" lon="2.35017">
        <ele>49.6</ele>
        <time>2023-03-25T13:29:41Z</time>
      </trkpt>
      <trkpt lat="49.89683" lon="2.35017">
        <ele>49.6</ele>
        <time>2023-03-25T13:29:42Z</time>
      </trkpt>
      <trkpt lat="49.89683" lon="2.35017">
        <ele>49.6</ele>
        <time>2023-03-25T13:29:43Z</time>
      </trkpt>
      <trkpt lat="49.89683" lon="2.35017">
        <ele>49.6</ele>
        <time>2023-03-25T13:29:44Z</time>
      </trkpt>
      <trkpt lat="49.89683" lon="2.3502">
        <ele>49.5</ele>
        <time>2023-03-25T13:29:45Z</time>
      </trkpt>
      <trkpt lat="49.89684" lon="2.35023">
        <ele>49.5</ele>
        <time>2023-03-25T13:29:46Z</time>
      </trkpt>
      <trkpt lat="49.89684" lon="2.35024">
        <ele>49.5</ele>
        <time>2023-03-25T13:29:47Z</time>
      </trkpt>
      <trkpt lat="49.89684" lon="2.35024">
        <ele>49.5</ele>
        <time>2023-03-25T13:29:48Z</time>
      </trkpt>
      <trkpt lat="49.89684" lon="2.3502">
        <ele>49.6</ele>
        <time>2023-03-25T13:29:50Z</time>
      </trkpt>
      <trkpt lat="49.89685" lon="2.3502">
        <ele>49.6</ele>
        <time>2023-03-25T13:29:51Z</time>
      </trkpt>
      <trkpt lat="49.89686" lon="2.3502">
        <ele>49.6</ele>
        <time>2023-03-25T13:29:53Z</time>
      </trkpt>
      <trkpt lat="49.89686" lon="2.3502">
        <ele>49.6</ele>
        <time>2023-03-25T13:29:54Z</time>
      </trkpt>
      <trkpt lat="49.89687" lon="2.35019">
        <ele>49.6</ele>
        <time>2023-03-25T13:29:55Z</time>
      </trkpt>
      <trkpt lat="49.89687" lon="2.35018">
        <ele>49.6</ele>
        <time>2023-03-25T13:29:57Z</time>
      </trkpt>
      <trkpt lat="49.89687" lon="2.35017">
        <ele>49.7</ele>
        <time>2023-03-25T13:29:58Z</time>
      </trkpt>
      <trkpt lat="49.89688" lon="2.35017">
        <ele>49.7</ele>
        <time>2023-03-25T13:29:59Z</time>
      </trkpt>
      <trkpt lat="49.89688" lon="2.35017">
        <ele>49.7</ele>
        <time>2023-03-25T13:30:01Z</time>
      </trkpt>
      <trkpt lat="49.89689" lon="2.35017">
        <ele>49.7</ele>
        <time>2023-03-25T13:30:02Z</time>
      </trkpt>
      <trkpt lat="49.89689" lon="2.35018">
        <ele>49.7</ele>
        <time>2023-03-25T13:30:03Z</time>
      </trkpt>
      <trkpt lat="49.89689" lon="2.35018">
        <ele>49.7</ele>
        <time>2023-03-25T13:30:05Z</time>
      </trkpt>
      <trkpt lat="49.89689" lon="2.35019">
        <ele>49.7</ele>
        <time>2023-03-25T13:30:06Z</time>
      </trkpt>
      <trkpt lat="49.89688" lon="2.35019">
        <ele>49.7</ele>
        <time>2023-03-25T13:30:07Z</time>
      </trkpt>
      <trkpt lat="49.89688" lon="2.3502">
        <ele>49.7</ele>
        <time>2023-03-25T13:30:09Z</time>
      </trkpt>
      <trkpt lat="49.89688" lon="2.3502">
        <ele>49.7</ele>
        <time>2023-03-25T13:30:10Z</time>
      </trkpt>
      <trkpt lat="49.89688" lon="2.35021">
        <ele>49.7</ele>
        <time>2023-03-25T13:30:11Z</time>
      </trkpt>
      <trkpt lat="49.89688" lon="2.35021">
        <ele>49.7</ele>
        <time>2023-03-25T13:30:13Z</time>
      </trkpt>
      <trkpt lat="49.89687" lon="2.35022">
        <ele>49.7</ele>
        <time>2023-03-25T13:30:14Z</time>
      </trkpt>
      <trkpt lat="49.89687" lon="2.35022">
        <ele>49.6</ele>
        <time>2023-03-25T13:30:16Z</time>
      </trkpt>
      <trkpt lat="49.89687" lon="2.35022">
        <ele>49.6</ele>
        <time>2023-03-25T13:30:17Z</time>
      </trkpt>
      <trkpt lat="49.89687" lon="2.35023">
        <ele>49.6</ele>
        <time>2023-03-25T13:30:18Z</time>
      </trkpt>
      <trkpt lat="49.89686" lon="2.35024">
        <ele>49.6</ele>
        <time>2023-03-25T13:30:19Z</time>
      </trkpt>
      <trkpt lat="49.89686" lon="2.35024">
        <ele>49.6</ele>
        <time>2023-03-25T13:30:20Z</time>
      </trkpt>
      <trkpt lat="49.89687" lon="2.35024">
        <ele>49.6</ele>
        <time>2023-03-25T13:30:21Z</time>
      </trkpt>
      <trkpt lat="49.89687" lon="2.35024">
        <ele>49.6</ele>
        <time>2023-03-25T13:30:22Z</time>
      </trkpt>
      <trkpt lat="49.89687" lon="2.35024">
        <ele>49.6</ele>
        <time>2023-03-25T13:30:23Z</time>
      </trkpt>
      <trkpt lat="49.89688" lon="2.35023">
        <ele>49.7</ele>
        <time>2023-03-25T13:30:25Z</time>
      </trkpt>
      <trkpt lat="49.89688" lon="2.35024">
        <ele>49.7</ele>
        <time>2023-03-25T13:30:26Z</time>
      </trkpt>
      <trkpt lat="49.89689" lon="2.35025">
        <ele>49.7</ele>
        <time>2023-03-25T13:30:28Z</time>
      </trkpt>
      <trkpt lat="49.89689" lon="2.35026">
        <ele>49.7</ele>
        <time>2023-03-25T13:30:29Z</time>
      </trkpt>
      <trkpt lat="49.8969" lon="2.35027">
        <ele>49.6</ele>
        <time>2023-03-25T13:30:30Z</time>
      </trkpt>
      <trkpt lat="49.8969" lon="2.35027">
        <ele>49.7</ele>
        <time>2023-03-25T13:30:31Z</time>
      </trkpt>
      <trkpt lat="49.89691" lon="2.35027">
        <ele>49.7</ele>
        <time>2023-03-25T13:30:32Z</time>
      </trkpt>
      <trkpt lat="49.89692" lon="2.35027">
        <ele>49.7</ele>
        <time>2023-03-25T13:30:33Z</time>
      </trkpt>
      <trkpt lat="49.89692" lon="2.35028">
        <ele>49.7</ele>
        <time>2023-03-25T13:30:34Z</time>
      </trkpt>
      <trkpt lat="49.89693" lon="2.35028">
        <ele>49.7</ele>
        <time>2023-03-25T13:30:36Z</time>
      </trkpt>
      <trkpt lat="49.89694" lon="2.35029">
        <ele>49.7</ele>
        <time>2023-03-25T13:30:37Z</time>
      </trkpt>
      <trkpt lat="49.89694" lon="2.35028">
        <ele>49.7</ele>
        <time>2023-03-25T13:30:38Z</time>
      </trkpt>
      <trkpt lat="49.89694" lon="2.35028">
        <ele>49.7</ele>
        <time>2023-03-25T13:30:39Z</time>
      </trkpt>
      <trkpt lat="49.89695" lon="2.35027">
        <ele>49.7</ele>
        <time>2023-03-25T13:30:41Z</time>
      </trkpt>
      <trkpt lat="49.89695" lon="2.35027">
        <ele>49.7</ele>
        <time>2023-03-25T13:30:42Z</time>
      </trkpt>
      <trkpt lat="49.89695" lon="2.35027">
        <ele>49.7</ele>
        <time>2023-03-25T13:30:44Z</time>
      </trkpt>
      <trkpt lat="49.89695" lon="2.35027">
        <ele>49.7</ele>
        <time>2023-03-25T13:30:45Z</time>
      </trkpt>
      <trkpt lat="49.89694" lon="2.35026">
        <ele>49.7</ele>
        <time>2023-03-25T13:30:46Z</time>
      </trkpt>
      <trkpt lat="49.89694" lon="2.35026">
        <ele>49.7</ele>
        <time>2023-03-25T13:30:47Z</time>
      </trkpt>
      <trkpt lat="49.89694" lon="2.35026">
        <ele>49.8</ele>
        <time>2023-03-25T13:30:49Z</time>
      </trkpt>
      <trkpt lat="49.89693" lon="2.35025">
        <ele>49.8</ele>
        <time>2023-03-25T13:30:50Z</time>
      </trkpt>
      <trkpt lat="49.89693" lon="2.35024">
        <ele>49.8</ele>
        <time>2023-03-25T13:30:51Z</time>
      </trkpt>
      <trkpt lat="49.89693" lon="2.35023">
        <ele>49.8</ele>
        <time>2023-03-25T13:30:53Z</time>
      </trkpt>
      <trkpt lat="49.89693" lon="2.35023">
        <ele>49.8</ele>
        <time>2023-03-25T13:30:54Z</time>
      </trkpt>
      <trkpt lat="49.89692" lon="2.35022">
        <ele>49.8</ele>
        <time>2023-03-25T13:30:56Z</time>
      </trkpt>
      <trkpt lat="49.89692" lon="2.35021">
        <ele>49.8</ele>
        <time>2023-03-25T13:30:57Z</time>
      </trkpt>
      <trkpt lat="49.89691" lon="2.3502">
        <ele>49.8</ele>
        <time>2023-03-25T13:30:58Z</time>
      </trkpt>
      <trkpt lat="49.89691" lon="2.3502">
        <ele>49.8</ele>
        <time>2023-03-25T13:31:00Z</time>
      </trkpt>
      <trkpt lat="49.89691" lon="2.35019">
        <ele>49.8</ele>
        <time>2023-03-25T13:31:01Z</time>
      </trkpt>
      <trkpt lat="49.89692" lon="2.35017">
        <ele>49.9</ele>
        <time>2023-03-25T13:31:02Z</time>
      </trkpt>
      <trkpt lat="49.89693" lon="2.35017">
        <ele>49.9</ele>
        <time>2023-03-25T13:31:04Z</time>
      </trkpt>
      <trkpt lat="49.89694" lon="2.35017">
        <ele>49.9</ele>
        <time>2023-03-25T13:31:05Z</time>
      </trkpt>
      <trkpt lat="49.89695" lon="2.35018">
        <ele>49.9</ele>
        <time>2023-03-25T13:31:06Z</time>
      </trkpt>
      <trkpt lat="49.89696" lon="2.35018">
        <ele>49.9</ele>
        <time>2023-03-25T13:31:07Z</time>
      </trkpt>
      <trkpt lat="49.89697" lon="2.35018">
        <ele>49.9</ele>
        <time>2023-03-25T13:31:09Z</time>
      </trkpt>
      <trkpt lat="49.89698" lon="2.35017">
        <ele>49.9</ele>
        <time>2023-03-25T13:31:10Z</time>
      </trkpt>
      <trkpt lat="49.89698" lon="2.35017">
        <ele>50</ele>
        <time>2023-03-25T13:31:11Z</time>
      </trkpt>
      <trkpt lat="49.89699" lon="2.35016">
        <ele>50</ele>
        <time>2023-03-25T13:31:12Z</time>
      </trkpt>
      <trkpt lat="49.89699" lon="2.35015">
        <ele>50</ele>
        <time>2023-03-25T13:31:13Z</time>
      </trkpt>
      <trkpt lat="49.89697" lon="2.35013">
        <ele>50</ele>
        <time>2023-03-25T13:31:14Z</time>
      </trkpt>
      <trkpt lat="49.89697" lon="2.35012">
        <ele>50</ele>
        <time>2023-03-25T13:31:16Z</time>
      </trkpt>
      <trkpt lat="49.89696" lon="2.35011">
        <ele>50.1</ele>
        <time>2023-03-25T13:31:17Z</time>
      </trkpt>
      <trkpt lat="49.89695" lon="2.35011">
        <ele>50</ele>
        <time>2023-03-25T13:31:18Z</time>
      </trkpt>
      <trkpt lat="49.89694" lon="2.35008">
        <ele>50.1</ele>
        <time>2023-03-25T13:31:20Z</time>
      </trkpt>
      <trkpt lat="49.89695" lon="2.35007">
        <ele>50.1</ele>
        <time>2023-03-25T13:31:21Z</time>
      </trkpt>
      <trkpt lat="49.89695" lon="2.35005">
        <ele>50.1</ele>
        <time>2023-03-25T13:31:22Z</time>
      </trkpt>
      <trkpt lat="49.89696" lon="2.35004">
        <ele>50.2</ele>
        <time>2023-03-25T13:31:24Z</time>
      </trkpt>
      <trkpt lat="49.89696" lon="2.35003">
        <ele>50.2</ele>
        <time>2023-03-25T13:31:25Z</time>
      </trkpt>
      <trkpt lat="49.89696" lon="2.35003">
        <ele>50.2</ele>
        <time>2023-03-25T13:31:27Z</time>
      </trkpt>
      <trkpt lat="49.89696" lon="2.35001">
        <ele>50.2</ele>
        <time>2023-03-25T13:31:28Z</time>
      </trkpt>
      <trkpt lat="49.89696" lon="2.35001">
        <ele>50.2</ele>
        <time>2023-03-25T13:31:29Z</time>
      </trkpt>
      <trkpt lat="49.89696" lon="2.35">
        <ele>50.2</ele>
        <time>2023-03-25T13:31:31Z</time>
      </trkpt>
      <trkpt lat="49.89696" lon="2.35001">
        <ele>50.2</ele>
        <time>2023-03-25T13:31:32Z</time>
      </trkpt>
      <trkpt lat="49.89696" lon="2.35001">
        <ele>50.2</ele>
        <time>2023-03-25T13:31:34Z</time>
      </trkpt>
      <trkpt lat="49.89696" lon="2.35">
        <ele>50.2</ele>
        <time>2023-03-25T13:31:35Z</time>
      </trkpt>
      <trkpt lat="49.89696" lon="2.35001">
        <ele>50.1</ele>
        <time>2023-03-25T13:31:36Z</time>
      </trkpt>
      <trkpt lat="49.89695" lon="2.35001">
        <ele>50.1</ele>
        <time>2023-03-25T13:31:38Z</time>
      </trkpt>
      <trkpt lat="49.89695" lon="2.35001">
        <ele>50.1</ele>
        <time>2023-03-25T13:31:39Z</time>
      </trkpt>
      <trkpt lat="49.89695" lon="2.35001">
        <ele>50.1</ele>
        <time>2023-03-25T13:31:40Z</time>
      </trkpt>
      <trkpt lat="49.89695" lon="2.35001">
        <ele>50.1</ele>
        <time>2023-03-25T13:31:41Z</time>
      </trkpt>
      <trkpt lat="49.89696" lon="2.35">
        <ele>50.2</ele>
        <time>2023-03-25T13:31:42Z</time>
      </trkpt>
      <trkpt lat="49.89696" lon="2.35">
        <ele>50.2</ele>
        <time>2023-03-25T13:31:43Z</time>
      </trkpt>
      <trkpt lat="49.89696" lon="2.35">
        <ele>50.2</ele>
        <time>2023-03-25T13:31:44Z</time>
      </trkpt>
      <trkpt lat="49.89696" lon="2.34999">
        <ele>50.2</ele>
        <time>2023-03-25T13:31:45Z</time>
      </trkpt>
      <trkpt lat="49.89695" lon="2.34999">
        <ele>50.2</ele>
        <time>2023-03-25T13:31:47Z</time>
      </trkpt>
      <trkpt lat="49.89695" lon="2.34998">
        <ele>50.2</ele>
        <time>2023-03-25T13:31:48Z</time>
      </trkpt>
      <trkpt lat="49.89695" lon="2.34998">
        <ele>50.2</ele>
        <time>2023-03-25T13:31:49Z</time>
      </trkpt>
      <trkpt lat="49.89695" lon="2.34997">
        <ele>50.2</ele>
        <time>2023-03-25T13:31:50Z</time>
      </trkpt>
      <trkpt lat="49.89695" lon="2.34997">
        <ele>50.2</ele>
        <time>2023-03-25T13:31:51Z</time>
      </trkpt>
      <trkpt lat="49.89695" lon="2.34997">
        <ele>50.2</ele>
        <time>2023-03-25T13:31:52Z</time>
      </trkpt>
      <trkpt lat="49.89695" lon="2.34998">
        <ele>50.2</ele>
        <time>2023-03-25T13:31:53Z</time>
      </trkpt>
      <trkpt lat="49.89694" lon="2.34998">
        <ele>50.2</ele>
        <time>2023-03-25T13:31:54Z</time>
      </trkpt>
      <trkpt lat="49.89693" lon="2.34998">
        <ele>50.2</ele>
        <time>2023-03-25T13:31:56Z</time>
      </trkpt>
      <trkpt lat="49.89692" lon="2.34999">
        <ele>50.2</ele>
        <time>2023-03-25T13:31:57Z</time>
      </trkpt>
      <trkpt lat="49.89691" lon="2.34999">
        <ele>50.2</ele>
        <time>2023-03-25T13:31:58Z</time>
      </trkpt>
      <trkpt lat="49.89691" lon="2.34999">
        <ele>50.2</ele>
        <time>2023-03-25T13:31:59Z</time>
      </trkpt>
      <trkpt lat="49.8969" lon="2.34998">
        <ele>50.2</ele>
        <time>2023-03-25T13:32:00Z</time>
      </trkpt>
      <trkpt lat="49.8969" lon="2.34999">
        <ele>50.1</ele>
        <time>2023-03-25T13:32:02Z</time>
      </trkpt>
      <trkpt lat="49.89689" lon="2.34998">
        <ele>50.1</ele>
        <time>2023-03-25T13:32:03Z</time>
      </trkpt>
      <trkpt lat="49.89689" lon="2.34999">
        <ele>50.1</ele>
        <time>2023-03-25T13:32:05Z</time>
      </trkpt>
      <trkpt lat="49.89689" lon="2.34998">
        <ele>50.1</ele>
        <time>2023-03-25T13:32:06Z</time>
      </trkpt>
      <trkpt lat="49.89689" lon="2.34999">
        <ele>50.1</ele>
        <time>2023-03-25T13:32:07Z</time>
      </trkpt>
      <trkpt lat="49.8969" lon="2.34999">
        <ele>50.1</ele>
        <time>2023-03-25T13:32:08Z</time>
      </trkpt>
      <trkpt lat="49.89689" lon="2.34999">
        <ele>50.1</ele>
        <time>2023-03-25T13:32:09Z</time>
      </trkpt>
      <trkpt lat="49.8969" lon="2.35">
        <ele>50.1</ele>
        <time>2023-03-25T13:32:10Z</time>
      </trkpt>
      <trkpt lat="49.89689" lon="2.35001">
        <ele>50.1</ele>
        <time>2023-03-25T13:32:12Z</time>
      </trkpt>
      <trkpt lat="49.89689" lon="2.35003">
        <ele>50.1</ele>
        <time>2023-03-25T13:32:13Z</time>
      </trkpt>
      <trkpt lat="49.8969" lon="2.35004">
        <ele>50.1</ele>
        <time>2023-03-25T13:32:15Z</time>
      </trkpt>
      <trkpt lat="49.8969" lon="2.35004">
        <ele>50.2</ele>
        <time>2023-03-25T13:32:16Z</time>
      </trkpt>
      <trkpt lat="49.89691" lon="2.35005">
        <ele>50.1</ele>
        <time>2023-03-25T13:32:17Z</time>
      </trkpt>
      <trkpt lat="49.89691" lon="2.35005">
        <ele>50.1</ele>
        <time>2023-03-25T13:32:19Z</time>
      </trkpt>
      <trkpt lat="49.89691" lon="2.35005">
        <ele>50.1</ele>
        <time>2023-03-25T13:32:20Z</time>
      </trkpt>
      <trkpt lat="49.89691" lon="2.35005">
        <ele>50.1</ele>
        <time>2023-03-25T13:32:21Z</time>
      </trkpt>
      <trkpt lat="49.89692" lon="2.35005">
        <ele>50.1</ele>
        <time>2023-03-25T13:32:22Z</time>
      </trkpt>
      <trkpt lat="49.89692" lon="2.35004">
        <ele>50.2</ele>
        <time>2023-03-25T13:32:23Z</time>
      </trkpt>
      <trkpt lat="49.89693" lon="2.35004">
        <ele>50.2</ele>
        <time>2023-03-25T13:32:24Z</time>
      </trkpt>
      <trkpt lat="49.89693" lon="2.35005">
        <ele>50.2</ele>
        <time>2023-03-25T13:32:25Z</time>
      </trkpt>
      <trkpt lat="49.89694" lon="2.35005">
        <ele>50.2</ele>
        <time>2023-03-25T13:32:27Z</time>
      </trkpt>
      <trkpt lat="49.89694" lon="2.35004">
        <ele>50.2</ele>
        <time>2023-03-25T13:32:28Z</time>
      </trkpt>
      <trkpt lat="49.89694" lon="2.35004">
        <ele>50.2</ele>
        <time>2023-03-25T13:32:29Z</time>
      </trkpt>
      <trkpt lat="49.89694" lon="2.35004">
        <ele>50.2</ele>
        <time>2023-03-25T13:32:30Z</time>
      </trkpt>
      <trkpt lat="49.89695" lon="2.35003">
        <ele>50.2</ele>
        <time>2023-03-25T13:32:31Z</time>
      </trkpt>
      <trkpt lat="49.89695" lon="2.35002">
        <ele>50.2</ele>
        <time>2023-03-25T13:32:32Z</time>
      </trkpt>
      <trkpt lat="49.89696" lon="2.35001">
        <ele>50.3</ele>
        <time>2023-03-25T13:32:33Z</time>
      </trkpt>
      <trkpt lat="49.89697" lon="2.34999">
        <ele>50.3</ele>
        <time>2023-03-25T13:32:35Z</time>
      </trkpt>
      <trkpt lat="49.89699" lon="2.34993">
        <ele>50.4</ele>
        <time>2023-03-25T13:32:36Z</time>
      </trkpt>
      <trkpt lat="49.897" lon="2.34991">
        <ele>50.5</ele>
        <time>2023-03-25T13:32:37Z</time>
      </trkpt>
      <trkpt lat="49.897" lon="2.34989">
        <ele>50.5</ele>
        <time>2023-03-25T13:32:39Z</time>
      </trkpt>
      <trkpt lat="49.89701" lon="2.34986">
        <ele>50.5</ele>
        <time>2023-03-25T13:32:40Z</time>
      </trkpt>
      <trkpt lat="49.89701" lon="2.34983">
        <ele>50.5</ele>
        <time>2023-03-25T13:32:41Z</time>
      </trkpt>
      <trkpt lat="49.89702" lon="2.3498">
        <ele>50.6</ele>
        <time>2023-03-25T13:32:43Z</time>
      </trkpt>
      <trkpt lat="49.89702" lon="2.34977">
        <ele>50.6</ele>
        <time>2023-03-25T13:32:44Z</time>
      </trkpt>
      <trkpt lat="49.89703" lon="2.34975">
        <ele>50.6</ele>
        <time>2023-03-25T13:32:45Z</time>
      </trkpt>
      <trkpt lat="49.89704" lon="2.34972">
        <ele>50.7</ele>
        <time>2023-03-25T13:32:47Z</time>
      </trkpt>
      <trkpt lat="49.89704" lon="2.34969">
        <ele>50.7</ele>
        <time>2023-03-25T13:32:48Z</time>
      </trkpt>
      <trkpt lat="49.89704" lon="2.34967">
        <ele>50.8</ele>
        <time>2023-03-25T13:32:49Z</time>
      </trkpt>
      <trkpt lat="49.89704" lon="2.34966">
        <ele>50.8</ele>
        <time>2023-03-25T13:32:50Z</time>
      </trkpt>
      <trkpt lat="49.89704" lon="2.34964">
        <ele>50.8</ele>
        <time>2023-03-25T13:32:51Z</time>
      </trkpt>
      <trkpt lat="49.89705" lon="2.34962">
        <ele>50.8</ele>
        <time>2023-03-25T13:32:53Z</time>
      </trkpt>
      <trkpt lat="49.89704" lon="2.34961">
        <ele>50.8</ele>
        <time>2023-03-25T13:32:54Z</time>
      </trkpt>
      <trkpt lat="49.89705" lon="2.34959">
        <ele>50.8</ele>
        <time>2023-03-25T13:32:55Z</time>
      </trkpt>
      <trkpt lat="49.89705" lon="2.34958">
        <ele>50.8</ele>
        <time>2023-03-25T13:32:57Z</time>
      </trkpt>
      <trkpt lat="49.89705" lon="2.34957">
        <ele>50.9</ele>
        <time>2023-03-25T13:32:58Z</time>
      </trkpt>
      <trkpt lat="49.89705" lon="2.34956">
        <ele>50.9</ele>
        <time>2023-03-25T13:32:59Z</time>
      </trkpt>
      <trkpt lat="49.89706" lon="2.34956">
        <ele>50.9</ele>
        <time>2023-03-25T13:33:00Z</time>
      </trkpt>
      <trkpt lat="49.89706" lon="2.34956">
        <ele>50.9</ele>
        <time>2023-03-25T13:33:02Z</time>
      </trkpt>
      <trkpt lat="49.89706" lon="2.34955">
        <ele>50.9</ele>
        <time>2023-03-25T13:33:03Z</time>
      </trkpt>
      <trkpt lat="49.89706" lon="2.34956">
        <ele>50.9</ele>
        <time>2023-03-25T13:33:04Z</time>
      </trkpt>
      <trkpt lat="49.89706" lon="2.34956">
        <ele>50.9</ele>
        <time>2023-03-25T13:33:06Z</time>
      </trkpt>
      <trkpt lat="49.89706" lon="2.34956">
        <ele>50.9</ele>
        <time>2023-03-25T13:33:07Z</time>
      </trkpt>
      <trkpt lat="49.89706" lon="2.34956">
        <ele>50.9</ele>
        <time>2023-03-25T13:33:08Z</time>
      </trkpt>
      <trkpt lat="49.89707" lon="2.34955">
        <ele>50.9</ele>
        <time>2023-03-25T13:33:09Z</time>
      </trkpt>
      <trkpt lat="49.89707" lon="2.34955">
        <ele>51</ele>
        <time>2023-03-25T13:33:10Z</time>
      </trkpt>
      <trkpt lat="49.89707" lon="2.34955">
        <ele>51</ele>
        <time>2023-03-25T13:33:11Z</time>
      </trkpt>
      <trkpt lat="49.89708" lon="2.34955">
        <ele>51</ele>
        <time>2023-03-25T13:33:12Z</time>
      </trkpt>
      <trkpt lat="49.89709" lon="2.34954">
        <ele>51</ele>
        <time>2023-03-25T13:33:14Z</time>
      </trkpt>
      <trkpt lat="49.8971" lon="2.34954">
        <ele>51</ele>
        <time>2023-03-25T13:33:15Z</time>
      </trkpt>
      <trkpt lat="49.8971" lon="2.34953">
        <ele>51</ele>
        <time>2023-03-25T13:33:16Z</time>
      </trkpt>
      <trkpt lat="49.8971" lon="2.34953">
        <ele>51.1</ele>
        <time>2023-03-25T13:33:18Z</time>
      </trkpt>
      <trkpt lat="49.89711" lon="2.34952">
        <ele>51.1</ele>
        <time>2023-03-25T13:33:19Z</time>
      </trkpt>
      <trkpt lat="49.89712" lon="2.34951">
        <ele>51.1</ele>
        <time>2023-03-25T13:33:20Z</time>
      </trkpt>
      <trkpt lat="49.89712" lon="2.3495">
        <ele>51.1</ele>
        <time>2023-03-25T13:33:21Z</time>
      </trkpt>
      <trkpt lat="49.89712" lon="2.34949">
        <ele>51.1</ele>
        <time>2023-03-25T13:33:22Z</time>
      </trkpt>
      <trkpt lat="49.89712" lon="2.34947">
        <ele>51.1</ele>
        <time>2023-03-25T13:33:23Z</time>
      </trkpt>
      <trkpt lat="49.89712" lon="2.34946">
        <ele>51.1</ele>
        <time>2023-03-25T13:33:25Z</time>
      </trkpt>
      <trkpt lat="49.89713" lon="2.34943">
        <ele>51.2</ele>
        <time>2023-03-25T13:33:26Z</time>
      </trkpt>
      <trkpt lat="49.89713" lon="2.34942">
        <ele>51.2</ele>
        <time>2023-03-25T13:33:27Z</time>
      </trkpt>
      <trkpt lat="49.89713" lon="2.34941">
        <ele>51.2</ele>
        <time>2023-03-25T13:33:28Z</time>
      </trkpt>
      <trkpt lat="49.89713" lon="2.34939">
        <ele>51.2</ele>
        <time>2023-03-25T13:33:30Z</time>
      </trkpt>
      <trkpt lat="49.89713" lon="2.34939">
        <ele>51.2</ele>
        <time>2023-03-25T13:33:31Z</time>
      </trkpt>
      <trkpt lat="49.89713" lon="2.34937">
        <ele>51.2</ele>
        <time>2023-03-25T13:33:32Z</time>
      </trkpt>
      <trkpt lat="49.89713" lon="2.34937">
        <ele>51.2</ele>
        <time>2023-03-25T13:33:33Z</time>
      </trkpt>
      <trkpt lat="49.89713" lon="2.34936">
        <ele>51.2</ele>
        <time>2023-03-25T13:33:34Z</time>
      </trkpt>
      <trkpt lat="49.89713" lon="2.34935">
        <ele>51.2</ele>
        <time>2023-03-25T13:33:35Z</time>
      </trkpt>
      <trkpt lat="49.89713" lon="2.34933">
        <ele>51.2</ele>
        <time>2023-03-25T13:33:36Z</time>
      </trkpt>
      <trkpt lat="49.89712" lon="2.34932">
        <ele>51.1</ele>
        <time>2023-03-25T13:33:38Z</time>
      </trkpt>
      <trkpt lat="49.89712" lon="2.34931">
        <ele>51.1</ele>
        <time>2023-03-25T13:33:39Z</time>
      </trkpt>
      <trkpt lat="49.89712" lon="2.3493">
        <ele>51.1</ele>
        <time>2023-03-25T13:33:41Z</time>
      </trkpt>
      <trkpt lat="49.89712" lon="2.34929">
        <ele>51.1</ele>
        <time>2023-03-25T13:33:42Z</time>
      </trkpt>
      <trkpt lat="49.89712" lon="2.34929">
        <ele>51.1</ele>
        <time>2023-03-25T13:33:43Z</time>
      </trkpt>
      <trkpt lat="49.89712" lon="2.34928">
        <ele>51.2</ele>
        <time>2023-03-25T13:33:45Z</time>
      </trkpt>
      <trkpt lat="49.89713" lon="2.34928">
        <ele>51.2</ele>
        <time>2023-03-25T13:33:46Z</time>
      </trkpt>
      <trkpt lat="49.89713" lon="2.34927">
        <ele>51.2</ele>
        <time>2023-03-25T13:33:47Z</time>
      </trkpt>
      <trkpt lat="49.89714" lon="2.34927">
        <ele>51.2</ele>
        <time>2023-03-25T13:33:48Z</time>
      </trkpt>
      <trkpt lat="49.89715" lon="2.34927">
        <ele>51.2</ele>
        <time>2023-03-25T13:33:49Z</time>
      </trkpt>
      <trkpt lat="49.89715" lon="2.34926">
        <ele>51.2</ele>
        <time>2023-03-25T13:33:50Z</time>
      </trkpt>
      <trkpt lat="49.89716" lon="2.34926">
        <ele>51.2</ele>
        <time>2023-03-25T13:33:51Z</time>
      </trkpt>
      <trkpt lat="49.89719" lon="2.34925">
        <ele>51.3</ele>
        <time>2023-03-25T13:33:53Z</time>
      </trkpt>
      <trkpt lat="49.8972" lon="2.34925">
        <ele>51.3</ele>
        <time>2023-03-25T13:33:54Z</time>
      </trkpt>
      <trkpt lat="49.89722" lon="2.34924">
        <ele>51.4</ele>
        <time>2023-03-25T13:33:56Z</time>
      </trkpt>
      <trkpt lat="49.89723" lon="2.34921">
        <ele>51.4</ele>
        <time>2023-03-25T13:33:57Z</time>
      </trkpt>
      <trkpt lat="49.89723" lon="2.34915">
        <ele>51.3</ele>
        <time>2023-03-25T13:33:59Z</time>
      </trkpt>
      <trkpt lat="49.89723" lon="2.34913">
        <ele>51.3</ele>
        <time>2023-03-25T13:34:00Z</time>
      </trkpt>
      <trkpt lat="49.89723" lon="2.3491">
        <ele>51.3</ele>
        <time>2023-03-25T13:34:01Z</time>
      </trkpt>
      <trkpt lat="49.89724" lon="2.34908">
        <ele>51.3</ele>
        <time>2023-03-25T13:34:02Z</time>
      </trkpt>
      <trkpt lat="49.89724" lon="2.34906">
        <ele>51.3</ele>
        <time>2023-03-25T13:34:04Z</time>
      </trkpt>
      <trkpt lat="49.89724" lon="2.34906">
        <ele>51.3</ele>
        <time>2023-03-25T13:34:05Z</time>
      </trkpt>
      <trkpt lat="49.89724" lon="2.34905">
        <ele>51.3</ele>
        <time>2023-03-25T13:34:06Z</time>
      </trkpt>
      <trkpt lat="49.89725" lon="2.34904">
        <ele>51.3</ele>
        <time>2023-03-25T13:34:08Z</time>
      </trkpt>
      <trkpt lat="49.89725" lon="2.34904">
        <ele>51.3</ele>
        <time>2023-03-25T13:34:09Z</time>
      </trkpt>
      <trkpt lat="49.89725" lon="2.34902">
        <ele>51.3</ele>
        <time>2023-03-25T13:34:10Z</time>
      </trkpt>
      <trkpt lat="49.89725" lon="2.349">
        <ele>51.3</ele>
        <time>2023-03-25T13:34:12Z</time>
      </trkpt>
      <trkpt lat="49.89725" lon="2.34897">
        <ele>51.2</ele>
        <time>2023-03-25T13:34:13Z</time>
      </trkpt>
      <trkpt lat="49.89725" lon="2.34895">
        <ele>51.2</ele>
        <time>2023-03-25T13:34:14Z</time>
      </trkpt>
      <trkpt lat="49.89726" lon="2.34891">
        <ele>51.2</ele>
        <time>2023-03-25T13:34:17Z</time>
      </trkpt>
      <trkpt lat="49.89725" lon="2.34889">
        <ele>51.2</ele>
        <time>2023-03-25T13:34:19Z</time>
      </trkpt>
      <trkpt lat="49.89725" lon="2.34889">
        <ele>51.2</ele>
        <time>2023-03-25T13:34:20Z</time>
      </trkpt>
      <trkpt lat="49.89725" lon="2.34888">
        <ele>51.1</ele>
        <time>2023-03-25T13:34:22Z</time>
      </trkpt>
      <trkpt lat="49.89726" lon="2.34888">
        <ele>51.1</ele>
        <time>2023-03-25T13:34:23Z</time>
      </trkpt>
      <trkpt lat="49.89726" lon="2.34888">
        <ele>51.1</ele>
        <time>2023-03-25T13:34:25Z</time>
      </trkpt>
      <trkpt lat="49.89726" lon="2.34888">
        <ele>51.1</ele>
        <time>2023-03-25T13:34:26Z</time>
      </trkpt>
      <trkpt lat="49.89726" lon="2.34888">
        <ele>51.2</ele>
        <time>2023-03-25T13:34:27Z</time>
      </trkpt>
      <trkpt lat="49.89726" lon="2.34888">
        <ele>51.2</ele>
        <time>2023-03-25T13:34:30Z</time>
      </trkpt>
      <trkpt lat="49.89727" lon="2.34888">
        <ele>51.2</ele>
        <time>2023-03-25T13:34:31Z</time>
      </trkpt>
      <trkpt lat="49.89727" lon="2.34888">
        <ele>51.2</ele>
        <time>2023-03-25T13:34:33Z</time>
      </trkpt>
      <trkpt lat="49.89728" lon="2.34889">
        <ele>51.3</ele>
        <time>2023-03-25T13:34:34Z</time>
      </trkpt>
      <trkpt lat="49.89728" lon="2.3489">
        <ele>51.3</ele>
        <time>2023-03-25T13:34:35Z</time>
      </trkpt>
      <trkpt lat="49.89728" lon="2.34889">
        <ele>51.3</ele>
        <time>2023-03-25T13:34:37Z</time>
      </trkpt>
      <trkpt lat="49.89728" lon="2.34889">
        <ele>51.3</ele>
        <time>2023-03-25T13:34:38Z</time>
      </trkpt>
      <trkpt lat="49.89728" lon="2.34889">
        <ele>51.3</ele>
        <time>2023-03-25T13:34:39Z</time>
      </trkpt>
      <trkpt lat="49.89729" lon="2.34886">
        <ele>51.3</ele>
        <time>2023-03-25T13:34:40Z</time>
      </trkpt>
      <trkpt lat="49.8973" lon="2.34885">
        <ele>51.3</ele>
        <time>2023-03-25T13:34:41Z</time>
      </trkpt>
      <trkpt lat="49.8973" lon="2.34883">
        <ele>51.2</ele>
        <time>2023-03-25T13:34:42Z</time>
      </trkpt>
      <trkpt lat="49.89732" lon="2.34875">
        <ele>51.2</ele>
        <time>2023-03-25T13:34:44Z</time>
      </trkpt>
      <trkpt lat="49.89734" lon="2.34869">
        <ele>51.1</ele>
        <time>2023-03-25T13:34:45Z</time>
      </trkpt>
      <trkpt lat="49.89735" lon="2.34867">
        <ele>51.2</ele>
        <time>2023-03-25T13:34:46Z</time>
      </trkpt>
      <trkpt lat="49.89736" lon="2.34862">
        <ele>51</ele>
        <time>2023-03-25T13:34:47Z</time>
      </trkpt>
      <trkpt lat="49.89738" lon="2.34856">
        <ele>51.1</ele>
        <time>2023-03-25T13:34:48Z</time>
      </trkpt>
      <trkpt lat="49.8974" lon="2.34853">
        <ele>51</ele>
        <time>2023-03-25T13:34:49Z</time>
      </trkpt>
      <trkpt lat="49.8974" lon="2.3485">
        <ele>51</ele>
        <time>2023-03-25T13:34:51Z</time>
      </trkpt>
      <trkpt lat="49.89741" lon="2.34847">
        <ele>51</ele>
        <time>2023-03-25T13:34:52Z</time>
      </trkpt>
      <trkpt lat="49.89742" lon="2.34845">
        <ele>50.9</ele>
        <time>2023-03-25T13:34:53Z</time>
      </trkpt>
      <trkpt lat="49.89742" lon="2.34843">
        <ele>50.9</ele>
        <time>2023-03-25T13:34:54Z</time>
      </trkpt>
      <trkpt lat="49.89742" lon="2.34841">
        <ele>50.9</ele>
        <time>2023-03-25T13:34:55Z</time>
      </trkpt>
      <trkpt lat="49.89743" lon="2.34839">
        <ele>51</ele>
        <time>2023-03-25T13:34:56Z</time>
      </trkpt>
      <trkpt lat="49.89743" lon="2.34837">
        <ele>50.9</ele>
        <time>2023-03-25T13:34:57Z</time>
      </trkpt>
      <trkpt lat="49.89743" lon="2.34834">
        <ele>50.9</ele>
        <time>2023-03-25T13:34:59Z</time>
      </trkpt>
      <trkpt lat="49.89743" lon="2.34832">
        <ele>50.9</ele>
        <time>2023-03-25T13:35:00Z</time>
      </trkpt>
      <trkpt lat="49.89743" lon="2.3483">
        <ele>50.9</ele>
        <time>2023-03-25T13:35:01Z</time>
      </trkpt>
      <trkpt lat="49.89743" lon="2.34829">
        <ele>50.9</ele>
        <time>2023-03-25T13:35:02Z</time>
      </trkpt>
      <trkpt lat="49.89744" lon="2.34829">
        <ele>50.9</ele>
        <time>2023-03-25T13:35:03Z</time>
      </trkpt>
      <trkpt lat="49.89744" lon="2.34828">
        <ele>50.8</ele>
        <time>2023-03-25T13:35:04Z</time>
      </trkpt>
      <trkpt lat="49.89745" lon="2.34827">
        <ele>50.8</ele>
        <time>2023-03-25T13:35:05Z</time>
      </trkpt>
      <trkpt lat="49.89745" lon="2.34825">
        <ele>50.8</ele>
        <time>2023-03-25T13:35:07Z</time>
      </trkpt>
      <trkpt lat="49.89745" lon="2.34824">
        <ele>50.8</ele>
        <time>2023-03-25T13:35:08Z</time>
      </trkpt>
      <trkpt lat="49.89745" lon="2.34822">
        <ele>50.8</ele>
        <time>2023-03-25T13:35:09Z</time>
      </trkpt>
      <trkpt lat="49.89746" lon="2.34821">
        <ele>50.8</ele>
        <time>2023-03-25T13:35:10Z</time>
      </trkpt>
      <trkpt lat="49.89746" lon="2.34819">
        <ele>50.8</ele>
        <time>2023-03-25T13:35:11Z</time>
      </trkpt>
      <trkpt lat="49.89746" lon="2.34817">
        <ele>50.8</ele>
        <time>2023-03-25T13:35:12Z</time>
      </trkpt>
      <trkpt lat="49.89747" lon="2.34814">
        <ele>50.8</ele>
        <time>2023-03-25T13:35:13Z</time>
      </trkpt>
      <trkpt lat="49.89747" lon="2.3481">
        <ele>50.7</ele>
        <time>2023-03-25T13:35:15Z</time>
      </trkpt>
      <trkpt lat="49.89748" lon="2.34806">
        <ele>50.7</ele>
        <time>2023-03-25T13:35:16Z</time>
      </trkpt>
      <trkpt lat="49.89748" lon="2.34804">
        <ele>50.7</ele>
        <time>2023-03-25T13:35:17Z</time>
      </trkpt>
      <trkpt lat="49.89748" lon="2.34802">
        <ele>50.8</ele>
        <time>2023-03-25T13:35:18Z</time>
      </trkpt>
      <trkpt lat="49.89748" lon="2.348">
        <ele>50.8</ele>
        <time>2023-03-25T13:35:19Z</time>
      </trkpt>
      <trkpt lat="49.89749" lon="2.34797">
        <ele>50.8</ele>
        <time>2023-03-25T13:35:20Z</time>
      </trkpt>
      <trkpt lat="49.89749" lon="2.34795">
        <ele>50.8</ele>
        <time>2023-03-25T13:35:21Z</time>
      </trkpt>
      <trkpt lat="49.89749" lon="2.34793">
        <ele>50.7</ele>
        <time>2023-03-25T13:35:23Z</time>
      </trkpt>
      <trkpt lat="49.8975" lon="2.34791">
        <ele>50.7</ele>
        <time>2023-03-25T13:35:24Z</time>
      </trkpt>
      <trkpt lat="49.8975" lon="2.34788">
        <ele>50.7</ele>
        <time>2023-03-25T13:35:25Z</time>
      </trkpt>
      <trkpt lat="49.8975" lon="2.34786">
        <ele>50.7</ele>
        <time>2023-03-25T13:35:26Z</time>
      </trkpt>
      <trkpt lat="49.8975" lon="2.34785">
        <ele>50.7</ele>
        <time>2023-03-25T13:35:27Z</time>
      </trkpt>
      <trkpt lat="49.8975" lon="2.34783">
        <ele>50.7</ele>
        <time>2023-03-25T13:35:28Z</time>
      </trkpt>
      <trkpt lat="49.8975" lon="2.34781">
        <ele>50.7</ele>
        <time>2023-03-25T13:35:30Z</time>
      </trkpt>
      <trkpt lat="49.8975" lon="2.34779">
        <ele>50.7</ele>
        <time>2023-03-25T13:35:31Z</time>
      </trkpt>
      <trkpt lat="49.89751" lon="2.34775">
        <ele>50.7</ele>
        <time>2023-03-25T13:35:32Z</time>
      </trkpt>
      <trkpt lat="49.89751" lon="2.34775">
        <ele>50.7</ele>
        <time>2023-03-25T13:35:33Z</time>
      </trkpt>
      <trkpt lat="49.89751" lon="2.34773">
        <ele>50.7</ele>
        <time>2023-03-25T13:35:34Z</time>
      </trkpt>
      <trkpt lat="49.8975" lon="2.34771">
        <ele>50.7</ele>
        <time>2023-03-25T13:35:35Z</time>
      </trkpt>
      <trkpt lat="49.8975" lon="2.34769">
        <ele>50.7</ele>
        <time>2023-03-25T13:35:36Z</time>
      </trkpt>
      <trkpt lat="49.8975" lon="2.34766">
        <ele>50.7</ele>
        <time>2023-03-25T13:35:38Z</time>
      </trkpt>
      <trkpt lat="49.8975" lon="2.34765">
        <ele>50.7</ele>
        <time>2023-03-25T13:35:39Z</time>
      </trkpt>
      <trkpt lat="49.8975" lon="2.34763">
        <ele>50.7</ele>
        <time>2023-03-25T13:35:40Z</time>
      </trkpt>
      <trkpt lat="49.8975" lon="2.34761">
        <ele>50.7</ele>
        <time>2023-03-25T13:35:41Z</time>
      </trkpt>
      <trkpt lat="49.8975" lon="2.34759">
        <ele>50.7</ele>
        <time>2023-03-25T13:35:42Z</time>
      </trkpt>
      <trkpt lat="49.89749" lon="2.34757">
        <ele>50.7</ele>
        <time>2023-03-25T13:35:43Z</time>
      </trkpt>
      <trkpt lat="49.89749" lon="2.34755">
        <ele>50.7</ele>
        <time>2023-03-25T13:35:45Z</time>
      </trkpt>
      <trkpt lat="49.89749" lon="2.34754">
        <ele>50.7</ele>
        <time>2023-03-25T13:35:46Z</time>
      </trkpt>
      <trkpt lat="49.89749" lon="2.34751">
        <ele>50.7</ele>
        <time>2023-03-25T13:35:47Z</time>
      </trkpt>
      <trkpt lat="49.89749" lon="2.34749">
        <ele>50.7</ele>
        <time>2023-03-25T13:35:48Z</time>
      </trkpt>
      <trkpt lat="49.89749" lon="2.34748">
        <ele>50.7</ele>
        <time>2023-03-25T13:35:49Z</time>
      </trkpt>
      <trkpt lat="49.89749" lon="2.34746">
        <ele>50.7</ele>
        <time>2023-03-25T13:35:50Z</time>
      </trkpt>
      <trkpt lat="49.89749" lon="2.34744">
        <ele>50.7</ele>
        <time>2023-03-25T13:35:51Z</time>
      </trkpt>
      <trkpt lat="49.89749" lon="2.34741">
        <ele>50.7</ele>
        <time>2023-03-25T13:35:52Z</time>
      </trkpt>
      <trkpt lat="49.89748" lon="2.3474">
        <ele>50.7</ele>
        <time>2023-03-25T13:35:53Z</time>
      </trkpt>
      <trkpt lat="49.89748" lon="2.34739">
        <ele>50.7</ele>
        <time>2023-03-25T13:35:55Z</time>
      </trkpt>
      <trkpt lat="49.89748" lon="2.34737">
        <ele>50.6</ele>
        <time>2023-03-25T13:35:56Z</time>
      </trkpt>
      <trkpt lat="49.89748" lon="2.34733">
        <ele>50.6</ele>
        <time>2023-03-25T13:35:57Z</time>
      </trkpt>
      <trkpt lat="49.89748" lon="2.34732">
        <ele>50.6</ele>
        <time>2023-03-25T13:35:58Z</time>
      </trkpt>
      <trkpt lat="49.89748" lon="2.3473">
        <ele>50.6</ele>
        <time>2023-03-25T13:35:59Z</time>
      </trkpt>
      <trkpt lat="49.89748" lon="2.34728">
        <ele>50.6</ele>
        <time>2023-03-25T13:36:00Z</time>
      </trkpt>
      <trkpt lat="49.89748" lon="2.34727">
        <ele>50.6</ele>
        <time>2023-03-25T13:36:01Z</time>
      </trkpt>
      <trkpt lat="49.89748" lon="2.34725">
        <ele>50.7</ele>
        <time>2023-03-25T13:36:03Z</time>
      </trkpt>
      <trkpt lat="49.89748" lon="2.34722">
        <ele>50.6</ele>
        <time>2023-03-25T13:36:04Z</time>
      </trkpt>
      <trkpt lat="49.89748" lon="2.3472">
        <ele>50.6</ele>
        <time>2023-03-25T13:36:05Z</time>
      </trkpt>
      <trkpt lat="49.89748" lon="2.34718">
        <ele>50.6</ele>
        <time>2023-03-25T13:36:06Z</time>
      </trkpt>
      <trkpt lat="49.89747" lon="2.34715">
        <ele>50.6</ele>
        <time>2023-03-25T13:36:07Z</time>
      </trkpt>
      <trkpt lat="49.89747" lon="2.34713">
        <ele>50.6</ele>
        <time>2023-03-25T13:36:08Z</time>
      </trkpt>
      <trkpt lat="49.89747" lon="2.34711">
        <ele>50.6</ele>
        <time>2023-03-25T13:36:10Z</time>
      </trkpt>
      <trkpt lat="49.89747" lon="2.34709">
        <ele>50.6</ele>
        <time>2023-03-25T13:36:11Z</time>
      </trkpt>
      <trkpt lat="49.89747" lon="2.34708">
        <ele>50.6</ele>
        <time>2023-03-25T13:36:12Z</time>
      </trkpt>
      <trkpt lat="49.89747" lon="2.34707">
        <ele>50.6</ele>
        <time>2023-03-25T13:36:13Z</time>
      </trkpt>
      <trkpt lat="49.89747" lon="2.34705">
        <ele>50.6</ele>
        <time>2023-03-25T13:36:14Z</time>
      </trkpt>
      <trkpt lat="49.89746" lon="2.34704">
        <ele>50.6</ele>
        <time>2023-03-25T13:36:15Z</time>
      </trkpt>
      <trkpt lat="49.89747" lon="2.34703">
        <ele>50.6</ele>
        <time>2023-03-25T13:36:17Z</time>
      </trkpt>
      <trkpt lat="49.89746" lon="2.34701">
        <ele>50.6</ele>
        <time>2023-03-25T13:36:18Z</time>
      </trkpt>
      <trkpt lat="49.89746" lon="2.347">
        <ele>50.5</ele>
        <time>2023-03-25T13:36:19Z</time>
      </trkpt>
      <trkpt lat="49.89746" lon="2.34698">
        <ele>50.6</ele>
        <time>2023-03-25T13:36:20Z</time>
      </trkpt>
      <trkpt lat="49.89746" lon="2.34697">
        <ele>50.6</ele>
        <time>2023-03-25T13:36:21Z</time>
      </trkpt>
      <trkpt lat="49.89745" lon="2.34697">
        <ele>50.5</ele>
        <time>2023-03-25T13:36:22Z</time>
      </trkpt>
      <trkpt lat="49.89744" lon="2.34696">
        <ele>50.5</ele>
        <time>2023-03-25T13:36:23Z</time>
      </trkpt>
      <trkpt lat="49.89743" lon="2.34696">
        <ele>50.5</ele>
        <time>2023-03-25T13:36:24Z</time>
      </trkpt>
      <trkpt lat="49.89742" lon="2.34694">
        <ele>50.4</ele>
        <time>2023-03-25T13:36:26Z</time>
      </trkpt>
      <trkpt lat="49.89741" lon="2.34692">
        <ele>50.4</ele>
        <time>2023-03-25T13:36:27Z</time>
      </trkpt>
      <trkpt lat="49.89741" lon="2.34691">
        <ele>50.4</ele>
        <time>2023-03-25T13:36:28Z</time>
      </trkpt>
      <trkpt lat="49.8974" lon="2.3469">
        <ele>50.4</ele>
        <time>2023-03-25T13:36:29Z</time>
      </trkpt>
      <trkpt lat="49.8974" lon="2.34689">
        <ele>50.3</ele>
        <time>2023-03-25T13:36:31Z</time>
      </trkpt>
      <trkpt lat="49.89739" lon="2.34689">
        <ele>50.3</ele>
        <time>2023-03-25T13:36:32Z</time>
      </trkpt>
      <trkpt lat="49.89739" lon="2.34688">
        <ele>50.3</ele>
        <time>2023-03-25T13:36:33Z</time>
      </trkpt>
      <trkpt lat="49.89738" lon="2.34687">
        <ele>50.3</ele>
        <time>2023-03-25T13:36:35Z</time>
      </trkpt>
      <trkpt lat="49.89738" lon="2.34686">
        <ele>50.3</ele>
        <time>2023-03-25T13:36:36Z</time>
      </trkpt>
      <trkpt lat="49.89737" lon="2.34686">
        <ele>50.2</ele>
        <time>2023-03-25T13:36:38Z</time>
      </trkpt>
      <trkpt lat="49.89736" lon="2.34685">
        <ele>50.2</ele>
        <time>2023-03-25T13:36:39Z</time>
      </trkpt>
      <trkpt lat="49.89736" lon="2.34684">
        <ele>50.2</ele>
        <time>2023-03-25T13:36:40Z</time>
      </trkpt>
      <trkpt lat="49.89735" lon="2.34684">
        <ele>50.2</ele>
        <time>2023-03-25T13:36:41Z</time>
      </trkpt>
      <trkpt lat="49.89734" lon="2.34682">
        <ele>50.1</ele>
        <time>2023-03-25T13:36:42Z</time>
      </trkpt>
      <trkpt lat="49.89734" lon="2.34681">
        <ele>50.1</ele>
        <time>2023-03-25T13:36:43Z</time>
      </trkpt>
      <trkpt lat="49.89734" lon="2.3468">
        <ele>50.1</ele>
        <time>2023-03-25T13:36:45Z</time>
      </trkpt>
      <trkpt lat="49.89733" lon="2.34679">
        <ele>50.1</ele>
        <time>2023-03-25T13:36:46Z</time>
      </trkpt>
      <trkpt lat="49.89733" lon="2.34679">
        <ele>50.1</ele>
        <time>2023-03-25T13:36:47Z</time>
      </trkpt>
      <trkpt lat="49.89732" lon="2.34678">
        <ele>50.1</ele>
        <time>2023-03-25T13:36:48Z</time>
      </trkpt>
      <trkpt lat="49.89731" lon="2.34677">
        <ele>50</ele>
        <time>2023-03-25T13:36:49Z</time>
      </trkpt>
      <trkpt lat="49.89731" lon="2.34676">
        <ele>50</ele>
        <time>2023-03-25T13:36:50Z</time>
      </trkpt>
      <trkpt lat="49.89731" lon="2.34675">
        <ele>50</ele>
        <time>2023-03-25T13:36:51Z</time>
      </trkpt>
      <trkpt lat="49.89731" lon="2.34673">
        <ele>50</ele>
        <time>2023-03-25T13:36:52Z</time>
      </trkpt>
      <trkpt lat="49.8973" lon="2.34671">
        <ele>50</ele>
        <time>2023-03-25T13:36:54Z</time>
      </trkpt>
      <trkpt lat="49.89729" lon="2.3467">
        <ele>50</ele>
        <time>2023-03-25T13:36:55Z</time>
      </trkpt>
      <trkpt lat="49.89728" lon="2.3467">
        <ele>49.9</ele>
        <time>2023-03-25T13:36:56Z</time>
      </trkpt>
      <trkpt lat="49.89728" lon="2.34669">
        <ele>49.9</ele>
        <time>2023-03-25T13:36:57Z</time>
      </trkpt>
      <trkpt lat="49.89727" lon="2.34668">
        <ele>49.9</ele>
        <time>2023-03-25T13:36:58Z</time>
      </trkpt>
      <trkpt lat="49.89727" lon="2.34667">
        <ele>49.9</ele>
        <time>2023-03-25T13:36:59Z</time>
      </trkpt>
      <trkpt lat="49.89726" lon="2.34666">
        <ele>49.8</ele>
        <time>2023-03-25T13:37:00Z</time>
      </trkpt>
      <trkpt lat="49.89725" lon="2.34665">
        <ele>49.7</ele>
        <time>2023-03-25T13:37:02Z</time>
      </trkpt>
      <trkpt lat="49.89724" lon="2.34664">
        <ele>49.7</ele>
        <time>2023-03-25T13:37:03Z</time>
      </trkpt>
      <trkpt lat="49.89724" lon="2.34663">
        <ele>49.8</ele>
        <time>2023-03-25T13:37:04Z</time>
      </trkpt>
      <trkpt lat="49.89723" lon="2.34662">
        <ele>49.7</ele>
        <time>2023-03-25T13:37:05Z</time>
      </trkpt>
      <trkpt lat="49.89722" lon="2.34661">
        <ele>49.6</ele>
        <time>2023-03-25T13:37:06Z</time>
      </trkpt>
      <trkpt lat="49.89721" lon="2.3466">
        <ele>49.6</ele>
        <time>2023-03-25T13:37:07Z</time>
      </trkpt>
      <trkpt lat="49.89721" lon="2.3466">
        <ele>49.6</ele>
        <time>2023-03-25T13:37:08Z</time>
      </trkpt>
      <trkpt lat="49.8972" lon="2.3466">
        <ele>49.6</ele>
        <time>2023-03-25T13:37:10Z</time>
      </trkpt>
      <trkpt lat="49.89719" lon="2.34659">
        <ele>49.6</ele>
        <time>2023-03-25T13:37:11Z</time>
      </trkpt>
      <trkpt lat="49.89717" lon="2.34658">
        <ele>49.5</ele>
        <time>2023-03-25T13:37:12Z</time>
      </trkpt>
      <trkpt lat="49.89717" lon="2.34657">
        <ele>49.5</ele>
        <time>2023-03-25T13:37:13Z</time>
      </trkpt>
      <trkpt lat="49.89716" lon="2.34656">
        <ele>49.4</ele>
        <time>2023-03-25T13:37:14Z</time>
      </trkpt>
      <trkpt lat="49.89715" lon="2.34655">
        <ele>49.4</ele>
        <time>2023-03-25T13:37:15Z</time>
      </trkpt>
      <trkpt lat="49.89714" lon="2.34654">
        <ele>49.4</ele>
        <time>2023-03-25T13:37:16Z</time>
      </trkpt>
      <trkpt lat="49.89713" lon="2.34652">
        <ele>49.3</ele>
        <time>2023-03-25T13:37:17Z</time>
      </trkpt>
      <trkpt lat="49.89712" lon="2.3465">
        <ele>49.3</ele>
        <time>2023-03-25T13:37:19Z</time>
      </trkpt>
      <trkpt lat="49.89712" lon="2.34649">
        <ele>49.2</ele>
        <time>2023-03-25T13:37:20Z</time>
      </trkpt>
      <trkpt lat="49.89711" lon="2.34648">
        <ele>49.2</ele>
        <time>2023-03-25T13:37:21Z</time>
      </trkpt>
      <trkpt lat="49.89709" lon="2.34645">
        <ele>49.1</ele>
        <time>2023-03-25T13:37:22Z</time>
      </trkpt>
      <trkpt lat="49.89709" lon="2.34645">
        <ele>49.1</ele>
        <time>2023-03-25T13:37:23Z</time>
      </trkpt>
      <trkpt lat="49.89707" lon="2.34643">
        <ele>49</ele>
        <time>2023-03-25T13:37:24Z</time>
      </trkpt>
      <trkpt lat="49.89707" lon="2.34642">
        <ele>49</ele>
        <time>2023-03-25T13:37:26Z</time>
      </trkpt>
      <trkpt lat="49.89706" lon="2.34641">
        <ele>49</ele>
        <time>2023-03-25T13:37:27Z</time>
      </trkpt>
      <trkpt lat="49.89705" lon="2.34639">
        <ele>48.9</ele>
        <time>2023-03-25T13:37:28Z</time>
      </trkpt>
      <trkpt lat="49.89704" lon="2.34638">
        <ele>48.9</ele>
        <time>2023-03-25T13:37:29Z</time>
      </trkpt>
      <trkpt lat="49.89704" lon="2.34637">
        <ele>48.8</ele>
        <time>2023-03-25T13:37:30Z</time>
      </trkpt>
      <trkpt lat="49.89703" lon="2.34636">
        <ele>48.8</ele>
        <time>2023-03-25T13:37:31Z</time>
      </trkpt>
      <trkpt lat="49.89702" lon="2.34634">
        <ele>48.8</ele>
        <time>2023-03-25T13:37:32Z</time>
      </trkpt>
      <trkpt lat="49.89701" lon="2.34633">
        <ele>48.8</ele>
        <time>2023-03-25T13:37:34Z</time>
      </trkpt>
      <trkpt lat="49.89701" lon="2.34632">
        <ele>48.7</ele>
        <time>2023-03-25T13:37:35Z</time>
      </trkpt>
      <trkpt lat="49.897" lon="2.34631">
        <ele>48.7</ele>
        <time>2023-03-25T13:37:36Z</time>
      </trkpt>
      <trkpt lat="49.89699" lon="2.3463">
        <ele>48.6</ele>
        <time>2023-03-25T13:37:38Z</time>
      </trkpt>
      <trkpt lat="49.89698" lon="2.3463">
        <ele>48.6</ele>
        <time>2023-03-25T13:37:39Z</time>
      </trkpt>
      <trkpt lat="49.89697" lon="2.34629">
        <ele>48.6</ele>
        <time>2023-03-25T13:37:40Z</time>
      </trkpt>
      <trkpt lat="49.89697" lon="2.34627">
        <ele>48.6</ele>
        <time>2023-03-25T13:37:42Z</time>
      </trkpt>
      <trkpt lat="49.89696" lon="2.34626">
        <ele>48.4</ele>
        <time>2023-03-25T13:37:43Z</time>
      </trkpt>
      <trkpt lat="49.89695" lon="2.34625">
        <ele>48.4</ele>
        <time>2023-03-25T13:37:44Z</time>
      </trkpt>
      <trkpt lat="49.89694" lon="2.34624">
        <ele>48.4</ele>
        <time>2023-03-25T13:37:45Z</time>
      </trkpt>
      <trkpt lat="49.89693" lon="2.34621">
        <ele>48.3</ele>
        <time>2023-03-25T13:37:46Z</time>
      </trkpt>
      <trkpt lat="49.89693" lon="2.3462">
        <ele>48.3</ele>
        <time>2023-03-25T13:37:47Z</time>
      </trkpt>
      <trkpt lat="49.89692" lon="2.34618">
        <ele>48.2</ele>
        <time>2023-03-25T13:37:49Z</time>
      </trkpt>
      <trkpt lat="49.89692" lon="2.34617">
        <ele>48.2</ele>
        <time>2023-03-25T13:37:50Z</time>
      </trkpt>
      <trkpt lat="49.89691" lon="2.34615">
        <ele>48.2</ele>
        <time>2023-03-25T13:37:51Z</time>
      </trkpt>
      <trkpt lat="49.8969" lon="2.34614">
        <ele>48.2</ele>
        <time>2023-03-25T13:37:52Z</time>
      </trkpt>
      <trkpt lat="49.8969" lon="2.34613">
        <ele>48.1</ele>
        <time>2023-03-25T13:37:54Z</time>
      </trkpt>
      <trkpt lat="49.89689" lon="2.34612">
        <ele>48.1</ele>
        <time>2023-03-25T13:37:55Z</time>
      </trkpt>
      <trkpt lat="49.89688" lon="2.34611">
        <ele>48.1</ele>
        <time>2023-03-25T13:37:56Z</time>
      </trkpt>
      <trkpt lat="49.89688" lon="2.34609">
        <ele>48</ele>
        <time>2023-03-25T13:37:57Z</time>
      </trkpt>
      <trkpt lat="49.89687" lon="2.34608">
        <ele>47.9</ele>
        <time>2023-03-25T13:37:58Z</time>
      </trkpt>
      <trkpt lat="49.89686" lon="2.34607">
        <ele>47.9</ele>
        <time>2023-03-25T13:37:59Z</time>
      </trkpt>
      <trkpt lat="49.89686" lon="2.34605">
        <ele>47.8</ele>
        <time>2023-03-25T13:38:00Z</time>
      </trkpt>
      <trkpt lat="49.89685" lon="2.34604">
        <ele>47.8</ele>
        <time>2023-03-25T13:38:02Z</time>
      </trkpt>
      <trkpt lat="49.89684" lon="2.34602">
        <ele>47.8</ele>
        <time>2023-03-25T13:38:03Z</time>
      </trkpt>
      <trkpt lat="49.89684" lon="2.34601">
        <ele>47.8</ele>
        <time>2023-03-25T13:38:04Z</time>
      </trkpt>
      <trkpt lat="49.89683" lon="2.346">
        <ele>47.7</ele>
        <time>2023-03-25T13:38:05Z</time>
      </trkpt>
      <trkpt lat="49.89683" lon="2.34599">
        <ele>47.7</ele>
        <time>2023-03-25T13:38:06Z</time>
      </trkpt>
      <trkpt lat="49.89682" lon="2.34598">
        <ele>47.7</ele>
        <time>2023-03-25T13:38:07Z</time>
      </trkpt>
      <trkpt lat="49.89681" lon="2.34597">
        <ele>47.6</ele>
        <time>2023-03-25T13:38:08Z</time>
      </trkpt>
      <trkpt lat="49.89681" lon="2.34596">
        <ele>47.5</ele>
        <time>2023-03-25T13:38:09Z</time>
      </trkpt>
      <trkpt lat="49.8968" lon="2.34595">
        <ele>47.5</ele>
        <time>2023-03-25T13:38:10Z</time>
      </trkpt>
      <trkpt lat="49.8968" lon="2.34594">
        <ele>47.6</ele>
        <time>2023-03-25T13:38:12Z</time>
      </trkpt>
      <trkpt lat="49.89679" lon="2.34593">
        <ele>47.5</ele>
        <time>2023-03-25T13:38:13Z</time>
      </trkpt>
      <trkpt lat="49.89678" lon="2.34592">
        <ele>47.4</ele>
        <time>2023-03-25T13:38:14Z</time>
      </trkpt>
      <trkpt lat="49.89677" lon="2.34591">
        <ele>47.4</ele>
        <time>2023-03-25T13:38:15Z</time>
      </trkpt>
      <trkpt lat="49.89677" lon="2.3459">
        <ele>47.4</ele>
        <time>2023-03-25T13:38:16Z</time>
      </trkpt>
      <trkpt lat="49.89676" lon="2.34589">
        <ele>47.3</ele>
        <time>2023-03-25T13:38:17Z</time>
      </trkpt>
      <trkpt lat="49.89675" lon="2.34588">
        <ele>47.2</ele>
        <time>2023-03-25T13:38:19Z</time>
      </trkpt>
      <trkpt lat="49.89675" lon="2.34587">
        <ele>47.2</ele>
        <time>2023-03-25T13:38:20Z</time>
      </trkpt>
      <trkpt lat="49.89674" lon="2.34585">
        <ele>47.2</ele>
        <time>2023-03-25T13:38:21Z</time>
      </trkpt>
      <trkpt lat="49.89673" lon="2.34584">
        <ele>47.2</ele>
        <time>2023-03-25T13:38:22Z</time>
      </trkpt>
      <trkpt lat="49.89673" lon="2.34584">
        <ele>47.1</ele>
        <time>2023-03-25T13:38:23Z</time>
      </trkpt>
      <trkpt lat="49.89672" lon="2.34583">
        <ele>47.1</ele>
        <time>2023-03-25T13:38:24Z</time>
      </trkpt>
      <trkpt lat="49.89671" lon="2.34582">
        <ele>47.1</ele>
        <time>2023-03-25T13:38:25Z</time>
      </trkpt>
      <trkpt lat="49.89671" lon="2.34581">
        <ele>47</ele>
        <time>2023-03-25T13:38:27Z</time>
      </trkpt>
      <trkpt lat="49.8967" lon="2.3458">
        <ele>46.9</ele>
        <time>2023-03-25T13:38:28Z</time>
      </trkpt>
      <trkpt lat="49.89669" lon="2.34579">
        <ele>46.9</ele>
        <time>2023-03-25T13:38:29Z</time>
      </trkpt>
      <trkpt lat="49.89669" lon="2.34578">
        <ele>46.9</ele>
        <time>2023-03-25T13:38:30Z</time>
      </trkpt>
      <trkpt lat="49.89668" lon="2.34577">
        <ele>46.9</ele>
        <time>2023-03-25T13:38:31Z</time>
      </trkpt>
      <trkpt lat="49.89668" lon="2.34576">
        <ele>46.8</ele>
        <time>2023-03-25T13:38:32Z</time>
      </trkpt>
      <trkpt lat="49.89667" lon="2.34575">
        <ele>46.7</ele>
        <time>2023-03-25T13:38:34Z</time>
      </trkpt>
      <trkpt lat="49.89666" lon="2.34574">
        <ele>46.7</ele>
        <time>2023-03-25T13:38:35Z</time>
      </trkpt>
      <trkpt lat="49.89666" lon="2.34572">
        <ele>46.7</ele>
        <time>2023-03-25T13:38:36Z</time>
      </trkpt>
      <trkpt lat="49.89665" lon="2.34571">
        <ele>46.7</ele>
        <time>2023-03-25T13:38:37Z</time>
      </trkpt>
      <trkpt lat="49.89665" lon="2.3457">
        <ele>46.5</ele>
        <time>2023-03-25T13:38:38Z</time>
      </trkpt>
      <trkpt lat="49.89664" lon="2.34568">
        <ele>46.5</ele>
        <time>2023-03-25T13:38:39Z</time>
      </trkpt>
      <trkpt lat="49.89664" lon="2.34567">
        <ele>46.5</ele>
        <time>2023-03-25T13:38:41Z</time>
      </trkpt>
      <trkpt lat="49.89663" lon="2.34565">
        <ele>46.4</ele>
        <time>2023-03-25T13:38:42Z</time>
      </trkpt>
      <trkpt lat="49.89662" lon="2.34564">
        <ele>46.3</ele>
        <time>2023-03-25T13:38:43Z</time>
      </trkpt>
      <trkpt lat="49.89661" lon="2.34563">
        <ele>46.3</ele>
        <time>2023-03-25T13:38:44Z</time>
      </trkpt>
      <trkpt lat="49.89661" lon="2.34561">
        <ele>46.2</ele>
        <time>2023-03-25T13:38:45Z</time>
      </trkpt>
      <trkpt lat="49.8966" lon="2.3456">
        <ele>46.2</ele>
        <time>2023-03-25T13:38:46Z</time>
      </trkpt>
      <trkpt lat="49.89659" lon="2.34558">
        <ele>46.1</ele>
        <time>2023-03-25T13:38:47Z</time>
      </trkpt>
      <trkpt lat="49.89658" lon="2.34556">
        <ele>46</ele>
        <time>2023-03-25T13:38:49Z</time>
      </trkpt>
      <trkpt lat="49.89658" lon="2.34555">
        <ele>46</ele>
        <time>2023-03-25T13:38:50Z</time>
      </trkpt>
      <trkpt lat="49.89657" lon="2.34554">
        <ele>46</ele>
        <time>2023-03-25T13:38:51Z</time>
      </trkpt>
      <trkpt lat="49.89656" lon="2.34553">
        <ele>45.8</ele>
        <time>2023-03-25T13:38:52Z</time>
      </trkpt>
      <trkpt lat="49.89656" lon="2.34552">
        <ele>45.8</ele>
        <time>2023-03-25T13:38:53Z</time>
      </trkpt>
      <trkpt lat="49.89655" lon="2.3455">
        <ele>45.8</ele>
        <time>2023-03-25T13:38:54Z</time>
      </trkpt>
      <trkpt lat="49.89655" lon="2.34549">
        <ele>45.8</ele>
        <time>2023-03-25T13:38:55Z</time>
      </trkpt>
      <trkpt lat="49.89655" lon="2.34548">
        <ele>45.8</ele>
        <time>2023-03-25T13:38:57Z</time>
      </trkpt>
      <trkpt lat="49.89654" lon="2.34546">
        <ele>45.7</ele>
        <time>2023-03-25T13:38:58Z</time>
      </trkpt>
      <trkpt lat="49.89653" lon="2.34545">
        <ele>45.7</ele>
        <time>2023-03-25T13:38:59Z</time>
      </trkpt>
      <trkpt lat="49.89653" lon="2.34544">
        <ele>45.7</ele>
        <time>2023-03-25T13:39:00Z</time>
      </trkpt>
      <trkpt lat="49.89652" lon="2.34543">
        <ele>45.7</ele>
        <time>2023-03-25T13:39:01Z</time>
      </trkpt>
      <trkpt lat="49.89651" lon="2.34542">
        <ele>45.7</ele>
        <time>2023-03-25T13:39:02Z</time>
      </trkpt>
      <trkpt lat="49.8965" lon="2.34541">
        <ele>45.6</ele>
        <time>2023-03-25T13:39:04Z</time>
      </trkpt>
      <trkpt lat="49.89649" lon="2.3454">
        <ele>45.6</ele>
        <time>2023-03-25T13:39:05Z</time>
      </trkpt>
      <trkpt lat="49.89648" lon="2.34539">
        <ele>45.6</ele>
        <time>2023-03-25T13:39:06Z</time>
      </trkpt>
      <trkpt lat="49.89647" lon="2.34539">
        <ele>45.5</ele>
        <time>2023-03-25T13:39:08Z</time>
      </trkpt>
      <trkpt lat="49.89647" lon="2.34539">
        <ele>45.5</ele>
        <time>2023-03-25T13:39:09Z</time>
      </trkpt>
      <trkpt lat="49.89646" lon="2.34539">
        <ele>45.5</ele>
        <time>2023-03-25T13:39:10Z</time>
      </trkpt>
      <trkpt lat="49.89645" lon="2.34539">
        <ele>45.5</ele>
        <time>2023-03-25T13:39:11Z</time>
      </trkpt>
      <trkpt lat="49.89644" lon="2.34539">
        <ele>45.4</ele>
        <time>2023-03-25T13:39:12Z</time>
      </trkpt>
      <trkpt lat="49.89643" lon="2.3454">
        <ele>45.4</ele>
        <time>2023-03-25T13:39:13Z</time>
      </trkpt>
      <trkpt lat="49.89642" lon="2.3454">
        <ele>45.4</ele>
        <time>2023-03-25T13:39:15Z</time>
      </trkpt>
      <trkpt lat="49.89641" lon="2.34541">
        <ele>45.3</ele>
        <time>2023-03-25T13:39:16Z</time>
      </trkpt>
      <trkpt lat="49.8964" lon="2.34541">
        <ele>45.3</ele>
        <time>2023-03-25T13:39:17Z</time>
      </trkpt>
      <trkpt lat="49.89639" lon="2.34541">
        <ele>45.3</ele>
        <time>2023-03-25T13:39:18Z</time>
      </trkpt>
      <trkpt lat="49.89638" lon="2.34541">
        <ele>45.3</ele>
        <time>2023-03-25T13:39:19Z</time>
      </trkpt>
      <trkpt lat="49.89637" lon="2.34542">
        <ele>45.2</ele>
        <time>2023-03-25T13:39:20Z</time>
      </trkpt>
      <trkpt lat="49.89635" lon="2.34542">
        <ele>45.2</ele>
        <time>2023-03-25T13:39:21Z</time>
      </trkpt>
      <trkpt lat="49.89634" lon="2.34542">
        <ele>45.2</ele>
        <time>2023-03-25T13:39:23Z</time>
      </trkpt>
      <trkpt lat="49.89633" lon="2.34542">
        <ele>45.2</ele>
        <time>2023-03-25T13:39:24Z</time>
      </trkpt>
      <trkpt lat="49.89632" lon="2.34542">
        <ele>45.1</ele>
        <time>2023-03-25T13:39:25Z</time>
      </trkpt>
      <trkpt lat="49.89631" lon="2.34542">
        <ele>45.1</ele>
        <time>2023-03-25T13:39:26Z</time>
      </trkpt>
      <trkpt lat="49.8963" lon="2.34541">
        <ele>45.1</ele>
        <time>2023-03-25T13:39:27Z</time>
      </trkpt>
      <trkpt lat="49.89629" lon="2.34541">
        <ele>45.1</ele>
        <time>2023-03-25T13:39:28Z</time>
      </trkpt>
      <trkpt lat="49.89628" lon="2.34542">
        <ele>45.1</ele>
        <time>2023-03-25T13:39:30Z</time>
      </trkpt>
      <trkpt lat="49.89627" lon="2.34542">
        <ele>45</ele>
        <time>2023-03-25T13:39:31Z</time>
      </trkpt>
      <trkpt lat="49.89626" lon="2.34542">
        <ele>45</ele>
        <time>2023-03-25T13:39:32Z</time>
      </trkpt>
      <trkpt lat="49.89625" lon="2.34541">
        <ele>45</ele>
        <time>2023-03-25T13:39:33Z</time>
      </trkpt>
      <trkpt lat="49.89624" lon="2.34541">
        <ele>45</ele>
        <time>2023-03-25T13:39:34Z</time>
      </trkpt>
      <trkpt lat="49.89622" lon="2.3454">
        <ele>44.9</ele>
        <time>2023-03-25T13:39:35Z</time>
      </trkpt>
      <trkpt lat="49.89621" lon="2.3454">
        <ele>44.9</ele>
        <time>2023-03-25T13:39:37Z</time>
      </trkpt>
      <trkpt lat="49.8962" lon="2.34539">
        <ele>44.9</ele>
        <time>2023-03-25T13:39:38Z</time>
      </trkpt>
      <trkpt lat="49.89619" lon="2.34539">
        <ele>44.9</ele>
        <time>2023-03-25T13:39:39Z</time>
      </trkpt>
      <trkpt lat="49.89618" lon="2.34538">
        <ele>44.8</ele>
        <time>2023-03-25T13:39:40Z</time>
      </trkpt>
      <trkpt lat="49.89617" lon="2.34538">
        <ele>44.8</ele>
        <time>2023-03-25T13:39:41Z</time>
      </trkpt>
      <trkpt lat="49.89615" lon="2.34538">
        <ele>44.8</ele>
        <time>2023-03-25T13:39:42Z</time>
      </trkpt>
      <trkpt lat="49.89614" lon="2.34537">
        <ele>44.7</ele>
        <time>2023-03-25T13:39:44Z</time>
      </trkpt>
      <trkpt lat="49.89613" lon="2.34537">
        <ele>44.7</ele>
        <time>2023-03-25T13:39:45Z</time>
      </trkpt>
      <trkpt lat="49.89612" lon="2.34537">
        <ele>44.7</ele>
        <time>2023-03-25T13:39:46Z</time>
      </trkpt>
      <trkpt lat="49.89611" lon="2.34537">
        <ele>44.7</ele>
        <time>2023-03-25T13:39:47Z</time>
      </trkpt>
      <trkpt lat="49.8961" lon="2.34536">
        <ele>44.7</ele>
        <time>2023-03-25T13:39:48Z</time>
      </trkpt>
      <trkpt lat="49.89608" lon="2.34537">
        <ele>44.6</ele>
        <time>2023-03-25T13:39:49Z</time>
      </trkpt>
      <trkpt lat="49.89607" lon="2.34537">
        <ele>44.6</ele>
        <time>2023-03-25T13:39:50Z</time>
      </trkpt>
      <trkpt lat="49.89606" lon="2.34537">
        <ele>44.6</ele>
        <time>2023-03-25T13:39:51Z</time>
      </trkpt>
      <trkpt lat="49.89605" lon="2.34537">
        <ele>44.6</ele>
        <time>2023-03-25T13:39:53Z</time>
      </trkpt>
      <trkpt lat="49.89604" lon="2.34537">
        <ele>44.6</ele>
        <time>2023-03-25T13:39:54Z</time>
      </trkpt>
      <trkpt lat="49.89603" lon="2.34537">
        <ele>44.6</ele>
        <time>2023-03-25T13:39:55Z</time>
      </trkpt>
      <trkpt lat="49.89602" lon="2.34537">
        <ele>44.6</ele>
        <time>2023-03-25T13:39:56Z</time>
      </trkpt>
      <trkpt lat="49.89601" lon="2.34538">
        <ele>44.5</ele>
        <time>2023-03-25T13:39:57Z</time>
      </trkpt>
      <trkpt lat="49.896" lon="2.34538">
        <ele>44.5</ele>
        <time>2023-03-25T13:39:58Z</time>
      </trkpt>
      <trkpt lat="49.89598" lon="2.34539">
        <ele>44.5</ele>
        <time>2023-03-25T13:39:59Z</time>
      </trkpt>
      <trkpt lat="49.89597" lon="2.34539">
        <ele>44.5</ele>
        <time>2023-03-25T13:40:01Z</time>
      </trkpt>
      <trkpt lat="49.89596" lon="2.34539">
        <ele>44.5</ele>
        <time>2023-03-25T13:40:02Z</time>
      </trkpt>
      <trkpt lat="49.89595" lon="2.34539">
        <ele>44.4</ele>
        <time>2023-03-25T13:40:03Z</time>
      </trkpt>
      <trkpt lat="49.89594" lon="2.34539">
        <ele>44.4</ele>
        <time>2023-03-25T13:40:04Z</time>
      </trkpt>
      <trkpt lat="49.89593" lon="2.34539">
        <ele>44.4</ele>
        <time>2023-03-25T13:40:05Z</time>
      </trkpt>
      <trkpt lat="49.89591" lon="2.34539">
        <ele>44.4</ele>
        <time>2023-03-25T13:40:06Z</time>
      </trkpt>
      <trkpt lat="49.8959" lon="2.34539">
        <ele>44.4</ele>
        <time>2023-03-25T13:40:07Z</time>
      </trkpt>
      <trkpt lat="49.89589" lon="2.34538">
        <ele>44.4</ele>
        <time>2023-03-25T13:40:08Z</time>
      </trkpt>
      <trkpt lat="49.89587" lon="2.34538">
        <ele>44.3</ele>
        <time>2023-03-25T13:40:10Z</time>
      </trkpt>
      <trkpt lat="49.89586" lon="2.34537">
        <ele>44.3</ele>
        <time>2023-03-25T13:40:11Z</time>
      </trkpt>
      <trkpt lat="49.89586" lon="2.34537">
        <ele>44.3</ele>
        <time>2023-03-25T13:40:12Z</time>
      </trkpt>
      <trkpt lat="49.89585" lon="2.34537">
        <ele>44.3</ele>
        <time>2023-03-25T13:40:13Z</time>
      </trkpt>
      <trkpt lat="49.89583" lon="2.34536">
        <ele>44.3</ele>
        <time>2023-03-25T13:40:14Z</time>
      </trkpt>
      <trkpt lat="49.89583" lon="2.34536">
        <ele>44.2</ele>
        <time>2023-03-25T13:40:15Z</time>
      </trkpt>
      <trkpt lat="49.89581" lon="2.34537">
        <ele>44.2</ele>
        <time>2023-03-25T13:40:17Z</time>
      </trkpt>
      <trkpt lat="49.8958" lon="2.34537">
        <ele>44.2</ele>
        <time>2023-03-25T13:40:18Z</time>
      </trkpt>
      <trkpt lat="49.89579" lon="2.34536">
        <ele>44.1</ele>
        <time>2023-03-25T13:40:19Z</time>
      </trkpt>
      <trkpt lat="49.89578" lon="2.34536">
        <ele>44.1</ele>
        <time>2023-03-25T13:40:20Z</time>
      </trkpt>
      <trkpt lat="49.89577" lon="2.34536">
        <ele>44.1</ele>
        <time>2023-03-25T13:40:21Z</time>
      </trkpt>
      <trkpt lat="49.89576" lon="2.34537">
        <ele>44.1</ele>
        <time>2023-03-25T13:40:22Z</time>
      </trkpt>
      <trkpt lat="49.89574" lon="2.34537">
        <ele>44</ele>
        <time>2023-03-25T13:40:24Z</time>
      </trkpt>
      <trkpt lat="49.89573" lon="2.34538">
        <ele>44</ele>
        <time>2023-03-25T13:40:25Z</time>
      </trkpt>
      <trkpt lat="49.89572" lon="2.34538">
        <ele>44</ele>
        <time>2023-03-25T13:40:26Z</time>
      </trkpt>
      <trkpt lat="49.89571" lon="2.34538">
        <ele>43.9</ele>
        <time>2023-03-25T13:40:27Z</time>
      </trkpt>
      <trkpt lat="49.8957" lon="2.34538">
        <ele>43.9</ele>
        <time>2023-03-25T13:40:28Z</time>
      </trkpt>
      <trkpt lat="49.89569" lon="2.34538">
        <ele>43.9</ele>
        <time>2023-03-25T13:40:29Z</time>
      </trkpt>
      <trkpt lat="49.89568" lon="2.34538">
        <ele>43.9</ele>
        <time>2023-03-25T13:40:30Z</time>
      </trkpt>
      <trkpt lat="49.89567" lon="2.34538">
        <ele>43.9</ele>
        <time>2023-03-25T13:40:32Z</time>
      </trkpt>
      <trkpt lat="49.89566" lon="2.34538">
        <ele>43.8</ele>
        <time>2023-03-25T13:40:33Z</time>
      </trkpt>
      <trkpt lat="49.89565" lon="2.34537">
        <ele>43.8</ele>
        <time>2023-03-25T13:40:34Z</time>
      </trkpt>
      <trkpt lat="49.89564" lon="2.34537">
        <ele>43.8</ele>
        <time>2023-03-25T13:40:35Z</time>
      </trkpt>
      <trkpt lat="49.89564" lon="2.34536">
        <ele>43.8</ele>
        <time>2023-03-25T13:40:36Z</time>
      </trkpt>
      <trkpt lat="49.89563" lon="2.34535">
        <ele>43.7</ele>
        <time>2023-03-25T13:40:37Z</time>
      </trkpt>
      <trkpt lat="49.89562" lon="2.34535">
        <ele>43.7</ele>
        <time>2023-03-25T13:40:38Z</time>
      </trkpt>
      <trkpt lat="49.89561" lon="2.34536">
        <ele>43.7</ele>
        <time>2023-03-25T13:40:40Z</time>
      </trkpt>
      <trkpt lat="49.8956" lon="2.34536">
        <ele>43.7</ele>
        <time>2023-03-25T13:40:41Z</time>
      </trkpt>
      <trkpt lat="49.89559" lon="2.34536">
        <ele>43.6</ele>
        <time>2023-03-25T13:40:42Z</time>
      </trkpt>
      <trkpt lat="49.89558" lon="2.34537">
        <ele>43.6</ele>
        <time>2023-03-25T13:40:43Z</time>
      </trkpt>
      <trkpt lat="49.89557" lon="2.34537">
        <ele>43.6</ele>
        <time>2023-03-25T13:40:44Z</time>
      </trkpt>
      <trkpt lat="49.89556" lon="2.34536">
        <ele>43.6</ele>
        <time>2023-03-25T13:40:45Z</time>
      </trkpt>
      <trkpt lat="49.89555" lon="2.34536">
        <ele>43.5</ele>
        <time>2023-03-25T13:40:46Z</time>
      </trkpt>
      <trkpt lat="49.89554" lon="2.34536">
        <ele>43.5</ele>
        <time>2023-03-25T13:40:47Z</time>
      </trkpt>
      <trkpt lat="49.89553" lon="2.34537">
        <ele>43.5</ele>
        <time>2023-03-25T13:40:48Z</time>
      </trkpt>
      <trkpt lat="49.89551" lon="2.34537">
        <ele>43.4</ele>
        <time>2023-03-25T13:40:50Z</time>
      </trkpt>
      <trkpt lat="49.89549" lon="2.34537">
        <ele>43.4</ele>
        <time>2023-03-25T13:40:51Z</time>
      </trkpt>
      <trkpt lat="49.89548" lon="2.34538">
        <ele>43.3</ele>
        <time>2023-03-25T13:40:52Z</time>
      </trkpt>
      <trkpt lat="49.89548" lon="2.34538">
        <ele>43.3</ele>
        <time>2023-03-25T13:40:53Z</time>
      </trkpt>
      <trkpt lat="49.89547" lon="2.34538">
        <ele>43.3</ele>
        <time>2023-03-25T13:40:54Z</time>
      </trkpt>
      <trkpt lat="49.89545" lon="2.34538">
        <ele>43.3</ele>
        <time>2023-03-25T13:40:55Z</time>
      </trkpt>
      <trkpt lat="49.89544" lon="2.34538">
        <ele>43.2</ele>
        <time>2023-03-25T13:40:56Z</time>
      </trkpt>
      <trkpt lat="49.89542" lon="2.34538">
        <ele>43.2</ele>
        <time>2023-03-25T13:40:57Z</time>
      </trkpt>
      <trkpt lat="49.89541" lon="2.34538">
        <ele>43.1</ele>
        <time>2023-03-25T13:40:59Z</time>
      </trkpt>
      <trkpt lat="49.8954" lon="2.34538">
        <ele>43.1</ele>
        <time>2023-03-25T13:41:00Z</time>
      </trkpt>
      <trkpt lat="49.89539" lon="2.34538">
        <ele>43.1</ele>
        <time>2023-03-25T13:41:01Z</time>
      </trkpt>
      <trkpt lat="49.89538" lon="2.34538">
        <ele>43.1</ele>
        <time>2023-03-25T13:41:02Z</time>
      </trkpt>
      <trkpt lat="49.89537" lon="2.34539">
        <ele>43</ele>
        <time>2023-03-25T13:41:03Z</time>
      </trkpt>
      <trkpt lat="49.89536" lon="2.34539">
        <ele>43</ele>
        <time>2023-03-25T13:41:04Z</time>
      </trkpt>
      <trkpt lat="49.89535" lon="2.34539">
        <ele>43</ele>
        <time>2023-03-25T13:41:06Z</time>
      </trkpt>
      <trkpt lat="49.89534" lon="2.34539">
        <ele>42.9</ele>
        <time>2023-03-25T13:41:07Z</time>
      </trkpt>
      <trkpt lat="49.89532" lon="2.34538">
        <ele>42.9</ele>
        <time>2023-03-25T13:41:08Z</time>
      </trkpt>
      <trkpt lat="49.89531" lon="2.34538">
        <ele>42.9</ele>
        <time>2023-03-25T13:41:09Z</time>
      </trkpt>
      <trkpt lat="49.8953" lon="2.34539">
        <ele>42.8</ele>
        <time>2023-03-25T13:41:10Z</time>
      </trkpt>
      <trkpt lat="49.89529" lon="2.34539">
        <ele>42.8</ele>
        <time>2023-03-25T13:41:11Z</time>
      </trkpt>
      <trkpt lat="49.89528" lon="2.3454">
        <ele>42.8</ele>
        <time>2023-03-25T13:41:12Z</time>
      </trkpt>
      <trkpt lat="49.89527" lon="2.3454">
        <ele>42.7</ele>
        <time>2023-03-25T13:41:14Z</time>
      </trkpt>
      <trkpt lat="49.89525" lon="2.34539">
        <ele>42.7</ele>
        <time>2023-03-25T13:41:15Z</time>
      </trkpt>
      <trkpt lat="49.89524" lon="2.34539">
        <ele>42.7</ele>
        <time>2023-03-25T13:41:16Z</time>
      </trkpt>
      <trkpt lat="49.89523" lon="2.34539">
        <ele>42.7</ele>
        <time>2023-03-25T13:41:17Z</time>
      </trkpt>
      <trkpt lat="49.89522" lon="2.34539">
        <ele>42.6</ele>
        <time>2023-03-25T13:41:18Z</time>
      </trkpt>
      <trkpt lat="49.89521" lon="2.34539">
        <ele>42.6</ele>
        <time>2023-03-25T13:41:19Z</time>
      </trkpt>
      <trkpt lat="49.8952" lon="2.34539">
        <ele>42.6</ele>
        <time>2023-03-25T13:41:20Z</time>
      </trkpt>
      <trkpt lat="49.89519" lon="2.34539">
        <ele>42.5</ele>
        <time>2023-03-25T13:41:22Z</time>
      </trkpt>
      <trkpt lat="49.89518" lon="2.34539">
        <ele>42.5</ele>
        <time>2023-03-25T13:41:23Z</time>
      </trkpt>
      <trkpt lat="49.89517" lon="2.3454">
        <ele>42.5</ele>
        <time>2023-03-25T13:41:24Z</time>
      </trkpt>
      <trkpt lat="49.89516" lon="2.3454">
        <ele>42.5</ele>
        <time>2023-03-25T13:41:25Z</time>
      </trkpt>
      <trkpt lat="49.89515" lon="2.34541">
        <ele>42.4</ele>
        <time>2023-03-25T13:41:26Z</time>
      </trkpt>
      <trkpt lat="49.89513" lon="2.34541">
        <ele>42.4</ele>
        <time>2023-03-25T13:41:27Z</time>
      </trkpt>
      <trkpt lat="49.89512" lon="2.34542">
        <ele>42.4</ele>
        <time>2023-03-25T13:41:28Z</time>
      </trkpt>
      <trkpt lat="49.89511" lon="2.34542">
        <ele>42.3</ele>
        <time>2023-03-25T13:41:30Z</time>
      </trkpt>
      <trkpt lat="49.8951" lon="2.34542">
        <ele>42.3</ele>
        <time>2023-03-25T13:41:31Z</time>
      </trkpt>
      <trkpt lat="49.89509" lon="2.34543">
        <ele>42.3</ele>
        <time>2023-03-25T13:41:32Z</time>
      </trkpt>
      <trkpt lat="49.89508" lon="2.34542">
        <ele>42.3</ele>
        <time>2023-03-25T13:41:33Z</time>
      </trkpt>
      <trkpt lat="49.89507" lon="2.34542">
        <ele>42.2</ele>
        <time>2023-03-25T13:41:34Z</time>
      </trkpt>
      <trkpt lat="49.89506" lon="2.34542">
        <ele>42.2</ele>
        <time>2023-03-25T13:41:35Z</time>
      </trkpt>
      <trkpt lat="49.89504" lon="2.34542">
        <ele>42.2</ele>
        <time>2023-03-25T13:41:36Z</time>
      </trkpt>
      <trkpt lat="49.89503" lon="2.34542">
        <ele>42.2</ele>
        <time>2023-03-25T13:41:38Z</time>
      </trkpt>
      <trkpt lat="49.89502" lon="2.34542">
        <ele>42.1</ele>
        <time>2023-03-25T13:41:39Z</time>
      </trkpt>
      <trkpt lat="49.89501" lon="2.34542">
        <ele>42.1</ele>
        <time>2023-03-25T13:41:40Z</time>
      </trkpt>
      <trkpt lat="49.895" lon="2.34542">
        <ele>42.1</ele>
        <time>2023-03-25T13:41:41Z</time>
      </trkpt>
      <trkpt lat="49.89499" lon="2.34541">
        <ele>42.1</ele>
        <time>2023-03-25T13:41:42Z</time>
      </trkpt>
      <trkpt lat="49.89498" lon="2.34541">
        <ele>42</ele>
        <time>2023-03-25T13:41:43Z</time>
      </trkpt>
      <trkpt lat="49.89497" lon="2.3454">
        <ele>42</ele>
        <time>2023-03-25T13:41:44Z</time>
      </trkpt>
      <trkpt lat="49.89495" lon="2.3454">
        <ele>42</ele>
        <time>2023-03-25T13:41:46Z</time>
      </trkpt>
      <trkpt lat="49.89494" lon="2.3454">
        <ele>41.9</ele>
        <time>2023-03-25T13:41:47Z</time>
      </trkpt>
      <trkpt lat="49.89493" lon="2.3454">
        <ele>41.9</ele>
        <time>2023-03-25T13:41:48Z</time>
      </trkpt>
      <trkpt lat="49.89492" lon="2.3454">
        <ele>41.9</ele>
        <time>2023-03-25T13:41:49Z</time>
      </trkpt>
      <trkpt lat="49.89491" lon="2.3454">
        <ele>41.9</ele>
        <time>2023-03-25T13:41:50Z</time>
      </trkpt>
      <trkpt lat="49.8949" lon="2.3454">
        <ele>41.8</ele>
        <time>2023-03-25T13:41:51Z</time>
      </trkpt>
      <trkpt lat="49.89488" lon="2.3454">
        <ele>41.8</ele>
        <time>2023-03-25T13:41:53Z</time>
      </trkpt>
      <trkpt lat="49.89487" lon="2.3454">
        <ele>41.8</ele>
        <time>2023-03-25T13:41:54Z</time>
      </trkpt>
      <trkpt lat="49.89486" lon="2.34541">
        <ele>41.7</ele>
        <time>2023-03-25T13:41:55Z</time>
      </trkpt>
      <trkpt lat="49.89485" lon="2.34541">
        <ele>41.7</ele>
        <time>2023-03-25T13:41:56Z</time>
      </trkpt>
      <trkpt lat="49.89484" lon="2.34541">
        <ele>41.7</ele>
        <time>2023-03-25T13:41:57Z</time>
      </trkpt>
      <trkpt lat="49.89483" lon="2.34541">
        <ele>41.6</ele>
        <time>2023-03-25T13:41:58Z</time>
      </trkpt>
      <trkpt lat="49.89481" lon="2.34542">
        <ele>41.6</ele>
        <time>2023-03-25T13:41:59Z</time>
      </trkpt>
      <trkpt lat="49.8948" lon="2.34542">
        <ele>41.6</ele>
        <time>2023-03-25T13:42:00Z</time>
      </trkpt>
      <trkpt lat="49.89479" lon="2.34542">
        <ele>41.6</ele>
        <time>2023-03-25T13:42:02Z</time>
      </trkpt>
      <trkpt lat="49.89478" lon="2.34542">
        <ele>41.5</ele>
        <time>2023-03-25T13:42:03Z</time>
      </trkpt>
      <trkpt lat="49.89477" lon="2.34541">
        <ele>41.5</ele>
        <time>2023-03-25T13:42:04Z</time>
      </trkpt>
      <trkpt lat="49.89476" lon="2.34541">
        <ele>41.5</ele>
        <time>2023-03-25T13:42:05Z</time>
      </trkpt>
      <trkpt lat="49.89475" lon="2.34541">
        <ele>41.4</ele>
        <time>2023-03-25T13:42:06Z</time>
      </trkpt>
      <trkpt lat="49.89474" lon="2.34542">
        <ele>41.4</ele>
        <time>2023-03-25T13:42:07Z</time>
      </trkpt>
      <trkpt lat="49.89473" lon="2.34542">
        <ele>41.4</ele>
        <time>2023-03-25T13:42:08Z</time>
      </trkpt>
      <trkpt lat="49.89471" lon="2.34542">
        <ele>41.4</ele>
        <time>2023-03-25T13:42:10Z</time>
      </trkpt>
      <trkpt lat="49.8947" lon="2.34543">
        <ele>41.3</ele>
        <time>2023-03-25T13:42:11Z</time>
      </trkpt>
      <trkpt lat="49.89469" lon="2.34543">
        <ele>41.3</ele>
        <time>2023-03-25T13:42:12Z</time>
      </trkpt>
      <trkpt lat="49.89468" lon="2.34543">
        <ele>41.3</ele>
        <time>2023-03-25T13:42:13Z</time>
      </trkpt>
      <trkpt lat="49.89467" lon="2.34544">
        <ele>41.2</ele>
        <time>2023-03-25T13:42:14Z</time>
      </trkpt>
      <trkpt lat="49.89466" lon="2.34544">
        <ele>41.2</ele>
        <time>2023-03-25T13:42:15Z</time>
      </trkpt>
      <trkpt lat="49.89464" lon="2.34544">
        <ele>41.2</ele>
        <time>2023-03-25T13:42:17Z</time>
      </trkpt>
      <trkpt lat="49.89463" lon="2.34544">
        <ele>41.1</ele>
        <time>2023-03-25T13:42:18Z</time>
      </trkpt>
      <trkpt lat="49.89462" lon="2.34544">
        <ele>41.1</ele>
        <time>2023-03-25T13:42:19Z</time>
      </trkpt>
      <trkpt lat="49.89461" lon="2.34544">
        <ele>41.1</ele>
        <time>2023-03-25T13:42:20Z</time>
      </trkpt>
      <trkpt lat="49.8946" lon="2.34544">
        <ele>41.1</ele>
        <time>2023-03-25T13:42:21Z</time>
      </trkpt>
      <trkpt lat="49.89459" lon="2.34544">
        <ele>41.1</ele>
        <time>2023-03-25T13:42:22Z</time>
      </trkpt>
      <trkpt lat="49.89458" lon="2.34545">
        <ele>41.1</ele>
        <time>2023-03-25T13:42:23Z</time>
      </trkpt>
      <trkpt lat="49.89456" lon="2.34545">
        <ele>41</ele>
        <time>2023-03-25T13:42:25Z</time>
      </trkpt>
      <trkpt lat="49.89455" lon="2.34544">
        <ele>41</ele>
        <time>2023-03-25T13:42:26Z</time>
      </trkpt>
      <trkpt lat="49.89454" lon="2.34544">
        <ele>41</ele>
        <time>2023-03-25T13:42:27Z</time>
      </trkpt>
      <trkpt lat="49.89453" lon="2.34544">
        <ele>41</ele>
        <time>2023-03-25T13:42:28Z</time>
      </trkpt>
      <trkpt lat="49.89452" lon="2.34543">
        <ele>41</ele>
        <time>2023-03-25T13:42:29Z</time>
      </trkpt>
      <trkpt lat="49.89451" lon="2.34543">
        <ele>41</ele>
        <time>2023-03-25T13:42:30Z</time>
      </trkpt>
      <trkpt lat="49.8945" lon="2.34543">
        <ele>40.9</ele>
        <time>2023-03-25T13:42:31Z</time>
      </trkpt>
      <trkpt lat="49.89449" lon="2.34543">
        <ele>40.9</ele>
        <time>2023-03-25T13:42:32Z</time>
      </trkpt>
      <trkpt lat="49.89447" lon="2.34544">
        <ele>40.9</ele>
        <time>2023-03-25T13:42:34Z</time>
      </trkpt>
      <trkpt lat="49.89446" lon="2.34544">
        <ele>40.9</ele>
        <time>2023-03-25T13:42:35Z</time>
      </trkpt>
      <trkpt lat="49.89445" lon="2.34544">
        <ele>40.9</ele>
        <time>2023-03-25T13:42:36Z</time>
      </trkpt>
      <trkpt lat="49.89444" lon="2.34544">
        <ele>40.9</ele>
        <time>2023-03-25T13:42:37Z</time>
      </trkpt>
      <trkpt lat="49.89443" lon="2.34544">
        <ele>40.8</ele>
        <time>2023-03-25T13:42:38Z</time>
      </trkpt>
      <trkpt lat="49.89442" lon="2.34544">
        <ele>40.8</ele>
        <time>2023-03-25T13:42:39Z</time>
      </trkpt>
      <trkpt lat="49.8944" lon="2.34543">
        <ele>40.8</ele>
        <time>2023-03-25T13:42:40Z</time>
      </trkpt>
      <trkpt lat="49.89439" lon="2.34543">
        <ele>40.8</ele>
        <time>2023-03-25T13:42:41Z</time>
      </trkpt>
      <trkpt lat="49.89437" lon="2.34542">
        <ele>40.7</ele>
        <time>2023-03-25T13:42:42Z</time>
      </trkpt>
      <trkpt lat="49.89436" lon="2.34542">
        <ele>40.7</ele>
        <time>2023-03-25T13:42:43Z</time>
      </trkpt>
      <trkpt lat="49.89435" lon="2.34542">
        <ele>40.7</ele>
        <time>2023-03-25T13:42:45Z</time>
      </trkpt>
      <trkpt lat="49.89433" lon="2.34542">
        <ele>40.7</ele>
        <time>2023-03-25T13:42:46Z</time>
      </trkpt>
      <trkpt lat="49.89431" lon="2.34543">
        <ele>40.6</ele>
        <time>2023-03-25T13:42:47Z</time>
      </trkpt>
      <trkpt lat="49.8943" lon="2.34544">
        <ele>40.6</ele>
        <time>2023-03-25T13:42:48Z</time>
      </trkpt>
      <trkpt lat="49.89429" lon="2.34544">
        <ele>40.6</ele>
        <time>2023-03-25T13:42:49Z</time>
      </trkpt>
      <trkpt lat="49.89429" lon="2.34544">
        <ele>40.6</ele>
        <time>2023-03-25T13:42:50Z</time>
      </trkpt>
      <trkpt lat="49.89428" lon="2.34545">
        <ele>40.6</ele>
        <time>2023-03-25T13:42:51Z</time>
      </trkpt>
      <trkpt lat="49.89427" lon="2.34546">
        <ele>40.5</ele>
        <time>2023-03-25T13:42:53Z</time>
      </trkpt>
      <trkpt lat="49.89427" lon="2.34547">
        <ele>40.5</ele>
        <time>2023-03-25T13:42:54Z</time>
      </trkpt>
      <trkpt lat="49.89426" lon="2.34547">
        <ele>40.5</ele>
        <time>2023-03-25T13:42:55Z</time>
      </trkpt>
      <trkpt lat="49.89427" lon="2.34547">
        <ele>40.5</ele>
        <time>2023-03-25T13:42:57Z</time>
      </trkpt>
      <trkpt lat="49.89427" lon="2.34546">
        <ele>40.5</ele>
        <time>2023-03-25T13:42:58Z</time>
      </trkpt>
      <trkpt lat="49.89427" lon="2.34546">
        <ele>40.5</ele>
        <time>2023-03-25T13:43:00Z</time>
      </trkpt>
      <trkpt lat="49.89427" lon="2.34546">
        <ele>40.5</ele>
        <time>2023-03-25T13:43:01Z</time>
      </trkpt>
      <trkpt lat="49.89427" lon="2.34546">
        <ele>40.5</ele>
        <time>2023-03-25T13:43:03Z</time>
      </trkpt>
      <trkpt lat="49.89427" lon="2.34546">
        <ele>40.5</ele>
        <time>2023-03-25T13:43:04Z</time>
      </trkpt>
      <trkpt lat="49.89427" lon="2.34546">
        <ele>40.5</ele>
        <time>2023-03-25T13:43:05Z</time>
      </trkpt>
      <trkpt lat="49.89427" lon="2.34545">
        <ele>40.5</ele>
        <time>2023-03-25T13:43:07Z</time>
      </trkpt>
      <trkpt lat="49.89427" lon="2.34545">
        <ele>40.5</ele>
        <time>2023-03-25T13:43:08Z</time>
      </trkpt>
      <trkpt lat="49.89427" lon="2.34546">
        <ele>40.5</ele>
        <time>2023-03-25T13:43:10Z</time>
      </trkpt>
      <trkpt lat="49.89427" lon="2.34546">
        <ele>40.5</ele>
        <time>2023-03-25T13:43:11Z</time>
      </trkpt>
      <trkpt lat="49.89428" lon="2.34546">
        <ele>40.5</ele>
        <time>2023-03-25T13:43:12Z</time>
      </trkpt>
      <trkpt lat="49.89428" lon="2.34546">
        <ele>40.5</ele>
        <time>2023-03-25T13:43:13Z</time>
      </trkpt>
      <trkpt lat="49.89428" lon="2.34546">
        <ele>40.4</ele>
        <time>2023-03-25T13:43:14Z</time>
      </trkpt>
      <trkpt lat="49.89428" lon="2.34546">
        <ele>40.4</ele>
        <time>2023-03-25T13:43:15Z</time>
      </trkpt>
      <trkpt lat="49.89428" lon="2.34546">
        <ele>40.4</ele>
        <time>2023-03-25T13:43:16Z</time>
      </trkpt>
      <trkpt lat="49.89428" lon="2.34546">
        <ele>40.4</ele>
        <time>2023-03-25T13:43:17Z</time>
      </trkpt>
      <trkpt lat="49.89429" lon="2.34546">
        <ele>40.4</ele>
        <time>2023-03-25T13:43:18Z</time>
      </trkpt>
      <trkpt lat="49.89429" lon="2.34546">
        <ele>40.4</ele>
        <time>2023-03-25T13:43:19Z</time>
      </trkpt>
      <trkpt lat="49.89429" lon="2.34546">
        <ele>40.4</ele>
        <time>2023-03-25T13:43:20Z</time>
      </trkpt>
      <trkpt lat="49.89429" lon="2.34546">
        <ele>40.4</ele>
        <time>2023-03-25T13:43:21Z</time>
      </trkpt>
      <trkpt lat="49.89429" lon="2.34546">
        <ele>40.4</ele>
        <time>2023-03-25T13:43:22Z</time>
      </trkpt>
      <trkpt lat="49.89429" lon="2.34546">
        <ele>40.4</ele>
        <time>2023-03-25T13:43:23Z</time>
      </trkpt>
      <trkpt lat="49.89429" lon="2.34546">
        <ele>40.4</ele>
        <time>2023-03-25T13:43:24Z</time>
      </trkpt>
      <trkpt lat="49.89429" lon="2.34546">
        <ele>40.4</ele>
        <time>2023-03-25T13:43:25Z</time>
      </trkpt>
      <trkpt lat="49.89429" lon="2.34546">
        <ele>40.4</ele>
        <time>2023-03-25T13:43:26Z</time>
      </trkpt>
      <trkpt lat="49.89429" lon="2.34546">
        <ele>40.4</ele>
        <time>2023-03-25T13:43:27Z</time>
      </trkpt>
      <trkpt lat="49.89429" lon="2.34546">
        <ele>40.4</ele>
        <time>2023-03-25T13:43:28Z</time>
      </trkpt>
      <trkpt lat="49.89429" lon="2.34546">
        <ele>40.4</ele>
        <time>2023-03-25T13:43:29Z</time>
      </trkpt>
      <trkpt lat="49.89429" lon="2.34546">
        <ele>40.4</ele>
        <time>2023-03-25T13:43:30Z</time>
      </trkpt>
      <trkpt lat="49.89429" lon="2.34546">
        <ele>40.4</ele>
        <time>2023-03-25T13:43:31Z</time>
      </trkpt>
      <trkpt lat="49.89429" lon="2.34546">
        <ele>40.4</ele>
        <time>2023-03-25T13:43:32Z</time>
      </trkpt>
      <trkpt lat="49.89429" lon="2.34546">
        <ele>40.4</ele>
        <time>2023-03-25T13:43:33Z</time>
      </trkpt>
      <trkpt lat="49.89429" lon="2.34546">
        <ele>40.4</ele>
        <time>2023-03-25T13:43:34Z</time>
      </trkpt>
      <trkpt lat="49.89429" lon="2.34546">
        <ele>40.4</ele>
        <time>2023-03-25T13:43:35Z</time>
      </trkpt>
      <trkpt lat="49.89429" lon="2.34546">
        <ele>40.4</ele>
        <time>2023-03-25T13:43:36Z</time>
      </trkpt>
      <trkpt lat="49.89429" lon="2.34546">
        <ele>40.4</ele>
        <time>2023-03-25T13:43:37Z</time>
      </trkpt>
      <trkpt lat="49.89429" lon="2.34546">
        <ele>40.4</ele>
        <time>2023-03-25T13:43:38Z</time>
      </trkpt>
      <trkpt lat="49.89429" lon="2.34546">
        <ele>40.4</ele>
        <time>2023-03-25T13:43:39Z</time>
      </trkpt>
      <trkpt lat="49.89429" lon="2.34546">
        <ele>40.4</ele>
        <time>2023-03-25T13:43:40Z</time>
      </trkpt>
      <trkpt lat="49.89429" lon="2.34546">
        <ele>40.4</ele>
        <time>2023-03-25T13:43:41Z</time>
      </trkpt>
      <trkpt lat="49.89429" lon="2.34546">
        <ele>40.4</ele>
        <time>2023-03-25T13:43:42Z</time>
      </trkpt>
      <trkpt lat="49.89429" lon="2.34546">
        <ele>40.4</ele>
        <time>2023-03-25T13:43:43Z</time>
      </trkpt>
      <trkpt lat="49.89429" lon="2.34546">
        <ele>40.4</ele>
        <time>2023-03-25T13:43:44Z</time>
      </trkpt>
      <trkpt lat="49.89429" lon="2.34546">
        <ele>40.4</ele>
        <time>2023-03-25T13:43:45Z</time>
      </trkpt>
      <trkpt lat="49.89429" lon="2.34546">
        <ele>40.4</ele>
        <time>2023-03-25T13:43:46Z</time>
      </trkpt>
      <trkpt lat="49.89429" lon="2.34546">
        <ele>40.4</ele>
        <time>2023-03-25T13:43:47Z</time>
      </trkpt>
      <trkpt lat="49.89429" lon="2.34546">
        <ele>40.4</ele>
        <time>2023-03-25T13:43:48Z</time>
      </trkpt>
      <trkpt lat="49.89429" lon="2.34546">
        <ele>40.4</ele>
        <time>2023-03-25T13:43:49Z</time>
      </trkpt>
      <trkpt lat="49.89429" lon="2.34546">
        <ele>40.4</ele>
        <time>2023-03-25T13:43:50Z</time>
      </trkpt>
      <trkpt lat="49.89429" lon="2.34546">
        <ele>40.4</ele>
        <time>2023-03-25T13:43:51Z</time>
      </trkpt>
      <trkpt lat="49.89429" lon="2.34546">
        <ele>40.4</ele>
        <time>2023-03-25T13:43:52Z</time>
      </trkpt>
      <trkpt lat="49.89429" lon="2.34546">
        <ele>40.4</ele>
        <time>2023-03-25T13:43:53Z</time>
      </trkpt>
      <trkpt lat="49.89429" lon="2.34546">
        <ele>40.4</ele>
        <time>2023-03-25T13:43:54Z</time>
      </trkpt>
      <trkpt lat="49.89429" lon="2.34546">
        <ele>40.4</ele>
        <time>2023-03-25T13:43:55Z</time>
      </trkpt>
      <trkpt lat="49.89429" lon="2.34546">
        <ele>40.4</ele>
        <time>2023-03-25T13:43:56Z</time>
      </trkpt>
      <trkpt lat="49.89429" lon="2.34546">
        <ele>40.4</ele>
        <time>2023-03-25T13:43:57Z</time>
      </trkpt>
      <trkpt lat="49.89429" lon="2.34546">
        <ele>40.4</ele>
        <time>2023-03-25T13:43:58Z</time>
      </trkpt>
      <trkpt lat="49.89429" lon="2.34546">
        <ele>40.4</ele>
        <time>2023-03-25T13:43:59Z</time>
      </trkpt>
      <trkpt lat="49.89429" lon="2.34546">
        <ele>40.4</ele>
        <time>2023-03-25T13:44:00Z</time>
      </trkpt>
      <trkpt lat="49.89429" lon="2.34546">
        <ele>40.4</ele>
        <time>2023-03-25T13:44:01Z</time>
      </trkpt>
      <trkpt lat="49.89429" lon="2.34546">
        <ele>40.4</ele>
        <time>2023-03-25T13:44:02Z</time>
      </trkpt>
      <trkpt lat="49.89429" lon="2.34546">
        <ele>40.4</ele>
        <time>2023-03-25T13:44:03Z</time>
      </trkpt>
      <trkpt lat="49.89429" lon="2.34546">
        <ele>40.4</ele>
        <time>2023-03-25T13:44:04Z</time>
      </trkpt>
      <trkpt lat="49.89429" lon="2.34546">
        <ele>40.4</ele>
        <time>2023-03-25T13:44:05Z</time>
      </trkpt>
      <trkpt lat="49.89429" lon="2.34546">
        <ele>40.4</ele>
        <time>2023-03-25T13:44:06Z</time>
      </trkpt>
      <trkpt lat="49.89429" lon="2.34546">
        <ele>40.4</ele>
        <time>2023-03-25T13:44:07Z</time>
      </trkpt>
      <trkpt lat="49.89429" lon="2.34546">
        <ele>40.4</ele>
        <time>2023-03-25T13:44:08Z</time>
      </trkpt>
      <trkpt lat="49.89429" lon="2.34546">
        <ele>40.4</ele>
        <time>2023-03-25T13:44:09Z</time>
      </trkpt>
      <trkpt lat="49.89429" lon="2.34546">
        <ele>40.4</ele>
        <time>2023-03-25T13:44:10Z</time>
      </trkpt>
      <trkpt lat="49.89429" lon="2.34546">
        <ele>40.4</ele>
        <time>2023-03-25T13:44:11Z</time>
      </trkpt>
      <trkpt lat="49.89429" lon="2.34546">
        <ele>40.4</ele>
        <time>2023-03-25T13:44:12Z</time>
      </trkpt>
      <trkpt lat="49.89429" lon="2.34546">
        <ele>40.4</ele>
        <time>2023-03-25T13:44:13Z</time>
      </trkpt>
      <trkpt lat="49.89429" lon="2.34546">
        <ele>40.4</ele>
        <time>2023-03-25T13:44:14Z</time>
      </trkpt>
      <trkpt lat="49.89429" lon="2.34546">
        <ele>40.4</ele>
        <time>2023-03-25T13:44:15Z</time>
      </trkpt>
      <trkpt lat="49.89429" lon="2.34546">
        <ele>40.4</ele>
        <time>2023-03-25T13:44:16Z</time>
      </trkpt>
      <trkpt lat="49.89429" lon="2.34546">
        <ele>40.4</ele>
        <time>2023-03-25T13:44:17Z</time>
      </trkpt>
      <trkpt lat="49.89429" lon="2.34546">
        <ele>40.4</ele>
        <time>2023-03-25T13:44:18Z</time>
      </trkpt>
      <trkpt lat="49.89429" lon="2.34546">
        <ele>40.4</ele>
        <time>2023-03-25T13:44:19Z</time>
      </trkpt>
      <trkpt lat="49.89429" lon="2.34546">
        <ele>40.4</ele>
        <time>2023-03-25T13:44:20Z</time>
      </trkpt>
      <trkpt lat="49.89429" lon="2.34546">
        <ele>40.4</ele>
        <time>2023-03-25T13:44:21Z</time>
      </trkpt>
      <trkpt lat="49.89429" lon="2.34546">
        <ele>40.4</ele>
        <time>2023-03-25T13:44:22Z</time>
      </trkpt>
      <trkpt lat="49.89429" lon="2.34546">
        <ele>40.4</ele>
        <time>2023-03-25T13:44:23Z</time>
      </trkpt>
      <trkpt lat="49.89429" lon="2.34546">
        <ele>40.4</ele>
        <time>2023-03-25T13:44:24Z</time>
      </trkpt>
      <trkpt lat="49.89429" lon="2.34546">
        <ele>40.4</ele>
        <time>2023-03-25T13:44:25Z</time>
      </trkpt>
      <trkpt lat="49.89429" lon="2.34546">
        <ele>40.4</ele>
        <time>2023-03-25T13:44:26Z</time>
      </trkpt>
      <trkpt lat="49.89429" lon="2.34546">
        <ele>40.4</ele>
        <time>2023-03-25T13:44:27Z</time>
      </trkpt>
      <trkpt lat="49.89429" lon="2.34546">
        <ele>40.4</ele>
        <time>2023-03-25T13:44:28Z</time>
      </trkpt>
      <trkpt lat="49.89429" lon="2.34546">
        <ele>40.4</ele>
        <time>2023-03-25T13:44:29Z</time>
      </trkpt>
      <trkpt lat="49.89429" lon="2.34546">
        <ele>40.4</ele>
        <time>2023-03-25T13:44:30Z</time>
      </trkpt>
      <trkpt lat="49.8943" lon="2.34544">
        <ele>40.4</ele>
        <time>2023-03-25T13:44:31Z</time>
      </trkpt>
      <trkpt lat="49.8943" lon="2.34544">
        <ele>40.4</ele>
        <time>2023-03-25T13:44:32Z</time>
      </trkpt>
      <trkpt lat="49.89429" lon="2.34544">
        <ele>40.4</ele>
        <time>2023-03-25T13:44:33Z</time>
      </trkpt>
      <trkpt lat="49.89428" lon="2.34544">
        <ele>40.4</ele>
        <time>2023-03-25T13:44:34Z</time>
      </trkpt>
      <trkpt lat="49.89427" lon="2.34545">
        <ele>40.4</ele>
        <time>2023-03-25T13:44:35Z</time>
      </trkpt>
      <trkpt lat="49.89426" lon="2.34545">
        <ele>40.4</ele>
        <time>2023-03-25T13:44:37Z</time>
      </trkpt>
      <trkpt lat="49.89424" lon="2.34546">
        <ele>40.4</ele>
        <time>2023-03-25T13:44:38Z</time>
      </trkpt>
      <trkpt lat="49.89423" lon="2.34546">
        <ele>40.4</ele>
        <time>2023-03-25T13:44:39Z</time>
      </trkpt>
      <trkpt lat="49.89422" lon="2.34547">
        <ele>40.3</ele>
        <time>2023-03-25T13:44:40Z</time>
      </trkpt>
      <trkpt lat="49.8942" lon="2.34547">
        <ele>40.3</ele>
        <time>2023-03-25T13:44:41Z</time>
      </trkpt>
      <trkpt lat="49.89418" lon="2.34548">
        <ele>40.2</ele>
        <time>2023-03-25T13:44:42Z</time>
      </trkpt>
      <trkpt lat="49.89417" lon="2.34549">
        <ele>40.1</ele>
        <time>2023-03-25T13:44:44Z</time>
      </trkpt>
      <trkpt lat="49.89415" lon="2.34549">
        <ele>40.1</ele>
        <time>2023-03-25T13:44:45Z</time>
      </trkpt>
      <trkpt lat="49.89413" lon="2.34549">
        <ele>40</ele>
        <time>2023-03-25T13:44:46Z</time>
      </trkpt>
      <trkpt lat="49.89412" lon="2.34549">
        <ele>39.9</ele>
        <time>2023-03-25T13:44:47Z</time>
      </trkpt>
      <trkpt lat="49.8941" lon="2.34549">
        <ele>39.8</ele>
        <time>2023-03-25T13:44:48Z</time>
      </trkpt>
      <trkpt lat="49.89409" lon="2.34549">
        <ele>39.8</ele>
        <time>2023-03-25T13:44:49Z</time>
      </trkpt>
      <trkpt lat="49.89408" lon="2.34549">
        <ele>39.7</ele>
        <time>2023-03-25T13:44:50Z</time>
      </trkpt>
      <trkpt lat="49.89407" lon="2.34549">
        <ele>39.6</ele>
        <time>2023-03-25T13:44:51Z</time>
      </trkpt>
      <trkpt lat="49.89406" lon="2.34548">
        <ele>39.6</ele>
        <time>2023-03-25T13:44:52Z</time>
      </trkpt>
      <trkpt lat="49.89404" lon="2.34548">
        <ele>39.5</ele>
        <time>2023-03-25T13:44:54Z</time>
      </trkpt>
      <trkpt lat="49.89403" lon="2.34548">
        <ele>39.4</ele>
        <time>2023-03-25T13:44:55Z</time>
      </trkpt>
      <trkpt lat="49.89402" lon="2.34549">
        <ele>39.4</ele>
        <time>2023-03-25T13:44:56Z</time>
      </trkpt>
      <trkpt lat="49.89401" lon="2.34549">
        <ele>39.3</ele>
        <time>2023-03-25T13:44:57Z</time>
      </trkpt>
      <trkpt lat="49.894" lon="2.3455">
        <ele>39.2</ele>
        <time>2023-03-25T13:44:58Z</time>
      </trkpt>
      <trkpt lat="49.89399" lon="2.34549">
        <ele>39.2</ele>
        <time>2023-03-25T13:44:59Z</time>
      </trkpt>
      <trkpt lat="49.89397" lon="2.34549">
        <ele>39.1</ele>
        <time>2023-03-25T13:45:01Z</time>
      </trkpt>
      <trkpt lat="49.89396" lon="2.34549">
        <ele>39.1</ele>
        <time>2023-03-25T13:45:02Z</time>
      </trkpt>
      <trkpt lat="49.89395" lon="2.3455">
        <ele>39</ele>
        <time>2023-03-25T13:45:03Z</time>
      </trkpt>
      <trkpt lat="49.89394" lon="2.3455">
        <ele>38.9</ele>
        <time>2023-03-25T13:45:04Z</time>
      </trkpt>
      <trkpt lat="49.89393" lon="2.3455">
        <ele>38.9</ele>
        <time>2023-03-25T13:45:05Z</time>
      </trkpt>
      <trkpt lat="49.89392" lon="2.3455">
        <ele>38.8</ele>
        <time>2023-03-25T13:45:06Z</time>
      </trkpt>
      <trkpt lat="49.89391" lon="2.34551">
        <ele>38.8</ele>
        <time>2023-03-25T13:45:07Z</time>
      </trkpt>
      <trkpt lat="49.8939" lon="2.34551">
        <ele>38.7</ele>
        <time>2023-03-25T13:45:08Z</time>
      </trkpt>
      <trkpt lat="49.89389" lon="2.34552">
        <ele>38.7</ele>
        <time>2023-03-25T13:45:10Z</time>
      </trkpt>
      <trkpt lat="49.89387" lon="2.34553">
        <ele>38.6</ele>
        <time>2023-03-25T13:45:11Z</time>
      </trkpt>
      <trkpt lat="49.89386" lon="2.34554">
        <ele>38.6</ele>
        <time>2023-03-25T13:45:12Z</time>
      </trkpt>
      <trkpt lat="49.89385" lon="2.34555">
        <ele>38.5</ele>
        <time>2023-03-25T13:45:13Z</time>
      </trkpt>
      <trkpt lat="49.89383" lon="2.34556">
        <ele>38.5</ele>
        <time>2023-03-25T13:45:14Z</time>
      </trkpt>
      <trkpt lat="49.89382" lon="2.34556">
        <ele>38.5</ele>
        <time>2023-03-25T13:45:15Z</time>
      </trkpt>
      <trkpt lat="49.89381" lon="2.34557">
        <ele>38.4</ele>
        <time>2023-03-25T13:45:16Z</time>
      </trkpt>
      <trkpt lat="49.8938" lon="2.34558">
        <ele>38.4</ele>
        <time>2023-03-25T13:45:17Z</time>
      </trkpt>
      <trkpt lat="49.8938" lon="2.34559">
        <ele>38.4</ele>
        <time>2023-03-25T13:45:19Z</time>
      </trkpt>
      <trkpt lat="49.89379" lon="2.3456">
        <ele>38.4</ele>
        <time>2023-03-25T13:45:20Z</time>
      </trkpt>
      <trkpt lat="49.89378" lon="2.34561">
        <ele>38.4</ele>
        <time>2023-03-25T13:45:21Z</time>
      </trkpt>
      <trkpt lat="49.89378" lon="2.34562">
        <ele>38.4</ele>
        <time>2023-03-25T13:45:22Z</time>
      </trkpt>
      <trkpt lat="49.89377" lon="2.34562">
        <ele>38.3</ele>
        <time>2023-03-25T13:45:23Z</time>
      </trkpt>
      <trkpt lat="49.89376" lon="2.34563">
        <ele>38.3</ele>
        <time>2023-03-25T13:45:24Z</time>
      </trkpt>
      <trkpt lat="49.89375" lon="2.34563">
        <ele>38.3</ele>
        <time>2023-03-25T13:45:25Z</time>
      </trkpt>
      <trkpt lat="49.89374" lon="2.34563">
        <ele>38.3</ele>
        <time>2023-03-25T13:45:27Z</time>
      </trkpt>
      <trkpt lat="49.89373" lon="2.34563">
        <ele>38.3</ele>
        <time>2023-03-25T13:45:28Z</time>
      </trkpt>
      <trkpt lat="49.89371" lon="2.34563">
        <ele>38.2</ele>
        <time>2023-03-25T13:45:29Z</time>
      </trkpt>
      <trkpt lat="49.8937" lon="2.34563">
        <ele>38.2</ele>
        <time>2023-03-25T13:45:30Z</time>
      </trkpt>
      <trkpt lat="49.89369" lon="2.34564">
        <ele>38.2</ele>
        <time>2023-03-25T13:45:31Z</time>
      </trkpt>
      <trkpt lat="49.89368" lon="2.34564">
        <ele>38.2</ele>
        <time>2023-03-25T13:45:32Z</time>
      </trkpt>
      <trkpt lat="49.89366" lon="2.34564">
        <ele>38.2</ele>
        <time>2023-03-25T13:45:33Z</time>
      </trkpt>
      <trkpt lat="49.89365" lon="2.34563">
        <ele>38.2</ele>
        <time>2023-03-25T13:45:35Z</time>
      </trkpt>
      <trkpt lat="49.89363" lon="2.34562">
        <ele>38.1</ele>
        <time>2023-03-25T13:45:36Z</time>
      </trkpt>
      <trkpt lat="49.89363" lon="2.34561">
        <ele>38.1</ele>
        <time>2023-03-25T13:45:37Z</time>
      </trkpt>
      <trkpt lat="49.89362" lon="2.3456">
        <ele>38.1</ele>
        <time>2023-03-25T13:45:38Z</time>
      </trkpt>
      <trkpt lat="49.89361" lon="2.34558">
        <ele>38.1</ele>
        <time>2023-03-25T13:45:39Z</time>
      </trkpt>
      <trkpt lat="49.8936" lon="2.34557">
        <ele>38.1</ele>
        <time>2023-03-25T13:45:40Z</time>
      </trkpt>
      <trkpt lat="49.89359" lon="2.34554">
        <ele>38.1</ele>
        <time>2023-03-25T13:45:41Z</time>
      </trkpt>
      <trkpt lat="49.89358" lon="2.34553">
        <ele>38.1</ele>
        <time>2023-03-25T13:45:43Z</time>
      </trkpt>
      <trkpt lat="49.89357" lon="2.34552">
        <ele>38.1</ele>
        <time>2023-03-25T13:45:44Z</time>
      </trkpt>
      <trkpt lat="49.89356" lon="2.34551">
        <ele>38</ele>
        <time>2023-03-25T13:45:45Z</time>
      </trkpt>
      <trkpt lat="49.89355" lon="2.34549">
        <ele>38</ele>
        <time>2023-03-25T13:45:46Z</time>
      </trkpt>
      <trkpt lat="49.89355" lon="2.34548">
        <ele>38</ele>
        <time>2023-03-25T13:45:47Z</time>
      </trkpt>
      <trkpt lat="49.89354" lon="2.34546">
        <ele>38</ele>
        <time>2023-03-25T13:45:48Z</time>
      </trkpt>
      <trkpt lat="49.89353" lon="2.34544">
        <ele>38</ele>
        <time>2023-03-25T13:45:49Z</time>
      </trkpt>
      <trkpt lat="49.89353" lon="2.34542">
        <ele>38</ele>
        <time>2023-03-25T13:45:51Z</time>
      </trkpt>
      <trkpt lat="49.89352" lon="2.34541">
        <ele>37.9</ele>
        <time>2023-03-25T13:45:52Z</time>
      </trkpt>
      <trkpt lat="49.89352" lon="2.34539">
        <ele>37.9</ele>
        <time>2023-03-25T13:45:53Z</time>
      </trkpt>
      <trkpt lat="49.89351" lon="2.34538">
        <ele>37.9</ele>
        <time>2023-03-25T13:45:54Z</time>
      </trkpt>
      <trkpt lat="49.8935" lon="2.34536">
        <ele>37.9</ele>
        <time>2023-03-25T13:45:55Z</time>
      </trkpt>
      <trkpt lat="49.8935" lon="2.34535">
        <ele>37.9</ele>
        <time>2023-03-25T13:45:56Z</time>
      </trkpt>
      <trkpt lat="49.89349" lon="2.34534">
        <ele>37.9</ele>
        <time>2023-03-25T13:45:57Z</time>
      </trkpt>
      <trkpt lat="49.89348" lon="2.34533">
        <ele>37.9</ele>
        <time>2023-03-25T13:45:58Z</time>
      </trkpt>
      <trkpt lat="49.89347" lon="2.34531">
        <ele>37.9</ele>
        <time>2023-03-25T13:45:59Z</time>
      </trkpt>
      <trkpt lat="49.89346" lon="2.3453">
        <ele>37.8</ele>
        <time>2023-03-25T13:46:01Z</time>
      </trkpt>
      <trkpt lat="49.89346" lon="2.34529">
        <ele>37.8</ele>
        <time>2023-03-25T13:46:02Z</time>
      </trkpt>
      <trkpt lat="49.89345" lon="2.34526">
        <ele>37.8</ele>
        <time>2023-03-25T13:46:03Z</time>
      </trkpt>
      <trkpt lat="49.89344" lon="2.34525">
        <ele>37.8</ele>
        <time>2023-03-25T13:46:04Z</time>
      </trkpt>
      <trkpt lat="49.89343" lon="2.34524">
        <ele>37.8</ele>
        <time>2023-03-25T13:46:05Z</time>
      </trkpt>
      <trkpt lat="49.89343" lon="2.34523">
        <ele>37.8</ele>
        <time>2023-03-25T13:46:06Z</time>
      </trkpt>
      <trkpt lat="49.89342" lon="2.34521">
        <ele>37.8</ele>
        <time>2023-03-25T13:46:08Z</time>
      </trkpt>
      <trkpt lat="49.89341" lon="2.3452">
        <ele>37.8</ele>
        <time>2023-03-25T13:46:09Z</time>
      </trkpt>
      <trkpt lat="49.8934" lon="2.34519">
        <ele>37.8</ele>
        <time>2023-03-25T13:46:10Z</time>
      </trkpt>
      <trkpt lat="49.8934" lon="2.34517">
        <ele>37.8</ele>
        <time>2023-03-25T13:46:11Z</time>
      </trkpt>
      <trkpt lat="49.89339" lon="2.34515">
        <ele>37.7</ele>
        <time>2023-03-25T13:46:12Z</time>
      </trkpt>
      <trkpt lat="49.89339" lon="2.34514">
        <ele>37.7</ele>
        <time>2023-03-25T13:46:13Z</time>
      </trkpt>
      <trkpt lat="49.89339" lon="2.34512">
        <ele>37.7</ele>
        <time>2023-03-25T13:46:15Z</time>
      </trkpt>
      <trkpt lat="49.89339" lon="2.34511">
        <ele>37.7</ele>
        <time>2023-03-25T13:46:16Z</time>
      </trkpt>
      <trkpt lat="49.89338" lon="2.3451">
        <ele>37.7</ele>
        <time>2023-03-25T13:46:17Z</time>
      </trkpt>
      <trkpt lat="49.89337" lon="2.34509">
        <ele>37.7</ele>
        <time>2023-03-25T13:46:18Z</time>
      </trkpt>
      <trkpt lat="49.89336" lon="2.34508">
        <ele>37.7</ele>
        <time>2023-03-25T13:46:19Z</time>
      </trkpt>
      <trkpt lat="49.89334" lon="2.34506">
        <ele>37.6</ele>
        <time>2023-03-25T13:46:20Z</time>
      </trkpt>
      <trkpt lat="49.89333" lon="2.34505">
        <ele>37.6</ele>
        <time>2023-03-25T13:46:21Z</time>
      </trkpt>
      <trkpt lat="49.89333" lon="2.34505">
        <ele>37.6</ele>
        <time>2023-03-25T13:46:22Z</time>
      </trkpt>
      <trkpt lat="49.89331" lon="2.34503">
        <ele>37.6</ele>
        <time>2023-03-25T13:46:24Z</time>
      </trkpt>
      <trkpt lat="49.8933" lon="2.34503">
        <ele>37.6</ele>
        <time>2023-03-25T13:46:25Z</time>
      </trkpt>
      <trkpt lat="49.89329" lon="2.34502">
        <ele>37.6</ele>
        <time>2023-03-25T13:46:26Z</time>
      </trkpt>
      <trkpt lat="49.89328" lon="2.345">
        <ele>37.6</ele>
        <time>2023-03-25T13:46:27Z</time>
      </trkpt>
      <trkpt lat="49.89327" lon="2.34499">
        <ele>37.6</ele>
        <time>2023-03-25T13:46:28Z</time>
      </trkpt>
      <trkpt lat="49.89327" lon="2.34498">
        <ele>37.6</ele>
        <time>2023-03-25T13:46:29Z</time>
      </trkpt>
      <trkpt lat="49.89326" lon="2.34497">
        <ele>37.5</ele>
        <time>2023-03-25T13:46:30Z</time>
      </trkpt>
      <trkpt lat="49.89326" lon="2.34495">
        <ele>37.5</ele>
        <time>2023-03-25T13:46:32Z</time>
      </trkpt>
      <trkpt lat="49.89325" lon="2.34494">
        <ele>37.5</ele>
        <time>2023-03-25T13:46:33Z</time>
      </trkpt>
      <trkpt lat="49.89324" lon="2.34493">
        <ele>37.5</ele>
        <time>2023-03-25T13:46:34Z</time>
      </trkpt>
      <trkpt lat="49.89324" lon="2.34491">
        <ele>37.5</ele>
        <time>2023-03-25T13:46:35Z</time>
      </trkpt>
      <trkpt lat="49.89323" lon="2.3449">
        <ele>37.5</ele>
        <time>2023-03-25T13:46:36Z</time>
      </trkpt>
      <trkpt lat="49.89322" lon="2.34489">
        <ele>37.5</ele>
        <time>2023-03-25T13:46:37Z</time>
      </trkpt>
      <trkpt lat="49.89322" lon="2.34487">
        <ele>37.5</ele>
        <time>2023-03-25T13:46:38Z</time>
      </trkpt>
      <trkpt lat="49.89321" lon="2.34486">
        <ele>37.5</ele>
        <time>2023-03-25T13:46:40Z</time>
      </trkpt>
      <trkpt lat="49.89321" lon="2.34485">
        <ele>37.5</ele>
        <time>2023-03-25T13:46:41Z</time>
      </trkpt>
      <trkpt lat="49.8932" lon="2.34484">
        <ele>37.4</ele>
        <time>2023-03-25T13:46:42Z</time>
      </trkpt>
      <trkpt lat="49.89319" lon="2.34482">
        <ele>37.4</ele>
        <time>2023-03-25T13:46:43Z</time>
      </trkpt>
      <trkpt lat="49.89319" lon="2.34481">
        <ele>37.4</ele>
        <time>2023-03-25T13:46:44Z</time>
      </trkpt>
      <trkpt lat="49.89318" lon="2.34479">
        <ele>37.4</ele>
        <time>2023-03-25T13:46:45Z</time>
      </trkpt>
      <trkpt lat="49.89317" lon="2.34478">
        <ele>37.4</ele>
        <time>2023-03-25T13:46:46Z</time>
      </trkpt>
      <trkpt lat="49.89317" lon="2.34476">
        <ele>37.4</ele>
        <time>2023-03-25T13:46:48Z</time>
      </trkpt>
      <trkpt lat="49.89316" lon="2.34475">
        <ele>37.4</ele>
        <time>2023-03-25T13:46:49Z</time>
      </trkpt>
      <trkpt lat="49.89315" lon="2.34473">
        <ele>37.4</ele>
        <time>2023-03-25T13:46:50Z</time>
      </trkpt>
      <trkpt lat="49.89315" lon="2.34472">
        <ele>37.4</ele>
        <time>2023-03-25T13:46:51Z</time>
      </trkpt>
      <trkpt lat="49.89314" lon="2.34471">
        <ele>37.4</ele>
        <time>2023-03-25T13:46:52Z</time>
      </trkpt>
      <trkpt lat="49.89314" lon="2.3447">
        <ele>37.4</ele>
        <time>2023-03-25T13:46:53Z</time>
      </trkpt>
      <trkpt lat="49.89313" lon="2.34469">
        <ele>37.4</ele>
        <time>2023-03-25T13:46:54Z</time>
      </trkpt>
      <trkpt lat="49.89313" lon="2.34468">
        <ele>37.4</ele>
        <time>2023-03-25T13:46:55Z</time>
      </trkpt>
      <trkpt lat="49.89312" lon="2.34466">
        <ele>37.4</ele>
        <time>2023-03-25T13:46:57Z</time>
      </trkpt>
      <trkpt lat="49.89311" lon="2.34465">
        <ele>37.4</ele>
        <time>2023-03-25T13:46:58Z</time>
      </trkpt>
      <trkpt lat="49.8931" lon="2.34464">
        <ele>37.3</ele>
        <time>2023-03-25T13:46:59Z</time>
      </trkpt>
      <trkpt lat="49.8931" lon="2.34463">
        <ele>37.3</ele>
        <time>2023-03-25T13:47:00Z</time>
      </trkpt>
      <trkpt lat="49.89309" lon="2.34461">
        <ele>37.3</ele>
        <time>2023-03-25T13:47:01Z</time>
      </trkpt>
      <trkpt lat="49.89308" lon="2.3446">
        <ele>37.3</ele>
        <time>2023-03-25T13:47:02Z</time>
      </trkpt>
      <trkpt lat="49.89307" lon="2.34459">
        <ele>37.3</ele>
        <time>2023-03-25T13:47:04Z</time>
      </trkpt>
      <trkpt lat="49.89306" lon="2.34458">
        <ele>37.3</ele>
        <time>2023-03-25T13:47:05Z</time>
      </trkpt>
      <trkpt lat="49.89305" lon="2.34456">
        <ele>37.3</ele>
        <time>2023-03-25T13:47:06Z</time>
      </trkpt>
      <trkpt lat="49.89305" lon="2.34455">
        <ele>37.3</ele>
        <time>2023-03-25T13:47:07Z</time>
      </trkpt>
      <trkpt lat="49.89304" lon="2.34454">
        <ele>37.3</ele>
        <time>2023-03-25T13:47:08Z</time>
      </trkpt>
      <trkpt lat="49.89304" lon="2.34452">
        <ele>37.2</ele>
        <time>2023-03-25T13:47:09Z</time>
      </trkpt>
      <trkpt lat="49.89303" lon="2.34451">
        <ele>37.2</ele>
        <time>2023-03-25T13:47:11Z</time>
      </trkpt>
      <trkpt lat="49.89302" lon="2.34449">
        <ele>37.2</ele>
        <time>2023-03-25T13:47:12Z</time>
      </trkpt>
      <trkpt lat="49.89301" lon="2.34448">
        <ele>37.2</ele>
        <time>2023-03-25T13:47:13Z</time>
      </trkpt>
      <trkpt lat="49.89301" lon="2.34447">
        <ele>37.2</ele>
        <time>2023-03-25T13:47:14Z</time>
      </trkpt>
      <trkpt lat="49.893" lon="2.34445">
        <ele>37.2</ele>
        <time>2023-03-25T13:47:15Z</time>
      </trkpt>
      <trkpt lat="49.893" lon="2.34444">
        <ele>37.2</ele>
        <time>2023-03-25T13:47:16Z</time>
      </trkpt>
      <trkpt lat="49.89299" lon="2.34442">
        <ele>37.2</ele>
        <time>2023-03-25T13:47:17Z</time>
      </trkpt>
      <trkpt lat="49.89297" lon="2.3444">
        <ele>37.2</ele>
        <time>2023-03-25T13:47:19Z</time>
      </trkpt>
      <trkpt lat="49.89296" lon="2.34439">
        <ele>37.1</ele>
        <time>2023-03-25T13:47:20Z</time>
      </trkpt>
      <trkpt lat="49.89296" lon="2.34438">
        <ele>37.1</ele>
        <time>2023-03-25T13:47:21Z</time>
      </trkpt>
      <trkpt lat="49.89294" lon="2.34436">
        <ele>37.1</ele>
        <time>2023-03-25T13:47:22Z</time>
      </trkpt>
      <trkpt lat="49.89294" lon="2.34435">
        <ele>37.1</ele>
        <time>2023-03-25T13:47:23Z</time>
      </trkpt>
      <trkpt lat="49.89293" lon="2.34434">
        <ele>37.1</ele>
        <time>2023-03-25T13:47:24Z</time>
      </trkpt>
      <trkpt lat="49.89292" lon="2.34433">
        <ele>37.1</ele>
        <time>2023-03-25T13:47:25Z</time>
      </trkpt>
      <trkpt lat="49.89291" lon="2.34432">
        <ele>37</ele>
        <time>2023-03-25T13:47:27Z</time>
      </trkpt>
      <trkpt lat="49.89291" lon="2.3443">
        <ele>37</ele>
        <time>2023-03-25T13:47:28Z</time>
      </trkpt>
      <trkpt lat="49.8929" lon="2.34429">
        <ele>37</ele>
        <time>2023-03-25T13:47:29Z</time>
      </trkpt>
      <trkpt lat="49.89289" lon="2.34427">
        <ele>37</ele>
        <time>2023-03-25T13:47:30Z</time>
      </trkpt>
      <trkpt lat="49.89288" lon="2.34427">
        <ele>37</ele>
        <time>2023-03-25T13:47:31Z</time>
      </trkpt>
      <trkpt lat="49.89288" lon="2.34426">
        <ele>37</ele>
        <time>2023-03-25T13:47:32Z</time>
      </trkpt>
      <trkpt lat="49.89287" lon="2.34427">
        <ele>37</ele>
        <time>2023-03-25T13:47:33Z</time>
      </trkpt>
      <trkpt lat="49.89287" lon="2.34428">
        <ele>37</ele>
        <time>2023-03-25T13:47:35Z</time>
      </trkpt>
      <trkpt lat="49.89287" lon="2.34428">
        <ele>37</ele>
        <time>2023-03-25T13:47:36Z</time>
      </trkpt>
      <trkpt lat="49.89287" lon="2.34428">
        <ele>37</ele>
        <time>2023-03-25T13:47:38Z</time>
      </trkpt>
      <trkpt lat="49.89287" lon="2.34428">
        <ele>37</ele>
        <time>2023-03-25T13:47:39Z</time>
      </trkpt>
      <trkpt lat="49.89287" lon="2.34428">
        <ele>37</ele>
        <time>2023-03-25T13:47:41Z</time>
      </trkpt>
      <trkpt lat="49.89287" lon="2.34428">
        <ele>37</ele>
        <time>2023-03-25T13:47:42Z</time>
      </trkpt>
      <trkpt lat="49.89287" lon="2.34428">
        <ele>37</ele>
        <time>2023-03-25T13:47:44Z</time>
      </trkpt>
      <trkpt lat="49.89287" lon="2.34428">
        <ele>37</ele>
        <time>2023-03-25T13:47:45Z</time>
      </trkpt>
      <trkpt lat="49.89287" lon="2.34428">
        <ele>37</ele>
        <time>2023-03-25T13:47:46Z</time>
      </trkpt>
      <trkpt lat="49.89287" lon="2.34428">
        <ele>37</ele>
        <time>2023-03-25T13:47:48Z</time>
      </trkpt>
      <trkpt lat="49.89288" lon="2.34428">
        <ele>37</ele>
        <time>2023-03-25T13:47:49Z</time>
      </trkpt>
      <trkpt lat="49.89288" lon="2.34428">
        <ele>37</ele>
        <time>2023-03-25T13:47:50Z</time>
      </trkpt>
      <trkpt lat="49.89288" lon="2.34428">
        <ele>37</ele>
        <time>2023-03-25T13:47:51Z</time>
      </trkpt>
      <trkpt lat="49.89288" lon="2.34428">
        <ele>37</ele>
        <time>2023-03-25T13:47:52Z</time>
      </trkpt>
      <trkpt lat="49.89288" lon="2.34429">
        <ele>36.9</ele>
        <time>2023-03-25T13:47:53Z</time>
      </trkpt>
      <trkpt lat="49.89287" lon="2.34429">
        <ele>36.9</ele>
        <time>2023-03-25T13:47:55Z</time>
      </trkpt>
      <trkpt lat="49.89287" lon="2.34429">
        <ele>36.9</ele>
        <time>2023-03-25T13:47:56Z</time>
      </trkpt>
      <trkpt lat="49.89286" lon="2.3443">
        <ele>36.9</ele>
        <time>2023-03-25T13:47:57Z</time>
      </trkpt>
      <trkpt lat="49.89285" lon="2.34433">
        <ele>36.9</ele>
        <time>2023-03-25T13:47:58Z</time>
      </trkpt>
      <trkpt lat="49.89284" lon="2.34434">
        <ele>36.9</ele>
        <time>2023-03-25T13:47:59Z</time>
      </trkpt>
      <trkpt lat="49.89283" lon="2.34435">
        <ele>36.9</ele>
        <time>2023-03-25T13:48:00Z</time>
      </trkpt>
      <trkpt lat="49.89282" lon="2.34436">
        <ele>36.9</ele>
        <time>2023-03-25T13:48:01Z</time>
      </trkpt>
      <trkpt lat="49.89282" lon="2.34438">
        <ele>36.9</ele>
        <time>2023-03-25T13:48:02Z</time>
      </trkpt>
      <trkpt lat="49.89281" lon="2.34439">
        <ele>36.8</ele>
        <time>2023-03-25T13:48:04Z</time>
      </trkpt>
      <trkpt lat="49.89279" lon="2.34442">
        <ele>36.8</ele>
        <time>2023-03-25T13:48:05Z</time>
      </trkpt>
      <trkpt lat="49.89279" lon="2.34443">
        <ele>36.8</ele>
        <time>2023-03-25T13:48:06Z</time>
      </trkpt>
      <trkpt lat="49.89278" lon="2.34444">
        <ele>36.8</ele>
        <time>2023-03-25T13:48:07Z</time>
      </trkpt>
      <trkpt lat="49.89277" lon="2.34445">
        <ele>36.8</ele>
        <time>2023-03-25T13:48:08Z</time>
      </trkpt>
      <trkpt lat="49.89277" lon="2.34446">
        <ele>36.8</ele>
        <time>2023-03-25T13:48:09Z</time>
      </trkpt>
      <trkpt lat="49.89276" lon="2.34448">
        <ele>36.8</ele>
        <time>2023-03-25T13:48:11Z</time>
      </trkpt>
      <trkpt lat="49.89275" lon="2.34449">
        <ele>36.7</ele>
        <time>2023-03-25T13:48:12Z</time>
      </trkpt>
      <trkpt lat="49.89274" lon="2.3445">
        <ele>36.7</ele>
        <time>2023-03-25T13:48:13Z</time>
      </trkpt>
      <trkpt lat="49.89273" lon="2.34451">
        <ele>36.7</ele>
        <time>2023-03-25T13:48:14Z</time>
      </trkpt>
      <trkpt lat="49.89273" lon="2.34451">
        <ele>36.7</ele>
        <time>2023-03-25T13:48:15Z</time>
      </trkpt>
      <trkpt lat="49.89272" lon="2.34452">
        <ele>36.7</ele>
        <time>2023-03-25T13:48:16Z</time>
      </trkpt>
      <trkpt lat="49.89271" lon="2.34452">
        <ele>36.7</ele>
        <time>2023-03-25T13:48:18Z</time>
      </trkpt>
      <trkpt lat="49.8927" lon="2.34453">
        <ele>36.7</ele>
        <time>2023-03-25T13:48:19Z</time>
      </trkpt>
      <trkpt lat="49.8927" lon="2.34454">
        <ele>36.6</ele>
        <time>2023-03-25T13:48:20Z</time>
      </trkpt>
      <trkpt lat="49.8927" lon="2.34455">
        <ele>36.6</ele>
        <time>2023-03-25T13:48:21Z</time>
      </trkpt>
      <trkpt lat="49.89269" lon="2.34456">
        <ele>36.6</ele>
        <time>2023-03-25T13:48:22Z</time>
      </trkpt>
      <trkpt lat="49.89268" lon="2.34457">
        <ele>36.6</ele>
        <time>2023-03-25T13:48:23Z</time>
      </trkpt>
      <trkpt lat="49.89267" lon="2.34459">
        <ele>36.6</ele>
        <time>2023-03-25T13:48:24Z</time>
      </trkpt>
      <trkpt lat="49.89267" lon="2.3446">
        <ele>36.5</ele>
        <time>2023-03-25T13:48:26Z</time>
      </trkpt>
      <trkpt lat="49.89266" lon="2.3446">
        <ele>36.5</ele>
        <time>2023-03-25T13:48:27Z</time>
      </trkpt>
      <trkpt lat="49.89265" lon="2.34461">
        <ele>36.5</ele>
        <time>2023-03-25T13:48:28Z</time>
      </trkpt>
      <trkpt lat="49.89265" lon="2.34462">
        <ele>36.5</ele>
        <time>2023-03-25T13:48:29Z</time>
      </trkpt>
      <trkpt lat="49.89264" lon="2.34464">
        <ele>36.4</ele>
        <time>2023-03-25T13:48:30Z</time>
      </trkpt>
      <trkpt lat="49.89263" lon="2.34465">
        <ele>36.4</ele>
        <time>2023-03-25T13:48:31Z</time>
      </trkpt>
      <trkpt lat="49.89262" lon="2.34467">
        <ele>36.4</ele>
        <time>2023-03-25T13:48:33Z</time>
      </trkpt>
      <trkpt lat="49.89261" lon="2.34468">
        <ele>36.4</ele>
        <time>2023-03-25T13:48:34Z</time>
      </trkpt>
      <trkpt lat="49.89261" lon="2.34469">
        <ele>36.4</ele>
        <time>2023-03-25T13:48:35Z</time>
      </trkpt>
      <trkpt lat="49.8926" lon="2.3447">
        <ele>36.3</ele>
        <time>2023-03-25T13:48:36Z</time>
      </trkpt>
      <trkpt lat="49.8926" lon="2.34471">
        <ele>36.3</ele>
        <time>2023-03-25T13:48:37Z</time>
      </trkpt>
      <trkpt lat="49.8926" lon="2.34472">
        <ele>36.3</ele>
        <time>2023-03-25T13:48:38Z</time>
      </trkpt>
      <trkpt lat="49.8926" lon="2.34473">
        <ele>36.3</ele>
        <time>2023-03-25T13:48:39Z</time>
      </trkpt>
      <trkpt lat="49.8926" lon="2.34475">
        <ele>36.3</ele>
        <time>2023-03-25T13:48:41Z</time>
      </trkpt>
      <trkpt lat="49.8926" lon="2.34477">
        <ele>36.3</ele>
        <time>2023-03-25T13:48:42Z</time>
      </trkpt>
      <trkpt lat="49.89259" lon="2.34478">
        <ele>36.3</ele>
        <time>2023-03-25T13:48:43Z</time>
      </trkpt>
      <trkpt lat="49.89259" lon="2.3448">
        <ele>36.2</ele>
        <time>2023-03-25T13:48:44Z</time>
      </trkpt>
      <trkpt lat="49.89258" lon="2.34481">
        <ele>36.2</ele>
        <time>2023-03-25T13:48:45Z</time>
      </trkpt>
      <trkpt lat="49.89257" lon="2.34482">
        <ele>36.2</ele>
        <time>2023-03-25T13:48:46Z</time>
      </trkpt>
      <trkpt lat="49.89256" lon="2.34484">
        <ele>36.2</ele>
        <time>2023-03-25T13:48:48Z</time>
      </trkpt>
      <trkpt lat="49.89255" lon="2.34485">
        <ele>36.1</ele>
        <time>2023-03-25T13:48:49Z</time>
      </trkpt>
      <trkpt lat="49.89254" lon="2.34486">
        <ele>36.1</ele>
        <time>2023-03-25T13:48:50Z</time>
      </trkpt>
      <trkpt lat="49.89253" lon="2.34488">
        <ele>36.1</ele>
        <time>2023-03-25T13:48:51Z</time>
      </trkpt>
      <trkpt lat="49.89252" lon="2.34488">
        <ele>36.1</ele>
        <time>2023-03-25T13:48:52Z</time>
      </trkpt>
      <trkpt lat="49.89251" lon="2.34489">
        <ele>36.1</ele>
        <time>2023-03-25T13:48:54Z</time>
      </trkpt>
      <trkpt lat="49.89249" lon="2.34491">
        <ele>36</ele>
        <time>2023-03-25T13:48:55Z</time>
      </trkpt>
      <trkpt lat="49.89248" lon="2.34492">
        <ele>36</ele>
        <time>2023-03-25T13:48:56Z</time>
      </trkpt>
      <trkpt lat="49.89248" lon="2.34492">
        <ele>35.9</ele>
        <time>2023-03-25T13:48:57Z</time>
      </trkpt>
      <trkpt lat="49.89246" lon="2.34493">
        <ele>35.9</ele>
        <time>2023-03-25T13:48:58Z</time>
      </trkpt>
      <trkpt lat="49.89246" lon="2.34494">
        <ele>35.9</ele>
        <time>2023-03-25T13:48:59Z</time>
      </trkpt>
      <trkpt lat="49.89245" lon="2.34495">
        <ele>35.9</ele>
        <time>2023-03-25T13:49:01Z</time>
      </trkpt>
      <trkpt lat="49.89244" lon="2.34496">
        <ele>35.9</ele>
        <time>2023-03-25T13:49:02Z</time>
      </trkpt>
      <trkpt lat="49.89243" lon="2.34497">
        <ele>35.9</ele>
        <time>2023-03-25T13:49:03Z</time>
      </trkpt>
      <trkpt lat="49.89242" lon="2.34498">
        <ele>35.8</ele>
        <time>2023-03-25T13:49:04Z</time>
      </trkpt>
      <trkpt lat="49.89241" lon="2.34499">
        <ele>35.8</ele>
        <time>2023-03-25T13:49:05Z</time>
      </trkpt>
      <trkpt lat="49.8924" lon="2.345">
        <ele>35.8</ele>
        <time>2023-03-25T13:49:06Z</time>
      </trkpt>
      <trkpt lat="49.89239" lon="2.34501">
        <ele>35.8</ele>
        <time>2023-03-25T13:49:07Z</time>
      </trkpt>
      <trkpt lat="49.89238" lon="2.34502">
        <ele>35.8</ele>
        <time>2023-03-25T13:49:09Z</time>
      </trkpt>
      <trkpt lat="49.89237" lon="2.34502">
        <ele>35.8</ele>
        <time>2023-03-25T13:49:10Z</time>
      </trkpt>
      <trkpt lat="49.89236" lon="2.34503">
        <ele>35.7</ele>
        <time>2023-03-25T13:49:11Z</time>
      </trkpt>
      <trkpt lat="49.89235" lon="2.34504">
        <ele>35.7</ele>
        <time>2023-03-25T13:49:12Z</time>
      </trkpt>
      <trkpt lat="49.89234" lon="2.34505">
        <ele>35.7</ele>
        <time>2023-03-25T13:49:13Z</time>
      </trkpt>
      <trkpt lat="49.89233" lon="2.34506">
        <ele>35.7</ele>
        <time>2023-03-25T13:49:14Z</time>
      </trkpt>
      <trkpt lat="49.89232" lon="2.34507">
        <ele>35.7</ele>
        <time>2023-03-25T13:49:15Z</time>
      </trkpt>
      <trkpt lat="49.89231" lon="2.34508">
        <ele>35.6</ele>
        <time>2023-03-25T13:49:17Z</time>
      </trkpt>
      <trkpt lat="49.8923" lon="2.34508">
        <ele>35.6</ele>
        <time>2023-03-25T13:49:18Z</time>
      </trkpt>
      <trkpt lat="49.89228" lon="2.3451">
        <ele>35.6</ele>
        <time>2023-03-25T13:49:19Z</time>
      </trkpt>
      <trkpt lat="49.89227" lon="2.3451">
        <ele>35.6</ele>
        <time>2023-03-25T13:49:20Z</time>
      </trkpt>
      <trkpt lat="49.89227" lon="2.34511">
        <ele>35.6</ele>
        <time>2023-03-25T13:49:21Z</time>
      </trkpt>
      <trkpt lat="49.89226" lon="2.34512">
        <ele>35.6</ele>
        <time>2023-03-25T13:49:22Z</time>
      </trkpt>
      <trkpt lat="49.89225" lon="2.34513">
        <ele>35.6</ele>
        <time>2023-03-25T13:49:24Z</time>
      </trkpt>
      <trkpt lat="49.89224" lon="2.34514">
        <ele>35.5</ele>
        <time>2023-03-25T13:49:25Z</time>
      </trkpt>
      <trkpt lat="49.89223" lon="2.34516">
        <ele>35.6</ele>
        <time>2023-03-25T13:49:26Z</time>
      </trkpt>
      <trkpt lat="49.89222" lon="2.34517">
        <ele>35.5</ele>
        <time>2023-03-25T13:49:27Z</time>
      </trkpt>
      <trkpt lat="49.89222" lon="2.34518">
        <ele>35.5</ele>
        <time>2023-03-25T13:49:28Z</time>
      </trkpt>
      <trkpt lat="49.89221" lon="2.34519">
        <ele>35.5</ele>
        <time>2023-03-25T13:49:30Z</time>
      </trkpt>
      <trkpt lat="49.8922" lon="2.3452">
        <ele>35.5</ele>
        <time>2023-03-25T13:49:31Z</time>
      </trkpt>
      <trkpt lat="49.89219" lon="2.34521">
        <ele>35.5</ele>
        <time>2023-03-25T13:49:32Z</time>
      </trkpt>
      <trkpt lat="49.89218" lon="2.34522">
        <ele>35.5</ele>
        <time>2023-03-25T13:49:33Z</time>
      </trkpt>
      <trkpt lat="49.89217" lon="2.34523">
        <ele>35.5</ele>
        <time>2023-03-25T13:49:34Z</time>
      </trkpt>
      <trkpt lat="49.89216" lon="2.34524">
        <ele>35.5</ele>
        <time>2023-03-25T13:49:35Z</time>
      </trkpt>
      <trkpt lat="49.89215" lon="2.34525">
        <ele>35.5</ele>
        <time>2023-03-25T13:49:36Z</time>
      </trkpt>
      <trkpt lat="49.89215" lon="2.34526">
        <ele>35.5</ele>
        <time>2023-03-25T13:49:37Z</time>
      </trkpt>
      <trkpt lat="49.89214" lon="2.34527">
        <ele>35.5</ele>
        <time>2023-03-25T13:49:38Z</time>
      </trkpt>
      <trkpt lat="49.89213" lon="2.34528">
        <ele>35.5</ele>
        <time>2023-03-25T13:49:40Z</time>
      </trkpt>
      <trkpt lat="49.89212" lon="2.34529">
        <ele>35.5</ele>
        <time>2023-03-25T13:49:41Z</time>
      </trkpt>
      <trkpt lat="49.89211" lon="2.3453">
        <ele>35.5</ele>
        <time>2023-03-25T13:49:42Z</time>
      </trkpt>
      <trkpt lat="49.8921" lon="2.34531">
        <ele>35.5</ele>
        <time>2023-03-25T13:49:43Z</time>
      </trkpt>
      <trkpt lat="49.89209" lon="2.34532">
        <ele>35.5</ele>
        <time>2023-03-25T13:49:44Z</time>
      </trkpt>
      <trkpt lat="49.89209" lon="2.34532">
        <ele>35.5</ele>
        <time>2023-03-25T13:49:45Z</time>
      </trkpt>
      <trkpt lat="49.89208" lon="2.34533">
        <ele>35.5</ele>
        <time>2023-03-25T13:49:47Z</time>
      </trkpt>
      <trkpt lat="49.89207" lon="2.34534">
        <ele>35.5</ele>
        <time>2023-03-25T13:49:48Z</time>
      </trkpt>
      <trkpt lat="49.89206" lon="2.34535">
        <ele>35.5</ele>
        <time>2023-03-25T13:49:49Z</time>
      </trkpt>
      <trkpt lat="49.89205" lon="2.34536">
        <ele>35.5</ele>
        <time>2023-03-25T13:49:50Z</time>
      </trkpt>
      <trkpt lat="49.89205" lon="2.34537">
        <ele>35.5</ele>
        <time>2023-03-25T13:49:51Z</time>
      </trkpt>
      <trkpt lat="49.89204" lon="2.34537">
        <ele>35.5</ele>
        <time>2023-03-25T13:49:53Z</time>
      </trkpt>
      <trkpt lat="49.89203" lon="2.34538">
        <ele>35.5</ele>
        <time>2023-03-25T13:49:54Z</time>
      </trkpt>
      <trkpt lat="49.89203" lon="2.34539">
        <ele>35.5</ele>
        <time>2023-03-25T13:49:55Z</time>
      </trkpt>
      <trkpt lat="49.89202" lon="2.3454">
        <ele>35.5</ele>
        <time>2023-03-25T13:49:56Z</time>
      </trkpt>
      <trkpt lat="49.89201" lon="2.34541">
        <ele>35.5</ele>
        <time>2023-03-25T13:49:57Z</time>
      </trkpt>
      <trkpt lat="49.89199" lon="2.34542">
        <ele>35.6</ele>
        <time>2023-03-25T13:49:58Z</time>
      </trkpt>
      <trkpt lat="49.89198" lon="2.34543">
        <ele>35.6</ele>
        <time>2023-03-25T13:49:59Z</time>
      </trkpt>
      <trkpt lat="49.89198" lon="2.34544">
        <ele>35.6</ele>
        <time>2023-03-25T13:50:00Z</time>
      </trkpt>
      <trkpt lat="49.89196" lon="2.34545">
        <ele>35.6</ele>
        <time>2023-03-25T13:50:02Z</time>
      </trkpt>
      <trkpt lat="49.89195" lon="2.34546">
        <ele>35.7</ele>
        <time>2023-03-25T13:50:03Z</time>
      </trkpt>
      <trkpt lat="49.89194" lon="2.34547">
        <ele>35.7</ele>
        <time>2023-03-25T13:50:04Z</time>
      </trkpt>
      <trkpt lat="49.89193" lon="2.34548">
        <ele>35.7</ele>
        <time>2023-03-25T13:50:05Z</time>
      </trkpt>
      <trkpt lat="49.89192" lon="2.34549">
        <ele>35.7</ele>
        <time>2023-03-25T13:50:06Z</time>
      </trkpt>
      <trkpt lat="49.89191" lon="2.3455">
        <ele>35.7</ele>
        <time>2023-03-25T13:50:08Z</time>
      </trkpt>
      <trkpt lat="49.89191" lon="2.34552">
        <ele>35.7</ele>
        <time>2023-03-25T13:50:09Z</time>
      </trkpt>
      <trkpt lat="49.8919" lon="2.34553">
        <ele>35.7</ele>
        <time>2023-03-25T13:50:10Z</time>
      </trkpt>
      <trkpt lat="49.89189" lon="2.34554">
        <ele>35.8</ele>
        <time>2023-03-25T13:50:11Z</time>
      </trkpt>
      <trkpt lat="49.89188" lon="2.34555">
        <ele>35.8</ele>
        <time>2023-03-25T13:50:12Z</time>
      </trkpt>
      <trkpt lat="49.89187" lon="2.34556">
        <ele>35.8</ele>
        <time>2023-03-25T13:50:13Z</time>
      </trkpt>
      <trkpt lat="49.89186" lon="2.34557">
        <ele>35.8</ele>
        <time>2023-03-25T13:50:14Z</time>
      </trkpt>
      <trkpt lat="49.89185" lon="2.34558">
        <ele>35.9</ele>
        <time>2023-03-25T13:50:15Z</time>
      </trkpt>
      <trkpt lat="49.89184" lon="2.3456">
        <ele>36</ele>
        <time>2023-03-25T13:50:17Z</time>
      </trkpt>
      <trkpt lat="49.89183" lon="2.34561">
        <ele>36.1</ele>
        <time>2023-03-25T13:50:18Z</time>
      </trkpt>
      <trkpt lat="49.89182" lon="2.34562">
        <ele>36.1</ele>
        <time>2023-03-25T13:50:19Z</time>
      </trkpt>
      <trkpt lat="49.89182" lon="2.34562">
        <ele>36.2</ele>
        <time>2023-03-25T13:50:20Z</time>
      </trkpt>
      <trkpt lat="49.89181" lon="2.34563">
        <ele>36.2</ele>
        <time>2023-03-25T13:50:21Z</time>
      </trkpt>
      <trkpt lat="49.89181" lon="2.34564">
        <ele>36.3</ele>
        <time>2023-03-25T13:50:22Z</time>
      </trkpt>
      <trkpt lat="49.8918" lon="2.34565">
        <ele>36.3</ele>
        <time>2023-03-25T13:50:23Z</time>
      </trkpt>
      <trkpt lat="49.89179" lon="2.34565">
        <ele>36.4</ele>
        <time>2023-03-25T13:50:25Z</time>
      </trkpt>
      <trkpt lat="49.89179" lon="2.34566">
        <ele>36.4</ele>
        <time>2023-03-25T13:50:26Z</time>
      </trkpt>
      <trkpt lat="49.89178" lon="2.34567">
        <ele>36.5</ele>
        <time>2023-03-25T13:50:27Z</time>
      </trkpt>
      <trkpt lat="49.89177" lon="2.34568">
        <ele>36.6</ele>
        <time>2023-03-25T13:50:28Z</time>
      </trkpt>
      <trkpt lat="49.89176" lon="2.34569">
        <ele>36.6</ele>
        <time>2023-03-25T13:50:29Z</time>
      </trkpt>
      <trkpt lat="49.89176" lon="2.3457">
        <ele>36.7</ele>
        <time>2023-03-25T13:50:31Z</time>
      </trkpt>
      <trkpt lat="49.89175" lon="2.34571">
        <ele>36.8</ele>
        <time>2023-03-25T13:50:32Z</time>
      </trkpt>
      <trkpt lat="49.89174" lon="2.34572">
        <ele>36.8</ele>
        <time>2023-03-25T13:50:33Z</time>
      </trkpt>
      <trkpt lat="49.89173" lon="2.34572">
        <ele>36.8</ele>
        <time>2023-03-25T13:50:34Z</time>
      </trkpt>
      <trkpt lat="49.89172" lon="2.34573">
        <ele>36.9</ele>
        <time>2023-03-25T13:50:35Z</time>
      </trkpt>
      <trkpt lat="49.89171" lon="2.34573">
        <ele>36.9</ele>
        <time>2023-03-25T13:50:36Z</time>
      </trkpt>
      <trkpt lat="49.89171" lon="2.34574">
        <ele>37</ele>
        <time>2023-03-25T13:50:38Z</time>
      </trkpt>
      <trkpt lat="49.8917" lon="2.34574">
        <ele>37</ele>
        <time>2023-03-25T13:50:39Z</time>
      </trkpt>
      <trkpt lat="49.89169" lon="2.34575">
        <ele>37</ele>
        <time>2023-03-25T13:50:40Z</time>
      </trkpt>
      <trkpt lat="49.89168" lon="2.34576">
        <ele>37</ele>
        <time>2023-03-25T13:50:41Z</time>
      </trkpt>
      <trkpt lat="49.89167" lon="2.34576">
        <ele>37.1</ele>
        <time>2023-03-25T13:50:42Z</time>
      </trkpt>
      <trkpt lat="49.89166" lon="2.34577">
        <ele>37.1</ele>
        <time>2023-03-25T13:50:44Z</time>
      </trkpt>
      <trkpt lat="49.89165" lon="2.34578">
        <ele>37.1</ele>
        <time>2023-03-25T13:50:45Z</time>
      </trkpt>
      <trkpt lat="49.89163" lon="2.34578">
        <ele>37.1</ele>
        <time>2023-03-25T13:50:46Z</time>
      </trkpt>
      <trkpt lat="49.89163" lon="2.34579">
        <ele>37.1</ele>
        <time>2023-03-25T13:50:47Z</time>
      </trkpt>
      <trkpt lat="49.89162" lon="2.3458">
        <ele>37.1</ele>
        <time>2023-03-25T13:50:48Z</time>
      </trkpt>
      <trkpt lat="49.89161" lon="2.34581">
        <ele>37.1</ele>
        <time>2023-03-25T13:50:49Z</time>
      </trkpt>
      <trkpt lat="49.8916" lon="2.34583">
        <ele>37.1</ele>
        <time>2023-03-25T13:50:50Z</time>
      </trkpt>
      <trkpt lat="49.89159" lon="2.34584">
        <ele>37.1</ele>
        <time>2023-03-25T13:50:52Z</time>
      </trkpt>
      <trkpt lat="49.89158" lon="2.34586">
        <ele>37.1</ele>
        <time>2023-03-25T13:50:53Z</time>
      </trkpt>
      <trkpt lat="49.89156" lon="2.34588">
        <ele>37.1</ele>
        <time>2023-03-25T13:50:54Z</time>
      </trkpt>
      <trkpt lat="49.89156" lon="2.34589">
        <ele>37.1</ele>
        <time>2023-03-25T13:50:56Z</time>
      </trkpt>
      <trkpt lat="49.89155" lon="2.34589">
        <ele>37.1</ele>
        <time>2023-03-25T13:50:57Z</time>
      </trkpt>
      <trkpt lat="49.89154" lon="2.3459">
        <ele>37.1</ele>
        <time>2023-03-25T13:50:58Z</time>
      </trkpt>
      <trkpt lat="49.89153" lon="2.34591">
        <ele>37.2</ele>
        <time>2023-03-25T13:50:59Z</time>
      </trkpt>
      <trkpt lat="49.89152" lon="2.34592">
        <ele>37.2</ele>
        <time>2023-03-25T13:51:00Z</time>
      </trkpt>
      <trkpt lat="49.89151" lon="2.34592">
        <ele>37.2</ele>
        <time>2023-03-25T13:51:01Z</time>
      </trkpt>
      <trkpt lat="49.8915" lon="2.34593">
        <ele>37.2</ele>
        <time>2023-03-25T13:51:02Z</time>
      </trkpt>
      <trkpt lat="49.89149" lon="2.34593">
        <ele>37.2</ele>
        <time>2023-03-25T13:51:04Z</time>
      </trkpt>
      <trkpt lat="49.89148" lon="2.34594">
        <ele>37.2</ele>
        <time>2023-03-25T13:51:05Z</time>
      </trkpt>
      <trkpt lat="49.89146" lon="2.34595">
        <ele>37.2</ele>
        <time>2023-03-25T13:51:06Z</time>
      </trkpt>
      <trkpt lat="49.89145" lon="2.34595">
        <ele>37.2</ele>
        <time>2023-03-25T13:51:07Z</time>
      </trkpt>
      <trkpt lat="49.89144" lon="2.34595">
        <ele>37.2</ele>
        <time>2023-03-25T13:51:08Z</time>
      </trkpt>
      <trkpt lat="49.89143" lon="2.34595">
        <ele>37.2</ele>
        <time>2023-03-25T13:51:09Z</time>
      </trkpt>
      <trkpt lat="49.89142" lon="2.34596">
        <ele>37.2</ele>
        <time>2023-03-25T13:51:11Z</time>
      </trkpt>
      <trkpt lat="49.8914" lon="2.34596">
        <ele>37.1</ele>
        <time>2023-03-25T13:51:12Z</time>
      </trkpt>
      <trkpt lat="49.89139" lon="2.34596">
        <ele>37.1</ele>
        <time>2023-03-25T13:51:13Z</time>
      </trkpt>
      <trkpt lat="49.89138" lon="2.34596">
        <ele>37.1</ele>
        <time>2023-03-25T13:51:14Z</time>
      </trkpt>
      <trkpt lat="49.89137" lon="2.34596">
        <ele>37.1</ele>
        <time>2023-03-25T13:51:15Z</time>
      </trkpt>
      <trkpt lat="49.89136" lon="2.34596">
        <ele>37.1</ele>
        <time>2023-03-25T13:51:16Z</time>
      </trkpt>
      <trkpt lat="49.89135" lon="2.34596">
        <ele>37.1</ele>
        <time>2023-03-25T13:51:17Z</time>
      </trkpt>
      <trkpt lat="49.89134" lon="2.34596">
        <ele>37.1</ele>
        <time>2023-03-25T13:51:19Z</time>
      </trkpt>
      <trkpt lat="49.89132" lon="2.34596">
        <ele>37.1</ele>
        <time>2023-03-25T13:51:20Z</time>
      </trkpt>
      <trkpt lat="49.89131" lon="2.34597">
        <ele>37.1</ele>
        <time>2023-03-25T13:51:21Z</time>
      </trkpt>
      <trkpt lat="49.8913" lon="2.34597">
        <ele>37.1</ele>
        <time>2023-03-25T13:51:22Z</time>
      </trkpt>
      <trkpt lat="49.89129" lon="2.34598">
        <ele>37.1</ele>
        <time>2023-03-25T13:51:23Z</time>
      </trkpt>
      <trkpt lat="49.89128" lon="2.34598">
        <ele>37.1</ele>
        <time>2023-03-25T13:51:24Z</time>
      </trkpt>
      <trkpt lat="49.89126" lon="2.34598">
        <ele>37.1</ele>
        <time>2023-03-25T13:51:26Z</time>
      </trkpt>
      <trkpt lat="49.89125" lon="2.34599">
        <ele>37.1</ele>
        <time>2023-03-25T13:51:27Z</time>
      </trkpt>
      <trkpt lat="49.89124" lon="2.34599">
        <ele>37.1</ele>
        <time>2023-03-25T13:51:28Z</time>
      </trkpt>
      <trkpt lat="49.89123" lon="2.34599">
        <ele>37</ele>
        <time>2023-03-25T13:51:29Z</time>
      </trkpt>
      <trkpt lat="49.89122" lon="2.34599">
        <ele>37</ele>
        <time>2023-03-25T13:51:30Z</time>
      </trkpt>
      <trkpt lat="49.89121" lon="2.34599">
        <ele>37</ele>
        <time>2023-03-25T13:51:31Z</time>
      </trkpt>
      <trkpt lat="49.8912" lon="2.34599">
        <ele>37</ele>
        <time>2023-03-25T13:51:33Z</time>
      </trkpt>
      <trkpt lat="49.89119" lon="2.34599">
        <ele>37</ele>
        <time>2023-03-25T13:51:34Z</time>
      </trkpt>
      <trkpt lat="49.89118" lon="2.34599">
        <ele>37</ele>
        <time>2023-03-25T13:51:35Z</time>
      </trkpt>
      <trkpt lat="49.89117" lon="2.34599">
        <ele>37</ele>
        <time>2023-03-25T13:51:36Z</time>
      </trkpt>
      <trkpt lat="49.89116" lon="2.34599">
        <ele>37</ele>
        <time>2023-03-25T13:51:37Z</time>
      </trkpt>
      <trkpt lat="49.89115" lon="2.34599">
        <ele>37</ele>
        <time>2023-03-25T13:51:38Z</time>
      </trkpt>
      <trkpt lat="49.89113" lon="2.34599">
        <ele>36.9</ele>
        <time>2023-03-25T13:51:39Z</time>
      </trkpt>
      <trkpt lat="49.89112" lon="2.34599">
        <ele>36.9</ele>
        <time>2023-03-25T13:51:41Z</time>
      </trkpt>
      <trkpt lat="49.89111" lon="2.34599">
        <ele>36.9</ele>
        <time>2023-03-25T13:51:42Z</time>
      </trkpt>
      <trkpt lat="49.89111" lon="2.34599">
        <ele>36.9</ele>
        <time>2023-03-25T13:51:43Z</time>
      </trkpt>
      <trkpt lat="49.8911" lon="2.34599">
        <ele>36.9</ele>
        <time>2023-03-25T13:51:44Z</time>
      </trkpt>
      <trkpt lat="49.89108" lon="2.34599">
        <ele>36.9</ele>
        <time>2023-03-25T13:51:45Z</time>
      </trkpt>
      <trkpt lat="49.89107" lon="2.34599">
        <ele>36.9</ele>
        <time>2023-03-25T13:51:46Z</time>
      </trkpt>
      <trkpt lat="49.89107" lon="2.34599">
        <ele>36.9</ele>
        <time>2023-03-25T13:51:47Z</time>
      </trkpt>
      <trkpt lat="49.89106" lon="2.34599">
        <ele>36.9</ele>
        <time>2023-03-25T13:51:49Z</time>
      </trkpt>
      <trkpt lat="49.89105" lon="2.346">
        <ele>36.8</ele>
        <time>2023-03-25T13:51:50Z</time>
      </trkpt>
      <trkpt lat="49.89104" lon="2.346">
        <ele>36.8</ele>
        <time>2023-03-25T13:51:51Z</time>
      </trkpt>
      <trkpt lat="49.89103" lon="2.34599">
        <ele>36.8</ele>
        <time>2023-03-25T13:51:52Z</time>
      </trkpt>
      <trkpt lat="49.89101" lon="2.34599">
        <ele>36.8</ele>
        <time>2023-03-25T13:51:54Z</time>
      </trkpt>
      <trkpt lat="49.891" lon="2.346">
        <ele>36.8</ele>
        <time>2023-03-25T13:51:55Z</time>
      </trkpt>
      <trkpt lat="49.89099" lon="2.346">
        <ele>36.8</ele>
        <time>2023-03-25T13:51:56Z</time>
      </trkpt>
      <trkpt lat="49.89099" lon="2.34601">
        <ele>36.8</ele>
        <time>2023-03-25T13:51:57Z</time>
      </trkpt>
      <trkpt lat="49.89098" lon="2.34601">
        <ele>36.8</ele>
        <time>2023-03-25T13:51:58Z</time>
      </trkpt>
      <trkpt lat="49.89097" lon="2.34602">
        <ele>36.8</ele>
        <time>2023-03-25T13:51:59Z</time>
      </trkpt>
      <trkpt lat="49.89097" lon="2.34603">
        <ele>36.7</ele>
        <time>2023-03-25T13:52:00Z</time>
      </trkpt>
      <trkpt lat="49.89096" lon="2.34604">
        <ele>36.7</ele>
        <time>2023-03-25T13:52:02Z</time>
      </trkpt>
      <trkpt lat="49.89096" lon="2.34605">
        <ele>36.7</ele>
        <time>2023-03-25T13:52:03Z</time>
      </trkpt>
      <trkpt lat="49.89095" lon="2.34607">
        <ele>36.7</ele>
        <time>2023-03-25T13:52:04Z</time>
      </trkpt>
      <trkpt lat="49.89095" lon="2.34608">
        <ele>36.7</ele>
        <time>2023-03-25T13:52:05Z</time>
      </trkpt>
      <trkpt lat="49.89094" lon="2.34609">
        <ele>36.7</ele>
        <time>2023-03-25T13:52:06Z</time>
      </trkpt>
      <trkpt lat="49.89095" lon="2.3461">
        <ele>36.7</ele>
        <time>2023-03-25T13:52:07Z</time>
      </trkpt>
      <trkpt lat="49.89095" lon="2.34611">
        <ele>36.7</ele>
        <time>2023-03-25T13:52:09Z</time>
      </trkpt>
      <trkpt lat="49.89095" lon="2.34611">
        <ele>36.7</ele>
        <time>2023-03-25T13:52:10Z</time>
      </trkpt>
      <trkpt lat="49.89096" lon="2.34611">
        <ele>36.7</ele>
        <time>2023-03-25T13:52:12Z</time>
      </trkpt>
      <trkpt lat="49.89096" lon="2.34611">
        <ele>36.7</ele>
        <time>2023-03-25T13:52:13Z</time>
      </trkpt>
      <trkpt lat="49.89096" lon="2.3461">
        <ele>36.7</ele>
        <time>2023-03-25T13:52:14Z</time>
      </trkpt>
      <trkpt lat="49.89096" lon="2.3461">
        <ele>36.7</ele>
        <time>2023-03-25T13:52:15Z</time>
      </trkpt>
      <trkpt lat="49.89096" lon="2.3461">
        <ele>36.7</ele>
        <time>2023-03-25T13:52:17Z</time>
      </trkpt>
      <trkpt lat="49.89096" lon="2.3461">
        <ele>36.7</ele>
        <time>2023-03-25T13:52:18Z</time>
      </trkpt>
      <trkpt lat="49.89096" lon="2.3461">
        <ele>36.7</ele>
        <time>2023-03-25T13:52:19Z</time>
      </trkpt>
      <trkpt lat="49.89096" lon="2.3461">
        <ele>36.7</ele>
        <time>2023-03-25T13:52:20Z</time>
      </trkpt>
      <trkpt lat="49.89096" lon="2.3461">
        <ele>36.7</ele>
        <time>2023-03-25T13:52:22Z</time>
      </trkpt>
      <trkpt lat="49.89096" lon="2.3461">
        <ele>36.7</ele>
        <time>2023-03-25T13:52:23Z</time>
      </trkpt>
      <trkpt lat="49.89097" lon="2.34609">
        <ele>36.7</ele>
        <time>2023-03-25T13:52:24Z</time>
      </trkpt>
      <trkpt lat="49.89097" lon="2.34609">
        <ele>36.7</ele>
        <time>2023-03-25T13:52:25Z</time>
      </trkpt>
      <trkpt lat="49.89097" lon="2.34609">
        <ele>36.7</ele>
        <time>2023-03-25T13:52:26Z</time>
      </trkpt>
      <trkpt lat="49.89098" lon="2.34606">
        <ele>36.7</ele>
        <time>2023-03-25T13:52:27Z</time>
      </trkpt>
      <trkpt lat="49.89099" lon="2.34603">
        <ele>36.6</ele>
        <time>2023-03-25T13:52:28Z</time>
      </trkpt>
      <trkpt lat="49.89099" lon="2.34602">
        <ele>36.6</ele>
        <time>2023-03-25T13:52:29Z</time>
      </trkpt>
      <trkpt lat="49.89097" lon="2.34604">
        <ele>36.6</ele>
        <time>2023-03-25T13:52:30Z</time>
      </trkpt>
      <trkpt lat="49.89096" lon="2.34604">
        <ele>36.6</ele>
        <time>2023-03-25T13:52:32Z</time>
      </trkpt>
      <trkpt lat="49.89096" lon="2.34603">
        <ele>36.6</ele>
        <time>2023-03-25T13:52:33Z</time>
      </trkpt>
      <trkpt lat="49.89095" lon="2.34601">
        <ele>36.6</ele>
        <time>2023-03-25T13:52:34Z</time>
      </trkpt>
      <trkpt lat="49.89095" lon="2.34599">
        <ele>36.6</ele>
        <time>2023-03-25T13:52:35Z</time>
      </trkpt>
      <trkpt lat="49.89094" lon="2.34597">
        <ele>36.6</ele>
        <time>2023-03-25T13:52:36Z</time>
      </trkpt>
      <trkpt lat="49.89093" lon="2.34596">
        <ele>36.6</ele>
        <time>2023-03-25T13:52:37Z</time>
      </trkpt>
      <trkpt lat="49.89092" lon="2.34594">
        <ele>36.5</ele>
        <time>2023-03-25T13:52:39Z</time>
      </trkpt>
      <trkpt lat="49.89091" lon="2.34593">
        <ele>36.5</ele>
        <time>2023-03-25T13:52:40Z</time>
      </trkpt>
      <trkpt lat="49.89089" lon="2.34592">
        <ele>36.5</ele>
        <time>2023-03-25T13:52:41Z</time>
      </trkpt>
      <trkpt lat="49.89088" lon="2.34592">
        <ele>36.5</ele>
        <time>2023-03-25T13:52:42Z</time>
      </trkpt>
      <trkpt lat="49.89087" lon="2.34591">
        <ele>36.5</ele>
        <time>2023-03-25T13:52:43Z</time>
      </trkpt>
      <trkpt lat="49.89085" lon="2.3459">
        <ele>36.5</ele>
        <time>2023-03-25T13:52:45Z</time>
      </trkpt>
      <trkpt lat="49.89083" lon="2.3459">
        <ele>36.5</ele>
        <time>2023-03-25T13:52:46Z</time>
      </trkpt>
      <trkpt lat="49.89082" lon="2.3459">
        <ele>36.5</ele>
        <time>2023-03-25T13:52:47Z</time>
      </trkpt>
      <trkpt lat="49.8908" lon="2.3459">
        <ele>36.5</ele>
        <time>2023-03-25T13:52:48Z</time>
      </trkpt>
      <trkpt lat="49.89079" lon="2.3459">
        <ele>36.5</ele>
        <time>2023-03-25T13:52:49Z</time>
      </trkpt>
      <trkpt lat="49.89078" lon="2.3459">
        <ele>36.5</ele>
        <time>2023-03-25T13:52:50Z</time>
      </trkpt>
      <trkpt lat="49.89076" lon="2.3459">
        <ele>36.5</ele>
        <time>2023-03-25T13:52:52Z</time>
      </trkpt>
      <trkpt lat="49.89075" lon="2.3459">
        <ele>36.5</ele>
        <time>2023-03-25T13:52:53Z</time>
      </trkpt>
      <trkpt lat="49.89072" lon="2.34591">
        <ele>36.5</ele>
        <time>2023-03-25T13:52:54Z</time>
      </trkpt>
      <trkpt lat="49.89072" lon="2.34591">
        <ele>36.5</ele>
        <time>2023-03-25T13:52:55Z</time>
      </trkpt>
      <trkpt lat="49.89071" lon="2.34591">
        <ele>36.5</ele>
        <time>2023-03-25T13:52:56Z</time>
      </trkpt>
      <trkpt lat="49.8907" lon="2.34592">
        <ele>36.5</ele>
        <time>2023-03-25T13:52:57Z</time>
      </trkpt>
      <trkpt lat="49.89069" lon="2.34592">
        <ele>36.5</ele>
        <time>2023-03-25T13:52:58Z</time>
      </trkpt>
      <trkpt lat="49.89067" lon="2.34593">
        <ele>36.5</ele>
        <time>2023-03-25T13:53:00Z</time>
      </trkpt>
      <trkpt lat="49.89066" lon="2.34593">
        <ele>36.5</ele>
        <time>2023-03-25T13:53:01Z</time>
      </trkpt>
      <trkpt lat="49.89065" lon="2.34593">
        <ele>36.5</ele>
        <time>2023-03-25T13:53:02Z</time>
      </trkpt>
      <trkpt lat="49.89064" lon="2.34594">
        <ele>36.5</ele>
        <time>2023-03-25T13:53:03Z</time>
      </trkpt>
      <trkpt lat="49.89063" lon="2.34593">
        <ele>36.6</ele>
        <time>2023-03-25T13:53:04Z</time>
      </trkpt>
      <trkpt lat="49.89062" lon="2.34593">
        <ele>36.6</ele>
        <time>2023-03-25T13:53:05Z</time>
      </trkpt>
      <trkpt lat="49.89061" lon="2.34593">
        <ele>36.6</ele>
        <time>2023-03-25T13:53:06Z</time>
      </trkpt>
      <trkpt lat="49.8906" lon="2.34592">
        <ele>36.6</ele>
        <time>2023-03-25T13:53:07Z</time>
      </trkpt>
      <trkpt lat="49.89059" lon="2.34592">
        <ele>36.6</ele>
        <time>2023-03-25T13:53:09Z</time>
      </trkpt>
      <trkpt lat="49.89058" lon="2.34592">
        <ele>36.6</ele>
        <time>2023-03-25T13:53:10Z</time>
      </trkpt>
      <trkpt lat="49.89057" lon="2.34592">
        <ele>36.6</ele>
        <time>2023-03-25T13:53:11Z</time>
      </trkpt>
      <trkpt lat="49.89056" lon="2.34593">
        <ele>36.6</ele>
        <time>2023-03-25T13:53:12Z</time>
      </trkpt>
      <trkpt lat="49.89054" lon="2.34593">
        <ele>36.6</ele>
        <time>2023-03-25T13:53:13Z</time>
      </trkpt>
      <trkpt lat="49.89053" lon="2.34593">
        <ele>36.6</ele>
        <time>2023-03-25T13:53:14Z</time>
      </trkpt>
      <trkpt lat="49.89052" lon="2.34593">
        <ele>36.6</ele>
        <time>2023-03-25T13:53:15Z</time>
      </trkpt>
      <trkpt lat="49.89051" lon="2.34593">
        <ele>36.7</ele>
        <time>2023-03-25T13:53:17Z</time>
      </trkpt>
      <trkpt lat="49.8905" lon="2.34593">
        <ele>36.7</ele>
        <time>2023-03-25T13:53:18Z</time>
      </trkpt>
      <trkpt lat="49.89049" lon="2.34593">
        <ele>36.7</ele>
        <time>2023-03-25T13:53:19Z</time>
      </trkpt>
      <trkpt lat="49.89048" lon="2.34593">
        <ele>36.7</ele>
        <time>2023-03-25T13:53:20Z</time>
      </trkpt>
      <trkpt lat="49.89047" lon="2.34594">
        <ele>36.7</ele>
        <time>2023-03-25T13:53:21Z</time>
      </trkpt>
      <trkpt lat="49.89045" lon="2.34594">
        <ele>36.7</ele>
        <time>2023-03-25T13:53:23Z</time>
      </trkpt>
      <trkpt lat="49.89044" lon="2.34594">
        <ele>36.7</ele>
        <time>2023-03-25T13:53:24Z</time>
      </trkpt>
      <trkpt lat="49.89043" lon="2.34595">
        <ele>36.7</ele>
        <time>2023-03-25T13:53:25Z</time>
      </trkpt>
      <trkpt lat="49.89042" lon="2.34595">
        <ele>36.7</ele>
        <time>2023-03-25T13:53:26Z</time>
      </trkpt>
      <trkpt lat="49.89041" lon="2.34595">
        <ele>36.7</ele>
        <time>2023-03-25T13:53:27Z</time>
      </trkpt>
      <trkpt lat="49.8904" lon="2.34595">
        <ele>36.7</ele>
        <time>2023-03-25T13:53:28Z</time>
      </trkpt>
      <trkpt lat="49.89038" lon="2.34595">
        <ele>36.7</ele>
        <time>2023-03-25T13:53:29Z</time>
      </trkpt>
      <trkpt lat="49.89037" lon="2.34595">
        <ele>36.7</ele>
        <time>2023-03-25T13:53:31Z</time>
      </trkpt>
      <trkpt lat="49.89036" lon="2.34594">
        <ele>36.7</ele>
        <time>2023-03-25T13:53:32Z</time>
      </trkpt>
      <trkpt lat="49.89035" lon="2.34594">
        <ele>36.7</ele>
        <time>2023-03-25T13:53:33Z</time>
      </trkpt>
      <trkpt lat="49.89034" lon="2.34594">
        <ele>36.7</ele>
        <time>2023-03-25T13:53:34Z</time>
      </trkpt>
      <trkpt lat="49.89032" lon="2.34593">
        <ele>36.8</ele>
        <time>2023-03-25T13:53:35Z</time>
      </trkpt>
      <trkpt lat="49.89031" lon="2.34593">
        <ele>36.8</ele>
        <time>2023-03-25T13:53:36Z</time>
      </trkpt>
      <trkpt lat="49.8903" lon="2.34593">
        <ele>36.8</ele>
        <time>2023-03-25T13:53:37Z</time>
      </trkpt>
      <trkpt lat="49.89028" lon="2.34593">
        <ele>36.8</ele>
        <time>2023-03-25T13:53:39Z</time>
      </trkpt>
      <trkpt lat="49.89027" lon="2.34592">
        <ele>36.8</ele>
        <time>2023-03-25T13:53:40Z</time>
      </trkpt>
      <trkpt lat="49.89026" lon="2.34592">
        <ele>36.8</ele>
        <time>2023-03-25T13:53:41Z</time>
      </trkpt>
      <trkpt lat="49.89025" lon="2.34592">
        <ele>36.8</ele>
        <time>2023-03-25T13:53:42Z</time>
      </trkpt>
      <trkpt lat="49.89023" lon="2.34592">
        <ele>36.8</ele>
        <time>2023-03-25T13:53:43Z</time>
      </trkpt>
      <trkpt lat="49.89022" lon="2.34592">
        <ele>36.8</ele>
        <time>2023-03-25T13:53:44Z</time>
      </trkpt>
      <trkpt lat="49.8902" lon="2.34592">
        <ele>36.8</ele>
        <time>2023-03-25T13:53:45Z</time>
      </trkpt>
      <trkpt lat="49.89019" lon="2.34592">
        <ele>36.8</ele>
        <time>2023-03-25T13:53:47Z</time>
      </trkpt>
      <trkpt lat="49.89018" lon="2.34592">
        <ele>36.8</ele>
        <time>2023-03-25T13:53:48Z</time>
      </trkpt>
      <trkpt lat="49.89016" lon="2.34591">
        <ele>36.7</ele>
        <time>2023-03-25T13:53:49Z</time>
      </trkpt>
      <trkpt lat="49.89015" lon="2.34591">
        <ele>36.7</ele>
        <time>2023-03-25T13:53:50Z</time>
      </trkpt>
      <trkpt lat="49.89015" lon="2.34591">
        <ele>36.7</ele>
        <time>2023-03-25T13:53:51Z</time>
      </trkpt>
      <trkpt lat="49.89014" lon="2.34591">
        <ele>36.7</ele>
        <time>2023-03-25T13:53:52Z</time>
      </trkpt>
      <trkpt lat="49.89012" lon="2.3459">
        <ele>36.7</ele>
        <time>2023-03-25T13:53:54Z</time>
      </trkpt>
      <trkpt lat="49.89011" lon="2.3459">
        <ele>36.7</ele>
        <time>2023-03-25T13:53:55Z</time>
      </trkpt>
      <trkpt lat="49.89009" lon="2.34589">
        <ele>36.7</ele>
        <time>2023-03-25T13:53:56Z</time>
      </trkpt>
      <trkpt lat="49.89008" lon="2.34589">
        <ele>36.7</ele>
        <time>2023-03-25T13:53:57Z</time>
      </trkpt>
      <trkpt lat="49.89007" lon="2.34588">
        <ele>36.7</ele>
        <time>2023-03-25T13:53:58Z</time>
      </trkpt>
      <trkpt lat="49.89005" lon="2.34588">
        <ele>36.7</ele>
        <time>2023-03-25T13:53:59Z</time>
      </trkpt>
      <trkpt lat="49.89005" lon="2.34587">
        <ele>36.7</ele>
        <time>2023-03-25T13:54:00Z</time>
      </trkpt>
      <trkpt lat="49.89004" lon="2.34587">
        <ele>36.7</ele>
        <time>2023-03-25T13:54:01Z</time>
      </trkpt>
      <trkpt lat="49.89003" lon="2.34586">
        <ele>36.7</ele>
        <time>2023-03-25T13:54:03Z</time>
      </trkpt>
      <trkpt lat="49.89002" lon="2.34586">
        <ele>36.8</ele>
        <time>2023-03-25T13:54:04Z</time>
      </trkpt>
      <trkpt lat="49.89001" lon="2.34587">
        <ele>36.8</ele>
        <time>2023-03-25T13:54:05Z</time>
      </trkpt>
      <trkpt lat="49.89" lon="2.34588">
        <ele>36.8</ele>
        <time>2023-03-25T13:54:06Z</time>
      </trkpt>
      <trkpt lat="49.88999" lon="2.34588">
        <ele>36.8</ele>
        <time>2023-03-25T13:54:07Z</time>
      </trkpt>
      <trkpt lat="49.88998" lon="2.34588">
        <ele>36.8</ele>
        <time>2023-03-25T13:54:08Z</time>
      </trkpt>
      <trkpt lat="49.88996" lon="2.34588">
        <ele>36.8</ele>
        <time>2023-03-25T13:54:09Z</time>
      </trkpt>
      <trkpt lat="49.88996" lon="2.34587">
        <ele>36.8</ele>
        <time>2023-03-25T13:54:10Z</time>
      </trkpt>
      <trkpt lat="49.88995" lon="2.34586">
        <ele>36.8</ele>
        <time>2023-03-25T13:54:11Z</time>
      </trkpt>
      <trkpt lat="49.88994" lon="2.34585">
        <ele>36.8</ele>
        <time>2023-03-25T13:54:12Z</time>
      </trkpt>
      <trkpt lat="49.88993" lon="2.34584">
        <ele>36.8</ele>
        <time>2023-03-25T13:54:14Z</time>
      </trkpt>
      <trkpt lat="49.88992" lon="2.34583">
        <ele>36.8</ele>
        <time>2023-03-25T13:54:15Z</time>
      </trkpt>
      <trkpt lat="49.8899" lon="2.34582">
        <ele>36.8</ele>
        <time>2023-03-25T13:54:16Z</time>
      </trkpt>
      <trkpt lat="49.88989" lon="2.34582">
        <ele>36.8</ele>
        <time>2023-03-25T13:54:17Z</time>
      </trkpt>
      <trkpt lat="49.88988" lon="2.34581">
        <ele>36.9</ele>
        <time>2023-03-25T13:54:18Z</time>
      </trkpt>
      <trkpt lat="49.88987" lon="2.34581">
        <ele>36.9</ele>
        <time>2023-03-25T13:54:19Z</time>
      </trkpt>
      <trkpt lat="49.88985" lon="2.3458">
        <ele>36.9</ele>
        <time>2023-03-25T13:54:20Z</time>
      </trkpt>
      <trkpt lat="49.88984" lon="2.3458">
        <ele>36.9</ele>
        <time>2023-03-25T13:54:21Z</time>
      </trkpt>
      <trkpt lat="49.88983" lon="2.34579">
        <ele>36.9</ele>
        <time>2023-03-25T13:54:22Z</time>
      </trkpt>
      <trkpt lat="49.88981" lon="2.34579">
        <ele>36.9</ele>
        <time>2023-03-25T13:54:24Z</time>
      </trkpt>
      <trkpt lat="49.8898" lon="2.34579">
        <ele>36.9</ele>
        <time>2023-03-25T13:54:25Z</time>
      </trkpt>
      <trkpt lat="49.88979" lon="2.34578">
        <ele>36.9</ele>
        <time>2023-03-25T13:54:26Z</time>
      </trkpt>
      <trkpt lat="49.88978" lon="2.34578">
        <ele>36.8</ele>
        <time>2023-03-25T13:54:27Z</time>
      </trkpt>
      <trkpt lat="49.88977" lon="2.34577">
        <ele>36.8</ele>
        <time>2023-03-25T13:54:28Z</time>
      </trkpt>
      <trkpt lat="49.88976" lon="2.34576">
        <ele>36.8</ele>
        <time>2023-03-25T13:54:29Z</time>
      </trkpt>
      <trkpt lat="49.88975" lon="2.34575">
        <ele>36.8</ele>
        <time>2023-03-25T13:54:31Z</time>
      </trkpt>
      <trkpt lat="49.88974" lon="2.34575">
        <ele>36.8</ele>
        <time>2023-03-25T13:54:32Z</time>
      </trkpt>
      <trkpt lat="49.88973" lon="2.34574">
        <ele>36.8</ele>
        <time>2023-03-25T13:54:33Z</time>
      </trkpt>
      <trkpt lat="49.88972" lon="2.34574">
        <ele>36.8</ele>
        <time>2023-03-25T13:54:34Z</time>
      </trkpt>
      <trkpt lat="49.88971" lon="2.34573">
        <ele>36.8</ele>
        <time>2023-03-25T13:54:35Z</time>
      </trkpt>
      <trkpt lat="49.8897" lon="2.34572">
        <ele>36.8</ele>
        <time>2023-03-25T13:54:36Z</time>
      </trkpt>
      <trkpt lat="49.88969" lon="2.34572">
        <ele>36.8</ele>
        <time>2023-03-25T13:54:37Z</time>
      </trkpt>
      <trkpt lat="49.88968" lon="2.34572">
        <ele>36.8</ele>
        <time>2023-03-25T13:54:38Z</time>
      </trkpt>
      <trkpt lat="49.88967" lon="2.34571">
        <ele>36.8</ele>
        <time>2023-03-25T13:54:40Z</time>
      </trkpt>
      <trkpt lat="49.88966" lon="2.34571">
        <ele>36.8</ele>
        <time>2023-03-25T13:54:41Z</time>
      </trkpt>
      <trkpt lat="49.88965" lon="2.34571">
        <ele>36.8</ele>
        <time>2023-03-25T13:54:42Z</time>
      </trkpt>
      <trkpt lat="49.88964" lon="2.34571">
        <ele>36.8</ele>
        <time>2023-03-25T13:54:43Z</time>
      </trkpt>
      <trkpt lat="49.88963" lon="2.34571">
        <ele>36.8</ele>
        <time>2023-03-25T13:54:44Z</time>
      </trkpt>
      <trkpt lat="49.88963" lon="2.34572">
        <ele>36.8</ele>
        <time>2023-03-25T13:54:45Z</time>
      </trkpt>
      <trkpt lat="49.88962" lon="2.34573">
        <ele>36.8</ele>
        <time>2023-03-25T13:54:46Z</time>
      </trkpt>
      <trkpt lat="49.88962" lon="2.34574">
        <ele>36.8</ele>
        <time>2023-03-25T13:54:47Z</time>
      </trkpt>
      <trkpt lat="49.88962" lon="2.34574">
        <ele>36.8</ele>
        <time>2023-03-25T13:54:49Z</time>
      </trkpt>
      <trkpt lat="49.88961" lon="2.34575">
        <ele>36.8</ele>
        <time>2023-03-25T13:54:50Z</time>
      </trkpt>
      <trkpt lat="49.8896" lon="2.34576">
        <ele>36.7</ele>
        <time>2023-03-25T13:54:51Z</time>
      </trkpt>
      <trkpt lat="49.8896" lon="2.34577">
        <ele>36.7</ele>
        <time>2023-03-25T13:54:52Z</time>
      </trkpt>
      <trkpt lat="49.88959" lon="2.34578">
        <ele>36.7</ele>
        <time>2023-03-25T13:54:53Z</time>
      </trkpt>
      <trkpt lat="49.88958" lon="2.34579">
        <ele>36.7</ele>
        <time>2023-03-25T13:54:54Z</time>
      </trkpt>
      <trkpt lat="49.88957" lon="2.34581">
        <ele>36.7</ele>
        <time>2023-03-25T13:54:56Z</time>
      </trkpt>
      <trkpt lat="49.88957" lon="2.34582">
        <ele>36.7</ele>
        <time>2023-03-25T13:54:57Z</time>
      </trkpt>
      <trkpt lat="49.88956" lon="2.34583">
        <ele>36.7</ele>
        <time>2023-03-25T13:54:58Z</time>
      </trkpt>
      <trkpt lat="49.88955" lon="2.34585">
        <ele>36.7</ele>
        <time>2023-03-25T13:54:59Z</time>
      </trkpt>
      <trkpt lat="49.88954" lon="2.34587">
        <ele>36.7</ele>
        <time>2023-03-25T13:55:00Z</time>
      </trkpt>
      <trkpt lat="49.88953" lon="2.34588">
        <ele>36.7</ele>
        <time>2023-03-25T13:55:01Z</time>
      </trkpt>
      <trkpt lat="49.88953" lon="2.34588">
        <ele>36.7</ele>
        <time>2023-03-25T13:55:02Z</time>
      </trkpt>
      <trkpt lat="49.88952" lon="2.34589">
        <ele>36.7</ele>
        <time>2023-03-25T13:55:04Z</time>
      </trkpt>
      <trkpt lat="49.88952" lon="2.3459">
        <ele>36.7</ele>
        <time>2023-03-25T13:55:05Z</time>
      </trkpt>
      <trkpt lat="49.88951" lon="2.34591">
        <ele>36.7</ele>
        <time>2023-03-25T13:55:06Z</time>
      </trkpt>
      <trkpt lat="49.88951" lon="2.34592">
        <ele>36.7</ele>
        <time>2023-03-25T13:55:07Z</time>
      </trkpt>
      <trkpt lat="49.8895" lon="2.34593">
        <ele>36.7</ele>
        <time>2023-03-25T13:55:08Z</time>
      </trkpt>
      <trkpt lat="49.88949" lon="2.34594">
        <ele>36.7</ele>
        <time>2023-03-25T13:55:09Z</time>
      </trkpt>
      <trkpt lat="49.88949" lon="2.34595">
        <ele>36.7</ele>
        <time>2023-03-25T13:55:10Z</time>
      </trkpt>
      <trkpt lat="49.88948" lon="2.34596">
        <ele>36.7</ele>
        <time>2023-03-25T13:55:12Z</time>
      </trkpt>
      <trkpt lat="49.88947" lon="2.34597">
        <ele>36.7</ele>
        <time>2023-03-25T13:55:13Z</time>
      </trkpt>
      <trkpt lat="49.88946" lon="2.34599">
        <ele>36.7</ele>
        <time>2023-03-25T13:55:14Z</time>
      </trkpt>
      <trkpt lat="49.88946" lon="2.346">
        <ele>36.7</ele>
        <time>2023-03-25T13:55:15Z</time>
      </trkpt>
      <trkpt lat="49.88945" lon="2.34601">
        <ele>36.7</ele>
        <time>2023-03-25T13:55:16Z</time>
      </trkpt>
      <trkpt lat="49.88945" lon="2.34602">
        <ele>36.7</ele>
        <time>2023-03-25T13:55:17Z</time>
      </trkpt>
      <trkpt lat="49.88944" lon="2.34604">
        <ele>36.7</ele>
        <time>2023-03-25T13:55:19Z</time>
      </trkpt>
      <trkpt lat="49.88944" lon="2.34606">
        <ele>36.7</ele>
        <time>2023-03-25T13:55:20Z</time>
      </trkpt>
      <trkpt lat="49.88944" lon="2.34607">
        <ele>36.7</ele>
        <time>2023-03-25T13:55:21Z</time>
      </trkpt>
      <trkpt lat="49.88943" lon="2.34609">
        <ele>36.7</ele>
        <time>2023-03-25T13:55:22Z</time>
      </trkpt>
      <trkpt lat="49.88942" lon="2.3461">
        <ele>36.7</ele>
        <time>2023-03-25T13:55:23Z</time>
      </trkpt>
      <trkpt lat="49.88942" lon="2.34612">
        <ele>36.7</ele>
        <time>2023-03-25T13:55:24Z</time>
      </trkpt>
      <trkpt lat="49.88941" lon="2.34614">
        <ele>36.7</ele>
        <time>2023-03-25T13:55:26Z</time>
      </trkpt>
      <trkpt lat="49.8894" lon="2.34616">
        <ele>36.7</ele>
        <time>2023-03-25T13:55:27Z</time>
      </trkpt>
      <trkpt lat="49.8894" lon="2.34618">
        <ele>36.7</ele>
        <time>2023-03-25T13:55:29Z</time>
      </trkpt>
      <trkpt lat="49.8894" lon="2.34619">
        <ele>36.7</ele>
        <time>2023-03-25T13:55:30Z</time>
      </trkpt>
      <trkpt lat="49.8894" lon="2.34619">
        <ele>36.7</ele>
        <time>2023-03-25T13:55:32Z</time>
      </trkpt>
      <trkpt lat="49.8894" lon="2.34618">
        <ele>36.7</ele>
        <time>2023-03-25T13:55:33Z</time>
      </trkpt>
      <trkpt lat="49.88941" lon="2.34618">
        <ele>36.7</ele>
        <time>2023-03-25T13:55:34Z</time>
      </trkpt>
      <trkpt lat="49.88941" lon="2.34619">
        <ele>36.7</ele>
        <time>2023-03-25T13:55:36Z</time>
      </trkpt>
      <trkpt lat="49.88941" lon="2.34619">
        <ele>36.7</ele>
        <time>2023-03-25T13:55:37Z</time>
      </trkpt>
      <trkpt lat="49.8894" lon="2.3462">
        <ele>36.7</ele>
        <time>2023-03-25T13:55:38Z</time>
      </trkpt>
      <trkpt lat="49.8894" lon="2.34621">
        <ele>36.7</ele>
        <time>2023-03-25T13:55:39Z</time>
      </trkpt>
      <trkpt lat="49.88939" lon="2.34622">
        <ele>36.7</ele>
        <time>2023-03-25T13:55:40Z</time>
      </trkpt>
      <trkpt lat="49.88939" lon="2.34623">
        <ele>36.7</ele>
        <time>2023-03-25T13:55:41Z</time>
      </trkpt>
      <trkpt lat="49.88938" lon="2.34623">
        <ele>36.8</ele>
        <time>2023-03-25T13:55:42Z</time>
      </trkpt>
      <trkpt lat="49.88937" lon="2.34624">
        <ele>36.8</ele>
        <time>2023-03-25T13:55:43Z</time>
      </trkpt>
      <trkpt lat="49.88936" lon="2.34625">
        <ele>36.8</ele>
        <time>2023-03-25T13:55:44Z</time>
      </trkpt>
      <trkpt lat="49.88935" lon="2.34626">
        <ele>36.8</ele>
        <time>2023-03-25T13:55:46Z</time>
      </trkpt>
      <trkpt lat="49.88934" lon="2.34626">
        <ele>36.8</ele>
        <time>2023-03-25T13:55:47Z</time>
      </trkpt>
      <trkpt lat="49.88933" lon="2.34627">
        <ele>36.8</ele>
        <time>2023-03-25T13:55:48Z</time>
      </trkpt>
      <trkpt lat="49.88932" lon="2.34628">
        <ele>36.8</ele>
        <time>2023-03-25T13:55:49Z</time>
      </trkpt>
      <trkpt lat="49.88932" lon="2.3463">
        <ele>36.8</ele>
        <time>2023-03-25T13:55:50Z</time>
      </trkpt>
      <trkpt lat="49.8893" lon="2.34631">
        <ele>36.8</ele>
        <time>2023-03-25T13:55:52Z</time>
      </trkpt>
      <trkpt lat="49.88929" lon="2.34632">
        <ele>36.8</ele>
        <time>2023-03-25T13:55:53Z</time>
      </trkpt>
      <trkpt lat="49.88928" lon="2.34633">
        <ele>36.8</ele>
        <time>2023-03-25T13:55:54Z</time>
      </trkpt>
      <trkpt lat="49.88927" lon="2.34634">
        <ele>36.8</ele>
        <time>2023-03-25T13:55:55Z</time>
      </trkpt>
      <trkpt lat="49.88926" lon="2.34635">
        <ele>36.8</ele>
        <time>2023-03-25T13:55:56Z</time>
      </trkpt>
      <trkpt lat="49.88925" lon="2.34636">
        <ele>36.8</ele>
        <time>2023-03-25T13:55:57Z</time>
      </trkpt>
      <trkpt lat="49.88924" lon="2.34637">
        <ele>36.8</ele>
        <time>2023-03-25T13:55:58Z</time>
      </trkpt>
      <trkpt lat="49.88923" lon="2.34638">
        <ele>36.9</ele>
        <time>2023-03-25T13:55:59Z</time>
      </trkpt>
      <trkpt lat="49.88922" lon="2.34638">
        <ele>36.9</ele>
        <time>2023-03-25T13:56:01Z</time>
      </trkpt>
      <trkpt lat="49.88921" lon="2.34639">
        <ele>36.9</ele>
        <time>2023-03-25T13:56:02Z</time>
      </trkpt>
      <trkpt lat="49.88919" lon="2.3464">
        <ele>36.9</ele>
        <time>2023-03-25T13:56:03Z</time>
      </trkpt>
      <trkpt lat="49.88918" lon="2.34641">
        <ele>36.9</ele>
        <time>2023-03-25T13:56:04Z</time>
      </trkpt>
      <trkpt lat="49.88917" lon="2.34641">
        <ele>36.9</ele>
        <time>2023-03-25T13:56:05Z</time>
      </trkpt>
      <trkpt lat="49.88916" lon="2.34642">
        <ele>36.9</ele>
        <time>2023-03-25T13:56:06Z</time>
      </trkpt>
      <trkpt lat="49.88914" lon="2.34643">
        <ele>36.9</ele>
        <time>2023-03-25T13:56:07Z</time>
      </trkpt>
      <trkpt lat="49.88914" lon="2.34644">
        <ele>36.9</ele>
        <time>2023-03-25T13:56:09Z</time>
      </trkpt>
      <trkpt lat="49.88913" lon="2.34644">
        <ele>36.9</ele>
        <time>2023-03-25T13:56:10Z</time>
      </trkpt>
      <trkpt lat="49.88912" lon="2.34646">
        <ele>36.9</ele>
        <time>2023-03-25T13:56:11Z</time>
      </trkpt>
      <trkpt lat="49.88911" lon="2.34646">
        <ele>36.9</ele>
        <time>2023-03-25T13:56:12Z</time>
      </trkpt>
      <trkpt lat="49.8891" lon="2.34647">
        <ele>36.9</ele>
        <time>2023-03-25T13:56:13Z</time>
      </trkpt>
      <trkpt lat="49.8891" lon="2.34648">
        <ele>36.9</ele>
        <time>2023-03-25T13:56:14Z</time>
      </trkpt>
      <trkpt lat="49.88909" lon="2.34649">
        <ele>36.9</ele>
        <time>2023-03-25T13:56:15Z</time>
      </trkpt>
      <trkpt lat="49.88909" lon="2.3465">
        <ele>36.9</ele>
        <time>2023-03-25T13:56:17Z</time>
      </trkpt>
      <trkpt lat="49.8891" lon="2.3465">
        <ele>36.9</ele>
        <time>2023-03-25T13:56:18Z</time>
      </trkpt>
      <trkpt lat="49.8891" lon="2.34649">
        <ele>36.9</ele>
        <time>2023-03-25T13:56:20Z</time>
      </trkpt>
      <trkpt lat="49.88911" lon="2.34649">
        <ele>36.9</ele>
        <time>2023-03-25T13:56:21Z</time>
      </trkpt>
      <trkpt lat="49.88911" lon="2.34649">
        <ele>36.9</ele>
        <time>2023-03-25T13:56:22Z</time>
      </trkpt>
      <trkpt lat="49.88911" lon="2.34649">
        <ele>36.9</ele>
        <time>2023-03-25T13:56:23Z</time>
      </trkpt>
      <trkpt lat="49.88911" lon="2.34649">
        <ele>36.9</ele>
        <time>2023-03-25T13:56:25Z</time>
      </trkpt>
      <trkpt lat="49.8891" lon="2.34649">
        <ele>36.9</ele>
        <time>2023-03-25T13:56:26Z</time>
      </trkpt>
      <trkpt lat="49.8891" lon="2.34649">
        <ele>36.9</ele>
        <time>2023-03-25T13:56:27Z</time>
      </trkpt>
      <trkpt lat="49.88909" lon="2.3465">
        <ele>36.9</ele>
        <time>2023-03-25T13:56:28Z</time>
      </trkpt>
      <trkpt lat="49.88909" lon="2.3465">
        <ele>36.9</ele>
        <time>2023-03-25T13:56:29Z</time>
      </trkpt>
      <trkpt lat="49.88908" lon="2.3465">
        <ele>36.8</ele>
        <time>2023-03-25T13:56:30Z</time>
      </trkpt>
      <trkpt lat="49.88908" lon="2.34651">
        <ele>36.8</ele>
        <time>2023-03-25T13:56:31Z</time>
      </trkpt>
      <trkpt lat="49.88907" lon="2.34651">
        <ele>36.8</ele>
        <time>2023-03-25T13:56:32Z</time>
      </trkpt>
      <trkpt lat="49.88906" lon="2.34652">
        <ele>36.8</ele>
        <time>2023-03-25T13:56:33Z</time>
      </trkpt>
      <trkpt lat="49.88905" lon="2.34652">
        <ele>36.8</ele>
        <time>2023-03-25T13:56:35Z</time>
      </trkpt>
      <trkpt lat="49.88905" lon="2.34653">
        <ele>36.8</ele>
        <time>2023-03-25T13:56:36Z</time>
      </trkpt>
      <trkpt lat="49.88904" lon="2.34653">
        <ele>36.8</ele>
        <time>2023-03-25T13:56:37Z</time>
      </trkpt>
      <trkpt lat="49.88903" lon="2.34654">
        <ele>36.8</ele>
        <time>2023-03-25T13:56:38Z</time>
      </trkpt>
      <trkpt lat="49.88902" lon="2.34655">
        <ele>36.8</ele>
        <time>2023-03-25T13:56:39Z</time>
      </trkpt>
      <trkpt lat="49.88901" lon="2.34656">
        <ele>36.8</ele>
        <time>2023-03-25T13:56:40Z</time>
      </trkpt>
      <trkpt lat="49.889" lon="2.34657">
        <ele>36.8</ele>
        <time>2023-03-25T13:56:41Z</time>
      </trkpt>
      <trkpt lat="49.889" lon="2.34658">
        <ele>36.8</ele>
        <time>2023-03-25T13:56:42Z</time>
      </trkpt>
      <trkpt lat="49.88899" lon="2.34659">
        <ele>36.7</ele>
        <time>2023-03-25T13:56:43Z</time>
      </trkpt>
      <trkpt lat="49.88898" lon="2.3466">
        <ele>36.7</ele>
        <time>2023-03-25T13:56:45Z</time>
      </trkpt>
      <trkpt lat="49.88896" lon="2.34663">
        <ele>36.7</ele>
        <time>2023-03-25T13:56:46Z</time>
      </trkpt>
      <trkpt lat="49.88895" lon="2.34664">
        <ele>36.7</ele>
        <time>2023-03-25T13:56:47Z</time>
      </trkpt>
      <trkpt lat="49.88895" lon="2.34665">
        <ele>36.7</ele>
        <time>2023-03-25T13:56:48Z</time>
      </trkpt>
      <trkpt lat="49.88894" lon="2.34666">
        <ele>36.6</ele>
        <time>2023-03-25T13:56:49Z</time>
      </trkpt>
      <trkpt lat="49.88893" lon="2.34668">
        <ele>36.6</ele>
        <time>2023-03-25T13:56:50Z</time>
      </trkpt>
      <trkpt lat="49.88891" lon="2.34671">
        <ele>36.6</ele>
        <time>2023-03-25T13:56:51Z</time>
      </trkpt>
      <trkpt lat="49.8889" lon="2.34672">
        <ele>36.5</ele>
        <time>2023-03-25T13:56:53Z</time>
      </trkpt>
      <trkpt lat="49.88889" lon="2.34673">
        <ele>36.5</ele>
        <time>2023-03-25T13:56:54Z</time>
      </trkpt>
      <trkpt lat="49.88889" lon="2.34674">
        <ele>36.5</ele>
        <time>2023-03-25T13:56:55Z</time>
      </trkpt>
      <trkpt lat="49.88888" lon="2.34676">
        <ele>36.4</ele>
        <time>2023-03-25T13:56:56Z</time>
      </trkpt>
      <trkpt lat="49.88887" lon="2.34677">
        <ele>36.4</ele>
        <time>2023-03-25T13:56:57Z</time>
      </trkpt>
      <trkpt lat="49.88887" lon="2.34678">
        <ele>36.3</ele>
        <time>2023-03-25T13:56:58Z</time>
      </trkpt>
      <trkpt lat="49.88886" lon="2.34679">
        <ele>36.3</ele>
        <time>2023-03-25T13:56:59Z</time>
      </trkpt>
      <trkpt lat="49.88885" lon="2.34681">
        <ele>36.3</ele>
        <time>2023-03-25T13:57:01Z</time>
      </trkpt>
      <trkpt lat="49.88884" lon="2.34682">
        <ele>36.2</ele>
        <time>2023-03-25T13:57:02Z</time>
      </trkpt>
      <trkpt lat="49.88884" lon="2.34683">
        <ele>36.1</ele>
        <time>2023-03-25T13:57:03Z</time>
      </trkpt>
      <trkpt lat="49.88882" lon="2.34686">
        <ele>36</ele>
        <time>2023-03-25T13:57:04Z</time>
      </trkpt>
      <trkpt lat="49.88882" lon="2.34686">
        <ele>36</ele>
        <time>2023-03-25T13:57:05Z</time>
      </trkpt>
      <trkpt lat="49.88881" lon="2.34687">
        <ele>35.9</ele>
        <time>2023-03-25T13:57:06Z</time>
      </trkpt>
      <trkpt lat="49.8888" lon="2.34689">
        <ele>35.8</ele>
        <time>2023-03-25T13:57:08Z</time>
      </trkpt>
      <trkpt lat="49.88879" lon="2.3469">
        <ele>35.7</ele>
        <time>2023-03-25T13:57:09Z</time>
      </trkpt>
      <trkpt lat="49.88878" lon="2.34691">
        <ele>35.6</ele>
        <time>2023-03-25T13:57:10Z</time>
      </trkpt>
      <trkpt lat="49.88877" lon="2.34692">
        <ele>35.6</ele>
        <time>2023-03-25T13:57:11Z</time>
      </trkpt>
      <trkpt lat="49.88876" lon="2.34693">
        <ele>35.5</ele>
        <time>2023-03-25T13:57:12Z</time>
      </trkpt>
      <trkpt lat="49.88876" lon="2.34694">
        <ele>35.4</ele>
        <time>2023-03-25T13:57:13Z</time>
      </trkpt>
      <trkpt lat="49.88875" lon="2.34695">
        <ele>35.3</ele>
        <time>2023-03-25T13:57:15Z</time>
      </trkpt>
      <trkpt lat="49.88875" lon="2.34695">
        <ele>35.3</ele>
        <time>2023-03-25T13:57:16Z</time>
      </trkpt>
      <trkpt lat="49.88875" lon="2.34696">
        <ele>35.2</ele>
        <time>2023-03-25T13:57:17Z</time>
      </trkpt>
      <trkpt lat="49.88874" lon="2.34696">
        <ele>35.2</ele>
        <time>2023-03-25T13:57:18Z</time>
      </trkpt>
      <trkpt lat="49.88874" lon="2.34697">
        <ele>35.1</ele>
        <time>2023-03-25T13:57:19Z</time>
      </trkpt>
      <trkpt lat="49.88873" lon="2.34698">
        <ele>35.1</ele>
        <time>2023-03-25T13:57:20Z</time>
      </trkpt>
      <trkpt lat="49.88873" lon="2.34699">
        <ele>34.9</ele>
        <time>2023-03-25T13:57:21Z</time>
      </trkpt>
      <trkpt lat="49.88871" lon="2.347">
        <ele>34.8</ele>
        <time>2023-03-25T13:57:23Z</time>
      </trkpt>
      <trkpt lat="49.8887" lon="2.34701">
        <ele>34.6</ele>
        <time>2023-03-25T13:57:24Z</time>
      </trkpt>
      <trkpt lat="49.8887" lon="2.34702">
        <ele>34.6</ele>
        <time>2023-03-25T13:57:25Z</time>
      </trkpt>
      <trkpt lat="49.88869" lon="2.34702">
        <ele>34.5</ele>
        <time>2023-03-25T13:57:27Z</time>
      </trkpt>
      <trkpt lat="49.88869" lon="2.34703">
        <ele>34.5</ele>
        <time>2023-03-25T13:57:28Z</time>
      </trkpt>
      <trkpt lat="49.88869" lon="2.34703">
        <ele>34.5</ele>
        <time>2023-03-25T13:57:29Z</time>
      </trkpt>
      <trkpt lat="49.88869" lon="2.34703">
        <ele>34.5</ele>
        <time>2023-03-25T13:57:30Z</time>
      </trkpt>
      <trkpt lat="49.88869" lon="2.34703">
        <ele>34.4</ele>
        <time>2023-03-25T13:57:32Z</time>
      </trkpt>
      <trkpt lat="49.88868" lon="2.34703">
        <ele>34.4</ele>
        <time>2023-03-25T13:57:33Z</time>
      </trkpt>
      <trkpt lat="49.88868" lon="2.34702">
        <ele>34.3</ele>
        <time>2023-03-25T13:57:35Z</time>
      </trkpt>
      <trkpt lat="49.88868" lon="2.347">
        <ele>34.1</ele>
        <time>2023-03-25T13:57:36Z</time>
      </trkpt>
      <trkpt lat="49.88868" lon="2.34699">
        <ele>34</ele>
        <time>2023-03-25T13:57:37Z</time>
      </trkpt>
      <trkpt lat="49.88867" lon="2.34696">
        <ele>33.8</ele>
        <time>2023-03-25T13:57:38Z</time>
      </trkpt>
      <trkpt lat="49.88866" lon="2.34694">
        <ele>33.7</ele>
        <time>2023-03-25T13:57:40Z</time>
      </trkpt>
      <trkpt lat="49.88866" lon="2.34693">
        <ele>33.6</ele>
        <time>2023-03-25T13:57:41Z</time>
      </trkpt>
      <trkpt lat="49.88865" lon="2.34691">
        <ele>33.5</ele>
        <time>2023-03-25T13:57:42Z</time>
      </trkpt>
      <trkpt lat="49.88864" lon="2.3469">
        <ele>33.5</ele>
        <time>2023-03-25T13:57:43Z</time>
      </trkpt>
      <trkpt lat="49.88863" lon="2.34689">
        <ele>33.5</ele>
        <time>2023-03-25T13:57:44Z</time>
      </trkpt>
      <trkpt lat="49.88862" lon="2.34688">
        <ele>33.5</ele>
        <time>2023-03-25T13:57:46Z</time>
      </trkpt>
      <trkpt lat="49.88862" lon="2.34686">
        <ele>33.5</ele>
        <time>2023-03-25T13:57:47Z</time>
      </trkpt>
      <trkpt lat="49.88861" lon="2.34685">
        <ele>33.5</ele>
        <time>2023-03-25T13:57:48Z</time>
      </trkpt>
      <trkpt lat="49.88861" lon="2.34683">
        <ele>33.5</ele>
        <time>2023-03-25T13:57:49Z</time>
      </trkpt>
      <trkpt lat="49.8886" lon="2.34682">
        <ele>33.5</ele>
        <time>2023-03-25T13:57:50Z</time>
      </trkpt>
      <trkpt lat="49.8886" lon="2.3468">
        <ele>33.4</ele>
        <time>2023-03-25T13:57:51Z</time>
      </trkpt>
      <trkpt lat="49.88859" lon="2.34679">
        <ele>33.4</ele>
        <time>2023-03-25T13:57:52Z</time>
      </trkpt>
      <trkpt lat="49.88858" lon="2.34678">
        <ele>33.4</ele>
        <time>2023-03-25T13:57:54Z</time>
      </trkpt>
      <trkpt lat="49.88858" lon="2.34676">
        <ele>33.4</ele>
        <time>2023-03-25T13:57:55Z</time>
      </trkpt>
      <trkpt lat="49.88857" lon="2.34675">
        <ele>33.4</ele>
        <time>2023-03-25T13:57:56Z</time>
      </trkpt>
      <trkpt lat="49.88856" lon="2.34675">
        <ele>33.4</ele>
        <time>2023-03-25T13:57:58Z</time>
      </trkpt>
      <trkpt lat="49.88855" lon="2.34674">
        <ele>33.3</ele>
        <time>2023-03-25T13:57:59Z</time>
      </trkpt>
      <trkpt lat="49.88854" lon="2.34673">
        <ele>33.3</ele>
        <time>2023-03-25T13:58:00Z</time>
      </trkpt>
      <trkpt lat="49.88854" lon="2.34673">
        <ele>33.3</ele>
        <time>2023-03-25T13:58:01Z</time>
      </trkpt>
      <trkpt lat="49.88853" lon="2.34672">
        <ele>33.3</ele>
        <time>2023-03-25T13:58:02Z</time>
      </trkpt>
      <trkpt lat="49.88853" lon="2.34672">
        <ele>33.3</ele>
        <time>2023-03-25T13:58:03Z</time>
      </trkpt>
      <trkpt lat="49.88851" lon="2.34671">
        <ele>33.2</ele>
        <time>2023-03-25T13:58:05Z</time>
      </trkpt>
      <trkpt lat="49.88851" lon="2.34672">
        <ele>33.2</ele>
        <time>2023-03-25T13:58:06Z</time>
      </trkpt>
      <trkpt lat="49.88851" lon="2.34672">
        <ele>33.2</ele>
        <time>2023-03-25T13:58:07Z</time>
      </trkpt>
      <trkpt lat="49.88851" lon="2.34673">
        <ele>33.2</ele>
        <time>2023-03-25T13:58:09Z</time>
      </trkpt>
      <trkpt lat="49.88851" lon="2.34673">
        <ele>33.2</ele>
        <time>2023-03-25T13:58:10Z</time>
      </trkpt>
      <trkpt lat="49.88851" lon="2.34673">
        <ele>33.2</ele>
        <time>2023-03-25T13:58:11Z</time>
      </trkpt>
      <trkpt lat="49.88851" lon="2.34673">
        <ele>33.2</ele>
        <time>2023-03-25T13:58:13Z</time>
      </trkpt>
      <trkpt lat="49.88851" lon="2.34673">
        <ele>33.2</ele>
        <time>2023-03-25T13:58:14Z</time>
      </trkpt>
      <trkpt lat="49.88851" lon="2.34673">
        <ele>33.2</ele>
        <time>2023-03-25T13:58:15Z</time>
      </trkpt>
      <trkpt lat="49.8885" lon="2.34673">
        <ele>33.2</ele>
        <time>2023-03-25T13:58:16Z</time>
      </trkpt>
      <trkpt lat="49.8885" lon="2.34672">
        <ele>33.2</ele>
        <time>2023-03-25T13:58:17Z</time>
      </trkpt>
      <trkpt lat="49.88849" lon="2.34672">
        <ele>33.2</ele>
        <time>2023-03-25T13:58:18Z</time>
      </trkpt>
      <trkpt lat="49.88848" lon="2.34672">
        <ele>33.1</ele>
        <time>2023-03-25T13:58:19Z</time>
      </trkpt>
      <trkpt lat="49.88847" lon="2.34671">
        <ele>33.1</ele>
        <time>2023-03-25T13:58:21Z</time>
      </trkpt>
      <trkpt lat="49.88846" lon="2.3467">
        <ele>33.1</ele>
        <time>2023-03-25T13:58:22Z</time>
      </trkpt>
      <trkpt lat="49.88846" lon="2.34669">
        <ele>33.1</ele>
        <time>2023-03-25T13:58:23Z</time>
      </trkpt>
      <trkpt lat="49.88845" lon="2.34668">
        <ele>33</ele>
        <time>2023-03-25T13:58:24Z</time>
      </trkpt>
      <trkpt lat="49.88845" lon="2.34666">
        <ele>33</ele>
        <time>2023-03-25T13:58:25Z</time>
      </trkpt>
      <trkpt lat="49.88845" lon="2.34664">
        <ele>33</ele>
        <time>2023-03-25T13:58:26Z</time>
      </trkpt>
      <trkpt lat="49.88844" lon="2.34663">
        <ele>33</ele>
        <time>2023-03-25T13:58:27Z</time>
      </trkpt>
      <trkpt lat="49.88843" lon="2.34662">
        <ele>33</ele>
        <time>2023-03-25T13:58:29Z</time>
      </trkpt>
      <trkpt lat="49.88842" lon="2.3466">
        <ele>32.9</ele>
        <time>2023-03-25T13:58:30Z</time>
      </trkpt>
      <trkpt lat="49.88842" lon="2.34659">
        <ele>32.9</ele>
        <time>2023-03-25T13:58:31Z</time>
      </trkpt>
      <trkpt lat="49.88842" lon="2.34657">
        <ele>32.9</ele>
        <time>2023-03-25T13:58:32Z</time>
      </trkpt>
      <trkpt lat="49.88841" lon="2.34656">
        <ele>32.9</ele>
        <time>2023-03-25T13:58:33Z</time>
      </trkpt>
      <trkpt lat="49.8884" lon="2.34655">
        <ele>32.8</ele>
        <time>2023-03-25T13:58:34Z</time>
      </trkpt>
      <trkpt lat="49.88839" lon="2.34655">
        <ele>32.8</ele>
        <time>2023-03-25T13:58:35Z</time>
      </trkpt>
      <trkpt lat="49.88838" lon="2.34655">
        <ele>32.8</ele>
        <time>2023-03-25T13:58:37Z</time>
      </trkpt>
      <trkpt lat="49.88837" lon="2.34653">
        <ele>32.8</ele>
        <time>2023-03-25T13:58:38Z</time>
      </trkpt>
      <trkpt lat="49.88835" lon="2.34652">
        <ele>32.7</ele>
        <time>2023-03-25T13:58:39Z</time>
      </trkpt>
      <trkpt lat="49.88834" lon="2.34651">
        <ele>32.7</ele>
        <time>2023-03-25T13:58:41Z</time>
      </trkpt>
      <trkpt lat="49.88832" lon="2.3465">
        <ele>32.7</ele>
        <time>2023-03-25T13:58:42Z</time>
      </trkpt>
      <trkpt lat="49.88831" lon="2.34649">
        <ele>32.7</ele>
        <time>2023-03-25T13:58:43Z</time>
      </trkpt>
      <trkpt lat="49.8883" lon="2.34648">
        <ele>32.6</ele>
        <time>2023-03-25T13:58:44Z</time>
      </trkpt>
      <trkpt lat="49.88829" lon="2.34648">
        <ele>32.6</ele>
        <time>2023-03-25T13:58:45Z</time>
      </trkpt>
      <trkpt lat="49.88827" lon="2.34647">
        <ele>32.6</ele>
        <time>2023-03-25T13:58:46Z</time>
      </trkpt>
      <trkpt lat="49.88826" lon="2.34647">
        <ele>32.6</ele>
        <time>2023-03-25T13:58:48Z</time>
      </trkpt>
      <trkpt lat="49.88825" lon="2.34647">
        <ele>32.5</ele>
        <time>2023-03-25T13:58:49Z</time>
      </trkpt>
      <trkpt lat="49.88824" lon="2.34646">
        <ele>32.5</ele>
        <time>2023-03-25T13:58:50Z</time>
      </trkpt>
      <trkpt lat="49.88824" lon="2.34645">
        <ele>32.5</ele>
        <time>2023-03-25T13:58:51Z</time>
      </trkpt>
      <trkpt lat="49.88823" lon="2.34644">
        <ele>32.5</ele>
        <time>2023-03-25T13:58:52Z</time>
      </trkpt>
      <trkpt lat="49.88822" lon="2.34643">
        <ele>32.5</ele>
        <time>2023-03-25T13:58:53Z</time>
      </trkpt>
      <trkpt lat="49.88821" lon="2.34642">
        <ele>32.5</ele>
        <time>2023-03-25T13:58:54Z</time>
      </trkpt>
      <trkpt lat="49.8882" lon="2.34641">
        <ele>32.4</ele>
        <time>2023-03-25T13:58:56Z</time>
      </trkpt>
      <trkpt lat="49.88819" lon="2.34639">
        <ele>32.4</ele>
        <time>2023-03-25T13:58:57Z</time>
      </trkpt>
      <trkpt lat="49.88818" lon="2.34637">
        <ele>32.4</ele>
        <time>2023-03-25T13:58:58Z</time>
      </trkpt>
      <trkpt lat="49.88817" lon="2.34636">
        <ele>32.4</ele>
        <time>2023-03-25T13:58:59Z</time>
      </trkpt>
      <trkpt lat="49.88817" lon="2.34635">
        <ele>32.4</ele>
        <time>2023-03-25T13:59:00Z</time>
      </trkpt>
      <trkpt lat="49.88816" lon="2.34634">
        <ele>32.3</ele>
        <time>2023-03-25T13:59:01Z</time>
      </trkpt>
      <trkpt lat="49.88815" lon="2.34633">
        <ele>32.3</ele>
        <time>2023-03-25T13:59:02Z</time>
      </trkpt>
      <trkpt lat="49.88814" lon="2.34632">
        <ele>32.3</ele>
        <time>2023-03-25T13:59:04Z</time>
      </trkpt>
      <trkpt lat="49.88813" lon="2.3463">
        <ele>32.3</ele>
        <time>2023-03-25T13:59:05Z</time>
      </trkpt>
      <trkpt lat="49.88812" lon="2.34629">
        <ele>32.3</ele>
        <time>2023-03-25T13:59:06Z</time>
      </trkpt>
      <trkpt lat="49.88811" lon="2.34627">
        <ele>32.2</ele>
        <time>2023-03-25T13:59:08Z</time>
      </trkpt>
      <trkpt lat="49.8881" lon="2.34626">
        <ele>32.2</ele>
        <time>2023-03-25T13:59:09Z</time>
      </trkpt>
      <trkpt lat="49.88809" lon="2.34625">
        <ele>32.2</ele>
        <time>2023-03-25T13:59:10Z</time>
      </trkpt>
      <trkpt lat="49.88808" lon="2.34624">
        <ele>32.2</ele>
        <time>2023-03-25T13:59:11Z</time>
      </trkpt>
      <trkpt lat="49.88808" lon="2.34623">
        <ele>32.2</ele>
        <time>2023-03-25T13:59:12Z</time>
      </trkpt>
      <trkpt lat="49.88807" lon="2.34622">
        <ele>32.2</ele>
        <time>2023-03-25T13:59:13Z</time>
      </trkpt>
      <trkpt lat="49.88806" lon="2.34621">
        <ele>32.2</ele>
        <time>2023-03-25T13:59:14Z</time>
      </trkpt>
      <trkpt lat="49.88806" lon="2.34619">
        <ele>32.1</ele>
        <time>2023-03-25T13:59:16Z</time>
      </trkpt>
      <trkpt lat="49.88805" lon="2.34618">
        <ele>32.1</ele>
        <time>2023-03-25T13:59:17Z</time>
      </trkpt>
      <trkpt lat="49.88804" lon="2.34617">
        <ele>32.1</ele>
        <time>2023-03-25T13:59:18Z</time>
      </trkpt>
      <trkpt lat="49.88803" lon="2.34616">
        <ele>32.1</ele>
        <time>2023-03-25T13:59:19Z</time>
      </trkpt>
      <trkpt lat="49.88803" lon="2.34614">
        <ele>32.1</ele>
        <time>2023-03-25T13:59:20Z</time>
      </trkpt>
      <trkpt lat="49.88802" lon="2.34613">
        <ele>32.1</ele>
        <time>2023-03-25T13:59:21Z</time>
      </trkpt>
      <trkpt lat="49.88802" lon="2.34612">
        <ele>32.1</ele>
        <time>2023-03-25T13:59:22Z</time>
      </trkpt>
      <trkpt lat="49.88801" lon="2.34611">
        <ele>32.1</ele>
        <time>2023-03-25T13:59:23Z</time>
      </trkpt>
      <trkpt lat="49.888" lon="2.34609">
        <ele>32.1</ele>
        <time>2023-03-25T13:59:25Z</time>
      </trkpt>
      <trkpt lat="49.888" lon="2.34607">
        <ele>32.1</ele>
        <time>2023-03-25T13:59:26Z</time>
      </trkpt>
      <trkpt lat="49.88798" lon="2.34605">
        <ele>32.1</ele>
        <time>2023-03-25T13:59:27Z</time>
      </trkpt>
      <trkpt lat="49.88798" lon="2.34604">
        <ele>32</ele>
        <time>2023-03-25T13:59:28Z</time>
      </trkpt>
      <trkpt lat="49.88797" lon="2.34603">
        <ele>32</ele>
        <time>2023-03-25T13:59:29Z</time>
      </trkpt>
      <trkpt lat="49.88796" lon="2.34601">
        <ele>32</ele>
        <time>2023-03-25T13:59:30Z</time>
      </trkpt>
      <trkpt lat="49.88795" lon="2.346">
        <ele>32</ele>
        <time>2023-03-25T13:59:32Z</time>
      </trkpt>
      <trkpt lat="49.88795" lon="2.34598">
        <ele>32</ele>
        <time>2023-03-25T13:59:33Z</time>
      </trkpt>
      <trkpt lat="49.88795" lon="2.34596">
        <ele>32</ele>
        <time>2023-03-25T13:59:34Z</time>
      </trkpt>
      <trkpt lat="49.88795" lon="2.34594">
        <ele>32</ele>
        <time>2023-03-25T13:59:35Z</time>
      </trkpt>
      <trkpt lat="49.88795" lon="2.34593">
        <ele>32</ele>
        <time>2023-03-25T13:59:36Z</time>
      </trkpt>
      <trkpt lat="49.88795" lon="2.34592">
        <ele>32</ele>
        <time>2023-03-25T13:59:37Z</time>
      </trkpt>
      <trkpt lat="49.88795" lon="2.3459">
        <ele>32</ele>
        <time>2023-03-25T13:59:39Z</time>
      </trkpt>
      <trkpt lat="49.88795" lon="2.34588">
        <ele>32</ele>
        <time>2023-03-25T13:59:40Z</time>
      </trkpt>
      <trkpt lat="49.88794" lon="2.34585">
        <ele>32</ele>
        <time>2023-03-25T13:59:41Z</time>
      </trkpt>
      <trkpt lat="49.88794" lon="2.34584">
        <ele>32</ele>
        <time>2023-03-25T13:59:42Z</time>
      </trkpt>
      <trkpt lat="49.88793" lon="2.34583">
        <ele>31.9</ele>
        <time>2023-03-25T13:59:43Z</time>
      </trkpt>
      <trkpt lat="49.88792" lon="2.3458">
        <ele>31.9</ele>
        <time>2023-03-25T13:59:45Z</time>
      </trkpt>
      <trkpt lat="49.88792" lon="2.34579">
        <ele>31.9</ele>
        <time>2023-03-25T13:59:46Z</time>
      </trkpt>
      <trkpt lat="49.88791" lon="2.34578">
        <ele>31.9</ele>
        <time>2023-03-25T13:59:47Z</time>
      </trkpt>
      <trkpt lat="49.88791" lon="2.34576">
        <ele>31.9</ele>
        <time>2023-03-25T13:59:48Z</time>
      </trkpt>
      <trkpt lat="49.8879" lon="2.34576">
        <ele>31.9</ele>
        <time>2023-03-25T13:59:49Z</time>
      </trkpt>
      <trkpt lat="49.8879" lon="2.34574">
        <ele>31.9</ele>
        <time>2023-03-25T13:59:50Z</time>
      </trkpt>
      <trkpt lat="49.88789" lon="2.34573">
        <ele>31.9</ele>
        <time>2023-03-25T13:59:51Z</time>
      </trkpt>
      <trkpt lat="49.88788" lon="2.34572">
        <ele>31.9</ele>
        <time>2023-03-25T13:59:52Z</time>
      </trkpt>
      <trkpt lat="49.88787" lon="2.34572">
        <ele>31.9</ele>
        <time>2023-03-25T13:59:53Z</time>
      </trkpt>
      <trkpt lat="49.88786" lon="2.34571">
        <ele>31.9</ele>
        <time>2023-03-25T13:59:55Z</time>
      </trkpt>
      <trkpt lat="49.88785" lon="2.3457">
        <ele>31.9</ele>
        <time>2023-03-25T13:59:56Z</time>
      </trkpt>
      <trkpt lat="49.88784" lon="2.3457">
        <ele>31.9</ele>
        <time>2023-03-25T13:59:57Z</time>
      </trkpt>
      <trkpt lat="49.88783" lon="2.3457">
        <ele>31.9</ele>
        <time>2023-03-25T13:59:58Z</time>
      </trkpt>
      <trkpt lat="49.88782" lon="2.34569">
        <ele>31.9</ele>
        <time>2023-03-25T13:59:59Z</time>
      </trkpt>
      <trkpt lat="49.88781" lon="2.34569">
        <ele>31.9</ele>
        <time>2023-03-25T14:00:00Z</time>
      </trkpt>
      <trkpt lat="49.88781" lon="2.34568">
        <ele>31.9</ele>
        <time>2023-03-25T14:00:02Z</time>
      </trkpt>
      <trkpt lat="49.8878" lon="2.34567">
        <ele>31.9</ele>
        <time>2023-03-25T14:00:03Z</time>
      </trkpt>
      <trkpt lat="49.88778" lon="2.34567">
        <ele>31.9</ele>
        <time>2023-03-25T14:00:04Z</time>
      </trkpt>
      <trkpt lat="49.88777" lon="2.34566">
        <ele>31.8</ele>
        <time>2023-03-25T14:00:05Z</time>
      </trkpt>
      <trkpt lat="49.88776" lon="2.34565">
        <ele>31.8</ele>
        <time>2023-03-25T14:00:06Z</time>
      </trkpt>
      <trkpt lat="49.88776" lon="2.34565">
        <ele>31.8</ele>
        <time>2023-03-25T14:00:07Z</time>
      </trkpt>
      <trkpt lat="49.88774" lon="2.34565">
        <ele>31.8</ele>
        <time>2023-03-25T14:00:09Z</time>
      </trkpt>
      <trkpt lat="49.88773" lon="2.34564">
        <ele>31.8</ele>
        <time>2023-03-25T14:00:10Z</time>
      </trkpt>
      <trkpt lat="49.88773" lon="2.34563">
        <ele>31.8</ele>
        <time>2023-03-25T14:00:11Z</time>
      </trkpt>
      <trkpt lat="49.88773" lon="2.34562">
        <ele>31.8</ele>
        <time>2023-03-25T14:00:12Z</time>
      </trkpt>
      <trkpt lat="49.88773" lon="2.34561">
        <ele>31.8</ele>
        <time>2023-03-25T14:00:14Z</time>
      </trkpt>
      <trkpt lat="49.88773" lon="2.34559">
        <ele>31.8</ele>
        <time>2023-03-25T14:00:15Z</time>
      </trkpt>
      <trkpt lat="49.88773" lon="2.34558">
        <ele>31.8</ele>
        <time>2023-03-25T14:00:16Z</time>
      </trkpt>
      <trkpt lat="49.88774" lon="2.34556">
        <ele>31.8</ele>
        <time>2023-03-25T14:00:17Z</time>
      </trkpt>
      <trkpt lat="49.88775" lon="2.34553">
        <ele>31.8</ele>
        <time>2023-03-25T14:00:18Z</time>
      </trkpt>
      <trkpt lat="49.88775" lon="2.34552">
        <ele>31.8</ele>
        <time>2023-03-25T14:00:20Z</time>
      </trkpt>
      <trkpt lat="49.88775" lon="2.34551">
        <ele>31.8</ele>
        <time>2023-03-25T14:00:21Z</time>
      </trkpt>
      <trkpt lat="49.88776" lon="2.34549">
        <ele>31.8</ele>
        <time>2023-03-25T14:00:22Z</time>
      </trkpt>
      <trkpt lat="49.88777" lon="2.34548">
        <ele>31.8</ele>
        <time>2023-03-25T14:00:23Z</time>
      </trkpt>
      <trkpt lat="49.88777" lon="2.34547">
        <ele>31.8</ele>
        <time>2023-03-25T14:00:24Z</time>
      </trkpt>
      <trkpt lat="49.88778" lon="2.34545">
        <ele>31.8</ele>
        <time>2023-03-25T14:00:25Z</time>
      </trkpt>
      <trkpt lat="49.88779" lon="2.34543">
        <ele>31.9</ele>
        <time>2023-03-25T14:00:26Z</time>
      </trkpt>
      <trkpt lat="49.8878" lon="2.34541">
        <ele>31.9</ele>
        <time>2023-03-25T14:00:28Z</time>
      </trkpt>
      <trkpt lat="49.88781" lon="2.34539">
        <ele>31.9</ele>
        <time>2023-03-25T14:00:29Z</time>
      </trkpt>
      <trkpt lat="49.88782" lon="2.34537">
        <ele>31.9</ele>
        <time>2023-03-25T14:00:30Z</time>
      </trkpt>
      <trkpt lat="49.88782" lon="2.34535">
        <ele>31.9</ele>
        <time>2023-03-25T14:00:31Z</time>
      </trkpt>
      <trkpt lat="49.88783" lon="2.34534">
        <ele>32</ele>
        <time>2023-03-25T14:00:32Z</time>
      </trkpt>
      <trkpt lat="49.88783" lon="2.34532">
        <ele>31.9</ele>
        <time>2023-03-25T14:00:33Z</time>
      </trkpt>
      <trkpt lat="49.88783" lon="2.34529">
        <ele>31.9</ele>
        <time>2023-03-25T14:00:35Z</time>
      </trkpt>
      <trkpt lat="49.88783" lon="2.34527">
        <ele>31.9</ele>
        <time>2023-03-25T14:00:36Z</time>
      </trkpt>
      <trkpt lat="49.88782" lon="2.34525">
        <ele>31.9</ele>
        <time>2023-03-25T14:00:37Z</time>
      </trkpt>
      <trkpt lat="49.88782" lon="2.34522">
        <ele>31.8</ele>
        <time>2023-03-25T14:00:38Z</time>
      </trkpt>
      <trkpt lat="49.88782" lon="2.34521">
        <ele>31.8</ele>
        <time>2023-03-25T14:00:39Z</time>
      </trkpt>
      <trkpt lat="49.88781" lon="2.34519">
        <ele>31.8</ele>
        <time>2023-03-25T14:00:40Z</time>
      </trkpt>
      <trkpt lat="49.8878" lon="2.34516">
        <ele>31.8</ele>
        <time>2023-03-25T14:00:42Z</time>
      </trkpt>
      <trkpt lat="49.8878" lon="2.34515">
        <ele>31.8</ele>
        <time>2023-03-25T14:00:43Z</time>
      </trkpt>
      <trkpt lat="49.8878" lon="2.34514">
        <ele>31.8</ele>
        <time>2023-03-25T14:00:44Z</time>
      </trkpt>
      <trkpt lat="49.88779" lon="2.34513">
        <ele>31.8</ele>
        <time>2023-03-25T14:00:45Z</time>
      </trkpt>
      <trkpt lat="49.88779" lon="2.34512">
        <ele>31.8</ele>
        <time>2023-03-25T14:00:46Z</time>
      </trkpt>
      <trkpt lat="49.88778" lon="2.3451">
        <ele>31.7</ele>
        <time>2023-03-25T14:00:48Z</time>
      </trkpt>
      <trkpt lat="49.88777" lon="2.34509">
        <ele>31.7</ele>
        <time>2023-03-25T14:00:49Z</time>
      </trkpt>
      <trkpt lat="49.88777" lon="2.34508">
        <ele>31.7</ele>
        <time>2023-03-25T14:00:50Z</time>
      </trkpt>
      <trkpt lat="49.88777" lon="2.34508">
        <ele>31.7</ele>
        <time>2023-03-25T14:00:51Z</time>
      </trkpt>
      <trkpt lat="49.88777" lon="2.34507">
        <ele>31.7</ele>
        <time>2023-03-25T14:00:52Z</time>
      </trkpt>
      <trkpt lat="49.88776" lon="2.34506">
        <ele>31.7</ele>
        <time>2023-03-25T14:00:53Z</time>
      </trkpt>
      <trkpt lat="49.88776" lon="2.34506">
        <ele>31.7</ele>
        <time>2023-03-25T14:00:54Z</time>
      </trkpt>
      <trkpt lat="49.88776" lon="2.34505">
        <ele>31.7</ele>
        <time>2023-03-25T14:00:55Z</time>
      </trkpt>
      <trkpt lat="49.88775" lon="2.34504">
        <ele>31.7</ele>
        <time>2023-03-25T14:00:57Z</time>
      </trkpt>
      <trkpt lat="49.88775" lon="2.34503">
        <ele>31.7</ele>
        <time>2023-03-25T14:00:58Z</time>
      </trkpt>
      <trkpt lat="49.88774" lon="2.34501">
        <ele>31.7</ele>
        <time>2023-03-25T14:00:59Z</time>
      </trkpt>
      <trkpt lat="49.88774" lon="2.345">
        <ele>31.6</ele>
        <time>2023-03-25T14:01:00Z</time>
      </trkpt>
      <trkpt lat="49.88773" lon="2.34499">
        <ele>31.6</ele>
        <time>2023-03-25T14:01:01Z</time>
      </trkpt>
      <trkpt lat="49.88773" lon="2.34498">
        <ele>31.6</ele>
        <time>2023-03-25T14:01:02Z</time>
      </trkpt>
      <trkpt lat="49.88772" lon="2.34497">
        <ele>31.6</ele>
        <time>2023-03-25T14:01:03Z</time>
      </trkpt>
      <trkpt lat="49.88772" lon="2.34496">
        <ele>31.6</ele>
        <time>2023-03-25T14:01:05Z</time>
      </trkpt>
      <trkpt lat="49.88771" lon="2.34494">
        <ele>31.6</ele>
        <time>2023-03-25T14:01:06Z</time>
      </trkpt>
      <trkpt lat="49.88769" lon="2.34492">
        <ele>31.6</ele>
        <time>2023-03-25T14:01:07Z</time>
      </trkpt>
      <trkpt lat="49.88769" lon="2.34491">
        <ele>31.6</ele>
        <time>2023-03-25T14:01:08Z</time>
      </trkpt>
      <trkpt lat="49.88768" lon="2.34491">
        <ele>31.5</ele>
        <time>2023-03-25T14:01:09Z</time>
      </trkpt>
      <trkpt lat="49.88767" lon="2.3449">
        <ele>31.5</ele>
        <time>2023-03-25T14:01:11Z</time>
      </trkpt>
      <trkpt lat="49.88766" lon="2.34489">
        <ele>31.5</ele>
        <time>2023-03-25T14:01:12Z</time>
      </trkpt>
      <trkpt lat="49.88765" lon="2.34488">
        <ele>31.5</ele>
        <time>2023-03-25T14:01:13Z</time>
      </trkpt>
      <trkpt lat="49.88764" lon="2.34486">
        <ele>31.5</ele>
        <time>2023-03-25T14:01:14Z</time>
      </trkpt>
      <trkpt lat="49.88764" lon="2.34485">
        <ele>31.5</ele>
        <time>2023-03-25T14:01:15Z</time>
      </trkpt>
      <trkpt lat="49.88763" lon="2.34484">
        <ele>31.5</ele>
        <time>2023-03-25T14:01:16Z</time>
      </trkpt>
      <trkpt lat="49.88762" lon="2.34482">
        <ele>31.4</ele>
        <time>2023-03-25T14:01:18Z</time>
      </trkpt>
      <trkpt lat="49.88761" lon="2.34481">
        <ele>31.4</ele>
        <time>2023-03-25T14:01:19Z</time>
      </trkpt>
      <trkpt lat="49.88761" lon="2.34479">
        <ele>31.4</ele>
        <time>2023-03-25T14:01:20Z</time>
      </trkpt>
      <trkpt lat="49.8876" lon="2.34477">
        <ele>31.4</ele>
        <time>2023-03-25T14:01:21Z</time>
      </trkpt>
      <trkpt lat="49.8876" lon="2.34475">
        <ele>31.4</ele>
        <time>2023-03-25T14:01:22Z</time>
      </trkpt>
      <trkpt lat="49.88759" lon="2.34474">
        <ele>31.4</ele>
        <time>2023-03-25T14:01:23Z</time>
      </trkpt>
      <trkpt lat="49.88759" lon="2.34473">
        <ele>31.3</ele>
        <time>2023-03-25T14:01:24Z</time>
      </trkpt>
      <trkpt lat="49.88758" lon="2.3447">
        <ele>31.3</ele>
        <time>2023-03-25T14:01:26Z</time>
      </trkpt>
      <trkpt lat="49.88758" lon="2.34468">
        <ele>31.3</ele>
        <time>2023-03-25T14:01:27Z</time>
      </trkpt>
      <trkpt lat="49.88757" lon="2.34466">
        <ele>31.3</ele>
        <time>2023-03-25T14:01:28Z</time>
      </trkpt>
      <trkpt lat="49.88757" lon="2.34464">
        <ele>31.2</ele>
        <time>2023-03-25T14:01:29Z</time>
      </trkpt>
      <trkpt lat="49.88756" lon="2.34462">
        <ele>31.2</ele>
        <time>2023-03-25T14:01:30Z</time>
      </trkpt>
      <trkpt lat="49.88756" lon="2.3446">
        <ele>31.2</ele>
        <time>2023-03-25T14:01:32Z</time>
      </trkpt>
      <trkpt lat="49.88757" lon="2.34456">
        <ele>31.1</ele>
        <time>2023-03-25T14:01:33Z</time>
      </trkpt>
      <trkpt lat="49.88758" lon="2.34455">
        <ele>31.1</ele>
        <time>2023-03-25T14:01:34Z</time>
      </trkpt>
      <trkpt lat="49.88759" lon="2.34451">
        <ele>31</ele>
        <time>2023-03-25T14:01:35Z</time>
      </trkpt>
      <trkpt lat="49.88759" lon="2.34446">
        <ele>31</ele>
        <time>2023-03-25T14:01:36Z</time>
      </trkpt>
      <trkpt lat="49.88759" lon="2.34445">
        <ele>31</ele>
        <time>2023-03-25T14:01:38Z</time>
      </trkpt>
      <trkpt lat="49.88759" lon="2.34443">
        <ele>30.9</ele>
        <time>2023-03-25T14:01:39Z</time>
      </trkpt>
      <trkpt lat="49.88759" lon="2.34441">
        <ele>30.9</ele>
        <time>2023-03-25T14:01:40Z</time>
      </trkpt>
      <trkpt lat="49.88759" lon="2.3444">
        <ele>30.9</ele>
        <time>2023-03-25T14:01:41Z</time>
      </trkpt>
      <trkpt lat="49.88759" lon="2.34438">
        <ele>30.9</ele>
        <time>2023-03-25T14:01:42Z</time>
      </trkpt>
      <trkpt lat="49.88759" lon="2.34436">
        <ele>30.8</ele>
        <time>2023-03-25T14:01:43Z</time>
      </trkpt>
      <trkpt lat="49.88758" lon="2.34435">
        <ele>30.8</ele>
        <time>2023-03-25T14:01:45Z</time>
      </trkpt>
      <trkpt lat="49.88758" lon="2.34433">
        <ele>30.8</ele>
        <time>2023-03-25T14:01:46Z</time>
      </trkpt>
      <trkpt lat="49.88759" lon="2.34431">
        <ele>30.8</ele>
        <time>2023-03-25T14:01:47Z</time>
      </trkpt>
      <trkpt lat="49.8876" lon="2.3443">
        <ele>30.7</ele>
        <time>2023-03-25T14:01:48Z</time>
      </trkpt>
      <trkpt lat="49.8876" lon="2.34429">
        <ele>30.7</ele>
        <time>2023-03-25T14:01:49Z</time>
      </trkpt>
      <trkpt lat="49.8876" lon="2.34427">
        <ele>30.7</ele>
        <time>2023-03-25T14:01:50Z</time>
      </trkpt>
      <trkpt lat="49.88759" lon="2.34425">
        <ele>30.7</ele>
        <time>2023-03-25T14:01:51Z</time>
      </trkpt>
      <trkpt lat="49.88759" lon="2.34424">
        <ele>30.6</ele>
        <time>2023-03-25T14:01:52Z</time>
      </trkpt>
      <trkpt lat="49.88759" lon="2.34423">
        <ele>30.6</ele>
        <time>2023-03-25T14:01:53Z</time>
      </trkpt>
      <trkpt lat="49.88758" lon="2.3442">
        <ele>30.6</ele>
        <time>2023-03-25T14:01:55Z</time>
      </trkpt>
      <trkpt lat="49.88757" lon="2.34418">
        <ele>30.6</ele>
        <time>2023-03-25T14:01:56Z</time>
      </trkpt>
      <trkpt lat="49.88757" lon="2.34417">
        <ele>30.5</ele>
        <time>2023-03-25T14:01:57Z</time>
      </trkpt>
      <trkpt lat="49.88757" lon="2.34415">
        <ele>30.5</ele>
        <time>2023-03-25T14:01:59Z</time>
      </trkpt>
      <trkpt lat="49.88756" lon="2.34411">
        <ele>30.5</ele>
        <time>2023-03-25T14:02:00Z</time>
      </trkpt>
      <trkpt lat="49.88756" lon="2.3441">
        <ele>30.5</ele>
        <time>2023-03-25T14:02:01Z</time>
      </trkpt>
      <trkpt lat="49.88755" lon="2.34409">
        <ele>30.4</ele>
        <time>2023-03-25T14:02:02Z</time>
      </trkpt>
      <trkpt lat="49.88755" lon="2.34407">
        <ele>30.4</ele>
        <time>2023-03-25T14:02:03Z</time>
      </trkpt>
      <trkpt lat="49.88755" lon="2.34406">
        <ele>30.4</ele>
        <time>2023-03-25T14:02:04Z</time>
      </trkpt>
      <trkpt lat="49.88754" lon="2.34404">
        <ele>30.4</ele>
        <time>2023-03-25T14:02:05Z</time>
      </trkpt>
      <trkpt lat="49.88754" lon="2.34402">
        <ele>30.3</ele>
        <time>2023-03-25T14:02:06Z</time>
      </trkpt>
      <trkpt lat="49.88753" lon="2.344">
        <ele>30.3</ele>
        <time>2023-03-25T14:02:07Z</time>
      </trkpt>
      <trkpt lat="49.88752" lon="2.34397">
        <ele>30.3</ele>
        <time>2023-03-25T14:02:09Z</time>
      </trkpt>
      <trkpt lat="49.88752" lon="2.34395">
        <ele>30.3</ele>
        <time>2023-03-25T14:02:10Z</time>
      </trkpt>
      <trkpt lat="49.88752" lon="2.34394">
        <ele>30.2</ele>
        <time>2023-03-25T14:02:11Z</time>
      </trkpt>
      <trkpt lat="49.88751" lon="2.34392">
        <ele>30.2</ele>
        <time>2023-03-25T14:02:12Z</time>
      </trkpt>
      <trkpt lat="49.88751" lon="2.3439">
        <ele>30.2</ele>
        <time>2023-03-25T14:02:13Z</time>
      </trkpt>
      <trkpt lat="49.8875" lon="2.34388">
        <ele>30.2</ele>
        <time>2023-03-25T14:02:14Z</time>
      </trkpt>
      <trkpt lat="49.8875" lon="2.34385">
        <ele>30.2</ele>
        <time>2023-03-25T14:02:15Z</time>
      </trkpt>
      <trkpt lat="49.88749" lon="2.34384">
        <ele>30.1</ele>
        <time>2023-03-25T14:02:17Z</time>
      </trkpt>
      <trkpt lat="49.88749" lon="2.34383">
        <ele>30.1</ele>
        <time>2023-03-25T14:02:18Z</time>
      </trkpt>
      <trkpt lat="49.88748" lon="2.34381">
        <ele>30.1</ele>
        <time>2023-03-25T14:02:19Z</time>
      </trkpt>
      <trkpt lat="49.88747" lon="2.34378">
        <ele>30.1</ele>
        <time>2023-03-25T14:02:20Z</time>
      </trkpt>
      <trkpt lat="49.88747" lon="2.34377">
        <ele>30.1</ele>
        <time>2023-03-25T14:02:21Z</time>
      </trkpt>
      <trkpt lat="49.88747" lon="2.34376">
        <ele>30</ele>
        <time>2023-03-25T14:02:22Z</time>
      </trkpt>
      <trkpt lat="49.88747" lon="2.34375">
        <ele>30</ele>
        <time>2023-03-25T14:02:23Z</time>
      </trkpt>
      <trkpt lat="49.88747" lon="2.34373">
        <ele>30</ele>
        <time>2023-03-25T14:02:25Z</time>
      </trkpt>
      <trkpt lat="49.88746" lon="2.34371">
        <ele>30</ele>
        <time>2023-03-25T14:02:26Z</time>
      </trkpt>
      <trkpt lat="49.88746" lon="2.34368">
        <ele>30</ele>
        <time>2023-03-25T14:02:27Z</time>
      </trkpt>
      <trkpt lat="49.88747" lon="2.34367">
        <ele>29.9</ele>
        <time>2023-03-25T14:02:28Z</time>
      </trkpt>
      <trkpt lat="49.88747" lon="2.34366">
        <ele>29.9</ele>
        <time>2023-03-25T14:02:29Z</time>
      </trkpt>
      <trkpt lat="49.88748" lon="2.34365">
        <ele>29.9</ele>
        <time>2023-03-25T14:02:30Z</time>
      </trkpt>
      <trkpt lat="49.88748" lon="2.34364">
        <ele>29.9</ele>
        <time>2023-03-25T14:02:31Z</time>
      </trkpt>
      <trkpt lat="49.88749" lon="2.34362">
        <ele>29.9</ele>
        <time>2023-03-25T14:02:33Z</time>
      </trkpt>
      <trkpt lat="49.88749" lon="2.3436">
        <ele>29.9</ele>
        <time>2023-03-25T14:02:34Z</time>
      </trkpt>
      <trkpt lat="49.88751" lon="2.34357">
        <ele>29.8</ele>
        <time>2023-03-25T14:02:35Z</time>
      </trkpt>
      <trkpt lat="49.88751" lon="2.34356">
        <ele>29.8</ele>
        <time>2023-03-25T14:02:37Z</time>
      </trkpt>
      <trkpt lat="49.88751" lon="2.34354">
        <ele>29.8</ele>
        <time>2023-03-25T14:02:38Z</time>
      </trkpt>
      <trkpt lat="49.88751" lon="2.34353">
        <ele>29.8</ele>
        <time>2023-03-25T14:02:39Z</time>
      </trkpt>
      <trkpt lat="49.88751" lon="2.34351">
        <ele>29.8</ele>
        <time>2023-03-25T14:02:41Z</time>
      </trkpt>
      <trkpt lat="49.8875" lon="2.34351">
        <ele>29.8</ele>
        <time>2023-03-25T14:02:42Z</time>
      </trkpt>
      <trkpt lat="49.8875" lon="2.34351">
        <ele>29.8</ele>
        <time>2023-03-25T14:02:43Z</time>
      </trkpt>
      <trkpt lat="49.8875" lon="2.34352">
        <ele>29.8</ele>
        <time>2023-03-25T14:02:45Z</time>
      </trkpt>
      <trkpt lat="49.8875" lon="2.34352">
        <ele>29.8</ele>
        <time>2023-03-25T14:02:46Z</time>
      </trkpt>
      <trkpt lat="49.8875" lon="2.34353">
        <ele>29.8</ele>
        <time>2023-03-25T14:02:47Z</time>
      </trkpt>
      <trkpt lat="49.8875" lon="2.34353">
        <ele>29.7</ele>
        <time>2023-03-25T14:02:49Z</time>
      </trkpt>
      <trkpt lat="49.8875" lon="2.34354">
        <ele>29.7</ele>
        <time>2023-03-25T14:02:50Z</time>
      </trkpt>
      <trkpt lat="49.88749" lon="2.34354">
        <ele>29.7</ele>
        <time>2023-03-25T14:02:52Z</time>
      </trkpt>
      <trkpt lat="49.88749" lon="2.34355">
        <ele>29.7</ele>
        <time>2023-03-25T14:02:53Z</time>
      </trkpt>
      <trkpt lat="49.88749" lon="2.34355">
        <ele>29.7</ele>
        <time>2023-03-25T14:02:54Z</time>
      </trkpt>
      <trkpt lat="49.88749" lon="2.34356">
        <ele>29.7</ele>
        <time>2023-03-25T14:02:56Z</time>
      </trkpt>
      <trkpt lat="49.88749" lon="2.34356">
        <ele>29.7</ele>
        <time>2023-03-25T14:02:57Z</time>
      </trkpt>
      <trkpt lat="49.88749" lon="2.34357">
        <ele>29.7</ele>
        <time>2023-03-25T14:02:58Z</time>
      </trkpt>
      <trkpt lat="49.88749" lon="2.34359">
        <ele>29.7</ele>
        <time>2023-03-25T14:02:59Z</time>
      </trkpt>
      <trkpt lat="49.88749" lon="2.34359">
        <ele>29.7</ele>
        <time>2023-03-25T14:03:00Z</time>
      </trkpt>
      <trkpt lat="49.88749" lon="2.34359">
        <ele>29.7</ele>
        <time>2023-03-25T14:03:01Z</time>
      </trkpt>
      <trkpt lat="49.88749" lon="2.34359">
        <ele>29.7</ele>
        <time>2023-03-25T14:03:02Z</time>
      </trkpt>
      <trkpt lat="49.88749" lon="2.34359">
        <ele>29.7</ele>
        <time>2023-03-25T14:03:03Z</time>
      </trkpt>
      <trkpt lat="49.88749" lon="2.34359">
        <ele>29.7</ele>
        <time>2023-03-25T14:03:04Z</time>
      </trkpt>
      <trkpt lat="49.88749" lon="2.34359">
        <ele>29.7</ele>
        <time>2023-03-25T14:03:05Z</time>
      </trkpt>
      <trkpt lat="49.88749" lon="2.34359">
        <ele>29.7</ele>
        <time>2023-03-25T14:03:06Z</time>
      </trkpt>
      <trkpt lat="49.88749" lon="2.34359">
        <ele>29.7</ele>
        <time>2023-03-25T14:03:07Z</time>
      </trkpt>
      <trkpt lat="49.88749" lon="2.34359">
        <ele>29.7</ele>
        <time>2023-03-25T14:03:08Z</time>
      </trkpt>
      <trkpt lat="49.88749" lon="2.34359">
        <ele>29.7</ele>
        <time>2023-03-25T14:03:09Z</time>
      </trkpt>
      <trkpt lat="49.88749" lon="2.34359">
        <ele>29.7</ele>
        <time>2023-03-25T14:03:10Z</time>
      </trkpt>
      <trkpt lat="49.88749" lon="2.34359">
        <ele>29.7</ele>
        <time>2023-03-25T14:03:11Z</time>
      </trkpt>
      <trkpt lat="49.88749" lon="2.34359">
        <ele>29.7</ele>
        <time>2023-03-25T14:03:12Z</time>
      </trkpt>
      <trkpt lat="49.88749" lon="2.34359">
        <ele>29.7</ele>
        <time>2023-03-25T14:03:13Z</time>
      </trkpt>
      <trkpt lat="49.88749" lon="2.34359">
        <ele>29.7</ele>
        <time>2023-03-25T14:03:14Z</time>
      </trkpt>
      <trkpt lat="49.88749" lon="2.34359">
        <ele>29.7</ele>
        <time>2023-03-25T14:03:15Z</time>
      </trkpt>
      <trkpt lat="49.88749" lon="2.34359">
        <ele>29.7</ele>
        <time>2023-03-25T14:03:16Z</time>
      </trkpt>
      <trkpt lat="49.88749" lon="2.34359">
        <ele>29.7</ele>
        <time>2023-03-25T14:03:17Z</time>
      </trkpt>
      <trkpt lat="49.88749" lon="2.34359">
        <ele>29.7</ele>
        <time>2023-03-25T14:03:18Z</time>
      </trkpt>
      <trkpt lat="49.88749" lon="2.34359">
        <ele>29.7</ele>
        <time>2023-03-25T14:03:19Z</time>
      </trkpt>
      <trkpt lat="49.88749" lon="2.34359">
        <ele>29.7</ele>
        <time>2023-03-25T14:03:20Z</time>
      </trkpt>
      <trkpt lat="49.88749" lon="2.34359">
        <ele>29.7</ele>
        <time>2023-03-25T14:03:21Z</time>
      </trkpt>
      <trkpt lat="49.88749" lon="2.34359">
        <ele>29.7</ele>
        <time>2023-03-25T14:03:22Z</time>
      </trkpt>
      <trkpt lat="49.88749" lon="2.34359">
        <ele>29.7</ele>
        <time>2023-03-25T14:03:23Z</time>
      </trkpt>
      <trkpt lat="49.88749" lon="2.34359">
        <ele>29.7</ele>
        <time>2023-03-25T14:03:24Z</time>
      </trkpt>
      <trkpt lat="49.88749" lon="2.34359">
        <ele>29.7</ele>
        <time>2023-03-25T14:03:25Z</time>
      </trkpt>
      <trkpt lat="49.88749" lon="2.34359">
        <ele>29.7</ele>
        <time>2023-03-25T14:03:26Z</time>
      </trkpt>
      <trkpt lat="49.88749" lon="2.34359">
        <ele>29.7</ele>
        <time>2023-03-25T14:03:27Z</time>
      </trkpt>
      <trkpt lat="49.88749" lon="2.34359">
        <ele>29.7</ele>
        <time>2023-03-25T14:03:28Z</time>
      </trkpt>
      <trkpt lat="49.88749" lon="2.34359">
        <ele>29.7</ele>
        <time>2023-03-25T14:03:29Z</time>
      </trkpt>
      <trkpt lat="49.88749" lon="2.34359">
        <ele>29.7</ele>
        <time>2023-03-25T14:03:30Z</time>
      </trkpt>
      <trkpt lat="49.88749" lon="2.34359">
        <ele>29.7</ele>
        <time>2023-03-25T14:03:31Z</time>
      </trkpt>
      <trkpt lat="49.88749" lon="2.34359">
        <ele>29.7</ele>
        <time>2023-03-25T14:03:32Z</time>
      </trkpt>
      <trkpt lat="49.88749" lon="2.34359">
        <ele>29.7</ele>
        <time>2023-03-25T14:03:33Z</time>
      </trkpt>
      <trkpt lat="49.88749" lon="2.34359">
        <ele>29.7</ele>
        <time>2023-03-25T14:03:34Z</time>
      </trkpt>
      <trkpt lat="49.88749" lon="2.34359">
        <ele>29.7</ele>
        <time>2023-03-25T14:03:35Z</time>
      </trkpt>
      <trkpt lat="49.88749" lon="2.34359">
        <ele>29.7</ele>
        <time>2023-03-25T14:03:36Z</time>
      </trkpt>
      <trkpt lat="49.88749" lon="2.34359">
        <ele>29.7</ele>
        <time>2023-03-25T14:03:37Z</time>
      </trkpt>
      <trkpt lat="49.88749" lon="2.34359">
        <ele>29.7</ele>
        <time>2023-03-25T14:03:38Z</time>
      </trkpt>
      <trkpt lat="49.88749" lon="2.34359">
        <ele>29.7</ele>
        <time>2023-03-25T14:03:39Z</time>
      </trkpt>
      <trkpt lat="49.88749" lon="2.34359">
        <ele>29.7</ele>
        <time>2023-03-25T14:03:40Z</time>
      </trkpt>
      <trkpt lat="49.88749" lon="2.34359">
        <ele>29.7</ele>
        <time>2023-03-25T14:03:41Z</time>
      </trkpt>
      <trkpt lat="49.88749" lon="2.34359">
        <ele>29.7</ele>
        <time>2023-03-25T14:03:42Z</time>
      </trkpt>
      <trkpt lat="49.88749" lon="2.34359">
        <ele>29.7</ele>
        <time>2023-03-25T14:03:43Z</time>
      </trkpt>
      <trkpt lat="49.88749" lon="2.34359">
        <ele>29.7</ele>
        <time>2023-03-25T14:03:44Z</time>
      </trkpt>
      <trkpt lat="49.88749" lon="2.34359">
        <ele>29.7</ele>
        <time>2023-03-25T14:03:45Z</time>
      </trkpt>
      <trkpt lat="49.88749" lon="2.34359">
        <ele>29.7</ele>
        <time>2023-03-25T14:03:46Z</time>
      </trkpt>
      <trkpt lat="49.88749" lon="2.34359">
        <ele>29.7</ele>
        <time>2023-03-25T14:03:47Z</time>
      </trkpt>
      <trkpt lat="49.88749" lon="2.34359">
        <ele>29.7</ele>
        <time>2023-03-25T14:03:48Z</time>
      </trkpt>
      <trkpt lat="49.88749" lon="2.34359">
        <ele>29.7</ele>
        <time>2023-03-25T14:03:49Z</time>
      </trkpt>
      <trkpt lat="49.88749" lon="2.34359">
        <ele>29.7</ele>
        <time>2023-03-25T14:03:50Z</time>
      </trkpt>
      <trkpt lat="49.88749" lon="2.34359">
        <ele>29.7</ele>
        <time>2023-03-25T14:03:51Z</time>
      </trkpt>
      <trkpt lat="49.88749" lon="2.34359">
        <ele>29.7</ele>
        <time>2023-03-25T14:03:52Z</time>
      </trkpt>
      <trkpt lat="49.88749" lon="2.34359">
        <ele>29.7</ele>
        <time>2023-03-25T14:03:53Z</time>
      </trkpt>
      <trkpt lat="49.88749" lon="2.34359">
        <ele>29.7</ele>
        <time>2023-03-25T14:03:54Z</time>
      </trkpt>
      <trkpt lat="49.88749" lon="2.34359">
        <ele>29.7</ele>
        <time>2023-03-25T14:03:55Z</time>
      </trkpt>
      <trkpt lat="49.88749" lon="2.34359">
        <ele>29.7</ele>
        <time>2023-03-25T14:03:56Z</time>
      </trkpt>
      <trkpt lat="49.88749" lon="2.34359">
        <ele>29.7</ele>
        <time>2023-03-25T14:03:57Z</time>
      </trkpt>
      <trkpt lat="49.88749" lon="2.34359">
        <ele>29.7</ele>
        <time>2023-03-25T14:03:58Z</time>
      </trkpt>
      <trkpt lat="49.88749" lon="2.34359">
        <ele>29.7</ele>
        <time>2023-03-25T14:03:59Z</time>
      </trkpt>
      <trkpt lat="49.88749" lon="2.34359">
        <ele>29.7</ele>
        <time>2023-03-25T14:04:00Z</time>
      </trkpt>
      <trkpt lat="49.88749" lon="2.34359">
        <ele>29.7</ele>
        <time>2023-03-25T14:04:01Z</time>
      </trkpt>
      <trkpt lat="49.88749" lon="2.34359">
        <ele>29.7</ele>
        <time>2023-03-25T14:04:02Z</time>
      </trkpt>
      <trkpt lat="49.88749" lon="2.34359">
        <ele>29.7</ele>
        <time>2023-03-25T14:04:03Z</time>
      </trkpt>
      <trkpt lat="49.88749" lon="2.34359">
        <ele>29.7</ele>
        <time>2023-03-25T14:04:04Z</time>
      </trkpt>
      <trkpt lat="49.88749" lon="2.34359">
        <ele>29.7</ele>
        <time>2023-03-25T14:04:05Z</time>
      </trkpt>
      <trkpt lat="49.88749" lon="2.34359">
        <ele>29.7</ele>
        <time>2023-03-25T14:04:06Z</time>
      </trkpt>
      <trkpt lat="49.88749" lon="2.34359">
        <ele>29.7</ele>
        <time>2023-03-25T14:04:07Z</time>
      </trkpt>
      <trkpt lat="49.88749" lon="2.34359">
        <ele>29.7</ele>
        <time>2023-03-25T14:04:08Z</time>
      </trkpt>
      <trkpt lat="49.88749" lon="2.3436">
        <ele>29.7</ele>
        <time>2023-03-25T14:04:09Z</time>
      </trkpt>
      <trkpt lat="49.88749" lon="2.3436">
        <ele>29.7</ele>
        <time>2023-03-25T14:04:10Z</time>
      </trkpt>
      <trkpt lat="49.88749" lon="2.3436">
        <ele>29.7</ele>
        <time>2023-03-25T14:04:11Z</time>
      </trkpt>
      <trkpt lat="49.88749" lon="2.3436">
        <ele>29.7</ele>
        <time>2023-03-25T14:04:12Z</time>
      </trkpt>
      <trkpt lat="49.88749" lon="2.3436">
        <ele>29.7</ele>
        <time>2023-03-25T14:04:13Z</time>
      </trkpt>
      <trkpt lat="49.88749" lon="2.3436">
        <ele>29.7</ele>
        <time>2023-03-25T14:04:14Z</time>
      </trkpt>
      <trkpt lat="49.88749" lon="2.3436">
        <ele>29.7</ele>
        <time>2023-03-25T14:04:15Z</time>
      </trkpt>
      <trkpt lat="49.88749" lon="2.3436">
        <ele>29.7</ele>
        <time>2023-03-25T14:04:16Z</time>
      </trkpt>
      <trkpt lat="49.88749" lon="2.3436">
        <ele>29.7</ele>
        <time>2023-03-25T14:04:17Z</time>
      </trkpt>
      <trkpt lat="49.88749" lon="2.3436">
        <ele>29.7</ele>
        <time>2023-03-25T14:04:18Z</time>
      </trkpt>
      <trkpt lat="49.88749" lon="2.3436">
        <ele>29.7</ele>
        <time>2023-03-25T14:04:19Z</time>
      </trkpt>
      <trkpt lat="49.88749" lon="2.3436">
        <ele>29.7</ele>
        <time>2023-03-25T14:04:20Z</time>
      </trkpt>
      <trkpt lat="49.88749" lon="2.3436">
        <ele>29.7</ele>
        <time>2023-03-25T14:04:21Z</time>
      </trkpt>
      <trkpt lat="49.88749" lon="2.3436">
        <ele>29.7</ele>
        <time>2023-03-25T14:04:22Z</time>
      </trkpt>
      <trkpt lat="49.88749" lon="2.3436">
        <ele>29.7</ele>
        <time>2023-03-25T14:04:23Z</time>
      </trkpt>
      <trkpt lat="49.88749" lon="2.3436">
        <ele>29.7</ele>
        <time>2023-03-25T14:04:24Z</time>
      </trkpt>
      <trkpt lat="49.88749" lon="2.3436">
        <ele>29.7</ele>
        <time>2023-03-25T14:04:25Z</time>
      </trkpt>
      <trkpt lat="49.88749" lon="2.3436">
        <ele>29.7</ele>
        <time>2023-03-25T14:04:26Z</time>
      </trkpt>
      <trkpt lat="49.88749" lon="2.3436">
        <ele>29.7</ele>
        <time>2023-03-25T14:04:27Z</time>
      </trkpt>
      <trkpt lat="49.88749" lon="2.3436">
        <ele>29.7</ele>
        <time>2023-03-25T14:04:28Z</time>
      </trkpt>
      <trkpt lat="49.88749" lon="2.3436">
        <ele>29.7</ele>
        <time>2023-03-25T14:04:29Z</time>
      </trkpt>
      <trkpt lat="49.88749" lon="2.3436">
        <ele>29.7</ele>
        <time>2023-03-25T14:04:30Z</time>
      </trkpt>
      <trkpt lat="49.88749" lon="2.3436">
        <ele>29.7</ele>
        <time>2023-03-25T14:04:31Z</time>
      </trkpt>
      <trkpt lat="49.88749" lon="2.3436">
        <ele>29.7</ele>
        <time>2023-03-25T14:04:32Z</time>
      </trkpt>
      <trkpt lat="49.88749" lon="2.3436">
        <ele>29.7</ele>
        <time>2023-03-25T14:04:33Z</time>
      </trkpt>
      <trkpt lat="49.88749" lon="2.3436">
        <ele>29.7</ele>
        <time>2023-03-25T14:04:34Z</time>
      </trkpt>
      <trkpt lat="49.88749" lon="2.3436">
        <ele>29.7</ele>
        <time>2023-03-25T14:04:35Z</time>
      </trkpt>
      <trkpt lat="49.88749" lon="2.3436">
        <ele>29.7</ele>
        <time>2023-03-25T14:04:36Z</time>
      </trkpt>
      <trkpt lat="49.88749" lon="2.3436">
        <ele>29.7</ele>
        <time>2023-03-25T14:04:37Z</time>
      </trkpt>
      <trkpt lat="49.88749" lon="2.3436">
        <ele>29.7</ele>
        <time>2023-03-25T14:04:38Z</time>
      </trkpt>
      <trkpt lat="49.88749" lon="2.3436">
        <ele>29.7</ele>
        <time>2023-03-25T14:04:39Z</time>
      </trkpt>
      <trkpt lat="49.88749" lon="2.3436">
        <ele>29.7</ele>
        <time>2023-03-25T14:04:40Z</time>
      </trkpt>
      <trkpt lat="49.88749" lon="2.3436">
        <ele>29.7</ele>
        <time>2023-03-25T14:04:41Z</time>
      </trkpt>
      <trkpt lat="49.88749" lon="2.3436">
        <ele>29.7</ele>
        <time>2023-03-25T14:04:42Z</time>
      </trkpt>
      <trkpt lat="49.88749" lon="2.3436">
        <ele>29.7</ele>
        <time>2023-03-25T14:04:43Z</time>
      </trkpt>
      <trkpt lat="49.88749" lon="2.3436">
        <ele>29.7</ele>
        <time>2023-03-25T14:04:44Z</time>
      </trkpt>
      <trkpt lat="49.88749" lon="2.3436">
        <ele>29.7</ele>
        <time>2023-03-25T14:04:45Z</time>
      </trkpt>
      <trkpt lat="49.88749" lon="2.3436">
        <ele>29.7</ele>
        <time>2023-03-25T14:04:46Z</time>
      </trkpt>
      <trkpt lat="49.88749" lon="2.3436">
        <ele>29.7</ele>
        <time>2023-03-25T14:04:47Z</time>
      </trkpt>
      <trkpt lat="49.88749" lon="2.3436">
        <ele>29.7</ele>
        <time>2023-03-25T14:04:48Z</time>
      </trkpt>
      <trkpt lat="49.88749" lon="2.3436">
        <ele>29.7</ele>
        <time>2023-03-25T14:04:49Z</time>
      </trkpt>
      <trkpt lat="49.88749" lon="2.3436">
        <ele>29.7</ele>
        <time>2023-03-25T14:04:50Z</time>
      </trkpt>
      <trkpt lat="49.88749" lon="2.3436">
        <ele>29.7</ele>
        <time>2023-03-25T14:04:51Z</time>
      </trkpt>
      <trkpt lat="49.88749" lon="2.3436">
        <ele>29.7</ele>
        <time>2023-03-25T14:04:52Z</time>
      </trkpt>
      <trkpt lat="49.88749" lon="2.3436">
        <ele>29.7</ele>
        <time>2023-03-25T14:04:53Z</time>
      </trkpt>
      <trkpt lat="49.88749" lon="2.3436">
        <ele>29.7</ele>
        <time>2023-03-25T14:04:54Z</time>
      </trkpt>
      <trkpt lat="49.88749" lon="2.3436">
        <ele>29.7</ele>
        <time>2023-03-25T14:04:55Z</time>
      </trkpt>
      <trkpt lat="49.88749" lon="2.3436">
        <ele>29.7</ele>
        <time>2023-03-25T14:04:56Z</time>
      </trkpt>
      <trkpt lat="49.88749" lon="2.3436">
        <ele>29.7</ele>
        <time>2023-03-25T14:04:57Z</time>
      </trkpt>
      <trkpt lat="49.88749" lon="2.3436">
        <ele>29.7</ele>
        <time>2023-03-25T14:04:58Z</time>
      </trkpt>
      <trkpt lat="49.88749" lon="2.3436">
        <ele>29.7</ele>
        <time>2023-03-25T14:04:59Z</time>
      </trkpt>
      <trkpt lat="49.88749" lon="2.3436">
        <ele>29.7</ele>
        <time>2023-03-25T14:05:00Z</time>
      </trkpt>
      <trkpt lat="49.88749" lon="2.3436">
        <ele>29.7</ele>
        <time>2023-03-25T14:05:01Z</time>
      </trkpt>
      <trkpt lat="49.88749" lon="2.3436">
        <ele>29.7</ele>
        <time>2023-03-25T14:05:02Z</time>
      </trkpt>
      <trkpt lat="49.88749" lon="2.3436">
        <ele>29.7</ele>
        <time>2023-03-25T14:05:03Z</time>
      </trkpt>
      <trkpt lat="49.88749" lon="2.3436">
        <ele>29.7</ele>
        <time>2023-03-25T14:05:04Z</time>
      </trkpt>
      <trkpt lat="49.88749" lon="2.3436">
        <ele>29.7</ele>
        <time>2023-03-25T14:05:05Z</time>
      </trkpt>
      <trkpt lat="49.88749" lon="2.3436">
        <ele>29.7</ele>
        <time>2023-03-25T14:05:06Z</time>
      </trkpt>
      <trkpt lat="49.88749" lon="2.3436">
        <ele>29.7</ele>
        <time>2023-03-25T14:05:07Z</time>
      </trkpt>
      <trkpt lat="49.88749" lon="2.3436">
        <ele>29.7</ele>
        <time>2023-03-25T14:05:08Z</time>
      </trkpt>
      <trkpt lat="49.88749" lon="2.3436">
        <ele>29.7</ele>
        <time>2023-03-25T14:05:09Z</time>
      </trkpt>
      <trkpt lat="49.88749" lon="2.3436">
        <ele>29.7</ele>
        <time>2023-03-25T14:05:10Z</time>
      </trkpt>
      <trkpt lat="49.88749" lon="2.3436">
        <ele>29.7</ele>
        <time>2023-03-25T14:05:11Z</time>
      </trkpt>
      <trkpt lat="49.88749" lon="2.3436">
        <ele>29.7</ele>
        <time>2023-03-25T14:05:12Z</time>
      </trkpt>
      <trkpt lat="49.88749" lon="2.3436">
        <ele>29.7</ele>
        <time>2023-03-25T14:05:13Z</time>
      </trkpt>
      <trkpt lat="49.88749" lon="2.3436">
        <ele>29.7</ele>
        <time>2023-03-25T14:05:14Z</time>
      </trkpt>
      <trkpt lat="49.88749" lon="2.3436">
        <ele>29.7</ele>
        <time>2023-03-25T14:05:15Z</time>
      </trkpt>
      <trkpt lat="49.88749" lon="2.3436">
        <ele>29.7</ele>
        <time>2023-03-25T14:05:16Z</time>
      </trkpt>
      <trkpt lat="49.88749" lon="2.3436">
        <ele>29.7</ele>
        <time>2023-03-25T14:05:17Z</time>
      </trkpt>
      <trkpt lat="49.88749" lon="2.3436">
        <ele>29.7</ele>
        <time>2023-03-25T14:05:18Z</time>
      </trkpt>
      <trkpt lat="49.88749" lon="2.3436">
        <ele>29.7</ele>
        <time>2023-03-25T14:05:19Z</time>
      </trkpt>
      <trkpt lat="49.88749" lon="2.3436">
        <ele>29.7</ele>
        <time>2023-03-25T14:05:20Z</time>
      </trkpt>
      <trkpt lat="49.88749" lon="2.3436">
        <ele>29.7</ele>
        <time>2023-03-25T14:05:21Z</time>
      </trkpt>
      <trkpt lat="49.88749" lon="2.3436">
        <ele>29.7</ele>
        <time>2023-03-25T14:05:22Z</time>
      </trkpt>
      <trkpt lat="49.88749" lon="2.3436">
        <ele>29.7</ele>
        <time>2023-03-25T14:05:23Z</time>
      </trkpt>
      <trkpt lat="49.88749" lon="2.3436">
        <ele>29.7</ele>
        <time>2023-03-25T14:05:24Z</time>
      </trkpt>
      <trkpt lat="49.88749" lon="2.34361">
        <ele>29.7</ele>
        <time>2023-03-25T14:05:25Z</time>
      </trkpt>
      <trkpt lat="49.88749" lon="2.34361">
        <ele>29.7</ele>
        <time>2023-03-25T14:05:26Z</time>
      </trkpt>
      <trkpt lat="49.88749" lon="2.34361">
        <ele>29.7</ele>
        <time>2023-03-25T14:05:27Z</time>
      </trkpt>
      <trkpt lat="49.88749" lon="2.34361">
        <ele>29.7</ele>
        <time>2023-03-25T14:05:28Z</time>
      </trkpt>
      <trkpt lat="49.88749" lon="2.34361">
        <ele>29.7</ele>
        <time>2023-03-25T14:05:29Z</time>
      </trkpt>
      <trkpt lat="49.88749" lon="2.34361">
        <ele>29.7</ele>
        <time>2023-03-25T14:05:30Z</time>
      </trkpt>
      <trkpt lat="49.88749" lon="2.34361">
        <ele>29.7</ele>
        <time>2023-03-25T14:05:31Z</time>
      </trkpt>
      <trkpt lat="49.88749" lon="2.34361">
        <ele>29.7</ele>
        <time>2023-03-25T14:05:32Z</time>
      </trkpt>
      <trkpt lat="49.88749" lon="2.34361">
        <ele>29.7</ele>
        <time>2023-03-25T14:05:33Z</time>
      </trkpt>
      <trkpt lat="49.88749" lon="2.34361">
        <ele>29.7</ele>
        <time>2023-03-25T14:05:34Z</time>
      </trkpt>
      <trkpt lat="49.88749" lon="2.34361">
        <ele>29.7</ele>
        <time>2023-03-25T14:05:35Z</time>
      </trkpt>
      <trkpt lat="49.88749" lon="2.34361">
        <ele>29.7</ele>
        <time>2023-03-25T14:05:36Z</time>
      </trkpt>
      <trkpt lat="49.88749" lon="2.34361">
        <ele>29.7</ele>
        <time>2023-03-25T14:05:37Z</time>
      </trkpt>
      <trkpt lat="49.88749" lon="2.34361">
        <ele>29.7</ele>
        <time>2023-03-25T14:05:38Z</time>
      </trkpt>
      <trkpt lat="49.88749" lon="2.34361">
        <ele>29.7</ele>
        <time>2023-03-25T14:05:39Z</time>
      </trkpt>
      <trkpt lat="49.88749" lon="2.34361">
        <ele>29.7</ele>
        <time>2023-03-25T14:05:40Z</time>
      </trkpt>
      <trkpt lat="49.88749" lon="2.34361">
        <ele>29.7</ele>
        <time>2023-03-25T14:05:41Z</time>
      </trkpt>
      <trkpt lat="49.88749" lon="2.34361">
        <ele>29.7</ele>
        <time>2023-03-25T14:05:42Z</time>
      </trkpt>
      <trkpt lat="49.88749" lon="2.34361">
        <ele>29.7</ele>
        <time>2023-03-25T14:05:43Z</time>
      </trkpt>
      <trkpt lat="49.88749" lon="2.34361">
        <ele>29.7</ele>
        <time>2023-03-25T14:05:44Z</time>
      </trkpt>
      <trkpt lat="49.88749" lon="2.34361">
        <ele>29.7</ele>
        <time>2023-03-25T14:05:45Z</time>
      </trkpt>
      <trkpt lat="49.88749" lon="2.34361">
        <ele>29.7</ele>
        <time>2023-03-25T14:05:46Z</time>
      </trkpt>
      <trkpt lat="49.88749" lon="2.34361">
        <ele>29.7</ele>
        <time>2023-03-25T14:05:47Z</time>
      </trkpt>
      <trkpt lat="49.88749" lon="2.34361">
        <ele>29.7</ele>
        <time>2023-03-25T14:05:48Z</time>
      </trkpt>
      <trkpt lat="49.88749" lon="2.34361">
        <ele>29.7</ele>
        <time>2023-03-25T14:05:49Z</time>
      </trkpt>
      <trkpt lat="49.88749" lon="2.34361">
        <ele>29.7</ele>
        <time>2023-03-25T14:05:50Z</time>
      </trkpt>
      <trkpt lat="49.88749" lon="2.34361">
        <ele>29.7</ele>
        <time>2023-03-25T14:05:51Z</time>
      </trkpt>
      <trkpt lat="49.88749" lon="2.34361">
        <ele>29.7</ele>
        <time>2023-03-25T14:05:52Z</time>
      </trkpt>
      <trkpt lat="49.88749" lon="2.34361">
        <ele>29.7</ele>
        <time>2023-03-25T14:05:53Z</time>
      </trkpt>
      <trkpt lat="49.88749" lon="2.34361">
        <ele>29.7</ele>
        <time>2023-03-25T14:05:54Z</time>
      </trkpt>
      <trkpt lat="49.88749" lon="2.34361">
        <ele>29.7</ele>
        <time>2023-03-25T14:05:55Z</time>
      </trkpt>
      <trkpt lat="49.88749" lon="2.34361">
        <ele>29.7</ele>
        <time>2023-03-25T14:05:56Z</time>
      </trkpt>
      <trkpt lat="49.88749" lon="2.34361">
        <ele>29.7</ele>
        <time>2023-03-25T14:05:57Z</time>
      </trkpt>
      <trkpt lat="49.88749" lon="2.34361">
        <ele>29.7</ele>
        <time>2023-03-25T14:05:58Z</time>
      </trkpt>
      <trkpt lat="49.88749" lon="2.34361">
        <ele>29.7</ele>
        <time>2023-03-25T14:05:59Z</time>
      </trkpt>
      <trkpt lat="49.88749" lon="2.34361">
        <ele>29.7</ele>
        <time>2023-03-25T14:06:00Z</time>
      </trkpt>
      <trkpt lat="49.88749" lon="2.34361">
        <ele>29.7</ele>
        <time>2023-03-25T14:06:01Z</time>
      </trkpt>
      <trkpt lat="49.88749" lon="2.34361">
        <ele>29.7</ele>
        <time>2023-03-25T14:06:02Z</time>
      </trkpt>
      <trkpt lat="49.88749" lon="2.34361">
        <ele>29.7</ele>
        <time>2023-03-25T14:06:03Z</time>
      </trkpt>
      <trkpt lat="49.88749" lon="2.34361">
        <ele>29.7</ele>
        <time>2023-03-25T14:06:04Z</time>
      </trkpt>
      <trkpt lat="49.88749" lon="2.34361">
        <ele>29.7</ele>
        <time>2023-03-25T14:06:05Z</time>
      </trkpt>
      <trkpt lat="49.88749" lon="2.34361">
        <ele>29.7</ele>
        <time>2023-03-25T14:06:06Z</time>
      </trkpt>
      <trkpt lat="49.88749" lon="2.34361">
        <ele>29.7</ele>
        <time>2023-03-25T14:06:07Z</time>
      </trkpt>
      <trkpt lat="49.88749" lon="2.34361">
        <ele>29.7</ele>
        <time>2023-03-25T14:06:08Z</time>
      </trkpt>
      <trkpt lat="49.88749" lon="2.34361">
        <ele>29.7</ele>
        <time>2023-03-25T14:06:09Z</time>
      </trkpt>
      <trkpt lat="49.88749" lon="2.34361">
        <ele>29.7</ele>
        <time>2023-03-25T14:06:10Z</time>
      </trkpt>
      <trkpt lat="49.88749" lon="2.34361">
        <ele>29.7</ele>
        <time>2023-03-25T14:06:11Z</time>
      </trkpt>
      <trkpt lat="49.88749" lon="2.34361">
        <ele>29.7</ele>
        <time>2023-03-25T14:06:12Z</time>
      </trkpt>
      <trkpt lat="49.88749" lon="2.34361">
        <ele>29.7</ele>
        <time>2023-03-25T14:06:13Z</time>
      </trkpt>
      <trkpt lat="49.88749" lon="2.34361">
        <ele>29.7</ele>
        <time>2023-03-25T14:06:14Z</time>
      </trkpt>
      <trkpt lat="49.88749" lon="2.34361">
        <ele>29.7</ele>
        <time>2023-03-25T14:06:15Z</time>
      </trkpt>
      <trkpt lat="49.88749" lon="2.34361">
        <ele>29.7</ele>
        <time>2023-03-25T14:06:16Z</time>
      </trkpt>
      <trkpt lat="49.88749" lon="2.34361">
        <ele>29.7</ele>
        <time>2023-03-25T14:06:17Z</time>
      </trkpt>
      <trkpt lat="49.88749" lon="2.34361">
        <ele>29.7</ele>
        <time>2023-03-25T14:06:18Z</time>
      </trkpt>
      <trkpt lat="49.88749" lon="2.34361">
        <ele>29.7</ele>
        <time>2023-03-25T14:06:19Z</time>
      </trkpt>
      <trkpt lat="49.88749" lon="2.34361">
        <ele>29.7</ele>
        <time>2023-03-25T14:06:20Z</time>
      </trkpt>
      <trkpt lat="49.88749" lon="2.34361">
        <ele>29.7</ele>
        <time>2023-03-25T14:06:21Z</time>
      </trkpt>
      <trkpt lat="49.88749" lon="2.34361">
        <ele>29.7</ele>
        <time>2023-03-25T14:06:22Z</time>
      </trkpt>
      <trkpt lat="49.88749" lon="2.34361">
        <ele>29.7</ele>
        <time>2023-03-25T14:06:23Z</time>
      </trkpt>
      <trkpt lat="49.88749" lon="2.34361">
        <ele>29.7</ele>
        <time>2023-03-25T14:06:24Z</time>
      </trkpt>
      <trkpt lat="49.88749" lon="2.34361">
        <ele>29.7</ele>
        <time>2023-03-25T14:06:25Z</time>
      </trkpt>
      <trkpt lat="49.88749" lon="2.34361">
        <ele>29.7</ele>
        <time>2023-03-25T14:06:26Z</time>
      </trkpt>
      <trkpt lat="49.88749" lon="2.34361">
        <ele>29.7</ele>
        <time>2023-03-25T14:06:27Z</time>
      </trkpt>
      <trkpt lat="49.88749" lon="2.34361">
        <ele>29.7</ele>
        <time>2023-03-25T14:06:28Z</time>
      </trkpt>
      <trkpt lat="49.88749" lon="2.34361">
        <ele>29.7</ele>
        <time>2023-03-25T14:06:29Z</time>
      </trkpt>
      <trkpt lat="49.88749" lon="2.34361">
        <ele>29.7</ele>
        <time>2023-03-25T14:06:30Z</time>
      </trkpt>
      <trkpt lat="49.88749" lon="2.34361">
        <ele>29.7</ele>
        <time>2023-03-25T14:06:31Z</time>
      </trkpt>
      <trkpt lat="49.88749" lon="2.34361">
        <ele>29.7</ele>
        <time>2023-03-25T14:06:32Z</time>
      </trkpt>
      <trkpt lat="49.88749" lon="2.34361">
        <ele>29.7</ele>
        <time>2023-03-25T14:06:33Z</time>
      </trkpt>
      <trkpt lat="49.88749" lon="2.34361">
        <ele>29.7</ele>
        <time>2023-03-25T14:06:34Z</time>
      </trkpt>
      <trkpt lat="49.88749" lon="2.34361">
        <ele>29.7</ele>
        <time>2023-03-25T14:06:35Z</time>
      </trkpt>
      <trkpt lat="49.88749" lon="2.34361">
        <ele>29.7</ele>
        <time>2023-03-25T14:06:36Z</time>
      </trkpt>
      <trkpt lat="49.88749" lon="2.34361">
        <ele>29.7</ele>
        <time>2023-03-25T14:06:37Z</time>
      </trkpt>
      <trkpt lat="49.88749" lon="2.34361">
        <ele>29.7</ele>
        <time>2023-03-25T14:06:38Z</time>
      </trkpt>
      <trkpt lat="49.88749" lon="2.34361">
        <ele>29.7</ele>
        <time>2023-03-25T14:06:39Z</time>
      </trkpt>
      <trkpt lat="49.88749" lon="2.34362">
        <ele>29.7</ele>
        <time>2023-03-25T14:06:40Z</time>
      </trkpt>
      <trkpt lat="49.88749" lon="2.34362">
        <ele>29.7</ele>
        <time>2023-03-25T14:06:41Z</time>
      </trkpt>
      <trkpt lat="49.88749" lon="2.34362">
        <ele>29.7</ele>
        <time>2023-03-25T14:06:42Z</time>
      </trkpt>
      <trkpt lat="49.88749" lon="2.34362">
        <ele>29.7</ele>
        <time>2023-03-25T14:06:43Z</time>
      </trkpt>
      <trkpt lat="49.88749" lon="2.34362">
        <ele>29.7</ele>
        <time>2023-03-25T14:06:44Z</time>
      </trkpt>
      <trkpt lat="49.88749" lon="2.34362">
        <ele>29.7</ele>
        <time>2023-03-25T14:06:45Z</time>
      </trkpt>
      <trkpt lat="49.88749" lon="2.34362">
        <ele>29.7</ele>
        <time>2023-03-25T14:06:46Z</time>
      </trkpt>
      <trkpt lat="49.88749" lon="2.34362">
        <ele>29.7</ele>
        <time>2023-03-25T14:06:47Z</time>
      </trkpt>
      <trkpt lat="49.88749" lon="2.34362">
        <ele>29.7</ele>
        <time>2023-03-25T14:06:48Z</time>
      </trkpt>
      <trkpt lat="49.88749" lon="2.34362">
        <ele>29.7</ele>
        <time>2023-03-25T14:06:49Z</time>
      </trkpt>
      <trkpt lat="49.88749" lon="2.34362">
        <ele>29.7</ele>
        <time>2023-03-25T14:06:50Z</time>
      </trkpt>
      <trkpt lat="49.88749" lon="2.34362">
        <ele>29.7</ele>
        <time>2023-03-25T14:06:51Z</time>
      </trkpt>
      <trkpt lat="49.88749" lon="2.34362">
        <ele>29.7</ele>
        <time>2023-03-25T14:06:52Z</time>
      </trkpt>
      <trkpt lat="49.88749" lon="2.34362">
        <ele>29.7</ele>
        <time>2023-03-25T14:06:53Z</time>
      </trkpt>
      <trkpt lat="49.88749" lon="2.34362">
        <ele>29.7</ele>
        <time>2023-03-25T14:06:54Z</time>
      </trkpt>
      <trkpt lat="49.88749" lon="2.34362">
        <ele>29.7</ele>
        <time>2023-03-25T14:06:55Z</time>
      </trkpt>
      <trkpt lat="49.88749" lon="2.34362">
        <ele>29.7</ele>
        <time>2023-03-25T14:06:56Z</time>
      </trkpt>
      <trkpt lat="49.88749" lon="2.34362">
        <ele>29.7</ele>
        <time>2023-03-25T14:06:57Z</time>
      </trkpt>
      <trkpt lat="49.88749" lon="2.34362">
        <ele>29.7</ele>
        <time>2023-03-25T14:06:58Z</time>
      </trkpt>
      <trkpt lat="49.88749" lon="2.34362">
        <ele>29.7</ele>
        <time>2023-03-25T14:06:59Z</time>
      </trkpt>
      <trkpt lat="49.88749" lon="2.34362">
        <ele>29.7</ele>
        <time>2023-03-25T14:07:00Z</time>
      </trkpt>
      <trkpt lat="49.88749" lon="2.34362">
        <ele>29.7</ele>
        <time>2023-03-25T14:07:01Z</time>
      </trkpt>
      <trkpt lat="49.88749" lon="2.34362">
        <ele>29.7</ele>
        <time>2023-03-25T14:07:02Z</time>
      </trkpt>
      <trkpt lat="49.88749" lon="2.34362">
        <ele>29.7</ele>
        <time>2023-03-25T14:07:03Z</time>
      </trkpt>
      <trkpt lat="49.88749" lon="2.34362">
        <ele>29.7</ele>
        <time>2023-03-25T14:07:04Z</time>
      </trkpt>
      <trkpt lat="49.88749" lon="2.34362">
        <ele>29.7</ele>
        <time>2023-03-25T14:07:05Z</time>
      </trkpt>
      <trkpt lat="49.88749" lon="2.34362">
        <ele>29.7</ele>
        <time>2023-03-25T14:07:06Z</time>
      </trkpt>
      <trkpt lat="49.88749" lon="2.34362">
        <ele>29.7</ele>
        <time>2023-03-25T14:07:07Z</time>
      </trkpt>
      <trkpt lat="49.88749" lon="2.34362">
        <ele>29.7</ele>
        <time>2023-03-25T14:07:08Z</time>
      </trkpt>
      <trkpt lat="49.88749" lon="2.34362">
        <ele>29.7</ele>
        <time>2023-03-25T14:07:09Z</time>
      </trkpt>
      <trkpt lat="49.88749" lon="2.34362">
        <ele>29.7</ele>
        <time>2023-03-25T14:07:10Z</time>
      </trkpt>
      <trkpt lat="49.88749" lon="2.34362">
        <ele>29.7</ele>
        <time>2023-03-25T14:07:11Z</time>
      </trkpt>
      <trkpt lat="49.88749" lon="2.34362">
        <ele>29.7</ele>
        <time>2023-03-25T14:07:12Z</time>
      </trkpt>
      <trkpt lat="49.88749" lon="2.34362">
        <ele>29.7</ele>
        <time>2023-03-25T14:07:13Z</time>
      </trkpt>
      <trkpt lat="49.88749" lon="2.34362">
        <ele>29.7</ele>
        <time>2023-03-25T14:07:14Z</time>
      </trkpt>
      <trkpt lat="49.88749" lon="2.34362">
        <ele>29.7</ele>
        <time>2023-03-25T14:07:15Z</time>
      </trkpt>
      <trkpt lat="49.88749" lon="2.34362">
        <ele>29.7</ele>
        <time>2023-03-25T14:07:16Z</time>
      </trkpt>
      <trkpt lat="49.88749" lon="2.34362">
        <ele>29.7</ele>
        <time>2023-03-25T14:07:17Z</time>
      </trkpt>
      <trkpt lat="49.88749" lon="2.34362">
        <ele>29.7</ele>
        <time>2023-03-25T14:07:18Z</time>
      </trkpt>
      <trkpt lat="49.88749" lon="2.34362">
        <ele>29.7</ele>
        <time>2023-03-25T14:07:19Z</time>
      </trkpt>
      <trkpt lat="49.88749" lon="2.34362">
        <ele>29.7</ele>
        <time>2023-03-25T14:07:20Z</time>
      </trkpt>
      <trkpt lat="49.88749" lon="2.34362">
        <ele>29.7</ele>
        <time>2023-03-25T14:07:21Z</time>
      </trkpt>
      <trkpt lat="49.88749" lon="2.34362">
        <ele>29.7</ele>
        <time>2023-03-25T14:07:22Z</time>
      </trkpt>
      <trkpt lat="49.88749" lon="2.34362">
        <ele>29.7</ele>
        <time>2023-03-25T14:07:23Z</time>
      </trkpt>
      <trkpt lat="49.88749" lon="2.34362">
        <ele>29.7</ele>
        <time>2023-03-25T14:07:24Z</time>
      </trkpt>
      <trkpt lat="49.88749" lon="2.34362">
        <ele>29.7</ele>
        <time>2023-03-25T14:07:25Z</time>
      </trkpt>
      <trkpt lat="49.88749" lon="2.34362">
        <ele>29.7</ele>
        <time>2023-03-25T14:07:26Z</time>
      </trkpt>
      <trkpt lat="49.88749" lon="2.34362">
        <ele>29.7</ele>
        <time>2023-03-25T14:07:27Z</time>
      </trkpt>
      <trkpt lat="49.88749" lon="2.34362">
        <ele>29.7</ele>
        <time>2023-03-25T14:07:28Z</time>
      </trkpt>
      <trkpt lat="49.88749" lon="2.34362">
        <ele>29.7</ele>
        <time>2023-03-25T14:07:29Z</time>
      </trkpt>
      <trkpt lat="49.88749" lon="2.34362">
        <ele>29.7</ele>
        <time>2023-03-25T14:07:30Z</time>
      </trkpt>
      <trkpt lat="49.88749" lon="2.34362">
        <ele>29.7</ele>
        <time>2023-03-25T14:07:31Z</time>
      </trkpt>
      <trkpt lat="49.88749" lon="2.34362">
        <ele>29.7</ele>
        <time>2023-03-25T14:07:32Z</time>
      </trkpt>
      <trkpt lat="49.88749" lon="2.34362">
        <ele>29.7</ele>
        <time>2023-03-25T14:07:33Z</time>
      </trkpt>
      <trkpt lat="49.88749" lon="2.34362">
        <ele>29.7</ele>
        <time>2023-03-25T14:07:34Z</time>
      </trkpt>
      <trkpt lat="49.88749" lon="2.34362">
        <ele>29.7</ele>
        <time>2023-03-25T14:07:35Z</time>
      </trkpt>
      <trkpt lat="49.88749" lon="2.34362">
        <ele>29.7</ele>
        <time>2023-03-25T14:07:36Z</time>
      </trkpt>
      <trkpt lat="49.88749" lon="2.34362">
        <ele>29.7</ele>
        <time>2023-03-25T14:07:37Z</time>
      </trkpt>
      <trkpt lat="49.88749" lon="2.34362">
        <ele>29.7</ele>
        <time>2023-03-25T14:07:38Z</time>
      </trkpt>
      <trkpt lat="49.88749" lon="2.34362">
        <ele>29.7</ele>
        <time>2023-03-25T14:07:39Z</time>
      </trkpt>
      <trkpt lat="49.88749" lon="2.34362">
        <ele>29.7</ele>
        <time>2023-03-25T14:07:40Z</time>
      </trkpt>
      <trkpt lat="49.88749" lon="2.34362">
        <ele>29.7</ele>
        <time>2023-03-25T14:07:41Z</time>
      </trkpt>
      <trkpt lat="49.88749" lon="2.34362">
        <ele>29.7</ele>
        <time>2023-03-25T14:07:42Z</time>
      </trkpt>
      <trkpt lat="49.88749" lon="2.34362">
        <ele>29.7</ele>
        <time>2023-03-25T14:07:43Z</time>
      </trkpt>
      <trkpt lat="49.88749" lon="2.34362">
        <ele>29.7</ele>
        <time>2023-03-25T14:07:44Z</time>
      </trkpt>
      <trkpt lat="49.88749" lon="2.34362">
        <ele>29.7</ele>
        <time>2023-03-25T14:07:45Z</time>
      </trkpt>
      <trkpt lat="49.88749" lon="2.34362">
        <ele>29.7</ele>
        <time>2023-03-25T14:07:46Z</time>
      </trkpt>
      <trkpt lat="49.88749" lon="2.34362">
        <ele>29.7</ele>
        <time>2023-03-25T14:07:47Z</time>
      </trkpt>
      <trkpt lat="49.88749" lon="2.34362">
        <ele>29.7</ele>
        <time>2023-03-25T14:07:48Z</time>
      </trkpt>
      <trkpt lat="49.88749" lon="2.34362">
        <ele>29.7</ele>
        <time>2023-03-25T14:07:49Z</time>
      </trkpt>
      <trkpt lat="49.88749" lon="2.34362">
        <ele>29.7</ele>
        <time>2023-03-25T14:07:50Z</time>
      </trkpt>
      <trkpt lat="49.88749" lon="2.34362">
        <ele>29.7</ele>
        <time>2023-03-25T14:07:51Z</time>
      </trkpt>
      <trkpt lat="49.88749" lon="2.34362">
        <ele>29.7</ele>
        <time>2023-03-25T14:07:52Z</time>
      </trkpt>
      <trkpt lat="49.88749" lon="2.34362">
        <ele>29.7</ele>
        <time>2023-03-25T14:07:53Z</time>
      </trkpt>
      <trkpt lat="49.88749" lon="2.34362">
        <ele>29.7</ele>
        <time>2023-03-25T14:07:54Z</time>
      </trkpt>
      <trkpt lat="49.88749" lon="2.34363">
        <ele>29.7</ele>
        <time>2023-03-25T14:07:55Z</time>
      </trkpt>
      <trkpt lat="49.88749" lon="2.34363">
        <ele>29.7</ele>
        <time>2023-03-25T14:07:56Z</time>
      </trkpt>
      <trkpt lat="49.88749" lon="2.34363">
        <ele>29.7</ele>
        <time>2023-03-25T14:07:57Z</time>
      </trkpt>
      <trkpt lat="49.88749" lon="2.34363">
        <ele>29.7</ele>
        <time>2023-03-25T14:07:58Z</time>
      </trkpt>
      <trkpt lat="49.88749" lon="2.34363">
        <ele>29.7</ele>
        <time>2023-03-25T14:07:59Z</time>
      </trkpt>
      <trkpt lat="49.88749" lon="2.34363">
        <ele>29.7</ele>
        <time>2023-03-25T14:08:00Z</time>
      </trkpt>
      <trkpt lat="49.88749" lon="2.34363">
        <ele>29.7</ele>
        <time>2023-03-25T14:08:01Z</time>
      </trkpt>
      <trkpt lat="49.88749" lon="2.34363">
        <ele>29.7</ele>
        <time>2023-03-25T14:08:02Z</time>
      </trkpt>
      <trkpt lat="49.88749" lon="2.34363">
        <ele>29.7</ele>
        <time>2023-03-25T14:08:03Z</time>
      </trkpt>
      <trkpt lat="49.88749" lon="2.34363">
        <ele>29.7</ele>
        <time>2023-03-25T14:08:04Z</time>
      </trkpt>
      <trkpt lat="49.88749" lon="2.34363">
        <ele>29.7</ele>
        <time>2023-03-25T14:08:05Z</time>
      </trkpt>
      <trkpt lat="49.88749" lon="2.34363">
        <ele>29.7</ele>
        <time>2023-03-25T14:08:06Z</time>
      </trkpt>
      <trkpt lat="49.88749" lon="2.34363">
        <ele>29.7</ele>
        <time>2023-03-25T14:08:07Z</time>
      </trkpt>
      <trkpt lat="49.88749" lon="2.34363">
        <ele>29.7</ele>
        <time>2023-03-25T14:08:08Z</time>
      </trkpt>
      <trkpt lat="49.88749" lon="2.34363">
        <ele>29.7</ele>
        <time>2023-03-25T14:08:09Z</time>
      </trkpt>
      <trkpt lat="49.88749" lon="2.34363">
        <ele>29.7</ele>
        <time>2023-03-25T14:08:10Z</time>
      </trkpt>
      <trkpt lat="49.88749" lon="2.34363">
        <ele>29.7</ele>
        <time>2023-03-25T14:08:11Z</time>
      </trkpt>
      <trkpt lat="49.88749" lon="2.34363">
        <ele>29.7</ele>
        <time>2023-03-25T14:08:12Z</time>
      </trkpt>
      <trkpt lat="49.88749" lon="2.34363">
        <ele>29.7</ele>
        <time>2023-03-25T14:08:13Z</time>
      </trkpt>
      <trkpt lat="49.88749" lon="2.34363">
        <ele>29.7</ele>
        <time>2023-03-25T14:08:14Z</time>
      </trkpt>
      <trkpt lat="49.88749" lon="2.34363">
        <ele>29.7</ele>
        <time>2023-03-25T14:08:15Z</time>
      </trkpt>
      <trkpt lat="49.88749" lon="2.34363">
        <ele>29.7</ele>
        <time>2023-03-25T14:08:16Z</time>
      </trkpt>
      <trkpt lat="49.88749" lon="2.34363">
        <ele>29.7</ele>
        <time>2023-03-25T14:08:17Z</time>
      </trkpt>
      <trkpt lat="49.88749" lon="2.34363">
        <ele>29.7</ele>
        <time>2023-03-25T14:08:18Z</time>
      </trkpt>
      <trkpt lat="49.88749" lon="2.34363">
        <ele>29.7</ele>
        <time>2023-03-25T14:08:19Z</time>
      </trkpt>
      <trkpt lat="49.88749" lon="2.34363">
        <ele>29.7</ele>
        <time>2023-03-25T14:08:20Z</time>
      </trkpt>
      <trkpt lat="49.88749" lon="2.34363">
        <ele>29.7</ele>
        <time>2023-03-25T14:08:21Z</time>
      </trkpt>
      <trkpt lat="49.88749" lon="2.34363">
        <ele>29.7</ele>
        <time>2023-03-25T14:08:22Z</time>
      </trkpt>
      <trkpt lat="49.88749" lon="2.34363">
        <ele>29.7</ele>
        <time>2023-03-25T14:08:23Z</time>
      </trkpt>
      <trkpt lat="49.88749" lon="2.34363">
        <ele>29.7</ele>
        <time>2023-03-25T14:08:24Z</time>
      </trkpt>
      <trkpt lat="49.88749" lon="2.34363">
        <ele>29.7</ele>
        <time>2023-03-25T14:08:25Z</time>
      </trkpt>
      <trkpt lat="49.88749" lon="2.34363">
        <ele>29.7</ele>
        <time>2023-03-25T14:08:26Z</time>
      </trkpt>
      <trkpt lat="49.88749" lon="2.34363">
        <ele>29.7</ele>
        <time>2023-03-25T14:08:27Z</time>
      </trkpt>
      <trkpt lat="49.88749" lon="2.34363">
        <ele>29.7</ele>
        <time>2023-03-25T14:08:28Z</time>
      </trkpt>
      <trkpt lat="49.88749" lon="2.34363">
        <ele>29.7</ele>
        <time>2023-03-25T14:08:29Z</time>
      </trkpt>
      <trkpt lat="49.88749" lon="2.34363">
        <ele>29.7</ele>
        <time>2023-03-25T14:08:30Z</time>
      </trkpt>
      <trkpt lat="49.88749" lon="2.34363">
        <ele>29.7</ele>
        <time>2023-03-25T14:08:31Z</time>
      </trkpt>
      <trkpt lat="49.88749" lon="2.34363">
        <ele>29.7</ele>
        <time>2023-03-25T14:08:32Z</time>
      </trkpt>
      <trkpt lat="49.88749" lon="2.34363">
        <ele>29.7</ele>
        <time>2023-03-25T14:08:33Z</time>
      </trkpt>
      <trkpt lat="49.88749" lon="2.34363">
        <ele>29.7</ele>
        <time>2023-03-25T14:08:34Z</time>
      </trkpt>
      <trkpt lat="49.88749" lon="2.34363">
        <ele>29.7</ele>
        <time>2023-03-25T14:08:35Z</time>
      </trkpt>
      <trkpt lat="49.88749" lon="2.34363">
        <ele>29.7</ele>
        <time>2023-03-25T14:08:36Z</time>
      </trkpt>
      <trkpt lat="49.88749" lon="2.34363">
        <ele>29.7</ele>
        <time>2023-03-25T14:08:37Z</time>
      </trkpt>
      <trkpt lat="49.88749" lon="2.34363">
        <ele>29.7</ele>
        <time>2023-03-25T14:08:38Z</time>
      </trkpt>
      <trkpt lat="49.88749" lon="2.34363">
        <ele>29.7</ele>
        <time>2023-03-25T14:08:39Z</time>
      </trkpt>
      <trkpt lat="49.88749" lon="2.34363">
        <ele>29.7</ele>
        <time>2023-03-25T14:08:40Z</time>
      </trkpt>
      <trkpt lat="49.88749" lon="2.34363">
        <ele>29.7</ele>
        <time>2023-03-25T14:08:41Z</time>
      </trkpt>
      <trkpt lat="49.88749" lon="2.34363">
        <ele>29.7</ele>
        <time>2023-03-25T14:08:42Z</time>
      </trkpt>
      <trkpt lat="49.88749" lon="2.34363">
        <ele>29.7</ele>
        <time>2023-03-25T14:08:43Z</time>
      </trkpt>
      <trkpt lat="49.88749" lon="2.34363">
        <ele>29.7</ele>
        <time>2023-03-25T14:08:44Z</time>
      </trkpt>
      <trkpt lat="49.88749" lon="2.34363">
        <ele>29.7</ele>
        <time>2023-03-25T14:08:45Z</time>
      </trkpt>
      <trkpt lat="49.88749" lon="2.34363">
        <ele>29.7</ele>
        <time>2023-03-25T14:08:46Z</time>
      </trkpt>
      <trkpt lat="49.88749" lon="2.34363">
        <ele>29.7</ele>
        <time>2023-03-25T14:08:47Z</time>
      </trkpt>
      <trkpt lat="49.88749" lon="2.34363">
        <ele>29.7</ele>
        <time>2023-03-25T14:08:48Z</time>
      </trkpt>
      <trkpt lat="49.88749" lon="2.34363">
        <ele>29.7</ele>
        <time>2023-03-25T14:08:49Z</time>
      </trkpt>
      <trkpt lat="49.88749" lon="2.34363">
        <ele>29.7</ele>
        <time>2023-03-25T14:08:50Z</time>
      </trkpt>
      <trkpt lat="49.88749" lon="2.34363">
        <ele>29.7</ele>
        <time>2023-03-25T14:08:51Z</time>
      </trkpt>
      <trkpt lat="49.88749" lon="2.34363">
        <ele>29.7</ele>
        <time>2023-03-25T14:08:52Z</time>
      </trkpt>
      <trkpt lat="49.88749" lon="2.34363">
        <ele>29.7</ele>
        <time>2023-03-25T14:08:53Z</time>
      </trkpt>
      <trkpt lat="49.88749" lon="2.34363">
        <ele>29.7</ele>
        <time>2023-03-25T14:08:54Z</time>
      </trkpt>
      <trkpt lat="49.88749" lon="2.34363">
        <ele>29.7</ele>
        <time>2023-03-25T14:08:55Z</time>
      </trkpt>
      <trkpt lat="49.88749" lon="2.34363">
        <ele>29.7</ele>
        <time>2023-03-25T14:08:56Z</time>
      </trkpt>
      <trkpt lat="49.88749" lon="2.34363">
        <ele>29.7</ele>
        <time>2023-03-25T14:08:57Z</time>
      </trkpt>
      <trkpt lat="49.88749" lon="2.34363">
        <ele>29.7</ele>
        <time>2023-03-25T14:08:58Z</time>
      </trkpt>
      <trkpt lat="49.88749" lon="2.34363">
        <ele>29.7</ele>
        <time>2023-03-25T14:08:59Z</time>
      </trkpt>
      <trkpt lat="49.88749" lon="2.34363">
        <ele>29.7</ele>
        <time>2023-03-25T14:09:00Z</time>
      </trkpt>
      <trkpt lat="49.88749" lon="2.34363">
        <ele>29.7</ele>
        <time>2023-03-25T14:09:01Z</time>
      </trkpt>
      <trkpt lat="49.88749" lon="2.34363">
        <ele>29.7</ele>
        <time>2023-03-25T14:09:02Z</time>
      </trkpt>
      <trkpt lat="49.88749" lon="2.34363">
        <ele>29.7</ele>
        <time>2023-03-25T14:09:03Z</time>
      </trkpt>
      <trkpt lat="49.88749" lon="2.34363">
        <ele>29.7</ele>
        <time>2023-03-25T14:09:04Z</time>
      </trkpt>
      <trkpt lat="49.88749" lon="2.34363">
        <ele>29.7</ele>
        <time>2023-03-25T14:09:05Z</time>
      </trkpt>
      <trkpt lat="49.88749" lon="2.34363">
        <ele>29.7</ele>
        <time>2023-03-25T14:09:06Z</time>
      </trkpt>
      <trkpt lat="49.88749" lon="2.34363">
        <ele>29.7</ele>
        <time>2023-03-25T14:09:07Z</time>
      </trkpt>
      <trkpt lat="49.88749" lon="2.34363">
        <ele>29.7</ele>
        <time>2023-03-25T14:09:08Z</time>
      </trkpt>
      <trkpt lat="49.88749" lon="2.34363">
        <ele>29.7</ele>
        <time>2023-03-25T14:09:09Z</time>
      </trkpt>
      <trkpt lat="49.88749" lon="2.34364">
        <ele>29.7</ele>
        <time>2023-03-25T14:09:10Z</time>
      </trkpt>
      <trkpt lat="49.88749" lon="2.34364">
        <ele>29.7</ele>
        <time>2023-03-25T14:09:11Z</time>
      </trkpt>
      <trkpt lat="49.88749" lon="2.34364">
        <ele>29.7</ele>
        <time>2023-03-25T14:09:12Z</time>
      </trkpt>
      <trkpt lat="49.88749" lon="2.34364">
        <ele>29.7</ele>
        <time>2023-03-25T14:09:13Z</time>
      </trkpt>
      <trkpt lat="49.88749" lon="2.34364">
        <ele>29.7</ele>
        <time>2023-03-25T14:09:14Z</time>
      </trkpt>
      <trkpt lat="49.88749" lon="2.34364">
        <ele>29.7</ele>
        <time>2023-03-25T14:09:15Z</time>
      </trkpt>
      <trkpt lat="49.88749" lon="2.34364">
        <ele>29.7</ele>
        <time>2023-03-25T14:09:16Z</time>
      </trkpt>
      <trkpt lat="49.88749" lon="2.34364">
        <ele>29.7</ele>
        <time>2023-03-25T14:09:17Z</time>
      </trkpt>
      <trkpt lat="49.88749" lon="2.34364">
        <ele>29.7</ele>
        <time>2023-03-25T14:09:18Z</time>
      </trkpt>
      <trkpt lat="49.88749" lon="2.34364">
        <ele>29.7</ele>
        <time>2023-03-25T14:09:19Z</time>
      </trkpt>
      <trkpt lat="49.88749" lon="2.34364">
        <ele>29.7</ele>
        <time>2023-03-25T14:09:20Z</time>
      </trkpt>
      <trkpt lat="49.88749" lon="2.34364">
        <ele>29.7</ele>
        <time>2023-03-25T14:09:21Z</time>
      </trkpt>
      <trkpt lat="49.88749" lon="2.34364">
        <ele>29.7</ele>
        <time>2023-03-25T14:09:22Z</time>
      </trkpt>
      <trkpt lat="49.88749" lon="2.34364">
        <ele>29.7</ele>
        <time>2023-03-25T14:09:23Z</time>
      </trkpt>
      <trkpt lat="49.88749" lon="2.34364">
        <ele>29.7</ele>
        <time>2023-03-25T14:09:24Z</time>
      </trkpt>
      <trkpt lat="49.88749" lon="2.34364">
        <ele>29.7</ele>
        <time>2023-03-25T14:09:25Z</time>
      </trkpt>
      <trkpt lat="49.88749" lon="2.34364">
        <ele>29.7</ele>
        <time>2023-03-25T14:09:26Z</time>
      </trkpt>
      <trkpt lat="49.88749" lon="2.34364">
        <ele>29.7</ele>
        <time>2023-03-25T14:09:27Z</time>
      </trkpt>
      <trkpt lat="49.88749" lon="2.34364">
        <ele>29.7</ele>
        <time>2023-03-25T14:09:28Z</time>
      </trkpt>
      <trkpt lat="49.88749" lon="2.34364">
        <ele>29.7</ele>
        <time>2023-03-25T14:09:29Z</time>
      </trkpt>
      <trkpt lat="49.88749" lon="2.34364">
        <ele>29.7</ele>
        <time>2023-03-25T14:09:30Z</time>
      </trkpt>
      <trkpt lat="49.88749" lon="2.34364">
        <ele>29.7</ele>
        <time>2023-03-25T14:09:31Z</time>
      </trkpt>
      <trkpt lat="49.88748" lon="2.34369">
        <ele>29.6</ele>
        <time>2023-03-25T14:09:32Z</time>
      </trkpt>
      <trkpt lat="49.88748" lon="2.34369">
        <ele>29.6</ele>
        <time>2023-03-25T14:09:33Z</time>
      </trkpt>
      <trkpt lat="49.88748" lon="2.34368">
        <ele>29.6</ele>
        <time>2023-03-25T14:09:34Z</time>
      </trkpt>
      <trkpt lat="49.88748" lon="2.34368">
        <ele>29.6</ele>
        <time>2023-03-25T14:09:35Z</time>
      </trkpt>
      <trkpt lat="49.88748" lon="2.34368">
        <ele>29.6</ele>
        <time>2023-03-25T14:09:36Z</time>
      </trkpt>
      <trkpt lat="49.88748" lon="2.34368">
        <ele>29.6</ele>
        <time>2023-03-25T14:09:37Z</time>
      </trkpt>
      <trkpt lat="49.88748" lon="2.34368">
        <ele>29.6</ele>
        <time>2023-03-25T14:09:38Z</time>
      </trkpt>
      <trkpt lat="49.88748" lon="2.34368">
        <ele>29.6</ele>
        <time>2023-03-25T14:09:39Z</time>
      </trkpt>
      <trkpt lat="49.88748" lon="2.34368">
        <ele>29.6</ele>
        <time>2023-03-25T14:09:40Z</time>
      </trkpt>
      <trkpt lat="49.88748" lon="2.34368">
        <ele>29.6</ele>
        <time>2023-03-25T14:09:41Z</time>
      </trkpt>
      <trkpt lat="49.88748" lon="2.34368">
        <ele>29.6</ele>
        <time>2023-03-25T14:09:42Z</time>
      </trkpt>
      <trkpt lat="49.88748" lon="2.34368">
        <ele>29.6</ele>
        <time>2023-03-25T14:09:43Z</time>
      </trkpt>
      <trkpt lat="49.88748" lon="2.34368">
        <ele>29.6</ele>
        <time>2023-03-25T14:09:44Z</time>
      </trkpt>
      <trkpt lat="49.88748" lon="2.34368">
        <ele>29.6</ele>
        <time>2023-03-25T14:09:45Z</time>
      </trkpt>
      <trkpt lat="49.88748" lon="2.34368">
        <ele>29.6</ele>
        <time>2023-03-25T14:09:46Z</time>
      </trkpt>
      <trkpt lat="49.88748" lon="2.34368">
        <ele>29.6</ele>
        <time>2023-03-25T14:09:47Z</time>
      </trkpt>
      <trkpt lat="49.88748" lon="2.34368">
        <ele>29.6</ele>
        <time>2023-03-25T14:09:48Z</time>
      </trkpt>
      <trkpt lat="49.88748" lon="2.34368">
        <ele>29.6</ele>
        <time>2023-03-25T14:09:49Z</time>
      </trkpt>
      <trkpt lat="49.88748" lon="2.34368">
        <ele>29.6</ele>
        <time>2023-03-25T14:09:50Z</time>
      </trkpt>
      <trkpt lat="49.88748" lon="2.34368">
        <ele>29.6</ele>
        <time>2023-03-25T14:09:51Z</time>
      </trkpt>
      <trkpt lat="49.88748" lon="2.34368">
        <ele>29.6</ele>
        <time>2023-03-25T14:09:52Z</time>
      </trkpt>
      <trkpt lat="49.88748" lon="2.34368">
        <ele>29.6</ele>
        <time>2023-03-25T14:09:53Z</time>
      </trkpt>
      <trkpt lat="49.88748" lon="2.34368">
        <ele>29.6</ele>
        <time>2023-03-25T14:09:54Z</time>
      </trkpt>
      <trkpt lat="49.88748" lon="2.34368">
        <ele>29.6</ele>
        <time>2023-03-25T14:09:55Z</time>
      </trkpt>
      <trkpt lat="49.88748" lon="2.34368">
        <ele>29.6</ele>
        <time>2023-03-25T14:09:56Z</time>
      </trkpt>
      <trkpt lat="49.88748" lon="2.34368">
        <ele>29.6</ele>
        <time>2023-03-25T14:09:57Z</time>
      </trkpt>
      <trkpt lat="49.88748" lon="2.34368">
        <ele>29.6</ele>
        <time>2023-03-25T14:09:58Z</time>
      </trkpt>
      <trkpt lat="49.88748" lon="2.34368">
        <ele>29.6</ele>
        <time>2023-03-25T14:09:59Z</time>
      </trkpt>
      <trkpt lat="49.88748" lon="2.34368">
        <ele>29.6</ele>
        <time>2023-03-25T14:10:00Z</time>
      </trkpt>
      <trkpt lat="49.88748" lon="2.34368">
        <ele>29.6</ele>
        <time>2023-03-25T14:10:01Z</time>
      </trkpt>
      <trkpt lat="49.88748" lon="2.34368">
        <ele>29.6</ele>
        <time>2023-03-25T14:10:02Z</time>
      </trkpt>
      <trkpt lat="49.88748" lon="2.34368">
        <ele>29.6</ele>
        <time>2023-03-25T14:10:03Z</time>
      </trkpt>
      <trkpt lat="49.88748" lon="2.34368">
        <ele>29.6</ele>
        <time>2023-03-25T14:10:04Z</time>
      </trkpt>
      <trkpt lat="49.88748" lon="2.34368">
        <ele>29.6</ele>
        <time>2023-03-25T14:10:05Z</time>
      </trkpt>
      <trkpt lat="49.88748" lon="2.34368">
        <ele>29.6</ele>
        <time>2023-03-25T14:10:06Z</time>
      </trkpt>
      <trkpt lat="49.88748" lon="2.34368">
        <ele>29.6</ele>
        <time>2023-03-25T14:10:07Z</time>
      </trkpt>
      <trkpt lat="49.88748" lon="2.34368">
        <ele>29.6</ele>
        <time>2023-03-25T14:10:08Z</time>
      </trkpt>
      <trkpt lat="49.88748" lon="2.34368">
        <ele>29.6</ele>
        <time>2023-03-25T14:10:09Z</time>
      </trkpt>
      <trkpt lat="49.88748" lon="2.34368">
        <ele>29.6</ele>
        <time>2023-03-25T14:10:10Z</time>
      </trkpt>
      <trkpt lat="49.88748" lon="2.34368">
        <ele>29.6</ele>
        <time>2023-03-25T14:10:11Z</time>
      </trkpt>
      <trkpt lat="49.88748" lon="2.34368">
        <ele>29.6</ele>
        <time>2023-03-25T14:10:12Z</time>
      </trkpt>
      <trkpt lat="49.88748" lon="2.34368">
        <ele>29.6</ele>
        <time>2023-03-25T14:10:13Z</time>
      </trkpt>
      <trkpt lat="49.88748" lon="2.34368">
        <ele>29.6</ele>
        <time>2023-03-25T14:10:14Z</time>
      </trkpt>
      <trkpt lat="49.88748" lon="2.34368">
        <ele>29.6</ele>
        <time>2023-03-25T14:10:15Z</time>
      </trkpt>
      <trkpt lat="49.88748" lon="2.34368">
        <ele>29.6</ele>
        <time>2023-03-25T14:10:16Z</time>
      </trkpt>
      <trkpt lat="49.88748" lon="2.34368">
        <ele>29.6</ele>
        <time>2023-03-25T14:10:17Z</time>
      </trkpt>
      <trkpt lat="49.88748" lon="2.34368">
        <ele>29.6</ele>
        <time>2023-03-25T14:10:18Z</time>
      </trkpt>
      <trkpt lat="49.88748" lon="2.34368">
        <ele>29.6</ele>
        <time>2023-03-25T14:10:19Z</time>
      </trkpt>
      <trkpt lat="49.88748" lon="2.34368">
        <ele>29.6</ele>
        <time>2023-03-25T14:10:20Z</time>
      </trkpt>
      <trkpt lat="49.88748" lon="2.34368">
        <ele>29.6</ele>
        <time>2023-03-25T14:10:21Z</time>
      </trkpt>
      <trkpt lat="49.88748" lon="2.34368">
        <ele>29.6</ele>
        <time>2023-03-25T14:10:22Z</time>
      </trkpt>
      <trkpt lat="49.88748" lon="2.34368">
        <ele>29.6</ele>
        <time>2023-03-25T14:10:23Z</time>
      </trkpt>
      <trkpt lat="49.88748" lon="2.34368">
        <ele>29.6</ele>
        <time>2023-03-25T14:10:24Z</time>
      </trkpt>
      <trkpt lat="49.88748" lon="2.34368">
        <ele>29.6</ele>
        <time>2023-03-25T14:10:25Z</time>
      </trkpt>
      <trkpt lat="49.88748" lon="2.34368">
        <ele>29.6</ele>
        <time>2023-03-25T14:10:26Z</time>
      </trkpt>
      <trkpt lat="49.88748" lon="2.34368">
        <ele>29.6</ele>
        <time>2023-03-25T14:10:27Z</time>
      </trkpt>
      <trkpt lat="49.88748" lon="2.34368">
        <ele>29.6</ele>
        <time>2023-03-25T14:10:28Z</time>
      </trkpt>
      <trkpt lat="49.88748" lon="2.34368">
        <ele>29.6</ele>
        <time>2023-03-25T14:10:29Z</time>
      </trkpt>
      <trkpt lat="49.88748" lon="2.34368">
        <ele>29.6</ele>
        <time>2023-03-25T14:10:30Z</time>
      </trkpt>
      <trkpt lat="49.88748" lon="2.34368">
        <ele>29.6</ele>
        <time>2023-03-25T14:10:31Z</time>
      </trkpt>
      <trkpt lat="49.88748" lon="2.34368">
        <ele>29.6</ele>
        <time>2023-03-25T14:10:32Z</time>
      </trkpt>
      <trkpt lat="49.88748" lon="2.34368">
        <ele>29.6</ele>
        <time>2023-03-25T14:10:33Z</time>
      </trkpt>
      <trkpt lat="49.88748" lon="2.34368">
        <ele>29.6</ele>
        <time>2023-03-25T14:10:34Z</time>
      </trkpt>
      <trkpt lat="49.88748" lon="2.34368">
        <ele>29.6</ele>
        <time>2023-03-25T14:10:35Z</time>
      </trkpt>
      <trkpt lat="49.88748" lon="2.34368">
        <ele>29.6</ele>
        <time>2023-03-25T14:10:36Z</time>
      </trkpt>
      <trkpt lat="49.88748" lon="2.34368">
        <ele>29.6</ele>
        <time>2023-03-25T14:10:37Z</time>
      </trkpt>
      <trkpt lat="49.88748" lon="2.34368">
        <ele>29.6</ele>
        <time>2023-03-25T14:10:38Z</time>
      </trkpt>
      <trkpt lat="49.88748" lon="2.34368">
        <ele>29.6</ele>
        <time>2023-03-25T14:10:39Z</time>
      </trkpt>
      <trkpt lat="49.88748" lon="2.34368">
        <ele>29.6</ele>
        <time>2023-03-25T14:10:40Z</time>
      </trkpt>
      <trkpt lat="49.88748" lon="2.34368">
        <ele>29.6</ele>
        <time>2023-03-25T14:10:41Z</time>
      </trkpt>
      <trkpt lat="49.88748" lon="2.34368">
        <ele>29.6</ele>
        <time>2023-03-25T14:10:42Z</time>
      </trkpt>
      <trkpt lat="49.88748" lon="2.34368">
        <ele>29.6</ele>
        <time>2023-03-25T14:10:43Z</time>
      </trkpt>
      <trkpt lat="49.88748" lon="2.34368">
        <ele>29.6</ele>
        <time>2023-03-25T14:10:44Z</time>
      </trkpt>
      <trkpt lat="49.88748" lon="2.34368">
        <ele>29.6</ele>
        <time>2023-03-25T14:10:45Z</time>
      </trkpt>
      <trkpt lat="49.88748" lon="2.34368">
        <ele>29.6</ele>
        <time>2023-03-25T14:10:46Z</time>
      </trkpt>
      <trkpt lat="49.88748" lon="2.34368">
        <ele>29.6</ele>
        <time>2023-03-25T14:10:47Z</time>
      </trkpt>
      <trkpt lat="49.88748" lon="2.34368">
        <ele>29.6</ele>
        <time>2023-03-25T14:10:48Z</time>
      </trkpt>
      <trkpt lat="49.88748" lon="2.34368">
        <ele>29.6</ele>
        <time>2023-03-25T14:10:49Z</time>
      </trkpt>
      <trkpt lat="49.88748" lon="2.34368">
        <ele>29.6</ele>
        <time>2023-03-25T14:10:50Z</time>
      </trkpt>
      <trkpt lat="49.88748" lon="2.34368">
        <ele>29.6</ele>
        <time>2023-03-25T14:10:51Z</time>
      </trkpt>
      <trkpt lat="49.88748" lon="2.34368">
        <ele>29.6</ele>
        <time>2023-03-25T14:10:52Z</time>
      </trkpt>
      <trkpt lat="49.88748" lon="2.34368">
        <ele>29.6</ele>
        <time>2023-03-25T14:10:53Z</time>
      </trkpt>
      <trkpt lat="49.88748" lon="2.34368">
        <ele>29.6</ele>
        <time>2023-03-25T14:10:54Z</time>
      </trkpt>
      <trkpt lat="49.88748" lon="2.34368">
        <ele>29.6</ele>
        <time>2023-03-25T14:10:55Z</time>
      </trkpt>
      <trkpt lat="49.88748" lon="2.34368">
        <ele>29.6</ele>
        <time>2023-03-25T14:10:56Z</time>
      </trkpt>
      <trkpt lat="49.88748" lon="2.34368">
        <ele>29.6</ele>
        <time>2023-03-25T14:10:57Z</time>
      </trkpt>
      <trkpt lat="49.88748" lon="2.34368">
        <ele>29.6</ele>
        <time>2023-03-25T14:10:58Z</time>
      </trkpt>
      <trkpt lat="49.88748" lon="2.34368">
        <ele>29.6</ele>
        <time>2023-03-25T14:10:59Z</time>
      </trkpt>
      <trkpt lat="49.88748" lon="2.34368">
        <ele>29.6</ele>
        <time>2023-03-25T14:11:00Z</time>
      </trkpt>
      <trkpt lat="49.88747" lon="2.34367">
        <ele>29.6</ele>
        <time>2023-03-25T14:11:01Z</time>
      </trkpt>
      <trkpt lat="49.88747" lon="2.34367">
        <ele>29.6</ele>
        <time>2023-03-25T14:11:02Z</time>
      </trkpt>
      <trkpt lat="49.88746" lon="2.34366">
        <ele>29.6</ele>
        <time>2023-03-25T14:11:03Z</time>
      </trkpt>
      <trkpt lat="49.88746" lon="2.34366">
        <ele>29.6</ele>
        <time>2023-03-25T14:11:04Z</time>
      </trkpt>
      <trkpt lat="49.88745" lon="2.34366">
        <ele>29.6</ele>
        <time>2023-03-25T14:11:05Z</time>
      </trkpt>
      <trkpt lat="49.88745" lon="2.34366">
        <ele>29.5</ele>
        <time>2023-03-25T14:11:06Z</time>
      </trkpt>
      <trkpt lat="49.88744" lon="2.34366">
        <ele>29.5</ele>
        <time>2023-03-25T14:11:07Z</time>
      </trkpt>
      <trkpt lat="49.88744" lon="2.34366">
        <ele>29.5</ele>
        <time>2023-03-25T14:11:08Z</time>
      </trkpt>
      <trkpt lat="49.88744" lon="2.34366">
        <ele>29.5</ele>
        <time>2023-03-25T14:11:09Z</time>
      </trkpt>
      <trkpt lat="49.88744" lon="2.34366">
        <ele>29.5</ele>
        <time>2023-03-25T14:11:10Z</time>
      </trkpt>
      <trkpt lat="49.88744" lon="2.34367">
        <ele>29.5</ele>
        <time>2023-03-25T14:11:11Z</time>
      </trkpt>
      <trkpt lat="49.88744" lon="2.34367">
        <ele>29.5</ele>
        <time>2023-03-25T14:11:12Z</time>
      </trkpt>
      <trkpt lat="49.88745" lon="2.34367">
        <ele>29.5</ele>
        <time>2023-03-25T14:11:13Z</time>
      </trkpt>
      <trkpt lat="49.88745" lon="2.34367">
        <ele>29.5</ele>
        <time>2023-03-25T14:11:14Z</time>
      </trkpt>
      <trkpt lat="49.88745" lon="2.34367">
        <ele>29.5</ele>
        <time>2023-03-25T14:11:15Z</time>
      </trkpt>
      <trkpt lat="49.88745" lon="2.34367">
        <ele>29.5</ele>
        <time>2023-03-25T14:11:16Z</time>
      </trkpt>
      <trkpt lat="49.88745" lon="2.34367">
        <ele>29.5</ele>
        <time>2023-03-25T14:11:17Z</time>
      </trkpt>
      <trkpt lat="49.88745" lon="2.34367">
        <ele>29.5</ele>
        <time>2023-03-25T14:11:18Z</time>
      </trkpt>
      <trkpt lat="49.88745" lon="2.34367">
        <ele>29.5</ele>
        <time>2023-03-25T14:11:19Z</time>
      </trkpt>
      <trkpt lat="49.88745" lon="2.34367">
        <ele>29.5</ele>
        <time>2023-03-25T14:11:20Z</time>
      </trkpt>
      <trkpt lat="49.88745" lon="2.34367">
        <ele>29.5</ele>
        <time>2023-03-25T14:11:21Z</time>
      </trkpt>
      <trkpt lat="49.88746" lon="2.34368">
        <ele>29.5</ele>
        <time>2023-03-25T14:11:22Z</time>
      </trkpt>
      <trkpt lat="49.88747" lon="2.34369">
        <ele>29.5</ele>
        <time>2023-03-25T14:11:23Z</time>
      </trkpt>
      <trkpt lat="49.88747" lon="2.3437">
        <ele>29.5</ele>
        <time>2023-03-25T14:11:24Z</time>
      </trkpt>
      <trkpt lat="49.88747" lon="2.3437">
        <ele>29.5</ele>
        <time>2023-03-25T14:11:25Z</time>
      </trkpt>
      <trkpt lat="49.88747" lon="2.3437">
        <ele>29.5</ele>
        <time>2023-03-25T14:11:26Z</time>
      </trkpt>
      <trkpt lat="49.88747" lon="2.3437">
        <ele>29.5</ele>
        <time>2023-03-25T14:11:27Z</time>
      </trkpt>
      <trkpt lat="49.88746" lon="2.3437">
        <ele>29.5</ele>
        <time>2023-03-25T14:11:28Z</time>
      </trkpt>
      <trkpt lat="49.88746" lon="2.34369">
        <ele>29.5</ele>
        <time>2023-03-25T14:11:29Z</time>
      </trkpt>
      <trkpt lat="49.88745" lon="2.34368">
        <ele>29.4</ele>
        <time>2023-03-25T14:11:30Z</time>
      </trkpt>
      <trkpt lat="49.88745" lon="2.34367">
        <ele>29.4</ele>
        <time>2023-03-25T14:11:31Z</time>
      </trkpt>
      <trkpt lat="49.88744" lon="2.34365">
        <ele>29.4</ele>
        <time>2023-03-25T14:11:32Z</time>
      </trkpt>
      <trkpt lat="49.88744" lon="2.34364">
        <ele>29.4</ele>
        <time>2023-03-25T14:11:33Z</time>
      </trkpt>
      <trkpt lat="49.88744" lon="2.34364">
        <ele>29.4</ele>
        <time>2023-03-25T14:11:34Z</time>
      </trkpt>
      <trkpt lat="49.88743" lon="2.34363">
        <ele>29.4</ele>
        <time>2023-03-25T14:11:35Z</time>
      </trkpt>
      <trkpt lat="49.88742" lon="2.34362">
        <ele>29.4</ele>
        <time>2023-03-25T14:11:36Z</time>
      </trkpt>
      <trkpt lat="49.88741" lon="2.34362">
        <ele>29.4</ele>
        <time>2023-03-25T14:11:37Z</time>
      </trkpt>
      <trkpt lat="49.8874" lon="2.3436">
        <ele>29.3</ele>
        <time>2023-03-25T14:11:38Z</time>
      </trkpt>
      <trkpt lat="49.8874" lon="2.3436">
        <ele>29.3</ele>
        <time>2023-03-25T14:11:39Z</time>
      </trkpt>
      <trkpt lat="49.88739" lon="2.34359">
        <ele>29.3</ele>
        <time>2023-03-25T14:11:40Z</time>
      </trkpt>
      <trkpt lat="49.88738" lon="2.34358">
        <ele>29.3</ele>
        <time>2023-03-25T14:11:41Z</time>
      </trkpt>
      <trkpt lat="49.88737" lon="2.34356">
        <ele>29.3</ele>
        <time>2023-03-25T14:11:42Z</time>
      </trkpt>
      <trkpt lat="49.88736" lon="2.34353">
        <ele>29.3</ele>
        <time>2023-03-25T14:11:43Z</time>
      </trkpt>
      <trkpt lat="49.88735" lon="2.3435">
        <ele>29.2</ele>
        <time>2023-03-25T14:11:44Z</time>
      </trkpt>
      <trkpt lat="49.88735" lon="2.34349">
        <ele>29.2</ele>
        <time>2023-03-25T14:11:45Z</time>
      </trkpt>
      <trkpt lat="49.88735" lon="2.34348">
        <ele>29.1</ele>
        <time>2023-03-25T14:11:46Z</time>
      </trkpt>
      <trkpt lat="49.88734" lon="2.34346">
        <ele>29.1</ele>
        <time>2023-03-25T14:11:47Z</time>
      </trkpt>
      <trkpt lat="49.88734" lon="2.34343">
        <ele>29.1</ele>
        <time>2023-03-25T14:11:48Z</time>
      </trkpt>
      <trkpt lat="49.88733" lon="2.3434">
        <ele>29</ele>
        <time>2023-03-25T14:11:49Z</time>
      </trkpt>
      <trkpt lat="49.88732" lon="2.34339">
        <ele>29</ele>
        <time>2023-03-25T14:11:50Z</time>
      </trkpt>
      <trkpt lat="49.88732" lon="2.34338">
        <ele>29</ele>
        <time>2023-03-25T14:11:51Z</time>
      </trkpt>
      <trkpt lat="49.8873" lon="2.34333">
        <ele>28.8</ele>
        <time>2023-03-25T14:11:52Z</time>
      </trkpt>
      <trkpt lat="49.8873" lon="2.3433">
        <ele>28.8</ele>
        <time>2023-03-25T14:11:53Z</time>
      </trkpt>
      <trkpt lat="49.8873" lon="2.3433">
        <ele>28.8</ele>
        <time>2023-03-25T14:11:54Z</time>
      </trkpt>
      <trkpt lat="49.88729" lon="2.34328">
        <ele>28.7</ele>
        <time>2023-03-25T14:11:56Z</time>
      </trkpt>
      <trkpt lat="49.88728" lon="2.34326">
        <ele>28.7</ele>
        <time>2023-03-25T14:11:57Z</time>
      </trkpt>
      <trkpt lat="49.88727" lon="2.34323">
        <ele>28.6</ele>
        <time>2023-03-25T14:11:58Z</time>
      </trkpt>
      <trkpt lat="49.88726" lon="2.34321">
        <ele>28.6</ele>
        <time>2023-03-25T14:11:59Z</time>
      </trkpt>
      <trkpt lat="49.88725" lon="2.34318">
        <ele>28.5</ele>
        <time>2023-03-25T14:12:00Z</time>
      </trkpt>
      <trkpt lat="49.88725" lon="2.34317">
        <ele>28.4</ele>
        <time>2023-03-25T14:12:01Z</time>
      </trkpt>
      <trkpt lat="49.88724" lon="2.34316">
        <ele>28.4</ele>
        <time>2023-03-25T14:12:02Z</time>
      </trkpt>
      <trkpt lat="49.88722" lon="2.3431">
        <ele>28.3</ele>
        <time>2023-03-25T14:12:03Z</time>
      </trkpt>
      <trkpt lat="49.88722" lon="2.34309">
        <ele>28.3</ele>
        <time>2023-03-25T14:12:04Z</time>
      </trkpt>
      <trkpt lat="49.88722" lon="2.34308">
        <ele>28.2</ele>
        <time>2023-03-25T14:12:05Z</time>
      </trkpt>
      <trkpt lat="49.88721" lon="2.34306">
        <ele>28.2</ele>
        <time>2023-03-25T14:12:07Z</time>
      </trkpt>
      <trkpt lat="49.88721" lon="2.34304">
        <ele>28.1</ele>
        <time>2023-03-25T14:12:08Z</time>
      </trkpt>
      <trkpt lat="49.88721" lon="2.34301">
        <ele>28.1</ele>
        <time>2023-03-25T14:12:09Z</time>
      </trkpt>
      <trkpt lat="49.8872" lon="2.34298">
        <ele>28</ele>
        <time>2023-03-25T14:12:10Z</time>
      </trkpt>
      <trkpt lat="49.88719" lon="2.34297">
        <ele>28</ele>
        <time>2023-03-25T14:12:11Z</time>
      </trkpt>
      <trkpt lat="49.88719" lon="2.34296">
        <ele>27.9</ele>
        <time>2023-03-25T14:12:12Z</time>
      </trkpt>
      <trkpt lat="49.88719" lon="2.34294">
        <ele>27.9</ele>
        <time>2023-03-25T14:12:13Z</time>
      </trkpt>
      <trkpt lat="49.88718" lon="2.34292">
        <ele>27.9</ele>
        <time>2023-03-25T14:12:14Z</time>
      </trkpt>
      <trkpt lat="49.88718" lon="2.3429">
        <ele>27.8</ele>
        <time>2023-03-25T14:12:16Z</time>
      </trkpt>
      <trkpt lat="49.88717" lon="2.34287">
        <ele>27.7</ele>
        <time>2023-03-25T14:12:17Z</time>
      </trkpt>
      <trkpt lat="49.88716" lon="2.34286">
        <ele>27.7</ele>
        <time>2023-03-25T14:12:18Z</time>
      </trkpt>
      <trkpt lat="49.88715" lon="2.34285">
        <ele>27.7</ele>
        <time>2023-03-25T14:12:19Z</time>
      </trkpt>
      <trkpt lat="49.88715" lon="2.34284">
        <ele>27.6</ele>
        <time>2023-03-25T14:12:20Z</time>
      </trkpt>
      <trkpt lat="49.88714" lon="2.34283">
        <ele>27.6</ele>
        <time>2023-03-25T14:12:21Z</time>
      </trkpt>
      <trkpt lat="49.88713" lon="2.34282">
        <ele>27.6</ele>
        <time>2023-03-25T14:12:22Z</time>
      </trkpt>
      <trkpt lat="49.88713" lon="2.3428">
        <ele>27.5</ele>
        <time>2023-03-25T14:12:23Z</time>
      </trkpt>
      <trkpt lat="49.88712" lon="2.3428">
        <ele>27.5</ele>
        <time>2023-03-25T14:12:24Z</time>
      </trkpt>
      <trkpt lat="49.88712" lon="2.34279">
        <ele>27.5</ele>
        <time>2023-03-25T14:12:26Z</time>
      </trkpt>
      <trkpt lat="49.88711" lon="2.34277">
        <ele>27.5</ele>
        <time>2023-03-25T14:12:27Z</time>
      </trkpt>
      <trkpt lat="49.88711" lon="2.34276">
        <ele>27.4</ele>
        <time>2023-03-25T14:12:28Z</time>
      </trkpt>
      <trkpt lat="49.8871" lon="2.34273">
        <ele>27.4</ele>
        <time>2023-03-25T14:12:29Z</time>
      </trkpt>
      <trkpt lat="49.88709" lon="2.34272">
        <ele>27.3</ele>
        <time>2023-03-25T14:12:30Z</time>
      </trkpt>
      <trkpt lat="49.88709" lon="2.34271">
        <ele>27.3</ele>
        <time>2023-03-25T14:12:31Z</time>
      </trkpt>
      <trkpt lat="49.88708" lon="2.34269">
        <ele>27.3</ele>
        <time>2023-03-25T14:12:32Z</time>
      </trkpt>
      <trkpt lat="49.88708" lon="2.34269">
        <ele>27.3</ele>
        <time>2023-03-25T14:12:33Z</time>
      </trkpt>
      <trkpt lat="49.88708" lon="2.34268">
        <ele>27.2</ele>
        <time>2023-03-25T14:12:34Z</time>
      </trkpt>
      <trkpt lat="49.88707" lon="2.34267">
        <ele>27.2</ele>
        <time>2023-03-25T14:12:35Z</time>
      </trkpt>
      <trkpt lat="49.88707" lon="2.34265">
        <ele>27.2</ele>
        <time>2023-03-25T14:12:37Z</time>
      </trkpt>
      <trkpt lat="49.88706" lon="2.34263">
        <ele>27.1</ele>
        <time>2023-03-25T14:12:38Z</time>
      </trkpt>
      <trkpt lat="49.88707" lon="2.34262">
        <ele>27.1</ele>
        <time>2023-03-25T14:12:39Z</time>
      </trkpt>
      <trkpt lat="49.88706" lon="2.34261">
        <ele>27.1</ele>
        <time>2023-03-25T14:12:40Z</time>
      </trkpt>
      <trkpt lat="49.88705" lon="2.34258">
        <ele>27</ele>
        <time>2023-03-25T14:12:41Z</time>
      </trkpt>
      <trkpt lat="49.88705" lon="2.34256">
        <ele>27</ele>
        <time>2023-03-25T14:12:42Z</time>
      </trkpt>
      <trkpt lat="49.88704" lon="2.34255">
        <ele>26.9</ele>
        <time>2023-03-25T14:12:43Z</time>
      </trkpt>
      <trkpt lat="49.88703" lon="2.34254">
        <ele>26.9</ele>
        <time>2023-03-25T14:12:44Z</time>
      </trkpt>
      <trkpt lat="49.88702" lon="2.34252">
        <ele>26.8</ele>
        <time>2023-03-25T14:12:46Z</time>
      </trkpt>
      <trkpt lat="49.88701" lon="2.3425">
        <ele>26.8</ele>
        <time>2023-03-25T14:12:47Z</time>
      </trkpt>
      <trkpt lat="49.887" lon="2.34248">
        <ele>26.8</ele>
        <time>2023-03-25T14:12:48Z</time>
      </trkpt>
      <trkpt lat="49.88699" lon="2.34246">
        <ele>26.7</ele>
        <time>2023-03-25T14:12:49Z</time>
      </trkpt>
      <trkpt lat="49.88699" lon="2.34245">
        <ele>26.7</ele>
        <time>2023-03-25T14:12:50Z</time>
      </trkpt>
      <trkpt lat="49.88698" lon="2.34241">
        <ele>26.6</ele>
        <time>2023-03-25T14:12:51Z</time>
      </trkpt>
      <trkpt lat="49.88698" lon="2.34239">
        <ele>26.5</ele>
        <time>2023-03-25T14:12:52Z</time>
      </trkpt>
      <trkpt lat="49.88697" lon="2.34237">
        <ele>26.5</ele>
        <time>2023-03-25T14:12:53Z</time>
      </trkpt>
      <trkpt lat="49.88697" lon="2.34236">
        <ele>26.5</ele>
        <time>2023-03-25T14:12:54Z</time>
      </trkpt>
      <trkpt lat="49.88697" lon="2.34235">
        <ele>26.4</ele>
        <time>2023-03-25T14:12:55Z</time>
      </trkpt>
      <trkpt lat="49.88697" lon="2.34232">
        <ele>26.4</ele>
        <time>2023-03-25T14:12:57Z</time>
      </trkpt>
      <trkpt lat="49.88696" lon="2.3423">
        <ele>26.4</ele>
        <time>2023-03-25T14:12:58Z</time>
      </trkpt>
      <trkpt lat="49.88698" lon="2.34227">
        <ele>26.3</ele>
        <time>2023-03-25T14:12:59Z</time>
      </trkpt>
      <trkpt lat="49.88698" lon="2.34226">
        <ele>26.3</ele>
        <time>2023-03-25T14:13:00Z</time>
      </trkpt>
      <trkpt lat="49.88698" lon="2.34224">
        <ele>26.3</ele>
        <time>2023-03-25T14:13:01Z</time>
      </trkpt>
      <trkpt lat="49.88697" lon="2.34222">
        <ele>26.3</ele>
        <time>2023-03-25T14:13:02Z</time>
      </trkpt>
      <trkpt lat="49.88697" lon="2.34219">
        <ele>26.2</ele>
        <time>2023-03-25T14:13:04Z</time>
      </trkpt>
      <trkpt lat="49.88696" lon="2.34217">
        <ele>26.2</ele>
        <time>2023-03-25T14:13:05Z</time>
      </trkpt>
      <trkpt lat="49.88695" lon="2.34216">
        <ele>26.2</ele>
        <time>2023-03-25T14:13:06Z</time>
      </trkpt>
      <trkpt lat="49.88694" lon="2.34214">
        <ele>26.1</ele>
        <time>2023-03-25T14:13:07Z</time>
      </trkpt>
      <trkpt lat="49.88692" lon="2.3421">
        <ele>26.1</ele>
        <time>2023-03-25T14:13:08Z</time>
      </trkpt>
      <trkpt lat="49.88692" lon="2.34209">
        <ele>26.1</ele>
        <time>2023-03-25T14:13:09Z</time>
      </trkpt>
      <trkpt lat="49.88692" lon="2.34208">
        <ele>26.1</ele>
        <time>2023-03-25T14:13:10Z</time>
      </trkpt>
      <trkpt lat="49.88691" lon="2.34206">
        <ele>26</ele>
        <time>2023-03-25T14:13:12Z</time>
      </trkpt>
      <trkpt lat="49.88691" lon="2.34205">
        <ele>26</ele>
        <time>2023-03-25T14:13:13Z</time>
      </trkpt>
      <trkpt lat="49.8869" lon="2.34203">
        <ele>26</ele>
        <time>2023-03-25T14:13:14Z</time>
      </trkpt>
      <trkpt lat="49.8869" lon="2.34201">
        <ele>26</ele>
        <time>2023-03-25T14:13:15Z</time>
      </trkpt>
      <trkpt lat="49.88689" lon="2.342">
        <ele>26</ele>
        <time>2023-03-25T14:13:16Z</time>
      </trkpt>
      <trkpt lat="49.88689" lon="2.34199">
        <ele>26</ele>
        <time>2023-03-25T14:13:17Z</time>
      </trkpt>
      <trkpt lat="49.88687" lon="2.34198">
        <ele>26</ele>
        <time>2023-03-25T14:13:18Z</time>
      </trkpt>
      <trkpt lat="49.88687" lon="2.34198">
        <ele>26</ele>
        <time>2023-03-25T14:13:20Z</time>
      </trkpt>
      <trkpt lat="49.88686" lon="2.34197">
        <ele>25.9</ele>
        <time>2023-03-25T14:13:21Z</time>
      </trkpt>
      <trkpt lat="49.88685" lon="2.34197">
        <ele>25.9</ele>
        <time>2023-03-25T14:13:22Z</time>
      </trkpt>
      <trkpt lat="49.88685" lon="2.34196">
        <ele>25.9</ele>
        <time>2023-03-25T14:13:23Z</time>
      </trkpt>
      <trkpt lat="49.88684" lon="2.34196">
        <ele>25.9</ele>
        <time>2023-03-25T14:13:24Z</time>
      </trkpt>
      <trkpt lat="49.88683" lon="2.34196">
        <ele>25.9</ele>
        <time>2023-03-25T14:13:25Z</time>
      </trkpt>
      <trkpt lat="49.88682" lon="2.34196">
        <ele>25.9</ele>
        <time>2023-03-25T14:13:27Z</time>
      </trkpt>
      <trkpt lat="49.88681" lon="2.34195">
        <ele>25.9</ele>
        <time>2023-03-25T14:13:28Z</time>
      </trkpt>
      <trkpt lat="49.8868" lon="2.34196">
        <ele>25.9</ele>
        <time>2023-03-25T14:13:29Z</time>
      </trkpt>
      <trkpt lat="49.88679" lon="2.34196">
        <ele>25.9</ele>
        <time>2023-03-25T14:13:30Z</time>
      </trkpt>
      <trkpt lat="49.88678" lon="2.34196">
        <ele>25.9</ele>
        <time>2023-03-25T14:13:31Z</time>
      </trkpt>
      <trkpt lat="49.88676" lon="2.34196">
        <ele>25.8</ele>
        <time>2023-03-25T14:13:33Z</time>
      </trkpt>
      <trkpt lat="49.88675" lon="2.34195">
        <ele>25.8</ele>
        <time>2023-03-25T14:13:34Z</time>
      </trkpt>
      <trkpt lat="49.88674" lon="2.34195">
        <ele>25.8</ele>
        <time>2023-03-25T14:13:35Z</time>
      </trkpt>
      <trkpt lat="49.88673" lon="2.34195">
        <ele>25.8</ele>
        <time>2023-03-25T14:13:36Z</time>
      </trkpt>
      <trkpt lat="49.88672" lon="2.34195">
        <ele>25.8</ele>
        <time>2023-03-25T14:13:37Z</time>
      </trkpt>
      <trkpt lat="49.88671" lon="2.34194">
        <ele>25.8</ele>
        <time>2023-03-25T14:13:38Z</time>
      </trkpt>
      <trkpt lat="49.88671" lon="2.34194">
        <ele>25.8</ele>
        <time>2023-03-25T14:13:40Z</time>
      </trkpt>
      <trkpt lat="49.8867" lon="2.34194">
        <ele>25.8</ele>
        <time>2023-03-25T14:13:41Z</time>
      </trkpt>
      <trkpt lat="49.8867" lon="2.34194">
        <ele>25.8</ele>
        <time>2023-03-25T14:13:43Z</time>
      </trkpt>
      <trkpt lat="49.8867" lon="2.34193">
        <ele>25.8</ele>
        <time>2023-03-25T14:13:44Z</time>
      </trkpt>
      <trkpt lat="49.8867" lon="2.34193">
        <ele>25.8</ele>
        <time>2023-03-25T14:13:45Z</time>
      </trkpt>
      <trkpt lat="49.88669" lon="2.34192">
        <ele>25.8</ele>
        <time>2023-03-25T14:13:46Z</time>
      </trkpt>
      <trkpt lat="49.88669" lon="2.3419">
        <ele>25.8</ele>
        <time>2023-03-25T14:13:48Z</time>
      </trkpt>
      <trkpt lat="49.8867" lon="2.3419">
        <ele>25.8</ele>
        <time>2023-03-25T14:13:49Z</time>
      </trkpt>
      <trkpt lat="49.8867" lon="2.3419">
        <ele>25.8</ele>
        <time>2023-03-25T14:13:51Z</time>
      </trkpt>
      <trkpt lat="49.8867" lon="2.3419">
        <ele>25.8</ele>
        <time>2023-03-25T14:13:52Z</time>
      </trkpt>
      <trkpt lat="49.8867" lon="2.3419">
        <ele>25.8</ele>
        <time>2023-03-25T14:13:53Z</time>
      </trkpt>
      <trkpt lat="49.8867" lon="2.3419">
        <ele>25.8</ele>
        <time>2023-03-25T14:13:54Z</time>
      </trkpt>
      <trkpt lat="49.8867" lon="2.3419">
        <ele>25.8</ele>
        <time>2023-03-25T14:13:56Z</time>
      </trkpt>
      <trkpt lat="49.8867" lon="2.3419">
        <ele>25.8</ele>
        <time>2023-03-25T14:13:57Z</time>
      </trkpt>
      <trkpt lat="49.8867" lon="2.3419">
        <ele>25.8</ele>
        <time>2023-03-25T14:13:58Z</time>
      </trkpt>
      <trkpt lat="49.8867" lon="2.3419">
        <ele>25.8</ele>
        <time>2023-03-25T14:13:59Z</time>
      </trkpt>
      <trkpt lat="49.8867" lon="2.3419">
        <ele>25.8</ele>
        <time>2023-03-25T14:14:01Z</time>
      </trkpt>
      <trkpt lat="49.8867" lon="2.3419">
        <ele>25.8</ele>
        <time>2023-03-25T14:14:02Z</time>
      </trkpt>
      <trkpt lat="49.8867" lon="2.34189">
        <ele>25.8</ele>
        <time>2023-03-25T14:14:03Z</time>
      </trkpt>
      <trkpt lat="49.88671" lon="2.3419">
        <ele>25.8</ele>
        <time>2023-03-25T14:14:04Z</time>
      </trkpt>
      <trkpt lat="49.88671" lon="2.3419">
        <ele>25.8</ele>
        <time>2023-03-25T14:14:05Z</time>
      </trkpt>
      <trkpt lat="49.88671" lon="2.3419">
        <ele>25.8</ele>
        <time>2023-03-25T14:14:06Z</time>
      </trkpt>
      <trkpt lat="49.88671" lon="2.3419">
        <ele>25.8</ele>
        <time>2023-03-25T14:14:07Z</time>
      </trkpt>
      <trkpt lat="49.88671" lon="2.3419">
        <ele>25.8</ele>
        <time>2023-03-25T14:14:08Z</time>
      </trkpt>
      <trkpt lat="49.88671" lon="2.3419">
        <ele>25.8</ele>
        <time>2023-03-25T14:14:09Z</time>
      </trkpt>
      <trkpt lat="49.88671" lon="2.3419">
        <ele>25.8</ele>
        <time>2023-03-25T14:14:10Z</time>
      </trkpt>
      <trkpt lat="49.88671" lon="2.3419">
        <ele>25.8</ele>
        <time>2023-03-25T14:14:11Z</time>
      </trkpt>
      <trkpt lat="49.88671" lon="2.3419">
        <ele>25.8</ele>
        <time>2023-03-25T14:14:12Z</time>
      </trkpt>
      <trkpt lat="49.88671" lon="2.3419">
        <ele>25.8</ele>
        <time>2023-03-25T14:14:13Z</time>
      </trkpt>
      <trkpt lat="49.88671" lon="2.3419">
        <ele>25.8</ele>
        <time>2023-03-25T14:14:14Z</time>
      </trkpt>
      <trkpt lat="49.88671" lon="2.3419">
        <ele>25.8</ele>
        <time>2023-03-25T14:14:15Z</time>
      </trkpt>
      <trkpt lat="49.88671" lon="2.3419">
        <ele>25.8</ele>
        <time>2023-03-25T14:14:16Z</time>
      </trkpt>
      <trkpt lat="49.88671" lon="2.3419">
        <ele>25.8</ele>
        <time>2023-03-25T14:14:17Z</time>
      </trkpt>
      <trkpt lat="49.88671" lon="2.3419">
        <ele>25.8</ele>
        <time>2023-03-25T14:14:18Z</time>
      </trkpt>
      <trkpt lat="49.88671" lon="2.3419">
        <ele>25.8</ele>
        <time>2023-03-25T14:14:19Z</time>
      </trkpt>
      <trkpt lat="49.88671" lon="2.3419">
        <ele>25.8</ele>
        <time>2023-03-25T14:14:20Z</time>
      </trkpt>
      <trkpt lat="49.88671" lon="2.3419">
        <ele>25.8</ele>
        <time>2023-03-25T14:14:21Z</time>
      </trkpt>
      <trkpt lat="49.88671" lon="2.3419">
        <ele>25.8</ele>
        <time>2023-03-25T14:14:22Z</time>
      </trkpt>
      <trkpt lat="49.88671" lon="2.3419">
        <ele>25.8</ele>
        <time>2023-03-25T14:14:23Z</time>
      </trkpt>
      <trkpt lat="49.88672" lon="2.34191">
        <ele>25.7</ele>
        <time>2023-03-25T14:14:24Z</time>
      </trkpt>
      <trkpt lat="49.88673" lon="2.34191">
        <ele>25.7</ele>
        <time>2023-03-25T14:14:25Z</time>
      </trkpt>
      <trkpt lat="49.88672" lon="2.34191">
        <ele>25.7</ele>
        <time>2023-03-25T14:14:26Z</time>
      </trkpt>
      <trkpt lat="49.88672" lon="2.34191">
        <ele>25.7</ele>
        <time>2023-03-25T14:14:27Z</time>
      </trkpt>
      <trkpt lat="49.88671" lon="2.34191">
        <ele>25.7</ele>
        <time>2023-03-25T14:14:28Z</time>
      </trkpt>
      <trkpt lat="49.8867" lon="2.34189">
        <ele>25.7</ele>
        <time>2023-03-25T14:14:30Z</time>
      </trkpt>
      <trkpt lat="49.8867" lon="2.34189">
        <ele>25.7</ele>
        <time>2023-03-25T14:14:31Z</time>
      </trkpt>
      <trkpt lat="49.8867" lon="2.34188">
        <ele>25.7</ele>
        <time>2023-03-25T14:14:32Z</time>
      </trkpt>
      <trkpt lat="49.88669" lon="2.34186">
        <ele>25.7</ele>
        <time>2023-03-25T14:14:33Z</time>
      </trkpt>
      <trkpt lat="49.88668" lon="2.34184">
        <ele>25.7</ele>
        <time>2023-03-25T14:14:35Z</time>
      </trkpt>
      <trkpt lat="49.88667" lon="2.34183">
        <ele>25.7</ele>
        <time>2023-03-25T14:14:36Z</time>
      </trkpt>
      <trkpt lat="49.88666" lon="2.34181">
        <ele>25.7</ele>
        <time>2023-03-25T14:14:38Z</time>
      </trkpt>
      <trkpt lat="49.88665" lon="2.3418">
        <ele>25.7</ele>
        <time>2023-03-25T14:14:39Z</time>
      </trkpt>
      <trkpt lat="49.88665" lon="2.34179">
        <ele>25.7</ele>
        <time>2023-03-25T14:14:40Z</time>
      </trkpt>
      <trkpt lat="49.88664" lon="2.34178">
        <ele>25.7</ele>
        <time>2023-03-25T14:14:41Z</time>
      </trkpt>
      <trkpt lat="49.88664" lon="2.34177">
        <ele>25.7</ele>
        <time>2023-03-25T14:14:43Z</time>
      </trkpt>
      <trkpt lat="49.88663" lon="2.34174">
        <ele>25.7</ele>
        <time>2023-03-25T14:14:44Z</time>
      </trkpt>
      <trkpt lat="49.88662" lon="2.34173">
        <ele>25.7</ele>
        <time>2023-03-25T14:14:45Z</time>
      </trkpt>
      <trkpt lat="49.88662" lon="2.34172">
        <ele>25.7</ele>
        <time>2023-03-25T14:14:46Z</time>
      </trkpt>
      <trkpt lat="49.88662" lon="2.34171">
        <ele>25.7</ele>
        <time>2023-03-25T14:14:47Z</time>
      </trkpt>
      <trkpt lat="49.88661" lon="2.3417">
        <ele>25.7</ele>
        <time>2023-03-25T14:14:48Z</time>
      </trkpt>
      <trkpt lat="49.88661" lon="2.34168">
        <ele>25.7</ele>
        <time>2023-03-25T14:14:49Z</time>
      </trkpt>
      <trkpt lat="49.88661" lon="2.34167">
        <ele>25.6</ele>
        <time>2023-03-25T14:14:51Z</time>
      </trkpt>
      <trkpt lat="49.8866" lon="2.34167">
        <ele>25.6</ele>
        <time>2023-03-25T14:14:52Z</time>
      </trkpt>
      <trkpt lat="49.8866" lon="2.34166">
        <ele>25.6</ele>
        <time>2023-03-25T14:14:53Z</time>
      </trkpt>
      <trkpt lat="49.8866" lon="2.34165">
        <ele>25.6</ele>
        <time>2023-03-25T14:14:54Z</time>
      </trkpt>
      <trkpt lat="49.8866" lon="2.34164">
        <ele>25.6</ele>
        <time>2023-03-25T14:14:55Z</time>
      </trkpt>
      <trkpt lat="49.88659" lon="2.34163">
        <ele>25.6</ele>
        <time>2023-03-25T14:14:56Z</time>
      </trkpt>
      <trkpt lat="49.88658" lon="2.34161">
        <ele>25.6</ele>
        <time>2023-03-25T14:14:58Z</time>
      </trkpt>
      <trkpt lat="49.88657" lon="2.34159">
        <ele>25.6</ele>
        <time>2023-03-25T14:14:59Z</time>
      </trkpt>
      <trkpt lat="49.88657" lon="2.34159">
        <ele>25.6</ele>
        <time>2023-03-25T14:15:00Z</time>
      </trkpt>
      <trkpt lat="49.88657" lon="2.34158">
        <ele>25.6</ele>
        <time>2023-03-25T14:15:02Z</time>
      </trkpt>
      <trkpt lat="49.88656" lon="2.34157">
        <ele>25.6</ele>
        <time>2023-03-25T14:15:03Z</time>
      </trkpt>
      <trkpt lat="49.88656" lon="2.34155">
        <ele>25.6</ele>
        <time>2023-03-25T14:15:04Z</time>
      </trkpt>
      <trkpt lat="49.88656" lon="2.34152">
        <ele>25.5</ele>
        <time>2023-03-25T14:15:05Z</time>
      </trkpt>
      <trkpt lat="49.88655" lon="2.34151">
        <ele>25.5</ele>
        <time>2023-03-25T14:15:06Z</time>
      </trkpt>
      <trkpt lat="49.88655" lon="2.3415">
        <ele>25.5</ele>
        <time>2023-03-25T14:15:07Z</time>
      </trkpt>
      <trkpt lat="49.88655" lon="2.34149">
        <ele>25.5</ele>
        <time>2023-03-25T14:15:08Z</time>
      </trkpt>
      <trkpt lat="49.88655" lon="2.34147">
        <ele>25.5</ele>
        <time>2023-03-25T14:15:09Z</time>
      </trkpt>
      <trkpt lat="49.88655" lon="2.34146">
        <ele>25.5</ele>
        <time>2023-03-25T14:15:11Z</time>
      </trkpt>
      <trkpt lat="49.88654" lon="2.34144">
        <ele>25.5</ele>
        <time>2023-03-25T14:15:12Z</time>
      </trkpt>
      <trkpt lat="49.88654" lon="2.34143">
        <ele>25.5</ele>
        <time>2023-03-25T14:15:13Z</time>
      </trkpt>
      <trkpt lat="49.88654" lon="2.34143">
        <ele>25.5</ele>
        <time>2023-03-25T14:15:14Z</time>
      </trkpt>
      <trkpt lat="49.88657" lon="2.3415">
        <ele>25.4</ele>
        <time>2023-03-25T14:15:15Z</time>
      </trkpt>
      <trkpt lat="49.88657" lon="2.34149">
        <ele>25.4</ele>
        <time>2023-03-25T14:15:16Z</time>
      </trkpt>
      <trkpt lat="49.88657" lon="2.34148">
        <ele>25.4</ele>
        <time>2023-03-25T14:15:17Z</time>
      </trkpt>
      <trkpt lat="49.88657" lon="2.34147">
        <ele>25.4</ele>
        <time>2023-03-25T14:15:18Z</time>
      </trkpt>
      <trkpt lat="49.88656" lon="2.34144">
        <ele>25.4</ele>
        <time>2023-03-25T14:15:20Z</time>
      </trkpt>
      <trkpt lat="49.88656" lon="2.34142">
        <ele>25.3</ele>
        <time>2023-03-25T14:15:21Z</time>
      </trkpt>
      <trkpt lat="49.88656" lon="2.3414">
        <ele>25.3</ele>
        <time>2023-03-25T14:15:22Z</time>
      </trkpt>
      <trkpt lat="49.88655" lon="2.34139">
        <ele>25.3</ele>
        <time>2023-03-25T14:15:23Z</time>
      </trkpt>
      <trkpt lat="49.88655" lon="2.34136">
        <ele>25.3</ele>
        <time>2023-03-25T14:15:24Z</time>
      </trkpt>
      <trkpt lat="49.88654" lon="2.34136">
        <ele>25.3</ele>
        <time>2023-03-25T14:15:25Z</time>
      </trkpt>
      <trkpt lat="49.88654" lon="2.34135">
        <ele>25.3</ele>
        <time>2023-03-25T14:15:27Z</time>
      </trkpt>
      <trkpt lat="49.88653" lon="2.34133">
        <ele>25.3</ele>
        <time>2023-03-25T14:15:28Z</time>
      </trkpt>
      <trkpt lat="49.88653" lon="2.34132">
        <ele>25.3</ele>
        <time>2023-03-25T14:15:29Z</time>
      </trkpt>
      <trkpt lat="49.88652" lon="2.3413">
        <ele>25.2</ele>
        <time>2023-03-25T14:15:30Z</time>
      </trkpt>
      <trkpt lat="49.88651" lon="2.34128">
        <ele>25.2</ele>
        <time>2023-03-25T14:15:31Z</time>
      </trkpt>
      <trkpt lat="49.8865" lon="2.34125">
        <ele>25.2</ele>
        <time>2023-03-25T14:15:32Z</time>
      </trkpt>
      <trkpt lat="49.8865" lon="2.34123">
        <ele>25.2</ele>
        <time>2023-03-25T14:15:33Z</time>
      </trkpt>
      <trkpt lat="49.88649" lon="2.34119">
        <ele>25.2</ele>
        <time>2023-03-25T14:15:35Z</time>
      </trkpt>
      <trkpt lat="49.88648" lon="2.34118">
        <ele>25.1</ele>
        <time>2023-03-25T14:15:36Z</time>
      </trkpt>
      <trkpt lat="49.88648" lon="2.34115">
        <ele>25.1</ele>
        <time>2023-03-25T14:15:37Z</time>
      </trkpt>
      <trkpt lat="49.88648" lon="2.34113">
        <ele>25.1</ele>
        <time>2023-03-25T14:15:38Z</time>
      </trkpt>
      <trkpt lat="49.88648" lon="2.34111">
        <ele>25.1</ele>
        <time>2023-03-25T14:15:39Z</time>
      </trkpt>
      <trkpt lat="49.88647" lon="2.34108">
        <ele>25.1</ele>
        <time>2023-03-25T14:15:40Z</time>
      </trkpt>
      <trkpt lat="49.88647" lon="2.34106">
        <ele>25.1</ele>
        <time>2023-03-25T14:15:41Z</time>
      </trkpt>
      <trkpt lat="49.88647" lon="2.34103">
        <ele>25</ele>
        <time>2023-03-25T14:15:42Z</time>
      </trkpt>
      <trkpt lat="49.88647" lon="2.34101">
        <ele>25</ele>
        <time>2023-03-25T14:15:44Z</time>
      </trkpt>
      <trkpt lat="49.88647" lon="2.34099">
        <ele>25</ele>
        <time>2023-03-25T14:15:45Z</time>
      </trkpt>
      <trkpt lat="49.88647" lon="2.34098">
        <ele>25</ele>
        <time>2023-03-25T14:15:46Z</time>
      </trkpt>
      <trkpt lat="49.88647" lon="2.34095">
        <ele>25</ele>
        <time>2023-03-25T14:15:47Z</time>
      </trkpt>
      <trkpt lat="49.88648" lon="2.34094">
        <ele>25</ele>
        <time>2023-03-25T14:15:48Z</time>
      </trkpt>
      <trkpt lat="49.88648" lon="2.34091">
        <ele>25</ele>
        <time>2023-03-25T14:15:49Z</time>
      </trkpt>
      <trkpt lat="49.88648" lon="2.34089">
        <ele>25</ele>
        <time>2023-03-25T14:15:51Z</time>
      </trkpt>
      <trkpt lat="49.88648" lon="2.34088">
        <ele>25</ele>
        <time>2023-03-25T14:15:52Z</time>
      </trkpt>
      <trkpt lat="49.88648" lon="2.34087">
        <ele>25</ele>
        <time>2023-03-25T14:15:53Z</time>
      </trkpt>
      <trkpt lat="49.88648" lon="2.34085">
        <ele>25</ele>
        <time>2023-03-25T14:15:54Z</time>
      </trkpt>
      <trkpt lat="49.88648" lon="2.34083">
        <ele>24.9</ele>
        <time>2023-03-25T14:15:55Z</time>
      </trkpt>
      <trkpt lat="49.88649" lon="2.34082">
        <ele>24.9</ele>
        <time>2023-03-25T14:15:56Z</time>
      </trkpt>
      <trkpt lat="49.88649" lon="2.3408">
        <ele>24.9</ele>
        <time>2023-03-25T14:15:58Z</time>
      </trkpt>
      <trkpt lat="49.88648" lon="2.34079">
        <ele>24.9</ele>
        <time>2023-03-25T14:15:59Z</time>
      </trkpt>
      <trkpt lat="49.88649" lon="2.34075">
        <ele>24.9</ele>
        <time>2023-03-25T14:16:00Z</time>
      </trkpt>
      <trkpt lat="49.88649" lon="2.34074">
        <ele>24.9</ele>
        <time>2023-03-25T14:16:01Z</time>
      </trkpt>
      <trkpt lat="49.88649" lon="2.34072">
        <ele>24.9</ele>
        <time>2023-03-25T14:16:02Z</time>
      </trkpt>
      <trkpt lat="49.88649" lon="2.3407">
        <ele>24.9</ele>
        <time>2023-03-25T14:16:03Z</time>
      </trkpt>
      <trkpt lat="49.88649" lon="2.34068">
        <ele>24.9</ele>
        <time>2023-03-25T14:16:04Z</time>
      </trkpt>
      <trkpt lat="49.88649" lon="2.34066">
        <ele>24.9</ele>
        <time>2023-03-25T14:16:06Z</time>
      </trkpt>
      <trkpt lat="49.88649" lon="2.34065">
        <ele>24.9</ele>
        <time>2023-03-25T14:16:07Z</time>
      </trkpt>
      <trkpt lat="49.88649" lon="2.34063">
        <ele>24.9</ele>
        <time>2023-03-25T14:16:08Z</time>
      </trkpt>
      <trkpt lat="49.88649" lon="2.34062">
        <ele>24.9</ele>
        <time>2023-03-25T14:16:09Z</time>
      </trkpt>
      <trkpt lat="49.88649" lon="2.34058">
        <ele>24.9</ele>
        <time>2023-03-25T14:16:10Z</time>
      </trkpt>
      <trkpt lat="49.88649" lon="2.34057">
        <ele>24.9</ele>
        <time>2023-03-25T14:16:11Z</time>
      </trkpt>
      <trkpt lat="49.88649" lon="2.34056">
        <ele>24.9</ele>
        <time>2023-03-25T14:16:12Z</time>
      </trkpt>
      <trkpt lat="49.88649" lon="2.34054">
        <ele>24.9</ele>
        <time>2023-03-25T14:16:13Z</time>
      </trkpt>
      <trkpt lat="49.88649" lon="2.34052">
        <ele>24.9</ele>
        <time>2023-03-25T14:16:15Z</time>
      </trkpt>
      <trkpt lat="49.8865" lon="2.3405">
        <ele>24.9</ele>
        <time>2023-03-25T14:16:16Z</time>
      </trkpt>
      <trkpt lat="49.8865" lon="2.34047">
        <ele>24.9</ele>
        <time>2023-03-25T14:16:17Z</time>
      </trkpt>
      <trkpt lat="49.8865" lon="2.34046">
        <ele>24.9</ele>
        <time>2023-03-25T14:16:18Z</time>
      </trkpt>
      <trkpt lat="49.8865" lon="2.34044">
        <ele>24.9</ele>
        <time>2023-03-25T14:16:19Z</time>
      </trkpt>
      <trkpt lat="49.8865" lon="2.34042">
        <ele>24.9</ele>
        <time>2023-03-25T14:16:20Z</time>
      </trkpt>
      <trkpt lat="49.88651" lon="2.34041">
        <ele>24.9</ele>
        <time>2023-03-25T14:16:21Z</time>
      </trkpt>
      <trkpt lat="49.88651" lon="2.34037">
        <ele>24.9</ele>
        <time>2023-03-25T14:16:22Z</time>
      </trkpt>
      <trkpt lat="49.88651" lon="2.34036">
        <ele>24.9</ele>
        <time>2023-03-25T14:16:24Z</time>
      </trkpt>
      <trkpt lat="49.88652" lon="2.34035">
        <ele>24.9</ele>
        <time>2023-03-25T14:16:25Z</time>
      </trkpt>
      <trkpt lat="49.88652" lon="2.34033">
        <ele>24.9</ele>
        <time>2023-03-25T14:16:26Z</time>
      </trkpt>
      <trkpt lat="49.88652" lon="2.3403">
        <ele>24.9</ele>
        <time>2023-03-25T14:16:27Z</time>
      </trkpt>
      <trkpt lat="49.88652" lon="2.34029">
        <ele>24.9</ele>
        <time>2023-03-25T14:16:28Z</time>
      </trkpt>
      <trkpt lat="49.88653" lon="2.34027">
        <ele>24.9</ele>
        <time>2023-03-25T14:16:29Z</time>
      </trkpt>
      <trkpt lat="49.88653" lon="2.34025">
        <ele>24.9</ele>
        <time>2023-03-25T14:16:31Z</time>
      </trkpt>
      <trkpt lat="49.88654" lon="2.34023">
        <ele>24.9</ele>
        <time>2023-03-25T14:16:32Z</time>
      </trkpt>
      <trkpt lat="49.88654" lon="2.34021">
        <ele>24.9</ele>
        <time>2023-03-25T14:16:33Z</time>
      </trkpt>
      <trkpt lat="49.88654" lon="2.34019">
        <ele>24.9</ele>
        <time>2023-03-25T14:16:34Z</time>
      </trkpt>
      <trkpt lat="49.88655" lon="2.34018">
        <ele>24.9</ele>
        <time>2023-03-25T14:16:35Z</time>
      </trkpt>
      <trkpt lat="49.88655" lon="2.34016">
        <ele>24.9</ele>
        <time>2023-03-25T14:16:36Z</time>
      </trkpt>
      <trkpt lat="49.88656" lon="2.34014">
        <ele>24.9</ele>
        <time>2023-03-25T14:16:38Z</time>
      </trkpt>
      <trkpt lat="49.88657" lon="2.34013">
        <ele>24.9</ele>
        <time>2023-03-25T14:16:39Z</time>
      </trkpt>
      <trkpt lat="49.88657" lon="2.34012">
        <ele>24.9</ele>
        <time>2023-03-25T14:16:40Z</time>
      </trkpt>
      <trkpt lat="49.88658" lon="2.34011">
        <ele>24.9</ele>
        <time>2023-03-25T14:16:41Z</time>
      </trkpt>
      <trkpt lat="49.88659" lon="2.34009">
        <ele>24.9</ele>
        <time>2023-03-25T14:16:42Z</time>
      </trkpt>
      <trkpt lat="49.88659" lon="2.34008">
        <ele>24.9</ele>
        <time>2023-03-25T14:16:43Z</time>
      </trkpt>
      <trkpt lat="49.8866" lon="2.34007">
        <ele>24.9</ele>
        <time>2023-03-25T14:16:44Z</time>
      </trkpt>
      <trkpt lat="49.8866" lon="2.34006">
        <ele>24.9</ele>
        <time>2023-03-25T14:16:46Z</time>
      </trkpt>
      <trkpt lat="49.88661" lon="2.34005">
        <ele>24.9</ele>
        <time>2023-03-25T14:16:47Z</time>
      </trkpt>
      <trkpt lat="49.88662" lon="2.34003">
        <ele>24.9</ele>
        <time>2023-03-25T14:16:48Z</time>
      </trkpt>
      <trkpt lat="49.88663" lon="2.34002">
        <ele>24.9</ele>
        <time>2023-03-25T14:16:49Z</time>
      </trkpt>
      <trkpt lat="49.88663" lon="2.34002">
        <ele>24.9</ele>
        <time>2023-03-25T14:16:50Z</time>
      </trkpt>
      <trkpt lat="49.88664" lon="2.34">
        <ele>24.9</ele>
        <time>2023-03-25T14:16:51Z</time>
      </trkpt>
      <trkpt lat="49.88664" lon="2.33999">
        <ele>24.9</ele>
        <time>2023-03-25T14:16:52Z</time>
      </trkpt>
      <trkpt lat="49.88665" lon="2.33998">
        <ele>24.9</ele>
        <time>2023-03-25T14:16:54Z</time>
      </trkpt>
      <trkpt lat="49.88666" lon="2.33996">
        <ele>24.9</ele>
        <time>2023-03-25T14:16:55Z</time>
      </trkpt>
      <trkpt lat="49.88666" lon="2.33995">
        <ele>24.9</ele>
        <time>2023-03-25T14:16:56Z</time>
      </trkpt>
      <trkpt lat="49.88667" lon="2.33995">
        <ele>24.9</ele>
        <time>2023-03-25T14:16:57Z</time>
      </trkpt>
      <trkpt lat="49.88668" lon="2.33994">
        <ele>24.9</ele>
        <time>2023-03-25T14:16:58Z</time>
      </trkpt>
      <trkpt lat="49.88668" lon="2.33993">
        <ele>24.9</ele>
        <time>2023-03-25T14:16:59Z</time>
      </trkpt>
      <trkpt lat="49.88669" lon="2.33992">
        <ele>24.9</ele>
        <time>2023-03-25T14:17:01Z</time>
      </trkpt>
      <trkpt lat="49.8867" lon="2.33991">
        <ele>24.9</ele>
        <time>2023-03-25T14:17:02Z</time>
      </trkpt>
      <trkpt lat="49.88671" lon="2.3399">
        <ele>24.9</ele>
        <time>2023-03-25T14:17:03Z</time>
      </trkpt>
      <trkpt lat="49.88671" lon="2.3399">
        <ele>24.9</ele>
        <time>2023-03-25T14:17:04Z</time>
      </trkpt>
      <trkpt lat="49.88672" lon="2.33989">
        <ele>24.9</ele>
        <time>2023-03-25T14:17:05Z</time>
      </trkpt>
      <trkpt lat="49.88674" lon="2.33988">
        <ele>24.9</ele>
        <time>2023-03-25T14:17:07Z</time>
      </trkpt>
      <trkpt lat="49.88675" lon="2.33987">
        <ele>24.9</ele>
        <time>2023-03-25T14:17:08Z</time>
      </trkpt>
      <trkpt lat="49.88675" lon="2.33986">
        <ele>24.9</ele>
        <time>2023-03-25T14:17:09Z</time>
      </trkpt>
      <trkpt lat="49.88677" lon="2.33983">
        <ele>24.9</ele>
        <time>2023-03-25T14:17:10Z</time>
      </trkpt>
      <trkpt lat="49.88678" lon="2.33981">
        <ele>24.9</ele>
        <time>2023-03-25T14:17:11Z</time>
      </trkpt>
      <trkpt lat="49.88679" lon="2.3398">
        <ele>24.9</ele>
        <time>2023-03-25T14:17:12Z</time>
      </trkpt>
      <trkpt lat="49.8868" lon="2.33979">
        <ele>24.9</ele>
        <time>2023-03-25T14:17:13Z</time>
      </trkpt>
      <trkpt lat="49.8868" lon="2.33978">
        <ele>24.9</ele>
        <time>2023-03-25T14:17:15Z</time>
      </trkpt>
      <trkpt lat="49.88681" lon="2.33977">
        <ele>24.8</ele>
        <time>2023-03-25T14:17:16Z</time>
      </trkpt>
      <trkpt lat="49.88682" lon="2.33976">
        <ele>24.8</ele>
        <time>2023-03-25T14:17:17Z</time>
      </trkpt>
      <trkpt lat="49.88682" lon="2.33976">
        <ele>24.8</ele>
        <time>2023-03-25T14:17:18Z</time>
      </trkpt>
      <trkpt lat="49.88682" lon="2.33975">
        <ele>24.8</ele>
        <time>2023-03-25T14:17:19Z</time>
      </trkpt>
      <trkpt lat="49.88683" lon="2.33974">
        <ele>24.8</ele>
        <time>2023-03-25T14:17:20Z</time>
      </trkpt>
      <trkpt lat="49.88683" lon="2.33972">
        <ele>24.8</ele>
        <time>2023-03-25T14:17:21Z</time>
      </trkpt>
      <trkpt lat="49.88685" lon="2.33969">
        <ele>24.8</ele>
        <time>2023-03-25T14:17:23Z</time>
      </trkpt>
      <trkpt lat="49.88686" lon="2.33968">
        <ele>24.8</ele>
        <time>2023-03-25T14:17:24Z</time>
      </trkpt>
      <trkpt lat="49.88687" lon="2.33966">
        <ele>24.8</ele>
        <time>2023-03-25T14:17:25Z</time>
      </trkpt>
      <trkpt lat="49.88687" lon="2.33965">
        <ele>24.8</ele>
        <time>2023-03-25T14:17:26Z</time>
      </trkpt>
      <trkpt lat="49.88688" lon="2.33965">
        <ele>24.8</ele>
        <time>2023-03-25T14:17:27Z</time>
      </trkpt>
      <trkpt lat="49.88689" lon="2.33962">
        <ele>24.8</ele>
        <time>2023-03-25T14:17:28Z</time>
      </trkpt>
      <trkpt lat="49.8869" lon="2.33961">
        <ele>24.8</ele>
        <time>2023-03-25T14:17:29Z</time>
      </trkpt>
      <trkpt lat="49.88691" lon="2.33958">
        <ele>24.8</ele>
        <time>2023-03-25T14:17:30Z</time>
      </trkpt>
      <trkpt lat="49.88691" lon="2.33956">
        <ele>24.8</ele>
        <time>2023-03-25T14:17:32Z</time>
      </trkpt>
      <trkpt lat="49.88692" lon="2.33954">
        <ele>24.8</ele>
        <time>2023-03-25T14:17:33Z</time>
      </trkpt>
      <trkpt lat="49.88693" lon="2.33952">
        <ele>24.8</ele>
        <time>2023-03-25T14:17:34Z</time>
      </trkpt>
      <trkpt lat="49.88693" lon="2.33951">
        <ele>24.8</ele>
        <time>2023-03-25T14:17:35Z</time>
      </trkpt>
      <trkpt lat="49.88693" lon="2.3395">
        <ele>24.8</ele>
        <time>2023-03-25T14:17:36Z</time>
      </trkpt>
      <trkpt lat="49.88694" lon="2.33949">
        <ele>24.8</ele>
        <time>2023-03-25T14:17:37Z</time>
      </trkpt>
      <trkpt lat="49.88695" lon="2.33945">
        <ele>24.8</ele>
        <time>2023-03-25T14:17:38Z</time>
      </trkpt>
      <trkpt lat="49.88696" lon="2.33944">
        <ele>24.8</ele>
        <time>2023-03-25T14:17:40Z</time>
      </trkpt>
      <trkpt lat="49.88696" lon="2.33942">
        <ele>24.8</ele>
        <time>2023-03-25T14:17:41Z</time>
      </trkpt>
      <trkpt lat="49.88697" lon="2.33941">
        <ele>24.8</ele>
        <time>2023-03-25T14:17:42Z</time>
      </trkpt>
      <trkpt lat="49.88698" lon="2.3394">
        <ele>24.8</ele>
        <time>2023-03-25T14:17:43Z</time>
      </trkpt>
      <trkpt lat="49.88698" lon="2.33938">
        <ele>24.8</ele>
        <time>2023-03-25T14:17:44Z</time>
      </trkpt>
      <trkpt lat="49.88699" lon="2.33937">
        <ele>24.8</ele>
        <time>2023-03-25T14:17:45Z</time>
      </trkpt>
      <trkpt lat="49.887" lon="2.33936">
        <ele>24.8</ele>
        <time>2023-03-25T14:17:47Z</time>
      </trkpt>
      <trkpt lat="49.88699" lon="2.33933">
        <ele>24.8</ele>
        <time>2023-03-25T14:17:48Z</time>
      </trkpt>
      <trkpt lat="49.88698" lon="2.33933">
        <ele>24.8</ele>
        <time>2023-03-25T14:17:50Z</time>
      </trkpt>
      <trkpt lat="49.88697" lon="2.33933">
        <ele>24.8</ele>
        <time>2023-03-25T14:17:51Z</time>
      </trkpt>
      <trkpt lat="49.88697" lon="2.33935">
        <ele>24.8</ele>
        <time>2023-03-25T14:17:52Z</time>
      </trkpt>
      <trkpt lat="49.88697" lon="2.33935">
        <ele>24.8</ele>
        <time>2023-03-25T14:17:54Z</time>
      </trkpt>
      <trkpt lat="49.88697" lon="2.33935">
        <ele>24.8</ele>
        <time>2023-03-25T14:17:55Z</time>
      </trkpt>
      <trkpt lat="49.88697" lon="2.33935">
        <ele>24.8</ele>
        <time>2023-03-25T14:17:56Z</time>
      </trkpt>
      <trkpt lat="49.88696" lon="2.33934">
        <ele>24.8</ele>
        <time>2023-03-25T14:17:58Z</time>
      </trkpt>
      <trkpt lat="49.88696" lon="2.33933">
        <ele>24.8</ele>
        <time>2023-03-25T14:17:59Z</time>
      </trkpt>
      <trkpt lat="49.88696" lon="2.33932">
        <ele>24.8</ele>
        <time>2023-03-25T14:18:00Z</time>
      </trkpt>
      <trkpt lat="49.88696" lon="2.33931">
        <ele>24.8</ele>
        <time>2023-03-25T14:18:01Z</time>
      </trkpt>
      <trkpt lat="49.88695" lon="2.3393">
        <ele>24.8</ele>
        <time>2023-03-25T14:18:02Z</time>
      </trkpt>
      <trkpt lat="49.88695" lon="2.33927">
        <ele>24.9</ele>
        <time>2023-03-25T14:18:03Z</time>
      </trkpt>
      <trkpt lat="49.88695" lon="2.33926">
        <ele>24.9</ele>
        <time>2023-03-25T14:18:04Z</time>
      </trkpt>
      <trkpt lat="49.88695" lon="2.33926">
        <ele>24.9</ele>
        <time>2023-03-25T14:18:05Z</time>
      </trkpt>
      <trkpt lat="49.88696" lon="2.33924">
        <ele>24.9</ele>
        <time>2023-03-25T14:18:07Z</time>
      </trkpt>
      <trkpt lat="49.88696" lon="2.33923">
        <ele>24.9</ele>
        <time>2023-03-25T14:18:08Z</time>
      </trkpt>
      <trkpt lat="49.88696" lon="2.33923">
        <ele>24.9</ele>
        <time>2023-03-25T14:18:09Z</time>
      </trkpt>
      <trkpt lat="49.88697" lon="2.33922">
        <ele>24.9</ele>
        <time>2023-03-25T14:18:10Z</time>
      </trkpt>
      <trkpt lat="49.88697" lon="2.3392">
        <ele>24.9</ele>
        <time>2023-03-25T14:18:11Z</time>
      </trkpt>
      <trkpt lat="49.88698" lon="2.3392">
        <ele>24.9</ele>
        <time>2023-03-25T14:18:12Z</time>
      </trkpt>
      <trkpt lat="49.88699" lon="2.3392">
        <ele>24.9</ele>
        <time>2023-03-25T14:18:13Z</time>
      </trkpt>
      <trkpt lat="49.88701" lon="2.3392">
        <ele>24.9</ele>
        <time>2023-03-25T14:18:15Z</time>
      </trkpt>
      <trkpt lat="49.88702" lon="2.33919">
        <ele>24.9</ele>
        <time>2023-03-25T14:18:16Z</time>
      </trkpt>
      <trkpt lat="49.88704" lon="2.33921">
        <ele>24.9</ele>
        <time>2023-03-25T14:18:18Z</time>
      </trkpt>
      <trkpt lat="49.88705" lon="2.33922">
        <ele>24.9</ele>
        <time>2023-03-25T14:18:19Z</time>
      </trkpt>
      <trkpt lat="49.88706" lon="2.33923">
        <ele>24.9</ele>
        <time>2023-03-25T14:18:20Z</time>
      </trkpt>
      <trkpt lat="49.88707" lon="2.33923">
        <ele>24.9</ele>
        <time>2023-03-25T14:18:22Z</time>
      </trkpt>
      <trkpt lat="49.88708" lon="2.33922">
        <ele>24.9</ele>
        <time>2023-03-25T14:18:23Z</time>
      </trkpt>
      <trkpt lat="49.88708" lon="2.33921">
        <ele>24.9</ele>
        <time>2023-03-25T14:18:24Z</time>
      </trkpt>
      <trkpt lat="49.88709" lon="2.33921">
        <ele>25</ele>
        <time>2023-03-25T14:18:25Z</time>
      </trkpt>
      <trkpt lat="49.88709" lon="2.3392">
        <ele>25</ele>
        <time>2023-03-25T14:18:26Z</time>
      </trkpt>
      <trkpt lat="49.88709" lon="2.33919">
        <ele>25</ele>
        <time>2023-03-25T14:18:28Z</time>
      </trkpt>
      <trkpt lat="49.8871" lon="2.33919">
        <ele>25</ele>
        <time>2023-03-25T14:18:29Z</time>
      </trkpt>
      <trkpt lat="49.8871" lon="2.33917">
        <ele>25</ele>
        <time>2023-03-25T14:18:30Z</time>
      </trkpt>
      <trkpt lat="49.88711" lon="2.33916">
        <ele>25</ele>
        <time>2023-03-25T14:18:32Z</time>
      </trkpt>
      <trkpt lat="49.88711" lon="2.33919">
        <ele>25</ele>
        <time>2023-03-25T14:18:33Z</time>
      </trkpt>
      <trkpt lat="49.88711" lon="2.3392">
        <ele>25</ele>
        <time>2023-03-25T14:18:34Z</time>
      </trkpt>
      <trkpt lat="49.88711" lon="2.33921">
        <ele>25</ele>
        <time>2023-03-25T14:18:36Z</time>
      </trkpt>
      <trkpt lat="49.88711" lon="2.33921">
        <ele>25</ele>
        <time>2023-03-25T14:18:37Z</time>
      </trkpt>
      <trkpt lat="49.8871" lon="2.33922">
        <ele>25</ele>
        <time>2023-03-25T14:18:38Z</time>
      </trkpt>
      <trkpt lat="49.8871" lon="2.33922">
        <ele>25</ele>
        <time>2023-03-25T14:18:40Z</time>
      </trkpt>
      <trkpt lat="49.8871" lon="2.33923">
        <ele>25</ele>
        <time>2023-03-25T14:18:41Z</time>
      </trkpt>
      <trkpt lat="49.8871" lon="2.33922">
        <ele>25</ele>
        <time>2023-03-25T14:18:42Z</time>
      </trkpt>
      <trkpt lat="49.88709" lon="2.33922">
        <ele>25</ele>
        <time>2023-03-25T14:18:43Z</time>
      </trkpt>
      <trkpt lat="49.88709" lon="2.33921">
        <ele>25</ele>
        <time>2023-03-25T14:18:44Z</time>
      </trkpt>
      <trkpt lat="49.88709" lon="2.33921">
        <ele>25</ele>
        <time>2023-03-25T14:18:45Z</time>
      </trkpt>
      <trkpt lat="49.88709" lon="2.3392">
        <ele>25</ele>
        <time>2023-03-25T14:18:47Z</time>
      </trkpt>
      <trkpt lat="49.88709" lon="2.3392">
        <ele>25</ele>
        <time>2023-03-25T14:18:48Z</time>
      </trkpt>
      <trkpt lat="49.88709" lon="2.33919">
        <ele>25</ele>
        <time>2023-03-25T14:18:50Z</time>
      </trkpt>
      <trkpt lat="49.88709" lon="2.33919">
        <ele>25</ele>
        <time>2023-03-25T14:18:51Z</time>
      </trkpt>
      <trkpt lat="49.8871" lon="2.33917">
        <ele>25</ele>
        <time>2023-03-25T14:18:52Z</time>
      </trkpt>
      <trkpt lat="49.8871" lon="2.33914">
        <ele>25</ele>
        <time>2023-03-25T14:18:53Z</time>
      </trkpt>
      <trkpt lat="49.8871" lon="2.33913">
        <ele>25</ele>
        <time>2023-03-25T14:18:54Z</time>
      </trkpt>
      <trkpt lat="49.88711" lon="2.33912">
        <ele>25</ele>
        <time>2023-03-25T14:18:55Z</time>
      </trkpt>
      <trkpt lat="49.88711" lon="2.33909">
        <ele>25</ele>
        <time>2023-03-25T14:18:57Z</time>
      </trkpt>
      <trkpt lat="49.88711" lon="2.33907">
        <ele>25</ele>
        <time>2023-03-25T14:18:58Z</time>
      </trkpt>
      <trkpt lat="49.88711" lon="2.33905">
        <ele>25</ele>
        <time>2023-03-25T14:18:59Z</time>
      </trkpt>
      <trkpt lat="49.88711" lon="2.33904">
        <ele>25</ele>
        <time>2023-03-25T14:19:00Z</time>
      </trkpt>
      <trkpt lat="49.88711" lon="2.33902">
        <ele>25</ele>
        <time>2023-03-25T14:19:01Z</time>
      </trkpt>
      <trkpt lat="49.88712" lon="2.33901">
        <ele>25</ele>
        <time>2023-03-25T14:19:02Z</time>
      </trkpt>
      <trkpt lat="49.88711" lon="2.33898">
        <ele>25</ele>
        <time>2023-03-25T14:19:03Z</time>
      </trkpt>
      <trkpt lat="49.88711" lon="2.33897">
        <ele>25</ele>
        <time>2023-03-25T14:19:04Z</time>
      </trkpt>
      <trkpt lat="49.88712" lon="2.33893">
        <ele>25</ele>
        <time>2023-03-25T14:19:06Z</time>
      </trkpt>
      <trkpt lat="49.88712" lon="2.33891">
        <ele>25</ele>
        <time>2023-03-25T14:19:07Z</time>
      </trkpt>
      <trkpt lat="49.88712" lon="2.33889">
        <ele>25</ele>
        <time>2023-03-25T14:19:08Z</time>
      </trkpt>
      <trkpt lat="49.88713" lon="2.33888">
        <ele>25</ele>
        <time>2023-03-25T14:19:09Z</time>
      </trkpt>
      <trkpt lat="49.88713" lon="2.33887">
        <ele>25</ele>
        <time>2023-03-25T14:19:10Z</time>
      </trkpt>
      <trkpt lat="49.88713" lon="2.33885">
        <ele>25</ele>
        <time>2023-03-25T14:19:11Z</time>
      </trkpt>
      <trkpt lat="49.88714" lon="2.33883">
        <ele>25</ele>
        <time>2023-03-25T14:19:12Z</time>
      </trkpt>
      <trkpt lat="49.88714" lon="2.3388">
        <ele>25</ele>
        <time>2023-03-25T14:19:13Z</time>
      </trkpt>
      <trkpt lat="49.88714" lon="2.33879">
        <ele>25</ele>
        <time>2023-03-25T14:19:14Z</time>
      </trkpt>
      <trkpt lat="49.88715" lon="2.33877">
        <ele>25</ele>
        <time>2023-03-25T14:19:15Z</time>
      </trkpt>
      <trkpt lat="49.88715" lon="2.33876">
        <ele>25</ele>
        <time>2023-03-25T14:19:17Z</time>
      </trkpt>
      <trkpt lat="49.88717" lon="2.33872">
        <ele>25</ele>
        <time>2023-03-25T14:19:18Z</time>
      </trkpt>
      <trkpt lat="49.88718" lon="2.33871">
        <ele>25</ele>
        <time>2023-03-25T14:19:19Z</time>
      </trkpt>
      <trkpt lat="49.88718" lon="2.3387">
        <ele>25</ele>
        <time>2023-03-25T14:19:20Z</time>
      </trkpt>
      <trkpt lat="49.88719" lon="2.33868">
        <ele>25</ele>
        <time>2023-03-25T14:19:21Z</time>
      </trkpt>
      <trkpt lat="49.88719" lon="2.33867">
        <ele>25</ele>
        <time>2023-03-25T14:19:22Z</time>
      </trkpt>
      <trkpt lat="49.88721" lon="2.33865">
        <ele>24.9</ele>
        <time>2023-03-25T14:19:23Z</time>
      </trkpt>
      <trkpt lat="49.88721" lon="2.33864">
        <ele>24.9</ele>
        <time>2023-03-25T14:19:24Z</time>
      </trkpt>
      <trkpt lat="49.88721" lon="2.33862">
        <ele>24.9</ele>
        <time>2023-03-25T14:19:25Z</time>
      </trkpt>
      <trkpt lat="49.88721" lon="2.33861">
        <ele>24.9</ele>
        <time>2023-03-25T14:19:27Z</time>
      </trkpt>
      <trkpt lat="49.88722" lon="2.33859">
        <ele>24.9</ele>
        <time>2023-03-25T14:19:28Z</time>
      </trkpt>
      <trkpt lat="49.88724" lon="2.33857">
        <ele>24.9</ele>
        <time>2023-03-25T14:19:29Z</time>
      </trkpt>
      <trkpt lat="49.88724" lon="2.33856">
        <ele>24.9</ele>
        <time>2023-03-25T14:19:30Z</time>
      </trkpt>
      <trkpt lat="49.88725" lon="2.33855">
        <ele>24.9</ele>
        <time>2023-03-25T14:19:31Z</time>
      </trkpt>
      <trkpt lat="49.88725" lon="2.33853">
        <ele>24.9</ele>
        <time>2023-03-25T14:19:32Z</time>
      </trkpt>
      <trkpt lat="49.88727" lon="2.33848">
        <ele>24.8</ele>
        <time>2023-03-25T14:19:33Z</time>
      </trkpt>
      <trkpt lat="49.88727" lon="2.33847">
        <ele>24.8</ele>
        <time>2023-03-25T14:19:35Z</time>
      </trkpt>
      <trkpt lat="49.88727" lon="2.33845">
        <ele>24.8</ele>
        <time>2023-03-25T14:19:36Z</time>
      </trkpt>
      <trkpt lat="49.88728" lon="2.33843">
        <ele>24.8</ele>
        <time>2023-03-25T14:19:37Z</time>
      </trkpt>
      <trkpt lat="49.8873" lon="2.33837">
        <ele>24.8</ele>
        <time>2023-03-25T14:19:38Z</time>
      </trkpt>
      <trkpt lat="49.8873" lon="2.33836">
        <ele>24.8</ele>
        <time>2023-03-25T14:19:39Z</time>
      </trkpt>
      <trkpt lat="49.8873" lon="2.33835">
        <ele>24.8</ele>
        <time>2023-03-25T14:19:40Z</time>
      </trkpt>
      <trkpt lat="49.88731" lon="2.33833">
        <ele>24.8</ele>
        <time>2023-03-25T14:19:42Z</time>
      </trkpt>
      <trkpt lat="49.88731" lon="2.33831">
        <ele>24.7</ele>
        <time>2023-03-25T14:19:43Z</time>
      </trkpt>
      <trkpt lat="49.88733" lon="2.33828">
        <ele>24.7</ele>
        <time>2023-03-25T14:19:44Z</time>
      </trkpt>
      <trkpt lat="49.88734" lon="2.33826">
        <ele>24.7</ele>
        <time>2023-03-25T14:19:45Z</time>
      </trkpt>
      <trkpt lat="49.88734" lon="2.33824">
        <ele>24.7</ele>
        <time>2023-03-25T14:19:46Z</time>
      </trkpt>
      <trkpt lat="49.88735" lon="2.33823">
        <ele>24.7</ele>
        <time>2023-03-25T14:19:47Z</time>
      </trkpt>
      <trkpt lat="49.88735" lon="2.33821">
        <ele>24.7</ele>
        <time>2023-03-25T14:19:48Z</time>
      </trkpt>
      <trkpt lat="49.88736" lon="2.3382">
        <ele>24.7</ele>
        <time>2023-03-25T14:19:49Z</time>
      </trkpt>
      <trkpt lat="49.88736" lon="2.33819">
        <ele>24.7</ele>
        <time>2023-03-25T14:19:50Z</time>
      </trkpt>
      <trkpt lat="49.88736" lon="2.33818">
        <ele>24.7</ele>
        <time>2023-03-25T14:19:51Z</time>
      </trkpt>
      <trkpt lat="49.88736" lon="2.33816">
        <ele>24.7</ele>
        <time>2023-03-25T14:19:53Z</time>
      </trkpt>
      <trkpt lat="49.88737" lon="2.33815">
        <ele>24.7</ele>
        <time>2023-03-25T14:19:54Z</time>
      </trkpt>
      <trkpt lat="49.88738" lon="2.33814">
        <ele>24.7</ele>
        <time>2023-03-25T14:19:55Z</time>
      </trkpt>
      <trkpt lat="49.88738" lon="2.33812">
        <ele>24.7</ele>
        <time>2023-03-25T14:19:56Z</time>
      </trkpt>
      <trkpt lat="49.88739" lon="2.33809">
        <ele>24.7</ele>
        <time>2023-03-25T14:19:57Z</time>
      </trkpt>
      <trkpt lat="49.8874" lon="2.33807">
        <ele>24.7</ele>
        <time>2023-03-25T14:19:58Z</time>
      </trkpt>
      <trkpt lat="49.8874" lon="2.33807">
        <ele>24.7</ele>
        <time>2023-03-25T14:19:59Z</time>
      </trkpt>
      <trkpt lat="49.88741" lon="2.33805">
        <ele>24.7</ele>
        <time>2023-03-25T14:20:01Z</time>
      </trkpt>
      <trkpt lat="49.88741" lon="2.33803">
        <ele>24.7</ele>
        <time>2023-03-25T14:20:02Z</time>
      </trkpt>
      <trkpt lat="49.88741" lon="2.33802">
        <ele>24.7</ele>
        <time>2023-03-25T14:20:03Z</time>
      </trkpt>
      <trkpt lat="49.88742" lon="2.338">
        <ele>24.7</ele>
        <time>2023-03-25T14:20:04Z</time>
      </trkpt>
      <trkpt lat="49.88742" lon="2.33799">
        <ele>24.7</ele>
        <time>2023-03-25T14:20:05Z</time>
      </trkpt>
      <trkpt lat="49.88742" lon="2.33797">
        <ele>24.7</ele>
        <time>2023-03-25T14:20:07Z</time>
      </trkpt>
      <trkpt lat="49.88742" lon="2.33796">
        <ele>24.7</ele>
        <time>2023-03-25T14:20:08Z</time>
      </trkpt>
      <trkpt lat="49.88742" lon="2.33796">
        <ele>24.7</ele>
        <time>2023-03-25T14:20:09Z</time>
      </trkpt>
      <trkpt lat="49.88741" lon="2.33797">
        <ele>24.7</ele>
        <time>2023-03-25T14:20:10Z</time>
      </trkpt>
      <trkpt lat="49.88741" lon="2.33797">
        <ele>24.7</ele>
        <time>2023-03-25T14:20:11Z</time>
      </trkpt>
      <trkpt lat="49.88742" lon="2.33797">
        <ele>24.7</ele>
        <time>2023-03-25T14:20:12Z</time>
      </trkpt>
      <trkpt lat="49.88742" lon="2.33796">
        <ele>24.7</ele>
        <time>2023-03-25T14:20:14Z</time>
      </trkpt>
      <trkpt lat="49.88743" lon="2.33794">
        <ele>24.7</ele>
        <time>2023-03-25T14:20:15Z</time>
      </trkpt>
      <trkpt lat="49.88743" lon="2.33792">
        <ele>24.7</ele>
        <time>2023-03-25T14:20:16Z</time>
      </trkpt>
      <trkpt lat="49.88744" lon="2.33791">
        <ele>24.7</ele>
        <time>2023-03-25T14:20:17Z</time>
      </trkpt>
      <trkpt lat="49.88745" lon="2.33789">
        <ele>24.7</ele>
        <time>2023-03-25T14:20:18Z</time>
      </trkpt>
      <trkpt lat="49.88745" lon="2.33788">
        <ele>24.7</ele>
        <time>2023-03-25T14:20:19Z</time>
      </trkpt>
      <trkpt lat="49.88745" lon="2.33787">
        <ele>24.8</ele>
        <time>2023-03-25T14:20:21Z</time>
      </trkpt>
      <trkpt lat="49.88746" lon="2.33785">
        <ele>24.8</ele>
        <time>2023-03-25T14:20:22Z</time>
      </trkpt>
      <trkpt lat="49.88746" lon="2.33784">
        <ele>24.8</ele>
        <time>2023-03-25T14:20:23Z</time>
      </trkpt>
      <trkpt lat="49.88748" lon="2.33783">
        <ele>24.8</ele>
        <time>2023-03-25T14:20:24Z</time>
      </trkpt>
      <trkpt lat="49.88748" lon="2.33782">
        <ele>24.8</ele>
        <time>2023-03-25T14:20:25Z</time>
      </trkpt>
      <trkpt lat="49.88749" lon="2.33781">
        <ele>24.8</ele>
        <time>2023-03-25T14:20:27Z</time>
      </trkpt>
      <trkpt lat="49.88749" lon="2.33779">
        <ele>24.8</ele>
        <time>2023-03-25T14:20:28Z</time>
      </trkpt>
      <trkpt lat="49.88749" lon="2.33778">
        <ele>24.8</ele>
        <time>2023-03-25T14:20:29Z</time>
      </trkpt>
      <trkpt lat="49.8875" lon="2.33777">
        <ele>24.8</ele>
        <time>2023-03-25T14:20:30Z</time>
      </trkpt>
      <trkpt lat="49.8875" lon="2.33775">
        <ele>24.8</ele>
        <time>2023-03-25T14:20:31Z</time>
      </trkpt>
      <trkpt lat="49.8875" lon="2.33774">
        <ele>24.8</ele>
        <time>2023-03-25T14:20:32Z</time>
      </trkpt>
      <trkpt lat="49.8875" lon="2.33771">
        <ele>24.8</ele>
        <time>2023-03-25T14:20:34Z</time>
      </trkpt>
      <trkpt lat="49.8875" lon="2.3377">
        <ele>24.8</ele>
        <time>2023-03-25T14:20:35Z</time>
      </trkpt>
      <trkpt lat="49.8875" lon="2.33768">
        <ele>24.9</ele>
        <time>2023-03-25T14:20:36Z</time>
      </trkpt>
      <trkpt lat="49.8875" lon="2.33766">
        <ele>24.9</ele>
        <time>2023-03-25T14:20:37Z</time>
      </trkpt>
      <trkpt lat="49.88751" lon="2.33762">
        <ele>24.9</ele>
        <time>2023-03-25T14:20:38Z</time>
      </trkpt>
      <trkpt lat="49.88752" lon="2.3376">
        <ele>24.9</ele>
        <time>2023-03-25T14:20:39Z</time>
      </trkpt>
      <trkpt lat="49.88752" lon="2.33759">
        <ele>24.9</ele>
        <time>2023-03-25T14:20:40Z</time>
      </trkpt>
      <trkpt lat="49.88752" lon="2.33757">
        <ele>24.9</ele>
        <time>2023-03-25T14:20:42Z</time>
      </trkpt>
      <trkpt lat="49.88752" lon="2.33756">
        <ele>24.9</ele>
        <time>2023-03-25T14:20:43Z</time>
      </trkpt>
      <trkpt lat="49.88754" lon="2.33754">
        <ele>25</ele>
        <time>2023-03-25T14:20:44Z</time>
      </trkpt>
      <trkpt lat="49.88754" lon="2.33753">
        <ele>25</ele>
        <time>2023-03-25T14:20:45Z</time>
      </trkpt>
      <trkpt lat="49.88754" lon="2.33751">
        <ele>25</ele>
        <time>2023-03-25T14:20:46Z</time>
      </trkpt>
      <trkpt lat="49.88753" lon="2.3375">
        <ele>25</ele>
        <time>2023-03-25T14:20:47Z</time>
      </trkpt>
      <trkpt lat="49.88753" lon="2.33748">
        <ele>25</ele>
        <time>2023-03-25T14:20:49Z</time>
      </trkpt>
      <trkpt lat="49.88754" lon="2.33747">
        <ele>25</ele>
        <time>2023-03-25T14:20:50Z</time>
      </trkpt>
      <trkpt lat="49.88754" lon="2.33745">
        <ele>25</ele>
        <time>2023-03-25T14:20:51Z</time>
      </trkpt>
      <trkpt lat="49.88754" lon="2.33744">
        <ele>25</ele>
        <time>2023-03-25T14:20:52Z</time>
      </trkpt>
      <trkpt lat="49.88754" lon="2.33741">
        <ele>25.1</ele>
        <time>2023-03-25T14:20:53Z</time>
      </trkpt>
      <trkpt lat="49.88754" lon="2.3374">
        <ele>25.1</ele>
        <time>2023-03-25T14:20:55Z</time>
      </trkpt>
      <trkpt lat="49.88754" lon="2.33739">
        <ele>25.1</ele>
        <time>2023-03-25T14:20:56Z</time>
      </trkpt>
      <trkpt lat="49.88755" lon="2.33738">
        <ele>25.1</ele>
        <time>2023-03-25T14:20:57Z</time>
      </trkpt>
      <trkpt lat="49.88755" lon="2.33736">
        <ele>25.1</ele>
        <time>2023-03-25T14:20:58Z</time>
      </trkpt>
      <trkpt lat="49.88755" lon="2.33736">
        <ele>25.1</ele>
        <time>2023-03-25T14:21:00Z</time>
      </trkpt>
      <trkpt lat="49.88755" lon="2.33735">
        <ele>25.2</ele>
        <time>2023-03-25T14:21:01Z</time>
      </trkpt>
      <trkpt lat="49.88755" lon="2.33733">
        <ele>25.2</ele>
        <time>2023-03-25T14:21:02Z</time>
      </trkpt>
      <trkpt lat="49.88755" lon="2.33732">
        <ele>25.2</ele>
        <time>2023-03-25T14:21:03Z</time>
      </trkpt>
      <trkpt lat="49.88755" lon="2.3373">
        <ele>25.2</ele>
        <time>2023-03-25T14:21:04Z</time>
      </trkpt>
      <trkpt lat="49.88755" lon="2.33729">
        <ele>25.2</ele>
        <time>2023-03-25T14:21:05Z</time>
      </trkpt>
      <trkpt lat="49.88755" lon="2.33728">
        <ele>25.2</ele>
        <time>2023-03-25T14:21:06Z</time>
      </trkpt>
      <trkpt lat="49.88756" lon="2.33725">
        <ele>25.3</ele>
        <time>2023-03-25T14:21:08Z</time>
      </trkpt>
      <trkpt lat="49.88756" lon="2.33723">
        <ele>25.3</ele>
        <time>2023-03-25T14:21:09Z</time>
      </trkpt>
      <trkpt lat="49.88756" lon="2.33723">
        <ele>25.3</ele>
        <time>2023-03-25T14:21:10Z</time>
      </trkpt>
      <trkpt lat="49.88756" lon="2.33722">
        <ele>25.3</ele>
        <time>2023-03-25T14:21:12Z</time>
      </trkpt>
      <trkpt lat="49.88755" lon="2.3372">
        <ele>25.4</ele>
        <time>2023-03-25T14:21:13Z</time>
      </trkpt>
      <trkpt lat="49.88755" lon="2.33719">
        <ele>25.4</ele>
        <time>2023-03-25T14:21:15Z</time>
      </trkpt>
      <trkpt lat="49.88755" lon="2.33717">
        <ele>25.4</ele>
        <time>2023-03-25T14:21:16Z</time>
      </trkpt>
      <trkpt lat="49.88755" lon="2.33716">
        <ele>25.4</ele>
        <time>2023-03-25T14:21:17Z</time>
      </trkpt>
      <trkpt lat="49.88755" lon="2.33715">
        <ele>25.4</ele>
        <time>2023-03-25T14:21:18Z</time>
      </trkpt>
      <trkpt lat="49.88756" lon="2.33715">
        <ele>25.5</ele>
        <time>2023-03-25T14:21:19Z</time>
      </trkpt>
      <trkpt lat="49.88757" lon="2.33715">
        <ele>25.5</ele>
        <time>2023-03-25T14:21:20Z</time>
      </trkpt>
      <trkpt lat="49.88758" lon="2.33715">
        <ele>25.5</ele>
        <time>2023-03-25T14:21:21Z</time>
      </trkpt>
      <trkpt lat="49.88759" lon="2.33714">
        <ele>25.5</ele>
        <time>2023-03-25T14:21:22Z</time>
      </trkpt>
      <trkpt lat="49.8876" lon="2.33714">
        <ele>25.6</ele>
        <time>2023-03-25T14:21:23Z</time>
      </trkpt>
      <trkpt lat="49.88761" lon="2.33713">
        <ele>25.6</ele>
        <time>2023-03-25T14:21:25Z</time>
      </trkpt>
      <trkpt lat="49.88762" lon="2.33712">
        <ele>25.6</ele>
        <time>2023-03-25T14:21:26Z</time>
      </trkpt>
      <trkpt lat="49.88762" lon="2.3371">
        <ele>25.7</ele>
        <time>2023-03-25T14:21:27Z</time>
      </trkpt>
      <trkpt lat="49.88762" lon="2.33709">
        <ele>25.7</ele>
        <time>2023-03-25T14:21:28Z</time>
      </trkpt>
      <trkpt lat="49.88761" lon="2.33707">
        <ele>25.8</ele>
        <time>2023-03-25T14:21:29Z</time>
      </trkpt>
      <trkpt lat="49.88761" lon="2.33706">
        <ele>25.8</ele>
        <time>2023-03-25T14:21:30Z</time>
      </trkpt>
      <trkpt lat="49.88762" lon="2.33706">
        <ele>25.8</ele>
        <time>2023-03-25T14:21:31Z</time>
      </trkpt>
      <trkpt lat="49.88762" lon="2.33705">
        <ele>25.8</ele>
        <time>2023-03-25T14:21:33Z</time>
      </trkpt>
      <trkpt lat="49.88762" lon="2.33702">
        <ele>25.9</ele>
        <time>2023-03-25T14:21:34Z</time>
      </trkpt>
      <trkpt lat="49.88762" lon="2.33702">
        <ele>25.9</ele>
        <time>2023-03-25T14:21:35Z</time>
      </trkpt>
      <trkpt lat="49.88761" lon="2.33701">
        <ele>25.9</ele>
        <time>2023-03-25T14:21:37Z</time>
      </trkpt>
      <trkpt lat="49.88761" lon="2.337">
        <ele>25.9</ele>
        <time>2023-03-25T14:21:38Z</time>
      </trkpt>
      <trkpt lat="49.88761" lon="2.33699">
        <ele>25.9</ele>
        <time>2023-03-25T14:21:39Z</time>
      </trkpt>
      <trkpt lat="49.88761" lon="2.33698">
        <ele>26</ele>
        <time>2023-03-25T14:21:41Z</time>
      </trkpt>
      <trkpt lat="49.88761" lon="2.33696">
        <ele>26</ele>
        <time>2023-03-25T14:21:42Z</time>
      </trkpt>
      <trkpt lat="49.88761" lon="2.33695">
        <ele>26</ele>
        <time>2023-03-25T14:21:43Z</time>
      </trkpt>
      <trkpt lat="49.88761" lon="2.33694">
        <ele>26.1</ele>
        <time>2023-03-25T14:21:44Z</time>
      </trkpt>
      <trkpt lat="49.88761" lon="2.33693">
        <ele>26.1</ele>
        <time>2023-03-25T14:21:45Z</time>
      </trkpt>
      <trkpt lat="49.88761" lon="2.33692">
        <ele>26.1</ele>
        <time>2023-03-25T14:21:47Z</time>
      </trkpt>
      <trkpt lat="49.88761" lon="2.33691">
        <ele>26.2</ele>
        <time>2023-03-25T14:21:48Z</time>
      </trkpt>
      <trkpt lat="49.88761" lon="2.33689">
        <ele>26.2</ele>
        <time>2023-03-25T14:21:49Z</time>
      </trkpt>
      <trkpt lat="49.88761" lon="2.33688">
        <ele>26.2</ele>
        <time>2023-03-25T14:21:50Z</time>
      </trkpt>
      <trkpt lat="49.88761" lon="2.33686">
        <ele>26.3</ele>
        <time>2023-03-25T14:21:51Z</time>
      </trkpt>
      <trkpt lat="49.88762" lon="2.33685">
        <ele>26.3</ele>
        <time>2023-03-25T14:21:52Z</time>
      </trkpt>
      <trkpt lat="49.88762" lon="2.33683">
        <ele>26.4</ele>
        <time>2023-03-25T14:21:54Z</time>
      </trkpt>
      <trkpt lat="49.88762" lon="2.33681">
        <ele>26.4</ele>
        <time>2023-03-25T14:21:55Z</time>
      </trkpt>
      <trkpt lat="49.88762" lon="2.33679">
        <ele>26.5</ele>
        <time>2023-03-25T14:21:56Z</time>
      </trkpt>
      <trkpt lat="49.88762" lon="2.33678">
        <ele>26.5</ele>
        <time>2023-03-25T14:21:57Z</time>
      </trkpt>
      <trkpt lat="49.88762" lon="2.33678">
        <ele>26.5</ele>
        <time>2023-03-25T14:21:59Z</time>
      </trkpt>
      <trkpt lat="49.88762" lon="2.33674">
        <ele>26.6</ele>
        <time>2023-03-25T14:22:00Z</time>
      </trkpt>
      <trkpt lat="49.88762" lon="2.33672">
        <ele>26.6</ele>
        <time>2023-03-25T14:22:01Z</time>
      </trkpt>
      <trkpt lat="49.88763" lon="2.33671">
        <ele>26.7</ele>
        <time>2023-03-25T14:22:02Z</time>
      </trkpt>
      <trkpt lat="49.88763" lon="2.3367">
        <ele>26.7</ele>
        <time>2023-03-25T14:22:03Z</time>
      </trkpt>
      <trkpt lat="49.88763" lon="2.33668">
        <ele>26.8</ele>
        <time>2023-03-25T14:22:05Z</time>
      </trkpt>
      <trkpt lat="49.88763" lon="2.33665">
        <ele>26.8</ele>
        <time>2023-03-25T14:22:06Z</time>
      </trkpt>
      <trkpt lat="49.88763" lon="2.33664">
        <ele>26.9</ele>
        <time>2023-03-25T14:22:07Z</time>
      </trkpt>
      <trkpt lat="49.88762" lon="2.33663">
        <ele>26.9</ele>
        <time>2023-03-25T14:22:08Z</time>
      </trkpt>
      <trkpt lat="49.88762" lon="2.33661">
        <ele>26.9</ele>
        <time>2023-03-25T14:22:09Z</time>
      </trkpt>
      <trkpt lat="49.88762" lon="2.33659">
        <ele>27</ele>
        <time>2023-03-25T14:22:10Z</time>
      </trkpt>
      <trkpt lat="49.88762" lon="2.33656">
        <ele>27</ele>
        <time>2023-03-25T14:22:12Z</time>
      </trkpt>
      <trkpt lat="49.88762" lon="2.33655">
        <ele>27.1</ele>
        <time>2023-03-25T14:22:13Z</time>
      </trkpt>
      <trkpt lat="49.88762" lon="2.33654">
        <ele>27.1</ele>
        <time>2023-03-25T14:22:14Z</time>
      </trkpt>
      <trkpt lat="49.88762" lon="2.33651">
        <ele>27.1</ele>
        <time>2023-03-25T14:22:15Z</time>
      </trkpt>
      <trkpt lat="49.88762" lon="2.33649">
        <ele>27.2</ele>
        <time>2023-03-25T14:22:16Z</time>
      </trkpt>
      <trkpt lat="49.88762" lon="2.33648">
        <ele>27.2</ele>
        <time>2023-03-25T14:22:17Z</time>
      </trkpt>
      <trkpt lat="49.88762" lon="2.33646">
        <ele>27.2</ele>
        <time>2023-03-25T14:22:18Z</time>
      </trkpt>
      <trkpt lat="49.88762" lon="2.33643">
        <ele>27.3</ele>
        <time>2023-03-25T14:22:20Z</time>
      </trkpt>
      <trkpt lat="49.88761" lon="2.33642">
        <ele>27.3</ele>
        <time>2023-03-25T14:22:21Z</time>
      </trkpt>
      <trkpt lat="49.8876" lon="2.33638">
        <ele>27.4</ele>
        <time>2023-03-25T14:22:22Z</time>
      </trkpt>
      <trkpt lat="49.88759" lon="2.33637">
        <ele>27.4</ele>
        <time>2023-03-25T14:22:23Z</time>
      </trkpt>
      <trkpt lat="49.88758" lon="2.33635">
        <ele>27.5</ele>
        <time>2023-03-25T14:22:24Z</time>
      </trkpt>
      <trkpt lat="49.88758" lon="2.33634">
        <ele>27.5</ele>
        <time>2023-03-25T14:22:25Z</time>
      </trkpt>
      <trkpt lat="49.88757" lon="2.33632">
        <ele>27.5</ele>
        <time>2023-03-25T14:22:27Z</time>
      </trkpt>
      <trkpt lat="49.88757" lon="2.33631">
        <ele>27.4</ele>
        <time>2023-03-25T14:22:28Z</time>
      </trkpt>
      <trkpt lat="49.88756" lon="2.33628">
        <ele>27.3</ele>
        <time>2023-03-25T14:22:29Z</time>
      </trkpt>
      <trkpt lat="49.88756" lon="2.33627">
        <ele>27.3</ele>
        <time>2023-03-25T14:22:30Z</time>
      </trkpt>
      <trkpt lat="49.88755" lon="2.33625">
        <ele>27.3</ele>
        <time>2023-03-25T14:22:32Z</time>
      </trkpt>
      <trkpt lat="49.88755" lon="2.33624">
        <ele>27.2</ele>
        <time>2023-03-25T14:22:33Z</time>
      </trkpt>
      <trkpt lat="49.88754" lon="2.33622">
        <ele>27.2</ele>
        <time>2023-03-25T14:22:34Z</time>
      </trkpt>
      <trkpt lat="49.88754" lon="2.33621">
        <ele>27.2</ele>
        <time>2023-03-25T14:22:35Z</time>
      </trkpt>
      <trkpt lat="49.88754" lon="2.3362">
        <ele>27.1</ele>
        <time>2023-03-25T14:22:36Z</time>
      </trkpt>
      <trkpt lat="49.88753" lon="2.33619">
        <ele>27.1</ele>
        <time>2023-03-25T14:22:38Z</time>
      </trkpt>
      <trkpt lat="49.88753" lon="2.33617">
        <ele>27</ele>
        <time>2023-03-25T14:22:39Z</time>
      </trkpt>
      <trkpt lat="49.88752" lon="2.33615">
        <ele>26.9</ele>
        <time>2023-03-25T14:22:40Z</time>
      </trkpt>
      <trkpt lat="49.88752" lon="2.33614">
        <ele>26.9</ele>
        <time>2023-03-25T14:22:41Z</time>
      </trkpt>
      <trkpt lat="49.88751" lon="2.33613">
        <ele>26.9</ele>
        <time>2023-03-25T14:22:42Z</time>
      </trkpt>
      <trkpt lat="49.88751" lon="2.33612">
        <ele>26.8</ele>
        <time>2023-03-25T14:22:43Z</time>
      </trkpt>
      <trkpt lat="49.88752" lon="2.3361">
        <ele>26.7</ele>
        <time>2023-03-25T14:22:44Z</time>
      </trkpt>
      <trkpt lat="49.88752" lon="2.3361">
        <ele>26.7</ele>
        <time>2023-03-25T14:22:45Z</time>
      </trkpt>
      <trkpt lat="49.88752" lon="2.33608">
        <ele>26.7</ele>
        <time>2023-03-25T14:22:47Z</time>
      </trkpt>
      <trkpt lat="49.88752" lon="2.33607">
        <ele>26.6</ele>
        <time>2023-03-25T14:22:48Z</time>
      </trkpt>
      <trkpt lat="49.88751" lon="2.33606">
        <ele>26.6</ele>
        <time>2023-03-25T14:22:49Z</time>
      </trkpt>
      <trkpt lat="49.88751" lon="2.33606">
        <ele>26.5</ele>
        <time>2023-03-25T14:22:50Z</time>
      </trkpt>
      <trkpt lat="49.88751" lon="2.33606">
        <ele>26.5</ele>
        <time>2023-03-25T14:22:51Z</time>
      </trkpt>
      <trkpt lat="49.8875" lon="2.33605">
        <ele>26.5</ele>
        <time>2023-03-25T14:22:52Z</time>
      </trkpt>
      <trkpt lat="49.8875" lon="2.33604">
        <ele>26.4</ele>
        <time>2023-03-25T14:22:53Z</time>
      </trkpt>
      <trkpt lat="49.88748" lon="2.33603">
        <ele>26.3</ele>
        <time>2023-03-25T14:22:54Z</time>
      </trkpt>
      <trkpt lat="49.88748" lon="2.33603">
        <ele>26.3</ele>
        <time>2023-03-25T14:22:56Z</time>
      </trkpt>
      <trkpt lat="49.88747" lon="2.33602">
        <ele>26.2</ele>
        <time>2023-03-25T14:22:57Z</time>
      </trkpt>
      <trkpt lat="49.88747" lon="2.33602">
        <ele>26.1</ele>
        <time>2023-03-25T14:22:58Z</time>
      </trkpt>
      <trkpt lat="49.88747" lon="2.33602">
        <ele>26.1</ele>
        <time>2023-03-25T14:22:59Z</time>
      </trkpt>
      <trkpt lat="49.88747" lon="2.33602">
        <ele>26.1</ele>
        <time>2023-03-25T14:23:00Z</time>
      </trkpt>
      <trkpt lat="49.88747" lon="2.33601">
        <ele>26.1</ele>
        <time>2023-03-25T14:23:01Z</time>
      </trkpt>
      <trkpt lat="49.88747" lon="2.33601">
        <ele>26</ele>
        <time>2023-03-25T14:23:02Z</time>
      </trkpt>
      <trkpt lat="49.88746" lon="2.336">
        <ele>26</ele>
        <time>2023-03-25T14:23:04Z</time>
      </trkpt>
      <trkpt lat="49.88747" lon="2.33599">
        <ele>25.8</ele>
        <time>2023-03-25T14:23:05Z</time>
      </trkpt>
      <trkpt lat="49.88746" lon="2.33597">
        <ele>25.8</ele>
        <time>2023-03-25T14:23:06Z</time>
      </trkpt>
      <trkpt lat="49.88745" lon="2.33595">
        <ele>25.8</ele>
        <time>2023-03-25T14:23:07Z</time>
      </trkpt>
      <trkpt lat="49.88745" lon="2.33594">
        <ele>25.8</ele>
        <time>2023-03-25T14:23:08Z</time>
      </trkpt>
      <trkpt lat="49.88744" lon="2.33593">
        <ele>25.8</ele>
        <time>2023-03-25T14:23:09Z</time>
      </trkpt>
      <trkpt lat="49.88745" lon="2.33595">
        <ele>25.8</ele>
        <time>2023-03-25T14:23:10Z</time>
      </trkpt>
      <trkpt lat="49.88745" lon="2.33595">
        <ele>25.8</ele>
        <time>2023-03-25T14:23:12Z</time>
      </trkpt>
      <trkpt lat="49.88744" lon="2.33595">
        <ele>25.7</ele>
        <time>2023-03-25T14:23:13Z</time>
      </trkpt>
      <trkpt lat="49.88743" lon="2.33596">
        <ele>25.7</ele>
        <time>2023-03-25T14:23:14Z</time>
      </trkpt>
      <trkpt lat="49.88743" lon="2.33596">
        <ele>25.7</ele>
        <time>2023-03-25T14:23:16Z</time>
      </trkpt>
      <trkpt lat="49.88743" lon="2.33596">
        <ele>25.7</ele>
        <time>2023-03-25T14:23:17Z</time>
      </trkpt>
      <trkpt lat="49.88743" lon="2.33595">
        <ele>25.7</ele>
        <time>2023-03-25T14:23:18Z</time>
      </trkpt>
      <trkpt lat="49.88743" lon="2.33596">
        <ele>25.7</ele>
        <time>2023-03-25T14:23:19Z</time>
      </trkpt>
      <trkpt lat="49.88742" lon="2.33597">
        <ele>25.7</ele>
        <time>2023-03-25T14:23:20Z</time>
      </trkpt>
      <trkpt lat="49.88741" lon="2.33597">
        <ele>25.7</ele>
        <time>2023-03-25T14:23:21Z</time>
      </trkpt>
      <trkpt lat="49.8874" lon="2.33599">
        <ele>25.7</ele>
        <time>2023-03-25T14:23:23Z</time>
      </trkpt>
      <trkpt lat="49.8874" lon="2.336">
        <ele>25.7</ele>
        <time>2023-03-25T14:23:24Z</time>
      </trkpt>
      <trkpt lat="49.88738" lon="2.33603">
        <ele>25.7</ele>
        <time>2023-03-25T14:23:25Z</time>
      </trkpt>
      <trkpt lat="49.88738" lon="2.33604">
        <ele>25.7</ele>
        <time>2023-03-25T14:23:27Z</time>
      </trkpt>
      <trkpt lat="49.88738" lon="2.33605">
        <ele>25.7</ele>
        <time>2023-03-25T14:23:28Z</time>
      </trkpt>
      <trkpt lat="49.88738" lon="2.33606">
        <ele>25.7</ele>
        <time>2023-03-25T14:23:29Z</time>
      </trkpt>
      <trkpt lat="49.88737" lon="2.33608">
        <ele>25.7</ele>
        <time>2023-03-25T14:23:30Z</time>
      </trkpt>
      <trkpt lat="49.88737" lon="2.33608">
        <ele>25.7</ele>
        <time>2023-03-25T14:23:31Z</time>
      </trkpt>
      <trkpt lat="49.88737" lon="2.3361">
        <ele>25.7</ele>
        <time>2023-03-25T14:23:32Z</time>
      </trkpt>
      <trkpt lat="49.88736" lon="2.33611">
        <ele>25.7</ele>
        <time>2023-03-25T14:23:33Z</time>
      </trkpt>
      <trkpt lat="49.88736" lon="2.33613">
        <ele>25.7</ele>
        <time>2023-03-25T14:23:35Z</time>
      </trkpt>
      <trkpt lat="49.88736" lon="2.33614">
        <ele>25.7</ele>
        <time>2023-03-25T14:23:36Z</time>
      </trkpt>
      <trkpt lat="49.88735" lon="2.33617">
        <ele>25.7</ele>
        <time>2023-03-25T14:23:37Z</time>
      </trkpt>
      <trkpt lat="49.88734" lon="2.33618">
        <ele>25.7</ele>
        <time>2023-03-25T14:23:38Z</time>
      </trkpt>
      <trkpt lat="49.88734" lon="2.33619">
        <ele>25.7</ele>
        <time>2023-03-25T14:23:39Z</time>
      </trkpt>
      <trkpt lat="49.88733" lon="2.33621">
        <ele>25.7</ele>
        <time>2023-03-25T14:23:40Z</time>
      </trkpt>
      <trkpt lat="49.88733" lon="2.33622">
        <ele>25.7</ele>
        <time>2023-03-25T14:23:41Z</time>
      </trkpt>
      <trkpt lat="49.88732" lon="2.33624">
        <ele>25.7</ele>
        <time>2023-03-25T14:23:43Z</time>
      </trkpt>
      <trkpt lat="49.88735" lon="2.33626">
        <ele>25.7</ele>
        <time>2023-03-25T14:23:44Z</time>
      </trkpt>
      <trkpt lat="49.88736" lon="2.33626">
        <ele>25.7</ele>
        <time>2023-03-25T14:23:46Z</time>
      </trkpt>
      <trkpt lat="49.88736" lon="2.33626">
        <ele>25.7</ele>
        <time>2023-03-25T14:23:47Z</time>
      </trkpt>
      <trkpt lat="49.88736" lon="2.33625">
        <ele>25.7</ele>
        <time>2023-03-25T14:23:49Z</time>
      </trkpt>
      <trkpt lat="49.88736" lon="2.33624">
        <ele>25.7</ele>
        <time>2023-03-25T14:23:50Z</time>
      </trkpt>
      <trkpt lat="49.88736" lon="2.33622">
        <ele>25.7</ele>
        <time>2023-03-25T14:23:52Z</time>
      </trkpt>
      <trkpt lat="49.88736" lon="2.33622">
        <ele>25.7</ele>
        <time>2023-03-25T14:23:53Z</time>
      </trkpt>
      <trkpt lat="49.88736" lon="2.33621">
        <ele>25.7</ele>
        <time>2023-03-25T14:23:54Z</time>
      </trkpt>
      <trkpt lat="49.88736" lon="2.33622">
        <ele>25.7</ele>
        <time>2023-03-25T14:23:56Z</time>
      </trkpt>
      <trkpt lat="49.88735" lon="2.33622">
        <ele>25.7</ele>
        <time>2023-03-25T14:23:57Z</time>
      </trkpt>
      <trkpt lat="49.88735" lon="2.33622">
        <ele>25.7</ele>
        <time>2023-03-25T14:23:58Z</time>
      </trkpt>
      <trkpt lat="49.88734" lon="2.33623">
        <ele>25.7</ele>
        <time>2023-03-25T14:23:59Z</time>
      </trkpt>
      <trkpt lat="49.88734" lon="2.33623">
        <ele>25.7</ele>
        <time>2023-03-25T14:24:00Z</time>
      </trkpt>
      <trkpt lat="49.88733" lon="2.33623">
        <ele>25.7</ele>
        <time>2023-03-25T14:24:01Z</time>
      </trkpt>
      <trkpt lat="49.88733" lon="2.33624">
        <ele>25.7</ele>
        <time>2023-03-25T14:24:02Z</time>
      </trkpt>
      <trkpt lat="49.88731" lon="2.33625">
        <ele>25.7</ele>
        <time>2023-03-25T14:24:04Z</time>
      </trkpt>
      <trkpt lat="49.8873" lon="2.33626">
        <ele>25.7</ele>
        <time>2023-03-25T14:24:05Z</time>
      </trkpt>
      <trkpt lat="49.88729" lon="2.33627">
        <ele>25.7</ele>
        <time>2023-03-25T14:24:06Z</time>
      </trkpt>
      <trkpt lat="49.88728" lon="2.33628">
        <ele>25.7</ele>
        <time>2023-03-25T14:24:07Z</time>
      </trkpt>
      <trkpt lat="49.88727" lon="2.3363">
        <ele>25.7</ele>
        <time>2023-03-25T14:24:08Z</time>
      </trkpt>
      <trkpt lat="49.88726" lon="2.33631">
        <ele>25.7</ele>
        <time>2023-03-25T14:24:09Z</time>
      </trkpt>
      <trkpt lat="49.88724" lon="2.33632">
        <ele>25.7</ele>
        <time>2023-03-25T14:24:11Z</time>
      </trkpt>
      <trkpt lat="49.88723" lon="2.33633">
        <ele>25.7</ele>
        <time>2023-03-25T14:24:12Z</time>
      </trkpt>
      <trkpt lat="49.88722" lon="2.33635">
        <ele>25.7</ele>
        <time>2023-03-25T14:24:13Z</time>
      </trkpt>
      <trkpt lat="49.88721" lon="2.33636">
        <ele>25.7</ele>
        <time>2023-03-25T14:24:14Z</time>
      </trkpt>
      <trkpt lat="49.88719" lon="2.33639">
        <ele>25.7</ele>
        <time>2023-03-25T14:24:15Z</time>
      </trkpt>
      <trkpt lat="49.88718" lon="2.3364">
        <ele>25.7</ele>
        <time>2023-03-25T14:24:16Z</time>
      </trkpt>
      <trkpt lat="49.88717" lon="2.33641">
        <ele>25.7</ele>
        <time>2023-03-25T14:24:17Z</time>
      </trkpt>
      <trkpt lat="49.88716" lon="2.33643">
        <ele>25.7</ele>
        <time>2023-03-25T14:24:18Z</time>
      </trkpt>
      <trkpt lat="49.88713" lon="2.33646">
        <ele>25.7</ele>
        <time>2023-03-25T14:24:19Z</time>
      </trkpt>
      <trkpt lat="49.88713" lon="2.33647">
        <ele>25.7</ele>
        <time>2023-03-25T14:24:21Z</time>
      </trkpt>
      <trkpt lat="49.88712" lon="2.33647">
        <ele>25.7</ele>
        <time>2023-03-25T14:24:22Z</time>
      </trkpt>
      <trkpt lat="49.88711" lon="2.33648">
        <ele>25.7</ele>
        <time>2023-03-25T14:24:23Z</time>
      </trkpt>
      <trkpt lat="49.8871" lon="2.33649">
        <ele>25.7</ele>
        <time>2023-03-25T14:24:24Z</time>
      </trkpt>
      <trkpt lat="49.88708" lon="2.3365">
        <ele>25.7</ele>
        <time>2023-03-25T14:24:25Z</time>
      </trkpt>
      <trkpt lat="49.88708" lon="2.33651">
        <ele>25.7</ele>
        <time>2023-03-25T14:24:26Z</time>
      </trkpt>
      <trkpt lat="49.88707" lon="2.33651">
        <ele>25.7</ele>
        <time>2023-03-25T14:24:27Z</time>
      </trkpt>
      <trkpt lat="49.88706" lon="2.33653">
        <ele>25.7</ele>
        <time>2023-03-25T14:24:28Z</time>
      </trkpt>
      <trkpt lat="49.88705" lon="2.33654">
        <ele>25.6</ele>
        <time>2023-03-25T14:24:30Z</time>
      </trkpt>
      <trkpt lat="49.88704" lon="2.33655">
        <ele>25.6</ele>
        <time>2023-03-25T14:24:31Z</time>
      </trkpt>
      <trkpt lat="49.88703" lon="2.33657">
        <ele>25.6</ele>
        <time>2023-03-25T14:24:32Z</time>
      </trkpt>
      <trkpt lat="49.88701" lon="2.33659">
        <ele>25.6</ele>
        <time>2023-03-25T14:24:33Z</time>
      </trkpt>
      <trkpt lat="49.88701" lon="2.3366">
        <ele>25.6</ele>
        <time>2023-03-25T14:24:34Z</time>
      </trkpt>
      <trkpt lat="49.887" lon="2.33661">
        <ele>25.6</ele>
        <time>2023-03-25T14:24:35Z</time>
      </trkpt>
      <trkpt lat="49.88699" lon="2.33662">
        <ele>25.6</ele>
        <time>2023-03-25T14:24:36Z</time>
      </trkpt>
      <trkpt lat="49.88698" lon="2.33664">
        <ele>25.5</ele>
        <time>2023-03-25T14:24:38Z</time>
      </trkpt>
      <trkpt lat="49.88697" lon="2.33666">
        <ele>25.5</ele>
        <time>2023-03-25T14:24:39Z</time>
      </trkpt>
      <trkpt lat="49.88695" lon="2.33667">
        <ele>25.5</ele>
        <time>2023-03-25T14:24:40Z</time>
      </trkpt>
      <trkpt lat="49.88694" lon="2.3367">
        <ele>25.5</ele>
        <time>2023-03-25T14:24:41Z</time>
      </trkpt>
      <trkpt lat="49.88693" lon="2.33671">
        <ele>25.5</ele>
        <time>2023-03-25T14:24:42Z</time>
      </trkpt>
      <trkpt lat="49.88692" lon="2.33672">
        <ele>25.5</ele>
        <time>2023-03-25T14:24:43Z</time>
      </trkpt>
      <trkpt lat="49.88691" lon="2.33674">
        <ele>25.4</ele>
        <time>2023-03-25T14:24:44Z</time>
      </trkpt>
      <trkpt lat="49.8869" lon="2.33675">
        <ele>25.4</ele>
        <time>2023-03-25T14:24:46Z</time>
      </trkpt>
      <trkpt lat="49.8869" lon="2.33676">
        <ele>25.4</ele>
        <time>2023-03-25T14:24:47Z</time>
      </trkpt>
      <trkpt lat="49.88689" lon="2.33678">
        <ele>25.4</ele>
        <time>2023-03-25T14:24:48Z</time>
      </trkpt>
      <trkpt lat="49.88688" lon="2.33679">
        <ele>25.4</ele>
        <time>2023-03-25T14:24:49Z</time>
      </trkpt>
      <trkpt lat="49.88687" lon="2.3368">
        <ele>25.4</ele>
        <time>2023-03-25T14:24:50Z</time>
      </trkpt>
      <trkpt lat="49.88686" lon="2.3368">
        <ele>25.4</ele>
        <time>2023-03-25T14:24:51Z</time>
      </trkpt>
      <trkpt lat="49.88685" lon="2.33681">
        <ele>25.4</ele>
        <time>2023-03-25T14:24:52Z</time>
      </trkpt>
      <trkpt lat="49.88684" lon="2.33682">
        <ele>25.4</ele>
        <time>2023-03-25T14:24:54Z</time>
      </trkpt>
      <trkpt lat="49.88682" lon="2.33684">
        <ele>25.4</ele>
        <time>2023-03-25T14:24:55Z</time>
      </trkpt>
      <trkpt lat="49.88682" lon="2.33684">
        <ele>25.4</ele>
        <time>2023-03-25T14:24:56Z</time>
      </trkpt>
      <trkpt lat="49.88681" lon="2.33685">
        <ele>25.4</ele>
        <time>2023-03-25T14:24:57Z</time>
      </trkpt>
      <trkpt lat="49.88679" lon="2.33687">
        <ele>25.4</ele>
        <time>2023-03-25T14:24:58Z</time>
      </trkpt>
      <trkpt lat="49.88679" lon="2.33688">
        <ele>25.4</ele>
        <time>2023-03-25T14:25:00Z</time>
      </trkpt>
      <trkpt lat="49.88678" lon="2.33689">
        <ele>25.4</ele>
        <time>2023-03-25T14:25:01Z</time>
      </trkpt>
      <trkpt lat="49.88677" lon="2.3369">
        <ele>25.4</ele>
        <time>2023-03-25T14:25:02Z</time>
      </trkpt>
      <trkpt lat="49.88676" lon="2.33691">
        <ele>25.4</ele>
        <time>2023-03-25T14:25:03Z</time>
      </trkpt>
      <trkpt lat="49.88676" lon="2.33692">
        <ele>25.4</ele>
        <time>2023-03-25T14:25:04Z</time>
      </trkpt>
      <trkpt lat="49.88674" lon="2.33693">
        <ele>25.4</ele>
        <time>2023-03-25T14:25:05Z</time>
      </trkpt>
      <trkpt lat="49.88674" lon="2.33693">
        <ele>25.4</ele>
        <time>2023-03-25T14:25:06Z</time>
      </trkpt>
      <trkpt lat="49.88673" lon="2.33694">
        <ele>25.4</ele>
        <time>2023-03-25T14:25:07Z</time>
      </trkpt>
      <trkpt lat="49.88671" lon="2.33694">
        <ele>25.3</ele>
        <time>2023-03-25T14:25:09Z</time>
      </trkpt>
      <trkpt lat="49.8867" lon="2.33695">
        <ele>25.3</ele>
        <time>2023-03-25T14:25:10Z</time>
      </trkpt>
      <trkpt lat="49.88669" lon="2.33695">
        <ele>25.3</ele>
        <time>2023-03-25T14:25:11Z</time>
      </trkpt>
      <trkpt lat="49.88668" lon="2.33696">
        <ele>25.3</ele>
        <time>2023-03-25T14:25:12Z</time>
      </trkpt>
      <trkpt lat="49.88667" lon="2.33696">
        <ele>25.3</ele>
        <time>2023-03-25T14:25:13Z</time>
      </trkpt>
      <trkpt lat="49.88666" lon="2.33696">
        <ele>25.3</ele>
        <time>2023-03-25T14:25:14Z</time>
      </trkpt>
      <trkpt lat="49.88665" lon="2.33697">
        <ele>25.3</ele>
        <time>2023-03-25T14:25:15Z</time>
      </trkpt>
      <trkpt lat="49.88664" lon="2.33698">
        <ele>25.3</ele>
        <time>2023-03-25T14:25:17Z</time>
      </trkpt>
      <trkpt lat="49.88663" lon="2.33698">
        <ele>25.3</ele>
        <time>2023-03-25T14:25:18Z</time>
      </trkpt>
      <trkpt lat="49.88662" lon="2.33699">
        <ele>25.3</ele>
        <time>2023-03-25T14:25:19Z</time>
      </trkpt>
      <trkpt lat="49.8866" lon="2.337">
        <ele>25.3</ele>
        <time>2023-03-25T14:25:20Z</time>
      </trkpt>
      <trkpt lat="49.8866" lon="2.33701">
        <ele>25.3</ele>
        <time>2023-03-25T14:25:21Z</time>
      </trkpt>
      <trkpt lat="49.88659" lon="2.33702">
        <ele>25.3</ele>
        <time>2023-03-25T14:25:22Z</time>
      </trkpt>
      <trkpt lat="49.88658" lon="2.33703">
        <ele>25.3</ele>
        <time>2023-03-25T14:25:23Z</time>
      </trkpt>
      <trkpt lat="49.88657" lon="2.33704">
        <ele>25.3</ele>
        <time>2023-03-25T14:25:25Z</time>
      </trkpt>
      <trkpt lat="49.88656" lon="2.33705">
        <ele>25.3</ele>
        <time>2023-03-25T14:25:26Z</time>
      </trkpt>
      <trkpt lat="49.88655" lon="2.33706">
        <ele>25.3</ele>
        <time>2023-03-25T14:25:27Z</time>
      </trkpt>
      <trkpt lat="49.88654" lon="2.33707">
        <ele>25.3</ele>
        <time>2023-03-25T14:25:28Z</time>
      </trkpt>
      <trkpt lat="49.88654" lon="2.33708">
        <ele>25.3</ele>
        <time>2023-03-25T14:25:29Z</time>
      </trkpt>
      <trkpt lat="49.88653" lon="2.3371">
        <ele>25.3</ele>
        <time>2023-03-25T14:25:30Z</time>
      </trkpt>
      <trkpt lat="49.88652" lon="2.33711">
        <ele>25.3</ele>
        <time>2023-03-25T14:25:32Z</time>
      </trkpt>
      <trkpt lat="49.88651" lon="2.33713">
        <ele>25.3</ele>
        <time>2023-03-25T14:25:33Z</time>
      </trkpt>
      <trkpt lat="49.8865" lon="2.33714">
        <ele>25.3</ele>
        <time>2023-03-25T14:25:34Z</time>
      </trkpt>
      <trkpt lat="49.88649" lon="2.33715">
        <ele>25.3</ele>
        <time>2023-03-25T14:25:35Z</time>
      </trkpt>
      <trkpt lat="49.88649" lon="2.33715">
        <ele>25.3</ele>
        <time>2023-03-25T14:25:36Z</time>
      </trkpt>
      <trkpt lat="49.88648" lon="2.33716">
        <ele>25.3</ele>
        <time>2023-03-25T14:25:37Z</time>
      </trkpt>
      <trkpt lat="49.88647" lon="2.33716">
        <ele>25.3</ele>
        <time>2023-03-25T14:25:38Z</time>
      </trkpt>
      <trkpt lat="49.88646" lon="2.33716">
        <ele>25.3</ele>
        <time>2023-03-25T14:25:40Z</time>
      </trkpt>
      <trkpt lat="49.88646" lon="2.33717">
        <ele>25.3</ele>
        <time>2023-03-25T14:25:41Z</time>
      </trkpt>
      <trkpt lat="49.88645" lon="2.33717">
        <ele>25.3</ele>
        <time>2023-03-25T14:25:42Z</time>
      </trkpt>
      <trkpt lat="49.88644" lon="2.33718">
        <ele>25.3</ele>
        <time>2023-03-25T14:25:43Z</time>
      </trkpt>
      <trkpt lat="49.88643" lon="2.33719">
        <ele>25.3</ele>
        <time>2023-03-25T14:25:44Z</time>
      </trkpt>
      <trkpt lat="49.88643" lon="2.3372">
        <ele>25.3</ele>
        <time>2023-03-25T14:25:46Z</time>
      </trkpt>
      <trkpt lat="49.88642" lon="2.33721">
        <ele>25.3</ele>
        <time>2023-03-25T14:25:47Z</time>
      </trkpt>
      <trkpt lat="49.88641" lon="2.33722">
        <ele>25.3</ele>
        <time>2023-03-25T14:25:48Z</time>
      </trkpt>
      <trkpt lat="49.88641" lon="2.33723">
        <ele>25.3</ele>
        <time>2023-03-25T14:25:49Z</time>
      </trkpt>
      <trkpt lat="49.8864" lon="2.33725">
        <ele>25.3</ele>
        <time>2023-03-25T14:25:50Z</time>
      </trkpt>
      <trkpt lat="49.88639" lon="2.33726">
        <ele>25.3</ele>
        <time>2023-03-25T14:25:51Z</time>
      </trkpt>
      <trkpt lat="49.88638" lon="2.33727">
        <ele>25.3</ele>
        <time>2023-03-25T14:25:53Z</time>
      </trkpt>
      <trkpt lat="49.88638" lon="2.33727">
        <ele>25.3</ele>
        <time>2023-03-25T14:25:54Z</time>
      </trkpt>
      <trkpt lat="49.88637" lon="2.33728">
        <ele>25.3</ele>
        <time>2023-03-25T14:25:55Z</time>
      </trkpt>
      <trkpt lat="49.88636" lon="2.33729">
        <ele>25.3</ele>
        <time>2023-03-25T14:25:56Z</time>
      </trkpt>
      <trkpt lat="49.88635" lon="2.33729">
        <ele>25.3</ele>
        <time>2023-03-25T14:25:57Z</time>
      </trkpt>
      <trkpt lat="49.88634" lon="2.3373">
        <ele>25.3</ele>
        <time>2023-03-25T14:25:58Z</time>
      </trkpt>
      <trkpt lat="49.88633" lon="2.33731">
        <ele>25.3</ele>
        <time>2023-03-25T14:25:59Z</time>
      </trkpt>
      <trkpt lat="49.88632" lon="2.33732">
        <ele>25.3</ele>
        <time>2023-03-25T14:26:01Z</time>
      </trkpt>
      <trkpt lat="49.88631" lon="2.33733">
        <ele>25.3</ele>
        <time>2023-03-25T14:26:02Z</time>
      </trkpt>
      <trkpt lat="49.8863" lon="2.33734">
        <ele>25.3</ele>
        <time>2023-03-25T14:26:03Z</time>
      </trkpt>
      <trkpt lat="49.88629" lon="2.33734">
        <ele>25.3</ele>
        <time>2023-03-25T14:26:04Z</time>
      </trkpt>
      <trkpt lat="49.88627" lon="2.33735">
        <ele>25.3</ele>
        <time>2023-03-25T14:26:05Z</time>
      </trkpt>
      <trkpt lat="49.88626" lon="2.33736">
        <ele>25.4</ele>
        <time>2023-03-25T14:26:06Z</time>
      </trkpt>
      <trkpt lat="49.88625" lon="2.33736">
        <ele>25.4</ele>
        <time>2023-03-25T14:26:07Z</time>
      </trkpt>
      <trkpt lat="49.88624" lon="2.33737">
        <ele>25.4</ele>
        <time>2023-03-25T14:26:09Z</time>
      </trkpt>
      <trkpt lat="49.88622" lon="2.33737">
        <ele>25.4</ele>
        <time>2023-03-25T14:26:10Z</time>
      </trkpt>
      <trkpt lat="49.88621" lon="2.33737">
        <ele>25.4</ele>
        <time>2023-03-25T14:26:11Z</time>
      </trkpt>
      <trkpt lat="49.8862" lon="2.33738">
        <ele>25.4</ele>
        <time>2023-03-25T14:26:12Z</time>
      </trkpt>
      <trkpt lat="49.88619" lon="2.33738">
        <ele>25.4</ele>
        <time>2023-03-25T14:26:13Z</time>
      </trkpt>
      <trkpt lat="49.88618" lon="2.33739">
        <ele>25.4</ele>
        <time>2023-03-25T14:26:14Z</time>
      </trkpt>
      <trkpt lat="49.88617" lon="2.3374">
        <ele>25.4</ele>
        <time>2023-03-25T14:26:15Z</time>
      </trkpt>
      <trkpt lat="49.88616" lon="2.33742">
        <ele>25.4</ele>
        <time>2023-03-25T14:26:17Z</time>
      </trkpt>
      <trkpt lat="49.88615" lon="2.33743">
        <ele>25.4</ele>
        <time>2023-03-25T14:26:18Z</time>
      </trkpt>
      <trkpt lat="49.88614" lon="2.33744">
        <ele>25.4</ele>
        <time>2023-03-25T14:26:19Z</time>
      </trkpt>
      <trkpt lat="49.88613" lon="2.33745">
        <ele>25.4</ele>
        <time>2023-03-25T14:26:20Z</time>
      </trkpt>
      <trkpt lat="49.88612" lon="2.33745">
        <ele>25.4</ele>
        <time>2023-03-25T14:26:21Z</time>
      </trkpt>
      <trkpt lat="49.88612" lon="2.33746">
        <ele>25.4</ele>
        <time>2023-03-25T14:26:22Z</time>
      </trkpt>
      <trkpt lat="49.88611" lon="2.33747">
        <ele>25.4</ele>
        <time>2023-03-25T14:26:24Z</time>
      </trkpt>
      <trkpt lat="49.88611" lon="2.33748">
        <ele>25.4</ele>
        <time>2023-03-25T14:26:25Z</time>
      </trkpt>
      <trkpt lat="49.8861" lon="2.33749">
        <ele>25.4</ele>
        <time>2023-03-25T14:26:26Z</time>
      </trkpt>
      <trkpt lat="49.8861" lon="2.33749">
        <ele>25.4</ele>
        <time>2023-03-25T14:26:28Z</time>
      </trkpt>
      <trkpt lat="49.88609" lon="2.3375">
        <ele>25.4</ele>
        <time>2023-03-25T14:26:29Z</time>
      </trkpt>
      <trkpt lat="49.88609" lon="2.3375">
        <ele>25.4</ele>
        <time>2023-03-25T14:26:30Z</time>
      </trkpt>
      <trkpt lat="49.88608" lon="2.33749">
        <ele>25.4</ele>
        <time>2023-03-25T14:26:31Z</time>
      </trkpt>
      <trkpt lat="49.88607" lon="2.3375">
        <ele>25.4</ele>
        <time>2023-03-25T14:26:32Z</time>
      </trkpt>
      <trkpt lat="49.88607" lon="2.3375">
        <ele>25.4</ele>
        <time>2023-03-25T14:26:34Z</time>
      </trkpt>
      <trkpt lat="49.88606" lon="2.3375">
        <ele>25.4</ele>
        <time>2023-03-25T14:26:35Z</time>
      </trkpt>
      <trkpt lat="49.88605" lon="2.33752">
        <ele>25.4</ele>
        <time>2023-03-25T14:26:36Z</time>
      </trkpt>
      <trkpt lat="49.88604" lon="2.33752">
        <ele>25.4</ele>
        <time>2023-03-25T14:26:37Z</time>
      </trkpt>
      <trkpt lat="49.88603" lon="2.33753">
        <ele>25.4</ele>
        <time>2023-03-25T14:26:38Z</time>
      </trkpt>
      <trkpt lat="49.88602" lon="2.33753">
        <ele>25.4</ele>
        <time>2023-03-25T14:26:39Z</time>
      </trkpt>
      <trkpt lat="49.886" lon="2.33754">
        <ele>25.4</ele>
        <time>2023-03-25T14:26:41Z</time>
      </trkpt>
      <trkpt lat="49.886" lon="2.33754">
        <ele>25.4</ele>
        <time>2023-03-25T14:26:42Z</time>
      </trkpt>
      <trkpt lat="49.88599" lon="2.33755">
        <ele>25.4</ele>
        <time>2023-03-25T14:26:43Z</time>
      </trkpt>
      <trkpt lat="49.88598" lon="2.33755">
        <ele>25.4</ele>
        <time>2023-03-25T14:26:44Z</time>
      </trkpt>
      <trkpt lat="49.88596" lon="2.33756">
        <ele>25.4</ele>
        <time>2023-03-25T14:26:45Z</time>
      </trkpt>
      <trkpt lat="49.88595" lon="2.33757">
        <ele>25.4</ele>
        <time>2023-03-25T14:26:46Z</time>
      </trkpt>
      <trkpt lat="49.88594" lon="2.33757">
        <ele>25.4</ele>
        <time>2023-03-25T14:26:48Z</time>
      </trkpt>
      <trkpt lat="49.88593" lon="2.33757">
        <ele>25.4</ele>
        <time>2023-03-25T14:26:49Z</time>
      </trkpt>
      <trkpt lat="49.88592" lon="2.33757">
        <ele>25.4</ele>
        <time>2023-03-25T14:26:50Z</time>
      </trkpt>
      <trkpt lat="49.88591" lon="2.33758">
        <ele>25.4</ele>
        <time>2023-03-25T14:26:51Z</time>
      </trkpt>
      <trkpt lat="49.8859" lon="2.33759">
        <ele>25.4</ele>
        <time>2023-03-25T14:26:52Z</time>
      </trkpt>
      <trkpt lat="49.88588" lon="2.33761">
        <ele>25.4</ele>
        <time>2023-03-25T14:26:53Z</time>
      </trkpt>
      <trkpt lat="49.88588" lon="2.33762">
        <ele>25.4</ele>
        <time>2023-03-25T14:26:54Z</time>
      </trkpt>
      <trkpt lat="49.88587" lon="2.33763">
        <ele>25.4</ele>
        <time>2023-03-25T14:26:55Z</time>
      </trkpt>
      <trkpt lat="49.88586" lon="2.33764">
        <ele>25.4</ele>
        <time>2023-03-25T14:26:57Z</time>
      </trkpt>
      <trkpt lat="49.88585" lon="2.33765">
        <ele>25.4</ele>
        <time>2023-03-25T14:26:58Z</time>
      </trkpt>
      <trkpt lat="49.88584" lon="2.33766">
        <ele>25.4</ele>
        <time>2023-03-25T14:26:59Z</time>
      </trkpt>
      <trkpt lat="49.88583" lon="2.33767">
        <ele>25.4</ele>
        <time>2023-03-25T14:27:00Z</time>
      </trkpt>
      <trkpt lat="49.88582" lon="2.33768">
        <ele>25.4</ele>
        <time>2023-03-25T14:27:01Z</time>
      </trkpt>
      <trkpt lat="49.88581" lon="2.33769">
        <ele>25.4</ele>
        <time>2023-03-25T14:27:02Z</time>
      </trkpt>
      <trkpt lat="49.8858" lon="2.3377">
        <ele>25.4</ele>
        <time>2023-03-25T14:27:03Z</time>
      </trkpt>
      <trkpt lat="49.88579" lon="2.3377">
        <ele>25.4</ele>
        <time>2023-03-25T14:27:05Z</time>
      </trkpt>
      <trkpt lat="49.88579" lon="2.33771">
        <ele>25.4</ele>
        <time>2023-03-25T14:27:06Z</time>
      </trkpt>
      <trkpt lat="49.88577" lon="2.33772">
        <ele>25.4</ele>
        <time>2023-03-25T14:27:07Z</time>
      </trkpt>
      <trkpt lat="49.88577" lon="2.33773">
        <ele>25.4</ele>
        <time>2023-03-25T14:27:08Z</time>
      </trkpt>
      <trkpt lat="49.88576" lon="2.33774">
        <ele>25.4</ele>
        <time>2023-03-25T14:27:09Z</time>
      </trkpt>
      <trkpt lat="49.88575" lon="2.33775">
        <ele>25.4</ele>
        <time>2023-03-25T14:27:10Z</time>
      </trkpt>
      <trkpt lat="49.88574" lon="2.33776">
        <ele>25.4</ele>
        <time>2023-03-25T14:27:11Z</time>
      </trkpt>
      <trkpt lat="49.88573" lon="2.33777">
        <ele>25.4</ele>
        <time>2023-03-25T14:27:13Z</time>
      </trkpt>
      <trkpt lat="49.88572" lon="2.33777">
        <ele>25.4</ele>
        <time>2023-03-25T14:27:14Z</time>
      </trkpt>
      <trkpt lat="49.88571" lon="2.33778">
        <ele>25.4</ele>
        <time>2023-03-25T14:27:15Z</time>
      </trkpt>
      <trkpt lat="49.8857" lon="2.33779">
        <ele>25.4</ele>
        <time>2023-03-25T14:27:16Z</time>
      </trkpt>
      <trkpt lat="49.88569" lon="2.3378">
        <ele>25.4</ele>
        <time>2023-03-25T14:27:17Z</time>
      </trkpt>
      <trkpt lat="49.88568" lon="2.33781">
        <ele>25.4</ele>
        <time>2023-03-25T14:27:18Z</time>
      </trkpt>
      <trkpt lat="49.88567" lon="2.33782">
        <ele>25.4</ele>
        <time>2023-03-25T14:27:19Z</time>
      </trkpt>
      <trkpt lat="49.88566" lon="2.33782">
        <ele>25.4</ele>
        <time>2023-03-25T14:27:20Z</time>
      </trkpt>
      <trkpt lat="49.88565" lon="2.33783">
        <ele>25.4</ele>
        <time>2023-03-25T14:27:22Z</time>
      </trkpt>
      <trkpt lat="49.88564" lon="2.33783">
        <ele>25.4</ele>
        <time>2023-03-25T14:27:23Z</time>
      </trkpt>
      <trkpt lat="49.88563" lon="2.33784">
        <ele>25.4</ele>
        <time>2023-03-25T14:27:24Z</time>
      </trkpt>
      <trkpt lat="49.88563" lon="2.33784">
        <ele>25.4</ele>
        <time>2023-03-25T14:27:25Z</time>
      </trkpt>
      <trkpt lat="49.88562" lon="2.33785">
        <ele>25.4</ele>
        <time>2023-03-25T14:27:26Z</time>
      </trkpt>
      <trkpt lat="49.88561" lon="2.33785">
        <ele>25.4</ele>
        <time>2023-03-25T14:27:27Z</time>
      </trkpt>
      <trkpt lat="49.8856" lon="2.33786">
        <ele>25.4</ele>
        <time>2023-03-25T14:27:28Z</time>
      </trkpt>
      <trkpt lat="49.88559" lon="2.33786">
        <ele>25.4</ele>
        <time>2023-03-25T14:27:29Z</time>
      </trkpt>
      <trkpt lat="49.88558" lon="2.33787">
        <ele>25.4</ele>
        <time>2023-03-25T14:27:30Z</time>
      </trkpt>
      <trkpt lat="49.88557" lon="2.33788">
        <ele>25.4</ele>
        <time>2023-03-25T14:27:32Z</time>
      </trkpt>
      <trkpt lat="49.88556" lon="2.33789">
        <ele>25.4</ele>
        <time>2023-03-25T14:27:33Z</time>
      </trkpt>
      <trkpt lat="49.88555" lon="2.3379">
        <ele>25.4</ele>
        <time>2023-03-25T14:27:34Z</time>
      </trkpt>
      <trkpt lat="49.88554" lon="2.33791">
        <ele>25.4</ele>
        <time>2023-03-25T14:27:35Z</time>
      </trkpt>
      <trkpt lat="49.88553" lon="2.33792">
        <ele>25.4</ele>
        <time>2023-03-25T14:27:36Z</time>
      </trkpt>
      <trkpt lat="49.88552" lon="2.33793">
        <ele>25.4</ele>
        <time>2023-03-25T14:27:37Z</time>
      </trkpt>
      <trkpt lat="49.88551" lon="2.33793">
        <ele>25.4</ele>
        <time>2023-03-25T14:27:38Z</time>
      </trkpt>
      <trkpt lat="49.8855" lon="2.33794">
        <ele>25.4</ele>
        <time>2023-03-25T14:27:40Z</time>
      </trkpt>
      <trkpt lat="49.88549" lon="2.33795">
        <ele>25.4</ele>
        <time>2023-03-25T14:27:41Z</time>
      </trkpt>
      <trkpt lat="49.88546" lon="2.33797">
        <ele>25.4</ele>
        <time>2023-03-25T14:27:42Z</time>
      </trkpt>
      <trkpt lat="49.88546" lon="2.33797">
        <ele>25.4</ele>
        <time>2023-03-25T14:27:43Z</time>
      </trkpt>
      <trkpt lat="49.88545" lon="2.33797">
        <ele>25.4</ele>
        <time>2023-03-25T14:27:44Z</time>
      </trkpt>
      <trkpt lat="49.88544" lon="2.33798">
        <ele>25.4</ele>
        <time>2023-03-25T14:27:45Z</time>
      </trkpt>
      <trkpt lat="49.88542" lon="2.338">
        <ele>25.4</ele>
        <time>2023-03-25T14:27:46Z</time>
      </trkpt>
      <trkpt lat="49.88541" lon="2.33801">
        <ele>25.4</ele>
        <time>2023-03-25T14:27:47Z</time>
      </trkpt>
      <trkpt lat="49.8854" lon="2.33802">
        <ele>25.4</ele>
        <time>2023-03-25T14:27:49Z</time>
      </trkpt>
      <trkpt lat="49.88539" lon="2.33802">
        <ele>25.4</ele>
        <time>2023-03-25T14:27:50Z</time>
      </trkpt>
      <trkpt lat="49.88538" lon="2.33803">
        <ele>25.4</ele>
        <time>2023-03-25T14:27:51Z</time>
      </trkpt>
      <trkpt lat="49.88537" lon="2.33804">
        <ele>25.4</ele>
        <time>2023-03-25T14:27:52Z</time>
      </trkpt>
      <trkpt lat="49.88536" lon="2.33805">
        <ele>25.4</ele>
        <time>2023-03-25T14:27:53Z</time>
      </trkpt>
      <trkpt lat="49.88535" lon="2.33806">
        <ele>25.4</ele>
        <time>2023-03-25T14:27:54Z</time>
      </trkpt>
      <trkpt lat="49.88534" lon="2.33807">
        <ele>25.4</ele>
        <time>2023-03-25T14:27:55Z</time>
      </trkpt>
      <trkpt lat="49.88533" lon="2.33808">
        <ele>25.4</ele>
        <time>2023-03-25T14:27:56Z</time>
      </trkpt>
      <trkpt lat="49.88532" lon="2.33808">
        <ele>25.4</ele>
        <time>2023-03-25T14:27:58Z</time>
      </trkpt>
      <trkpt lat="49.88531" lon="2.33809">
        <ele>25.4</ele>
        <time>2023-03-25T14:27:59Z</time>
      </trkpt>
      <trkpt lat="49.8853" lon="2.3381">
        <ele>25.4</ele>
        <time>2023-03-25T14:28:00Z</time>
      </trkpt>
      <trkpt lat="49.88529" lon="2.3381">
        <ele>25.4</ele>
        <time>2023-03-25T14:28:01Z</time>
      </trkpt>
      <trkpt lat="49.88528" lon="2.33811">
        <ele>25.4</ele>
        <time>2023-03-25T14:28:02Z</time>
      </trkpt>
      <trkpt lat="49.88527" lon="2.33812">
        <ele>25.4</ele>
        <time>2023-03-25T14:28:03Z</time>
      </trkpt>
      <trkpt lat="49.88526" lon="2.33813">
        <ele>25.4</ele>
        <time>2023-03-25T14:28:04Z</time>
      </trkpt>
      <trkpt lat="49.88525" lon="2.33814">
        <ele>25.4</ele>
        <time>2023-03-25T14:28:06Z</time>
      </trkpt>
      <trkpt lat="49.88524" lon="2.33815">
        <ele>25.4</ele>
        <time>2023-03-25T14:28:07Z</time>
      </trkpt>
      <trkpt lat="49.88523" lon="2.33816">
        <ele>25.4</ele>
        <time>2023-03-25T14:28:08Z</time>
      </trkpt>
      <trkpt lat="49.88522" lon="2.33817">
        <ele>25.4</ele>
        <time>2023-03-25T14:28:09Z</time>
      </trkpt>
      <trkpt lat="49.88521" lon="2.33818">
        <ele>25.5</ele>
        <time>2023-03-25T14:28:10Z</time>
      </trkpt>
      <trkpt lat="49.8852" lon="2.33819">
        <ele>25.5</ele>
        <time>2023-03-25T14:28:11Z</time>
      </trkpt>
      <trkpt lat="49.8852" lon="2.3382">
        <ele>25.5</ele>
        <time>2023-03-25T14:28:12Z</time>
      </trkpt>
      <trkpt lat="49.88519" lon="2.33821">
        <ele>25.5</ele>
        <time>2023-03-25T14:28:14Z</time>
      </trkpt>
      <trkpt lat="49.88518" lon="2.33822">
        <ele>25.5</ele>
        <time>2023-03-25T14:28:15Z</time>
      </trkpt>
      <trkpt lat="49.88517" lon="2.33823">
        <ele>25.5</ele>
        <time>2023-03-25T14:28:16Z</time>
      </trkpt>
      <trkpt lat="49.88516" lon="2.33824">
        <ele>25.5</ele>
        <time>2023-03-25T14:28:17Z</time>
      </trkpt>
      <trkpt lat="49.88515" lon="2.33825">
        <ele>25.5</ele>
        <time>2023-03-25T14:28:18Z</time>
      </trkpt>
      <trkpt lat="49.88514" lon="2.33825">
        <ele>25.5</ele>
        <time>2023-03-25T14:28:19Z</time>
      </trkpt>
      <trkpt lat="49.88514" lon="2.33826">
        <ele>25.5</ele>
        <time>2023-03-25T14:28:20Z</time>
      </trkpt>
      <trkpt lat="49.88512" lon="2.33828">
        <ele>25.5</ele>
        <time>2023-03-25T14:28:22Z</time>
      </trkpt>
      <trkpt lat="49.88512" lon="2.33829">
        <ele>25.5</ele>
        <time>2023-03-25T14:28:23Z</time>
      </trkpt>
      <trkpt lat="49.88511" lon="2.3383">
        <ele>25.5</ele>
        <time>2023-03-25T14:28:24Z</time>
      </trkpt>
      <trkpt lat="49.8851" lon="2.33831">
        <ele>25.5</ele>
        <time>2023-03-25T14:28:25Z</time>
      </trkpt>
      <trkpt lat="49.8851" lon="2.33832">
        <ele>25.5</ele>
        <time>2023-03-25T14:28:26Z</time>
      </trkpt>
      <trkpt lat="49.88508" lon="2.33834">
        <ele>25.5</ele>
        <time>2023-03-25T14:28:27Z</time>
      </trkpt>
      <trkpt lat="49.88508" lon="2.33835">
        <ele>25.5</ele>
        <time>2023-03-25T14:28:28Z</time>
      </trkpt>
      <trkpt lat="49.88507" lon="2.33836">
        <ele>25.5</ele>
        <time>2023-03-25T14:28:29Z</time>
      </trkpt>
      <trkpt lat="49.88507" lon="2.33837">
        <ele>25.5</ele>
        <time>2023-03-25T14:28:31Z</time>
      </trkpt>
      <trkpt lat="49.88505" lon="2.33839">
        <ele>25.5</ele>
        <time>2023-03-25T14:28:32Z</time>
      </trkpt>
      <trkpt lat="49.88504" lon="2.33839">
        <ele>25.5</ele>
        <time>2023-03-25T14:28:33Z</time>
      </trkpt>
      <trkpt lat="49.88504" lon="2.3384">
        <ele>25.5</ele>
        <time>2023-03-25T14:28:34Z</time>
      </trkpt>
      <trkpt lat="49.88503" lon="2.3384">
        <ele>25.5</ele>
        <time>2023-03-25T14:28:35Z</time>
      </trkpt>
      <trkpt lat="49.88502" lon="2.33841">
        <ele>25.5</ele>
        <time>2023-03-25T14:28:36Z</time>
      </trkpt>
      <trkpt lat="49.88501" lon="2.33843">
        <ele>25.5</ele>
        <time>2023-03-25T14:28:37Z</time>
      </trkpt>
      <trkpt lat="49.885" lon="2.33843">
        <ele>25.5</ele>
        <time>2023-03-25T14:28:38Z</time>
      </trkpt>
      <trkpt lat="49.88499" lon="2.33845">
        <ele>25.4</ele>
        <time>2023-03-25T14:28:40Z</time>
      </trkpt>
      <trkpt lat="49.88498" lon="2.33846">
        <ele>25.4</ele>
        <time>2023-03-25T14:28:41Z</time>
      </trkpt>
      <trkpt lat="49.88497" lon="2.33848">
        <ele>25.4</ele>
        <time>2023-03-25T14:28:42Z</time>
      </trkpt>
      <trkpt lat="49.88496" lon="2.33848">
        <ele>25.4</ele>
        <time>2023-03-25T14:28:43Z</time>
      </trkpt>
      <trkpt lat="49.88495" lon="2.33849">
        <ele>25.4</ele>
        <time>2023-03-25T14:28:44Z</time>
      </trkpt>
      <trkpt lat="49.88494" lon="2.33851">
        <ele>25.4</ele>
        <time>2023-03-25T14:28:45Z</time>
      </trkpt>
      <trkpt lat="49.88493" lon="2.33852">
        <ele>25.4</ele>
        <time>2023-03-25T14:28:46Z</time>
      </trkpt>
      <trkpt lat="49.88492" lon="2.33854">
        <ele>25.4</ele>
        <time>2023-03-25T14:28:47Z</time>
      </trkpt>
      <trkpt lat="49.88492" lon="2.33855">
        <ele>25.4</ele>
        <time>2023-03-25T14:28:49Z</time>
      </trkpt>
      <trkpt lat="49.88491" lon="2.33856">
        <ele>25.4</ele>
        <time>2023-03-25T14:28:50Z</time>
      </trkpt>
      <trkpt lat="49.8849" lon="2.33858">
        <ele>25.4</ele>
        <time>2023-03-25T14:28:51Z</time>
      </trkpt>
      <trkpt lat="49.88489" lon="2.33859">
        <ele>25.4</ele>
        <time>2023-03-25T14:28:52Z</time>
      </trkpt>
      <trkpt lat="49.88489" lon="2.3386">
        <ele>25.4</ele>
        <time>2023-03-25T14:28:53Z</time>
      </trkpt>
      <trkpt lat="49.88488" lon="2.33861">
        <ele>25.4</ele>
        <time>2023-03-25T14:28:54Z</time>
      </trkpt>
      <trkpt lat="49.88487" lon="2.33862">
        <ele>25.4</ele>
        <time>2023-03-25T14:28:55Z</time>
      </trkpt>
      <trkpt lat="49.88487" lon="2.33863">
        <ele>25.4</ele>
        <time>2023-03-25T14:28:57Z</time>
      </trkpt>
      <trkpt lat="49.88486" lon="2.33865">
        <ele>25.4</ele>
        <time>2023-03-25T14:28:58Z</time>
      </trkpt>
      <trkpt lat="49.88485" lon="2.33865">
        <ele>25.4</ele>
        <time>2023-03-25T14:28:59Z</time>
      </trkpt>
      <trkpt lat="49.88485" lon="2.33866">
        <ele>25.4</ele>
        <time>2023-03-25T14:29:01Z</time>
      </trkpt>
      <trkpt lat="49.88485" lon="2.33866">
        <ele>25.4</ele>
        <time>2023-03-25T14:29:02Z</time>
      </trkpt>
      <trkpt lat="49.88484" lon="2.33867">
        <ele>25.4</ele>
        <time>2023-03-25T14:29:03Z</time>
      </trkpt>
      <trkpt lat="49.88483" lon="2.33868">
        <ele>25.4</ele>
        <time>2023-03-25T14:29:04Z</time>
      </trkpt>
      <trkpt lat="49.88483" lon="2.33869">
        <ele>25.5</ele>
        <time>2023-03-25T14:29:05Z</time>
      </trkpt>
      <trkpt lat="49.88482" lon="2.3387">
        <ele>25.5</ele>
        <time>2023-03-25T14:29:06Z</time>
      </trkpt>
      <trkpt lat="49.88482" lon="2.33872">
        <ele>25.5</ele>
        <time>2023-03-25T14:29:08Z</time>
      </trkpt>
      <trkpt lat="49.88482" lon="2.33873">
        <ele>25.5</ele>
        <time>2023-03-25T14:29:09Z</time>
      </trkpt>
      <trkpt lat="49.88482" lon="2.33874">
        <ele>25.5</ele>
        <time>2023-03-25T14:29:11Z</time>
      </trkpt>
      <trkpt lat="49.88483" lon="2.33874">
        <ele>25.5</ele>
        <time>2023-03-25T14:29:12Z</time>
      </trkpt>
      <trkpt lat="49.88483" lon="2.33873">
        <ele>25.5</ele>
        <time>2023-03-25T14:29:13Z</time>
      </trkpt>
      <trkpt lat="49.88484" lon="2.33873">
        <ele>25.5</ele>
        <time>2023-03-25T14:29:15Z</time>
      </trkpt>
      <trkpt lat="49.88484" lon="2.33873">
        <ele>25.5</ele>
        <time>2023-03-25T14:29:16Z</time>
      </trkpt>
      <trkpt lat="49.88484" lon="2.33873">
        <ele>25.5</ele>
        <time>2023-03-25T14:29:18Z</time>
      </trkpt>
      <trkpt lat="49.88484" lon="2.33874">
        <ele>25.5</ele>
        <time>2023-03-25T14:29:19Z</time>
      </trkpt>
      <trkpt lat="49.88484" lon="2.33875">
        <ele>25.5</ele>
        <time>2023-03-25T14:29:20Z</time>
      </trkpt>
      <trkpt lat="49.88484" lon="2.33876">
        <ele>25.5</ele>
        <time>2023-03-25T14:29:21Z</time>
      </trkpt>
      <trkpt lat="49.88484" lon="2.33876">
        <ele>25.5</ele>
        <time>2023-03-25T14:29:22Z</time>
      </trkpt>
      <trkpt lat="49.88485" lon="2.33877">
        <ele>25.5</ele>
        <time>2023-03-25T14:29:23Z</time>
      </trkpt>
      <trkpt lat="49.88485" lon="2.33877">
        <ele>25.5</ele>
        <time>2023-03-25T14:29:25Z</time>
      </trkpt>
      <trkpt lat="49.88485" lon="2.33877">
        <ele>25.5</ele>
        <time>2023-03-25T14:29:26Z</time>
      </trkpt>
      <trkpt lat="49.88485" lon="2.33877">
        <ele>25.5</ele>
        <time>2023-03-25T14:29:28Z</time>
      </trkpt>
      <trkpt lat="49.88485" lon="2.33877">
        <ele>25.5</ele>
        <time>2023-03-25T14:29:29Z</time>
      </trkpt>
      <trkpt lat="49.88484" lon="2.33878">
        <ele>25.5</ele>
        <time>2023-03-25T14:29:30Z</time>
      </trkpt>
      <trkpt lat="49.88484" lon="2.33878">
        <ele>25.5</ele>
        <time>2023-03-25T14:29:31Z</time>
      </trkpt>
      <trkpt lat="49.88483" lon="2.33879">
        <ele>25.5</ele>
        <time>2023-03-25T14:29:32Z</time>
      </trkpt>
      <trkpt lat="49.88481" lon="2.3388">
        <ele>25.5</ele>
        <time>2023-03-25T14:29:33Z</time>
      </trkpt>
      <trkpt lat="49.8848" lon="2.33881">
        <ele>25.5</ele>
        <time>2023-03-25T14:29:35Z</time>
      </trkpt>
      <trkpt lat="49.88479" lon="2.33881">
        <ele>25.5</ele>
        <time>2023-03-25T14:29:36Z</time>
      </trkpt>
      <trkpt lat="49.88478" lon="2.33883">
        <ele>25.5</ele>
        <time>2023-03-25T14:29:37Z</time>
      </trkpt>
      <trkpt lat="49.88477" lon="2.33884">
        <ele>25.5</ele>
        <time>2023-03-25T14:29:38Z</time>
      </trkpt>
      <trkpt lat="49.88475" lon="2.33886">
        <ele>25.5</ele>
        <time>2023-03-25T14:29:39Z</time>
      </trkpt>
      <trkpt lat="49.88475" lon="2.33887">
        <ele>25.5</ele>
        <time>2023-03-25T14:29:40Z</time>
      </trkpt>
      <trkpt lat="49.88474" lon="2.33888">
        <ele>25.5</ele>
        <time>2023-03-25T14:29:41Z</time>
      </trkpt>
      <trkpt lat="49.88473" lon="2.3389">
        <ele>25.5</ele>
        <time>2023-03-25T14:29:42Z</time>
      </trkpt>
      <trkpt lat="49.88472" lon="2.33891">
        <ele>25.5</ele>
        <time>2023-03-25T14:29:43Z</time>
      </trkpt>
      <trkpt lat="49.88471" lon="2.33892">
        <ele>25.5</ele>
        <time>2023-03-25T14:29:45Z</time>
      </trkpt>
      <trkpt lat="49.8847" lon="2.33894">
        <ele>25.6</ele>
        <time>2023-03-25T14:29:46Z</time>
      </trkpt>
      <trkpt lat="49.8847" lon="2.33895">
        <ele>25.6</ele>
        <time>2023-03-25T14:29:47Z</time>
      </trkpt>
      <trkpt lat="49.88468" lon="2.33895">
        <ele>25.6</ele>
        <time>2023-03-25T14:29:48Z</time>
      </trkpt>
      <trkpt lat="49.88468" lon="2.33896">
        <ele>25.6</ele>
        <time>2023-03-25T14:29:49Z</time>
      </trkpt>
      <trkpt lat="49.88466" lon="2.33897">
        <ele>25.6</ele>
        <time>2023-03-25T14:29:50Z</time>
      </trkpt>
      <trkpt lat="49.88465" lon="2.33898">
        <ele>25.6</ele>
        <time>2023-03-25T14:29:51Z</time>
      </trkpt>
      <trkpt lat="49.88463" lon="2.33901">
        <ele>25.6</ele>
        <time>2023-03-25T14:29:52Z</time>
      </trkpt>
      <trkpt lat="49.88462" lon="2.33902">
        <ele>25.6</ele>
        <time>2023-03-25T14:29:54Z</time>
      </trkpt>
      <trkpt lat="49.88462" lon="2.33903">
        <ele>25.6</ele>
        <time>2023-03-25T14:29:55Z</time>
      </trkpt>
      <trkpt lat="49.88461" lon="2.33904">
        <ele>25.6</ele>
        <time>2023-03-25T14:29:56Z</time>
      </trkpt>
      <trkpt lat="49.8846" lon="2.33905">
        <ele>25.6</ele>
        <time>2023-03-25T14:29:57Z</time>
      </trkpt>
      <trkpt lat="49.88459" lon="2.33908">
        <ele>25.6</ele>
        <time>2023-03-25T14:29:58Z</time>
      </trkpt>
      <trkpt lat="49.88458" lon="2.33908">
        <ele>25.6</ele>
        <time>2023-03-25T14:29:59Z</time>
      </trkpt>
      <trkpt lat="49.88457" lon="2.33909">
        <ele>25.6</ele>
        <time>2023-03-25T14:30:00Z</time>
      </trkpt>
      <trkpt lat="49.88456" lon="2.33911">
        <ele>25.6</ele>
        <time>2023-03-25T14:30:01Z</time>
      </trkpt>
      <trkpt lat="49.88455" lon="2.33912">
        <ele>25.6</ele>
        <time>2023-03-25T14:30:02Z</time>
      </trkpt>
      <trkpt lat="49.88454" lon="2.33914">
        <ele>25.6</ele>
        <time>2023-03-25T14:30:04Z</time>
      </trkpt>
      <trkpt lat="49.88453" lon="2.33915">
        <ele>25.6</ele>
        <time>2023-03-25T14:30:05Z</time>
      </trkpt>
      <trkpt lat="49.88452" lon="2.33916">
        <ele>25.6</ele>
        <time>2023-03-25T14:30:06Z</time>
      </trkpt>
      <trkpt lat="49.88451" lon="2.33916">
        <ele>25.6</ele>
        <time>2023-03-25T14:30:07Z</time>
      </trkpt>
      <trkpt lat="49.88449" lon="2.33918">
        <ele>25.6</ele>
        <time>2023-03-25T14:30:08Z</time>
      </trkpt>
      <trkpt lat="49.88449" lon="2.33919">
        <ele>25.6</ele>
        <time>2023-03-25T14:30:09Z</time>
      </trkpt>
      <trkpt lat="49.88448" lon="2.33919">
        <ele>25.7</ele>
        <time>2023-03-25T14:30:10Z</time>
      </trkpt>
      <trkpt lat="49.88447" lon="2.3392">
        <ele>25.7</ele>
        <time>2023-03-25T14:30:11Z</time>
      </trkpt>
      <trkpt lat="49.88446" lon="2.33922">
        <ele>25.7</ele>
        <time>2023-03-25T14:30:12Z</time>
      </trkpt>
      <trkpt lat="49.88444" lon="2.33924">
        <ele>25.7</ele>
        <time>2023-03-25T14:30:13Z</time>
      </trkpt>
      <trkpt lat="49.88444" lon="2.33925">
        <ele>25.7</ele>
        <time>2023-03-25T14:30:15Z</time>
      </trkpt>
      <trkpt lat="49.88443" lon="2.33926">
        <ele>25.7</ele>
        <time>2023-03-25T14:30:16Z</time>
      </trkpt>
      <trkpt lat="49.88441" lon="2.33928">
        <ele>25.7</ele>
        <time>2023-03-25T14:30:17Z</time>
      </trkpt>
      <trkpt lat="49.88441" lon="2.33929">
        <ele>25.7</ele>
        <time>2023-03-25T14:30:18Z</time>
      </trkpt>
      <trkpt lat="49.8844" lon="2.33929">
        <ele>25.7</ele>
        <time>2023-03-25T14:30:19Z</time>
      </trkpt>
      <trkpt lat="49.88439" lon="2.3393">
        <ele>25.7</ele>
        <time>2023-03-25T14:30:20Z</time>
      </trkpt>
      <trkpt lat="49.88438" lon="2.33931">
        <ele>25.7</ele>
        <time>2023-03-25T14:30:21Z</time>
      </trkpt>
      <trkpt lat="49.88438" lon="2.33933">
        <ele>25.7</ele>
        <time>2023-03-25T14:30:23Z</time>
      </trkpt>
      <trkpt lat="49.88437" lon="2.33934">
        <ele>25.7</ele>
        <time>2023-03-25T14:30:24Z</time>
      </trkpt>
      <trkpt lat="49.88437" lon="2.33935">
        <ele>25.7</ele>
        <time>2023-03-25T14:30:25Z</time>
      </trkpt>
      <trkpt lat="49.88436" lon="2.33936">
        <ele>25.7</ele>
        <time>2023-03-25T14:30:26Z</time>
      </trkpt>
      <trkpt lat="49.88435" lon="2.33937">
        <ele>25.7</ele>
        <time>2023-03-25T14:30:27Z</time>
      </trkpt>
      <trkpt lat="49.88434" lon="2.33938">
        <ele>25.7</ele>
        <time>2023-03-25T14:30:28Z</time>
      </trkpt>
      <trkpt lat="49.88433" lon="2.33939">
        <ele>25.7</ele>
        <time>2023-03-25T14:30:29Z</time>
      </trkpt>
      <trkpt lat="49.88432" lon="2.3394">
        <ele>25.7</ele>
        <time>2023-03-25T14:30:30Z</time>
      </trkpt>
      <trkpt lat="49.88431" lon="2.33941">
        <ele>25.7</ele>
        <time>2023-03-25T14:30:31Z</time>
      </trkpt>
      <trkpt lat="49.8843" lon="2.33941">
        <ele>25.7</ele>
        <time>2023-03-25T14:30:32Z</time>
      </trkpt>
      <trkpt lat="49.88428" lon="2.33943">
        <ele>25.7</ele>
        <time>2023-03-25T14:30:34Z</time>
      </trkpt>
      <trkpt lat="49.88428" lon="2.33943">
        <ele>25.7</ele>
        <time>2023-03-25T14:30:35Z</time>
      </trkpt>
      <trkpt lat="49.88427" lon="2.33944">
        <ele>25.7</ele>
        <time>2023-03-25T14:30:36Z</time>
      </trkpt>
      <trkpt lat="49.88426" lon="2.33945">
        <ele>25.7</ele>
        <time>2023-03-25T14:30:37Z</time>
      </trkpt>
      <trkpt lat="49.88425" lon="2.33946">
        <ele>25.7</ele>
        <time>2023-03-25T14:30:38Z</time>
      </trkpt>
      <trkpt lat="49.88424" lon="2.33947">
        <ele>25.7</ele>
        <time>2023-03-25T14:30:39Z</time>
      </trkpt>
      <trkpt lat="49.88423" lon="2.33949">
        <ele>25.7</ele>
        <time>2023-03-25T14:30:40Z</time>
      </trkpt>
      <trkpt lat="49.88422" lon="2.3395">
        <ele>25.7</ele>
        <time>2023-03-25T14:30:41Z</time>
      </trkpt>
      <trkpt lat="49.88421" lon="2.33951">
        <ele>25.7</ele>
        <time>2023-03-25T14:30:42Z</time>
      </trkpt>
      <trkpt lat="49.88419" lon="2.33954">
        <ele>25.7</ele>
        <time>2023-03-25T14:30:43Z</time>
      </trkpt>
      <trkpt lat="49.88419" lon="2.33955">
        <ele>25.7</ele>
        <time>2023-03-25T14:30:45Z</time>
      </trkpt>
      <trkpt lat="49.88418" lon="2.33957">
        <ele>25.7</ele>
        <time>2023-03-25T14:30:46Z</time>
      </trkpt>
      <trkpt lat="49.88417" lon="2.33958">
        <ele>25.7</ele>
        <time>2023-03-25T14:30:47Z</time>
      </trkpt>
      <trkpt lat="49.88416" lon="2.33959">
        <ele>25.7</ele>
        <time>2023-03-25T14:30:48Z</time>
      </trkpt>
      <trkpt lat="49.88416" lon="2.3396">
        <ele>25.7</ele>
        <time>2023-03-25T14:30:49Z</time>
      </trkpt>
      <trkpt lat="49.88415" lon="2.33961">
        <ele>25.7</ele>
        <time>2023-03-25T14:30:50Z</time>
      </trkpt>
      <trkpt lat="49.88414" lon="2.33962">
        <ele>25.7</ele>
        <time>2023-03-25T14:30:51Z</time>
      </trkpt>
      <trkpt lat="49.88413" lon="2.33963">
        <ele>25.7</ele>
        <time>2023-03-25T14:30:52Z</time>
      </trkpt>
      <trkpt lat="49.88412" lon="2.33964">
        <ele>25.7</ele>
        <time>2023-03-25T14:30:53Z</time>
      </trkpt>
      <trkpt lat="49.8841" lon="2.33966">
        <ele>25.7</ele>
        <time>2023-03-25T14:30:54Z</time>
      </trkpt>
      <trkpt lat="49.88409" lon="2.33966">
        <ele>25.7</ele>
        <time>2023-03-25T14:30:56Z</time>
      </trkpt>
      <trkpt lat="49.88408" lon="2.33967">
        <ele>25.7</ele>
        <time>2023-03-25T14:30:57Z</time>
      </trkpt>
      <trkpt lat="49.88407" lon="2.33969">
        <ele>25.7</ele>
        <time>2023-03-25T14:30:58Z</time>
      </trkpt>
      <trkpt lat="49.88406" lon="2.33969">
        <ele>25.7</ele>
        <time>2023-03-25T14:30:59Z</time>
      </trkpt>
      <trkpt lat="49.88405" lon="2.33969">
        <ele>25.7</ele>
        <time>2023-03-25T14:31:00Z</time>
      </trkpt>
      <trkpt lat="49.88404" lon="2.3397">
        <ele>25.7</ele>
        <time>2023-03-25T14:31:01Z</time>
      </trkpt>
      <trkpt lat="49.88403" lon="2.3397">
        <ele>25.6</ele>
        <time>2023-03-25T14:31:02Z</time>
      </trkpt>
      <trkpt lat="49.88402" lon="2.33971">
        <ele>25.6</ele>
        <time>2023-03-25T14:31:03Z</time>
      </trkpt>
      <trkpt lat="49.88401" lon="2.33972">
        <ele>25.6</ele>
        <time>2023-03-25T14:31:05Z</time>
      </trkpt>
      <trkpt lat="49.884" lon="2.33973">
        <ele>25.6</ele>
        <time>2023-03-25T14:31:06Z</time>
      </trkpt>
      <trkpt lat="49.88399" lon="2.33974">
        <ele>25.6</ele>
        <time>2023-03-25T14:31:07Z</time>
      </trkpt>
      <trkpt lat="49.88397" lon="2.33976">
        <ele>25.6</ele>
        <time>2023-03-25T14:31:08Z</time>
      </trkpt>
      <trkpt lat="49.88397" lon="2.33978">
        <ele>25.6</ele>
        <time>2023-03-25T14:31:09Z</time>
      </trkpt>
      <trkpt lat="49.88396" lon="2.33979">
        <ele>25.6</ele>
        <time>2023-03-25T14:31:10Z</time>
      </trkpt>
      <trkpt lat="49.88395" lon="2.3398">
        <ele>25.6</ele>
        <time>2023-03-25T14:31:11Z</time>
      </trkpt>
      <trkpt lat="49.88394" lon="2.33982">
        <ele>25.6</ele>
        <time>2023-03-25T14:31:12Z</time>
      </trkpt>
      <trkpt lat="49.88393" lon="2.33984">
        <ele>25.6</ele>
        <time>2023-03-25T14:31:13Z</time>
      </trkpt>
      <trkpt lat="49.88391" lon="2.33986">
        <ele>25.6</ele>
        <time>2023-03-25T14:31:14Z</time>
      </trkpt>
      <trkpt lat="49.88391" lon="2.33987">
        <ele>25.6</ele>
        <time>2023-03-25T14:31:15Z</time>
      </trkpt>
      <trkpt lat="49.8839" lon="2.33988">
        <ele>25.6</ele>
        <time>2023-03-25T14:31:17Z</time>
      </trkpt>
      <trkpt lat="49.88389" lon="2.33989">
        <ele>25.6</ele>
        <time>2023-03-25T14:31:18Z</time>
      </trkpt>
      <trkpt lat="49.88389" lon="2.3399">
        <ele>25.6</ele>
        <time>2023-03-25T14:31:19Z</time>
      </trkpt>
      <trkpt lat="49.88388" lon="2.33992">
        <ele>25.6</ele>
        <time>2023-03-25T14:31:20Z</time>
      </trkpt>
      <trkpt lat="49.88386" lon="2.33994">
        <ele>25.6</ele>
        <time>2023-03-25T14:31:21Z</time>
      </trkpt>
      <trkpt lat="49.88386" lon="2.33994">
        <ele>25.6</ele>
        <time>2023-03-25T14:31:22Z</time>
      </trkpt>
      <trkpt lat="49.88385" lon="2.33995">
        <ele>25.6</ele>
        <time>2023-03-25T14:31:23Z</time>
      </trkpt>
      <trkpt lat="49.88384" lon="2.33996">
        <ele>25.6</ele>
        <time>2023-03-25T14:31:24Z</time>
      </trkpt>
      <trkpt lat="49.88384" lon="2.33997">
        <ele>25.6</ele>
        <time>2023-03-25T14:31:25Z</time>
      </trkpt>
      <trkpt lat="49.88383" lon="2.33998">
        <ele>25.6</ele>
        <time>2023-03-25T14:31:27Z</time>
      </trkpt>
      <trkpt lat="49.88382" lon="2.34">
        <ele>25.6</ele>
        <time>2023-03-25T14:31:28Z</time>
      </trkpt>
      <trkpt lat="49.88381" lon="2.34001">
        <ele>25.6</ele>
        <time>2023-03-25T14:31:29Z</time>
      </trkpt>
      <trkpt lat="49.88381" lon="2.34002">
        <ele>25.6</ele>
        <time>2023-03-25T14:31:30Z</time>
      </trkpt>
      <trkpt lat="49.8838" lon="2.34003">
        <ele>25.6</ele>
        <time>2023-03-25T14:31:31Z</time>
      </trkpt>
      <trkpt lat="49.88379" lon="2.34005">
        <ele>25.6</ele>
        <time>2023-03-25T14:31:32Z</time>
      </trkpt>
      <trkpt lat="49.88378" lon="2.34006">
        <ele>25.6</ele>
        <time>2023-03-25T14:31:33Z</time>
      </trkpt>
      <trkpt lat="49.88377" lon="2.34008">
        <ele>25.6</ele>
        <time>2023-03-25T14:31:34Z</time>
      </trkpt>
      <trkpt lat="49.88377" lon="2.34009">
        <ele>25.6</ele>
        <time>2023-03-25T14:31:35Z</time>
      </trkpt>
      <trkpt lat="49.88376" lon="2.3401">
        <ele>25.6</ele>
        <time>2023-03-25T14:31:36Z</time>
      </trkpt>
      <trkpt lat="49.88376" lon="2.34011">
        <ele>25.6</ele>
        <time>2023-03-25T14:31:38Z</time>
      </trkpt>
      <trkpt lat="49.88376" lon="2.34011">
        <ele>25.6</ele>
        <time>2023-03-25T14:31:39Z</time>
      </trkpt>
      <trkpt lat="49.88376" lon="2.34012">
        <ele>25.6</ele>
        <time>2023-03-25T14:31:40Z</time>
      </trkpt>
      <trkpt lat="49.88375" lon="2.34013">
        <ele>25.6</ele>
        <time>2023-03-25T14:31:41Z</time>
      </trkpt>
      <trkpt lat="49.88375" lon="2.34014">
        <ele>25.6</ele>
        <time>2023-03-25T14:31:42Z</time>
      </trkpt>
      <trkpt lat="49.88375" lon="2.34015">
        <ele>25.6</ele>
        <time>2023-03-25T14:31:43Z</time>
      </trkpt>
      <trkpt lat="49.88374" lon="2.34017">
        <ele>25.6</ele>
        <time>2023-03-25T14:31:44Z</time>
      </trkpt>
      <trkpt lat="49.88374" lon="2.34018">
        <ele>25.6</ele>
        <time>2023-03-25T14:31:45Z</time>
      </trkpt>
      <trkpt lat="49.88373" lon="2.3402">
        <ele>25.6</ele>
        <time>2023-03-25T14:31:46Z</time>
      </trkpt>
      <trkpt lat="49.88373" lon="2.34021">
        <ele>25.6</ele>
        <time>2023-03-25T14:31:48Z</time>
      </trkpt>
      <trkpt lat="49.88372" lon="2.34022">
        <ele>25.6</ele>
        <time>2023-03-25T14:31:49Z</time>
      </trkpt>
      <trkpt lat="49.88372" lon="2.34023">
        <ele>25.6</ele>
        <time>2023-03-25T14:31:50Z</time>
      </trkpt>
      <trkpt lat="49.88372" lon="2.34024">
        <ele>25.6</ele>
        <time>2023-03-25T14:31:51Z</time>
      </trkpt>
      <trkpt lat="49.8837" lon="2.34028">
        <ele>25.6</ele>
        <time>2023-03-25T14:31:52Z</time>
      </trkpt>
      <trkpt lat="49.8837" lon="2.3403">
        <ele>25.6</ele>
        <time>2023-03-25T14:31:53Z</time>
      </trkpt>
      <trkpt lat="49.8837" lon="2.34031">
        <ele>25.6</ele>
        <time>2023-03-25T14:31:54Z</time>
      </trkpt>
      <trkpt lat="49.88369" lon="2.34034">
        <ele>25.6</ele>
        <time>2023-03-25T14:31:55Z</time>
      </trkpt>
      <trkpt lat="49.88369" lon="2.34036">
        <ele>25.6</ele>
        <time>2023-03-25T14:31:57Z</time>
      </trkpt>
      <trkpt lat="49.88368" lon="2.34039">
        <ele>25.6</ele>
        <time>2023-03-25T14:31:58Z</time>
      </trkpt>
      <trkpt lat="49.88368" lon="2.34041">
        <ele>25.6</ele>
        <time>2023-03-25T14:31:59Z</time>
      </trkpt>
      <trkpt lat="49.88368" lon="2.34044">
        <ele>25.6</ele>
        <time>2023-03-25T14:32:01Z</time>
      </trkpt>
      <trkpt lat="49.88368" lon="2.34045">
        <ele>25.6</ele>
        <time>2023-03-25T14:32:02Z</time>
      </trkpt>
      <trkpt lat="49.88369" lon="2.34046">
        <ele>25.6</ele>
        <time>2023-03-25T14:32:03Z</time>
      </trkpt>
      <trkpt lat="49.88369" lon="2.34046">
        <ele>25.6</ele>
        <time>2023-03-25T14:32:05Z</time>
      </trkpt>
      <trkpt lat="49.88369" lon="2.34047">
        <ele>25.6</ele>
        <time>2023-03-25T14:32:06Z</time>
      </trkpt>
      <trkpt lat="49.88369" lon="2.34046">
        <ele>25.6</ele>
        <time>2023-03-25T14:32:08Z</time>
      </trkpt>
      <trkpt lat="49.88369" lon="2.34047">
        <ele>25.6</ele>
        <time>2023-03-25T14:32:09Z</time>
      </trkpt>
      <trkpt lat="49.88369" lon="2.34047">
        <ele>25.6</ele>
        <time>2023-03-25T14:32:10Z</time>
      </trkpt>
      <trkpt lat="49.88369" lon="2.34048">
        <ele>25.6</ele>
        <time>2023-03-25T14:32:12Z</time>
      </trkpt>
      <trkpt lat="49.88369" lon="2.34048">
        <ele>25.6</ele>
        <time>2023-03-25T14:32:13Z</time>
      </trkpt>
      <trkpt lat="49.88369" lon="2.34049">
        <ele>25.6</ele>
        <time>2023-03-25T14:32:14Z</time>
      </trkpt>
      <trkpt lat="49.88369" lon="2.34049">
        <ele>25.6</ele>
        <time>2023-03-25T14:32:16Z</time>
      </trkpt>
      <trkpt lat="49.88369" lon="2.3405">
        <ele>25.6</ele>
        <time>2023-03-25T14:32:17Z</time>
      </trkpt>
      <trkpt lat="49.88368" lon="2.34051">
        <ele>25.6</ele>
        <time>2023-03-25T14:32:18Z</time>
      </trkpt>
      <trkpt lat="49.88368" lon="2.34052">
        <ele>25.6</ele>
        <time>2023-03-25T14:32:20Z</time>
      </trkpt>
      <trkpt lat="49.88368" lon="2.34053">
        <ele>25.6</ele>
        <time>2023-03-25T14:32:21Z</time>
      </trkpt>
      <trkpt lat="49.88368" lon="2.34053">
        <ele>25.6</ele>
        <time>2023-03-25T14:32:23Z</time>
      </trkpt>
      <trkpt lat="49.88369" lon="2.34053">
        <ele>25.6</ele>
        <time>2023-03-25T14:32:24Z</time>
      </trkpt>
      <trkpt lat="49.88369" lon="2.34053">
        <ele>25.6</ele>
        <time>2023-03-25T14:32:25Z</time>
      </trkpt>
      <trkpt lat="49.88369" lon="2.34052">
        <ele>25.6</ele>
        <time>2023-03-25T14:32:27Z</time>
      </trkpt>
      <trkpt lat="49.88369" lon="2.34052">
        <ele>25.6</ele>
        <time>2023-03-25T14:32:28Z</time>
      </trkpt>
      <trkpt lat="49.88369" lon="2.34053">
        <ele>25.6</ele>
        <time>2023-03-25T14:32:29Z</time>
      </trkpt>
      <trkpt lat="49.88368" lon="2.34053">
        <ele>25.6</ele>
        <time>2023-03-25T14:32:30Z</time>
      </trkpt>
      <trkpt lat="49.88368" lon="2.34054">
        <ele>25.6</ele>
        <time>2023-03-25T14:32:31Z</time>
      </trkpt>
      <trkpt lat="49.88368" lon="2.34055">
        <ele>25.6</ele>
        <time>2023-03-25T14:32:32Z</time>
      </trkpt>
      <trkpt lat="49.88368" lon="2.34056">
        <ele>25.6</ele>
        <time>2023-03-25T14:32:33Z</time>
      </trkpt>
      <trkpt lat="49.88368" lon="2.34057">
        <ele>25.6</ele>
        <time>2023-03-25T14:32:35Z</time>
      </trkpt>
      <trkpt lat="49.88368" lon="2.34058">
        <ele>25.6</ele>
        <time>2023-03-25T14:32:36Z</time>
      </trkpt>
      <trkpt lat="49.88368" lon="2.34058">
        <ele>25.6</ele>
        <time>2023-03-25T14:32:37Z</time>
      </trkpt>
      <trkpt lat="49.88368" lon="2.34057">
        <ele>25.6</ele>
        <time>2023-03-25T14:32:39Z</time>
      </trkpt>
      <trkpt lat="49.88368" lon="2.34057">
        <ele>25.6</ele>
        <time>2023-03-25T14:32:40Z</time>
      </trkpt>
      <trkpt lat="49.88367" lon="2.34058">
        <ele>25.6</ele>
        <time>2023-03-25T14:32:41Z</time>
      </trkpt>
      <trkpt lat="49.88367" lon="2.34058">
        <ele>25.6</ele>
        <time>2023-03-25T14:32:42Z</time>
      </trkpt>
      <trkpt lat="49.88367" lon="2.34059">
        <ele>25.6</ele>
        <time>2023-03-25T14:32:43Z</time>
      </trkpt>
      <trkpt lat="49.88367" lon="2.3406">
        <ele>25.6</ele>
        <time>2023-03-25T14:32:44Z</time>
      </trkpt>
      <trkpt lat="49.88366" lon="2.3406">
        <ele>25.6</ele>
        <time>2023-03-25T14:32:45Z</time>
      </trkpt>
      <trkpt lat="49.88366" lon="2.34061">
        <ele>25.6</ele>
        <time>2023-03-25T14:32:47Z</time>
      </trkpt>
      <trkpt lat="49.88366" lon="2.34062">
        <ele>25.6</ele>
        <time>2023-03-25T14:32:48Z</time>
      </trkpt>
      <trkpt lat="49.88365" lon="2.34063">
        <ele>25.6</ele>
        <time>2023-03-25T14:32:49Z</time>
      </trkpt>
      <trkpt lat="49.88364" lon="2.34065">
        <ele>25.6</ele>
        <time>2023-03-25T14:32:50Z</time>
      </trkpt>
      <trkpt lat="49.88364" lon="2.34066">
        <ele>25.6</ele>
        <time>2023-03-25T14:32:51Z</time>
      </trkpt>
      <trkpt lat="49.88363" lon="2.34067">
        <ele>25.6</ele>
        <time>2023-03-25T14:32:52Z</time>
      </trkpt>
      <trkpt lat="49.88363" lon="2.34068">
        <ele>25.6</ele>
        <time>2023-03-25T14:32:53Z</time>
      </trkpt>
      <trkpt lat="49.88363" lon="2.34069">
        <ele>25.6</ele>
        <time>2023-03-25T14:32:54Z</time>
      </trkpt>
      <trkpt lat="49.88362" lon="2.34071">
        <ele>25.6</ele>
        <time>2023-03-25T14:32:56Z</time>
      </trkpt>
      <trkpt lat="49.88362" lon="2.34072">
        <ele>25.6</ele>
        <time>2023-03-25T14:32:57Z</time>
      </trkpt>
      <trkpt lat="49.88362" lon="2.34073">
        <ele>25.6</ele>
        <time>2023-03-25T14:32:58Z</time>
      </trkpt>
      <trkpt lat="49.88361" lon="2.34075">
        <ele>25.6</ele>
        <time>2023-03-25T14:32:59Z</time>
      </trkpt>
      <trkpt lat="49.8836" lon="2.34077">
        <ele>25.7</ele>
        <time>2023-03-25T14:33:00Z</time>
      </trkpt>
      <trkpt lat="49.8836" lon="2.3408">
        <ele>25.7</ele>
        <time>2023-03-25T14:33:01Z</time>
      </trkpt>
      <trkpt lat="49.88359" lon="2.34081">
        <ele>25.7</ele>
        <time>2023-03-25T14:33:02Z</time>
      </trkpt>
      <trkpt lat="49.88359" lon="2.34082">
        <ele>25.7</ele>
        <time>2023-03-25T14:33:04Z</time>
      </trkpt>
      <trkpt lat="49.88358" lon="2.34084">
        <ele>25.7</ele>
        <time>2023-03-25T14:33:05Z</time>
      </trkpt>
      <trkpt lat="49.88358" lon="2.34085">
        <ele>25.7</ele>
        <time>2023-03-25T14:33:06Z</time>
      </trkpt>
      <trkpt lat="49.88357" lon="2.34087">
        <ele>25.7</ele>
        <time>2023-03-25T14:33:07Z</time>
      </trkpt>
      <trkpt lat="49.88357" lon="2.34088">
        <ele>25.7</ele>
        <time>2023-03-25T14:33:08Z</time>
      </trkpt>
      <trkpt lat="49.88356" lon="2.3409">
        <ele>25.7</ele>
        <time>2023-03-25T14:33:09Z</time>
      </trkpt>
      <trkpt lat="49.88355" lon="2.34092">
        <ele>25.7</ele>
        <time>2023-03-25T14:33:11Z</time>
      </trkpt>
      <trkpt lat="49.88355" lon="2.34094">
        <ele>25.7</ele>
        <time>2023-03-25T14:33:12Z</time>
      </trkpt>
      <trkpt lat="49.88354" lon="2.34096">
        <ele>25.7</ele>
        <time>2023-03-25T14:33:13Z</time>
      </trkpt>
      <trkpt lat="49.88353" lon="2.34099">
        <ele>25.7</ele>
        <time>2023-03-25T14:33:14Z</time>
      </trkpt>
      <trkpt lat="49.88353" lon="2.341">
        <ele>25.7</ele>
        <time>2023-03-25T14:33:15Z</time>
      </trkpt>
      <trkpt lat="49.88352" lon="2.34102">
        <ele>25.7</ele>
        <time>2023-03-25T14:33:16Z</time>
      </trkpt>
      <trkpt lat="49.88352" lon="2.34104">
        <ele>25.7</ele>
        <time>2023-03-25T14:33:17Z</time>
      </trkpt>
      <trkpt lat="49.88351" lon="2.34106">
        <ele>25.7</ele>
        <time>2023-03-25T14:33:19Z</time>
      </trkpt>
      <trkpt lat="49.8835" lon="2.34109">
        <ele>25.7</ele>
        <time>2023-03-25T14:33:20Z</time>
      </trkpt>
      <trkpt lat="49.88349" lon="2.34111">
        <ele>25.7</ele>
        <time>2023-03-25T14:33:21Z</time>
      </trkpt>
      <trkpt lat="49.88349" lon="2.34113">
        <ele>25.7</ele>
        <time>2023-03-25T14:33:22Z</time>
      </trkpt>
      <trkpt lat="49.88348" lon="2.34115">
        <ele>25.7</ele>
        <time>2023-03-25T14:33:23Z</time>
      </trkpt>
      <trkpt lat="49.88348" lon="2.34118">
        <ele>25.7</ele>
        <time>2023-03-25T14:33:24Z</time>
      </trkpt>
      <trkpt lat="49.88347" lon="2.34119">
        <ele>25.7</ele>
        <time>2023-03-25T14:33:26Z</time>
      </trkpt>
      <trkpt lat="49.88347" lon="2.34121">
        <ele>25.7</ele>
        <time>2023-03-25T14:33:27Z</time>
      </trkpt>
      <trkpt lat="49.88347" lon="2.34123">
        <ele>25.7</ele>
        <time>2023-03-25T14:33:28Z</time>
      </trkpt>
      <trkpt lat="49.88346" lon="2.34125">
        <ele>25.7</ele>
        <time>2023-03-25T14:33:29Z</time>
      </trkpt>
      <trkpt lat="49.88346" lon="2.34127">
        <ele>25.7</ele>
        <time>2023-03-25T14:33:30Z</time>
      </trkpt>
      <trkpt lat="49.88346" lon="2.34129">
        <ele>25.7</ele>
        <time>2023-03-25T14:33:31Z</time>
      </trkpt>
      <trkpt lat="49.88346" lon="2.3413">
        <ele>25.7</ele>
        <time>2023-03-25T14:33:32Z</time>
      </trkpt>
      <trkpt lat="49.88346" lon="2.34132">
        <ele>25.7</ele>
        <time>2023-03-25T14:33:34Z</time>
      </trkpt>
      <trkpt lat="49.88346" lon="2.34134">
        <ele>25.7</ele>
        <time>2023-03-25T14:33:35Z</time>
      </trkpt>
      <trkpt lat="49.88346" lon="2.34136">
        <ele>25.7</ele>
        <time>2023-03-25T14:33:36Z</time>
      </trkpt>
      <trkpt lat="49.88346" lon="2.34137">
        <ele>25.7</ele>
        <time>2023-03-25T14:33:37Z</time>
      </trkpt>
      <trkpt lat="49.88345" lon="2.34139">
        <ele>25.7</ele>
        <time>2023-03-25T14:33:38Z</time>
      </trkpt>
      <trkpt lat="49.88345" lon="2.34141">
        <ele>25.7</ele>
        <time>2023-03-25T14:33:39Z</time>
      </trkpt>
      <trkpt lat="49.88344" lon="2.34144">
        <ele>25.7</ele>
        <time>2023-03-25T14:33:40Z</time>
      </trkpt>
      <trkpt lat="49.88344" lon="2.34145">
        <ele>25.7</ele>
        <time>2023-03-25T14:33:41Z</time>
      </trkpt>
      <trkpt lat="49.88344" lon="2.34147">
        <ele>25.7</ele>
        <time>2023-03-25T14:33:43Z</time>
      </trkpt>
      <trkpt lat="49.88344" lon="2.34148">
        <ele>25.7</ele>
        <time>2023-03-25T14:33:44Z</time>
      </trkpt>
      <trkpt lat="49.88344" lon="2.3415">
        <ele>25.7</ele>
        <time>2023-03-25T14:33:45Z</time>
      </trkpt>
      <trkpt lat="49.88343" lon="2.34151">
        <ele>25.7</ele>
        <time>2023-03-25T14:33:46Z</time>
      </trkpt>
      <trkpt lat="49.88343" lon="2.34155">
        <ele>25.7</ele>
        <time>2023-03-25T14:33:47Z</time>
      </trkpt>
      <trkpt lat="49.88343" lon="2.34156">
        <ele>25.7</ele>
        <time>2023-03-25T14:33:48Z</time>
      </trkpt>
      <trkpt lat="49.88342" lon="2.34157">
        <ele>25.7</ele>
        <time>2023-03-25T14:33:49Z</time>
      </trkpt>
      <trkpt lat="49.88342" lon="2.34159">
        <ele>25.7</ele>
        <time>2023-03-25T14:33:50Z</time>
      </trkpt>
      <trkpt lat="49.88342" lon="2.3416">
        <ele>25.7</ele>
        <time>2023-03-25T14:33:52Z</time>
      </trkpt>
      <trkpt lat="49.88341" lon="2.34162">
        <ele>25.7</ele>
        <time>2023-03-25T14:33:53Z</time>
      </trkpt>
      <trkpt lat="49.88341" lon="2.34165">
        <ele>25.7</ele>
        <time>2023-03-25T14:33:54Z</time>
      </trkpt>
      <trkpt lat="49.8834" lon="2.34167">
        <ele>25.7</ele>
        <time>2023-03-25T14:33:55Z</time>
      </trkpt>
      <trkpt lat="49.8834" lon="2.34168">
        <ele>25.7</ele>
        <time>2023-03-25T14:33:56Z</time>
      </trkpt>
      <trkpt lat="49.8834" lon="2.3417">
        <ele>25.7</ele>
        <time>2023-03-25T14:33:57Z</time>
      </trkpt>
      <trkpt lat="49.88339" lon="2.34172">
        <ele>25.7</ele>
        <time>2023-03-25T14:33:58Z</time>
      </trkpt>
      <trkpt lat="49.88339" lon="2.34174">
        <ele>25.7</ele>
        <time>2023-03-25T14:34:00Z</time>
      </trkpt>
      <trkpt lat="49.88339" lon="2.34175">
        <ele>25.7</ele>
        <time>2023-03-25T14:34:01Z</time>
      </trkpt>
      <trkpt lat="49.88338" lon="2.34177">
        <ele>25.7</ele>
        <time>2023-03-25T14:34:02Z</time>
      </trkpt>
      <trkpt lat="49.88338" lon="2.34179">
        <ele>25.7</ele>
        <time>2023-03-25T14:34:03Z</time>
      </trkpt>
      <trkpt lat="49.88338" lon="2.34181">
        <ele>25.7</ele>
        <time>2023-03-25T14:34:04Z</time>
      </trkpt>
      <trkpt lat="49.88338" lon="2.34183">
        <ele>25.7</ele>
        <time>2023-03-25T14:34:05Z</time>
      </trkpt>
      <trkpt lat="49.88338" lon="2.34185">
        <ele>25.7</ele>
        <time>2023-03-25T14:34:07Z</time>
      </trkpt>
      <trkpt lat="49.88338" lon="2.34187">
        <ele>25.7</ele>
        <time>2023-03-25T14:34:08Z</time>
      </trkpt>
      <trkpt lat="49.88337" lon="2.34188">
        <ele>25.7</ele>
        <time>2023-03-25T14:34:09Z</time>
      </trkpt>
      <trkpt lat="49.88337" lon="2.3419">
        <ele>25.7</ele>
        <time>2023-03-25T14:34:10Z</time>
      </trkpt>
      <trkpt lat="49.88337" lon="2.34192">
        <ele>25.7</ele>
        <time>2023-03-25T14:34:11Z</time>
      </trkpt>
      <trkpt lat="49.88336" lon="2.34195">
        <ele>25.7</ele>
        <time>2023-03-25T14:34:12Z</time>
      </trkpt>
      <trkpt lat="49.88336" lon="2.34196">
        <ele>25.7</ele>
        <time>2023-03-25T14:34:13Z</time>
      </trkpt>
      <trkpt lat="49.88335" lon="2.34198">
        <ele>25.7</ele>
        <time>2023-03-25T14:34:14Z</time>
      </trkpt>
      <trkpt lat="49.88335" lon="2.34199">
        <ele>25.7</ele>
        <time>2023-03-25T14:34:15Z</time>
      </trkpt>
      <trkpt lat="49.88335" lon="2.342">
        <ele>25.8</ele>
        <time>2023-03-25T14:34:17Z</time>
      </trkpt>
      <trkpt lat="49.88334" lon="2.34202">
        <ele>25.8</ele>
        <time>2023-03-25T14:34:18Z</time>
      </trkpt>
      <trkpt lat="49.88334" lon="2.34203">
        <ele>25.8</ele>
        <time>2023-03-25T14:34:19Z</time>
      </trkpt>
      <trkpt lat="49.88333" lon="2.34205">
        <ele>25.8</ele>
        <time>2023-03-25T14:34:20Z</time>
      </trkpt>
      <trkpt lat="49.88333" lon="2.34206">
        <ele>25.8</ele>
        <time>2023-03-25T14:34:21Z</time>
      </trkpt>
      <trkpt lat="49.88332" lon="2.34208">
        <ele>25.8</ele>
        <time>2023-03-25T14:34:22Z</time>
      </trkpt>
      <trkpt lat="49.88331" lon="2.3421">
        <ele>25.8</ele>
        <time>2023-03-25T14:34:23Z</time>
      </trkpt>
      <trkpt lat="49.88331" lon="2.34211">
        <ele>25.8</ele>
        <time>2023-03-25T14:34:24Z</time>
      </trkpt>
      <trkpt lat="49.88331" lon="2.34213">
        <ele>25.8</ele>
        <time>2023-03-25T14:34:26Z</time>
      </trkpt>
      <trkpt lat="49.88331" lon="2.34215">
        <ele>25.8</ele>
        <time>2023-03-25T14:34:27Z</time>
      </trkpt>
      <trkpt lat="49.8833" lon="2.34217">
        <ele>25.8</ele>
        <time>2023-03-25T14:34:28Z</time>
      </trkpt>
      <trkpt lat="49.88329" lon="2.34219">
        <ele>25.8</ele>
        <time>2023-03-25T14:34:29Z</time>
      </trkpt>
      <trkpt lat="49.88329" lon="2.3422">
        <ele>25.8</ele>
        <time>2023-03-25T14:34:30Z</time>
      </trkpt>
      <trkpt lat="49.88328" lon="2.3422">
        <ele>25.8</ele>
        <time>2023-03-25T14:34:31Z</time>
      </trkpt>
      <trkpt lat="49.88328" lon="2.34221">
        <ele>25.9</ele>
        <time>2023-03-25T14:34:33Z</time>
      </trkpt>
      <trkpt lat="49.88328" lon="2.34222">
        <ele>25.9</ele>
        <time>2023-03-25T14:34:34Z</time>
      </trkpt>
      <trkpt lat="49.88327" lon="2.34224">
        <ele>25.9</ele>
        <time>2023-03-25T14:34:35Z</time>
      </trkpt>
      <trkpt lat="49.88327" lon="2.34226">
        <ele>25.9</ele>
        <time>2023-03-25T14:34:36Z</time>
      </trkpt>
      <trkpt lat="49.88327" lon="2.34227">
        <ele>25.9</ele>
        <time>2023-03-25T14:34:37Z</time>
      </trkpt>
      <trkpt lat="49.88327" lon="2.3423">
        <ele>25.9</ele>
        <time>2023-03-25T14:34:38Z</time>
      </trkpt>
      <trkpt lat="49.88327" lon="2.3423">
        <ele>25.9</ele>
        <time>2023-03-25T14:34:39Z</time>
      </trkpt>
      <trkpt lat="49.88326" lon="2.34231">
        <ele>25.9</ele>
        <time>2023-03-25T14:34:41Z</time>
      </trkpt>
      <trkpt lat="49.88326" lon="2.34233">
        <ele>25.9</ele>
        <time>2023-03-25T14:34:42Z</time>
      </trkpt>
      <trkpt lat="49.88325" lon="2.34234">
        <ele>25.9</ele>
        <time>2023-03-25T14:34:43Z</time>
      </trkpt>
      <trkpt lat="49.88325" lon="2.34236">
        <ele>25.9</ele>
        <time>2023-03-25T14:34:44Z</time>
      </trkpt>
      <trkpt lat="49.88325" lon="2.34237">
        <ele>25.9</ele>
        <time>2023-03-25T14:34:45Z</time>
      </trkpt>
      <trkpt lat="49.88325" lon="2.34238">
        <ele>25.9</ele>
        <time>2023-03-25T14:34:46Z</time>
      </trkpt>
      <trkpt lat="49.88325" lon="2.3424">
        <ele>25.9</ele>
        <time>2023-03-25T14:34:47Z</time>
      </trkpt>
      <trkpt lat="49.88324" lon="2.34241">
        <ele>25.9</ele>
        <time>2023-03-25T14:34:48Z</time>
      </trkpt>
      <trkpt lat="49.88324" lon="2.34243">
        <ele>25.9</ele>
        <time>2023-03-25T14:34:50Z</time>
      </trkpt>
      <trkpt lat="49.88324" lon="2.34245">
        <ele>25.9</ele>
        <time>2023-03-25T14:34:51Z</time>
      </trkpt>
      <trkpt lat="49.88324" lon="2.34246">
        <ele>25.9</ele>
        <time>2023-03-25T14:34:52Z</time>
      </trkpt>
      <trkpt lat="49.88323" lon="2.34248">
        <ele>26</ele>
        <time>2023-03-25T14:34:53Z</time>
      </trkpt>
      <trkpt lat="49.88323" lon="2.3425">
        <ele>26</ele>
        <time>2023-03-25T14:34:54Z</time>
      </trkpt>
      <trkpt lat="49.88323" lon="2.34251">
        <ele>26</ele>
        <time>2023-03-25T14:34:55Z</time>
      </trkpt>
      <trkpt lat="49.88323" lon="2.34254">
        <ele>26</ele>
        <time>2023-03-25T14:34:57Z</time>
      </trkpt>
      <trkpt lat="49.88323" lon="2.34255">
        <ele>26</ele>
        <time>2023-03-25T14:34:58Z</time>
      </trkpt>
      <trkpt lat="49.88322" lon="2.34256">
        <ele>26</ele>
        <time>2023-03-25T14:34:59Z</time>
      </trkpt>
      <trkpt lat="49.88322" lon="2.34258">
        <ele>26</ele>
        <time>2023-03-25T14:35:00Z</time>
      </trkpt>
      <trkpt lat="49.88322" lon="2.3426">
        <ele>25.9</ele>
        <time>2023-03-25T14:35:01Z</time>
      </trkpt>
      <trkpt lat="49.88322" lon="2.34261">
        <ele>25.9</ele>
        <time>2023-03-25T14:35:02Z</time>
      </trkpt>
      <trkpt lat="49.88322" lon="2.34264">
        <ele>25.9</ele>
        <time>2023-03-25T14:35:04Z</time>
      </trkpt>
      <trkpt lat="49.88321" lon="2.34265">
        <ele>25.9</ele>
        <time>2023-03-25T14:35:05Z</time>
      </trkpt>
      <trkpt lat="49.88321" lon="2.34266">
        <ele>25.9</ele>
        <time>2023-03-25T14:35:06Z</time>
      </trkpt>
      <trkpt lat="49.88321" lon="2.34268">
        <ele>25.9</ele>
        <time>2023-03-25T14:35:07Z</time>
      </trkpt>
      <trkpt lat="49.8832" lon="2.34269">
        <ele>25.9</ele>
        <time>2023-03-25T14:35:08Z</time>
      </trkpt>
      <trkpt lat="49.8832" lon="2.34271">
        <ele>25.9</ele>
        <time>2023-03-25T14:35:10Z</time>
      </trkpt>
      <trkpt lat="49.8832" lon="2.34272">
        <ele>25.9</ele>
        <time>2023-03-25T14:35:11Z</time>
      </trkpt>
      <trkpt lat="49.88319" lon="2.34274">
        <ele>25.9</ele>
        <time>2023-03-25T14:35:12Z</time>
      </trkpt>
      <trkpt lat="49.88319" lon="2.34275">
        <ele>25.9</ele>
        <time>2023-03-25T14:35:13Z</time>
      </trkpt>
      <trkpt lat="49.88319" lon="2.34276">
        <ele>25.9</ele>
        <time>2023-03-25T14:35:14Z</time>
      </trkpt>
      <trkpt lat="49.88318" lon="2.34277">
        <ele>25.9</ele>
        <time>2023-03-25T14:35:15Z</time>
      </trkpt>
      <trkpt lat="49.88318" lon="2.34278">
        <ele>25.8</ele>
        <time>2023-03-25T14:35:16Z</time>
      </trkpt>
      <trkpt lat="49.88318" lon="2.34279">
        <ele>25.8</ele>
        <time>2023-03-25T14:35:18Z</time>
      </trkpt>
      <trkpt lat="49.88318" lon="2.34281">
        <ele>25.8</ele>
        <time>2023-03-25T14:35:19Z</time>
      </trkpt>
      <trkpt lat="49.88317" lon="2.34282">
        <ele>25.8</ele>
        <time>2023-03-25T14:35:20Z</time>
      </trkpt>
      <trkpt lat="49.88317" lon="2.34283">
        <ele>25.8</ele>
        <time>2023-03-25T14:35:21Z</time>
      </trkpt>
      <trkpt lat="49.88317" lon="2.34284">
        <ele>25.8</ele>
        <time>2023-03-25T14:35:22Z</time>
      </trkpt>
      <trkpt lat="49.88317" lon="2.34285">
        <ele>25.8</ele>
        <time>2023-03-25T14:35:23Z</time>
      </trkpt>
      <trkpt lat="49.88317" lon="2.34286">
        <ele>25.8</ele>
        <time>2023-03-25T14:35:25Z</time>
      </trkpt>
      <trkpt lat="49.88317" lon="2.34287">
        <ele>25.8</ele>
        <time>2023-03-25T14:35:26Z</time>
      </trkpt>
      <trkpt lat="49.88317" lon="2.34288">
        <ele>25.8</ele>
        <time>2023-03-25T14:35:27Z</time>
      </trkpt>
      <trkpt lat="49.88316" lon="2.34289">
        <ele>25.8</ele>
        <time>2023-03-25T14:35:28Z</time>
      </trkpt>
      <trkpt lat="49.88316" lon="2.34289">
        <ele>25.8</ele>
        <time>2023-03-25T14:35:29Z</time>
      </trkpt>
      <trkpt lat="49.88316" lon="2.34289">
        <ele>25.8</ele>
        <time>2023-03-25T14:35:30Z</time>
      </trkpt>
      <trkpt lat="49.88316" lon="2.34289">
        <ele>25.8</ele>
        <time>2023-03-25T14:35:32Z</time>
      </trkpt>
      <trkpt lat="49.88315" lon="2.3429">
        <ele>25.8</ele>
        <time>2023-03-25T14:35:33Z</time>
      </trkpt>
      <trkpt lat="49.88315" lon="2.34291">
        <ele>25.8</ele>
        <time>2023-03-25T14:35:34Z</time>
      </trkpt>
      <trkpt lat="49.88315" lon="2.34291">
        <ele>25.8</ele>
        <time>2023-03-25T14:35:35Z</time>
      </trkpt>
      <trkpt lat="49.88315" lon="2.34291">
        <ele>25.8</ele>
        <time>2023-03-25T14:35:36Z</time>
      </trkpt>
      <trkpt lat="49.88315" lon="2.34291">
        <ele>25.8</ele>
        <time>2023-03-25T14:35:37Z</time>
      </trkpt>
      <trkpt lat="49.88315" lon="2.3429">
        <ele>25.8</ele>
        <time>2023-03-25T14:35:38Z</time>
      </trkpt>
      <trkpt lat="49.88315" lon="2.34291">
        <ele>25.8</ele>
        <time>2023-03-25T14:35:40Z</time>
      </trkpt>
      <trkpt lat="49.88315" lon="2.34291">
        <ele>25.8</ele>
        <time>2023-03-25T14:35:41Z</time>
      </trkpt>
      <trkpt lat="49.88314" lon="2.34292">
        <ele>25.8</ele>
        <time>2023-03-25T14:35:42Z</time>
      </trkpt>
      <trkpt lat="49.88314" lon="2.34291">
        <ele>25.8</ele>
        <time>2023-03-25T14:35:43Z</time>
      </trkpt>
      <trkpt lat="49.88314" lon="2.34292">
        <ele>25.8</ele>
        <time>2023-03-25T14:35:44Z</time>
      </trkpt>
      <trkpt lat="49.88314" lon="2.34292">
        <ele>25.8</ele>
        <time>2023-03-25T14:35:45Z</time>
      </trkpt>
      <trkpt lat="49.88313" lon="2.34293">
        <ele>25.8</ele>
        <time>2023-03-25T14:35:47Z</time>
      </trkpt>
      <trkpt lat="49.88313" lon="2.34295">
        <ele>25.8</ele>
        <time>2023-03-25T14:35:48Z</time>
      </trkpt>
      <trkpt lat="49.88312" lon="2.34297">
        <ele>25.8</ele>
        <time>2023-03-25T14:35:49Z</time>
      </trkpt>
      <trkpt lat="49.88312" lon="2.34299">
        <ele>25.8</ele>
        <time>2023-03-25T14:35:50Z</time>
      </trkpt>
      <trkpt lat="49.88312" lon="2.34302">
        <ele>25.7</ele>
        <time>2023-03-25T14:35:51Z</time>
      </trkpt>
      <trkpt lat="49.88312" lon="2.34303">
        <ele>25.7</ele>
        <time>2023-03-25T14:35:52Z</time>
      </trkpt>
      <trkpt lat="49.88312" lon="2.34305">
        <ele>25.7</ele>
        <time>2023-03-25T14:35:53Z</time>
      </trkpt>
      <trkpt lat="49.88311" lon="2.34308">
        <ele>25.7</ele>
        <time>2023-03-25T14:35:55Z</time>
      </trkpt>
      <trkpt lat="49.88311" lon="2.3431">
        <ele>25.7</ele>
        <time>2023-03-25T14:35:56Z</time>
      </trkpt>
      <trkpt lat="49.8831" lon="2.34315">
        <ele>25.7</ele>
        <time>2023-03-25T14:35:57Z</time>
      </trkpt>
      <trkpt lat="49.8831" lon="2.34316">
        <ele>25.7</ele>
        <time>2023-03-25T14:35:58Z</time>
      </trkpt>
      <trkpt lat="49.8831" lon="2.34322">
        <ele>25.7</ele>
        <time>2023-03-25T14:35:59Z</time>
      </trkpt>
      <trkpt lat="49.88309" lon="2.34323">
        <ele>25.7</ele>
        <time>2023-03-25T14:36:00Z</time>
      </trkpt>
      <trkpt lat="49.88309" lon="2.34328">
        <ele>25.7</ele>
        <time>2023-03-25T14:36:02Z</time>
      </trkpt>
      <trkpt lat="49.88309" lon="2.34329">
        <ele>25.7</ele>
        <time>2023-03-25T14:36:03Z</time>
      </trkpt>
      <trkpt lat="49.88308" lon="2.34334">
        <ele>25.6</ele>
        <time>2023-03-25T14:36:04Z</time>
      </trkpt>
      <trkpt lat="49.88308" lon="2.34336">
        <ele>25.6</ele>
        <time>2023-03-25T14:36:05Z</time>
      </trkpt>
      <trkpt lat="49.88307" lon="2.34339">
        <ele>25.6</ele>
        <time>2023-03-25T14:36:06Z</time>
      </trkpt>
      <trkpt lat="49.88306" lon="2.34343">
        <ele>25.6</ele>
        <time>2023-03-25T14:36:07Z</time>
      </trkpt>
      <trkpt lat="49.88306" lon="2.34345">
        <ele>25.6</ele>
        <time>2023-03-25T14:36:08Z</time>
      </trkpt>
      <trkpt lat="49.88305" lon="2.34349">
        <ele>25.6</ele>
        <time>2023-03-25T14:36:10Z</time>
      </trkpt>
      <trkpt lat="49.88305" lon="2.34351">
        <ele>25.6</ele>
        <time>2023-03-25T14:36:11Z</time>
      </trkpt>
      <trkpt lat="49.88304" lon="2.34355">
        <ele>25.6</ele>
        <time>2023-03-25T14:36:12Z</time>
      </trkpt>
      <trkpt lat="49.88304" lon="2.34356">
        <ele>25.6</ele>
        <time>2023-03-25T14:36:13Z</time>
      </trkpt>
      <trkpt lat="49.88303" lon="2.34359">
        <ele>25.6</ele>
        <time>2023-03-25T14:36:14Z</time>
      </trkpt>
      <trkpt lat="49.88303" lon="2.34361">
        <ele>25.5</ele>
        <time>2023-03-25T14:36:15Z</time>
      </trkpt>
      <trkpt lat="49.88302" lon="2.34364">
        <ele>25.5</ele>
        <time>2023-03-25T14:36:17Z</time>
      </trkpt>
      <trkpt lat="49.88302" lon="2.34366">
        <ele>25.5</ele>
        <time>2023-03-25T14:36:18Z</time>
      </trkpt>
      <trkpt lat="49.88302" lon="2.34368">
        <ele>25.5</ele>
        <time>2023-03-25T14:36:19Z</time>
      </trkpt>
      <trkpt lat="49.88302" lon="2.34369">
        <ele>25.5</ele>
        <time>2023-03-25T14:36:20Z</time>
      </trkpt>
      <trkpt lat="49.88302" lon="2.3437">
        <ele>25.5</ele>
        <time>2023-03-25T14:36:21Z</time>
      </trkpt>
      <trkpt lat="49.88302" lon="2.34372">
        <ele>25.5</ele>
        <time>2023-03-25T14:36:22Z</time>
      </trkpt>
      <trkpt lat="49.88301" lon="2.34373">
        <ele>25.5</ele>
        <time>2023-03-25T14:36:23Z</time>
      </trkpt>
      <trkpt lat="49.88301" lon="2.34375">
        <ele>25.5</ele>
        <time>2023-03-25T14:36:25Z</time>
      </trkpt>
      <trkpt lat="49.88301" lon="2.34376">
        <ele>25.5</ele>
        <time>2023-03-25T14:36:26Z</time>
      </trkpt>
      <trkpt lat="49.883" lon="2.3438">
        <ele>25.5</ele>
        <time>2023-03-25T14:36:27Z</time>
      </trkpt>
      <trkpt lat="49.88299" lon="2.34381">
        <ele>25.5</ele>
        <time>2023-03-25T14:36:28Z</time>
      </trkpt>
      <trkpt lat="49.88299" lon="2.34382">
        <ele>25.5</ele>
        <time>2023-03-25T14:36:29Z</time>
      </trkpt>
      <trkpt lat="49.88299" lon="2.34384">
        <ele>25.5</ele>
        <time>2023-03-25T14:36:30Z</time>
      </trkpt>
      <trkpt lat="49.88298" lon="2.34385">
        <ele>25.5</ele>
        <time>2023-03-25T14:36:31Z</time>
      </trkpt>
      <trkpt lat="49.88298" lon="2.34386">
        <ele>25.5</ele>
        <time>2023-03-25T14:36:32Z</time>
      </trkpt>
      <trkpt lat="49.88297" lon="2.34388">
        <ele>25.5</ele>
        <time>2023-03-25T14:36:34Z</time>
      </trkpt>
      <trkpt lat="49.88297" lon="2.3439">
        <ele>25.5</ele>
        <time>2023-03-25T14:36:35Z</time>
      </trkpt>
      <trkpt lat="49.88296" lon="2.34393">
        <ele>25.5</ele>
        <time>2023-03-25T14:36:36Z</time>
      </trkpt>
      <trkpt lat="49.88296" lon="2.34395">
        <ele>25.5</ele>
        <time>2023-03-25T14:36:37Z</time>
      </trkpt>
      <trkpt lat="49.88295" lon="2.34396">
        <ele>25.5</ele>
        <time>2023-03-25T14:36:38Z</time>
      </trkpt>
      <trkpt lat="49.88295" lon="2.34399">
        <ele>25.5</ele>
        <time>2023-03-25T14:36:39Z</time>
      </trkpt>
      <trkpt lat="49.88295" lon="2.344">
        <ele>25.5</ele>
        <time>2023-03-25T14:36:40Z</time>
      </trkpt>
      <trkpt lat="49.88294" lon="2.34401">
        <ele>25.5</ele>
        <time>2023-03-25T14:36:41Z</time>
      </trkpt>
      <trkpt lat="49.88294" lon="2.34403">
        <ele>25.5</ele>
        <time>2023-03-25T14:36:43Z</time>
      </trkpt>
      <trkpt lat="49.88294" lon="2.34405">
        <ele>25.5</ele>
        <time>2023-03-25T14:36:44Z</time>
      </trkpt>
      <trkpt lat="49.88294" lon="2.34408">
        <ele>25.5</ele>
        <time>2023-03-25T14:36:45Z</time>
      </trkpt>
      <trkpt lat="49.88294" lon="2.34409">
        <ele>25.5</ele>
        <time>2023-03-25T14:36:46Z</time>
      </trkpt>
      <trkpt lat="49.88294" lon="2.34413">
        <ele>25.5</ele>
        <time>2023-03-25T14:36:47Z</time>
      </trkpt>
      <trkpt lat="49.88294" lon="2.34414">
        <ele>25.5</ele>
        <time>2023-03-25T14:36:48Z</time>
      </trkpt>
      <trkpt lat="49.88294" lon="2.34416">
        <ele>25.5</ele>
        <time>2023-03-25T14:36:49Z</time>
      </trkpt>
      <trkpt lat="49.88294" lon="2.34418">
        <ele>25.5</ele>
        <time>2023-03-25T14:36:50Z</time>
      </trkpt>
      <trkpt lat="49.88294" lon="2.34419">
        <ele>25.5</ele>
        <time>2023-03-25T14:36:51Z</time>
      </trkpt>
      <trkpt lat="49.88294" lon="2.34421">
        <ele>25.5</ele>
        <time>2023-03-25T14:36:53Z</time>
      </trkpt>
      <trkpt lat="49.88294" lon="2.34422">
        <ele>25.5</ele>
        <time>2023-03-25T14:36:54Z</time>
      </trkpt>
      <trkpt lat="49.88294" lon="2.34425">
        <ele>25.5</ele>
        <time>2023-03-25T14:36:55Z</time>
      </trkpt>
      <trkpt lat="49.88293" lon="2.34426">
        <ele>25.5</ele>
        <time>2023-03-25T14:36:56Z</time>
      </trkpt>
      <trkpt lat="49.88293" lon="2.34429">
        <ele>25.5</ele>
        <time>2023-03-25T14:36:57Z</time>
      </trkpt>
      <trkpt lat="49.88293" lon="2.34431">
        <ele>25.5</ele>
        <time>2023-03-25T14:36:58Z</time>
      </trkpt>
      <trkpt lat="49.88293" lon="2.34432">
        <ele>25.5</ele>
        <time>2023-03-25T14:36:59Z</time>
      </trkpt>
      <trkpt lat="49.88292" lon="2.34435">
        <ele>25.5</ele>
        <time>2023-03-25T14:37:01Z</time>
      </trkpt>
      <trkpt lat="49.88292" lon="2.34436">
        <ele>25.5</ele>
        <time>2023-03-25T14:37:02Z</time>
      </trkpt>
      <trkpt lat="49.88292" lon="2.34437">
        <ele>25.5</ele>
        <time>2023-03-25T14:37:03Z</time>
      </trkpt>
      <trkpt lat="49.88291" lon="2.34441">
        <ele>25.5</ele>
        <time>2023-03-25T14:37:04Z</time>
      </trkpt>
      <trkpt lat="49.88291" lon="2.34442">
        <ele>25.5</ele>
        <time>2023-03-25T14:37:05Z</time>
      </trkpt>
      <trkpt lat="49.88291" lon="2.34443">
        <ele>25.5</ele>
        <time>2023-03-25T14:37:06Z</time>
      </trkpt>
      <trkpt lat="49.8829" lon="2.34446">
        <ele>25.5</ele>
        <time>2023-03-25T14:37:07Z</time>
      </trkpt>
      <trkpt lat="49.8829" lon="2.34448">
        <ele>25.5</ele>
        <time>2023-03-25T14:37:08Z</time>
      </trkpt>
      <trkpt lat="49.8829" lon="2.34449">
        <ele>25.5</ele>
        <time>2023-03-25T14:37:09Z</time>
      </trkpt>
      <trkpt lat="49.88289" lon="2.34452">
        <ele>25.5</ele>
        <time>2023-03-25T14:37:11Z</time>
      </trkpt>
      <trkpt lat="49.88289" lon="2.34454">
        <ele>25.5</ele>
        <time>2023-03-25T14:37:12Z</time>
      </trkpt>
      <trkpt lat="49.88289" lon="2.34455">
        <ele>25.5</ele>
        <time>2023-03-25T14:37:13Z</time>
      </trkpt>
      <trkpt lat="49.88289" lon="2.34458">
        <ele>25.5</ele>
        <time>2023-03-25T14:37:14Z</time>
      </trkpt>
      <trkpt lat="49.88289" lon="2.34459">
        <ele>25.5</ele>
        <time>2023-03-25T14:37:15Z</time>
      </trkpt>
      <trkpt lat="49.88289" lon="2.34461">
        <ele>25.5</ele>
        <time>2023-03-25T14:37:16Z</time>
      </trkpt>
      <trkpt lat="49.88289" lon="2.34463">
        <ele>25.5</ele>
        <time>2023-03-25T14:37:17Z</time>
      </trkpt>
      <trkpt lat="49.88289" lon="2.34465">
        <ele>25.5</ele>
        <time>2023-03-25T14:37:18Z</time>
      </trkpt>
      <trkpt lat="49.88289" lon="2.34468">
        <ele>25.5</ele>
        <time>2023-03-25T14:37:20Z</time>
      </trkpt>
      <trkpt lat="49.88288" lon="2.34469">
        <ele>25.5</ele>
        <time>2023-03-25T14:37:21Z</time>
      </trkpt>
      <trkpt lat="49.88288" lon="2.34471">
        <ele>25.5</ele>
        <time>2023-03-25T14:37:22Z</time>
      </trkpt>
      <trkpt lat="49.88289" lon="2.34473">
        <ele>25.5</ele>
        <time>2023-03-25T14:37:23Z</time>
      </trkpt>
      <trkpt lat="49.88289" lon="2.34476">
        <ele>25.5</ele>
        <time>2023-03-25T14:37:24Z</time>
      </trkpt>
      <trkpt lat="49.88289" lon="2.34478">
        <ele>25.5</ele>
        <time>2023-03-25T14:37:25Z</time>
      </trkpt>
      <trkpt lat="49.88289" lon="2.34479">
        <ele>25.5</ele>
        <time>2023-03-25T14:37:26Z</time>
      </trkpt>
      <trkpt lat="49.8829" lon="2.34481">
        <ele>25.5</ele>
        <time>2023-03-25T14:37:27Z</time>
      </trkpt>
      <trkpt lat="49.8829" lon="2.34484">
        <ele>25.5</ele>
        <time>2023-03-25T14:37:28Z</time>
      </trkpt>
      <trkpt lat="49.8829" lon="2.34485">
        <ele>25.5</ele>
        <time>2023-03-25T14:37:30Z</time>
      </trkpt>
      <trkpt lat="49.8829" lon="2.34487">
        <ele>25.5</ele>
        <time>2023-03-25T14:37:31Z</time>
      </trkpt>
      <trkpt lat="49.88291" lon="2.3449">
        <ele>25.5</ele>
        <time>2023-03-25T14:37:32Z</time>
      </trkpt>
      <trkpt lat="49.88291" lon="2.34492">
        <ele>25.5</ele>
        <time>2023-03-25T14:37:33Z</time>
      </trkpt>
      <trkpt lat="49.88291" lon="2.34493">
        <ele>25.5</ele>
        <time>2023-03-25T14:37:34Z</time>
      </trkpt>
      <trkpt lat="49.88291" lon="2.34495">
        <ele>25.5</ele>
        <time>2023-03-25T14:37:35Z</time>
      </trkpt>
      <trkpt lat="49.88291" lon="2.34496">
        <ele>25.5</ele>
        <time>2023-03-25T14:37:36Z</time>
      </trkpt>
      <trkpt lat="49.88291" lon="2.34498">
        <ele>25.5</ele>
        <time>2023-03-25T14:37:37Z</time>
      </trkpt>
      <trkpt lat="49.88291" lon="2.345">
        <ele>25.5</ele>
        <time>2023-03-25T14:37:39Z</time>
      </trkpt>
      <trkpt lat="49.88291" lon="2.34501">
        <ele>25.5</ele>
        <time>2023-03-25T14:37:40Z</time>
      </trkpt>
      <trkpt lat="49.88291" lon="2.34503">
        <ele>25.5</ele>
        <time>2023-03-25T14:37:41Z</time>
      </trkpt>
      <trkpt lat="49.88291" lon="2.34506">
        <ele>25.5</ele>
        <time>2023-03-25T14:37:42Z</time>
      </trkpt>
      <trkpt lat="49.88291" lon="2.34507">
        <ele>25.5</ele>
        <time>2023-03-25T14:37:43Z</time>
      </trkpt>
      <trkpt lat="49.88291" lon="2.34508">
        <ele>25.5</ele>
        <time>2023-03-25T14:37:44Z</time>
      </trkpt>
      <trkpt lat="49.88291" lon="2.3451">
        <ele>25.5</ele>
        <time>2023-03-25T14:37:45Z</time>
      </trkpt>
      <trkpt lat="49.88291" lon="2.34511">
        <ele>25.6</ele>
        <time>2023-03-25T14:37:46Z</time>
      </trkpt>
      <trkpt lat="49.88291" lon="2.34512">
        <ele>25.6</ele>
        <time>2023-03-25T14:37:48Z</time>
      </trkpt>
      <trkpt lat="49.88292" lon="2.34514">
        <ele>25.6</ele>
        <time>2023-03-25T14:37:49Z</time>
      </trkpt>
      <trkpt lat="49.88292" lon="2.34516">
        <ele>25.6</ele>
        <time>2023-03-25T14:37:50Z</time>
      </trkpt>
      <trkpt lat="49.88292" lon="2.34518">
        <ele>25.6</ele>
        <time>2023-03-25T14:37:51Z</time>
      </trkpt>
      <trkpt lat="49.88292" lon="2.34519">
        <ele>25.6</ele>
        <time>2023-03-25T14:37:52Z</time>
      </trkpt>
      <trkpt lat="49.88292" lon="2.34521">
        <ele>25.6</ele>
        <time>2023-03-25T14:37:53Z</time>
      </trkpt>
      <trkpt lat="49.88292" lon="2.34524">
        <ele>25.6</ele>
        <time>2023-03-25T14:37:54Z</time>
      </trkpt>
      <trkpt lat="49.88292" lon="2.34525">
        <ele>25.6</ele>
        <time>2023-03-25T14:37:55Z</time>
      </trkpt>
      <trkpt lat="49.88292" lon="2.34527">
        <ele>25.6</ele>
        <time>2023-03-25T14:37:57Z</time>
      </trkpt>
      <trkpt lat="49.88291" lon="2.34529">
        <ele>25.6</ele>
        <time>2023-03-25T14:37:58Z</time>
      </trkpt>
      <trkpt lat="49.88291" lon="2.34532">
        <ele>25.6</ele>
        <time>2023-03-25T14:37:59Z</time>
      </trkpt>
      <trkpt lat="49.88291" lon="2.34534">
        <ele>25.6</ele>
        <time>2023-03-25T14:38:00Z</time>
      </trkpt>
      <trkpt lat="49.88291" lon="2.34536">
        <ele>25.6</ele>
        <time>2023-03-25T14:38:01Z</time>
      </trkpt>
      <trkpt lat="49.8829" lon="2.34538">
        <ele>25.6</ele>
        <time>2023-03-25T14:38:02Z</time>
      </trkpt>
      <trkpt lat="49.8829" lon="2.34542">
        <ele>25.6</ele>
        <time>2023-03-25T14:38:03Z</time>
      </trkpt>
      <trkpt lat="49.8829" lon="2.34543">
        <ele>25.6</ele>
        <time>2023-03-25T14:38:05Z</time>
      </trkpt>
      <trkpt lat="49.8829" lon="2.34544">
        <ele>25.6</ele>
        <time>2023-03-25T14:38:06Z</time>
      </trkpt>
      <trkpt lat="49.88289" lon="2.34546">
        <ele>25.6</ele>
        <time>2023-03-25T14:38:07Z</time>
      </trkpt>
      <trkpt lat="49.88289" lon="2.34549">
        <ele>25.6</ele>
        <time>2023-03-25T14:38:08Z</time>
      </trkpt>
      <trkpt lat="49.8829" lon="2.34552">
        <ele>25.6</ele>
        <time>2023-03-25T14:38:09Z</time>
      </trkpt>
      <trkpt lat="49.8829" lon="2.34553">
        <ele>25.7</ele>
        <time>2023-03-25T14:38:10Z</time>
      </trkpt>
      <trkpt lat="49.8829" lon="2.34555">
        <ele>25.7</ele>
        <time>2023-03-25T14:38:11Z</time>
      </trkpt>
      <trkpt lat="49.8829" lon="2.34558">
        <ele>25.7</ele>
        <time>2023-03-25T14:38:13Z</time>
      </trkpt>
      <trkpt lat="49.8829" lon="2.34559">
        <ele>25.7</ele>
        <time>2023-03-25T14:38:14Z</time>
      </trkpt>
      <trkpt lat="49.8829" lon="2.34561">
        <ele>25.7</ele>
        <time>2023-03-25T14:38:15Z</time>
      </trkpt>
      <trkpt lat="49.8829" lon="2.34564">
        <ele>25.7</ele>
        <time>2023-03-25T14:38:16Z</time>
      </trkpt>
      <trkpt lat="49.8829" lon="2.34565">
        <ele>25.7</ele>
        <time>2023-03-25T14:38:17Z</time>
      </trkpt>
      <trkpt lat="49.8829" lon="2.34566">
        <ele>25.7</ele>
        <time>2023-03-25T14:38:18Z</time>
      </trkpt>
      <trkpt lat="49.8829" lon="2.34569">
        <ele>25.7</ele>
        <time>2023-03-25T14:38:19Z</time>
      </trkpt>
      <trkpt lat="49.8829" lon="2.34571">
        <ele>25.7</ele>
        <time>2023-03-25T14:38:20Z</time>
      </trkpt>
      <trkpt lat="49.8829" lon="2.34572">
        <ele>25.7</ele>
        <time>2023-03-25T14:38:22Z</time>
      </trkpt>
      <trkpt lat="49.88289" lon="2.34574">
        <ele>25.7</ele>
        <time>2023-03-25T14:38:23Z</time>
      </trkpt>
      <trkpt lat="49.88289" lon="2.34576">
        <ele>25.7</ele>
        <time>2023-03-25T14:38:24Z</time>
      </trkpt>
      <trkpt lat="49.88289" lon="2.34577">
        <ele>25.7</ele>
        <time>2023-03-25T14:38:25Z</time>
      </trkpt>
      <trkpt lat="49.88289" lon="2.34579">
        <ele>25.7</ele>
        <time>2023-03-25T14:38:26Z</time>
      </trkpt>
      <trkpt lat="49.88289" lon="2.34581">
        <ele>25.7</ele>
        <time>2023-03-25T14:38:27Z</time>
      </trkpt>
      <trkpt lat="49.88289" lon="2.34582">
        <ele>25.7</ele>
        <time>2023-03-25T14:38:28Z</time>
      </trkpt>
      <trkpt lat="49.88288" lon="2.34584">
        <ele>25.7</ele>
        <time>2023-03-25T14:38:30Z</time>
      </trkpt>
      <trkpt lat="49.88288" lon="2.34585">
        <ele>25.7</ele>
        <time>2023-03-25T14:38:31Z</time>
      </trkpt>
      <trkpt lat="49.88288" lon="2.34587">
        <ele>25.7</ele>
        <time>2023-03-25T14:38:32Z</time>
      </trkpt>
      <trkpt lat="49.88288" lon="2.34589">
        <ele>25.7</ele>
        <time>2023-03-25T14:38:33Z</time>
      </trkpt>
      <trkpt lat="49.88288" lon="2.3459">
        <ele>25.7</ele>
        <time>2023-03-25T14:38:34Z</time>
      </trkpt>
      <trkpt lat="49.88287" lon="2.34592">
        <ele>25.7</ele>
        <time>2023-03-25T14:38:35Z</time>
      </trkpt>
      <trkpt lat="49.88287" lon="2.34593">
        <ele>25.7</ele>
        <time>2023-03-25T14:38:36Z</time>
      </trkpt>
      <trkpt lat="49.88287" lon="2.34595">
        <ele>25.7</ele>
        <time>2023-03-25T14:38:38Z</time>
      </trkpt>
      <trkpt lat="49.88287" lon="2.34597">
        <ele>25.7</ele>
        <time>2023-03-25T14:38:39Z</time>
      </trkpt>
      <trkpt lat="49.88288" lon="2.34599">
        <ele>25.7</ele>
        <time>2023-03-25T14:38:40Z</time>
      </trkpt>
      <trkpt lat="49.88288" lon="2.34601">
        <ele>25.7</ele>
        <time>2023-03-25T14:38:41Z</time>
      </trkpt>
      <trkpt lat="49.88288" lon="2.34603">
        <ele>25.6</ele>
        <time>2023-03-25T14:38:42Z</time>
      </trkpt>
      <trkpt lat="49.88288" lon="2.34605">
        <ele>25.6</ele>
        <time>2023-03-25T14:38:43Z</time>
      </trkpt>
      <trkpt lat="49.88288" lon="2.34607">
        <ele>25.6</ele>
        <time>2023-03-25T14:38:45Z</time>
      </trkpt>
      <trkpt lat="49.88288" lon="2.34609">
        <ele>25.6</ele>
        <time>2023-03-25T14:38:46Z</time>
      </trkpt>
      <trkpt lat="49.88288" lon="2.34611">
        <ele>25.6</ele>
        <time>2023-03-25T14:38:47Z</time>
      </trkpt>
      <trkpt lat="49.88288" lon="2.34614">
        <ele>25.6</ele>
        <time>2023-03-25T14:38:48Z</time>
      </trkpt>
      <trkpt lat="49.88288" lon="2.34616">
        <ele>25.6</ele>
        <time>2023-03-25T14:38:49Z</time>
      </trkpt>
      <trkpt lat="49.88288" lon="2.34617">
        <ele>25.6</ele>
        <time>2023-03-25T14:38:50Z</time>
      </trkpt>
      <trkpt lat="49.88289" lon="2.34619">
        <ele>25.6</ele>
        <time>2023-03-25T14:38:51Z</time>
      </trkpt>
      <trkpt lat="49.88289" lon="2.34621">
        <ele>25.6</ele>
        <time>2023-03-25T14:38:53Z</time>
      </trkpt>
      <trkpt lat="49.8829" lon="2.34622">
        <ele>25.6</ele>
        <time>2023-03-25T14:38:54Z</time>
      </trkpt>
      <trkpt lat="49.88291" lon="2.34625">
        <ele>25.6</ele>
        <time>2023-03-25T14:38:55Z</time>
      </trkpt>
      <trkpt lat="49.88291" lon="2.34626">
        <ele>25.7</ele>
        <time>2023-03-25T14:38:56Z</time>
      </trkpt>
      <trkpt lat="49.88292" lon="2.34627">
        <ele>25.7</ele>
        <time>2023-03-25T14:38:57Z</time>
      </trkpt>
      <trkpt lat="49.88293" lon="2.34629">
        <ele>25.7</ele>
        <time>2023-03-25T14:38:58Z</time>
      </trkpt>
      <trkpt lat="49.88293" lon="2.34631">
        <ele>25.7</ele>
        <time>2023-03-25T14:39:00Z</time>
      </trkpt>
      <trkpt lat="49.88294" lon="2.34632">
        <ele>25.7</ele>
        <time>2023-03-25T14:39:01Z</time>
      </trkpt>
      <trkpt lat="49.88295" lon="2.34634">
        <ele>25.7</ele>
        <time>2023-03-25T14:39:02Z</time>
      </trkpt>
      <trkpt lat="49.88296" lon="2.34636">
        <ele>25.7</ele>
        <time>2023-03-25T14:39:03Z</time>
      </trkpt>
      <trkpt lat="49.88296" lon="2.34637">
        <ele>25.7</ele>
        <time>2023-03-25T14:39:04Z</time>
      </trkpt>
      <trkpt lat="49.88297" lon="2.34638">
        <ele>25.7</ele>
        <time>2023-03-25T14:39:05Z</time>
      </trkpt>
      <trkpt lat="49.88297" lon="2.34639">
        <ele>25.7</ele>
        <time>2023-03-25T14:39:07Z</time>
      </trkpt>
      <trkpt lat="49.88298" lon="2.3464">
        <ele>25.7</ele>
        <time>2023-03-25T14:39:08Z</time>
      </trkpt>
      <trkpt lat="49.88298" lon="2.34642">
        <ele>25.7</ele>
        <time>2023-03-25T14:39:09Z</time>
      </trkpt>
      <trkpt lat="49.88299" lon="2.34643">
        <ele>25.7</ele>
        <time>2023-03-25T14:39:10Z</time>
      </trkpt>
      <trkpt lat="49.88299" lon="2.34644">
        <ele>25.7</ele>
        <time>2023-03-25T14:39:11Z</time>
      </trkpt>
      <trkpt lat="49.883" lon="2.34645">
        <ele>25.7</ele>
        <time>2023-03-25T14:39:12Z</time>
      </trkpt>
      <trkpt lat="49.883" lon="2.34646">
        <ele>25.7</ele>
        <time>2023-03-25T14:39:13Z</time>
      </trkpt>
      <trkpt lat="49.88301" lon="2.34648">
        <ele>25.7</ele>
        <time>2023-03-25T14:39:15Z</time>
      </trkpt>
      <trkpt lat="49.88302" lon="2.34649">
        <ele>25.7</ele>
        <time>2023-03-25T14:39:16Z</time>
      </trkpt>
      <trkpt lat="49.88302" lon="2.34651">
        <ele>25.7</ele>
        <time>2023-03-25T14:39:17Z</time>
      </trkpt>
      <trkpt lat="49.88303" lon="2.34652">
        <ele>25.7</ele>
        <time>2023-03-25T14:39:18Z</time>
      </trkpt>
      <trkpt lat="49.88304" lon="2.34652">
        <ele>25.7</ele>
        <time>2023-03-25T14:39:19Z</time>
      </trkpt>
      <trkpt lat="49.88304" lon="2.34654">
        <ele>25.7</ele>
        <time>2023-03-25T14:39:20Z</time>
      </trkpt>
      <trkpt lat="49.88305" lon="2.34655">
        <ele>25.7</ele>
        <time>2023-03-25T14:39:22Z</time>
      </trkpt>
      <trkpt lat="49.88306" lon="2.34656">
        <ele>25.7</ele>
        <time>2023-03-25T14:39:23Z</time>
      </trkpt>
      <trkpt lat="49.88306" lon="2.34657">
        <ele>25.7</ele>
        <time>2023-03-25T14:39:24Z</time>
      </trkpt>
      <trkpt lat="49.88307" lon="2.34659">
        <ele>25.7</ele>
        <time>2023-03-25T14:39:25Z</time>
      </trkpt>
      <trkpt lat="49.88307" lon="2.3466">
        <ele>25.7</ele>
        <time>2023-03-25T14:39:26Z</time>
      </trkpt>
      <trkpt lat="49.88308" lon="2.34661">
        <ele>25.7</ele>
        <time>2023-03-25T14:39:27Z</time>
      </trkpt>
      <trkpt lat="49.88308" lon="2.34663">
        <ele>25.7</ele>
        <time>2023-03-25T14:39:28Z</time>
      </trkpt>
      <trkpt lat="49.88309" lon="2.34665">
        <ele>25.7</ele>
        <time>2023-03-25T14:39:30Z</time>
      </trkpt>
      <trkpt lat="49.88309" lon="2.34666">
        <ele>25.7</ele>
        <time>2023-03-25T14:39:31Z</time>
      </trkpt>
      <trkpt lat="49.88309" lon="2.34668">
        <ele>25.7</ele>
        <time>2023-03-25T14:39:32Z</time>
      </trkpt>
      <trkpt lat="49.8831" lon="2.34669">
        <ele>25.7</ele>
        <time>2023-03-25T14:39:33Z</time>
      </trkpt>
      <trkpt lat="49.8831" lon="2.3467">
        <ele>25.7</ele>
        <time>2023-03-25T14:39:34Z</time>
      </trkpt>
      <trkpt lat="49.88311" lon="2.34672">
        <ele>25.7</ele>
        <time>2023-03-25T14:39:36Z</time>
      </trkpt>
      <trkpt lat="49.88311" lon="2.34674">
        <ele>25.7</ele>
        <time>2023-03-25T14:39:37Z</time>
      </trkpt>
      <trkpt lat="49.88312" lon="2.34677">
        <ele>25.7</ele>
        <time>2023-03-25T14:39:38Z</time>
      </trkpt>
      <trkpt lat="49.88312" lon="2.34679">
        <ele>25.7</ele>
        <time>2023-03-25T14:39:39Z</time>
      </trkpt>
      <trkpt lat="49.88313" lon="2.3468">
        <ele>25.7</ele>
        <time>2023-03-25T14:39:40Z</time>
      </trkpt>
      <trkpt lat="49.88313" lon="2.34681">
        <ele>25.7</ele>
        <time>2023-03-25T14:39:41Z</time>
      </trkpt>
      <trkpt lat="49.88314" lon="2.34683">
        <ele>25.7</ele>
        <time>2023-03-25T14:39:43Z</time>
      </trkpt>
      <trkpt lat="49.88314" lon="2.34684">
        <ele>25.7</ele>
        <time>2023-03-25T14:39:44Z</time>
      </trkpt>
      <trkpt lat="49.88315" lon="2.34688">
        <ele>25.7</ele>
        <time>2023-03-25T14:39:45Z</time>
      </trkpt>
      <trkpt lat="49.88315" lon="2.34689">
        <ele>25.7</ele>
        <time>2023-03-25T14:39:46Z</time>
      </trkpt>
      <trkpt lat="49.88315" lon="2.3469">
        <ele>25.7</ele>
        <time>2023-03-25T14:39:47Z</time>
      </trkpt>
      <trkpt lat="49.88316" lon="2.34691">
        <ele>25.7</ele>
        <time>2023-03-25T14:39:48Z</time>
      </trkpt>
      <trkpt lat="49.88316" lon="2.34693">
        <ele>25.7</ele>
        <time>2023-03-25T14:39:50Z</time>
      </trkpt>
      <trkpt lat="49.88317" lon="2.34694">
        <ele>25.7</ele>
        <time>2023-03-25T14:39:51Z</time>
      </trkpt>
      <trkpt lat="49.88317" lon="2.34698">
        <ele>25.7</ele>
        <time>2023-03-25T14:39:52Z</time>
      </trkpt>
      <trkpt lat="49.88318" lon="2.34699">
        <ele>25.6</ele>
        <time>2023-03-25T14:39:53Z</time>
      </trkpt>
      <trkpt lat="49.88318" lon="2.347">
        <ele>25.6</ele>
        <time>2023-03-25T14:39:54Z</time>
      </trkpt>
      <trkpt lat="49.88318" lon="2.34703">
        <ele>25.6</ele>
        <time>2023-03-25T14:39:55Z</time>
      </trkpt>
      <trkpt lat="49.88318" lon="2.34704">
        <ele>25.6</ele>
        <time>2023-03-25T14:39:56Z</time>
      </trkpt>
      <trkpt lat="49.88319" lon="2.34705">
        <ele>25.6</ele>
        <time>2023-03-25T14:39:58Z</time>
      </trkpt>
      <trkpt lat="49.8832" lon="2.34705">
        <ele>25.6</ele>
        <time>2023-03-25T14:39:59Z</time>
      </trkpt>
      <trkpt lat="49.88321" lon="2.34704">
        <ele>25.6</ele>
        <time>2023-03-25T14:40:01Z</time>
      </trkpt>
      <trkpt lat="49.88321" lon="2.34704">
        <ele>25.6</ele>
        <time>2023-03-25T14:40:02Z</time>
      </trkpt>
      <trkpt lat="49.88321" lon="2.34704">
        <ele>25.6</ele>
        <time>2023-03-25T14:40:03Z</time>
      </trkpt>
      <trkpt lat="49.88321" lon="2.34703">
        <ele>25.6</ele>
        <time>2023-03-25T14:40:05Z</time>
      </trkpt>
      <trkpt lat="49.88321" lon="2.34703">
        <ele>25.6</ele>
        <time>2023-03-25T14:40:06Z</time>
      </trkpt>
      <trkpt lat="49.88321" lon="2.34703">
        <ele>25.6</ele>
        <time>2023-03-25T14:40:07Z</time>
      </trkpt>
      <trkpt lat="49.88321" lon="2.34702">
        <ele>25.6</ele>
        <time>2023-03-25T14:40:09Z</time>
      </trkpt>
      <trkpt lat="49.88321" lon="2.34703">
        <ele>25.6</ele>
        <time>2023-03-25T14:40:10Z</time>
      </trkpt>
      <trkpt lat="49.88321" lon="2.34703">
        <ele>25.6</ele>
        <time>2023-03-25T14:40:11Z</time>
      </trkpt>
      <trkpt lat="49.88321" lon="2.34704">
        <ele>25.6</ele>
        <time>2023-03-25T14:40:12Z</time>
      </trkpt>
      <trkpt lat="49.88321" lon="2.34706">
        <ele>25.6</ele>
        <time>2023-03-25T14:40:13Z</time>
      </trkpt>
      <trkpt lat="49.88321" lon="2.34707">
        <ele>25.6</ele>
        <time>2023-03-25T14:40:14Z</time>
      </trkpt>
      <trkpt lat="49.88322" lon="2.34709">
        <ele>25.6</ele>
        <time>2023-03-25T14:40:16Z</time>
      </trkpt>
      <trkpt lat="49.88322" lon="2.3471">
        <ele>25.6</ele>
        <time>2023-03-25T14:40:17Z</time>
      </trkpt>
      <trkpt lat="49.88323" lon="2.34712">
        <ele>25.6</ele>
        <time>2023-03-25T14:40:18Z</time>
      </trkpt>
      <trkpt lat="49.88323" lon="2.34713">
        <ele>25.6</ele>
        <time>2023-03-25T14:40:19Z</time>
      </trkpt>
      <trkpt lat="49.88322" lon="2.34715">
        <ele>25.6</ele>
        <time>2023-03-25T14:40:20Z</time>
      </trkpt>
      <trkpt lat="49.88322" lon="2.34717">
        <ele>25.6</ele>
        <time>2023-03-25T14:40:21Z</time>
      </trkpt>
      <trkpt lat="49.88323" lon="2.34718">
        <ele>25.6</ele>
        <time>2023-03-25T14:40:22Z</time>
      </trkpt>
      <trkpt lat="49.88323" lon="2.3472">
        <ele>25.6</ele>
        <time>2023-03-25T14:40:24Z</time>
      </trkpt>
      <trkpt lat="49.88323" lon="2.34722">
        <ele>25.6</ele>
        <time>2023-03-25T14:40:25Z</time>
      </trkpt>
      <trkpt lat="49.88322" lon="2.34724">
        <ele>25.6</ele>
        <time>2023-03-25T14:40:26Z</time>
      </trkpt>
      <trkpt lat="49.88321" lon="2.34727">
        <ele>25.6</ele>
        <time>2023-03-25T14:40:27Z</time>
      </trkpt>
      <trkpt lat="49.88321" lon="2.34728">
        <ele>25.6</ele>
        <time>2023-03-25T14:40:28Z</time>
      </trkpt>
      <trkpt lat="49.88321" lon="2.34729">
        <ele>25.6</ele>
        <time>2023-03-25T14:40:29Z</time>
      </trkpt>
      <trkpt lat="49.8832" lon="2.34732">
        <ele>25.6</ele>
        <time>2023-03-25T14:40:31Z</time>
      </trkpt>
      <trkpt lat="49.88319" lon="2.34734">
        <ele>25.6</ele>
        <time>2023-03-25T14:40:32Z</time>
      </trkpt>
      <trkpt lat="49.88319" lon="2.34736">
        <ele>25.6</ele>
        <time>2023-03-25T14:40:33Z</time>
      </trkpt>
      <trkpt lat="49.88318" lon="2.34738">
        <ele>25.6</ele>
        <time>2023-03-25T14:40:34Z</time>
      </trkpt>
      <trkpt lat="49.88318" lon="2.34742">
        <ele>25.6</ele>
        <time>2023-03-25T14:40:35Z</time>
      </trkpt>
      <trkpt lat="49.88318" lon="2.34743">
        <ele>25.6</ele>
        <time>2023-03-25T14:40:36Z</time>
      </trkpt>
      <trkpt lat="49.88318" lon="2.34744">
        <ele>25.6</ele>
        <time>2023-03-25T14:40:37Z</time>
      </trkpt>
      <trkpt lat="49.88318" lon="2.34747">
        <ele>25.6</ele>
        <time>2023-03-25T14:40:39Z</time>
      </trkpt>
      <trkpt lat="49.88318" lon="2.34749">
        <ele>25.6</ele>
        <time>2023-03-25T14:40:40Z</time>
      </trkpt>
      <trkpt lat="49.88318" lon="2.34752">
        <ele>25.6</ele>
        <time>2023-03-25T14:40:41Z</time>
      </trkpt>
      <trkpt lat="49.88318" lon="2.34755">
        <ele>25.6</ele>
        <time>2023-03-25T14:40:42Z</time>
      </trkpt>
      <trkpt lat="49.88319" lon="2.34757">
        <ele>25.6</ele>
        <time>2023-03-25T14:40:43Z</time>
      </trkpt>
      <trkpt lat="49.88319" lon="2.34759">
        <ele>25.6</ele>
        <time>2023-03-25T14:40:44Z</time>
      </trkpt>
      <trkpt lat="49.8832" lon="2.34762">
        <ele>25.6</ele>
        <time>2023-03-25T14:40:45Z</time>
      </trkpt>
      <trkpt lat="49.8832" lon="2.34764">
        <ele>25.6</ele>
        <time>2023-03-25T14:40:46Z</time>
      </trkpt>
      <trkpt lat="49.8832" lon="2.34767">
        <ele>25.6</ele>
        <time>2023-03-25T14:40:47Z</time>
      </trkpt>
      <trkpt lat="49.88321" lon="2.34769">
        <ele>25.6</ele>
        <time>2023-03-25T14:40:48Z</time>
      </trkpt>
      <trkpt lat="49.88321" lon="2.34771">
        <ele>25.6</ele>
        <time>2023-03-25T14:40:49Z</time>
      </trkpt>
      <trkpt lat="49.88322" lon="2.34772">
        <ele>25.6</ele>
        <time>2023-03-25T14:40:50Z</time>
      </trkpt>
      <trkpt lat="49.88323" lon="2.34774">
        <ele>25.6</ele>
        <time>2023-03-25T14:40:52Z</time>
      </trkpt>
      <trkpt lat="49.88324" lon="2.34776">
        <ele>25.6</ele>
        <time>2023-03-25T14:40:53Z</time>
      </trkpt>
      <trkpt lat="49.88325" lon="2.34778">
        <ele>25.6</ele>
        <time>2023-03-25T14:40:54Z</time>
      </trkpt>
      <trkpt lat="49.88326" lon="2.3478">
        <ele>25.6</ele>
        <time>2023-03-25T14:40:55Z</time>
      </trkpt>
      <trkpt lat="49.88326" lon="2.34781">
        <ele>25.6</ele>
        <time>2023-03-25T14:40:56Z</time>
      </trkpt>
      <trkpt lat="49.88327" lon="2.34782">
        <ele>25.6</ele>
        <time>2023-03-25T14:40:57Z</time>
      </trkpt>
      <trkpt lat="49.88328" lon="2.34784">
        <ele>25.6</ele>
        <time>2023-03-25T14:40:58Z</time>
      </trkpt>
      <trkpt lat="49.88329" lon="2.34785">
        <ele>25.6</ele>
        <time>2023-03-25T14:40:59Z</time>
      </trkpt>
      <trkpt lat="49.8833" lon="2.34786">
        <ele>25.6</ele>
        <time>2023-03-25T14:41:01Z</time>
      </trkpt>
      <trkpt lat="49.88331" lon="2.34788">
        <ele>25.6</ele>
        <time>2023-03-25T14:41:02Z</time>
      </trkpt>
      <trkpt lat="49.88332" lon="2.34789">
        <ele>25.6</ele>
        <time>2023-03-25T14:41:03Z</time>
      </trkpt>
      <trkpt lat="49.88333" lon="2.34791">
        <ele>25.6</ele>
        <time>2023-03-25T14:41:04Z</time>
      </trkpt>
      <trkpt lat="49.88334" lon="2.34793">
        <ele>25.6</ele>
        <time>2023-03-25T14:41:05Z</time>
      </trkpt>
      <trkpt lat="49.88336" lon="2.34794">
        <ele>25.6</ele>
        <time>2023-03-25T14:41:06Z</time>
      </trkpt>
      <trkpt lat="49.88337" lon="2.34795">
        <ele>25.6</ele>
        <time>2023-03-25T14:41:07Z</time>
      </trkpt>
      <trkpt lat="49.88338" lon="2.34796">
        <ele>25.6</ele>
        <time>2023-03-25T14:41:08Z</time>
      </trkpt>
      <trkpt lat="49.88339" lon="2.34797">
        <ele>25.6</ele>
        <time>2023-03-25T14:41:09Z</time>
      </trkpt>
      <trkpt lat="49.88342" lon="2.34799">
        <ele>25.6</ele>
        <time>2023-03-25T14:41:11Z</time>
      </trkpt>
      <trkpt lat="49.88343" lon="2.348">
        <ele>25.6</ele>
        <time>2023-03-25T14:41:12Z</time>
      </trkpt>
      <trkpt lat="49.88344" lon="2.34801">
        <ele>25.6</ele>
        <time>2023-03-25T14:41:13Z</time>
      </trkpt>
      <trkpt lat="49.88344" lon="2.34802">
        <ele>25.6</ele>
        <time>2023-03-25T14:41:14Z</time>
      </trkpt>
      <trkpt lat="49.88347" lon="2.34804">
        <ele>25.6</ele>
        <time>2023-03-25T14:41:15Z</time>
      </trkpt>
      <trkpt lat="49.88347" lon="2.34804">
        <ele>25.6</ele>
        <time>2023-03-25T14:41:16Z</time>
      </trkpt>
      <trkpt lat="49.88348" lon="2.34805">
        <ele>25.6</ele>
        <time>2023-03-25T14:41:17Z</time>
      </trkpt>
      <trkpt lat="49.88349" lon="2.34806">
        <ele>25.6</ele>
        <time>2023-03-25T14:41:18Z</time>
      </trkpt>
      <trkpt lat="49.88349" lon="2.34807">
        <ele>25.6</ele>
        <time>2023-03-25T14:41:19Z</time>
      </trkpt>
      <trkpt lat="49.88349" lon="2.34809">
        <ele>25.6</ele>
        <time>2023-03-25T14:41:20Z</time>
      </trkpt>
      <trkpt lat="49.88348" lon="2.3481">
        <ele>25.6</ele>
        <time>2023-03-25T14:41:21Z</time>
      </trkpt>
      <trkpt lat="49.88348" lon="2.34812">
        <ele>25.6</ele>
        <time>2023-03-25T14:41:23Z</time>
      </trkpt>
      <trkpt lat="49.88349" lon="2.34813">
        <ele>25.6</ele>
        <time>2023-03-25T14:41:24Z</time>
      </trkpt>
      <trkpt lat="49.8835" lon="2.34815">
        <ele>25.6</ele>
        <time>2023-03-25T14:41:25Z</time>
      </trkpt>
      <trkpt lat="49.8835" lon="2.34816">
        <ele>25.6</ele>
        <time>2023-03-25T14:41:26Z</time>
      </trkpt>
      <trkpt lat="49.88351" lon="2.34816">
        <ele>25.6</ele>
        <time>2023-03-25T14:41:27Z</time>
      </trkpt>
      <trkpt lat="49.88352" lon="2.34817">
        <ele>25.6</ele>
        <time>2023-03-25T14:41:28Z</time>
      </trkpt>
      <trkpt lat="49.88353" lon="2.34818">
        <ele>25.6</ele>
        <time>2023-03-25T14:41:29Z</time>
      </trkpt>
      <trkpt lat="49.88353" lon="2.34818">
        <ele>25.6</ele>
        <time>2023-03-25T14:41:30Z</time>
      </trkpt>
      <trkpt lat="49.88355" lon="2.34819">
        <ele>25.6</ele>
        <time>2023-03-25T14:41:31Z</time>
      </trkpt>
      <trkpt lat="49.88356" lon="2.3482">
        <ele>25.6</ele>
        <time>2023-03-25T14:41:33Z</time>
      </trkpt>
      <trkpt lat="49.88357" lon="2.34822">
        <ele>25.6</ele>
        <time>2023-03-25T14:41:34Z</time>
      </trkpt>
      <trkpt lat="49.88358" lon="2.34824">
        <ele>25.6</ele>
        <time>2023-03-25T14:41:35Z</time>
      </trkpt>
      <trkpt lat="49.88359" lon="2.34826">
        <ele>25.6</ele>
        <time>2023-03-25T14:41:36Z</time>
      </trkpt>
      <trkpt lat="49.8836" lon="2.34827">
        <ele>25.6</ele>
        <time>2023-03-25T14:41:37Z</time>
      </trkpt>
      <trkpt lat="49.88361" lon="2.3483">
        <ele>25.6</ele>
        <time>2023-03-25T14:41:38Z</time>
      </trkpt>
      <trkpt lat="49.88361" lon="2.34831">
        <ele>25.6</ele>
        <time>2023-03-25T14:41:40Z</time>
      </trkpt>
      <trkpt lat="49.88362" lon="2.34832">
        <ele>25.6</ele>
        <time>2023-03-25T14:41:41Z</time>
      </trkpt>
      <trkpt lat="49.88362" lon="2.34832">
        <ele>25.6</ele>
        <time>2023-03-25T14:41:42Z</time>
      </trkpt>
      <trkpt lat="49.88363" lon="2.34833">
        <ele>25.6</ele>
        <time>2023-03-25T14:41:43Z</time>
      </trkpt>
      <trkpt lat="49.88363" lon="2.34834">
        <ele>25.6</ele>
        <time>2023-03-25T14:41:44Z</time>
      </trkpt>
      <trkpt lat="49.88364" lon="2.34835">
        <ele>25.6</ele>
        <time>2023-03-25T14:41:45Z</time>
      </trkpt>
      <trkpt lat="49.88364" lon="2.34836">
        <ele>25.6</ele>
        <time>2023-03-25T14:41:46Z</time>
      </trkpt>
      <trkpt lat="49.88365" lon="2.34836">
        <ele>25.6</ele>
        <time>2023-03-25T14:41:47Z</time>
      </trkpt>
      <trkpt lat="49.88366" lon="2.34838">
        <ele>25.6</ele>
        <time>2023-03-25T14:41:48Z</time>
      </trkpt>
      <trkpt lat="49.88368" lon="2.34839">
        <ele>25.6</ele>
        <time>2023-03-25T14:41:50Z</time>
      </trkpt>
      <trkpt lat="49.88369" lon="2.34841">
        <ele>25.6</ele>
        <time>2023-03-25T14:41:51Z</time>
      </trkpt>
      <trkpt lat="49.88369" lon="2.34842">
        <ele>25.6</ele>
        <time>2023-03-25T14:41:52Z</time>
      </trkpt>
      <trkpt lat="49.8837" lon="2.34843">
        <ele>25.6</ele>
        <time>2023-03-25T14:41:53Z</time>
      </trkpt>
      <trkpt lat="49.88371" lon="2.34845">
        <ele>25.6</ele>
        <time>2023-03-25T14:41:54Z</time>
      </trkpt>
      <trkpt lat="49.88373" lon="2.34846">
        <ele>25.7</ele>
        <time>2023-03-25T14:41:55Z</time>
      </trkpt>
      <trkpt lat="49.88373" lon="2.34846">
        <ele>25.7</ele>
        <time>2023-03-25T14:41:56Z</time>
      </trkpt>
      <trkpt lat="49.88374" lon="2.34847">
        <ele>25.7</ele>
        <time>2023-03-25T14:41:57Z</time>
      </trkpt>
      <trkpt lat="49.88375" lon="2.34848">
        <ele>25.7</ele>
        <time>2023-03-25T14:41:58Z</time>
      </trkpt>
      <trkpt lat="49.88376" lon="2.34849">
        <ele>25.7</ele>
        <time>2023-03-25T14:42:00Z</time>
      </trkpt>
      <trkpt lat="49.88378" lon="2.34848">
        <ele>25.7</ele>
        <time>2023-03-25T14:42:01Z</time>
      </trkpt>
      <trkpt lat="49.88379" lon="2.34849">
        <ele>25.7</ele>
        <time>2023-03-25T14:42:02Z</time>
      </trkpt>
      <trkpt lat="49.8838" lon="2.34849">
        <ele>25.7</ele>
        <time>2023-03-25T14:42:03Z</time>
      </trkpt>
      <trkpt lat="49.88381" lon="2.3485">
        <ele>25.7</ele>
        <time>2023-03-25T14:42:04Z</time>
      </trkpt>
      <trkpt lat="49.88382" lon="2.3485">
        <ele>25.7</ele>
        <time>2023-03-25T14:42:05Z</time>
      </trkpt>
      <trkpt lat="49.88384" lon="2.3485">
        <ele>25.7</ele>
        <time>2023-03-25T14:42:07Z</time>
      </trkpt>
      <trkpt lat="49.88385" lon="2.34851">
        <ele>25.7</ele>
        <time>2023-03-25T14:42:08Z</time>
      </trkpt>
      <trkpt lat="49.88386" lon="2.34852">
        <ele>25.7</ele>
        <time>2023-03-25T14:42:09Z</time>
      </trkpt>
      <trkpt lat="49.88387" lon="2.34854">
        <ele>25.7</ele>
        <time>2023-03-25T14:42:10Z</time>
      </trkpt>
      <trkpt lat="49.88386" lon="2.34855">
        <ele>25.7</ele>
        <time>2023-03-25T14:42:11Z</time>
      </trkpt>
      <trkpt lat="49.88386" lon="2.34856">
        <ele>25.7</ele>
        <time>2023-03-25T14:42:12Z</time>
      </trkpt>
      <trkpt lat="49.88386" lon="2.34857">
        <ele>25.7</ele>
        <time>2023-03-25T14:42:14Z</time>
      </trkpt>
      <trkpt lat="49.88387" lon="2.34857">
        <ele>25.7</ele>
        <time>2023-03-25T14:42:15Z</time>
      </trkpt>
      <trkpt lat="49.88388" lon="2.34858">
        <ele>25.7</ele>
        <time>2023-03-25T14:42:16Z</time>
      </trkpt>
      <trkpt lat="49.8839" lon="2.34859">
        <ele>25.8</ele>
        <time>2023-03-25T14:42:17Z</time>
      </trkpt>
      <trkpt lat="49.88391" lon="2.3486">
        <ele>25.8</ele>
        <time>2023-03-25T14:42:18Z</time>
      </trkpt>
      <trkpt lat="49.88391" lon="2.3486">
        <ele>25.8</ele>
        <time>2023-03-25T14:42:19Z</time>
      </trkpt>
      <trkpt lat="49.88394" lon="2.34861">
        <ele>25.8</ele>
        <time>2023-03-25T14:42:20Z</time>
      </trkpt>
      <trkpt lat="49.88395" lon="2.34861">
        <ele>25.8</ele>
        <time>2023-03-25T14:42:22Z</time>
      </trkpt>
      <trkpt lat="49.88395" lon="2.34861">
        <ele>25.8</ele>
        <time>2023-03-25T14:42:23Z</time>
      </trkpt>
      <trkpt lat="49.88398" lon="2.34863">
        <ele>25.8</ele>
        <time>2023-03-25T14:42:24Z</time>
      </trkpt>
      <trkpt lat="49.88399" lon="2.34863">
        <ele>25.8</ele>
        <time>2023-03-25T14:42:25Z</time>
      </trkpt>
      <trkpt lat="49.88399" lon="2.34864">
        <ele>25.8</ele>
        <time>2023-03-25T14:42:26Z</time>
      </trkpt>
      <trkpt lat="49.88399" lon="2.34864">
        <ele>25.8</ele>
        <time>2023-03-25T14:42:27Z</time>
      </trkpt>
      <trkpt lat="49.88399" lon="2.34865">
        <ele>25.8</ele>
        <time>2023-03-25T14:42:29Z</time>
      </trkpt>
      <trkpt lat="49.884" lon="2.34866">
        <ele>25.8</ele>
        <time>2023-03-25T14:42:30Z</time>
      </trkpt>
      <trkpt lat="49.88402" lon="2.34865">
        <ele>25.8</ele>
        <time>2023-03-25T14:42:31Z</time>
      </trkpt>
      <trkpt lat="49.88403" lon="2.34865">
        <ele>25.8</ele>
        <time>2023-03-25T14:42:32Z</time>
      </trkpt>
      <trkpt lat="49.88405" lon="2.34866">
        <ele>25.9</ele>
        <time>2023-03-25T14:42:33Z</time>
      </trkpt>
      <trkpt lat="49.88406" lon="2.34866">
        <ele>25.9</ele>
        <time>2023-03-25T14:42:34Z</time>
      </trkpt>
      <trkpt lat="49.88408" lon="2.34865">
        <ele>25.9</ele>
        <time>2023-03-25T14:42:35Z</time>
      </trkpt>
      <trkpt lat="49.88408" lon="2.34865">
        <ele>25.9</ele>
        <time>2023-03-25T14:42:36Z</time>
      </trkpt>
      <trkpt lat="49.8841" lon="2.34866">
        <ele>25.9</ele>
        <time>2023-03-25T14:42:37Z</time>
      </trkpt>
      <trkpt lat="49.88411" lon="2.34866">
        <ele>25.9</ele>
        <time>2023-03-25T14:42:39Z</time>
      </trkpt>
      <trkpt lat="49.88412" lon="2.34867">
        <ele>25.9</ele>
        <time>2023-03-25T14:42:40Z</time>
      </trkpt>
      <trkpt lat="49.88412" lon="2.3487">
        <ele>25.9</ele>
        <time>2023-03-25T14:42:41Z</time>
      </trkpt>
      <trkpt lat="49.88411" lon="2.34872">
        <ele>25.9</ele>
        <time>2023-03-25T14:42:42Z</time>
      </trkpt>
      <trkpt lat="49.88411" lon="2.34873">
        <ele>25.9</ele>
        <time>2023-03-25T14:42:43Z</time>
      </trkpt>
      <trkpt lat="49.88412" lon="2.34874">
        <ele>25.9</ele>
        <time>2023-03-25T14:42:44Z</time>
      </trkpt>
      <trkpt lat="49.88414" lon="2.34874">
        <ele>25.9</ele>
        <time>2023-03-25T14:42:45Z</time>
      </trkpt>
      <trkpt lat="49.88415" lon="2.34875">
        <ele>25.9</ele>
        <time>2023-03-25T14:42:47Z</time>
      </trkpt>
      <trkpt lat="49.88416" lon="2.34876">
        <ele>25.9</ele>
        <time>2023-03-25T14:42:48Z</time>
      </trkpt>
      <trkpt lat="49.88417" lon="2.34877">
        <ele>25.8</ele>
        <time>2023-03-25T14:42:49Z</time>
      </trkpt>
      <trkpt lat="49.88417" lon="2.34877">
        <ele>25.8</ele>
        <time>2023-03-25T14:42:50Z</time>
      </trkpt>
      <trkpt lat="49.88418" lon="2.34878">
        <ele>25.8</ele>
        <time>2023-03-25T14:42:51Z</time>
      </trkpt>
      <trkpt lat="49.88419" lon="2.34879">
        <ele>25.8</ele>
        <time>2023-03-25T14:42:52Z</time>
      </trkpt>
      <trkpt lat="49.8842" lon="2.3488">
        <ele>25.8</ele>
        <time>2023-03-25T14:42:53Z</time>
      </trkpt>
      <trkpt lat="49.88421" lon="2.34881">
        <ele>25.8</ele>
        <time>2023-03-25T14:42:54Z</time>
      </trkpt>
      <trkpt lat="49.88422" lon="2.34882">
        <ele>25.8</ele>
        <time>2023-03-25T14:42:56Z</time>
      </trkpt>
      <trkpt lat="49.88422" lon="2.34883">
        <ele>25.8</ele>
        <time>2023-03-25T14:42:57Z</time>
      </trkpt>
      <trkpt lat="49.88423" lon="2.34884">
        <ele>25.8</ele>
        <time>2023-03-25T14:42:58Z</time>
      </trkpt>
      <trkpt lat="49.88424" lon="2.34885">
        <ele>25.8</ele>
        <time>2023-03-25T14:42:59Z</time>
      </trkpt>
      <trkpt lat="49.88426" lon="2.34887">
        <ele>25.8</ele>
        <time>2023-03-25T14:43:00Z</time>
      </trkpt>
      <trkpt lat="49.88427" lon="2.34888">
        <ele>25.8</ele>
        <time>2023-03-25T14:43:01Z</time>
      </trkpt>
      <trkpt lat="49.88427" lon="2.34889">
        <ele>25.8</ele>
        <time>2023-03-25T14:43:03Z</time>
      </trkpt>
      <trkpt lat="49.88428" lon="2.3489">
        <ele>25.8</ele>
        <time>2023-03-25T14:43:04Z</time>
      </trkpt>
      <trkpt lat="49.88428" lon="2.34891">
        <ele>25.8</ele>
        <time>2023-03-25T14:43:05Z</time>
      </trkpt>
      <trkpt lat="49.88429" lon="2.34892">
        <ele>25.8</ele>
        <time>2023-03-25T14:43:06Z</time>
      </trkpt>
      <trkpt lat="49.88431" lon="2.34894">
        <ele>25.8</ele>
        <time>2023-03-25T14:43:07Z</time>
      </trkpt>
      <trkpt lat="49.88431" lon="2.34895">
        <ele>25.8</ele>
        <time>2023-03-25T14:43:08Z</time>
      </trkpt>
      <trkpt lat="49.88432" lon="2.34896">
        <ele>25.8</ele>
        <time>2023-03-25T14:43:09Z</time>
      </trkpt>
      <trkpt lat="49.88433" lon="2.34899">
        <ele>25.8</ele>
        <time>2023-03-25T14:43:11Z</time>
      </trkpt>
      <trkpt lat="49.88434" lon="2.349">
        <ele>25.8</ele>
        <time>2023-03-25T14:43:12Z</time>
      </trkpt>
      <trkpt lat="49.88434" lon="2.34901">
        <ele>25.8</ele>
        <time>2023-03-25T14:43:13Z</time>
      </trkpt>
      <trkpt lat="49.88435" lon="2.34904">
        <ele>25.8</ele>
        <time>2023-03-25T14:43:14Z</time>
      </trkpt>
      <trkpt lat="49.88436" lon="2.34905">
        <ele>25.8</ele>
        <time>2023-03-25T14:43:15Z</time>
      </trkpt>
      <trkpt lat="49.88436" lon="2.34906">
        <ele>25.7</ele>
        <time>2023-03-25T14:43:16Z</time>
      </trkpt>
      <trkpt lat="49.88438" lon="2.34909">
        <ele>25.7</ele>
        <time>2023-03-25T14:43:17Z</time>
      </trkpt>
      <trkpt lat="49.88438" lon="2.3491">
        <ele>25.7</ele>
        <time>2023-03-25T14:43:19Z</time>
      </trkpt>
      <trkpt lat="49.88439" lon="2.34911">
        <ele>25.7</ele>
        <time>2023-03-25T14:43:20Z</time>
      </trkpt>
      <trkpt lat="49.8844" lon="2.34912">
        <ele>25.7</ele>
        <time>2023-03-25T14:43:21Z</time>
      </trkpt>
      <trkpt lat="49.8844" lon="2.34914">
        <ele>25.7</ele>
        <time>2023-03-25T14:43:22Z</time>
      </trkpt>
      <trkpt lat="49.88441" lon="2.34915">
        <ele>25.7</ele>
        <time>2023-03-25T14:43:23Z</time>
      </trkpt>
      <trkpt lat="49.88442" lon="2.34918">
        <ele>25.7</ele>
        <time>2023-03-25T14:43:24Z</time>
      </trkpt>
      <trkpt lat="49.88443" lon="2.34919">
        <ele>25.7</ele>
        <time>2023-03-25T14:43:26Z</time>
      </trkpt>
      <trkpt lat="49.88443" lon="2.3492">
        <ele>25.7</ele>
        <time>2023-03-25T14:43:27Z</time>
      </trkpt>
      <trkpt lat="49.88444" lon="2.34923">
        <ele>25.7</ele>
        <time>2023-03-25T14:43:28Z</time>
      </trkpt>
      <trkpt lat="49.88444" lon="2.34924">
        <ele>25.7</ele>
        <time>2023-03-25T14:43:29Z</time>
      </trkpt>
      <trkpt lat="49.88445" lon="2.34926">
        <ele>25.7</ele>
        <time>2023-03-25T14:43:30Z</time>
      </trkpt>
      <trkpt lat="49.88445" lon="2.34927">
        <ele>25.7</ele>
        <time>2023-03-25T14:43:31Z</time>
      </trkpt>
      <trkpt lat="49.88446" lon="2.34929">
        <ele>25.7</ele>
        <time>2023-03-25T14:43:32Z</time>
      </trkpt>
      <trkpt lat="49.88446" lon="2.34931">
        <ele>25.7</ele>
        <time>2023-03-25T14:43:34Z</time>
      </trkpt>
      <trkpt lat="49.88447" lon="2.34934">
        <ele>25.7</ele>
        <time>2023-03-25T14:43:35Z</time>
      </trkpt>
      <trkpt lat="49.88448" lon="2.34935">
        <ele>25.6</ele>
        <time>2023-03-25T14:43:36Z</time>
      </trkpt>
      <trkpt lat="49.88448" lon="2.34936">
        <ele>25.6</ele>
        <time>2023-03-25T14:43:37Z</time>
      </trkpt>
      <trkpt lat="49.88448" lon="2.34938">
        <ele>25.6</ele>
        <time>2023-03-25T14:43:38Z</time>
      </trkpt>
      <trkpt lat="49.88449" lon="2.34939">
        <ele>25.6</ele>
        <time>2023-03-25T14:43:39Z</time>
      </trkpt>
      <trkpt lat="49.88449" lon="2.34942">
        <ele>25.6</ele>
        <time>2023-03-25T14:43:41Z</time>
      </trkpt>
      <trkpt lat="49.8845" lon="2.34943">
        <ele>25.6</ele>
        <time>2023-03-25T14:43:42Z</time>
      </trkpt>
      <trkpt lat="49.8845" lon="2.34945">
        <ele>25.6</ele>
        <time>2023-03-25T14:43:43Z</time>
      </trkpt>
      <trkpt lat="49.8845" lon="2.34947">
        <ele>25.6</ele>
        <time>2023-03-25T14:43:44Z</time>
      </trkpt>
      <trkpt lat="49.88451" lon="2.34949">
        <ele>25.6</ele>
        <time>2023-03-25T14:43:45Z</time>
      </trkpt>
      <trkpt lat="49.88452" lon="2.34951">
        <ele>25.6</ele>
        <time>2023-03-25T14:43:46Z</time>
      </trkpt>
      <trkpt lat="49.88453" lon="2.34954">
        <ele>25.6</ele>
        <time>2023-03-25T14:43:48Z</time>
      </trkpt>
      <trkpt lat="49.88453" lon="2.34955">
        <ele>25.6</ele>
        <time>2023-03-25T14:43:49Z</time>
      </trkpt>
      <trkpt lat="49.88453" lon="2.34956">
        <ele>25.6</ele>
        <time>2023-03-25T14:43:50Z</time>
      </trkpt>
      <trkpt lat="49.88454" lon="2.34958">
        <ele>25.6</ele>
        <time>2023-03-25T14:43:51Z</time>
      </trkpt>
      <trkpt lat="49.88454" lon="2.3496">
        <ele>25.6</ele>
        <time>2023-03-25T14:43:52Z</time>
      </trkpt>
      <trkpt lat="49.88454" lon="2.34962">
        <ele>25.6</ele>
        <time>2023-03-25T14:43:54Z</time>
      </trkpt>
      <trkpt lat="49.88455" lon="2.34964">
        <ele>25.6</ele>
        <time>2023-03-25T14:43:55Z</time>
      </trkpt>
      <trkpt lat="49.88455" lon="2.34965">
        <ele>25.6</ele>
        <time>2023-03-25T14:43:56Z</time>
      </trkpt>
      <trkpt lat="49.88455" lon="2.34967">
        <ele>25.6</ele>
        <time>2023-03-25T14:43:57Z</time>
      </trkpt>
      <trkpt lat="49.88456" lon="2.34969">
        <ele>25.6</ele>
        <time>2023-03-25T14:43:58Z</time>
      </trkpt>
      <trkpt lat="49.88456" lon="2.3497">
        <ele>25.6</ele>
        <time>2023-03-25T14:43:59Z</time>
      </trkpt>
      <trkpt lat="49.88457" lon="2.34972">
        <ele>25.6</ele>
        <time>2023-03-25T14:44:00Z</time>
      </trkpt>
      <trkpt lat="49.88458" lon="2.34975">
        <ele>25.6</ele>
        <time>2023-03-25T14:44:01Z</time>
      </trkpt>
      <trkpt lat="49.88458" lon="2.34976">
        <ele>25.6</ele>
        <time>2023-03-25T14:44:03Z</time>
      </trkpt>
      <trkpt lat="49.88458" lon="2.34978">
        <ele>25.6</ele>
        <time>2023-03-25T14:44:04Z</time>
      </trkpt>
      <trkpt lat="49.88459" lon="2.3498">
        <ele>25.7</ele>
        <time>2023-03-25T14:44:05Z</time>
      </trkpt>
      <trkpt lat="49.8846" lon="2.34982">
        <ele>25.7</ele>
        <time>2023-03-25T14:44:06Z</time>
      </trkpt>
      <trkpt lat="49.8846" lon="2.34983">
        <ele>25.7</ele>
        <time>2023-03-25T14:44:07Z</time>
      </trkpt>
      <trkpt lat="49.8846" lon="2.34984">
        <ele>25.7</ele>
        <time>2023-03-25T14:44:08Z</time>
      </trkpt>
      <trkpt lat="49.88461" lon="2.34985">
        <ele>25.7</ele>
        <time>2023-03-25T14:44:09Z</time>
      </trkpt>
      <trkpt lat="49.88461" lon="2.34986">
        <ele>25.7</ele>
        <time>2023-03-25T14:44:10Z</time>
      </trkpt>
      <trkpt lat="49.88462" lon="2.34989">
        <ele>25.7</ele>
        <time>2023-03-25T14:44:12Z</time>
      </trkpt>
      <trkpt lat="49.88462" lon="2.3499">
        <ele>25.8</ele>
        <time>2023-03-25T14:44:13Z</time>
      </trkpt>
      <trkpt lat="49.88463" lon="2.34991">
        <ele>25.8</ele>
        <time>2023-03-25T14:44:14Z</time>
      </trkpt>
      <trkpt lat="49.88464" lon="2.34995">
        <ele>25.8</ele>
        <time>2023-03-25T14:44:15Z</time>
      </trkpt>
      <trkpt lat="49.88465" lon="2.34997">
        <ele>25.8</ele>
        <time>2023-03-25T14:44:16Z</time>
      </trkpt>
      <trkpt lat="49.88466" lon="2.34997">
        <ele>25.8</ele>
        <time>2023-03-25T14:44:17Z</time>
      </trkpt>
      <trkpt lat="49.88466" lon="2.34999">
        <ele>25.9</ele>
        <time>2023-03-25T14:44:18Z</time>
      </trkpt>
      <trkpt lat="49.88466" lon="2.35001">
        <ele>25.9</ele>
        <time>2023-03-25T14:44:20Z</time>
      </trkpt>
      <trkpt lat="49.88467" lon="2.35004">
        <ele>25.9</ele>
        <time>2023-03-25T14:44:21Z</time>
      </trkpt>
      <trkpt lat="49.88467" lon="2.35005">
        <ele>25.9</ele>
        <time>2023-03-25T14:44:22Z</time>
      </trkpt>
      <trkpt lat="49.88467" lon="2.35006">
        <ele>26</ele>
        <time>2023-03-25T14:44:23Z</time>
      </trkpt>
      <trkpt lat="49.88468" lon="2.35007">
        <ele>26</ele>
        <time>2023-03-25T14:44:24Z</time>
      </trkpt>
      <trkpt lat="49.88468" lon="2.35008">
        <ele>26</ele>
        <time>2023-03-25T14:44:25Z</time>
      </trkpt>
      <trkpt lat="49.88468" lon="2.3501">
        <ele>26</ele>
        <time>2023-03-25T14:44:26Z</time>
      </trkpt>
      <trkpt lat="49.88468" lon="2.35011">
        <ele>26.1</ele>
        <time>2023-03-25T14:44:28Z</time>
      </trkpt>
      <trkpt lat="49.88469" lon="2.35013">
        <ele>26.1</ele>
        <time>2023-03-25T14:44:29Z</time>
      </trkpt>
      <trkpt lat="49.88469" lon="2.35015">
        <ele>26.1</ele>
        <time>2023-03-25T14:44:30Z</time>
      </trkpt>
      <trkpt lat="49.8847" lon="2.35018">
        <ele>26.2</ele>
        <time>2023-03-25T14:44:31Z</time>
      </trkpt>
      <trkpt lat="49.8847" lon="2.35019">
        <ele>26.2</ele>
        <time>2023-03-25T14:44:32Z</time>
      </trkpt>
      <trkpt lat="49.8847" lon="2.35021">
        <ele>26.3</ele>
        <time>2023-03-25T14:44:33Z</time>
      </trkpt>
      <trkpt lat="49.8847" lon="2.35023">
        <ele>26.3</ele>
        <time>2023-03-25T14:44:34Z</time>
      </trkpt>
      <trkpt lat="49.88471" lon="2.35025">
        <ele>26.4</ele>
        <time>2023-03-25T14:44:36Z</time>
      </trkpt>
      <trkpt lat="49.88472" lon="2.35027">
        <ele>26.5</ele>
        <time>2023-03-25T14:44:37Z</time>
      </trkpt>
      <trkpt lat="49.88472" lon="2.35029">
        <ele>26.5</ele>
        <time>2023-03-25T14:44:38Z</time>
      </trkpt>
      <trkpt lat="49.88473" lon="2.35032">
        <ele>26.6</ele>
        <time>2023-03-25T14:44:39Z</time>
      </trkpt>
      <trkpt lat="49.88474" lon="2.35034">
        <ele>26.7</ele>
        <time>2023-03-25T14:44:40Z</time>
      </trkpt>
      <trkpt lat="49.88474" lon="2.35035">
        <ele>26.7</ele>
        <time>2023-03-25T14:44:41Z</time>
      </trkpt>
      <trkpt lat="49.88474" lon="2.35036">
        <ele>26.8</ele>
        <time>2023-03-25T14:44:42Z</time>
      </trkpt>
      <trkpt lat="49.88475" lon="2.35037">
        <ele>26.8</ele>
        <time>2023-03-25T14:44:44Z</time>
      </trkpt>
      <trkpt lat="49.88475" lon="2.35039">
        <ele>26.9</ele>
        <time>2023-03-25T14:44:45Z</time>
      </trkpt>
      <trkpt lat="49.88476" lon="2.35041">
        <ele>26.9</ele>
        <time>2023-03-25T14:44:46Z</time>
      </trkpt>
      <trkpt lat="49.88476" lon="2.35041">
        <ele>26.9</ele>
        <time>2023-03-25T14:44:47Z</time>
      </trkpt>
      <trkpt lat="49.88476" lon="2.35041">
        <ele>27</ele>
        <time>2023-03-25T14:44:48Z</time>
      </trkpt>
      <trkpt lat="49.88476" lon="2.35041">
        <ele>27</ele>
        <time>2023-03-25T14:44:49Z</time>
      </trkpt>
      <trkpt lat="49.88476" lon="2.35042">
        <ele>27</ele>
        <time>2023-03-25T14:44:50Z</time>
      </trkpt>
      <trkpt lat="49.88477" lon="2.35043">
        <ele>27</ele>
        <time>2023-03-25T14:44:52Z</time>
      </trkpt>
      <trkpt lat="49.88478" lon="2.35045">
        <ele>27.1</ele>
        <time>2023-03-25T14:44:53Z</time>
      </trkpt>
      <trkpt lat="49.88478" lon="2.35046">
        <ele>27.2</ele>
        <time>2023-03-25T14:44:54Z</time>
      </trkpt>
      <trkpt lat="49.88479" lon="2.35048">
        <ele>27.3</ele>
        <time>2023-03-25T14:44:55Z</time>
      </trkpt>
      <trkpt lat="49.8848" lon="2.3505">
        <ele>27.4</ele>
        <time>2023-03-25T14:44:56Z</time>
      </trkpt>
      <trkpt lat="49.8848" lon="2.35051">
        <ele>27.4</ele>
        <time>2023-03-25T14:44:57Z</time>
      </trkpt>
      <trkpt lat="49.8848" lon="2.35052">
        <ele>27.5</ele>
        <time>2023-03-25T14:44:59Z</time>
      </trkpt>
      <trkpt lat="49.88481" lon="2.35054">
        <ele>27.5</ele>
        <time>2023-03-25T14:45:00Z</time>
      </trkpt>
      <trkpt lat="49.88482" lon="2.35055">
        <ele>27.6</ele>
        <time>2023-03-25T14:45:01Z</time>
      </trkpt>
      <trkpt lat="49.88483" lon="2.35056">
        <ele>27.7</ele>
        <time>2023-03-25T14:45:02Z</time>
      </trkpt>
      <trkpt lat="49.88483" lon="2.35056">
        <ele>27.7</ele>
        <time>2023-03-25T14:45:03Z</time>
      </trkpt>
      <trkpt lat="49.88484" lon="2.35056">
        <ele>27.8</ele>
        <time>2023-03-25T14:45:04Z</time>
      </trkpt>
      <trkpt lat="49.88484" lon="2.35057">
        <ele>27.8</ele>
        <time>2023-03-25T14:45:06Z</time>
      </trkpt>
      <trkpt lat="49.88484" lon="2.35059">
        <ele>27.9</ele>
        <time>2023-03-25T14:45:07Z</time>
      </trkpt>
      <trkpt lat="49.88485" lon="2.3506">
        <ele>27.9</ele>
        <time>2023-03-25T14:45:08Z</time>
      </trkpt>
      <trkpt lat="49.88485" lon="2.35061">
        <ele>28</ele>
        <time>2023-03-25T14:45:09Z</time>
      </trkpt>
      <trkpt lat="49.88485" lon="2.35062">
        <ele>28.1</ele>
        <time>2023-03-25T14:45:10Z</time>
      </trkpt>
      <trkpt lat="49.88485" lon="2.35063">
        <ele>28.1</ele>
        <time>2023-03-25T14:45:11Z</time>
      </trkpt>
      <trkpt lat="49.88486" lon="2.35064">
        <ele>28.1</ele>
        <time>2023-03-25T14:45:12Z</time>
      </trkpt>
      <trkpt lat="49.88486" lon="2.35065">
        <ele>28.1</ele>
        <time>2023-03-25T14:45:14Z</time>
      </trkpt>
      <trkpt lat="49.88487" lon="2.35066">
        <ele>28.1</ele>
        <time>2023-03-25T14:45:15Z</time>
      </trkpt>
      <trkpt lat="49.88487" lon="2.35068">
        <ele>28.1</ele>
        <time>2023-03-25T14:45:16Z</time>
      </trkpt>
      <trkpt lat="49.88487" lon="2.35068">
        <ele>28.1</ele>
        <time>2023-03-25T14:45:17Z</time>
      </trkpt>
      <trkpt lat="49.88487" lon="2.35069">
        <ele>28.1</ele>
        <time>2023-03-25T14:45:18Z</time>
      </trkpt>
      <trkpt lat="49.88487" lon="2.35071">
        <ele>28.1</ele>
        <time>2023-03-25T14:45:19Z</time>
      </trkpt>
      <trkpt lat="49.88488" lon="2.35072">
        <ele>28.1</ele>
        <time>2023-03-25T14:45:20Z</time>
      </trkpt>
      <trkpt lat="49.88489" lon="2.35071">
        <ele>28.1</ele>
        <time>2023-03-25T14:45:22Z</time>
      </trkpt>
      <trkpt lat="49.8849" lon="2.35071">
        <ele>28.1</ele>
        <time>2023-03-25T14:45:23Z</time>
      </trkpt>
      <trkpt lat="49.8849" lon="2.35072">
        <ele>28.1</ele>
        <time>2023-03-25T14:45:25Z</time>
      </trkpt>
      <trkpt lat="49.88491" lon="2.35072">
        <ele>28.1</ele>
        <time>2023-03-25T14:45:26Z</time>
      </trkpt>
      <trkpt lat="49.88493" lon="2.35071">
        <ele>28.1</ele>
        <time>2023-03-25T14:45:27Z</time>
      </trkpt>
      <trkpt lat="49.88493" lon="2.35071">
        <ele>28.1</ele>
        <time>2023-03-25T14:45:28Z</time>
      </trkpt>
      <trkpt lat="49.88493" lon="2.35071">
        <ele>28.1</ele>
        <time>2023-03-25T14:45:30Z</time>
      </trkpt>
      <trkpt lat="49.88493" lon="2.35069">
        <ele>28.1</ele>
        <time>2023-03-25T14:45:31Z</time>
      </trkpt>
      <trkpt lat="49.88493" lon="2.35068">
        <ele>28.1</ele>
        <time>2023-03-25T14:45:32Z</time>
      </trkpt>
      <trkpt lat="49.88492" lon="2.35068">
        <ele>28.1</ele>
        <time>2023-03-25T14:45:34Z</time>
      </trkpt>
      <trkpt lat="49.88492" lon="2.35068">
        <ele>28.1</ele>
        <time>2023-03-25T14:45:35Z</time>
      </trkpt>
      <trkpt lat="49.88492" lon="2.35067">
        <ele>28.1</ele>
        <time>2023-03-25T14:45:36Z</time>
      </trkpt>
      <trkpt lat="49.88492" lon="2.35067">
        <ele>28.1</ele>
        <time>2023-03-25T14:45:38Z</time>
      </trkpt>
      <trkpt lat="49.88492" lon="2.35067">
        <ele>28.1</ele>
        <time>2023-03-25T14:45:39Z</time>
      </trkpt>
      <trkpt lat="49.88492" lon="2.35067">
        <ele>28.1</ele>
        <time>2023-03-25T14:45:40Z</time>
      </trkpt>
      <trkpt lat="49.88491" lon="2.35066">
        <ele>28.1</ele>
        <time>2023-03-25T14:45:42Z</time>
      </trkpt>
      <trkpt lat="49.8849" lon="2.35066">
        <ele>28.2</ele>
        <time>2023-03-25T14:45:43Z</time>
      </trkpt>
      <trkpt lat="49.88489" lon="2.35066">
        <ele>28.2</ele>
        <time>2023-03-25T14:45:45Z</time>
      </trkpt>
      <trkpt lat="49.88489" lon="2.35066">
        <ele>28.2</ele>
        <time>2023-03-25T14:45:46Z</time>
      </trkpt>
      <trkpt lat="49.88488" lon="2.35066">
        <ele>28.2</ele>
        <time>2023-03-25T14:45:47Z</time>
      </trkpt>
      <trkpt lat="49.88488" lon="2.35066">
        <ele>28.2</ele>
        <time>2023-03-25T14:45:48Z</time>
      </trkpt>
      <trkpt lat="49.88488" lon="2.35066">
        <ele>28.2</ele>
        <time>2023-03-25T14:45:49Z</time>
      </trkpt>
      <trkpt lat="49.88487" lon="2.35065">
        <ele>28.2</ele>
        <time>2023-03-25T14:45:50Z</time>
      </trkpt>
      <trkpt lat="49.88486" lon="2.35063">
        <ele>28.2</ele>
        <time>2023-03-25T14:45:51Z</time>
      </trkpt>
      <trkpt lat="49.88486" lon="2.35063">
        <ele>28.2</ele>
        <time>2023-03-25T14:45:52Z</time>
      </trkpt>
      <trkpt lat="49.88486" lon="2.35063">
        <ele>28.2</ele>
        <time>2023-03-25T14:45:53Z</time>
      </trkpt>
      <trkpt lat="49.88487" lon="2.35063">
        <ele>28.2</ele>
        <time>2023-03-25T14:45:54Z</time>
      </trkpt>
      <trkpt lat="49.88487" lon="2.35064">
        <ele>28.2</ele>
        <time>2023-03-25T14:45:55Z</time>
      </trkpt>
      <trkpt lat="49.88488" lon="2.35064">
        <ele>28.2</ele>
        <time>2023-03-25T14:45:56Z</time>
      </trkpt>
      <trkpt lat="49.88488" lon="2.35065">
        <ele>28.2</ele>
        <time>2023-03-25T14:45:57Z</time>
      </trkpt>
      <trkpt lat="49.88489" lon="2.35066">
        <ele>28.2</ele>
        <time>2023-03-25T14:45:58Z</time>
      </trkpt>
      <trkpt lat="49.8849" lon="2.35068">
        <ele>28.2</ele>
        <time>2023-03-25T14:45:59Z</time>
      </trkpt>
      <trkpt lat="49.88491" lon="2.35069">
        <ele>28.2</ele>
        <time>2023-03-25T14:46:00Z</time>
      </trkpt>
      <trkpt lat="49.88492" lon="2.35069">
        <ele>28.2</ele>
        <time>2023-03-25T14:46:01Z</time>
      </trkpt>
      <trkpt lat="49.88493" lon="2.3507">
        <ele>28.2</ele>
        <time>2023-03-25T14:46:02Z</time>
      </trkpt>
      <trkpt lat="49.88494" lon="2.3507">
        <ele>28.2</ele>
        <time>2023-03-25T14:46:03Z</time>
      </trkpt>
      <trkpt lat="49.88495" lon="2.35071">
        <ele>28.2</ele>
        <time>2023-03-25T14:46:04Z</time>
      </trkpt>
      <trkpt lat="49.88496" lon="2.3507">
        <ele>28.2</ele>
        <time>2023-03-25T14:46:05Z</time>
      </trkpt>
      <trkpt lat="49.88497" lon="2.35069">
        <ele>28.2</ele>
        <time>2023-03-25T14:46:06Z</time>
      </trkpt>
      <trkpt lat="49.88497" lon="2.35068">
        <ele>28.2</ele>
        <time>2023-03-25T14:46:07Z</time>
      </trkpt>
      <trkpt lat="49.88498" lon="2.35068">
        <ele>28.2</ele>
        <time>2023-03-25T14:46:08Z</time>
      </trkpt>
      <trkpt lat="49.88498" lon="2.35068">
        <ele>28.2</ele>
        <time>2023-03-25T14:46:09Z</time>
      </trkpt>
      <trkpt lat="49.88497" lon="2.35068">
        <ele>28.2</ele>
        <time>2023-03-25T14:46:10Z</time>
      </trkpt>
      <trkpt lat="49.88497" lon="2.35068">
        <ele>28.2</ele>
        <time>2023-03-25T14:46:11Z</time>
      </trkpt>
      <trkpt lat="49.88497" lon="2.35068">
        <ele>28.2</ele>
        <time>2023-03-25T14:46:12Z</time>
      </trkpt>
      <trkpt lat="49.88497" lon="2.35068">
        <ele>28.2</ele>
        <time>2023-03-25T14:46:13Z</time>
      </trkpt>
      <trkpt lat="49.88497" lon="2.35068">
        <ele>28.2</ele>
        <time>2023-03-25T14:46:14Z</time>
      </trkpt>
      <trkpt lat="49.88497" lon="2.35068">
        <ele>28.2</ele>
        <time>2023-03-25T14:46:15Z</time>
      </trkpt>
      <trkpt lat="49.88497" lon="2.35068">
        <ele>28.2</ele>
        <time>2023-03-25T14:46:16Z</time>
      </trkpt>
      <trkpt lat="49.88497" lon="2.35068">
        <ele>28.2</ele>
        <time>2023-03-25T14:46:17Z</time>
      </trkpt>
      <trkpt lat="49.88497" lon="2.35068">
        <ele>28.2</ele>
        <time>2023-03-25T14:46:18Z</time>
      </trkpt>
      <trkpt lat="49.88497" lon="2.35068">
        <ele>28.2</ele>
        <time>2023-03-25T14:46:19Z</time>
      </trkpt>
      <trkpt lat="49.88497" lon="2.35068">
        <ele>28.2</ele>
        <time>2023-03-25T14:46:20Z</time>
      </trkpt>
      <trkpt lat="49.88497" lon="2.35068">
        <ele>28.2</ele>
        <time>2023-03-25T14:46:21Z</time>
      </trkpt>
      <trkpt lat="49.88497" lon="2.35068">
        <ele>28.2</ele>
        <time>2023-03-25T14:46:22Z</time>
      </trkpt>
      <trkpt lat="49.88497" lon="2.35068">
        <ele>28.2</ele>
        <time>2023-03-25T14:46:23Z</time>
      </trkpt>
      <trkpt lat="49.88497" lon="2.35068">
        <ele>28.2</ele>
        <time>2023-03-25T14:46:24Z</time>
      </trkpt>
      <trkpt lat="49.88497" lon="2.35068">
        <ele>28.2</ele>
        <time>2023-03-25T14:46:25Z</time>
      </trkpt>
      <trkpt lat="49.88497" lon="2.35068">
        <ele>28.2</ele>
        <time>2023-03-25T14:46:26Z</time>
      </trkpt>
      <trkpt lat="49.88497" lon="2.35068">
        <ele>28.2</ele>
        <time>2023-03-25T14:46:27Z</time>
      </trkpt>
      <trkpt lat="49.88497" lon="2.35068">
        <ele>28.2</ele>
        <time>2023-03-25T14:46:28Z</time>
      </trkpt>
      <trkpt lat="49.88497" lon="2.35068">
        <ele>28.2</ele>
        <time>2023-03-25T14:46:29Z</time>
      </trkpt>
      <trkpt lat="49.88497" lon="2.35068">
        <ele>28.2</ele>
        <time>2023-03-25T14:46:30Z</time>
      </trkpt>
      <trkpt lat="49.88496" lon="2.35068">
        <ele>28.2</ele>
        <time>2023-03-25T14:46:31Z</time>
      </trkpt>
      <trkpt lat="49.88496" lon="2.35068">
        <ele>28.2</ele>
        <time>2023-03-25T14:46:32Z</time>
      </trkpt>
      <trkpt lat="49.88497" lon="2.35067">
        <ele>28.2</ele>
        <time>2023-03-25T14:46:33Z</time>
      </trkpt>
      <trkpt lat="49.88498" lon="2.35067">
        <ele>28.2</ele>
        <time>2023-03-25T14:46:34Z</time>
      </trkpt>
      <trkpt lat="49.88498" lon="2.35067">
        <ele>28.2</ele>
        <time>2023-03-25T14:46:35Z</time>
      </trkpt>
      <trkpt lat="49.88499" lon="2.35066">
        <ele>28.2</ele>
        <time>2023-03-25T14:46:36Z</time>
      </trkpt>
      <trkpt lat="49.88499" lon="2.35065">
        <ele>28.2</ele>
        <time>2023-03-25T14:46:37Z</time>
      </trkpt>
      <trkpt lat="49.885" lon="2.35065">
        <ele>28.2</ele>
        <time>2023-03-25T14:46:38Z</time>
      </trkpt>
      <trkpt lat="49.885" lon="2.35064">
        <ele>28.2</ele>
        <time>2023-03-25T14:46:39Z</time>
      </trkpt>
      <trkpt lat="49.885" lon="2.35063">
        <ele>28.2</ele>
        <time>2023-03-25T14:46:40Z</time>
      </trkpt>
      <trkpt lat="49.88501" lon="2.35061">
        <ele>28.2</ele>
        <time>2023-03-25T14:46:41Z</time>
      </trkpt>
      <trkpt lat="49.88502" lon="2.35061">
        <ele>28.2</ele>
        <time>2023-03-25T14:46:42Z</time>
      </trkpt>
      <trkpt lat="49.88502" lon="2.3506">
        <ele>28.2</ele>
        <time>2023-03-25T14:46:43Z</time>
      </trkpt>
      <trkpt lat="49.88503" lon="2.35059">
        <ele>28.2</ele>
        <time>2023-03-25T14:46:44Z</time>
      </trkpt>
      <trkpt lat="49.88503" lon="2.35058">
        <ele>28.2</ele>
        <time>2023-03-25T14:46:45Z</time>
      </trkpt>
      <trkpt lat="49.88504" lon="2.35057">
        <ele>28.2</ele>
        <time>2023-03-25T14:46:46Z</time>
      </trkpt>
      <trkpt lat="49.88504" lon="2.35057">
        <ele>28.2</ele>
        <time>2023-03-25T14:46:47Z</time>
      </trkpt>
      <trkpt lat="49.88505" lon="2.35056">
        <ele>28.2</ele>
        <time>2023-03-25T14:46:48Z</time>
      </trkpt>
      <trkpt lat="49.88506" lon="2.35055">
        <ele>28.2</ele>
        <time>2023-03-25T14:46:49Z</time>
      </trkpt>
      <trkpt lat="49.88506" lon="2.35054">
        <ele>28.2</ele>
        <time>2023-03-25T14:46:50Z</time>
      </trkpt>
      <trkpt lat="49.88507" lon="2.35052">
        <ele>28.2</ele>
        <time>2023-03-25T14:46:51Z</time>
      </trkpt>
      <trkpt lat="49.88507" lon="2.35052">
        <ele>28.2</ele>
        <time>2023-03-25T14:46:52Z</time>
      </trkpt>
      <trkpt lat="49.88508" lon="2.35052">
        <ele>28.2</ele>
        <time>2023-03-25T14:46:53Z</time>
      </trkpt>
      <trkpt lat="49.88508" lon="2.35052">
        <ele>28.2</ele>
        <time>2023-03-25T14:46:54Z</time>
      </trkpt>
      <trkpt lat="49.88509" lon="2.35051">
        <ele>28.2</ele>
        <time>2023-03-25T14:46:55Z</time>
      </trkpt>
      <trkpt lat="49.88509" lon="2.35051">
        <ele>28.2</ele>
        <time>2023-03-25T14:46:56Z</time>
      </trkpt>
      <trkpt lat="49.8851" lon="2.35051">
        <ele>28.2</ele>
        <time>2023-03-25T14:46:57Z</time>
      </trkpt>
      <trkpt lat="49.8851" lon="2.35051">
        <ele>28.2</ele>
        <time>2023-03-25T14:46:58Z</time>
      </trkpt>
      <trkpt lat="49.88509" lon="2.35051">
        <ele>28.2</ele>
        <time>2023-03-25T14:46:59Z</time>
      </trkpt>
      <trkpt lat="49.88509" lon="2.35052">
        <ele>28.2</ele>
        <time>2023-03-25T14:47:00Z</time>
      </trkpt>
      <trkpt lat="49.88508" lon="2.35052">
        <ele>28.2</ele>
        <time>2023-03-25T14:47:01Z</time>
      </trkpt>
      <trkpt lat="49.88508" lon="2.35052">
        <ele>28.2</ele>
        <time>2023-03-25T14:47:02Z</time>
      </trkpt>
      <trkpt lat="49.88508" lon="2.35052">
        <ele>28.2</ele>
        <time>2023-03-25T14:47:03Z</time>
      </trkpt>
      <trkpt lat="49.88508" lon="2.35052">
        <ele>28.2</ele>
        <time>2023-03-25T14:47:04Z</time>
      </trkpt>
      <trkpt lat="49.88508" lon="2.35052">
        <ele>28.2</ele>
        <time>2023-03-25T14:47:05Z</time>
      </trkpt>
      <trkpt lat="49.88507" lon="2.35052">
        <ele>28.2</ele>
        <time>2023-03-25T14:47:06Z</time>
      </trkpt>
      <trkpt lat="49.88507" lon="2.35053">
        <ele>28.2</ele>
        <time>2023-03-25T14:47:07Z</time>
      </trkpt>
      <trkpt lat="49.88506" lon="2.35052">
        <ele>28.2</ele>
        <time>2023-03-25T14:47:08Z</time>
      </trkpt>
      <trkpt lat="49.88507" lon="2.35052">
        <ele>28.2</ele>
        <time>2023-03-25T14:47:09Z</time>
      </trkpt>
      <trkpt lat="49.88507" lon="2.35052">
        <ele>28.2</ele>
        <time>2023-03-25T14:47:10Z</time>
      </trkpt>
      <trkpt lat="49.88507" lon="2.35052">
        <ele>28.2</ele>
        <time>2023-03-25T14:47:11Z</time>
      </trkpt>
      <trkpt lat="49.88507" lon="2.35051">
        <ele>28.2</ele>
        <time>2023-03-25T14:47:12Z</time>
      </trkpt>
      <trkpt lat="49.88508" lon="2.35051">
        <ele>28.2</ele>
        <time>2023-03-25T14:47:13Z</time>
      </trkpt>
      <trkpt lat="49.88508" lon="2.35051">
        <ele>28.2</ele>
        <time>2023-03-25T14:47:14Z</time>
      </trkpt>
      <trkpt lat="49.88508" lon="2.3505">
        <ele>28.2</ele>
        <time>2023-03-25T14:47:15Z</time>
      </trkpt>
      <trkpt lat="49.88508" lon="2.3505">
        <ele>28.2</ele>
        <time>2023-03-25T14:47:16Z</time>
      </trkpt>
      <trkpt lat="49.88508" lon="2.3505">
        <ele>28.2</ele>
        <time>2023-03-25T14:47:17Z</time>
      </trkpt>
      <trkpt lat="49.88508" lon="2.35049">
        <ele>28.2</ele>
        <time>2023-03-25T14:47:18Z</time>
      </trkpt>
      <trkpt lat="49.88509" lon="2.35048">
        <ele>28.2</ele>
        <time>2023-03-25T14:47:19Z</time>
      </trkpt>
      <trkpt lat="49.88509" lon="2.35048">
        <ele>28.2</ele>
        <time>2023-03-25T14:47:20Z</time>
      </trkpt>
      <trkpt lat="49.8851" lon="2.35047">
        <ele>28.2</ele>
        <time>2023-03-25T14:47:21Z</time>
      </trkpt>
      <trkpt lat="49.88511" lon="2.35045">
        <ele>28.2</ele>
        <time>2023-03-25T14:47:22Z</time>
      </trkpt>
      <trkpt lat="49.88511" lon="2.35045">
        <ele>28.2</ele>
        <time>2023-03-25T14:47:23Z</time>
      </trkpt>
      <trkpt lat="49.88511" lon="2.35044">
        <ele>28.2</ele>
        <time>2023-03-25T14:47:24Z</time>
      </trkpt>
      <trkpt lat="49.88512" lon="2.35043">
        <ele>28.2</ele>
        <time>2023-03-25T14:47:25Z</time>
      </trkpt>
      <trkpt lat="49.88513" lon="2.35043">
        <ele>28.2</ele>
        <time>2023-03-25T14:47:26Z</time>
      </trkpt>
      <trkpt lat="49.88514" lon="2.35041">
        <ele>28.2</ele>
        <time>2023-03-25T14:47:27Z</time>
      </trkpt>
      <trkpt lat="49.88515" lon="2.35041">
        <ele>28.2</ele>
        <time>2023-03-25T14:47:28Z</time>
      </trkpt>
      <trkpt lat="49.88515" lon="2.3504">
        <ele>28.2</ele>
        <time>2023-03-25T14:47:29Z</time>
      </trkpt>
      <trkpt lat="49.88516" lon="2.35039">
        <ele>28.3</ele>
        <time>2023-03-25T14:47:30Z</time>
      </trkpt>
      <trkpt lat="49.88517" lon="2.35038">
        <ele>28.3</ele>
        <time>2023-03-25T14:47:31Z</time>
      </trkpt>
      <trkpt lat="49.88521" lon="2.35033">
        <ele>28.4</ele>
        <time>2023-03-25T14:47:33Z</time>
      </trkpt>
      <trkpt lat="49.88522" lon="2.35031">
        <ele>28.4</ele>
        <time>2023-03-25T14:47:34Z</time>
      </trkpt>
      <trkpt lat="49.88523" lon="2.3503">
        <ele>28.5</ele>
        <time>2023-03-25T14:47:35Z</time>
      </trkpt>
      <trkpt lat="49.88524" lon="2.3503">
        <ele>28.5</ele>
        <time>2023-03-25T14:47:36Z</time>
      </trkpt>
      <trkpt lat="49.88526" lon="2.35029">
        <ele>28.6</ele>
        <time>2023-03-25T14:47:37Z</time>
      </trkpt>
      <trkpt lat="49.88527" lon="2.35028">
        <ele>28.6</ele>
        <time>2023-03-25T14:47:39Z</time>
      </trkpt>
      <trkpt lat="49.88527" lon="2.35028">
        <ele>28.6</ele>
        <time>2023-03-25T14:47:40Z</time>
      </trkpt>
      <trkpt lat="49.88529" lon="2.35027">
        <ele>28.7</ele>
        <time>2023-03-25T14:47:41Z</time>
      </trkpt>
      <trkpt lat="49.8853" lon="2.35026">
        <ele>28.7</ele>
        <time>2023-03-25T14:47:43Z</time>
      </trkpt>
      <trkpt lat="49.88531" lon="2.35025">
        <ele>28.7</ele>
        <time>2023-03-25T14:47:44Z</time>
      </trkpt>
      <trkpt lat="49.88532" lon="2.35024">
        <ele>28.8</ele>
        <time>2023-03-25T14:47:45Z</time>
      </trkpt>
      <trkpt lat="49.88533" lon="2.35024">
        <ele>28.8</ele>
        <time>2023-03-25T14:47:46Z</time>
      </trkpt>
      <trkpt lat="49.88533" lon="2.35023">
        <ele>28.8</ele>
        <time>2023-03-25T14:47:47Z</time>
      </trkpt>
      <trkpt lat="49.88534" lon="2.35023">
        <ele>28.9</ele>
        <time>2023-03-25T14:47:48Z</time>
      </trkpt>
      <trkpt lat="49.88535" lon="2.35022">
        <ele>28.9</ele>
        <time>2023-03-25T14:47:49Z</time>
      </trkpt>
      <trkpt lat="49.88536" lon="2.35021">
        <ele>28.9</ele>
        <time>2023-03-25T14:47:51Z</time>
      </trkpt>
      <trkpt lat="49.88537" lon="2.35019">
        <ele>29</ele>
        <time>2023-03-25T14:47:52Z</time>
      </trkpt>
      <trkpt lat="49.88538" lon="2.35019">
        <ele>29</ele>
        <time>2023-03-25T14:47:53Z</time>
      </trkpt>
      <trkpt lat="49.88539" lon="2.35018">
        <ele>29.1</ele>
        <time>2023-03-25T14:47:54Z</time>
      </trkpt>
      <trkpt lat="49.8854" lon="2.35016">
        <ele>29.1</ele>
        <time>2023-03-25T14:47:55Z</time>
      </trkpt>
      <trkpt lat="49.88541" lon="2.35015">
        <ele>29.2</ele>
        <time>2023-03-25T14:47:57Z</time>
      </trkpt>
      <trkpt lat="49.88542" lon="2.35014">
        <ele>29.2</ele>
        <time>2023-03-25T14:47:58Z</time>
      </trkpt>
      <trkpt lat="49.88543" lon="2.35013">
        <ele>29.3</ele>
        <time>2023-03-25T14:47:59Z</time>
      </trkpt>
      <trkpt lat="49.88543" lon="2.35012">
        <ele>29.3</ele>
        <time>2023-03-25T14:48:01Z</time>
      </trkpt>
      <trkpt lat="49.88544" lon="2.35011">
        <ele>29.3</ele>
        <time>2023-03-25T14:48:02Z</time>
      </trkpt>
      <trkpt lat="49.88545" lon="2.35011">
        <ele>29.4</ele>
        <time>2023-03-25T14:48:03Z</time>
      </trkpt>
      <trkpt lat="49.88545" lon="2.3501">
        <ele>29.4</ele>
        <time>2023-03-25T14:48:04Z</time>
      </trkpt>
      <trkpt lat="49.88546" lon="2.35009">
        <ele>29.5</ele>
        <time>2023-03-25T14:48:05Z</time>
      </trkpt>
      <trkpt lat="49.88547" lon="2.35009">
        <ele>29.5</ele>
        <time>2023-03-25T14:48:06Z</time>
      </trkpt>
      <trkpt lat="49.88548" lon="2.35008">
        <ele>29.5</ele>
        <time>2023-03-25T14:48:07Z</time>
      </trkpt>
      <trkpt lat="49.88548" lon="2.35009">
        <ele>29.5</ele>
        <time>2023-03-25T14:48:09Z</time>
      </trkpt>
      <trkpt lat="49.88549" lon="2.35009">
        <ele>29.6</ele>
        <time>2023-03-25T14:48:10Z</time>
      </trkpt>
      <trkpt lat="49.88549" lon="2.35009">
        <ele>29.6</ele>
        <time>2023-03-25T14:48:11Z</time>
      </trkpt>
      <trkpt lat="49.88549" lon="2.35009">
        <ele>29.6</ele>
        <time>2023-03-25T14:48:12Z</time>
      </trkpt>
      <trkpt lat="49.8855" lon="2.35009">
        <ele>29.6</ele>
        <time>2023-03-25T14:48:13Z</time>
      </trkpt>
      <trkpt lat="49.88552" lon="2.35007">
        <ele>29.7</ele>
        <time>2023-03-25T14:48:14Z</time>
      </trkpt>
      <trkpt lat="49.88553" lon="2.35006">
        <ele>29.8</ele>
        <time>2023-03-25T14:48:16Z</time>
      </trkpt>
      <trkpt lat="49.88553" lon="2.35005">
        <ele>29.8</ele>
        <time>2023-03-25T14:48:17Z</time>
      </trkpt>
      <trkpt lat="49.88554" lon="2.35005">
        <ele>29.9</ele>
        <time>2023-03-25T14:48:18Z</time>
      </trkpt>
      <trkpt lat="49.88555" lon="2.35004">
        <ele>29.9</ele>
        <time>2023-03-25T14:48:20Z</time>
      </trkpt>
      <trkpt lat="49.88555" lon="2.35004">
        <ele>29.9</ele>
        <time>2023-03-25T14:48:21Z</time>
      </trkpt>
      <trkpt lat="49.88554" lon="2.35005">
        <ele>30</ele>
        <time>2023-03-25T14:48:22Z</time>
      </trkpt>
      <trkpt lat="49.88554" lon="2.35005">
        <ele>30</ele>
        <time>2023-03-25T14:48:24Z</time>
      </trkpt>
      <trkpt lat="49.88554" lon="2.35005">
        <ele>30</ele>
        <time>2023-03-25T14:48:25Z</time>
      </trkpt>
      <trkpt lat="49.88552" lon="2.35006">
        <ele>30.1</ele>
        <time>2023-03-25T14:48:27Z</time>
      </trkpt>
      <trkpt lat="49.88553" lon="2.35005">
        <ele>30.1</ele>
        <time>2023-03-25T14:48:28Z</time>
      </trkpt>
      <trkpt lat="49.88553" lon="2.35005">
        <ele>30.2</ele>
        <time>2023-03-25T14:48:29Z</time>
      </trkpt>
      <trkpt lat="49.88554" lon="2.35004">
        <ele>30.2</ele>
        <time>2023-03-25T14:48:30Z</time>
      </trkpt>
      <trkpt lat="49.88555" lon="2.35004">
        <ele>30.2</ele>
        <time>2023-03-25T14:48:31Z</time>
      </trkpt>
      <trkpt lat="49.88555" lon="2.35003">
        <ele>30.3</ele>
        <time>2023-03-25T14:48:32Z</time>
      </trkpt>
      <trkpt lat="49.88556" lon="2.35002">
        <ele>30.3</ele>
        <time>2023-03-25T14:48:33Z</time>
      </trkpt>
      <trkpt lat="49.88557" lon="2.35002">
        <ele>30.4</ele>
        <time>2023-03-25T14:48:35Z</time>
      </trkpt>
      <trkpt lat="49.88558" lon="2.35002">
        <ele>30.4</ele>
        <time>2023-03-25T14:48:36Z</time>
      </trkpt>
      <trkpt lat="49.8856" lon="2.35002">
        <ele>30.5</ele>
        <time>2023-03-25T14:48:37Z</time>
      </trkpt>
      <trkpt lat="49.8856" lon="2.35002">
        <ele>30.6</ele>
        <time>2023-03-25T14:48:38Z</time>
      </trkpt>
      <trkpt lat="49.88561" lon="2.35002">
        <ele>30.6</ele>
        <time>2023-03-25T14:48:39Z</time>
      </trkpt>
      <trkpt lat="49.88562" lon="2.35001">
        <ele>30.7</ele>
        <time>2023-03-25T14:48:40Z</time>
      </trkpt>
      <trkpt lat="49.88563" lon="2.35001">
        <ele>30.7</ele>
        <time>2023-03-25T14:48:41Z</time>
      </trkpt>
      <trkpt lat="49.88564" lon="2.35001">
        <ele>30.8</ele>
        <time>2023-03-25T14:48:42Z</time>
      </trkpt>
      <trkpt lat="49.88565" lon="2.35001">
        <ele>30.8</ele>
        <time>2023-03-25T14:48:44Z</time>
      </trkpt>
      <trkpt lat="49.88566" lon="2.35001">
        <ele>30.9</ele>
        <time>2023-03-25T14:48:45Z</time>
      </trkpt>
      <trkpt lat="49.88567" lon="2.35002">
        <ele>31</ele>
        <time>2023-03-25T14:48:46Z</time>
      </trkpt>
      <trkpt lat="49.88568" lon="2.35001">
        <ele>31.1</ele>
        <time>2023-03-25T14:48:47Z</time>
      </trkpt>
      <trkpt lat="49.88569" lon="2.35">
        <ele>31.1</ele>
        <time>2023-03-25T14:48:48Z</time>
      </trkpt>
      <trkpt lat="49.8857" lon="2.35">
        <ele>31.2</ele>
        <time>2023-03-25T14:48:49Z</time>
      </trkpt>
      <trkpt lat="49.88571" lon="2.35001">
        <ele>31.2</ele>
        <time>2023-03-25T14:48:51Z</time>
      </trkpt>
      <trkpt lat="49.88572" lon="2.35">
        <ele>31.4</ele>
        <time>2023-03-25T14:48:52Z</time>
      </trkpt>
      <trkpt lat="49.88573" lon="2.34999">
        <ele>31.4</ele>
        <time>2023-03-25T14:48:53Z</time>
      </trkpt>
      <trkpt lat="49.88573" lon="2.34999">
        <ele>31.4</ele>
        <time>2023-03-25T14:48:54Z</time>
      </trkpt>
      <trkpt lat="49.88574" lon="2.34999">
        <ele>31.5</ele>
        <time>2023-03-25T14:48:55Z</time>
      </trkpt>
      <trkpt lat="49.88575" lon="2.34998">
        <ele>31.5</ele>
        <time>2023-03-25T14:48:56Z</time>
      </trkpt>
      <trkpt lat="49.88575" lon="2.34995">
        <ele>31.7</ele>
        <time>2023-03-25T14:48:58Z</time>
      </trkpt>
      <trkpt lat="49.88576" lon="2.34992">
        <ele>31.8</ele>
        <time>2023-03-25T14:48:59Z</time>
      </trkpt>
      <trkpt lat="49.88577" lon="2.34992">
        <ele>31.8</ele>
        <time>2023-03-25T14:49:00Z</time>
      </trkpt>
      <trkpt lat="49.88578" lon="2.34994">
        <ele>31.9</ele>
        <time>2023-03-25T14:49:02Z</time>
      </trkpt>
      <trkpt lat="49.88579" lon="2.34994">
        <ele>32</ele>
        <time>2023-03-25T14:49:03Z</time>
      </trkpt>
      <trkpt lat="49.8858" lon="2.34994">
        <ele>32</ele>
        <time>2023-03-25T14:49:04Z</time>
      </trkpt>
      <trkpt lat="49.8858" lon="2.34995">
        <ele>32.1</ele>
        <time>2023-03-25T14:49:05Z</time>
      </trkpt>
      <trkpt lat="49.88581" lon="2.34995">
        <ele>32.1</ele>
        <time>2023-03-25T14:49:06Z</time>
      </trkpt>
      <trkpt lat="49.8858" lon="2.34992">
        <ele>32.2</ele>
        <time>2023-03-25T14:49:07Z</time>
      </trkpt>
      <trkpt lat="49.88581" lon="2.34992">
        <ele>32.3</ele>
        <time>2023-03-25T14:49:09Z</time>
      </trkpt>
      <trkpt lat="49.88582" lon="2.34993">
        <ele>32.3</ele>
        <time>2023-03-25T14:49:10Z</time>
      </trkpt>
      <trkpt lat="49.88582" lon="2.34993">
        <ele>32.5</ele>
        <time>2023-03-25T14:49:11Z</time>
      </trkpt>
      <trkpt lat="49.88582" lon="2.34994">
        <ele>32.5</ele>
        <time>2023-03-25T14:49:12Z</time>
      </trkpt>
      <trkpt lat="49.88582" lon="2.34995">
        <ele>32.5</ele>
        <time>2023-03-25T14:49:14Z</time>
      </trkpt>
      <trkpt lat="49.88582" lon="2.34996">
        <ele>32.5</ele>
        <time>2023-03-25T14:49:15Z</time>
      </trkpt>
      <trkpt lat="49.88582" lon="2.34998">
        <ele>32.5</ele>
        <time>2023-03-25T14:49:16Z</time>
      </trkpt>
      <trkpt lat="49.8858" lon="2.35002">
        <ele>32.5</ele>
        <time>2023-03-25T14:49:17Z</time>
      </trkpt>
      <trkpt lat="49.8858" lon="2.35003">
        <ele>32.5</ele>
        <time>2023-03-25T14:49:19Z</time>
      </trkpt>
      <trkpt lat="49.88579" lon="2.35005">
        <ele>32.5</ele>
        <time>2023-03-25T14:49:20Z</time>
      </trkpt>
      <trkpt lat="49.88579" lon="2.35006">
        <ele>32.5</ele>
        <time>2023-03-25T14:49:21Z</time>
      </trkpt>
      <trkpt lat="49.88578" lon="2.35007">
        <ele>32.5</ele>
        <time>2023-03-25T14:49:22Z</time>
      </trkpt>
      <trkpt lat="49.88577" lon="2.35007">
        <ele>32.5</ele>
        <time>2023-03-25T14:49:23Z</time>
      </trkpt>
      <trkpt lat="49.88578" lon="2.35008">
        <ele>32.5</ele>
        <time>2023-03-25T14:49:25Z</time>
      </trkpt>
      <trkpt lat="49.88579" lon="2.35009">
        <ele>32.5</ele>
        <time>2023-03-25T14:49:26Z</time>
      </trkpt>
      <trkpt lat="49.88581" lon="2.3501">
        <ele>32.5</ele>
        <time>2023-03-25T14:49:27Z</time>
      </trkpt>
      <trkpt lat="49.88584" lon="2.35012">
        <ele>32.5</ele>
        <time>2023-03-25T14:49:28Z</time>
      </trkpt>
      <trkpt lat="49.88585" lon="2.35012">
        <ele>32.5</ele>
        <time>2023-03-25T14:49:29Z</time>
      </trkpt>
      <trkpt lat="49.88586" lon="2.35013">
        <ele>32.5</ele>
        <time>2023-03-25T14:49:30Z</time>
      </trkpt>
      <trkpt lat="49.88588" lon="2.35015">
        <ele>32.5</ele>
        <time>2023-03-25T14:49:31Z</time>
      </trkpt>
      <trkpt lat="49.88589" lon="2.35016">
        <ele>32.5</ele>
        <time>2023-03-25T14:49:33Z</time>
      </trkpt>
      <trkpt lat="49.88589" lon="2.35017">
        <ele>32.5</ele>
        <time>2023-03-25T14:49:34Z</time>
      </trkpt>
      <trkpt lat="49.8859" lon="2.35018">
        <ele>32.5</ele>
        <time>2023-03-25T14:49:35Z</time>
      </trkpt>
      <trkpt lat="49.88591" lon="2.35019">
        <ele>32.5</ele>
        <time>2023-03-25T14:49:36Z</time>
      </trkpt>
      <trkpt lat="49.88591" lon="2.3502">
        <ele>32.6</ele>
        <time>2023-03-25T14:49:37Z</time>
      </trkpt>
      <trkpt lat="49.88592" lon="2.35021">
        <ele>32.6</ele>
        <time>2023-03-25T14:49:38Z</time>
      </trkpt>
      <trkpt lat="49.88595" lon="2.35023">
        <ele>32.8</ele>
        <time>2023-03-25T14:49:40Z</time>
      </trkpt>
      <trkpt lat="49.88596" lon="2.35024">
        <ele>32.8</ele>
        <time>2023-03-25T14:49:41Z</time>
      </trkpt>
      <trkpt lat="49.88598" lon="2.35026">
        <ele>33</ele>
        <time>2023-03-25T14:49:42Z</time>
      </trkpt>
      <trkpt lat="49.88598" lon="2.35027">
        <ele>33</ele>
        <time>2023-03-25T14:49:43Z</time>
      </trkpt>
      <trkpt lat="49.88599" lon="2.35029">
        <ele>33.1</ele>
        <time>2023-03-25T14:49:44Z</time>
      </trkpt>
      <trkpt lat="49.886" lon="2.35031">
        <ele>33.2</ele>
        <time>2023-03-25T14:49:45Z</time>
      </trkpt>
      <trkpt lat="49.88601" lon="2.35033">
        <ele>33.3</ele>
        <time>2023-03-25T14:49:47Z</time>
      </trkpt>
      <trkpt lat="49.88602" lon="2.35036">
        <ele>33.4</ele>
        <time>2023-03-25T14:49:48Z</time>
      </trkpt>
      <trkpt lat="49.88603" lon="2.35037">
        <ele>33.4</ele>
        <time>2023-03-25T14:49:49Z</time>
      </trkpt>
      <trkpt lat="49.88603" lon="2.35039">
        <ele>33.5</ele>
        <time>2023-03-25T14:49:50Z</time>
      </trkpt>
      <trkpt lat="49.88603" lon="2.35041">
        <ele>33.5</ele>
        <time>2023-03-25T14:49:51Z</time>
      </trkpt>
      <trkpt lat="49.88603" lon="2.35042">
        <ele>33.5</ele>
        <time>2023-03-25T14:49:52Z</time>
      </trkpt>
      <trkpt lat="49.88603" lon="2.35044">
        <ele>33.6</ele>
        <time>2023-03-25T14:49:53Z</time>
      </trkpt>
      <trkpt lat="49.88604" lon="2.35045">
        <ele>33.6</ele>
        <time>2023-03-25T14:49:54Z</time>
      </trkpt>
      <trkpt lat="49.88604" lon="2.35049">
        <ele>33.7</ele>
        <time>2023-03-25T14:49:56Z</time>
      </trkpt>
      <trkpt lat="49.88605" lon="2.3505">
        <ele>33.8</ele>
        <time>2023-03-25T14:49:57Z</time>
      </trkpt>
      <trkpt lat="49.88605" lon="2.35051">
        <ele>33.8</ele>
        <time>2023-03-25T14:49:58Z</time>
      </trkpt>
      <trkpt lat="49.88605" lon="2.35052">
        <ele>33.8</ele>
        <time>2023-03-25T14:49:59Z</time>
      </trkpt>
      <trkpt lat="49.88606" lon="2.35053">
        <ele>33.9</ele>
        <time>2023-03-25T14:50:00Z</time>
      </trkpt>
      <trkpt lat="49.88606" lon="2.35055">
        <ele>34</ele>
        <time>2023-03-25T14:50:01Z</time>
      </trkpt>
      <trkpt lat="49.88607" lon="2.35057">
        <ele>34</ele>
        <time>2023-03-25T14:50:02Z</time>
      </trkpt>
      <trkpt lat="49.88607" lon="2.35058">
        <ele>34.1</ele>
        <time>2023-03-25T14:50:04Z</time>
      </trkpt>
      <trkpt lat="49.88608" lon="2.3506">
        <ele>34.1</ele>
        <time>2023-03-25T14:50:05Z</time>
      </trkpt>
      <trkpt lat="49.88609" lon="2.35061">
        <ele>34.2</ele>
        <time>2023-03-25T14:50:06Z</time>
      </trkpt>
      <trkpt lat="49.88609" lon="2.35063">
        <ele>34.2</ele>
        <time>2023-03-25T14:50:08Z</time>
      </trkpt>
      <trkpt lat="49.88609" lon="2.35065">
        <ele>34.3</ele>
        <time>2023-03-25T14:50:09Z</time>
      </trkpt>
      <trkpt lat="49.88609" lon="2.35066">
        <ele>34.3</ele>
        <time>2023-03-25T14:50:10Z</time>
      </trkpt>
      <trkpt lat="49.8861" lon="2.35068">
        <ele>34.4</ele>
        <time>2023-03-25T14:50:11Z</time>
      </trkpt>
      <trkpt lat="49.8861" lon="2.3507">
        <ele>34.4</ele>
        <time>2023-03-25T14:50:12Z</time>
      </trkpt>
      <trkpt lat="49.8861" lon="2.35072">
        <ele>34.5</ele>
        <time>2023-03-25T14:50:13Z</time>
      </trkpt>
      <trkpt lat="49.8861" lon="2.35073">
        <ele>34.5</ele>
        <time>2023-03-25T14:50:15Z</time>
      </trkpt>
      <trkpt lat="49.88611" lon="2.35074">
        <ele>34.6</ele>
        <time>2023-03-25T14:50:16Z</time>
      </trkpt>
      <trkpt lat="49.88611" lon="2.35076">
        <ele>34.6</ele>
        <time>2023-03-25T14:50:17Z</time>
      </trkpt>
      <trkpt lat="49.88612" lon="2.35078">
        <ele>34.7</ele>
        <time>2023-03-25T14:50:18Z</time>
      </trkpt>
      <trkpt lat="49.88612" lon="2.35078">
        <ele>34.7</ele>
        <time>2023-03-25T14:50:19Z</time>
      </trkpt>
      <trkpt lat="49.88613" lon="2.35079">
        <ele>34.7</ele>
        <time>2023-03-25T14:50:20Z</time>
      </trkpt>
      <trkpt lat="49.88613" lon="2.35081">
        <ele>34.8</ele>
        <time>2023-03-25T14:50:21Z</time>
      </trkpt>
      <trkpt lat="49.88614" lon="2.35082">
        <ele>34.8</ele>
        <time>2023-03-25T14:50:22Z</time>
      </trkpt>
      <trkpt lat="49.88615" lon="2.35084">
        <ele>34.9</ele>
        <time>2023-03-25T14:50:24Z</time>
      </trkpt>
      <trkpt lat="49.88616" lon="2.35086">
        <ele>35</ele>
        <time>2023-03-25T14:50:25Z</time>
      </trkpt>
      <trkpt lat="49.88616" lon="2.35087">
        <ele>35</ele>
        <time>2023-03-25T14:50:26Z</time>
      </trkpt>
      <trkpt lat="49.88617" lon="2.35088">
        <ele>35.1</ele>
        <time>2023-03-25T14:50:27Z</time>
      </trkpt>
      <trkpt lat="49.88617" lon="2.35089">
        <ele>35.1</ele>
        <time>2023-03-25T14:50:28Z</time>
      </trkpt>
      <trkpt lat="49.88618" lon="2.3509">
        <ele>35.1</ele>
        <time>2023-03-25T14:50:29Z</time>
      </trkpt>
      <trkpt lat="49.88619" lon="2.35092">
        <ele>35.2</ele>
        <time>2023-03-25T14:50:31Z</time>
      </trkpt>
      <trkpt lat="49.88619" lon="2.35093">
        <ele>35.2</ele>
        <time>2023-03-25T14:50:32Z</time>
      </trkpt>
      <trkpt lat="49.8862" lon="2.35094">
        <ele>35.3</ele>
        <time>2023-03-25T14:50:33Z</time>
      </trkpt>
      <trkpt lat="49.8862" lon="2.35093">
        <ele>35.3</ele>
        <time>2023-03-25T14:50:34Z</time>
      </trkpt>
      <trkpt lat="49.8862" lon="2.35093">
        <ele>35.3</ele>
        <time>2023-03-25T14:50:35Z</time>
      </trkpt>
      <trkpt lat="49.8862" lon="2.35094">
        <ele>35.3</ele>
        <time>2023-03-25T14:50:36Z</time>
      </trkpt>
      <trkpt lat="49.8862" lon="2.35095">
        <ele>35.4</ele>
        <time>2023-03-25T14:50:37Z</time>
      </trkpt>
      <trkpt lat="49.8862" lon="2.35096">
        <ele>35.4</ele>
        <time>2023-03-25T14:50:39Z</time>
      </trkpt>
      <trkpt lat="49.88621" lon="2.35097">
        <ele>35.4</ele>
        <time>2023-03-25T14:50:40Z</time>
      </trkpt>
      <trkpt lat="49.88622" lon="2.35099">
        <ele>35.5</ele>
        <time>2023-03-25T14:50:41Z</time>
      </trkpt>
      <trkpt lat="49.88622" lon="2.351">
        <ele>35.5</ele>
        <time>2023-03-25T14:50:42Z</time>
      </trkpt>
      <trkpt lat="49.88623" lon="2.35101">
        <ele>35.6</ele>
        <time>2023-03-25T14:50:43Z</time>
      </trkpt>
      <trkpt lat="49.88623" lon="2.35103">
        <ele>35.6</ele>
        <time>2023-03-25T14:50:44Z</time>
      </trkpt>
      <trkpt lat="49.88624" lon="2.35105">
        <ele>35.7</ele>
        <time>2023-03-25T14:50:45Z</time>
      </trkpt>
      <trkpt lat="49.88624" lon="2.35106">
        <ele>35.7</ele>
        <time>2023-03-25T14:50:47Z</time>
      </trkpt>
      <trkpt lat="49.88625" lon="2.35108">
        <ele>35.8</ele>
        <time>2023-03-25T14:50:48Z</time>
      </trkpt>
      <trkpt lat="49.88626" lon="2.35109">
        <ele>35.8</ele>
        <time>2023-03-25T14:50:49Z</time>
      </trkpt>
      <trkpt lat="49.88626" lon="2.35111">
        <ele>35.9</ele>
        <time>2023-03-25T14:50:51Z</time>
      </trkpt>
      <trkpt lat="49.88627" lon="2.35112">
        <ele>35.9</ele>
        <time>2023-03-25T14:50:52Z</time>
      </trkpt>
      <trkpt lat="49.88628" lon="2.35114">
        <ele>36</ele>
        <time>2023-03-25T14:50:53Z</time>
      </trkpt>
      <trkpt lat="49.88628" lon="2.35115">
        <ele>36</ele>
        <time>2023-03-25T14:50:54Z</time>
      </trkpt>
      <trkpt lat="49.88629" lon="2.35116">
        <ele>36.1</ele>
        <time>2023-03-25T14:50:55Z</time>
      </trkpt>
      <trkpt lat="49.88629" lon="2.35117">
        <ele>36.1</ele>
        <time>2023-03-25T14:50:56Z</time>
      </trkpt>
      <trkpt lat="49.8863" lon="2.35119">
        <ele>36.2</ele>
        <time>2023-03-25T14:50:58Z</time>
      </trkpt>
      <trkpt lat="49.88631" lon="2.3512">
        <ele>36.2</ele>
        <time>2023-03-25T14:50:59Z</time>
      </trkpt>
      <trkpt lat="49.88631" lon="2.35122">
        <ele>36.3</ele>
        <time>2023-03-25T14:51:00Z</time>
      </trkpt>
      <trkpt lat="49.88632" lon="2.35123">
        <ele>36.3</ele>
        <time>2023-03-25T14:51:01Z</time>
      </trkpt>
      <trkpt lat="49.88632" lon="2.35125">
        <ele>36.4</ele>
        <time>2023-03-25T14:51:02Z</time>
      </trkpt>
      <trkpt lat="49.88633" lon="2.35127">
        <ele>36.4</ele>
        <time>2023-03-25T14:51:04Z</time>
      </trkpt>
      <trkpt lat="49.88633" lon="2.35129">
        <ele>36.5</ele>
        <time>2023-03-25T14:51:05Z</time>
      </trkpt>
      <trkpt lat="49.88634" lon="2.3513">
        <ele>36.6</ele>
        <time>2023-03-25T14:51:06Z</time>
      </trkpt>
      <trkpt lat="49.88634" lon="2.35131">
        <ele>36.6</ele>
        <time>2023-03-25T14:51:07Z</time>
      </trkpt>
      <trkpt lat="49.88636" lon="2.35134">
        <ele>36.7</ele>
        <time>2023-03-25T14:51:08Z</time>
      </trkpt>
      <trkpt lat="49.88636" lon="2.35135">
        <ele>36.7</ele>
        <time>2023-03-25T14:51:09Z</time>
      </trkpt>
      <trkpt lat="49.88637" lon="2.35136">
        <ele>36.8</ele>
        <time>2023-03-25T14:51:10Z</time>
      </trkpt>
      <trkpt lat="49.88638" lon="2.35138">
        <ele>36.9</ele>
        <time>2023-03-25T14:51:12Z</time>
      </trkpt>
      <trkpt lat="49.88639" lon="2.35139">
        <ele>36.9</ele>
        <time>2023-03-25T14:51:13Z</time>
      </trkpt>
      <trkpt lat="49.88639" lon="2.3514">
        <ele>36.9</ele>
        <time>2023-03-25T14:51:14Z</time>
      </trkpt>
      <trkpt lat="49.8864" lon="2.35142">
        <ele>37</ele>
        <time>2023-03-25T14:51:15Z</time>
      </trkpt>
      <trkpt lat="49.8864" lon="2.35143">
        <ele>37</ele>
        <time>2023-03-25T14:51:16Z</time>
      </trkpt>
      <trkpt lat="49.88641" lon="2.35144">
        <ele>37.1</ele>
        <time>2023-03-25T14:51:17Z</time>
      </trkpt>
      <trkpt lat="49.88642" lon="2.35145">
        <ele>37.1</ele>
        <time>2023-03-25T14:51:19Z</time>
      </trkpt>
      <trkpt lat="49.88642" lon="2.35147">
        <ele>37.2</ele>
        <time>2023-03-25T14:51:20Z</time>
      </trkpt>
      <trkpt lat="49.88643" lon="2.35148">
        <ele>37.2</ele>
        <time>2023-03-25T14:51:21Z</time>
      </trkpt>
      <trkpt lat="49.88644" lon="2.35149">
        <ele>37.3</ele>
        <time>2023-03-25T14:51:22Z</time>
      </trkpt>
      <trkpt lat="49.88645" lon="2.35151">
        <ele>37.4</ele>
        <time>2023-03-25T14:51:23Z</time>
      </trkpt>
      <trkpt lat="49.88645" lon="2.35152">
        <ele>37.4</ele>
        <time>2023-03-25T14:51:24Z</time>
      </trkpt>
      <trkpt lat="49.88646" lon="2.35153">
        <ele>37.5</ele>
        <time>2023-03-25T14:51:25Z</time>
      </trkpt>
      <trkpt lat="49.88646" lon="2.35154">
        <ele>37.5</ele>
        <time>2023-03-25T14:51:27Z</time>
      </trkpt>
      <trkpt lat="49.88647" lon="2.35156">
        <ele>37.6</ele>
        <time>2023-03-25T14:51:28Z</time>
      </trkpt>
      <trkpt lat="49.88648" lon="2.35157">
        <ele>37.6</ele>
        <time>2023-03-25T14:51:29Z</time>
      </trkpt>
      <trkpt lat="49.88649" lon="2.35158">
        <ele>37.7</ele>
        <time>2023-03-25T14:51:30Z</time>
      </trkpt>
      <trkpt lat="49.88649" lon="2.35159">
        <ele>37.7</ele>
        <time>2023-03-25T14:51:31Z</time>
      </trkpt>
      <trkpt lat="49.8865" lon="2.3516">
        <ele>37.8</ele>
        <time>2023-03-25T14:51:32Z</time>
      </trkpt>
      <trkpt lat="49.88651" lon="2.35162">
        <ele>37.9</ele>
        <time>2023-03-25T14:51:34Z</time>
      </trkpt>
      <trkpt lat="49.88652" lon="2.35163">
        <ele>37.9</ele>
        <time>2023-03-25T14:51:35Z</time>
      </trkpt>
      <trkpt lat="49.88653" lon="2.35164">
        <ele>38</ele>
        <time>2023-03-25T14:51:36Z</time>
      </trkpt>
      <trkpt lat="49.88654" lon="2.35166">
        <ele>38.1</ele>
        <time>2023-03-25T14:51:37Z</time>
      </trkpt>
      <trkpt lat="49.88654" lon="2.35167">
        <ele>38.1</ele>
        <time>2023-03-25T14:51:38Z</time>
      </trkpt>
      <trkpt lat="49.88655" lon="2.35168">
        <ele>38.2</ele>
        <time>2023-03-25T14:51:39Z</time>
      </trkpt>
      <trkpt lat="49.88656" lon="2.35169">
        <ele>38.2</ele>
        <time>2023-03-25T14:51:40Z</time>
      </trkpt>
      <trkpt lat="49.88656" lon="2.35171">
        <ele>38.3</ele>
        <time>2023-03-25T14:51:42Z</time>
      </trkpt>
      <trkpt lat="49.88657" lon="2.35172">
        <ele>38.4</ele>
        <time>2023-03-25T14:51:43Z</time>
      </trkpt>
      <trkpt lat="49.88658" lon="2.35174">
        <ele>38.4</ele>
        <time>2023-03-25T14:51:44Z</time>
      </trkpt>
      <trkpt lat="49.88658" lon="2.35175">
        <ele>38.5</ele>
        <time>2023-03-25T14:51:45Z</time>
      </trkpt>
      <trkpt lat="49.88659" lon="2.35176">
        <ele>38.5</ele>
        <time>2023-03-25T14:51:46Z</time>
      </trkpt>
      <trkpt lat="49.8866" lon="2.35177">
        <ele>38.6</ele>
        <time>2023-03-25T14:51:47Z</time>
      </trkpt>
      <trkpt lat="49.8866" lon="2.35178">
        <ele>38.7</ele>
        <time>2023-03-25T14:51:48Z</time>
      </trkpt>
      <trkpt lat="49.8866" lon="2.3518">
        <ele>38.7</ele>
        <time>2023-03-25T14:51:50Z</time>
      </trkpt>
      <trkpt lat="49.8866" lon="2.35181">
        <ele>38.8</ele>
        <time>2023-03-25T14:51:51Z</time>
      </trkpt>
      <trkpt lat="49.88661" lon="2.35182">
        <ele>38.8</ele>
        <time>2023-03-25T14:51:52Z</time>
      </trkpt>
      <trkpt lat="49.88661" lon="2.35184">
        <ele>38.9</ele>
        <time>2023-03-25T14:51:54Z</time>
      </trkpt>
      <trkpt lat="49.88661" lon="2.35185">
        <ele>38.9</ele>
        <time>2023-03-25T14:51:55Z</time>
      </trkpt>
      <trkpt lat="49.88662" lon="2.35187">
        <ele>39</ele>
        <time>2023-03-25T14:51:56Z</time>
      </trkpt>
      <trkpt lat="49.88662" lon="2.35188">
        <ele>39</ele>
        <time>2023-03-25T14:51:57Z</time>
      </trkpt>
      <trkpt lat="49.88663" lon="2.35189">
        <ele>39.1</ele>
        <time>2023-03-25T14:51:58Z</time>
      </trkpt>
      <trkpt lat="49.88663" lon="2.35189">
        <ele>39.1</ele>
        <time>2023-03-25T14:51:59Z</time>
      </trkpt>
      <trkpt lat="49.88664" lon="2.3519">
        <ele>39.2</ele>
        <time>2023-03-25T14:52:00Z</time>
      </trkpt>
      <trkpt lat="49.88665" lon="2.35191">
        <ele>39.2</ele>
        <time>2023-03-25T14:52:02Z</time>
      </trkpt>
      <trkpt lat="49.88666" lon="2.35193">
        <ele>39.3</ele>
        <time>2023-03-25T14:52:03Z</time>
      </trkpt>
      <trkpt lat="49.88667" lon="2.35194">
        <ele>39.4</ele>
        <time>2023-03-25T14:52:04Z</time>
      </trkpt>
      <trkpt lat="49.88667" lon="2.35194">
        <ele>39.4</ele>
        <time>2023-03-25T14:52:05Z</time>
      </trkpt>
      <trkpt lat="49.88669" lon="2.35195">
        <ele>39.5</ele>
        <time>2023-03-25T14:52:06Z</time>
      </trkpt>
      <trkpt lat="49.88669" lon="2.35196">
        <ele>39.6</ele>
        <time>2023-03-25T14:52:07Z</time>
      </trkpt>
      <trkpt lat="49.8867" lon="2.35196">
        <ele>39.6</ele>
        <time>2023-03-25T14:52:09Z</time>
      </trkpt>
      <trkpt lat="49.88671" lon="2.35197">
        <ele>39.6</ele>
        <time>2023-03-25T14:52:10Z</time>
      </trkpt>
      <trkpt lat="49.88671" lon="2.35197">
        <ele>39.7</ele>
        <time>2023-03-25T14:52:11Z</time>
      </trkpt>
      <trkpt lat="49.88672" lon="2.35198">
        <ele>39.8</ele>
        <time>2023-03-25T14:52:12Z</time>
      </trkpt>
      <trkpt lat="49.88673" lon="2.35198">
        <ele>39.8</ele>
        <time>2023-03-25T14:52:13Z</time>
      </trkpt>
      <trkpt lat="49.88674" lon="2.35199">
        <ele>39.9</ele>
        <time>2023-03-25T14:52:15Z</time>
      </trkpt>
      <trkpt lat="49.88675" lon="2.35199">
        <ele>39.9</ele>
        <time>2023-03-25T14:52:16Z</time>
      </trkpt>
      <trkpt lat="49.88676" lon="2.35198">
        <ele>40</ele>
        <time>2023-03-25T14:52:17Z</time>
      </trkpt>
      <trkpt lat="49.88677" lon="2.35198">
        <ele>40</ele>
        <time>2023-03-25T14:52:18Z</time>
      </trkpt>
      <trkpt lat="49.88678" lon="2.35198">
        <ele>40.1</ele>
        <time>2023-03-25T14:52:19Z</time>
      </trkpt>
      <trkpt lat="49.88679" lon="2.35197">
        <ele>40.2</ele>
        <time>2023-03-25T14:52:20Z</time>
      </trkpt>
      <trkpt lat="49.88681" lon="2.35197">
        <ele>40.2</ele>
        <time>2023-03-25T14:52:21Z</time>
      </trkpt>
      <trkpt lat="49.88682" lon="2.35197">
        <ele>40.2</ele>
        <time>2023-03-25T14:52:22Z</time>
      </trkpt>
      <trkpt lat="49.88683" lon="2.35196">
        <ele>40.3</ele>
        <time>2023-03-25T14:52:24Z</time>
      </trkpt>
      <trkpt lat="49.88684" lon="2.35196">
        <ele>40.3</ele>
        <time>2023-03-25T14:52:25Z</time>
      </trkpt>
      <trkpt lat="49.88685" lon="2.35195">
        <ele>40.4</ele>
        <time>2023-03-25T14:52:26Z</time>
      </trkpt>
      <trkpt lat="49.88686" lon="2.35194">
        <ele>40.4</ele>
        <time>2023-03-25T14:52:27Z</time>
      </trkpt>
      <trkpt lat="49.88686" lon="2.35193">
        <ele>40.4</ele>
        <time>2023-03-25T14:52:28Z</time>
      </trkpt>
      <trkpt lat="49.88687" lon="2.35192">
        <ele>40.5</ele>
        <time>2023-03-25T14:52:29Z</time>
      </trkpt>
      <trkpt lat="49.88688" lon="2.35191">
        <ele>40.5</ele>
        <time>2023-03-25T14:52:30Z</time>
      </trkpt>
      <trkpt lat="49.88688" lon="2.3519">
        <ele>40.5</ele>
        <time>2023-03-25T14:52:32Z</time>
      </trkpt>
      <trkpt lat="49.88689" lon="2.35189">
        <ele>40.6</ele>
        <time>2023-03-25T14:52:33Z</time>
      </trkpt>
      <trkpt lat="49.8869" lon="2.35188">
        <ele>40.6</ele>
        <time>2023-03-25T14:52:34Z</time>
      </trkpt>
      <trkpt lat="49.8869" lon="2.35186">
        <ele>40.7</ele>
        <time>2023-03-25T14:52:35Z</time>
      </trkpt>
      <trkpt lat="49.88691" lon="2.35185">
        <ele>40.7</ele>
        <time>2023-03-25T14:52:36Z</time>
      </trkpt>
      <trkpt lat="49.88692" lon="2.35184">
        <ele>40.7</ele>
        <time>2023-03-25T14:52:37Z</time>
      </trkpt>
      <trkpt lat="49.88693" lon="2.35183">
        <ele>40.8</ele>
        <time>2023-03-25T14:52:38Z</time>
      </trkpt>
      <trkpt lat="49.88694" lon="2.35182">
        <ele>40.8</ele>
        <time>2023-03-25T14:52:40Z</time>
      </trkpt>
      <trkpt lat="49.88695" lon="2.35181">
        <ele>40.8</ele>
        <time>2023-03-25T14:52:41Z</time>
      </trkpt>
      <trkpt lat="49.88695" lon="2.3518">
        <ele>40.9</ele>
        <time>2023-03-25T14:52:42Z</time>
      </trkpt>
      <trkpt lat="49.88696" lon="2.35179">
        <ele>40.9</ele>
        <time>2023-03-25T14:52:43Z</time>
      </trkpt>
      <trkpt lat="49.88697" lon="2.35178">
        <ele>40.9</ele>
        <time>2023-03-25T14:52:44Z</time>
      </trkpt>
      <trkpt lat="49.88698" lon="2.35178">
        <ele>40.9</ele>
        <time>2023-03-25T14:52:45Z</time>
      </trkpt>
      <trkpt lat="49.88699" lon="2.35177">
        <ele>41</ele>
        <time>2023-03-25T14:52:47Z</time>
      </trkpt>
      <trkpt lat="49.887" lon="2.35176">
        <ele>41</ele>
        <time>2023-03-25T14:52:48Z</time>
      </trkpt>
      <trkpt lat="49.88701" lon="2.35175">
        <ele>41</ele>
        <time>2023-03-25T14:52:49Z</time>
      </trkpt>
      <trkpt lat="49.88701" lon="2.35173">
        <ele>41.1</ele>
        <time>2023-03-25T14:52:50Z</time>
      </trkpt>
      <trkpt lat="49.88703" lon="2.35173">
        <ele>41.1</ele>
        <time>2023-03-25T14:52:51Z</time>
      </trkpt>
      <trkpt lat="49.88704" lon="2.35172">
        <ele>41.1</ele>
        <time>2023-03-25T14:52:53Z</time>
      </trkpt>
      <trkpt lat="49.88705" lon="2.35171">
        <ele>41.2</ele>
        <time>2023-03-25T14:52:54Z</time>
      </trkpt>
      <trkpt lat="49.88707" lon="2.3517">
        <ele>41.2</ele>
        <time>2023-03-25T14:52:55Z</time>
      </trkpt>
      <trkpt lat="49.88708" lon="2.3517">
        <ele>41.2</ele>
        <time>2023-03-25T14:52:57Z</time>
      </trkpt>
      <trkpt lat="49.88709" lon="2.35169">
        <ele>41.3</ele>
        <time>2023-03-25T14:52:58Z</time>
      </trkpt>
      <trkpt lat="49.8871" lon="2.35169">
        <ele>41.3</ele>
        <time>2023-03-25T14:52:59Z</time>
      </trkpt>
      <trkpt lat="49.88711" lon="2.35168">
        <ele>41.3</ele>
        <time>2023-03-25T14:53:00Z</time>
      </trkpt>
      <trkpt lat="49.88712" lon="2.35167">
        <ele>41.3</ele>
        <time>2023-03-25T14:53:01Z</time>
      </trkpt>
      <trkpt lat="49.88714" lon="2.35165">
        <ele>41.3</ele>
        <time>2023-03-25T14:53:02Z</time>
      </trkpt>
      <trkpt lat="49.88715" lon="2.35164">
        <ele>41.4</ele>
        <time>2023-03-25T14:53:04Z</time>
      </trkpt>
      <trkpt lat="49.88716" lon="2.35163">
        <ele>41.4</ele>
        <time>2023-03-25T14:53:05Z</time>
      </trkpt>
      <trkpt lat="49.88717" lon="2.35162">
        <ele>41.4</ele>
        <time>2023-03-25T14:53:06Z</time>
      </trkpt>
      <trkpt lat="49.88717" lon="2.35161">
        <ele>41.4</ele>
        <time>2023-03-25T14:53:07Z</time>
      </trkpt>
      <trkpt lat="49.88718" lon="2.3516">
        <ele>41.4</ele>
        <time>2023-03-25T14:53:08Z</time>
      </trkpt>
      <trkpt lat="49.88719" lon="2.35159">
        <ele>41.4</ele>
        <time>2023-03-25T14:53:09Z</time>
      </trkpt>
      <trkpt lat="49.8872" lon="2.35159">
        <ele>41.4</ele>
        <time>2023-03-25T14:53:10Z</time>
      </trkpt>
      <trkpt lat="49.88721" lon="2.35158">
        <ele>41.4</ele>
        <time>2023-03-25T14:53:12Z</time>
      </trkpt>
      <trkpt lat="49.88722" lon="2.35157">
        <ele>41.5</ele>
        <time>2023-03-25T14:53:13Z</time>
      </trkpt>
      <trkpt lat="49.88723" lon="2.35156">
        <ele>41.5</ele>
        <time>2023-03-25T14:53:14Z</time>
      </trkpt>
      <trkpt lat="49.88723" lon="2.35155">
        <ele>41.5</ele>
        <time>2023-03-25T14:53:15Z</time>
      </trkpt>
      <trkpt lat="49.88724" lon="2.35154">
        <ele>41.5</ele>
        <time>2023-03-25T14:53:16Z</time>
      </trkpt>
      <trkpt lat="49.88724" lon="2.35153">
        <ele>41.5</ele>
        <time>2023-03-25T14:53:17Z</time>
      </trkpt>
      <trkpt lat="49.88725" lon="2.35152">
        <ele>41.5</ele>
        <time>2023-03-25T14:53:18Z</time>
      </trkpt>
      <trkpt lat="49.88726" lon="2.35152">
        <ele>41.5</ele>
        <time>2023-03-25T14:53:20Z</time>
      </trkpt>
      <trkpt lat="49.88727" lon="2.35151">
        <ele>41.5</ele>
        <time>2023-03-25T14:53:21Z</time>
      </trkpt>
      <trkpt lat="49.88729" lon="2.35151">
        <ele>41.5</ele>
        <time>2023-03-25T14:53:22Z</time>
      </trkpt>
      <trkpt lat="49.8873" lon="2.3515">
        <ele>41.5</ele>
        <time>2023-03-25T14:53:23Z</time>
      </trkpt>
      <trkpt lat="49.88731" lon="2.35149">
        <ele>41.5</ele>
        <time>2023-03-25T14:53:24Z</time>
      </trkpt>
      <trkpt lat="49.88732" lon="2.35148">
        <ele>41.6</ele>
        <time>2023-03-25T14:53:26Z</time>
      </trkpt>
      <trkpt lat="49.88733" lon="2.35147">
        <ele>41.6</ele>
        <time>2023-03-25T14:53:27Z</time>
      </trkpt>
      <trkpt lat="49.88734" lon="2.35146">
        <ele>41.6</ele>
        <time>2023-03-25T14:53:28Z</time>
      </trkpt>
      <trkpt lat="49.88735" lon="2.35145">
        <ele>41.6</ele>
        <time>2023-03-25T14:53:29Z</time>
      </trkpt>
      <trkpt lat="49.88735" lon="2.35145">
        <ele>41.6</ele>
        <time>2023-03-25T14:53:30Z</time>
      </trkpt>
      <trkpt lat="49.88736" lon="2.35144">
        <ele>41.6</ele>
        <time>2023-03-25T14:53:31Z</time>
      </trkpt>
      <trkpt lat="49.88737" lon="2.35143">
        <ele>41.6</ele>
        <time>2023-03-25T14:53:33Z</time>
      </trkpt>
      <trkpt lat="49.88738" lon="2.35142">
        <ele>41.6</ele>
        <time>2023-03-25T14:53:34Z</time>
      </trkpt>
      <trkpt lat="49.88739" lon="2.35141">
        <ele>41.6</ele>
        <time>2023-03-25T14:53:35Z</time>
      </trkpt>
      <trkpt lat="49.8874" lon="2.35141">
        <ele>41.6</ele>
        <time>2023-03-25T14:53:36Z</time>
      </trkpt>
      <trkpt lat="49.88741" lon="2.35141">
        <ele>41.6</ele>
        <time>2023-03-25T14:53:37Z</time>
      </trkpt>
      <trkpt lat="49.88742" lon="2.3514">
        <ele>41.6</ele>
        <time>2023-03-25T14:53:38Z</time>
      </trkpt>
      <trkpt lat="49.88744" lon="2.35139">
        <ele>41.6</ele>
        <time>2023-03-25T14:53:39Z</time>
      </trkpt>
      <trkpt lat="49.88745" lon="2.35138">
        <ele>41.6</ele>
        <time>2023-03-25T14:53:41Z</time>
      </trkpt>
      <trkpt lat="49.88745" lon="2.35138">
        <ele>41.6</ele>
        <time>2023-03-25T14:53:42Z</time>
      </trkpt>
      <trkpt lat="49.88747" lon="2.35137">
        <ele>41.6</ele>
        <time>2023-03-25T14:53:43Z</time>
      </trkpt>
      <trkpt lat="49.88748" lon="2.35137">
        <ele>41.6</ele>
        <time>2023-03-25T14:53:44Z</time>
      </trkpt>
      <trkpt lat="49.88749" lon="2.35136">
        <ele>41.6</ele>
        <time>2023-03-25T14:53:45Z</time>
      </trkpt>
      <trkpt lat="49.8875" lon="2.35136">
        <ele>41.6</ele>
        <time>2023-03-25T14:53:46Z</time>
      </trkpt>
      <trkpt lat="49.88751" lon="2.35135">
        <ele>41.6</ele>
        <time>2023-03-25T14:53:47Z</time>
      </trkpt>
      <trkpt lat="49.88752" lon="2.35135">
        <ele>41.6</ele>
        <time>2023-03-25T14:53:49Z</time>
      </trkpt>
      <trkpt lat="49.88753" lon="2.35134">
        <ele>41.6</ele>
        <time>2023-03-25T14:53:50Z</time>
      </trkpt>
      <trkpt lat="49.88754" lon="2.35133">
        <ele>41.6</ele>
        <time>2023-03-25T14:53:51Z</time>
      </trkpt>
      <trkpt lat="49.88755" lon="2.35132">
        <ele>41.6</ele>
        <time>2023-03-25T14:53:52Z</time>
      </trkpt>
      <trkpt lat="49.88756" lon="2.35132">
        <ele>41.6</ele>
        <time>2023-03-25T14:53:53Z</time>
      </trkpt>
      <trkpt lat="49.88757" lon="2.35131">
        <ele>41.6</ele>
        <time>2023-03-25T14:53:54Z</time>
      </trkpt>
      <trkpt lat="49.88758" lon="2.3513">
        <ele>41.6</ele>
        <time>2023-03-25T14:53:56Z</time>
      </trkpt>
      <trkpt lat="49.88759" lon="2.3513">
        <ele>41.6</ele>
        <time>2023-03-25T14:53:57Z</time>
      </trkpt>
      <trkpt lat="49.8876" lon="2.35129">
        <ele>41.6</ele>
        <time>2023-03-25T14:53:58Z</time>
      </trkpt>
      <trkpt lat="49.88761" lon="2.35129">
        <ele>41.6</ele>
        <time>2023-03-25T14:53:59Z</time>
      </trkpt>
      <trkpt lat="49.88762" lon="2.35128">
        <ele>41.6</ele>
        <time>2023-03-25T14:54:00Z</time>
      </trkpt>
      <trkpt lat="49.88763" lon="2.35127">
        <ele>41.6</ele>
        <time>2023-03-25T14:54:01Z</time>
      </trkpt>
      <trkpt lat="49.88764" lon="2.35126">
        <ele>41.6</ele>
        <time>2023-03-25T14:54:02Z</time>
      </trkpt>
      <trkpt lat="49.88766" lon="2.35124">
        <ele>41.6</ele>
        <time>2023-03-25T14:54:04Z</time>
      </trkpt>
      <trkpt lat="49.88767" lon="2.35124">
        <ele>41.6</ele>
        <time>2023-03-25T14:54:05Z</time>
      </trkpt>
      <trkpt lat="49.88767" lon="2.35123">
        <ele>41.6</ele>
        <time>2023-03-25T14:54:06Z</time>
      </trkpt>
      <trkpt lat="49.88768" lon="2.35122">
        <ele>41.6</ele>
        <time>2023-03-25T14:54:07Z</time>
      </trkpt>
      <trkpt lat="49.88769" lon="2.35122">
        <ele>41.6</ele>
        <time>2023-03-25T14:54:08Z</time>
      </trkpt>
      <trkpt lat="49.8877" lon="2.35121">
        <ele>41.6</ele>
        <time>2023-03-25T14:54:09Z</time>
      </trkpt>
      <trkpt lat="49.88772" lon="2.3512">
        <ele>41.6</ele>
        <time>2023-03-25T14:54:11Z</time>
      </trkpt>
      <trkpt lat="49.88773" lon="2.35119">
        <ele>41.6</ele>
        <time>2023-03-25T14:54:12Z</time>
      </trkpt>
      <trkpt lat="49.88774" lon="2.35119">
        <ele>41.6</ele>
        <time>2023-03-25T14:54:13Z</time>
      </trkpt>
      <trkpt lat="49.88775" lon="2.35118">
        <ele>41.5</ele>
        <time>2023-03-25T14:54:14Z</time>
      </trkpt>
      <trkpt lat="49.88776" lon="2.35118">
        <ele>41.5</ele>
        <time>2023-03-25T14:54:15Z</time>
      </trkpt>
      <trkpt lat="49.88778" lon="2.35119">
        <ele>41.5</ele>
        <time>2023-03-25T14:54:16Z</time>
      </trkpt>
      <trkpt lat="49.88779" lon="2.35119">
        <ele>41.5</ele>
        <time>2023-03-25T14:54:18Z</time>
      </trkpt>
      <trkpt lat="49.8878" lon="2.35119">
        <ele>41.6</ele>
        <time>2023-03-25T14:54:19Z</time>
      </trkpt>
      <trkpt lat="49.88782" lon="2.3512">
        <ele>41.7</ele>
        <time>2023-03-25T14:54:20Z</time>
      </trkpt>
      <trkpt lat="49.88783" lon="2.35121">
        <ele>41.7</ele>
        <time>2023-03-25T14:54:21Z</time>
      </trkpt>
      <trkpt lat="49.88784" lon="2.35121">
        <ele>41.7</ele>
        <time>2023-03-25T14:54:22Z</time>
      </trkpt>
      <trkpt lat="49.88785" lon="2.35123">
        <ele>41.7</ele>
        <time>2023-03-25T14:54:24Z</time>
      </trkpt>
      <trkpt lat="49.88786" lon="2.35124">
        <ele>41.8</ele>
        <time>2023-03-25T14:54:25Z</time>
      </trkpt>
      <trkpt lat="49.88787" lon="2.35125">
        <ele>41.8</ele>
        <time>2023-03-25T14:54:26Z</time>
      </trkpt>
      <trkpt lat="49.88788" lon="2.35126">
        <ele>41.8</ele>
        <time>2023-03-25T14:54:27Z</time>
      </trkpt>
      <trkpt lat="49.88788" lon="2.35127">
        <ele>41.8</ele>
        <time>2023-03-25T14:54:28Z</time>
      </trkpt>
      <trkpt lat="49.88788" lon="2.3513">
        <ele>41.9</ele>
        <time>2023-03-25T14:54:29Z</time>
      </trkpt>
      <trkpt lat="49.88789" lon="2.35132">
        <ele>41.9</ele>
        <time>2023-03-25T14:54:30Z</time>
      </trkpt>
      <trkpt lat="49.88789" lon="2.35133">
        <ele>41.9</ele>
        <time>2023-03-25T14:54:32Z</time>
      </trkpt>
      <trkpt lat="49.88789" lon="2.35135">
        <ele>41.9</ele>
        <time>2023-03-25T14:54:33Z</time>
      </trkpt>
      <trkpt lat="49.88789" lon="2.35137">
        <ele>41.9</ele>
        <time>2023-03-25T14:54:34Z</time>
      </trkpt>
      <trkpt lat="49.88789" lon="2.35138">
        <ele>41.9</ele>
        <time>2023-03-25T14:54:35Z</time>
      </trkpt>
      <trkpt lat="49.8879" lon="2.3514">
        <ele>42</ele>
        <time>2023-03-25T14:54:36Z</time>
      </trkpt>
      <trkpt lat="49.8879" lon="2.35142">
        <ele>42</ele>
        <time>2023-03-25T14:54:37Z</time>
      </trkpt>
      <trkpt lat="49.88791" lon="2.35144">
        <ele>42</ele>
        <time>2023-03-25T14:54:39Z</time>
      </trkpt>
      <trkpt lat="49.88791" lon="2.35146">
        <ele>42</ele>
        <time>2023-03-25T14:54:40Z</time>
      </trkpt>
      <trkpt lat="49.88792" lon="2.35149">
        <ele>42.1</ele>
        <time>2023-03-25T14:54:41Z</time>
      </trkpt>
      <trkpt lat="49.88793" lon="2.35151">
        <ele>42.1</ele>
        <time>2023-03-25T14:54:42Z</time>
      </trkpt>
      <trkpt lat="49.88793" lon="2.35152">
        <ele>42.1</ele>
        <time>2023-03-25T14:54:43Z</time>
      </trkpt>
      <trkpt lat="49.88794" lon="2.35154">
        <ele>42.1</ele>
        <time>2023-03-25T14:54:44Z</time>
      </trkpt>
      <trkpt lat="49.88795" lon="2.35156">
        <ele>42.1</ele>
        <time>2023-03-25T14:54:46Z</time>
      </trkpt>
      <trkpt lat="49.88795" lon="2.35158">
        <ele>42.2</ele>
        <time>2023-03-25T14:54:47Z</time>
      </trkpt>
      <trkpt lat="49.88796" lon="2.35161">
        <ele>42.2</ele>
        <time>2023-03-25T14:54:48Z</time>
      </trkpt>
      <trkpt lat="49.88796" lon="2.35164">
        <ele>42.2</ele>
        <time>2023-03-25T14:54:49Z</time>
      </trkpt>
      <trkpt lat="49.88796" lon="2.35165">
        <ele>42.2</ele>
        <time>2023-03-25T14:54:50Z</time>
      </trkpt>
      <trkpt lat="49.88796" lon="2.35167">
        <ele>42.2</ele>
        <time>2023-03-25T14:54:51Z</time>
      </trkpt>
      <trkpt lat="49.88797" lon="2.35168">
        <ele>42.2</ele>
        <time>2023-03-25T14:54:52Z</time>
      </trkpt>
      <trkpt lat="49.88798" lon="2.3517">
        <ele>42.3</ele>
        <time>2023-03-25T14:54:54Z</time>
      </trkpt>
      <trkpt lat="49.88798" lon="2.35172">
        <ele>42.3</ele>
        <time>2023-03-25T14:54:55Z</time>
      </trkpt>
      <trkpt lat="49.88799" lon="2.35174">
        <ele>42.3</ele>
        <time>2023-03-25T14:54:56Z</time>
      </trkpt>
      <trkpt lat="49.888" lon="2.35176">
        <ele>42.3</ele>
        <time>2023-03-25T14:54:57Z</time>
      </trkpt>
      <trkpt lat="49.88801" lon="2.35177">
        <ele>42.3</ele>
        <time>2023-03-25T14:54:58Z</time>
      </trkpt>
      <trkpt lat="49.88801" lon="2.35179">
        <ele>42.3</ele>
        <time>2023-03-25T14:54:59Z</time>
      </trkpt>
      <trkpt lat="49.88803" lon="2.35181">
        <ele>42.3</ele>
        <time>2023-03-25T14:55:00Z</time>
      </trkpt>
      <trkpt lat="49.88803" lon="2.35182">
        <ele>42.3</ele>
        <time>2023-03-25T14:55:02Z</time>
      </trkpt>
      <trkpt lat="49.88804" lon="2.35183">
        <ele>42.4</ele>
        <time>2023-03-25T14:55:03Z</time>
      </trkpt>
      <trkpt lat="49.88805" lon="2.35184">
        <ele>42.4</ele>
        <time>2023-03-25T14:55:04Z</time>
      </trkpt>
      <trkpt lat="49.88806" lon="2.35185">
        <ele>42.4</ele>
        <time>2023-03-25T14:55:05Z</time>
      </trkpt>
      <trkpt lat="49.88807" lon="2.35186">
        <ele>42.4</ele>
        <time>2023-03-25T14:55:07Z</time>
      </trkpt>
      <trkpt lat="49.88808" lon="2.35188">
        <ele>42.4</ele>
        <time>2023-03-25T14:55:08Z</time>
      </trkpt>
      <trkpt lat="49.88808" lon="2.3519">
        <ele>42.4</ele>
        <time>2023-03-25T14:55:09Z</time>
      </trkpt>
      <trkpt lat="49.88809" lon="2.35191">
        <ele>42.4</ele>
        <time>2023-03-25T14:55:10Z</time>
      </trkpt>
      <trkpt lat="49.8881" lon="2.35192">
        <ele>42.4</ele>
        <time>2023-03-25T14:55:11Z</time>
      </trkpt>
      <trkpt lat="49.8881" lon="2.35194">
        <ele>42.4</ele>
        <time>2023-03-25T14:55:12Z</time>
      </trkpt>
      <trkpt lat="49.88811" lon="2.35195">
        <ele>42.5</ele>
        <time>2023-03-25T14:55:13Z</time>
      </trkpt>
      <trkpt lat="49.88812" lon="2.35197">
        <ele>42.5</ele>
        <time>2023-03-25T14:55:15Z</time>
      </trkpt>
      <trkpt lat="49.88812" lon="2.35198">
        <ele>42.5</ele>
        <time>2023-03-25T14:55:16Z</time>
      </trkpt>
      <trkpt lat="49.88813" lon="2.352">
        <ele>42.5</ele>
        <time>2023-03-25T14:55:17Z</time>
      </trkpt>
      <trkpt lat="49.88813" lon="2.35201">
        <ele>42.5</ele>
        <time>2023-03-25T14:55:18Z</time>
      </trkpt>
      <trkpt lat="49.88814" lon="2.35202">
        <ele>42.5</ele>
        <time>2023-03-25T14:55:19Z</time>
      </trkpt>
      <trkpt lat="49.88815" lon="2.35204">
        <ele>42.5</ele>
        <time>2023-03-25T14:55:20Z</time>
      </trkpt>
      <trkpt lat="49.88816" lon="2.35205">
        <ele>42.5</ele>
        <time>2023-03-25T14:55:22Z</time>
      </trkpt>
      <trkpt lat="49.88816" lon="2.35206">
        <ele>42.6</ele>
        <time>2023-03-25T14:55:23Z</time>
      </trkpt>
      <trkpt lat="49.88817" lon="2.35207">
        <ele>42.6</ele>
        <time>2023-03-25T14:55:24Z</time>
      </trkpt>
      <trkpt lat="49.88818" lon="2.35209">
        <ele>42.6</ele>
        <time>2023-03-25T14:55:26Z</time>
      </trkpt>
      <trkpt lat="49.88818" lon="2.3521">
        <ele>42.6</ele>
        <time>2023-03-25T14:55:27Z</time>
      </trkpt>
      <trkpt lat="49.88819" lon="2.35211">
        <ele>42.6</ele>
        <time>2023-03-25T14:55:28Z</time>
      </trkpt>
      <trkpt lat="49.88819" lon="2.35212">
        <ele>42.6</ele>
        <time>2023-03-25T14:55:29Z</time>
      </trkpt>
      <trkpt lat="49.88819" lon="2.35213">
        <ele>42.6</ele>
        <time>2023-03-25T14:55:30Z</time>
      </trkpt>
      <trkpt lat="49.8882" lon="2.35214">
        <ele>42.6</ele>
        <time>2023-03-25T14:55:31Z</time>
      </trkpt>
      <trkpt lat="49.88821" lon="2.35215">
        <ele>42.6</ele>
        <time>2023-03-25T14:55:32Z</time>
      </trkpt>
      <trkpt lat="49.88821" lon="2.35216">
        <ele>42.6</ele>
        <time>2023-03-25T14:55:34Z</time>
      </trkpt>
      <trkpt lat="49.88822" lon="2.35218">
        <ele>42.7</ele>
        <time>2023-03-25T14:55:35Z</time>
      </trkpt>
      <trkpt lat="49.88822" lon="2.35219">
        <ele>42.7</ele>
        <time>2023-03-25T14:55:36Z</time>
      </trkpt>
      <trkpt lat="49.88823" lon="2.35221">
        <ele>42.7</ele>
        <time>2023-03-25T14:55:37Z</time>
      </trkpt>
      <trkpt lat="49.88823" lon="2.35222">
        <ele>42.7</ele>
        <time>2023-03-25T14:55:38Z</time>
      </trkpt>
      <trkpt lat="49.88823" lon="2.35224">
        <ele>42.7</ele>
        <time>2023-03-25T14:55:40Z</time>
      </trkpt>
      <trkpt lat="49.88823" lon="2.35226">
        <ele>42.7</ele>
        <time>2023-03-25T14:55:41Z</time>
      </trkpt>
      <trkpt lat="49.88823" lon="2.35227">
        <ele>42.7</ele>
        <time>2023-03-25T14:55:42Z</time>
      </trkpt>
      <trkpt lat="49.88824" lon="2.35228">
        <ele>42.7</ele>
        <time>2023-03-25T14:55:43Z</time>
      </trkpt>
      <trkpt lat="49.88824" lon="2.35229">
        <ele>42.7</ele>
        <time>2023-03-25T14:55:44Z</time>
      </trkpt>
      <trkpt lat="49.88824" lon="2.3523">
        <ele>42.7</ele>
        <time>2023-03-25T14:55:45Z</time>
      </trkpt>
      <trkpt lat="49.88825" lon="2.35231">
        <ele>42.7</ele>
        <time>2023-03-25T14:55:46Z</time>
      </trkpt>
      <trkpt lat="49.88825" lon="2.35233">
        <ele>42.7</ele>
        <time>2023-03-25T14:55:48Z</time>
      </trkpt>
      <trkpt lat="49.88824" lon="2.35233">
        <ele>42.8</ele>
        <time>2023-03-25T14:55:49Z</time>
      </trkpt>
      <trkpt lat="49.88824" lon="2.35233">
        <ele>42.8</ele>
        <time>2023-03-25T14:55:50Z</time>
      </trkpt>
      <trkpt lat="49.88824" lon="2.35233">
        <ele>42.8</ele>
        <time>2023-03-25T14:55:52Z</time>
      </trkpt>
      <trkpt lat="49.88824" lon="2.35233">
        <ele>42.8</ele>
        <time>2023-03-25T14:55:53Z</time>
      </trkpt>
      <trkpt lat="49.88824" lon="2.35233">
        <ele>42.8</ele>
        <time>2023-03-25T14:55:55Z</time>
      </trkpt>
      <trkpt lat="49.88824" lon="2.35233">
        <ele>42.8</ele>
        <time>2023-03-25T14:55:56Z</time>
      </trkpt>
      <trkpt lat="49.88824" lon="2.35233">
        <ele>42.8</ele>
        <time>2023-03-25T14:55:57Z</time>
      </trkpt>
      <trkpt lat="49.88824" lon="2.35233">
        <ele>42.8</ele>
        <time>2023-03-25T14:55:59Z</time>
      </trkpt>
      <trkpt lat="49.88824" lon="2.35234">
        <ele>42.8</ele>
        <time>2023-03-25T14:56:00Z</time>
      </trkpt>
      <trkpt lat="49.88824" lon="2.35234">
        <ele>42.8</ele>
        <time>2023-03-25T14:56:01Z</time>
      </trkpt>
      <trkpt lat="49.88823" lon="2.35234">
        <ele>42.8</ele>
        <time>2023-03-25T14:56:03Z</time>
      </trkpt>
      <trkpt lat="49.88823" lon="2.35234">
        <ele>42.8</ele>
        <time>2023-03-25T14:56:04Z</time>
      </trkpt>
      <trkpt lat="49.88823" lon="2.35234">
        <ele>42.8</ele>
        <time>2023-03-25T14:56:05Z</time>
      </trkpt>
      <trkpt lat="49.88823" lon="2.35233">
        <ele>42.8</ele>
        <time>2023-03-25T14:56:07Z</time>
      </trkpt>
      <trkpt lat="49.88823" lon="2.35232">
        <ele>42.8</ele>
        <time>2023-03-25T14:56:08Z</time>
      </trkpt>
      <trkpt lat="49.88823" lon="2.35232">
        <ele>42.8</ele>
        <time>2023-03-25T14:56:09Z</time>
      </trkpt>
      <trkpt lat="49.88822" lon="2.35232">
        <ele>42.8</ele>
        <time>2023-03-25T14:56:10Z</time>
      </trkpt>
      <trkpt lat="49.88822" lon="2.35232">
        <ele>42.8</ele>
        <time>2023-03-25T14:56:11Z</time>
      </trkpt>
      <trkpt lat="49.88822" lon="2.35232">
        <ele>42.8</ele>
        <time>2023-03-25T14:56:12Z</time>
      </trkpt>
      <trkpt lat="49.88822" lon="2.35233">
        <ele>42.8</ele>
        <time>2023-03-25T14:56:14Z</time>
      </trkpt>
      <trkpt lat="49.88822" lon="2.35233">
        <ele>42.8</ele>
        <time>2023-03-25T14:56:15Z</time>
      </trkpt>
      <trkpt lat="49.88822" lon="2.35233">
        <ele>42.8</ele>
        <time>2023-03-25T14:56:17Z</time>
      </trkpt>
      <trkpt lat="49.88822" lon="2.35233">
        <ele>42.8</ele>
        <time>2023-03-25T14:56:18Z</time>
      </trkpt>
      <trkpt lat="49.88822" lon="2.35232">
        <ele>42.8</ele>
        <time>2023-03-25T14:56:20Z</time>
      </trkpt>
      <trkpt lat="49.88822" lon="2.35232">
        <ele>42.8</ele>
        <time>2023-03-25T14:56:21Z</time>
      </trkpt>
      <trkpt lat="49.88823" lon="2.35233">
        <ele>42.8</ele>
        <time>2023-03-25T14:56:22Z</time>
      </trkpt>
      <trkpt lat="49.88824" lon="2.35233">
        <ele>42.8</ele>
        <time>2023-03-25T14:56:23Z</time>
      </trkpt>
      <trkpt lat="49.88824" lon="2.35234">
        <ele>42.8</ele>
        <time>2023-03-25T14:56:24Z</time>
      </trkpt>
      <trkpt lat="49.88825" lon="2.35235">
        <ele>42.8</ele>
        <time>2023-03-25T14:56:25Z</time>
      </trkpt>
      <trkpt lat="49.88826" lon="2.35236">
        <ele>42.8</ele>
        <time>2023-03-25T14:56:26Z</time>
      </trkpt>
      <trkpt lat="49.88827" lon="2.35236">
        <ele>42.8</ele>
        <time>2023-03-25T14:56:27Z</time>
      </trkpt>
      <trkpt lat="49.88827" lon="2.35237">
        <ele>42.8</ele>
        <time>2023-03-25T14:56:29Z</time>
      </trkpt>
      <trkpt lat="49.88828" lon="2.35238">
        <ele>42.8</ele>
        <time>2023-03-25T14:56:30Z</time>
      </trkpt>
      <trkpt lat="49.88828" lon="2.35238">
        <ele>42.8</ele>
        <time>2023-03-25T14:56:31Z</time>
      </trkpt>
      <trkpt lat="49.88829" lon="2.35239">
        <ele>42.8</ele>
        <time>2023-03-25T14:56:32Z</time>
      </trkpt>
      <trkpt lat="49.88829" lon="2.35239">
        <ele>42.8</ele>
        <time>2023-03-25T14:56:33Z</time>
      </trkpt>
      <trkpt lat="49.88829" lon="2.3524">
        <ele>42.8</ele>
        <time>2023-03-25T14:56:34Z</time>
      </trkpt>
      <trkpt lat="49.88829" lon="2.35241">
        <ele>42.9</ele>
        <time>2023-03-25T14:56:36Z</time>
      </trkpt>
      <trkpt lat="49.8883" lon="2.35242">
        <ele>42.9</ele>
        <time>2023-03-25T14:56:37Z</time>
      </trkpt>
      <trkpt lat="49.8883" lon="2.35243">
        <ele>42.9</ele>
        <time>2023-03-25T14:56:38Z</time>
      </trkpt>
      <trkpt lat="49.88829" lon="2.35245">
        <ele>42.9</ele>
        <time>2023-03-25T14:56:40Z</time>
      </trkpt>
      <trkpt lat="49.88829" lon="2.35246">
        <ele>42.9</ele>
        <time>2023-03-25T14:56:41Z</time>
      </trkpt>
      <trkpt lat="49.88829" lon="2.35245">
        <ele>42.9</ele>
        <time>2023-03-25T14:56:43Z</time>
      </trkpt>
      <trkpt lat="49.88829" lon="2.35245">
        <ele>42.9</ele>
        <time>2023-03-25T14:56:44Z</time>
      </trkpt>
      <trkpt lat="49.88829" lon="2.35245">
        <ele>42.9</ele>
        <time>2023-03-25T14:56:45Z</time>
      </trkpt>
      <trkpt lat="49.88829" lon="2.35244">
        <ele>42.9</ele>
        <time>2023-03-25T14:56:47Z</time>
      </trkpt>
      <trkpt lat="49.88829" lon="2.35244">
        <ele>42.9</ele>
        <time>2023-03-25T14:56:48Z</time>
      </trkpt>
      <trkpt lat="49.88829" lon="2.35244">
        <ele>42.9</ele>
        <time>2023-03-25T14:56:49Z</time>
      </trkpt>
      <trkpt lat="49.88829" lon="2.35243">
        <ele>42.9</ele>
        <time>2023-03-25T14:56:51Z</time>
      </trkpt>
      <trkpt lat="49.88829" lon="2.35243">
        <ele>42.9</ele>
        <time>2023-03-25T14:56:52Z</time>
      </trkpt>
      <trkpt lat="49.88829" lon="2.35243">
        <ele>42.9</ele>
        <time>2023-03-25T14:56:53Z</time>
      </trkpt>
      <trkpt lat="49.88829" lon="2.35243">
        <ele>42.9</ele>
        <time>2023-03-25T14:56:55Z</time>
      </trkpt>
      <trkpt lat="49.88829" lon="2.35243">
        <ele>42.9</ele>
        <time>2023-03-25T14:56:56Z</time>
      </trkpt>
      <trkpt lat="49.88829" lon="2.35242">
        <ele>42.9</ele>
        <time>2023-03-25T14:56:57Z</time>
      </trkpt>
      <trkpt lat="49.88829" lon="2.35242">
        <ele>42.9</ele>
        <time>2023-03-25T14:56:58Z</time>
      </trkpt>
      <trkpt lat="49.88829" lon="2.35242">
        <ele>42.9</ele>
        <time>2023-03-25T14:56:59Z</time>
      </trkpt>
      <trkpt lat="49.88829" lon="2.35241">
        <ele>42.9</ele>
        <time>2023-03-25T14:57:00Z</time>
      </trkpt>
      <trkpt lat="49.88829" lon="2.35241">
        <ele>42.9</ele>
        <time>2023-03-25T14:57:01Z</time>
      </trkpt>
      <trkpt lat="49.88829" lon="2.35241">
        <ele>42.9</ele>
        <time>2023-03-25T14:57:02Z</time>
      </trkpt>
      <trkpt lat="49.88829" lon="2.35241">
        <ele>42.9</ele>
        <time>2023-03-25T14:57:03Z</time>
      </trkpt>
      <trkpt lat="49.88829" lon="2.35241">
        <ele>42.9</ele>
        <time>2023-03-25T14:57:04Z</time>
      </trkpt>
      <trkpt lat="49.88829" lon="2.35241">
        <ele>42.9</ele>
        <time>2023-03-25T14:57:05Z</time>
      </trkpt>
      <trkpt lat="49.88829" lon="2.35241">
        <ele>42.9</ele>
        <time>2023-03-25T14:57:06Z</time>
      </trkpt>
      <trkpt lat="49.88829" lon="2.35241">
        <ele>42.9</ele>
        <time>2023-03-25T14:57:07Z</time>
      </trkpt>
      <trkpt lat="49.88829" lon="2.35241">
        <ele>42.9</ele>
        <time>2023-03-25T14:57:08Z</time>
      </trkpt>
      <trkpt lat="49.88829" lon="2.35241">
        <ele>42.9</ele>
        <time>2023-03-25T14:57:09Z</time>
      </trkpt>
      <trkpt lat="49.88829" lon="2.35241">
        <ele>42.9</ele>
        <time>2023-03-25T14:57:10Z</time>
      </trkpt>
      <trkpt lat="49.88829" lon="2.35241">
        <ele>42.9</ele>
        <time>2023-03-25T14:57:11Z</time>
      </trkpt>
      <trkpt lat="49.88829" lon="2.35241">
        <ele>42.9</ele>
        <time>2023-03-25T14:57:12Z</time>
      </trkpt>
      <trkpt lat="49.88829" lon="2.35241">
        <ele>42.9</ele>
        <time>2023-03-25T14:57:13Z</time>
      </trkpt>
      <trkpt lat="49.88829" lon="2.35241">
        <ele>42.9</ele>
        <time>2023-03-25T14:57:14Z</time>
      </trkpt>
      <trkpt lat="49.88829" lon="2.35241">
        <ele>42.9</ele>
        <time>2023-03-25T14:57:15Z</time>
      </trkpt>
      <trkpt lat="49.88829" lon="2.35241">
        <ele>42.9</ele>
        <time>2023-03-25T14:57:16Z</time>
      </trkpt>
      <trkpt lat="49.88829" lon="2.35241">
        <ele>42.9</ele>
        <time>2023-03-25T14:57:17Z</time>
      </trkpt>
      <trkpt lat="49.88829" lon="2.35241">
        <ele>42.9</ele>
        <time>2023-03-25T14:57:18Z</time>
      </trkpt>
      <trkpt lat="49.88829" lon="2.35241">
        <ele>42.9</ele>
        <time>2023-03-25T14:57:19Z</time>
      </trkpt>
      <trkpt lat="49.88829" lon="2.35241">
        <ele>42.9</ele>
        <time>2023-03-25T14:57:20Z</time>
      </trkpt>
      <trkpt lat="49.88829" lon="2.35241">
        <ele>42.9</ele>
        <time>2023-03-25T14:57:21Z</time>
      </trkpt>
      <trkpt lat="49.88829" lon="2.35241">
        <ele>42.9</ele>
        <time>2023-03-25T14:57:22Z</time>
      </trkpt>
      <trkpt lat="49.88829" lon="2.35241">
        <ele>42.9</ele>
        <time>2023-03-25T14:57:23Z</time>
      </trkpt>
      <trkpt lat="49.88829" lon="2.35241">
        <ele>42.9</ele>
        <time>2023-03-25T14:57:24Z</time>
      </trkpt>
      <trkpt lat="49.88829" lon="2.35241">
        <ele>42.9</ele>
        <time>2023-03-25T14:57:25Z</time>
      </trkpt>
      <trkpt lat="49.88829" lon="2.35241">
        <ele>42.9</ele>
        <time>2023-03-25T14:57:26Z</time>
      </trkpt>
      <trkpt lat="49.88829" lon="2.35241">
        <ele>42.9</ele>
        <time>2023-03-25T14:57:27Z</time>
      </trkpt>
      <trkpt lat="49.88829" lon="2.35241">
        <ele>42.9</ele>
        <time>2023-03-25T14:57:28Z</time>
      </trkpt>
      <trkpt lat="49.88829" lon="2.35241">
        <ele>42.9</ele>
        <time>2023-03-25T14:57:29Z</time>
      </trkpt>
      <trkpt lat="49.88829" lon="2.35241">
        <ele>42.9</ele>
        <time>2023-03-25T14:57:30Z</time>
      </trkpt>
      <trkpt lat="49.88829" lon="2.35241">
        <ele>42.9</ele>
        <time>2023-03-25T14:57:31Z</time>
      </trkpt>
      <trkpt lat="49.88829" lon="2.35241">
        <ele>42.9</ele>
        <time>2023-03-25T14:57:32Z</time>
      </trkpt>
      <trkpt lat="49.88829" lon="2.35241">
        <ele>42.9</ele>
        <time>2023-03-25T14:57:33Z</time>
      </trkpt>
      <trkpt lat="49.88829" lon="2.35241">
        <ele>42.9</ele>
        <time>2023-03-25T14:57:34Z</time>
      </trkpt>
      <trkpt lat="49.88829" lon="2.35241">
        <ele>42.9</ele>
        <time>2023-03-25T14:57:35Z</time>
      </trkpt>
      <trkpt lat="49.88829" lon="2.35241">
        <ele>42.9</ele>
        <time>2023-03-25T14:57:36Z</time>
      </trkpt>
      <trkpt lat="49.88829" lon="2.35241">
        <ele>42.9</ele>
        <time>2023-03-25T14:57:37Z</time>
      </trkpt>
      <trkpt lat="49.88829" lon="2.35241">
        <ele>42.9</ele>
        <time>2023-03-25T14:57:38Z</time>
      </trkpt>
      <trkpt lat="49.88829" lon="2.35241">
        <ele>42.9</ele>
        <time>2023-03-25T14:57:39Z</time>
      </trkpt>
      <trkpt lat="49.88829" lon="2.35241">
        <ele>42.9</ele>
        <time>2023-03-25T14:57:40Z</time>
      </trkpt>
      <trkpt lat="49.88829" lon="2.35241">
        <ele>42.9</ele>
        <time>2023-03-25T14:57:41Z</time>
      </trkpt>
      <trkpt lat="49.88829" lon="2.35241">
        <ele>42.9</ele>
        <time>2023-03-25T14:57:42Z</time>
      </trkpt>
      <trkpt lat="49.88829" lon="2.35241">
        <ele>42.9</ele>
        <time>2023-03-25T14:57:43Z</time>
      </trkpt>
      <trkpt lat="49.88829" lon="2.35242">
        <ele>42.9</ele>
        <time>2023-03-25T14:57:44Z</time>
      </trkpt>
      <trkpt lat="49.8883" lon="2.35243">
        <ele>42.9</ele>
        <time>2023-03-25T14:57:45Z</time>
      </trkpt>
      <trkpt lat="49.8883" lon="2.35244">
        <ele>42.9</ele>
        <time>2023-03-25T14:57:46Z</time>
      </trkpt>
      <trkpt lat="49.8883" lon="2.35244">
        <ele>42.9</ele>
        <time>2023-03-25T14:57:48Z</time>
      </trkpt>
      <trkpt lat="49.8883" lon="2.35244">
        <ele>42.9</ele>
        <time>2023-03-25T14:57:49Z</time>
      </trkpt>
      <trkpt lat="49.8883" lon="2.35244">
        <ele>42.9</ele>
        <time>2023-03-25T14:57:51Z</time>
      </trkpt>
      <trkpt lat="49.8883" lon="2.35244">
        <ele>42.9</ele>
        <time>2023-03-25T14:57:53Z</time>
      </trkpt>
      <trkpt lat="49.8883" lon="2.35244">
        <ele>42.9</ele>
        <time>2023-03-25T14:57:54Z</time>
      </trkpt>
      <trkpt lat="49.8883" lon="2.35244">
        <ele>42.9</ele>
        <time>2023-03-25T14:57:55Z</time>
      </trkpt>
    </trkseg>
  </trk>
</gpx>